<?xml version='1.0' encoding='UTF-8'?><gpx version="1.1" creator="JPX - https://github.com/jenetics/jpx" xmlns="http://www.topografix.com/GPX/1/1"><trk><trkseg><trkpt lat="42.6940829" lon="-8.5053354"><ele>258.0</ele><time>2026-04-16T07:08:01.832Z</time></trkpt><trkpt lat="42.694045" lon="-8.5052649"><ele>258.0</ele><time>2026-04-16T07:08:03.833Z</time></trkpt><trkpt lat="42.6939774" lon="-8.5052591"><ele>258.0</ele><time>2026-04-16T07:08:09.832Z</time></trkpt><trkpt lat="42.6939417" lon="-8.5053483"><ele>258.0</ele><time>2026-04-16T07:14:11.834Z</time></trkpt><trkpt lat="42.6938833" lon="-8.5054233"><ele>258.0</ele><time>2026-04-16T07:15:02.834Z</time></trkpt><trkpt lat="42.69381" lon="-8.5054533"><ele>258.0</ele><time>2026-04-16T07:15:04.834Z</time></trkpt><trkpt lat="42.69371" lon="-8.505505"><ele>257.8</ele><time>2026-04-16T07:15:06.835Z</time></trkpt><trkpt lat="42.6936433" lon="-8.505555"><ele>257.6</ele><time>2026-04-16T07:15:07.835Z</time></trkpt><trkpt lat="42.693565" lon="-8.50561"><ele>257.4</ele><time>2026-04-16T07:15:08.835Z</time></trkpt><trkpt lat="42.6934533" lon="-8.505685"><ele>257.2</ele><time>2026-04-16T07:15:09.834Z</time></trkpt><trkpt lat="42.6933567" lon="-8.5057483"><ele>257.0</ele><time>2026-04-16T07:15:10.834Z</time></trkpt><trkpt lat="42.6932633" lon="-8.5058"><ele>257.6</ele><time>2026-04-16T07:15:11.834Z</time></trkpt><trkpt lat="42.69316" lon="-8.5058417"><ele>258.2</ele><time>2026-04-16T07:15:12.834Z</time></trkpt><trkpt lat="42.6930617" lon="-8.505875"><ele>258.8</ele><time>2026-04-16T07:15:13.834Z</time></trkpt><trkpt lat="42.6929633" lon="-8.5059167"><ele>259.4</ele><time>2026-04-16T07:15:14.834Z</time></trkpt><trkpt lat="42.6928667" lon="-8.50595"><ele>260.0</ele><time>2026-04-16T07:15:15.834Z</time></trkpt><trkpt lat="42.69277" lon="-8.5059633"><ele>261.6666666666667</ele><time>2026-04-16T07:15:16.835Z</time></trkpt><trkpt lat="42.69268" lon="-8.505985"><ele>263.33333333333337</ele><time>2026-04-16T07:15:17.834Z</time></trkpt><trkpt lat="42.69259" lon="-8.5060067"><ele>265.0</ele><time>2026-04-16T07:15:18.835Z</time></trkpt><trkpt lat="42.6925133" lon="-8.5060217"><ele>266.6666666666667</ele><time>2026-04-16T07:15:19.835Z</time></trkpt><trkpt lat="42.6924467" lon="-8.506045"><ele>268.3333333333333</ele><time>2026-04-16T07:15:20.834Z</time></trkpt><trkpt lat="42.6923333" lon="-8.5060767"><ele>270.0</ele><time>2026-04-16T07:15:22.835Z</time></trkpt><trkpt lat="42.692205" lon="-8.5060933"><ele>270.0</ele><time>2026-04-16T07:15:24.835Z</time></trkpt><trkpt lat="42.6921383" lon="-8.5060867"><ele>270.0</ele><time>2026-04-16T07:15:25.834Z</time></trkpt><trkpt lat="42.6920733" lon="-8.5060767"><ele>270.0</ele><time>2026-04-16T07:15:26.835Z</time></trkpt><trkpt lat="42.692005" lon="-8.50607"><ele>270.0</ele><time>2026-04-16T07:15:27.835Z</time></trkpt><trkpt lat="42.69193" lon="-8.5060633"><ele>270.0</ele><time>2026-04-16T07:15:28.835Z</time></trkpt><trkpt lat="42.6918533" lon="-8.5060533"><ele>270.0</ele><time>2026-04-16T07:15:29.835Z</time></trkpt><trkpt lat="42.6917717" lon="-8.5060417"><ele>270.0</ele><time>2026-04-16T07:15:30.835Z</time></trkpt><trkpt lat="42.6916967" lon="-8.5060283"><ele>271.57142857142856</ele><time>2026-04-16T07:15:31.834Z</time></trkpt><trkpt lat="42.6916333" lon="-8.5060083"><ele>273.1428571428571</ele><time>2026-04-16T07:15:32.834Z</time></trkpt><trkpt lat="42.691565" lon="-8.5059967"><ele>274.7142857142857</ele><time>2026-04-16T07:15:33.835Z</time></trkpt><trkpt lat="42.6914867" lon="-8.5059883"><ele>276.2857142857143</ele><time>2026-04-16T07:15:34.835Z</time></trkpt><trkpt lat="42.69142" lon="-8.5059683"><ele>277.8571428571429</ele><time>2026-04-16T07:15:35.835Z</time></trkpt><trkpt lat="42.69134" lon="-8.505945"><ele>279.42857142857144</ele><time>2026-04-16T07:15:36.835Z</time></trkpt><trkpt lat="42.6912583" lon="-8.505915"><ele>281.0</ele><time>2026-04-16T07:15:37.834Z</time></trkpt><trkpt lat="42.6911733" lon="-8.5058783"><ele>281.0</ele><time>2026-04-16T07:15:38.834Z</time></trkpt><trkpt lat="42.6910967" lon="-8.5058267"><ele>281.0</ele><time>2026-04-16T07:15:39.834Z</time></trkpt><trkpt lat="42.691025" lon="-8.5057533"><ele>281.0</ele><time>2026-04-16T07:15:40.834Z</time></trkpt><trkpt lat="42.6909567" lon="-8.5056667"><ele>281.0</ele><time>2026-04-16T07:15:41.834Z</time></trkpt><trkpt lat="42.6908967" lon="-8.5055633"><ele>281.0</ele><time>2026-04-16T07:15:42.835Z</time></trkpt><trkpt lat="42.6908383" lon="-8.50547"><ele>281.5</ele><time>2026-04-16T07:15:43.835Z</time></trkpt><trkpt lat="42.6907833" lon="-8.505385"><ele>282.0</ele><time>2026-04-16T07:15:44.835Z</time></trkpt><trkpt lat="42.6907317" lon="-8.505305"><ele>282.5</ele><time>2026-04-16T07:15:45.834Z</time></trkpt><trkpt lat="42.6906867" lon="-8.5052233"><ele>283.0</ele><time>2026-04-16T07:15:46.834Z</time></trkpt><trkpt lat="42.6906417" lon="-8.50514"><ele>283.5</ele><time>2026-04-16T07:15:47.835Z</time></trkpt><trkpt lat="42.6905883" lon="-8.5050483"><ele>284.0</ele><time>2026-04-16T07:15:48.835Z</time></trkpt><trkpt lat="42.69054" lon="-8.5049617"><ele>284.0</ele><time>2026-04-16T07:15:49.835Z</time></trkpt><trkpt lat="42.6905083" lon="-8.5048817"><ele>284.0</ele><time>2026-04-16T07:15:50.834Z</time></trkpt><trkpt lat="42.6904683" lon="-8.504815"><ele>284.0</ele><time>2026-04-16T07:15:51.835Z</time></trkpt><trkpt lat="42.6904267" lon="-8.50475"><ele>284.0</ele><time>2026-04-16T07:15:52.834Z</time></trkpt><trkpt lat="42.6903433" lon="-8.50466"><ele>284.0</ele><time>2026-04-16T07:15:54.834Z</time></trkpt><trkpt lat="42.6902767" lon="-8.5046533"><ele>284.0</ele><time>2026-04-16T07:15:56.835Z</time></trkpt><trkpt lat="42.6902" lon="-8.5047433"><ele>284.4</ele><time>2026-04-16T07:15:58.835Z</time></trkpt><trkpt lat="42.6901417" lon="-8.5048133"><ele>284.79999999999995</ele><time>2026-04-16T07:15:59.835Z</time></trkpt><trkpt lat="42.6900733" lon="-8.5048817"><ele>285.20000000000005</ele><time>2026-04-16T07:16:00.835Z</time></trkpt><trkpt lat="42.69" lon="-8.504955"><ele>285.6</ele><time>2026-04-16T07:16:01.835Z</time></trkpt><trkpt lat="42.6899233" lon="-8.50503"><ele>286.0</ele><time>2026-04-16T07:16:02.835Z</time></trkpt><trkpt lat="42.6898333" lon="-8.50511"><ele>286.0</ele><time>2026-04-16T07:16:03.834Z</time></trkpt><trkpt lat="42.6897367" lon="-8.5051817"><ele>286.0</ele><time>2026-04-16T07:16:04.834Z</time></trkpt><trkpt lat="42.6896467" lon="-8.5052633"><ele>286.0</ele><time>2026-04-16T07:16:05.834Z</time></trkpt><trkpt lat="42.6895517" lon="-8.505335"><ele>286.0</ele><time>2026-04-16T07:16:06.835Z</time></trkpt><trkpt lat="42.689455" lon="-8.5054133"><ele>286.0</ele><time>2026-04-16T07:16:07.835Z</time></trkpt><trkpt lat="42.689355" lon="-8.505485"><ele>288.5</ele><time>2026-04-16T07:16:08.835Z</time></trkpt><trkpt lat="42.68926" lon="-8.5055683"><ele>291.0</ele><time>2026-04-16T07:16:09.835Z</time></trkpt><trkpt lat="42.6891617" lon="-8.50565"><ele>293.5</ele><time>2026-04-16T07:16:10.834Z</time></trkpt><trkpt lat="42.68906" lon="-8.505725"><ele>296.0</ele><time>2026-04-16T07:16:11.835Z</time></trkpt><trkpt lat="42.688945" lon="-8.5058083"><ele>296.0</ele><time>2026-04-16T07:16:12.834Z</time></trkpt><trkpt lat="42.688835" lon="-8.5058833"><ele>296.0</ele><time>2026-04-16T07:16:13.834Z</time></trkpt><trkpt lat="42.6887367" lon="-8.5059567"><ele>296.0</ele><time>2026-04-16T07:16:14.835Z</time></trkpt><trkpt lat="42.68863" lon="-8.5060467"><ele>296.0</ele><time>2026-04-16T07:16:15.834Z</time></trkpt><trkpt lat="42.688525" lon="-8.5061233"><ele>297.25</ele><time>2026-04-16T07:16:16.834Z</time></trkpt><trkpt lat="42.6884217" lon="-8.5062017"><ele>298.5</ele><time>2026-04-16T07:16:17.834Z</time></trkpt><trkpt lat="42.6883217" lon="-8.5062817"><ele>299.75</ele><time>2026-04-16T07:16:18.834Z</time></trkpt><trkpt lat="42.6882167" lon="-8.5063467"><ele>301.0</ele><time>2026-04-16T07:16:19.834Z</time></trkpt><trkpt lat="42.6881" lon="-8.5064167"><ele>301.0</ele><time>2026-04-16T07:16:20.834Z</time></trkpt><trkpt lat="42.6879833" lon="-8.506475"><ele>301.0</ele><time>2026-04-16T07:16:21.835Z</time></trkpt><trkpt lat="42.6878733" lon="-8.5065367"><ele>301.0</ele><time>2026-04-16T07:16:22.834Z</time></trkpt><trkpt lat="42.6877533" lon="-8.5066"><ele>301.0</ele><time>2026-04-16T07:16:23.834Z</time></trkpt><trkpt lat="42.6876367" lon="-8.5066617"><ele>301.5</ele><time>2026-04-16T07:16:24.834Z</time></trkpt><trkpt lat="42.6875167" lon="-8.5067233"><ele>302.0</ele><time>2026-04-16T07:16:25.834Z</time></trkpt><trkpt lat="42.6874017" lon="-8.5067917"><ele>302.5</ele><time>2026-04-16T07:16:26.835Z</time></trkpt><trkpt lat="42.6872983" lon="-8.5068433"><ele>303.0</ele><time>2026-04-16T07:16:27.834Z</time></trkpt><trkpt lat="42.6872" lon="-8.5068967"><ele>303.0</ele><time>2026-04-16T07:16:28.834Z</time></trkpt><trkpt lat="42.6871067" lon="-8.5069517"><ele>303.0</ele><time>2026-04-16T07:16:29.834Z</time></trkpt><trkpt lat="42.6870167" lon="-8.5070033"><ele>303.0</ele><time>2026-04-16T07:16:30.834Z</time></trkpt><trkpt lat="42.6869433" lon="-8.5070617"><ele>303.0</ele><time>2026-04-16T07:16:31.835Z</time></trkpt><trkpt lat="42.6868817" lon="-8.5071217"><ele>303.0</ele><time>2026-04-16T07:16:32.835Z</time></trkpt><trkpt lat="42.68679" lon="-8.5071883"><ele>303.4</ele><time>2026-04-16T07:16:34.835Z</time></trkpt><trkpt lat="42.6866767" lon="-8.5071833"><ele>303.8</ele><time>2026-04-16T07:16:36.835Z</time></trkpt><trkpt lat="42.6866083" lon="-8.5071533"><ele>304.2</ele><time>2026-04-16T07:16:37.835Z</time></trkpt><trkpt lat="42.6865317" lon="-8.5071067"><ele>304.6</ele><time>2026-04-16T07:16:38.834Z</time></trkpt><trkpt lat="42.68645" lon="-8.5070483"><ele>305.0</ele><time>2026-04-16T07:16:39.834Z</time></trkpt><trkpt lat="42.6863517" lon="-8.5069717"><ele>305.0</ele><time>2026-04-16T07:16:40.835Z</time></trkpt><trkpt lat="42.6862283" lon="-8.5069"><ele>305.0</ele><time>2026-04-16T07:16:41.834Z</time></trkpt><trkpt lat="42.68609" lon="-8.5068117"><ele>305.0</ele><time>2026-04-16T07:16:42.834Z</time></trkpt><trkpt lat="42.68595" lon="-8.5067533"><ele>305.0</ele><time>2026-04-16T07:16:43.834Z</time></trkpt><trkpt lat="42.6858183" lon="-8.5066733"><ele>306.2</ele><time>2026-04-16T07:16:44.834Z</time></trkpt><trkpt lat="42.6857017" lon="-8.5065933"><ele>307.4</ele><time>2026-04-16T07:16:45.834Z</time></trkpt><trkpt lat="42.6856067" lon="-8.5065183"><ele>308.6</ele><time>2026-04-16T07:16:46.834Z</time></trkpt><trkpt lat="42.68553" lon="-8.5064333"><ele>309.8</ele><time>2026-04-16T07:16:47.835Z</time></trkpt><trkpt lat="42.68546" lon="-8.5063583"><ele>311.0</ele><time>2026-04-16T07:16:48.834Z</time></trkpt><trkpt lat="42.6853933" lon="-8.50628"><ele>311.0</ele><time>2026-04-16T07:16:49.834Z</time></trkpt><trkpt lat="42.68533" lon="-8.5061867"><ele>311.0</ele><time>2026-04-16T07:16:50.834Z</time></trkpt><trkpt lat="42.68527" lon="-8.5060783"><ele>311.0</ele><time>2026-04-16T07:16:51.835Z</time></trkpt><trkpt lat="42.6851883" lon="-8.505945"><ele>311.0</ele><time>2026-04-16T07:16:52.835Z</time></trkpt><trkpt lat="42.6851567" lon="-8.5058167"><ele>311.0</ele><time>2026-04-16T07:16:53.835Z</time></trkpt><trkpt lat="42.6851233" lon="-8.50569"><ele>311.0</ele><time>2026-04-16T07:16:54.834Z</time></trkpt><trkpt lat="42.68509" lon="-8.505565"><ele>311.0</ele><time>2026-04-16T07:16:55.835Z</time></trkpt><trkpt lat="42.6850617" lon="-8.505435"><ele>311.0</ele><time>2026-04-16T07:16:56.834Z</time></trkpt><trkpt lat="42.685045" lon="-8.5052983"><ele>311.0</ele><time>2026-04-16T07:16:57.834Z</time></trkpt><trkpt lat="42.685035" lon="-8.5051633"><ele>311.0</ele><time>2026-04-16T07:16:58.834Z</time></trkpt><trkpt lat="42.68503" lon="-8.505025"><ele>310.8</ele><time>2026-04-16T07:16:59.835Z</time></trkpt><trkpt lat="42.6850317" lon="-8.5048883"><ele>310.6</ele><time>2026-04-16T07:17:00.834Z</time></trkpt><trkpt lat="42.6850467" lon="-8.50475"><ele>310.4</ele><time>2026-04-16T07:17:01.835Z</time></trkpt><trkpt lat="42.6850667" lon="-8.504615"><ele>310.2</ele><time>2026-04-16T07:17:02.835Z</time></trkpt><trkpt lat="42.6850917" lon="-8.5044867"><ele>310.0</ele><time>2026-04-16T07:17:03.835Z</time></trkpt><trkpt lat="42.685125" lon="-8.5043567"><ele>310.0</ele><time>2026-04-16T07:17:04.835Z</time></trkpt><trkpt lat="42.6851717" lon="-8.5042317"><ele>310.0</ele><time>2026-04-16T07:17:05.834Z</time></trkpt><trkpt lat="42.6852283" lon="-8.5041017"><ele>310.0</ele><time>2026-04-16T07:17:06.834Z</time></trkpt><trkpt lat="42.6852833" lon="-8.5039783"><ele>310.0</ele><time>2026-04-16T07:17:07.834Z</time></trkpt><trkpt lat="42.6853467" lon="-8.5038583"><ele>310.0</ele><time>2026-04-16T07:17:08.834Z</time></trkpt><trkpt lat="42.685405" lon="-8.5037383"><ele>308.6</ele><time>2026-04-16T07:17:09.835Z</time></trkpt><trkpt lat="42.6854717" lon="-8.5036217"><ele>307.2</ele><time>2026-04-16T07:17:10.834Z</time></trkpt><trkpt lat="42.685525" lon="-8.5035017"><ele>305.8</ele><time>2026-04-16T07:17:11.834Z</time></trkpt><trkpt lat="42.68558" lon="-8.50338"><ele>304.4</ele><time>2026-04-16T07:17:12.835Z</time></trkpt><trkpt lat="42.6856317" lon="-8.5032583"><ele>303.0</ele><time>2026-04-16T07:17:13.834Z</time></trkpt><trkpt lat="42.6856783" lon="-8.50314"><ele>303.0</ele><time>2026-04-16T07:17:14.835Z</time></trkpt><trkpt lat="42.685715" lon="-8.5030133"><ele>303.0</ele><time>2026-04-16T07:17:15.835Z</time></trkpt><trkpt lat="42.68573" lon="-8.5028833"><ele>303.0</ele><time>2026-04-16T07:17:16.834Z</time></trkpt><trkpt lat="42.6857483" lon="-8.5027683"><ele>303.0</ele><time>2026-04-16T07:17:17.834Z</time></trkpt><trkpt lat="42.68578" lon="-8.5026533"><ele>303.0</ele><time>2026-04-16T07:17:18.835Z</time></trkpt><trkpt lat="42.6858333" lon="-8.5025533"><ele>303.4</ele><time>2026-04-16T07:17:19.835Z</time></trkpt><trkpt lat="42.685905" lon="-8.5024633"><ele>303.8</ele><time>2026-04-16T07:17:20.835Z</time></trkpt><trkpt lat="42.6859833" lon="-8.50237"><ele>304.2</ele><time>2026-04-16T07:17:21.834Z</time></trkpt><trkpt lat="42.68606" lon="-8.5022733"><ele>304.6</ele><time>2026-04-16T07:17:22.834Z</time></trkpt><trkpt lat="42.68613" lon="-8.5021733"><ele>305.0</ele><time>2026-04-16T07:17:23.835Z</time></trkpt><trkpt lat="42.6861867" lon="-8.5020633"><ele>304.2</ele><time>2026-04-16T07:17:24.835Z</time></trkpt><trkpt lat="42.6862383" lon="-8.501955"><ele>303.4</ele><time>2026-04-16T07:17:25.835Z</time></trkpt><trkpt lat="42.68629" lon="-8.501845"><ele>302.6</ele><time>2026-04-16T07:17:26.835Z</time></trkpt><trkpt lat="42.6863417" lon="-8.5017333"><ele>301.8</ele><time>2026-04-16T07:17:27.834Z</time></trkpt><trkpt lat="42.68639" lon="-8.5016283"><ele>301.0</ele><time>2026-04-16T07:17:28.834Z</time></trkpt><trkpt lat="42.6864333" lon="-8.5015083"><ele>301.0</ele><time>2026-04-16T07:17:29.834Z</time></trkpt><trkpt lat="42.6864783" lon="-8.5013867"><ele>301.0</ele><time>2026-04-16T07:17:30.835Z</time></trkpt><trkpt lat="42.6865267" lon="-8.5012717"><ele>301.0</ele><time>2026-04-16T07:17:31.834Z</time></trkpt><trkpt lat="42.68658" lon="-8.5011533"><ele>301.0</ele><time>2026-04-16T07:17:32.834Z</time></trkpt><trkpt lat="42.6866367" lon="-8.501035"><ele>301.0</ele><time>2026-04-16T07:17:33.834Z</time></trkpt><trkpt lat="42.6866933" lon="-8.5009033"><ele>301.2</ele><time>2026-04-16T07:17:34.834Z</time></trkpt><trkpt lat="42.6867483" lon="-8.500785"><ele>301.40000000000003</ele><time>2026-04-16T07:17:35.834Z</time></trkpt><trkpt lat="42.686805" lon="-8.5006633"><ele>301.6</ele><time>2026-04-16T07:17:36.835Z</time></trkpt><trkpt lat="42.6868683" lon="-8.5005367"><ele>301.8</ele><time>2026-04-16T07:17:37.835Z</time></trkpt><trkpt lat="42.686925" lon="-8.5004117"><ele>302.0</ele><time>2026-04-16T07:17:38.835Z</time></trkpt><trkpt lat="42.68699" lon="-8.5002733"><ele>302.0</ele><time>2026-04-16T07:17:39.834Z</time></trkpt><trkpt lat="42.6870467" lon="-8.5001583"><ele>302.0</ele><time>2026-04-16T07:17:40.834Z</time></trkpt><trkpt lat="42.687105" lon="-8.5000517"><ele>302.0</ele><time>2026-04-16T07:17:41.834Z</time></trkpt><trkpt lat="42.6871683" lon="-8.499945"><ele>302.0</ele><time>2026-04-16T07:17:42.835Z</time></trkpt><trkpt lat="42.687235" lon="-8.49984"><ele>302.0</ele><time>2026-04-16T07:17:43.834Z</time></trkpt><trkpt lat="42.6873117" lon="-8.4997383"><ele>302.0</ele><time>2026-04-16T07:17:44.834Z</time></trkpt><trkpt lat="42.6873617" lon="-8.4996217"><ele>302.0</ele><time>2026-04-16T07:17:45.834Z</time></trkpt><trkpt lat="42.687415" lon="-8.499515"><ele>302.0</ele><time>2026-04-16T07:17:46.834Z</time></trkpt><trkpt lat="42.6874717" lon="-8.4993967"><ele>302.0</ele><time>2026-04-16T07:17:47.835Z</time></trkpt><trkpt lat="42.68752" lon="-8.499285"><ele>302.0</ele><time>2026-04-16T07:17:48.834Z</time></trkpt><trkpt lat="42.6875617" lon="-8.4991917"><ele>302.83333333333337</ele><time>2026-04-16T07:17:49.834Z</time></trkpt><trkpt lat="42.6876017" lon="-8.4991067"><ele>303.6666666666667</ele><time>2026-04-16T07:17:50.834Z</time></trkpt><trkpt lat="42.6876433" lon="-8.4990167"><ele>304.5</ele><time>2026-04-16T07:17:51.835Z</time></trkpt><trkpt lat="42.6876833" lon="-8.49893"><ele>305.3333333333333</ele><time>2026-04-16T07:17:52.835Z</time></trkpt><trkpt lat="42.6877317" lon="-8.49884"><ele>306.16666666666663</ele><time>2026-04-16T07:17:53.834Z</time></trkpt><trkpt lat="42.68777" lon="-8.4987367"><ele>307.0</ele><time>2026-04-16T07:17:54.834Z</time></trkpt><trkpt lat="42.6878083" lon="-8.4986283"><ele>307.0</ele><time>2026-04-16T07:17:55.835Z</time></trkpt><trkpt lat="42.687855" lon="-8.498525"><ele>307.0</ele><time>2026-04-16T07:17:56.835Z</time></trkpt><trkpt lat="42.6879067" lon="-8.4984017"><ele>307.0</ele><time>2026-04-16T07:17:57.834Z</time></trkpt><trkpt lat="42.687945" lon="-8.4982883"><ele>307.0</ele><time>2026-04-16T07:17:58.835Z</time></trkpt><trkpt lat="42.6879833" lon="-8.4981733"><ele>307.0</ele><time>2026-04-16T07:17:59.835Z</time></trkpt><trkpt lat="42.6880083" lon="-8.4980667"><ele>306.99999999999994</ele><time>2026-04-16T07:18:00.834Z</time></trkpt><trkpt lat="42.6880317" lon="-8.4979617"><ele>307.0</ele><time>2026-04-16T07:18:01.834Z</time></trkpt><trkpt lat="42.6880467" lon="-8.4978717"><ele>307.0</ele><time>2026-04-16T07:18:02.835Z</time></trkpt><trkpt lat="42.688055" lon="-8.4977833"><ele>307.0</ele><time>2026-04-16T07:18:03.834Z</time></trkpt><trkpt lat="42.6880717" lon="-8.4976917"><ele>307.0</ele><time>2026-04-16T07:18:04.834Z</time></trkpt><trkpt lat="42.6880833" lon="-8.4976"><ele>306.99999999999994</ele><time>2026-04-16T07:18:05.834Z</time></trkpt><trkpt lat="42.6880967" lon="-8.4975033"><ele>307.0</ele><time>2026-04-16T07:18:06.835Z</time></trkpt><trkpt lat="42.688115" lon="-8.4974133"><ele>307.5</ele><time>2026-04-16T07:18:07.835Z</time></trkpt><trkpt lat="42.6881317" lon="-8.497325"><ele>308.0</ele><time>2026-04-16T07:18:08.834Z</time></trkpt><trkpt lat="42.68814" lon="-8.497235"><ele>308.5</ele><time>2026-04-16T07:18:09.834Z</time></trkpt><trkpt lat="42.6881483" lon="-8.49714"><ele>309.0</ele><time>2026-04-16T07:18:10.834Z</time></trkpt><trkpt lat="42.688165" lon="-8.4970467"><ele>309.5</ele><time>2026-04-16T07:18:11.835Z</time></trkpt><trkpt lat="42.6881933" lon="-8.4969617"><ele>310.0</ele><time>2026-04-16T07:18:12.834Z</time></trkpt><trkpt lat="42.68823" lon="-8.4968083"><ele>310.5</ele><time>2026-04-16T07:18:14.834Z</time></trkpt><trkpt lat="42.6882467" lon="-8.4966733"><ele>311.0</ele><time>2026-04-16T07:18:16.835Z</time></trkpt><trkpt lat="42.68826" lon="-8.496555"><ele>311.5</ele><time>2026-04-16T07:18:18.835Z</time></trkpt><trkpt lat="42.6882667" lon="-8.4964533"><ele>312.0</ele><time>2026-04-16T07:18:20.835Z</time></trkpt><trkpt lat="42.6882633" lon="-8.4963583"><ele>312.5</ele><time>2026-04-16T07:18:23.835Z</time></trkpt><trkpt lat="42.6882433" lon="-8.4962733"><ele>313.0</ele><time>2026-04-16T07:18:26.835Z</time></trkpt><trkpt lat="42.6881883" lon="-8.49623"><ele>313.0</ele><time>2026-04-16T07:18:48.834Z</time></trkpt><trkpt lat="42.6881783" lon="-8.496085"><ele>313.0</ele><time>2026-04-16T07:18:50.834Z</time></trkpt><trkpt lat="42.6881783" lon="-8.4959617"><ele>313.0</ele><time>2026-04-16T07:18:51.834Z</time></trkpt><trkpt lat="42.6881833" lon="-8.49582"><ele>313.0</ele><time>2026-04-16T07:18:52.835Z</time></trkpt><trkpt lat="42.68819" lon="-8.495685"><ele>313.0</ele><time>2026-04-16T07:18:53.834Z</time></trkpt><trkpt lat="42.688195" lon="-8.4955517"><ele>313.16666666666663</ele><time>2026-04-16T07:18:54.834Z</time></trkpt><trkpt lat="42.688205" lon="-8.495415"><ele>313.3333333333333</ele><time>2026-04-16T07:18:55.835Z</time></trkpt><trkpt lat="42.688215" lon="-8.495285"><ele>313.5</ele><time>2026-04-16T07:18:56.834Z</time></trkpt><trkpt lat="42.688215" lon="-8.4951767"><ele>313.6666666666667</ele><time>2026-04-16T07:18:57.834Z</time></trkpt><trkpt lat="42.68822" lon="-8.4950767"><ele>313.83333333333337</ele><time>2026-04-16T07:18:58.834Z</time></trkpt><trkpt lat="42.6882267" lon="-8.49498"><ele>314.0</ele><time>2026-04-16T07:18:59.834Z</time></trkpt><trkpt lat="42.688245" lon="-8.4948817"><ele>314.0</ele><time>2026-04-16T07:19:00.834Z</time></trkpt><trkpt lat="42.6882633" lon="-8.4947817"><ele>314.0</ele><time>2026-04-16T07:19:01.835Z</time></trkpt><trkpt lat="42.6882817" lon="-8.4946833"><ele>314.0</ele><time>2026-04-16T07:19:02.835Z</time></trkpt><trkpt lat="42.688295" lon="-8.49458"><ele>314.0</ele><time>2026-04-16T07:19:03.835Z</time></trkpt><trkpt lat="42.6883017" lon="-8.4944717"><ele>314.0</ele><time>2026-04-16T07:19:04.834Z</time></trkpt><trkpt lat="42.68829" lon="-8.4943617"><ele>314.0</ele><time>2026-04-16T07:19:05.835Z</time></trkpt><trkpt lat="42.688285" lon="-8.4942533"><ele>313.83333333333337</ele><time>2026-04-16T07:19:06.835Z</time></trkpt><trkpt lat="42.6882717" lon="-8.49415"><ele>313.6666666666667</ele><time>2026-04-16T07:19:07.834Z</time></trkpt><trkpt lat="42.688255" lon="-8.49404"><ele>313.5</ele><time>2026-04-16T07:19:08.835Z</time></trkpt><trkpt lat="42.6882517" lon="-8.493925"><ele>313.3333333333333</ele><time>2026-04-16T07:19:09.834Z</time></trkpt><trkpt lat="42.6882517" lon="-8.493805"><ele>313.16666666666663</ele><time>2026-04-16T07:19:10.834Z</time></trkpt><trkpt lat="42.6882517" lon="-8.4936867"><ele>313.0</ele><time>2026-04-16T07:19:11.834Z</time></trkpt><trkpt lat="42.68824" lon="-8.4935633"><ele>313.0</ele><time>2026-04-16T07:19:12.835Z</time></trkpt><trkpt lat="42.6882417" lon="-8.4934367"><ele>313.0</ele><time>2026-04-16T07:19:13.834Z</time></trkpt><trkpt lat="42.68822" lon="-8.4933167"><ele>313.0</ele><time>2026-04-16T07:19:14.834Z</time></trkpt><trkpt lat="42.688225" lon="-8.4931933"><ele>313.0</ele><time>2026-04-16T07:19:15.835Z</time></trkpt><trkpt lat="42.6882267" lon="-8.4930583"><ele>313.0</ele><time>2026-04-16T07:19:16.834Z</time></trkpt><trkpt lat="42.6882267" lon="-8.4929317"><ele>312.0</ele><time>2026-04-16T07:19:17.835Z</time></trkpt><trkpt lat="42.68823" lon="-8.4928133"><ele>311.0</ele><time>2026-04-16T07:19:18.834Z</time></trkpt><trkpt lat="42.6882433" lon="-8.4927033"><ele>310.0</ele><time>2026-04-16T07:19:19.835Z</time></trkpt><trkpt lat="42.6882533" lon="-8.4926"><ele>309.0</ele><time>2026-04-16T07:19:20.835Z</time></trkpt><trkpt lat="42.6882683" lon="-8.4924983"><ele>308.0</ele><time>2026-04-16T07:19:21.835Z</time></trkpt><trkpt lat="42.68828" lon="-8.4923933"><ele>307.0</ele><time>2026-04-16T07:19:22.834Z</time></trkpt><trkpt lat="42.6882917" lon="-8.492285"><ele>307.0</ele><time>2026-04-16T07:19:23.834Z</time></trkpt><trkpt lat="42.6883" lon="-8.4921817"><ele>307.0</ele><time>2026-04-16T07:19:24.835Z</time></trkpt><trkpt lat="42.6883083" lon="-8.4920783"><ele>307.0</ele><time>2026-04-16T07:19:25.835Z</time></trkpt><trkpt lat="42.6883217" lon="-8.4919733"><ele>307.0</ele><time>2026-04-16T07:19:26.834Z</time></trkpt><trkpt lat="42.6883333" lon="-8.4918633"><ele>307.0</ele><time>2026-04-16T07:19:27.834Z</time></trkpt><trkpt lat="42.6883433" lon="-8.4917417"><ele>307.0</ele><time>2026-04-16T07:19:28.834Z</time></trkpt><trkpt lat="42.6883383" lon="-8.4916133"><ele>306.0</ele><time>2026-04-16T07:19:29.834Z</time></trkpt><trkpt lat="42.68833" lon="-8.4914917"><ele>305.0</ele><time>2026-04-16T07:19:30.834Z</time></trkpt><trkpt lat="42.6883267" lon="-8.4913767"><ele>304.0</ele><time>2026-04-16T07:19:31.835Z</time></trkpt><trkpt lat="42.6883133" lon="-8.491265"><ele>303.0</ele><time>2026-04-16T07:19:32.834Z</time></trkpt><trkpt lat="42.6882783" lon="-8.49115"><ele>302.0</ele><time>2026-04-16T07:19:33.835Z</time></trkpt><trkpt lat="42.6882633" lon="-8.49105"><ele>301.0</ele><time>2026-04-16T07:19:34.834Z</time></trkpt><trkpt lat="42.688255" lon="-8.4909483"><ele>300.6</ele><time>2026-04-16T07:19:35.835Z</time></trkpt><trkpt lat="42.6882533" lon="-8.4908367"><ele>300.20000000000005</ele><time>2026-04-16T07:19:36.834Z</time></trkpt><trkpt lat="42.6882417" lon="-8.4907217"><ele>299.79999999999995</ele><time>2026-04-16T07:19:37.834Z</time></trkpt><trkpt lat="42.688235" lon="-8.4905967"><ele>299.4</ele><time>2026-04-16T07:19:38.835Z</time></trkpt><trkpt lat="42.688235" lon="-8.4904667"><ele>299.0</ele><time>2026-04-16T07:19:39.835Z</time></trkpt><trkpt lat="42.688235" lon="-8.49033"><ele>299.0</ele><time>2026-04-16T07:19:40.835Z</time></trkpt><trkpt lat="42.6882417" lon="-8.4901983"><ele>299.0</ele><time>2026-04-16T07:19:41.834Z</time></trkpt><trkpt lat="42.6882467" lon="-8.4900767"><ele>299.0</ele><time>2026-04-16T07:19:42.834Z</time></trkpt><trkpt lat="42.688255" lon="-8.4899667"><ele>299.0</ele><time>2026-04-16T07:19:43.834Z</time></trkpt><trkpt lat="42.68827" lon="-8.4898533"><ele>299.0</ele><time>2026-04-16T07:19:44.834Z</time></trkpt><trkpt lat="42.68828" lon="-8.4897367"><ele>299.0</ele><time>2026-04-16T07:19:45.835Z</time></trkpt><trkpt lat="42.688285" lon="-8.4896217"><ele>299.1666666666667</ele><time>2026-04-16T07:19:46.834Z</time></trkpt><trkpt lat="42.6882867" lon="-8.4894983"><ele>299.33333333333337</ele><time>2026-04-16T07:19:47.834Z</time></trkpt><trkpt lat="42.6882883" lon="-8.489375"><ele>299.5</ele><time>2026-04-16T07:19:48.834Z</time></trkpt><trkpt lat="42.6882883" lon="-8.4892517"><ele>299.6666666666667</ele><time>2026-04-16T07:19:49.834Z</time></trkpt><trkpt lat="42.68828" lon="-8.4891367"><ele>299.8333333333333</ele><time>2026-04-16T07:19:50.834Z</time></trkpt><trkpt lat="42.6882783" lon="-8.4890267"><ele>300.0</ele><time>2026-04-16T07:19:51.835Z</time></trkpt><trkpt lat="42.6882817" lon="-8.488915"><ele>300.0</ele><time>2026-04-16T07:19:52.835Z</time></trkpt><trkpt lat="42.68828" lon="-8.4888083"><ele>300.0</ele><time>2026-04-16T07:19:53.835Z</time></trkpt><trkpt lat="42.6882833" lon="-8.4886967"><ele>300.0</ele><time>2026-04-16T07:19:54.835Z</time></trkpt><trkpt lat="42.6882783" lon="-8.4885783"><ele>300.0</ele><time>2026-04-16T07:19:55.834Z</time></trkpt><trkpt lat="42.688275" lon="-8.4884683"><ele>300.0</ele><time>2026-04-16T07:19:56.834Z</time></trkpt><trkpt lat="42.6882817" lon="-8.4883567"><ele>300.0</ele><time>2026-04-16T07:19:57.834Z</time></trkpt><trkpt lat="42.6882833" lon="-8.4882467"><ele>299.8333333333333</ele><time>2026-04-16T07:19:58.835Z</time></trkpt><trkpt lat="42.6882783" lon="-8.48814"><ele>299.6666666666667</ele><time>2026-04-16T07:19:59.834Z</time></trkpt><trkpt lat="42.6882917" lon="-8.4880333"><ele>299.5</ele><time>2026-04-16T07:20:00.835Z</time></trkpt><trkpt lat="42.6882933" lon="-8.4879333"><ele>299.33333333333337</ele><time>2026-04-16T07:20:01.834Z</time></trkpt><trkpt lat="42.6882817" lon="-8.4878417"><ele>299.1666666666667</ele><time>2026-04-16T07:20:02.834Z</time></trkpt><trkpt lat="42.6882517" lon="-8.48768"><ele>299.0</ele><time>2026-04-16T07:20:04.834Z</time></trkpt><trkpt lat="42.6882383" lon="-8.4875583"><ele>298.6666666666667</ele><time>2026-04-16T07:20:06.834Z</time></trkpt><trkpt lat="42.6882467" lon="-8.4874317"><ele>298.33333333333337</ele><time>2026-04-16T07:20:08.835Z</time></trkpt><trkpt lat="42.688235" lon="-8.4873367"><ele>298.0</ele><time>2026-04-16T07:20:09.835Z</time></trkpt><trkpt lat="42.6882367" lon="-8.4872283"><ele>297.6666666666667</ele><time>2026-04-16T07:20:10.835Z</time></trkpt><trkpt lat="42.6882283" lon="-8.4871"><ele>297.3333333333333</ele><time>2026-04-16T07:20:11.834Z</time></trkpt><trkpt lat="42.6882317" lon="-8.4869733"><ele>297.0</ele><time>2026-04-16T07:20:12.835Z</time></trkpt><trkpt lat="42.6882367" lon="-8.48683"><ele>296.8</ele><time>2026-04-16T07:20:13.834Z</time></trkpt><trkpt lat="42.6882433" lon="-8.48669"><ele>296.6</ele><time>2026-04-16T07:20:14.834Z</time></trkpt><trkpt lat="42.6882667" lon="-8.4865583"><ele>296.40000000000003</ele><time>2026-04-16T07:20:15.834Z</time></trkpt><trkpt lat="42.6882833" lon="-8.4864383"><ele>296.2</ele><time>2026-04-16T07:20:16.835Z</time></trkpt><trkpt lat="42.6883" lon="-8.4863283"><ele>296.0</ele><time>2026-04-16T07:20:17.835Z</time></trkpt><trkpt lat="42.688305" lon="-8.4862167"><ele>295.5</ele><time>2026-04-16T07:20:18.834Z</time></trkpt><trkpt lat="42.688315" lon="-8.4861"><ele>295.0</ele><time>2026-04-16T07:20:19.834Z</time></trkpt><trkpt lat="42.6883217" lon="-8.4859867"><ele>294.5</ele><time>2026-04-16T07:20:20.835Z</time></trkpt><trkpt lat="42.6883233" lon="-8.4858717"><ele>294.0</ele><time>2026-04-16T07:20:21.835Z</time></trkpt><trkpt lat="42.6883283" lon="-8.4857633"><ele>293.5</ele><time>2026-04-16T07:20:22.835Z</time></trkpt><trkpt lat="42.6883317" lon="-8.4856633"><ele>293.0</ele><time>2026-04-16T07:20:23.835Z</time></trkpt><trkpt lat="42.68832" lon="-8.4855033"><ele>293.0</ele><time>2026-04-16T07:20:25.835Z</time></trkpt><trkpt lat="42.6883233" lon="-8.485355"><ele>293.0</ele><time>2026-04-16T07:20:27.834Z</time></trkpt><trkpt lat="42.68833" lon="-8.4852617"><ele>293.0</ele><time>2026-04-16T07:20:28.834Z</time></trkpt><trkpt lat="42.688335" lon="-8.48516"><ele>293.0</ele><time>2026-04-16T07:20:29.835Z</time></trkpt><trkpt lat="42.6883433" lon="-8.485055"><ele>293.0</ele><time>2026-04-16T07:20:30.834Z</time></trkpt><trkpt lat="42.6883467" lon="-8.484945"><ele>293.0</ele><time>2026-04-16T07:20:31.834Z</time></trkpt><trkpt lat="42.688345" lon="-8.4848283"><ele>293.0</ele><time>2026-04-16T07:20:32.835Z</time></trkpt><trkpt lat="42.68834" lon="-8.4847117"><ele>293.0</ele><time>2026-04-16T07:20:33.834Z</time></trkpt><trkpt lat="42.688335" lon="-8.4845933"><ele>293.0</ele><time>2026-04-16T07:20:34.834Z</time></trkpt><trkpt lat="42.68833" lon="-8.4844733"><ele>293.0</ele><time>2026-04-16T07:20:35.834Z</time></trkpt><trkpt lat="42.68833" lon="-8.4843517"><ele>293.0</ele><time>2026-04-16T07:20:36.834Z</time></trkpt><trkpt lat="42.6883317" lon="-8.4842183"><ele>293.0</ele><time>2026-04-16T07:20:37.834Z</time></trkpt><trkpt lat="42.6883317" lon="-8.484085"><ele>292.6</ele><time>2026-04-16T07:20:38.834Z</time></trkpt><trkpt lat="42.68833" lon="-8.4839517"><ele>292.20000000000005</ele><time>2026-04-16T07:20:39.835Z</time></trkpt><trkpt lat="42.688325" lon="-8.4838133"><ele>291.8</ele><time>2026-04-16T07:20:40.835Z</time></trkpt><trkpt lat="42.688325" lon="-8.48367"><ele>291.40000000000003</ele><time>2026-04-16T07:20:41.834Z</time></trkpt><trkpt lat="42.688325" lon="-8.48352"><ele>291.0</ele><time>2026-04-16T07:20:42.834Z</time></trkpt><trkpt lat="42.6883267" lon="-8.4833617"><ele>290.5</ele><time>2026-04-16T07:20:43.834Z</time></trkpt><trkpt lat="42.6883267" lon="-8.483205"><ele>290.0</ele><time>2026-04-16T07:20:44.835Z</time></trkpt><trkpt lat="42.6883333" lon="-8.483045"><ele>289.5</ele><time>2026-04-16T07:20:45.834Z</time></trkpt><trkpt lat="42.6883367" lon="-8.4828767"><ele>289.0</ele><time>2026-04-16T07:20:46.834Z</time></trkpt><trkpt lat="42.6883433" lon="-8.48271"><ele>289.0</ele><time>2026-04-16T07:20:47.835Z</time></trkpt><trkpt lat="42.6883467" lon="-8.48254"><ele>289.0</ele><time>2026-04-16T07:20:48.835Z</time></trkpt><trkpt lat="42.688345" lon="-8.4823633"><ele>289.0</ele><time>2026-04-16T07:20:49.834Z</time></trkpt><trkpt lat="42.68835" lon="-8.4821833"><ele>289.0</ele><time>2026-04-16T07:20:50.835Z</time></trkpt><trkpt lat="42.6883583" lon="-8.482"><ele>288.5</ele><time>2026-04-16T07:20:51.835Z</time></trkpt><trkpt lat="42.68836" lon="-8.4818133"><ele>288.0</ele><time>2026-04-16T07:20:52.834Z</time></trkpt><trkpt lat="42.6883717" lon="-8.4816233"><ele>287.5</ele><time>2026-04-16T07:20:53.834Z</time></trkpt><trkpt lat="42.688375" lon="-8.4814317"><ele>287.0</ele><time>2026-04-16T07:20:54.834Z</time></trkpt><trkpt lat="42.6883767" lon="-8.48124"><ele>285.75</ele><time>2026-04-16T07:20:55.835Z</time></trkpt><trkpt lat="42.68838" lon="-8.4810483"><ele>284.5</ele><time>2026-04-16T07:20:56.834Z</time></trkpt><trkpt lat="42.6883867" lon="-8.4808567"><ele>283.25</ele><time>2026-04-16T07:20:57.834Z</time></trkpt><trkpt lat="42.6883933" lon="-8.4806633"><ele>282.0</ele><time>2026-04-16T07:20:58.835Z</time></trkpt><trkpt lat="42.688395" lon="-8.4804767"><ele>280.75</ele><time>2026-04-16T07:20:59.835Z</time></trkpt><trkpt lat="42.6884017" lon="-8.4802817"><ele>279.5</ele><time>2026-04-16T07:21:00.834Z</time></trkpt><trkpt lat="42.6884017" lon="-8.4800783"><ele>278.25</ele><time>2026-04-16T07:21:01.835Z</time></trkpt><trkpt lat="42.688405" lon="-8.4798883"><ele>277.0</ele><time>2026-04-16T07:21:02.835Z</time></trkpt><trkpt lat="42.6884083" lon="-8.479695"><ele>276.5</ele><time>2026-04-16T07:21:03.834Z</time></trkpt><trkpt lat="42.6884133" lon="-8.4795033"><ele>276.0</ele><time>2026-04-16T07:21:04.834Z</time></trkpt><trkpt lat="42.6884133" lon="-8.479305"><ele>275.5</ele><time>2026-04-16T07:21:05.835Z</time></trkpt><trkpt lat="42.68842" lon="-8.4791067"><ele>275.0</ele><time>2026-04-16T07:21:06.834Z</time></trkpt><trkpt lat="42.6884117" lon="-8.478905"><ele>273.75</ele><time>2026-04-16T07:21:07.835Z</time></trkpt><trkpt lat="42.6884167" lon="-8.4787117"><ele>272.5</ele><time>2026-04-16T07:21:08.834Z</time></trkpt><trkpt lat="42.6884217" lon="-8.4785117"><ele>271.25</ele><time>2026-04-16T07:21:09.834Z</time></trkpt><trkpt lat="42.6884167" lon="-8.478305"><ele>270.0</ele><time>2026-04-16T07:21:10.835Z</time></trkpt><trkpt lat="42.6884183" lon="-8.4781117"><ele>268.6666666666667</ele><time>2026-04-16T07:21:11.835Z</time></trkpt><trkpt lat="42.6884233" lon="-8.477905"><ele>267.33333333333337</ele><time>2026-04-16T07:21:12.835Z</time></trkpt><trkpt lat="42.68844" lon="-8.4776883"><ele>266.0</ele><time>2026-04-16T07:21:13.834Z</time></trkpt><trkpt lat="42.6884583" lon="-8.4774783"><ele>266.0</ele><time>2026-04-16T07:21:14.834Z</time></trkpt><trkpt lat="42.6884767" lon="-8.47728"><ele>266.0</ele><time>2026-04-16T07:21:15.835Z</time></trkpt><trkpt lat="42.6884867" lon="-8.47708"><ele>266.0</ele><time>2026-04-16T07:21:16.834Z</time></trkpt><trkpt lat="42.6884933" lon="-8.4768717"><ele>266.0</ele><time>2026-04-16T07:21:17.835Z</time></trkpt><trkpt lat="42.6884983" lon="-8.476665"><ele>265.0</ele><time>2026-04-16T07:21:18.834Z</time></trkpt><trkpt lat="42.6885067" lon="-8.4764583"><ele>264.0</ele><time>2026-04-16T07:21:19.835Z</time></trkpt><trkpt lat="42.6885183" lon="-8.476255"><ele>263.0</ele><time>2026-04-16T07:21:20.835Z</time></trkpt><trkpt lat="42.68854" lon="-8.476045"><ele>263.33333333333337</ele><time>2026-04-16T07:21:21.834Z</time></trkpt><trkpt lat="42.68857" lon="-8.4758383"><ele>263.6666666666667</ele><time>2026-04-16T07:21:22.835Z</time></trkpt><trkpt lat="42.688605" lon="-8.4756217"><ele>264.0</ele><time>2026-04-16T07:21:23.835Z</time></trkpt><trkpt lat="42.688645" lon="-8.47541"><ele>264.3333333333333</ele><time>2026-04-16T07:21:24.834Z</time></trkpt><trkpt lat="42.6886833" lon="-8.475195"><ele>264.66666666666663</ele><time>2026-04-16T07:21:25.834Z</time></trkpt><trkpt lat="42.6887317" lon="-8.474995"><ele>265.0</ele><time>2026-04-16T07:21:26.834Z</time></trkpt><trkpt lat="42.688785" lon="-8.4747867"><ele>263.66666666666663</ele><time>2026-04-16T07:21:27.834Z</time></trkpt><trkpt lat="42.6888567" lon="-8.474585"><ele>262.3333333333333</ele><time>2026-04-16T07:21:28.835Z</time></trkpt><trkpt lat="42.688925" lon="-8.4743933"><ele>261.0</ele><time>2026-04-16T07:21:29.834Z</time></trkpt><trkpt lat="42.6890017" lon="-8.4741817"><ele>261.0</ele><time>2026-04-16T07:21:30.835Z</time></trkpt><trkpt lat="42.6890767" lon="-8.4739867"><ele>261.0</ele><time>2026-04-16T07:21:31.835Z</time></trkpt><trkpt lat="42.6891683" lon="-8.4737983"><ele>261.0</ele><time>2026-04-16T07:21:32.834Z</time></trkpt><trkpt lat="42.6892517" lon="-8.47361"><ele>259.6666666666667</ele><time>2026-04-16T07:21:33.834Z</time></trkpt><trkpt lat="42.6893367" lon="-8.4734217"><ele>258.33333333333337</ele><time>2026-04-16T07:21:34.835Z</time></trkpt><trkpt lat="42.6894367" lon="-8.4732417"><ele>257.0</ele><time>2026-04-16T07:21:35.834Z</time></trkpt><trkpt lat="42.6895367" lon="-8.4730817"><ele>255.66666666666669</ele><time>2026-04-16T07:21:36.835Z</time></trkpt><trkpt lat="42.689635" lon="-8.47293"><ele>254.33333333333331</ele><time>2026-04-16T07:21:37.835Z</time></trkpt><trkpt lat="42.6897383" lon="-8.472775"><ele>253.0</ele><time>2026-04-16T07:21:38.834Z</time></trkpt><trkpt lat="42.6898333" lon="-8.4726133"><ele>253.0</ele><time>2026-04-16T07:21:39.834Z</time></trkpt><trkpt lat="42.6899167" lon="-8.472455"><ele>253.0</ele><time>2026-04-16T07:21:40.834Z</time></trkpt><trkpt lat="42.68999" lon="-8.472315"><ele>253.0</ele><time>2026-04-16T07:21:41.835Z</time></trkpt><trkpt lat="42.6900667" lon="-8.4721717"><ele>253.0</ele><time>2026-04-16T07:21:42.835Z</time></trkpt><trkpt lat="42.6901467" lon="-8.47205"><ele>252.0</ele><time>2026-04-16T07:21:43.836Z</time></trkpt><trkpt lat="42.69024" lon="-8.4719483"><ele>251.0</ele><time>2026-04-16T07:21:44.836Z</time></trkpt><trkpt lat="42.6903433" lon="-8.471835"><ele>250.0</ele><time>2026-04-16T07:21:45.835Z</time></trkpt><trkpt lat="42.690455" lon="-8.4717167"><ele>249.0</ele><time>2026-04-16T07:21:46.836Z</time></trkpt><trkpt lat="42.69056" lon="-8.4715733"><ele>249.0</ele><time>2026-04-16T07:21:47.835Z</time></trkpt><trkpt lat="42.690655" lon="-8.471425"><ele>249.0</ele><time>2026-04-16T07:21:48.836Z</time></trkpt><trkpt lat="42.6907517" lon="-8.4712667"><ele>249.0</ele><time>2026-04-16T07:21:49.835Z</time></trkpt><trkpt lat="42.69085" lon="-8.47111"><ele>249.0</ele><time>2026-04-16T07:21:50.836Z</time></trkpt><trkpt lat="42.690955" lon="-8.4709517"><ele>247.33333333333331</ele><time>2026-04-16T07:21:51.836Z</time></trkpt><trkpt lat="42.691065" lon="-8.4707867"><ele>245.66666666666666</ele><time>2026-04-16T07:21:52.835Z</time></trkpt><trkpt lat="42.6911767" lon="-8.4706233"><ele>244.0</ele><time>2026-04-16T07:21:53.836Z</time></trkpt><trkpt lat="42.69129" lon="-8.47047"><ele>242.0</ele><time>2026-04-16T07:21:54.835Z</time></trkpt><trkpt lat="42.691405" lon="-8.4702917"><ele>240.0</ele><time>2026-04-16T07:21:55.835Z</time></trkpt><trkpt lat="42.6915183" lon="-8.4701233"><ele>238.0</ele><time>2026-04-16T07:21:56.835Z</time></trkpt><trkpt lat="42.6916317" lon="-8.4699467"><ele>238.0</ele><time>2026-04-16T07:21:57.836Z</time></trkpt><trkpt lat="42.6917467" lon="-8.4697867"><ele>238.0</ele><time>2026-04-16T07:21:58.835Z</time></trkpt><trkpt lat="42.691865" lon="-8.4696133"><ele>238.0</ele><time>2026-04-16T07:21:59.836Z</time></trkpt><trkpt lat="42.69198" lon="-8.4694583"><ele>234.0</ele><time>2026-04-16T07:22:00.835Z</time></trkpt><trkpt lat="42.692095" lon="-8.4693"><ele>230.0</ele><time>2026-04-16T07:22:01.836Z</time></trkpt><trkpt lat="42.6922067" lon="-8.4691233"><ele>226.0</ele><time>2026-04-16T07:22:02.836Z</time></trkpt><trkpt lat="42.6923217" lon="-8.4689567"><ele>226.0</ele><time>2026-04-16T07:22:03.835Z</time></trkpt><trkpt lat="42.692435" lon="-8.4687767"><ele>226.0</ele><time>2026-04-16T07:22:04.835Z</time></trkpt><trkpt lat="42.6925617" lon="-8.4686133"><ele>226.0</ele><time>2026-04-16T07:22:05.835Z</time></trkpt><trkpt lat="42.69268" lon="-8.4684533"><ele>223.66666666666666</ele><time>2026-04-16T07:22:06.836Z</time></trkpt><trkpt lat="42.6927867" lon="-8.4682917"><ele>221.33333333333331</ele><time>2026-04-16T07:22:07.836Z</time></trkpt><trkpt lat="42.692905" lon="-8.468125"><ele>219.0</ele><time>2026-04-16T07:22:08.836Z</time></trkpt><trkpt lat="42.6930183" lon="-8.467965"><ele>220.33333333333331</ele><time>2026-04-16T07:22:09.835Z</time></trkpt><trkpt lat="42.6931333" lon="-8.4678067"><ele>221.66666666666666</ele><time>2026-04-16T07:22:10.835Z</time></trkpt><trkpt lat="42.6932533" lon="-8.4676517"><ele>223.0</ele><time>2026-04-16T07:22:11.836Z</time></trkpt><trkpt lat="42.693355" lon="-8.4675017"><ele>223.0</ele><time>2026-04-16T07:22:12.835Z</time></trkpt><trkpt lat="42.69346" lon="-8.4673567"><ele>223.0</ele><time>2026-04-16T07:22:13.835Z</time></trkpt><trkpt lat="42.6935683" lon="-8.4672"><ele>223.0</ele><time>2026-04-16T07:22:14.835Z</time></trkpt><trkpt lat="42.6936733" lon="-8.4670517"><ele>220.66666666666666</ele><time>2026-04-16T07:22:15.836Z</time></trkpt><trkpt lat="42.69378" lon="-8.4668983"><ele>218.33333333333331</ele><time>2026-04-16T07:22:16.836Z</time></trkpt><trkpt lat="42.6938867" lon="-8.46673"><ele>216.0</ele><time>2026-04-16T07:22:17.835Z</time></trkpt><trkpt lat="42.6939833" lon="-8.46657"><ele>216.0</ele><time>2026-04-16T07:22:18.835Z</time></trkpt><trkpt lat="42.6940783" lon="-8.466405"><ele>216.0</ele><time>2026-04-16T07:22:19.835Z</time></trkpt><trkpt lat="42.6941633" lon="-8.4662333"><ele>216.0</ele><time>2026-04-16T07:22:20.836Z</time></trkpt><trkpt lat="42.6942517" lon="-8.466065"><ele>215.33333333333331</ele><time>2026-04-16T07:22:21.836Z</time></trkpt><trkpt lat="42.6943367" lon="-8.465895"><ele>214.66666666666666</ele><time>2026-04-16T07:22:22.835Z</time></trkpt><trkpt lat="42.6944267" lon="-8.4657183"><ele>214.0</ele><time>2026-04-16T07:22:23.836Z</time></trkpt><trkpt lat="42.6945167" lon="-8.4655367"><ele>211.66666666666666</ele><time>2026-04-16T07:22:24.835Z</time></trkpt><trkpt lat="42.694605" lon="-8.46535"><ele>209.33333333333331</ele><time>2026-04-16T07:22:25.836Z</time></trkpt><trkpt lat="42.694685" lon="-8.4651833"><ele>207.0</ele><time>2026-04-16T07:22:26.836Z</time></trkpt><trkpt lat="42.6947717" lon="-8.4650133"><ele>207.0</ele><time>2026-04-16T07:22:27.835Z</time></trkpt><trkpt lat="42.69486" lon="-8.4648417"><ele>207.0</ele><time>2026-04-16T07:22:28.835Z</time></trkpt><trkpt lat="42.6949433" lon="-8.4646517"><ele>207.0</ele><time>2026-04-16T07:22:29.836Z</time></trkpt><trkpt lat="42.6950317" lon="-8.4644767"><ele>206.66666666666669</ele><time>2026-04-16T07:22:30.836Z</time></trkpt><trkpt lat="42.6951167" lon="-8.4642917"><ele>206.33333333333334</ele><time>2026-04-16T07:22:31.835Z</time></trkpt><trkpt lat="42.6952133" lon="-8.4641017"><ele>206.0</ele><time>2026-04-16T07:22:32.836Z</time></trkpt><trkpt lat="42.6953083" lon="-8.4639067"><ele>205.66666666666669</ele><time>2026-04-16T07:22:33.836Z</time></trkpt><trkpt lat="42.695405" lon="-8.4637"><ele>205.33333333333331</ele><time>2026-04-16T07:22:34.835Z</time></trkpt><trkpt lat="42.6955" lon="-8.4635083"><ele>205.0</ele><time>2026-04-16T07:22:35.835Z</time></trkpt><trkpt lat="42.695595" lon="-8.4633233"><ele>205.0</ele><time>2026-04-16T07:22:36.836Z</time></trkpt><trkpt lat="42.6956883" lon="-8.4631367"><ele>205.0</ele><time>2026-04-16T07:22:37.835Z</time></trkpt><trkpt lat="42.6957767" lon="-8.4629467"><ele>205.0</ele><time>2026-04-16T07:22:38.835Z</time></trkpt><trkpt lat="42.695865" lon="-8.4627533"><ele>205.33333333333331</ele><time>2026-04-16T07:22:39.836Z</time></trkpt><trkpt lat="42.6959583" lon="-8.46256"><ele>205.66666666666669</ele><time>2026-04-16T07:22:40.835Z</time></trkpt><trkpt lat="42.696055" lon="-8.4623667"><ele>206.0</ele><time>2026-04-16T07:22:41.835Z</time></trkpt><trkpt lat="42.6961583" lon="-8.462175"><ele>201.33333333333334</ele><time>2026-04-16T07:22:42.836Z</time></trkpt><trkpt lat="42.6962517" lon="-8.46197"><ele>196.66666666666669</ele><time>2026-04-16T07:22:43.835Z</time></trkpt><trkpt lat="42.6963583" lon="-8.4617867"><ele>192.0</ele><time>2026-04-16T07:22:44.835Z</time></trkpt><trkpt lat="42.69647" lon="-8.4615917"><ele>192.0</ele><time>2026-04-16T07:22:45.835Z</time></trkpt><trkpt lat="42.696585" lon="-8.4613917"><ele>192.0</ele><time>2026-04-16T07:22:46.836Z</time></trkpt><trkpt lat="42.6966933" lon="-8.4611783"><ele>192.0</ele><time>2026-04-16T07:22:47.836Z</time></trkpt><trkpt lat="42.696795" lon="-8.4609633"><ele>190.66666666666666</ele><time>2026-04-16T07:22:48.835Z</time></trkpt><trkpt lat="42.6968917" lon="-8.4607583"><ele>189.33333333333331</ele><time>2026-04-16T07:22:49.835Z</time></trkpt><trkpt lat="42.6969967" lon="-8.4605483"><ele>188.0</ele><time>2026-04-16T07:22:50.836Z</time></trkpt><trkpt lat="42.6971" lon="-8.4603417"><ele>187.0</ele><time>2026-04-16T07:22:51.836Z</time></trkpt><trkpt lat="42.6972" lon="-8.460135"><ele>186.0</ele><time>2026-04-16T07:22:52.835Z</time></trkpt><trkpt lat="42.69731" lon="-8.4599217"><ele>185.0</ele><time>2026-04-16T07:22:53.835Z</time></trkpt><trkpt lat="42.697405" lon="-8.4597183"><ele>185.0</ele><time>2026-04-16T07:22:54.835Z</time></trkpt><trkpt lat="42.6975017" lon="-8.4595217"><ele>185.0</ele><time>2026-04-16T07:22:55.836Z</time></trkpt><trkpt lat="42.697595" lon="-8.45932"><ele>185.0</ele><time>2026-04-16T07:22:56.836Z</time></trkpt><trkpt lat="42.697695" lon="-8.45912"><ele>185.0</ele><time>2026-04-16T07:22:57.836Z</time></trkpt><trkpt lat="42.6977883" lon="-8.4589267"><ele>185.0</ele><time>2026-04-16T07:22:58.835Z</time></trkpt><trkpt lat="42.6978817" lon="-8.4587333"><ele>185.0</ele><time>2026-04-16T07:22:59.836Z</time></trkpt><trkpt lat="42.6979733" lon="-8.4585433"><ele>185.0</ele><time>2026-04-16T07:23:00.836Z</time></trkpt><trkpt lat="42.6980667" lon="-8.4583467"><ele>185.0</ele><time>2026-04-16T07:23:01.836Z</time></trkpt><trkpt lat="42.6981617" lon="-8.45815"><ele>185.0</ele><time>2026-04-16T07:23:02.836Z</time></trkpt><trkpt lat="42.69826" lon="-8.457955"><ele>185.66666666666666</ele><time>2026-04-16T07:23:03.835Z</time></trkpt><trkpt lat="42.6983583" lon="-8.457755"><ele>186.33333333333334</ele><time>2026-04-16T07:23:04.835Z</time></trkpt><trkpt lat="42.6984433" lon="-8.457555"><ele>187.0</ele><time>2026-04-16T07:23:05.836Z</time></trkpt><trkpt lat="42.6985183" lon="-8.4573583"><ele>187.0</ele><time>2026-04-16T07:23:06.836Z</time></trkpt><trkpt lat="42.6985767" lon="-8.45714"><ele>187.0</ele><time>2026-04-16T07:23:07.835Z</time></trkpt><trkpt lat="42.6986367" lon="-8.4569233"><ele>187.0</ele><time>2026-04-16T07:23:08.836Z</time></trkpt><trkpt lat="42.6986867" lon="-8.4566983"><ele>185.33333333333334</ele><time>2026-04-16T07:23:09.835Z</time></trkpt><trkpt lat="42.6987267" lon="-8.4564717"><ele>183.66666666666666</ele><time>2026-04-16T07:23:10.836Z</time></trkpt><trkpt lat="42.698765" lon="-8.4562333"><ele>182.0</ele><time>2026-04-16T07:23:11.836Z</time></trkpt><trkpt lat="42.6988" lon="-8.456"><ele>181.33333333333331</ele><time>2026-04-16T07:23:12.835Z</time></trkpt><trkpt lat="42.6988367" lon="-8.45576"><ele>180.66666666666666</ele><time>2026-04-16T07:23:13.835Z</time></trkpt><trkpt lat="42.6988733" lon="-8.4555183"><ele>180.0</ele><time>2026-04-16T07:23:14.835Z</time></trkpt><trkpt lat="42.6989067" lon="-8.4552817"><ele>178.33333333333334</ele><time>2026-04-16T07:23:15.835Z</time></trkpt><trkpt lat="42.698945" lon="-8.4550433"><ele>176.66666666666669</ele><time>2026-04-16T07:23:16.835Z</time></trkpt><trkpt lat="42.6989867" lon="-8.45481"><ele>175.0</ele><time>2026-04-16T07:23:17.836Z</time></trkpt><trkpt lat="42.6990367" lon="-8.4546017"><ele>175.0</ele><time>2026-04-16T07:23:18.835Z</time></trkpt><trkpt lat="42.6991117" lon="-8.4543917"><ele>175.0</ele><time>2026-04-16T07:23:19.836Z</time></trkpt><trkpt lat="42.6992" lon="-8.4541867"><ele>175.0</ele><time>2026-04-16T07:23:20.836Z</time></trkpt><trkpt lat="42.6992967" lon="-8.4539817"><ele>175.0</ele><time>2026-04-16T07:23:21.836Z</time></trkpt><trkpt lat="42.6994" lon="-8.4538133"><ele>175.0</ele><time>2026-04-16T07:23:22.835Z</time></trkpt><trkpt lat="42.699505" lon="-8.4536417"><ele>175.0</ele><time>2026-04-16T07:23:23.835Z</time></trkpt><trkpt lat="42.6996083" lon="-8.4534767"><ele>175.0</ele><time>2026-04-16T07:23:24.836Z</time></trkpt><trkpt lat="42.699705" lon="-8.4532983"><ele>175.0</ele><time>2026-04-16T07:23:25.836Z</time></trkpt><trkpt lat="42.69981" lon="-8.4531167"><ele>175.0</ele><time>2026-04-16T07:23:26.835Z</time></trkpt><trkpt lat="42.6999067" lon="-8.4529567"><ele>176.66666666666669</ele><time>2026-04-16T07:23:27.836Z</time></trkpt><trkpt lat="42.700005" lon="-8.4527767"><ele>178.33333333333334</ele><time>2026-04-16T07:23:28.836Z</time></trkpt><trkpt lat="42.7000867" lon="-8.4525967"><ele>180.0</ele><time>2026-04-16T07:23:29.835Z</time></trkpt><trkpt lat="42.7001667" lon="-8.4524033"><ele>180.0</ele><time>2026-04-16T07:23:30.835Z</time></trkpt><trkpt lat="42.7002383" lon="-8.4522167"><ele>180.0</ele><time>2026-04-16T07:23:31.835Z</time></trkpt><trkpt lat="42.7003067" lon="-8.452015"><ele>180.0</ele><time>2026-04-16T07:23:32.836Z</time></trkpt><trkpt lat="42.7003683" lon="-8.4518167"><ele>181.66666666666666</ele><time>2026-04-16T07:23:33.835Z</time></trkpt><trkpt lat="42.7004283" lon="-8.4516183"><ele>183.33333333333331</ele><time>2026-04-16T07:23:34.835Z</time></trkpt><trkpt lat="42.70049" lon="-8.45142"><ele>185.0</ele><time>2026-04-16T07:23:35.835Z</time></trkpt><trkpt lat="42.700555" lon="-8.4512067"><ele>186.33333333333331</ele><time>2026-04-16T07:23:36.836Z</time></trkpt><trkpt lat="42.700615" lon="-8.4510167"><ele>187.66666666666666</ele><time>2026-04-16T07:23:37.836Z</time></trkpt><trkpt lat="42.7006717" lon="-8.4508317"><ele>189.0</ele><time>2026-04-16T07:23:38.836Z</time></trkpt><trkpt lat="42.7007283" lon="-8.45063"><ele>190.5</ele><time>2026-04-16T07:23:39.835Z</time></trkpt><trkpt lat="42.7007833" lon="-8.4504417"><ele>192.0</ele><time>2026-04-16T07:23:40.835Z</time></trkpt><trkpt lat="42.700835" lon="-8.450265"><ele>193.5</ele><time>2026-04-16T07:23:41.835Z</time></trkpt><trkpt lat="42.7008933" lon="-8.4501"><ele>195.0</ele><time>2026-04-16T07:23:42.835Z</time></trkpt><trkpt lat="42.7009483" lon="-8.44993"><ele>195.0</ele><time>2026-04-16T07:23:43.835Z</time></trkpt><trkpt lat="42.7010083" lon="-8.4497533"><ele>195.0</ele><time>2026-04-16T07:23:44.836Z</time></trkpt><trkpt lat="42.7010667" lon="-8.4495767"><ele>195.0</ele><time>2026-04-16T07:23:45.836Z</time></trkpt><trkpt lat="42.7011183" lon="-8.4493983"><ele>195.0</ele><time>2026-04-16T07:23:46.836Z</time></trkpt><trkpt lat="42.701185" lon="-8.4492067"><ele>198.0</ele><time>2026-04-16T07:23:47.836Z</time></trkpt><trkpt lat="42.7012517" lon="-8.4490117"><ele>201.0</ele><time>2026-04-16T07:23:48.835Z</time></trkpt><trkpt lat="42.7013133" lon="-8.44882"><ele>204.0</ele><time>2026-04-16T07:23:49.836Z</time></trkpt><trkpt lat="42.70137" lon="-8.4486267"><ele>204.0</ele><time>2026-04-16T07:23:50.835Z</time></trkpt><trkpt lat="42.7014317" lon="-8.44843"><ele>204.0</ele><time>2026-04-16T07:23:51.836Z</time></trkpt><trkpt lat="42.7015017" lon="-8.4482417"><ele>204.0</ele><time>2026-04-16T07:23:52.835Z</time></trkpt><trkpt lat="42.701555" lon="-8.4480567"><ele>203.66666666666669</ele><time>2026-04-16T07:23:53.835Z</time></trkpt><trkpt lat="42.70162" lon="-8.4478633"><ele>203.33333333333334</ele><time>2026-04-16T07:23:54.836Z</time></trkpt><trkpt lat="42.70169" lon="-8.44767"><ele>203.0</ele><time>2026-04-16T07:23:55.836Z</time></trkpt><trkpt lat="42.701755" lon="-8.44747"><ele>203.0</ele><time>2026-04-16T07:23:56.835Z</time></trkpt><trkpt lat="42.7018167" lon="-8.4472667"><ele>203.0</ele><time>2026-04-16T07:23:57.836Z</time></trkpt><trkpt lat="42.7018767" lon="-8.4470767"><ele>203.0</ele><time>2026-04-16T07:23:58.835Z</time></trkpt><trkpt lat="42.70194" lon="-8.44687"><ele>204.0</ele><time>2026-04-16T07:23:59.835Z</time></trkpt><trkpt lat="42.7019983" lon="-8.4466583"><ele>205.0</ele><time>2026-04-16T07:24:00.835Z</time></trkpt><trkpt lat="42.7020633" lon="-8.4464567"><ele>206.0</ele><time>2026-04-16T07:24:01.836Z</time></trkpt><trkpt lat="42.702125" lon="-8.44624"><ele>206.0</ele><time>2026-04-16T07:24:02.835Z</time></trkpt><trkpt lat="42.7021967" lon="-8.446025"><ele>206.0</ele><time>2026-04-16T07:24:03.835Z</time></trkpt><trkpt lat="42.7022683" lon="-8.445805"><ele>206.0</ele><time>2026-04-16T07:24:04.835Z</time></trkpt><trkpt lat="42.7023467" lon="-8.4455917"><ele>203.66666666666669</ele><time>2026-04-16T07:24:05.836Z</time></trkpt><trkpt lat="42.70242" lon="-8.4453717"><ele>201.33333333333331</ele><time>2026-04-16T07:24:06.835Z</time></trkpt><trkpt lat="42.7025" lon="-8.4451617"><ele>199.0</ele><time>2026-04-16T07:24:07.836Z</time></trkpt><trkpt lat="42.7025667" lon="-8.4449433"><ele>199.0</ele><time>2026-04-16T07:24:08.835Z</time></trkpt><trkpt lat="42.7026267" lon="-8.44472"><ele>199.0</ele><time>2026-04-16T07:24:09.835Z</time></trkpt><trkpt lat="42.70269" lon="-8.444495"><ele>199.0</ele><time>2026-04-16T07:24:10.836Z</time></trkpt><trkpt lat="42.7027417" lon="-8.4442767"><ele>199.66666666666666</ele><time>2026-04-16T07:24:11.835Z</time></trkpt><trkpt lat="42.7027933" lon="-8.44407"><ele>200.33333333333331</ele><time>2026-04-16T07:24:12.835Z</time></trkpt><trkpt lat="42.7028317" lon="-8.4438633"><ele>201.0</ele><time>2026-04-16T07:24:13.836Z</time></trkpt><trkpt lat="42.7028667" lon="-8.44364"><ele>204.66666666666669</ele><time>2026-04-16T07:24:14.836Z</time></trkpt><trkpt lat="42.70289" lon="-8.44342"><ele>208.33333333333334</ele><time>2026-04-16T07:24:15.836Z</time></trkpt><trkpt lat="42.7029017" lon="-8.443195"><ele>212.0</ele><time>2026-04-16T07:24:16.835Z</time></trkpt><trkpt lat="42.702895" lon="-8.4429633"><ele>213.33333333333334</ele><time>2026-04-16T07:24:17.835Z</time></trkpt><trkpt lat="42.7028667" lon="-8.4427333"><ele>214.66666666666669</ele><time>2026-04-16T07:24:18.835Z</time></trkpt><trkpt lat="42.7028267" lon="-8.44252"><ele>216.0</ele><time>2026-04-16T07:24:19.835Z</time></trkpt><trkpt lat="42.70277" lon="-8.4423083"><ele>216.0</ele><time>2026-04-16T07:24:20.836Z</time></trkpt><trkpt lat="42.7026883" lon="-8.4421"><ele>216.0</ele><time>2026-04-16T07:24:21.835Z</time></trkpt><trkpt lat="42.7026067" lon="-8.441925"><ele>216.0</ele><time>2026-04-16T07:24:22.835Z</time></trkpt><trkpt lat="42.7025083" lon="-8.44174"><ele>216.0</ele><time>2026-04-16T07:24:23.835Z</time></trkpt><trkpt lat="42.702385" lon="-8.4415717"><ele>216.0</ele><time>2026-04-16T07:24:24.835Z</time></trkpt><trkpt lat="42.7022467" lon="-8.441425"><ele>216.0</ele><time>2026-04-16T07:24:25.836Z</time></trkpt><trkpt lat="42.7021083" lon="-8.4412783"><ele>218.66666666666669</ele><time>2026-04-16T07:24:26.835Z</time></trkpt><trkpt lat="42.7019583" lon="-8.44115"><ele>221.33333333333334</ele><time>2026-04-16T07:24:27.836Z</time></trkpt><trkpt lat="42.70181" lon="-8.4410167"><ele>224.0</ele><time>2026-04-16T07:24:28.835Z</time></trkpt><trkpt lat="42.7016417" lon="-8.44091"><ele>224.0</ele><time>2026-04-16T07:24:29.836Z</time></trkpt><trkpt lat="42.70148" lon="-8.4407967"><ele>224.0</ele><time>2026-04-16T07:24:30.836Z</time></trkpt><trkpt lat="42.7013167" lon="-8.4406783"><ele>224.0</ele><time>2026-04-16T07:24:31.836Z</time></trkpt><trkpt lat="42.7011617" lon="-8.4405717"><ele>222.66666666666669</ele><time>2026-04-16T07:24:32.836Z</time></trkpt><trkpt lat="42.7010017" lon="-8.4404683"><ele>221.33333333333331</ele><time>2026-04-16T07:24:33.835Z</time></trkpt><trkpt lat="42.700855" lon="-8.4403517"><ele>220.0</ele><time>2026-04-16T07:24:34.835Z</time></trkpt><trkpt lat="42.7007" lon="-8.4402483"><ele>223.0</ele><time>2026-04-16T07:24:35.836Z</time></trkpt><trkpt lat="42.700555" lon="-8.4401317"><ele>226.0</ele><time>2026-04-16T07:24:36.835Z</time></trkpt><trkpt lat="42.7004083" lon="-8.4400133"><ele>229.0</ele><time>2026-04-16T07:24:37.836Z</time></trkpt><trkpt lat="42.7002467" lon="-8.439905"><ele>230.33333333333331</ele><time>2026-04-16T07:24:38.835Z</time></trkpt><trkpt lat="42.7000933" lon="-8.4397933"><ele>231.66666666666669</ele><time>2026-04-16T07:24:39.836Z</time></trkpt><trkpt lat="42.69994" lon="-8.4396783"><ele>233.0</ele><time>2026-04-16T07:24:40.836Z</time></trkpt><trkpt lat="42.6997883" lon="-8.439565"><ele>234.0</ele><time>2026-04-16T07:24:41.836Z</time></trkpt><trkpt lat="42.6996167" lon="-8.439455"><ele>235.0</ele><time>2026-04-16T07:24:42.836Z</time></trkpt><trkpt lat="42.699465" lon="-8.43933"><ele>236.0</ele><time>2026-04-16T07:24:43.835Z</time></trkpt><trkpt lat="42.6993167" lon="-8.439185"><ele>236.33333333333334</ele><time>2026-04-16T07:24:44.835Z</time></trkpt><trkpt lat="42.6991783" lon="-8.43905"><ele>236.66666666666669</ele><time>2026-04-16T07:24:45.835Z</time></trkpt><trkpt lat="42.69904" lon="-8.4388967"><ele>237.0</ele><time>2026-04-16T07:24:46.835Z</time></trkpt><trkpt lat="42.69892" lon="-8.4387283"><ele>238.33333333333331</ele><time>2026-04-16T07:24:47.836Z</time></trkpt><trkpt lat="42.6987883" lon="-8.4385483"><ele>239.66666666666666</ele><time>2026-04-16T07:24:48.835Z</time></trkpt><trkpt lat="42.69868" lon="-8.43835"><ele>241.0</ele><time>2026-04-16T07:24:49.836Z</time></trkpt><trkpt lat="42.6985833" lon="-8.4381383"><ele>242.33333333333331</ele><time>2026-04-16T07:24:50.836Z</time></trkpt><trkpt lat="42.6984933" lon="-8.4379233"><ele>243.66666666666669</ele><time>2026-04-16T07:24:51.836Z</time></trkpt><trkpt lat="42.69842" lon="-8.4377"><ele>245.0</ele><time>2026-04-16T07:24:52.835Z</time></trkpt><trkpt lat="42.6983483" lon="-8.4374817"><ele>245.0</ele><time>2026-04-16T07:24:53.835Z</time></trkpt><trkpt lat="42.6982767" lon="-8.4372467"><ele>245.0</ele><time>2026-04-16T07:24:54.836Z</time></trkpt><trkpt lat="42.698205" lon="-8.4370183"><ele>245.0</ele><time>2026-04-16T07:24:55.835Z</time></trkpt><trkpt lat="42.69813" lon="-8.4367867"><ele>246.0</ele><time>2026-04-16T07:24:56.835Z</time></trkpt><trkpt lat="42.6980467" lon="-8.43657"><ele>247.0</ele><time>2026-04-16T07:24:57.836Z</time></trkpt><trkpt lat="42.6979583" lon="-8.436335"><ele>248.0</ele><time>2026-04-16T07:24:58.836Z</time></trkpt><trkpt lat="42.697875" lon="-8.436105"><ele>247.33333333333334</ele><time>2026-04-16T07:24:59.835Z</time></trkpt><trkpt lat="42.6977983" lon="-8.435875"><ele>246.66666666666669</ele><time>2026-04-16T07:25:00.835Z</time></trkpt><trkpt lat="42.6977267" lon="-8.435655"><ele>246.0</ele><time>2026-04-16T07:25:01.835Z</time></trkpt><trkpt lat="42.6976683" lon="-8.4354267"><ele>247.66666666666669</ele><time>2026-04-16T07:25:02.836Z</time></trkpt><trkpt lat="42.697615" lon="-8.4352033"><ele>249.33333333333334</ele><time>2026-04-16T07:25:03.836Z</time></trkpt><trkpt lat="42.697585" lon="-8.4349733"><ele>251.0</ele><time>2026-04-16T07:25:04.836Z</time></trkpt><trkpt lat="42.6975733" lon="-8.43474"><ele>253.0</ele><time>2026-04-16T07:25:05.835Z</time></trkpt><trkpt lat="42.697575" lon="-8.4345133"><ele>255.0</ele><time>2026-04-16T07:25:06.835Z</time></trkpt><trkpt lat="42.6975783" lon="-8.4342867"><ele>257.0</ele><time>2026-04-16T07:25:07.835Z</time></trkpt><trkpt lat="42.6975933" lon="-8.4340517"><ele>257.0</ele><time>2026-04-16T07:25:08.835Z</time></trkpt><trkpt lat="42.6976217" lon="-8.4338333"><ele>257.0</ele><time>2026-04-16T07:25:09.835Z</time></trkpt><trkpt lat="42.6976433" lon="-8.4336"><ele>257.0</ele><time>2026-04-16T07:25:10.835Z</time></trkpt><trkpt lat="42.6976767" lon="-8.433365"><ele>259.0</ele><time>2026-04-16T07:25:11.836Z</time></trkpt><trkpt lat="42.697705" lon="-8.43312"><ele>261.0</ele><time>2026-04-16T07:25:12.835Z</time></trkpt><trkpt lat="42.69773" lon="-8.432875"><ele>263.0</ele><time>2026-04-16T07:25:13.836Z</time></trkpt><trkpt lat="42.6977533" lon="-8.4326433"><ele>268.6666666666667</ele><time>2026-04-16T07:25:14.835Z</time></trkpt><trkpt lat="42.697775" lon="-8.43241"><ele>274.3333333333333</ele><time>2026-04-16T07:25:15.835Z</time></trkpt><trkpt lat="42.6978033" lon="-8.432165"><ele>280.0</ele><time>2026-04-16T07:25:16.835Z</time></trkpt><trkpt lat="42.69784" lon="-8.4319383"><ele>282.3333333333333</ele><time>2026-04-16T07:25:17.835Z</time></trkpt><trkpt lat="42.6978767" lon="-8.43171"><ele>284.6666666666667</ele><time>2026-04-16T07:25:18.835Z</time></trkpt><trkpt lat="42.6979267" lon="-8.4314733"><ele>287.0</ele><time>2026-04-16T07:25:19.836Z</time></trkpt><trkpt lat="42.697975" lon="-8.431245"><ele>287.0</ele><time>2026-04-16T07:25:20.836Z</time></trkpt><trkpt lat="42.6980383" lon="-8.4310233"><ele>287.0</ele><time>2026-04-16T07:25:21.836Z</time></trkpt><trkpt lat="42.69811" lon="-8.4308067"><ele>287.0</ele><time>2026-04-16T07:25:22.836Z</time></trkpt><trkpt lat="42.69819" lon="-8.4305933"><ele>285.0</ele><time>2026-04-16T07:25:23.836Z</time></trkpt><trkpt lat="42.6982683" lon="-8.430375"><ele>283.0</ele><time>2026-04-16T07:25:24.836Z</time></trkpt><trkpt lat="42.6983533" lon="-8.4301617"><ele>281.0</ele><time>2026-04-16T07:25:25.835Z</time></trkpt><trkpt lat="42.6984417" lon="-8.4299517"><ele>281.0</ele><time>2026-04-16T07:25:26.835Z</time></trkpt><trkpt lat="42.6985383" lon="-8.4297483"><ele>281.0</ele><time>2026-04-16T07:25:27.836Z</time></trkpt><trkpt lat="42.698645" lon="-8.4295533"><ele>281.0</ele><time>2026-04-16T07:25:28.835Z</time></trkpt><trkpt lat="42.6987533" lon="-8.4293717"><ele>284.0</ele><time>2026-04-16T07:25:29.836Z</time></trkpt><trkpt lat="42.69887" lon="-8.4291833"><ele>287.0</ele><time>2026-04-16T07:25:30.835Z</time></trkpt><trkpt lat="42.6990017" lon="-8.428995"><ele>290.0</ele><time>2026-04-16T07:25:31.835Z</time></trkpt><trkpt lat="42.6991483" lon="-8.42881"><ele>288.6666666666667</ele><time>2026-04-16T07:25:32.835Z</time></trkpt><trkpt lat="42.699285" lon="-8.4286317"><ele>287.3333333333333</ele><time>2026-04-16T07:25:33.835Z</time></trkpt><trkpt lat="42.6994217" lon="-8.4284667"><ele>286.0</ele><time>2026-04-16T07:25:34.836Z</time></trkpt><trkpt lat="42.6995683" lon="-8.42831"><ele>289.0</ele><time>2026-04-16T07:25:35.835Z</time></trkpt><trkpt lat="42.6997183" lon="-8.4281717"><ele>292.0</ele><time>2026-04-16T07:25:36.835Z</time></trkpt><trkpt lat="42.6998767" lon="-8.4280217"><ele>295.0</ele><time>2026-04-16T07:25:37.836Z</time></trkpt><trkpt lat="42.7000383" lon="-8.4278867"><ele>295.0</ele><time>2026-04-16T07:25:38.836Z</time></trkpt><trkpt lat="42.7001933" lon="-8.4277433"><ele>295.0</ele><time>2026-04-16T07:25:39.835Z</time></trkpt><trkpt lat="42.7003533" lon="-8.427595"><ele>295.0</ele><time>2026-04-16T07:25:40.836Z</time></trkpt><trkpt lat="42.70051" lon="-8.4274433"><ele>297.3333333333333</ele><time>2026-04-16T07:25:41.836Z</time></trkpt><trkpt lat="42.7006733" lon="-8.4272783"><ele>299.6666666666667</ele><time>2026-04-16T07:25:42.835Z</time></trkpt><trkpt lat="42.7008267" lon="-8.4271283"><ele>302.0</ele><time>2026-04-16T07:25:43.835Z</time></trkpt><trkpt lat="42.7009867" lon="-8.426995"><ele>301.6666666666667</ele><time>2026-04-16T07:25:44.835Z</time></trkpt><trkpt lat="42.7011567" lon="-8.4268483"><ele>301.3333333333333</ele><time>2026-04-16T07:25:45.836Z</time></trkpt><trkpt lat="42.701315" lon="-8.4266967"><ele>301.0</ele><time>2026-04-16T07:25:46.836Z</time></trkpt><trkpt lat="42.7014833" lon="-8.4265433"><ele>301.0</ele><time>2026-04-16T07:25:47.835Z</time></trkpt><trkpt lat="42.7016383" lon="-8.4264033"><ele>301.0</ele><time>2026-04-16T07:25:48.835Z</time></trkpt><trkpt lat="42.7017883" lon="-8.42627"><ele>301.0</ele><time>2026-04-16T07:25:49.836Z</time></trkpt><trkpt lat="42.7019533" lon="-8.4261283"><ele>302.0</ele><time>2026-04-16T07:25:50.835Z</time></trkpt><trkpt lat="42.7021267" lon="-8.4259733"><ele>303.0</ele><time>2026-04-16T07:25:51.835Z</time></trkpt><trkpt lat="42.7023" lon="-8.4258133"><ele>304.0</ele><time>2026-04-16T07:25:52.835Z</time></trkpt><trkpt lat="42.70246" lon="-8.4256583"><ele>304.0</ele><time>2026-04-16T07:25:53.836Z</time></trkpt><trkpt lat="42.7026333" lon="-8.4255017"><ele>304.0</ele><time>2026-04-16T07:25:54.836Z</time></trkpt><trkpt lat="42.70279" lon="-8.42535"><ele>304.0</ele><time>2026-04-16T07:25:55.836Z</time></trkpt><trkpt lat="42.70294" lon="-8.4252083"><ele>305.0</ele><time>2026-04-16T07:25:56.835Z</time></trkpt><trkpt lat="42.7030983" lon="-8.4250617"><ele>306.0</ele><time>2026-04-16T07:25:57.836Z</time></trkpt><trkpt lat="42.7032567" lon="-8.4249117"><ele>307.0</ele><time>2026-04-16T07:25:58.835Z</time></trkpt><trkpt lat="42.7034167" lon="-8.4247717"><ele>307.3333333333333</ele><time>2026-04-16T07:25:59.835Z</time></trkpt><trkpt lat="42.7035733" lon="-8.4246267"><ele>307.6666666666667</ele><time>2026-04-16T07:26:00.836Z</time></trkpt><trkpt lat="42.7037317" lon="-8.4244667"><ele>308.0</ele><time>2026-04-16T07:26:01.835Z</time></trkpt><trkpt lat="42.703895" lon="-8.4243183"><ele>308.0</ele><time>2026-04-16T07:26:02.836Z</time></trkpt><trkpt lat="42.7040533" lon="-8.4241567"><ele>308.0</ele><time>2026-04-16T07:26:03.835Z</time></trkpt><trkpt lat="42.7042133" lon="-8.4240133"><ele>308.0</ele><time>2026-04-16T07:26:04.835Z</time></trkpt><trkpt lat="42.7043733" lon="-8.4238683"><ele>310.33333333333337</ele><time>2026-04-16T07:26:05.835Z</time></trkpt><trkpt lat="42.7045417" lon="-8.423715"><ele>312.6666666666667</ele><time>2026-04-16T07:26:06.835Z</time></trkpt><trkpt lat="42.7047033" lon="-8.4235783"><ele>315.0</ele><time>2026-04-16T07:26:07.836Z</time></trkpt><trkpt lat="42.7048633" lon="-8.4234283"><ele>315.0</ele><time>2026-04-16T07:26:08.835Z</time></trkpt><trkpt lat="42.7050267" lon="-8.42327"><ele>315.0</ele><time>2026-04-16T07:26:09.835Z</time></trkpt><trkpt lat="42.70519" lon="-8.4231217"><ele>315.0</ele><time>2026-04-16T07:26:10.836Z</time></trkpt><trkpt lat="42.705345" lon="-8.4229817"><ele>317.0</ele><time>2026-04-16T07:26:11.836Z</time></trkpt><trkpt lat="42.705505" lon="-8.4228317"><ele>319.0</ele><time>2026-04-16T07:26:12.835Z</time></trkpt><trkpt lat="42.7056667" lon="-8.4226933"><ele>321.0</ele><time>2026-04-16T07:26:13.835Z</time></trkpt><trkpt lat="42.7058233" lon="-8.422555"><ele>321.0</ele><time>2026-04-16T07:26:14.835Z</time></trkpt><trkpt lat="42.7059817" lon="-8.4224083"><ele>321.0</ele><time>2026-04-16T07:26:15.835Z</time></trkpt><trkpt lat="42.7061483" lon="-8.4222583"><ele>321.0</ele><time>2026-04-16T07:26:16.836Z</time></trkpt><trkpt lat="42.7063117" lon="-8.4221217"><ele>319.6666666666667</ele><time>2026-04-16T07:26:17.836Z</time></trkpt><trkpt lat="42.7064683" lon="-8.4219817"><ele>318.33333333333337</ele><time>2026-04-16T07:26:18.836Z</time></trkpt><trkpt lat="42.706615" lon="-8.4218317"><ele>317.0</ele><time>2026-04-16T07:26:19.835Z</time></trkpt><trkpt lat="42.70677" lon="-8.4216717"><ele>320.6666666666667</ele><time>2026-04-16T07:26:20.835Z</time></trkpt><trkpt lat="42.706915" lon="-8.4215083"><ele>324.3333333333333</ele><time>2026-04-16T07:26:21.836Z</time></trkpt><trkpt lat="42.7070483" lon="-8.421315"><ele>328.0</ele><time>2026-04-16T07:26:22.835Z</time></trkpt><trkpt lat="42.7071733" lon="-8.4210967"><ele>328.0</ele><time>2026-04-16T07:26:23.836Z</time></trkpt><trkpt lat="42.7072767" lon="-8.4208683"><ele>328.0</ele><time>2026-04-16T07:26:24.835Z</time></trkpt><trkpt lat="42.7073667" lon="-8.4206283"><ele>328.0</ele><time>2026-04-16T07:26:25.835Z</time></trkpt><trkpt lat="42.70744" lon="-8.420385"><ele>327.66666666666663</ele><time>2026-04-16T07:26:26.836Z</time></trkpt><trkpt lat="42.70748" lon="-8.420145"><ele>327.3333333333333</ele><time>2026-04-16T07:26:27.835Z</time></trkpt><trkpt lat="42.707505" lon="-8.4198867"><ele>327.0</ele><time>2026-04-16T07:26:28.836Z</time></trkpt><trkpt lat="42.7075083" lon="-8.419615"><ele>328.3333333333333</ele><time>2026-04-16T07:26:29.836Z</time></trkpt><trkpt lat="42.70749" lon="-8.419345"><ele>329.66666666666663</ele><time>2026-04-16T07:26:30.835Z</time></trkpt><trkpt lat="42.70746" lon="-8.419075"><ele>331.0</ele><time>2026-04-16T07:26:31.835Z</time></trkpt><trkpt lat="42.7074217" lon="-8.4188067"><ele>332.3333333333333</ele><time>2026-04-16T07:26:32.835Z</time></trkpt><trkpt lat="42.7073733" lon="-8.4185533"><ele>333.6666666666667</ele><time>2026-04-16T07:26:33.836Z</time></trkpt><trkpt lat="42.70733" lon="-8.4183017"><ele>335.0</ele><time>2026-04-16T07:26:34.835Z</time></trkpt><trkpt lat="42.7072967" lon="-8.4180567"><ele>336.33333333333337</ele><time>2026-04-16T07:26:35.836Z</time></trkpt><trkpt lat="42.7072733" lon="-8.4177917"><ele>337.6666666666667</ele><time>2026-04-16T07:26:36.835Z</time></trkpt><trkpt lat="42.707235" lon="-8.4175433"><ele>339.0</ele><time>2026-04-16T07:26:37.836Z</time></trkpt><trkpt lat="42.7072033" lon="-8.4172883"><ele>339.6666666666667</ele><time>2026-04-16T07:26:38.836Z</time></trkpt><trkpt lat="42.707195" lon="-8.4170283"><ele>340.33333333333337</ele><time>2026-04-16T07:26:39.835Z</time></trkpt><trkpt lat="42.7071767" lon="-8.41676"><ele>341.0</ele><time>2026-04-16T07:26:40.836Z</time></trkpt><trkpt lat="42.7071383" lon="-8.416505"><ele>341.0</ele><time>2026-04-16T07:26:41.836Z</time></trkpt><trkpt lat="42.7071083" lon="-8.4162467"><ele>341.0</ele><time>2026-04-16T07:26:42.835Z</time></trkpt><trkpt lat="42.7070767" lon="-8.4159917"><ele>341.0</ele><time>2026-04-16T07:26:43.836Z</time></trkpt><trkpt lat="42.7070483" lon="-8.415735"><ele>341.0</ele><time>2026-04-16T07:26:44.836Z</time></trkpt><trkpt lat="42.7070217" lon="-8.4154767"><ele>341.0</ele><time>2026-04-16T07:26:45.835Z</time></trkpt><trkpt lat="42.7069767" lon="-8.415215"><ele>341.0</ele><time>2026-04-16T07:26:46.836Z</time></trkpt><trkpt lat="42.7069417" lon="-8.4149633"><ele>341.0</ele><time>2026-04-16T07:26:47.835Z</time></trkpt><trkpt lat="42.7069133" lon="-8.4147"><ele>341.0</ele><time>2026-04-16T07:26:48.835Z</time></trkpt><trkpt lat="42.7068867" lon="-8.4144333"><ele>341.0</ele><time>2026-04-16T07:26:49.835Z</time></trkpt><trkpt lat="42.7068633" lon="-8.4141733"><ele>343.33333333333337</ele><time>2026-04-16T07:26:50.836Z</time></trkpt><trkpt lat="42.7068333" lon="-8.413925"><ele>345.6666666666667</ele><time>2026-04-16T07:26:51.836Z</time></trkpt><trkpt lat="42.706805" lon="-8.413675"><ele>348.0</ele><time>2026-04-16T07:26:52.836Z</time></trkpt><trkpt lat="42.7067733" lon="-8.413425"><ele>349.3333333333333</ele><time>2026-04-16T07:26:53.836Z</time></trkpt><trkpt lat="42.7067417" lon="-8.4131733"><ele>350.66666666666663</ele><time>2026-04-16T07:26:54.835Z</time></trkpt><trkpt lat="42.7067117" lon="-8.4129267"><ele>352.0</ele><time>2026-04-16T07:26:55.836Z</time></trkpt><trkpt lat="42.7066817" lon="-8.4126817"><ele>353.0</ele><time>2026-04-16T07:26:56.835Z</time></trkpt><trkpt lat="42.70666" lon="-8.4124383"><ele>354.0</ele><time>2026-04-16T07:26:57.836Z</time></trkpt><trkpt lat="42.70664" lon="-8.4121833"><ele>355.0</ele><time>2026-04-16T07:26:58.836Z</time></trkpt><trkpt lat="42.7066133" lon="-8.411935"><ele>356.3333333333333</ele><time>2026-04-16T07:26:59.835Z</time></trkpt><trkpt lat="42.7065917" lon="-8.411695"><ele>357.6666666666667</ele><time>2026-04-16T07:27:00.835Z</time></trkpt><trkpt lat="42.706565" lon="-8.4114467"><ele>359.0</ele><time>2026-04-16T07:27:01.836Z</time></trkpt><trkpt lat="42.70653" lon="-8.4112017"><ele>360.0</ele><time>2026-04-16T07:27:02.835Z</time></trkpt><trkpt lat="42.7064983" lon="-8.4109583"><ele>361.0</ele><time>2026-04-16T07:27:03.835Z</time></trkpt><trkpt lat="42.7064733" lon="-8.4107017"><ele>362.0</ele><time>2026-04-16T07:27:04.836Z</time></trkpt><trkpt lat="42.7064417" lon="-8.410445"><ele>362.33333333333337</ele><time>2026-04-16T07:27:05.835Z</time></trkpt><trkpt lat="42.7064133" lon="-8.410185"><ele>362.6666666666667</ele><time>2026-04-16T07:27:06.835Z</time></trkpt><trkpt lat="42.7063867" lon="-8.40994"><ele>363.0</ele><time>2026-04-16T07:27:07.836Z</time></trkpt><trkpt lat="42.7063633" lon="-8.4097033"><ele>363.3333333333333</ele><time>2026-04-16T07:27:08.835Z</time></trkpt><trkpt lat="42.706335" lon="-8.4094567"><ele>363.66666666666663</ele><time>2026-04-16T07:27:09.836Z</time></trkpt><trkpt lat="42.7062967" lon="-8.4092183"><ele>364.0</ele><time>2026-04-16T07:27:10.836Z</time></trkpt><trkpt lat="42.7062633" lon="-8.4089817"><ele>364.66666666666663</ele><time>2026-04-16T07:27:11.836Z</time></trkpt><trkpt lat="42.7062317" lon="-8.4087467"><ele>365.3333333333333</ele><time>2026-04-16T07:27:12.835Z</time></trkpt><trkpt lat="42.7062083" lon="-8.40853"><ele>366.0</ele><time>2026-04-16T07:27:13.835Z</time></trkpt><trkpt lat="42.7061917" lon="-8.4083167"><ele>366.0</ele><time>2026-04-16T07:27:14.836Z</time></trkpt><trkpt lat="42.7061683" lon="-8.4081033"><ele>366.0</ele><time>2026-04-16T07:27:15.835Z</time></trkpt><trkpt lat="42.7061467" lon="-8.4078933"><ele>366.0</ele><time>2026-04-16T07:27:16.836Z</time></trkpt><trkpt lat="42.7061267" lon="-8.4076867"><ele>366.25</ele><time>2026-04-16T07:27:17.836Z</time></trkpt><trkpt lat="42.7061033" lon="-8.4075017"><ele>366.5</ele><time>2026-04-16T07:27:18.835Z</time></trkpt><trkpt lat="42.70607" lon="-8.407325"><ele>366.75</ele><time>2026-04-16T07:27:19.835Z</time></trkpt><trkpt lat="42.70606" lon="-8.407165"><ele>367.0</ele><time>2026-04-16T07:27:20.836Z</time></trkpt><trkpt lat="42.70604" lon="-8.4069967"><ele>366.5</ele><time>2026-04-16T07:27:21.836Z</time></trkpt><trkpt lat="42.7060267" lon="-8.4068283"><ele>366.0</ele><time>2026-04-16T07:27:22.835Z</time></trkpt><trkpt lat="42.706005" lon="-8.406655"><ele>365.5</ele><time>2026-04-16T07:27:23.836Z</time></trkpt><trkpt lat="42.7059833" lon="-8.40649"><ele>365.0</ele><time>2026-04-16T07:27:24.835Z</time></trkpt><trkpt lat="42.705965" lon="-8.4063267"><ele>365.0</ele><time>2026-04-16T07:27:25.835Z</time></trkpt><trkpt lat="42.7059467" lon="-8.406175"><ele>365.0</ele><time>2026-04-16T07:27:26.835Z</time></trkpt><trkpt lat="42.70593" lon="-8.4060233"><ele>365.0</ele><time>2026-04-16T07:27:27.836Z</time></trkpt><trkpt lat="42.7059117" lon="-8.4058683"><ele>365.0</ele><time>2026-04-16T07:27:28.836Z</time></trkpt><trkpt lat="42.7058933" lon="-8.4057067"><ele>365.0</ele><time>2026-04-16T07:27:29.835Z</time></trkpt><trkpt lat="42.7058767" lon="-8.4055433"><ele>365.0</ele><time>2026-04-16T07:27:30.835Z</time></trkpt><trkpt lat="42.7058667" lon="-8.40537"><ele>365.0</ele><time>2026-04-16T07:27:31.835Z</time></trkpt><trkpt lat="42.7058483" lon="-8.4051933"><ele>365.0</ele><time>2026-04-16T07:27:32.836Z</time></trkpt><trkpt lat="42.70583" lon="-8.405"><ele>364.75</ele><time>2026-04-16T07:27:33.835Z</time></trkpt><trkpt lat="42.7058183" lon="-8.4048083"><ele>364.5</ele><time>2026-04-16T07:27:34.835Z</time></trkpt><trkpt lat="42.70581" lon="-8.404615"><ele>364.25</ele><time>2026-04-16T07:27:35.835Z</time></trkpt><trkpt lat="42.705795" lon="-8.404415"><ele>364.0</ele><time>2026-04-16T07:27:36.835Z</time></trkpt><trkpt lat="42.7057817" lon="-8.4042183"><ele>363.0</ele><time>2026-04-16T07:27:37.836Z</time></trkpt><trkpt lat="42.70577" lon="-8.4040367"><ele>362.0</ele><time>2026-04-16T07:27:38.835Z</time></trkpt><trkpt lat="42.7057617" lon="-8.4038383"><ele>361.0</ele><time>2026-04-16T07:27:39.836Z</time></trkpt><trkpt lat="42.7057467" lon="-8.4036317"><ele>360.0</ele><time>2026-04-16T07:27:40.835Z</time></trkpt><trkpt lat="42.7057367" lon="-8.403405"><ele>358.3333333333333</ele><time>2026-04-16T07:27:41.835Z</time></trkpt><trkpt lat="42.7057167" lon="-8.4031617"><ele>356.66666666666663</ele><time>2026-04-16T07:27:42.836Z</time></trkpt><trkpt lat="42.7057167" lon="-8.402895"><ele>355.0</ele><time>2026-04-16T07:27:43.835Z</time></trkpt><trkpt lat="42.7057117" lon="-8.4026083"><ele>353.66666666666663</ele><time>2026-04-16T07:27:44.836Z</time></trkpt><trkpt lat="42.7056933" lon="-8.4023317"><ele>352.3333333333333</ele><time>2026-04-16T07:27:45.836Z</time></trkpt><trkpt lat="42.7056783" lon="-8.4020883"><ele>351.0</ele><time>2026-04-16T07:27:46.835Z</time></trkpt><trkpt lat="42.7056633" lon="-8.4018533"><ele>350.3333333333333</ele><time>2026-04-16T07:27:47.835Z</time></trkpt><trkpt lat="42.7056417" lon="-8.40164"><ele>349.66666666666663</ele><time>2026-04-16T07:27:48.835Z</time></trkpt><trkpt lat="42.70562" lon="-8.401425"><ele>349.0</ele><time>2026-04-16T07:27:49.836Z</time></trkpt><trkpt lat="42.7055967" lon="-8.4012067"><ele>347.66666666666663</ele><time>2026-04-16T07:27:50.836Z</time></trkpt><trkpt lat="42.705585" lon="-8.4010067"><ele>346.3333333333333</ele><time>2026-04-16T07:27:51.836Z</time></trkpt><trkpt lat="42.705575" lon="-8.4008"><ele>345.0</ele><time>2026-04-16T07:27:52.836Z</time></trkpt><trkpt lat="42.7055617" lon="-8.4005867"><ele>346.3333333333333</ele><time>2026-04-16T07:27:53.835Z</time></trkpt><trkpt lat="42.7055483" lon="-8.40038"><ele>347.66666666666663</ele><time>2026-04-16T07:27:54.835Z</time></trkpt><trkpt lat="42.7055333" lon="-8.400165"><ele>349.0</ele><time>2026-04-16T07:27:55.835Z</time></trkpt><trkpt lat="42.7055183" lon="-8.3999467"><ele>349.0</ele><time>2026-04-16T07:27:56.835Z</time></trkpt><trkpt lat="42.7055117" lon="-8.3997567"><ele>349.0</ele><time>2026-04-16T07:27:57.836Z</time></trkpt><trkpt lat="42.7055033" lon="-8.399585"><ele>349.0</ele><time>2026-04-16T07:27:58.836Z</time></trkpt><trkpt lat="42.7054967" lon="-8.3994333"><ele>349.0</ele><time>2026-04-16T07:27:59.835Z</time></trkpt><trkpt lat="42.7054867" lon="-8.3993133"><ele>350.0</ele><time>2026-04-16T07:28:00.835Z</time></trkpt><trkpt lat="42.7054767" lon="-8.39922"><ele>351.0</ele><time>2026-04-16T07:28:01.835Z</time></trkpt><trkpt lat="42.7053767" lon="-8.399195"><ele>352.0</ele><time>2026-04-16T07:28:06.835Z</time></trkpt><trkpt lat="42.7053167" lon="-8.3992317"><ele>353.0</ele><time>2026-04-16T07:28:07.835Z</time></trkpt><trkpt lat="42.70526" lon="-8.399275"><ele>354.0</ele><time>2026-04-16T07:28:08.835Z</time></trkpt><trkpt lat="42.7051517" lon="-8.3993633"><ele>355.0</ele><time>2026-04-16T07:28:10.835Z</time></trkpt><trkpt lat="42.7050933" lon="-8.3994"><ele>355.16666666666663</ele><time>2026-04-16T07:28:11.836Z</time></trkpt><trkpt lat="42.705" lon="-8.3994467"><ele>355.3333333333333</ele><time>2026-04-16T07:28:13.836Z</time></trkpt><trkpt lat="42.704925" lon="-8.3994633"><ele>355.5</ele><time>2026-04-16T07:28:17.835Z</time></trkpt><trkpt lat="42.7049567" lon="-8.3993867"><ele>355.6666666666667</ele><time>2026-04-16T07:28:22.835Z</time></trkpt><trkpt lat="42.7050383" lon="-8.39935"><ele>355.83333333333337</ele><time>2026-04-16T07:28:24.837Z</time></trkpt><trkpt lat="42.7050983" lon="-8.3993233"><ele>356.0</ele><time>2026-04-16T07:28:25.836Z</time></trkpt><trkpt lat="42.7051717" lon="-8.39929"><ele>355.83333333333337</ele><time>2026-04-16T07:28:26.836Z</time></trkpt><trkpt lat="42.705255" lon="-8.3992567"><ele>355.6666666666667</ele><time>2026-04-16T07:28:27.837Z</time></trkpt><trkpt lat="42.70534" lon="-8.3992233"><ele>355.5</ele><time>2026-04-16T07:28:28.837Z</time></trkpt><trkpt lat="42.705415" lon="-8.3991967"><ele>355.3333333333333</ele><time>2026-04-16T07:28:29.836Z</time></trkpt><trkpt lat="42.7054967" lon="-8.399135"><ele>355.16666666666663</ele><time>2026-04-16T07:28:31.836Z</time></trkpt><trkpt lat="42.70552" lon="-8.3990267"><ele>355.0</ele><time>2026-04-16T07:28:33.836Z</time></trkpt><trkpt lat="42.7055233" lon="-8.3989383"><ele>356.0</ele><time>2026-04-16T07:28:34.837Z</time></trkpt><trkpt lat="42.7055267" lon="-8.3988283"><ele>357.0</ele><time>2026-04-16T07:28:35.836Z</time></trkpt><trkpt lat="42.7055333" lon="-8.3987183"><ele>358.0</ele><time>2026-04-16T07:28:36.836Z</time></trkpt><trkpt lat="42.7055383" lon="-8.398615"><ele>359.0</ele><time>2026-04-16T07:28:37.837Z</time></trkpt><trkpt lat="42.7054983" lon="-8.398465"><ele>360.0</ele><time>2026-04-16T07:28:39.836Z</time></trkpt><trkpt lat="42.7054517" lon="-8.3984"><ele>361.0</ele><time>2026-04-16T07:28:40.837Z</time></trkpt><trkpt lat="42.7053867" lon="-8.398345"><ele>361.0</ele><time>2026-04-16T07:28:41.837Z</time></trkpt><trkpt lat="42.705315" lon="-8.3982767"><ele>361.0</ele><time>2026-04-16T07:28:42.836Z</time></trkpt><trkpt lat="42.7052317" lon="-8.3981917"><ele>361.0</ele><time>2026-04-16T07:28:43.836Z</time></trkpt><trkpt lat="42.7051417" lon="-8.3980783"><ele>361.0</ele><time>2026-04-16T07:28:44.837Z</time></trkpt><trkpt lat="42.70503" lon="-8.3979617"><ele>362.66666666666663</ele><time>2026-04-16T07:28:45.837Z</time></trkpt><trkpt lat="42.7049083" lon="-8.3978267"><ele>364.3333333333333</ele><time>2026-04-16T07:28:46.836Z</time></trkpt><trkpt lat="42.7047833" lon="-8.3976917"><ele>366.0</ele><time>2026-04-16T07:28:47.836Z</time></trkpt><trkpt lat="42.7046667" lon="-8.3975567"><ele>366.0</ele><time>2026-04-16T07:28:48.836Z</time></trkpt><trkpt lat="42.704545" lon="-8.3974167"><ele>366.0</ele><time>2026-04-16T07:28:49.836Z</time></trkpt><trkpt lat="42.704425" lon="-8.3972683"><ele>366.0</ele><time>2026-04-16T07:28:50.837Z</time></trkpt><trkpt lat="42.7042883" lon="-8.3971117"><ele>366.0</ele><time>2026-04-16T07:28:51.837Z</time></trkpt><trkpt lat="42.704155" lon="-8.3969633"><ele>366.0</ele><time>2026-04-16T07:28:52.836Z</time></trkpt><trkpt lat="42.7040217" lon="-8.396805"><ele>366.0</ele><time>2026-04-16T07:28:53.837Z</time></trkpt><trkpt lat="42.7038917" lon="-8.3966583"><ele>366.0</ele><time>2026-04-16T07:28:54.836Z</time></trkpt><trkpt lat="42.7037567" lon="-8.3964967"><ele>366.0</ele><time>2026-04-16T07:28:55.837Z</time></trkpt><trkpt lat="42.70363" lon="-8.3963517"><ele>366.0</ele><time>2026-04-16T07:28:56.836Z</time></trkpt><trkpt lat="42.7035017" lon="-8.3962067"><ele>366.0</ele><time>2026-04-16T07:28:57.837Z</time></trkpt><trkpt lat="42.7033767" lon="-8.3960633"><ele>366.0</ele><time>2026-04-16T07:28:58.836Z</time></trkpt><trkpt lat="42.7032517" lon="-8.39592"><ele>366.0</ele><time>2026-04-16T07:28:59.837Z</time></trkpt><trkpt lat="42.703125" lon="-8.395775"><ele>366.0</ele><time>2026-04-16T07:29:00.836Z</time></trkpt><trkpt lat="42.7030083" lon="-8.3956333"><ele>366.0</ele><time>2026-04-16T07:29:01.836Z</time></trkpt><trkpt lat="42.7028867" lon="-8.3954933"><ele>366.0</ele><time>2026-04-16T07:29:02.836Z</time></trkpt><trkpt lat="42.702765" lon="-8.39536"><ele>369.0</ele><time>2026-04-16T07:29:03.836Z</time></trkpt><trkpt lat="42.70264" lon="-8.3952133"><ele>372.0</ele><time>2026-04-16T07:29:04.836Z</time></trkpt><trkpt lat="42.7025167" lon="-8.3950633"><ele>375.0</ele><time>2026-04-16T07:29:05.836Z</time></trkpt><trkpt lat="42.7023917" lon="-8.3949133"><ele>375.0</ele><time>2026-04-16T07:29:06.836Z</time></trkpt><trkpt lat="42.70226" lon="-8.3947683"><ele>375.0</ele><time>2026-04-16T07:29:07.837Z</time></trkpt><trkpt lat="42.7021333" lon="-8.394635"><ele>375.0</ele><time>2026-04-16T07:29:08.836Z</time></trkpt><trkpt lat="42.7020233" lon="-8.3945067"><ele>374.25</ele><time>2026-04-16T07:29:09.836Z</time></trkpt><trkpt lat="42.7019167" lon="-8.39438"><ele>373.5</ele><time>2026-04-16T07:29:10.837Z</time></trkpt><trkpt lat="42.7018317" lon="-8.39425"><ele>372.75</ele><time>2026-04-16T07:29:11.836Z</time></trkpt><trkpt lat="42.70177" lon="-8.3941133"><ele>372.0</ele><time>2026-04-16T07:29:12.836Z</time></trkpt><trkpt lat="42.7017317" lon="-8.3939583"><ele>371.5</ele><time>2026-04-16T07:29:13.836Z</time></trkpt><trkpt lat="42.70172" lon="-8.3937917"><ele>371.0</ele><time>2026-04-16T07:29:14.837Z</time></trkpt><trkpt lat="42.701735" lon="-8.3936167"><ele>370.5</ele><time>2026-04-16T07:29:15.836Z</time></trkpt><trkpt lat="42.701775" lon="-8.393445"><ele>370.0</ele><time>2026-04-16T07:29:16.836Z</time></trkpt><trkpt lat="42.7018217" lon="-8.3932783"><ele>370.0</ele><time>2026-04-16T07:29:17.836Z</time></trkpt><trkpt lat="42.7018767" lon="-8.3931183"><ele>370.0</ele><time>2026-04-16T07:29:18.836Z</time></trkpt><trkpt lat="42.7019317" lon="-8.392965"><ele>370.0</ele><time>2026-04-16T07:29:19.836Z</time></trkpt><trkpt lat="42.701985" lon="-8.3928167"><ele>370.0</ele><time>2026-04-16T07:29:20.836Z</time></trkpt><trkpt lat="42.702015" lon="-8.3926717"><ele>369.25</ele><time>2026-04-16T07:29:21.836Z</time></trkpt><trkpt lat="42.702" lon="-8.392515"><ele>368.5</ele><time>2026-04-16T07:29:22.836Z</time></trkpt><trkpt lat="42.701945" lon="-8.3923733"><ele>367.75</ele><time>2026-04-16T07:29:23.836Z</time></trkpt><trkpt lat="42.7018633" lon="-8.3922367"><ele>367.0</ele><time>2026-04-16T07:29:24.836Z</time></trkpt><trkpt lat="42.70176" lon="-8.3920883"><ele>370.0</ele><time>2026-04-16T07:29:25.836Z</time></trkpt><trkpt lat="42.7016533" lon="-8.391935"><ele>373.0</ele><time>2026-04-16T07:29:26.836Z</time></trkpt><trkpt lat="42.7015433" lon="-8.3917733"><ele>376.0</ele><time>2026-04-16T07:29:27.836Z</time></trkpt><trkpt lat="42.701455" lon="-8.3916183"><ele>376.0</ele><time>2026-04-16T07:29:28.837Z</time></trkpt><trkpt lat="42.701375" lon="-8.39147"><ele>376.0</ele><time>2026-04-16T07:29:29.837Z</time></trkpt><trkpt lat="42.7013083" lon="-8.3913233"><ele>376.0</ele><time>2026-04-16T07:29:30.836Z</time></trkpt><trkpt lat="42.7012667" lon="-8.3911683"><ele>376.0</ele><time>2026-04-16T07:29:31.836Z</time></trkpt><trkpt lat="42.70124" lon="-8.39101"><ele>378.25</ele><time>2026-04-16T07:29:32.836Z</time></trkpt><trkpt lat="42.7012367" lon="-8.3908383"><ele>380.5</ele><time>2026-04-16T07:29:33.837Z</time></trkpt><trkpt lat="42.7012517" lon="-8.390665"><ele>382.75</ele><time>2026-04-16T07:29:34.836Z</time></trkpt><trkpt lat="42.7012783" lon="-8.39048"><ele>385.0</ele><time>2026-04-16T07:29:35.837Z</time></trkpt><trkpt lat="42.70132" lon="-8.3902967"><ele>386.0</ele><time>2026-04-16T07:29:36.836Z</time></trkpt><trkpt lat="42.7013667" lon="-8.3901067"><ele>387.0</ele><time>2026-04-16T07:29:37.836Z</time></trkpt><trkpt lat="42.70142" lon="-8.3899183"><ele>388.0</ele><time>2026-04-16T07:29:38.837Z</time></trkpt><trkpt lat="42.701475" lon="-8.3897333"><ele>389.0</ele><time>2026-04-16T07:29:39.836Z</time></trkpt><trkpt lat="42.701545" lon="-8.3895483"><ele>389.0</ele><time>2026-04-16T07:29:40.836Z</time></trkpt><trkpt lat="42.7016083" lon="-8.3893567"><ele>389.0</ele><time>2026-04-16T07:29:41.836Z</time></trkpt><trkpt lat="42.7016633" lon="-8.38916"><ele>389.0</ele><time>2026-04-16T07:29:42.837Z</time></trkpt><trkpt lat="42.7017217" lon="-8.3889767"><ele>390.3333333333333</ele><time>2026-04-16T07:29:43.837Z</time></trkpt><trkpt lat="42.701785" lon="-8.3887783"><ele>391.66666666666663</ele><time>2026-04-16T07:29:44.836Z</time></trkpt><trkpt lat="42.7018617" lon="-8.3885817"><ele>393.0</ele><time>2026-04-16T07:29:45.836Z</time></trkpt><trkpt lat="42.7019517" lon="-8.3883833"><ele>397.0</ele><time>2026-04-16T07:29:46.837Z</time></trkpt><trkpt lat="42.70204" lon="-8.3881567"><ele>401.0</ele><time>2026-04-16T07:29:47.837Z</time></trkpt><trkpt lat="42.7021217" lon="-8.3879733"><ele>405.0</ele><time>2026-04-16T07:29:48.837Z</time></trkpt><trkpt lat="42.7021967" lon="-8.3878083"><ele>405.6</ele><time>2026-04-16T07:29:49.836Z</time></trkpt><trkpt lat="42.702245" lon="-8.3876517"><ele>406.2</ele><time>2026-04-16T07:29:50.837Z</time></trkpt><trkpt lat="42.70224" lon="-8.387545"><ele>406.79999999999995</ele><time>2026-04-16T07:29:51.837Z</time></trkpt><trkpt lat="42.7022017" lon="-8.38746"><ele>407.4</ele><time>2026-04-16T07:29:52.837Z</time></trkpt><trkpt lat="42.70214" lon="-8.3873883"><ele>408.0</ele><time>2026-04-16T07:29:53.836Z</time></trkpt><trkpt lat="42.7020767" lon="-8.3872867"><ele>410.0</ele><time>2026-04-16T07:29:54.837Z</time></trkpt><trkpt lat="42.70201" lon="-8.38716"><ele>412.0</ele><time>2026-04-16T07:29:55.836Z</time></trkpt><trkpt lat="42.701935" lon="-8.3870383"><ele>414.0</ele><time>2026-04-16T07:29:56.836Z</time></trkpt><trkpt lat="42.7018567" lon="-8.3868967"><ele>416.0</ele><time>2026-04-16T07:29:57.836Z</time></trkpt><trkpt lat="42.7017667" lon="-8.3867567"><ele>416.0</ele><time>2026-04-16T07:29:58.836Z</time></trkpt><trkpt lat="42.7016767" lon="-8.3866367"><ele>416.0</ele><time>2026-04-16T07:29:59.837Z</time></trkpt><trkpt lat="42.70158" lon="-8.3865433"><ele>416.0</ele><time>2026-04-16T07:30:00.837Z</time></trkpt><trkpt lat="42.7014733" lon="-8.3864783"><ele>416.0</ele><time>2026-04-16T07:30:01.837Z</time></trkpt><trkpt lat="42.7013717" lon="-8.3864617"><ele>416.0</ele><time>2026-04-16T07:30:02.836Z</time></trkpt><trkpt lat="42.701265" lon="-8.3865083"><ele>416.0</ele><time>2026-04-16T07:30:03.836Z</time></trkpt><trkpt lat="42.7011417" lon="-8.3866133"><ele>416.0</ele><time>2026-04-16T07:30:04.837Z</time></trkpt><trkpt lat="42.7010083" lon="-8.3867367"><ele>416.0</ele><time>2026-04-16T07:30:05.837Z</time></trkpt><trkpt lat="42.700885" lon="-8.3868433"><ele>417.0</ele><time>2026-04-16T07:30:06.836Z</time></trkpt><trkpt lat="42.7007683" lon="-8.3869267"><ele>418.0</ele><time>2026-04-16T07:30:07.837Z</time></trkpt><trkpt lat="42.7006667" lon="-8.3869817"><ele>419.0</ele><time>2026-04-16T07:30:08.837Z</time></trkpt><trkpt lat="42.7005533" lon="-8.38702"><ele>420.0</ele><time>2026-04-16T07:30:09.837Z</time></trkpt><trkpt lat="42.70043" lon="-8.3870067"><ele>420.0</ele><time>2026-04-16T07:30:10.837Z</time></trkpt><trkpt lat="42.7003067" lon="-8.386955"><ele>420.0</ele><time>2026-04-16T07:30:11.836Z</time></trkpt><trkpt lat="42.7002017" lon="-8.3868667"><ele>420.0</ele><time>2026-04-16T07:30:12.836Z</time></trkpt><trkpt lat="42.7000983" lon="-8.38677"><ele>420.0</ele><time>2026-04-16T07:30:13.836Z</time></trkpt><trkpt lat="42.7000217" lon="-8.386675"><ele>419.4</ele><time>2026-04-16T07:30:14.836Z</time></trkpt><trkpt lat="42.6999417" lon="-8.3865933"><ele>418.8</ele><time>2026-04-16T07:30:15.837Z</time></trkpt><trkpt lat="42.6998717" lon="-8.3865133"><ele>418.20000000000005</ele><time>2026-04-16T07:30:16.836Z</time></trkpt><trkpt lat="42.699785" lon="-8.386425"><ele>417.6</ele><time>2026-04-16T07:30:17.836Z</time></trkpt><trkpt lat="42.6997083" lon="-8.3863083"><ele>417.0</ele><time>2026-04-16T07:30:18.836Z</time></trkpt><trkpt lat="42.69967" lon="-8.386155"><ele>419.0</ele><time>2026-04-16T07:30:19.837Z</time></trkpt><trkpt lat="42.6996467" lon="-8.3859767"><ele>421.0</ele><time>2026-04-16T07:30:20.837Z</time></trkpt><trkpt lat="42.699635" lon="-8.38576"><ele>423.0</ele><time>2026-04-16T07:30:21.837Z</time></trkpt><trkpt lat="42.699635" lon="-8.3855317"><ele>424.0</ele><time>2026-04-16T07:30:22.836Z</time></trkpt><trkpt lat="42.6996617" lon="-8.3853017"><ele>425.0</ele><time>2026-04-16T07:30:23.836Z</time></trkpt><trkpt lat="42.6996933" lon="-8.385055"><ele>426.0</ele><time>2026-04-16T07:30:24.836Z</time></trkpt><trkpt lat="42.6997367" lon="-8.3848333"><ele>426.33333333333337</ele><time>2026-04-16T07:30:25.837Z</time></trkpt><trkpt lat="42.699775" lon="-8.3846317"><ele>426.6666666666667</ele><time>2026-04-16T07:30:26.837Z</time></trkpt><trkpt lat="42.6998083" lon="-8.3844283"><ele>427.0</ele><time>2026-04-16T07:30:27.837Z</time></trkpt><trkpt lat="42.6998433" lon="-8.38422"><ele>427.0</ele><time>2026-04-16T07:30:28.837Z</time></trkpt><trkpt lat="42.6998783" lon="-8.384"><ele>427.0</ele><time>2026-04-16T07:30:29.837Z</time></trkpt><trkpt lat="42.6999033" lon="-8.38378"><ele>427.0</ele><time>2026-04-16T07:30:30.836Z</time></trkpt><trkpt lat="42.6999183" lon="-8.3835617"><ele>428.0</ele><time>2026-04-16T07:30:31.836Z</time></trkpt><trkpt lat="42.6999267" lon="-8.3833283"><ele>429.0</ele><time>2026-04-16T07:30:32.837Z</time></trkpt><trkpt lat="42.699925" lon="-8.3830917"><ele>430.0</ele><time>2026-04-16T07:30:33.836Z</time></trkpt><trkpt lat="42.6999283" lon="-8.3828483"><ele>430.33333333333337</ele><time>2026-04-16T07:30:34.837Z</time></trkpt><trkpt lat="42.6999167" lon="-8.3826133"><ele>430.66666666666663</ele><time>2026-04-16T07:30:35.837Z</time></trkpt><trkpt lat="42.6998967" lon="-8.382385"><ele>431.0</ele><time>2026-04-16T07:30:36.837Z</time></trkpt><trkpt lat="42.6998683" lon="-8.3821733"><ele>431.75</ele><time>2026-04-16T07:30:37.836Z</time></trkpt><trkpt lat="42.6998417" lon="-8.3820033"><ele>432.5</ele><time>2026-04-16T07:30:38.836Z</time></trkpt><trkpt lat="42.699805" lon="-8.3818217"><ele>433.25</ele><time>2026-04-16T07:30:39.836Z</time></trkpt><trkpt lat="42.69977" lon="-8.3816567"><ele>434.0</ele><time>2026-04-16T07:30:40.837Z</time></trkpt><trkpt lat="42.6997483" lon="-8.3814967"><ele>434.0</ele><time>2026-04-16T07:30:41.836Z</time></trkpt><trkpt lat="42.6997283" lon="-8.38135"><ele>434.0</ele><time>2026-04-16T07:30:42.837Z</time></trkpt><trkpt lat="42.699715" lon="-8.3812183"><ele>434.0</ele><time>2026-04-16T07:30:43.836Z</time></trkpt><trkpt lat="42.699705" lon="-8.3811317"><ele>434.0</ele><time>2026-04-16T07:30:44.836Z</time></trkpt><trkpt lat="42.6996417" lon="-8.3810083"><ele>434.0</ele><time>2026-04-16T07:30:46.836Z</time></trkpt><trkpt lat="42.69957" lon="-8.381045"><ele>434.0</ele><time>2026-04-16T07:30:48.836Z</time></trkpt><trkpt lat="42.6995" lon="-8.3812267"><ele>434.0</ele><time>2026-04-16T07:30:50.836Z</time></trkpt><trkpt lat="42.6994433" lon="-8.3813683"><ele>434.0</ele><time>2026-04-16T07:30:51.837Z</time></trkpt><trkpt lat="42.6993667" lon="-8.3814867"><ele>434.0</ele><time>2026-04-16T07:30:52.837Z</time></trkpt><trkpt lat="42.6992683" lon="-8.381555"><ele>430.25</ele><time>2026-04-16T07:30:53.837Z</time></trkpt><trkpt lat="42.699165" lon="-8.3815767"><ele>426.5</ele><time>2026-04-16T07:30:54.836Z</time></trkpt><trkpt lat="42.6990417" lon="-8.3815417"><ele>422.75</ele><time>2026-04-16T07:30:55.836Z</time></trkpt><trkpt lat="42.6988967" lon="-8.3814783"><ele>419.0</ele><time>2026-04-16T07:30:56.837Z</time></trkpt><trkpt lat="42.69874" lon="-8.3813533"><ele>421.0</ele><time>2026-04-16T07:30:57.837Z</time></trkpt><trkpt lat="42.698595" lon="-8.3812367"><ele>423.0</ele><time>2026-04-16T07:30:58.836Z</time></trkpt><trkpt lat="42.6984517" lon="-8.3811117"><ele>425.0</ele><time>2026-04-16T07:30:59.837Z</time></trkpt><trkpt lat="42.69831" lon="-8.381005"><ele>425.0</ele><time>2026-04-16T07:31:00.836Z</time></trkpt><trkpt lat="42.6981667" lon="-8.380885"><ele>425.0</ele><time>2026-04-16T07:31:01.836Z</time></trkpt><trkpt lat="42.6980233" lon="-8.38078"><ele>425.0</ele><time>2026-04-16T07:31:02.837Z</time></trkpt><trkpt lat="42.69792" lon="-8.38068"><ele>425.0</ele><time>2026-04-16T07:31:03.836Z</time></trkpt><trkpt lat="42.697845" lon="-8.3805517"><ele>425.0</ele><time>2026-04-16T07:31:04.837Z</time></trkpt><trkpt lat="42.6977883" lon="-8.3804283"><ele>425.0</ele><time>2026-04-16T07:31:05.837Z</time></trkpt><trkpt lat="42.6977433" lon="-8.3802833"><ele>425.0</ele><time>2026-04-16T07:31:06.836Z</time></trkpt><trkpt lat="42.6977033" lon="-8.3801333"><ele>424.5</ele><time>2026-04-16T07:31:07.837Z</time></trkpt><trkpt lat="42.6976533" lon="-8.37999"><ele>424.0</ele><time>2026-04-16T07:31:08.837Z</time></trkpt><trkpt lat="42.6975983" lon="-8.3798317"><ele>423.5</ele><time>2026-04-16T07:31:09.836Z</time></trkpt><trkpt lat="42.6975433" lon="-8.3796667"><ele>423.0</ele><time>2026-04-16T07:31:10.836Z</time></trkpt><trkpt lat="42.6974817" lon="-8.379495"><ele>426.0</ele><time>2026-04-16T07:31:11.837Z</time></trkpt><trkpt lat="42.69742" lon="-8.3793167"><ele>429.0</ele><time>2026-04-16T07:31:12.836Z</time></trkpt><trkpt lat="42.6973683" lon="-8.3791383"><ele>432.0</ele><time>2026-04-16T07:31:13.837Z</time></trkpt><trkpt lat="42.6973133" lon="-8.3789533"><ele>435.0</ele><time>2026-04-16T07:31:14.836Z</time></trkpt><trkpt lat="42.6972367" lon="-8.37876"><ele>438.33333333333337</ele><time>2026-04-16T07:31:15.836Z</time></trkpt><trkpt lat="42.6971617" lon="-8.3785633"><ele>441.6666666666667</ele><time>2026-04-16T07:31:16.836Z</time></trkpt><trkpt lat="42.6970733" lon="-8.3783567"><ele>445.0</ele><time>2026-04-16T07:31:17.836Z</time></trkpt><trkpt lat="42.6969733" lon="-8.3781717"><ele>444.0</ele><time>2026-04-16T07:31:18.836Z</time></trkpt><trkpt lat="42.69685" lon="-8.377985"><ele>443.0</ele><time>2026-04-16T07:31:19.836Z</time></trkpt><trkpt lat="42.696725" lon="-8.3778283"><ele>442.0</ele><time>2026-04-16T07:31:20.837Z</time></trkpt><trkpt lat="42.6965983" lon="-8.377675"><ele>442.0</ele><time>2026-04-16T07:31:21.837Z</time></trkpt><trkpt lat="42.6964733" lon="-8.3775333"><ele>442.0</ele><time>2026-04-16T07:31:22.836Z</time></trkpt><trkpt lat="42.6963383" lon="-8.3773917"><ele>442.0</ele><time>2026-04-16T07:31:23.836Z</time></trkpt><trkpt lat="42.6962017" lon="-8.377265"><ele>442.33333333333337</ele><time>2026-04-16T07:31:24.837Z</time></trkpt><trkpt lat="42.69607" lon="-8.377125"><ele>442.66666666666663</ele><time>2026-04-16T07:31:25.837Z</time></trkpt><trkpt lat="42.6959467" lon="-8.3769883"><ele>443.0</ele><time>2026-04-16T07:31:26.836Z</time></trkpt><trkpt lat="42.695825" lon="-8.3768517"><ele>443.0</ele><time>2026-04-16T07:31:27.836Z</time></trkpt><trkpt lat="42.6957" lon="-8.3767183"><ele>443.0</ele><time>2026-04-16T07:31:28.837Z</time></trkpt><trkpt lat="42.6955883" lon="-8.3766"><ele>443.0</ele><time>2026-04-16T07:31:29.836Z</time></trkpt><trkpt lat="42.69549" lon="-8.3764783"><ele>443.0</ele><time>2026-04-16T07:31:30.836Z</time></trkpt><trkpt lat="42.6953983" lon="-8.376345"><ele>443.0</ele><time>2026-04-16T07:31:31.837Z</time></trkpt><trkpt lat="42.6953117" lon="-8.3761933"><ele>443.0</ele><time>2026-04-16T07:31:32.836Z</time></trkpt><trkpt lat="42.6952267" lon="-8.3760233"><ele>443.0</ele><time>2026-04-16T07:31:33.836Z</time></trkpt><trkpt lat="42.6951333" lon="-8.3758667"><ele>443.0</ele><time>2026-04-16T07:31:34.836Z</time></trkpt><trkpt lat="42.6950367" lon="-8.3757233"><ele>443.0</ele><time>2026-04-16T07:31:35.836Z</time></trkpt><trkpt lat="42.694945" lon="-8.3755817"><ele>443.0</ele><time>2026-04-16T07:31:36.836Z</time></trkpt><trkpt lat="42.6948683" lon="-8.37544"><ele>443.0</ele><time>2026-04-16T07:31:37.836Z</time></trkpt><trkpt lat="42.6947967" lon="-8.375275"><ele>443.0</ele><time>2026-04-16T07:31:38.836Z</time></trkpt><trkpt lat="42.6947433" lon="-8.3751017"><ele>443.5</ele><time>2026-04-16T07:31:39.837Z</time></trkpt><trkpt lat="42.6947017" lon="-8.37493"><ele>444.0</ele><time>2026-04-16T07:31:40.836Z</time></trkpt><trkpt lat="42.69466" lon="-8.3747783"><ele>444.5</ele><time>2026-04-16T07:31:41.836Z</time></trkpt><trkpt lat="42.6946" lon="-8.3746383"><ele>445.0</ele><time>2026-04-16T07:31:42.836Z</time></trkpt><trkpt lat="42.694525" lon="-8.3745083"><ele>444.75</ele><time>2026-04-16T07:31:43.836Z</time></trkpt><trkpt lat="42.6944417" lon="-8.374385"><ele>444.5</ele><time>2026-04-16T07:31:44.836Z</time></trkpt><trkpt lat="42.6943483" lon="-8.3742717"><ele>444.25</ele><time>2026-04-16T07:31:45.837Z</time></trkpt><trkpt lat="42.6942533" lon="-8.3741517"><ele>444.0</ele><time>2026-04-16T07:31:46.837Z</time></trkpt><trkpt lat="42.6941483" lon="-8.3740183"><ele>444.0</ele><time>2026-04-16T07:31:47.837Z</time></trkpt><trkpt lat="42.6940383" lon="-8.373885"><ele>444.0</ele><time>2026-04-16T07:31:48.836Z</time></trkpt><trkpt lat="42.69393" lon="-8.3737633"><ele>444.0</ele><time>2026-04-16T07:31:49.836Z</time></trkpt><trkpt lat="42.6938233" lon="-8.3736733"><ele>444.0</ele><time>2026-04-16T07:31:50.837Z</time></trkpt><trkpt lat="42.6937133" lon="-8.3736"><ele>443.6</ele><time>2026-04-16T07:31:51.837Z</time></trkpt><trkpt lat="42.6936083" lon="-8.37357"><ele>443.2</ele><time>2026-04-16T07:31:52.836Z</time></trkpt><trkpt lat="42.6935067" lon="-8.37358"><ele>442.80000000000007</ele><time>2026-04-16T07:31:53.836Z</time></trkpt><trkpt lat="42.6934267" lon="-8.3736017"><ele>442.40000000000003</ele><time>2026-04-16T07:31:54.836Z</time></trkpt><trkpt lat="42.69335" lon="-8.3736467"><ele>442.0</ele><time>2026-04-16T07:31:55.836Z</time></trkpt><trkpt lat="42.6932917" lon="-8.3737233"><ele>442.0</ele><time>2026-04-16T07:31:56.837Z</time></trkpt><trkpt lat="42.6932483" lon="-8.37382"><ele>442.00000000000006</ele><time>2026-04-16T07:31:57.836Z</time></trkpt><trkpt lat="42.693225" lon="-8.373915"><ele>442.00000000000006</ele><time>2026-04-16T07:31:58.836Z</time></trkpt><trkpt lat="42.693225" lon="-8.3740333"><ele>442.0</ele><time>2026-04-16T07:31:59.836Z</time></trkpt><trkpt lat="42.693245" lon="-8.3741667"><ele>442.0</ele><time>2026-04-16T07:32:00.836Z</time></trkpt><trkpt lat="42.69325" lon="-8.3743417"><ele>442.6666666666667</ele><time>2026-04-16T07:32:01.836Z</time></trkpt><trkpt lat="42.6933267" lon="-8.3745833"><ele>443.33333333333337</ele><time>2026-04-16T07:32:02.836Z</time></trkpt><trkpt lat="42.6933467" lon="-8.3747617"><ele>444.0</ele><time>2026-04-16T07:32:03.837Z</time></trkpt><trkpt lat="42.6933683" lon="-8.37493"><ele>444.25</ele><time>2026-04-16T07:32:04.836Z</time></trkpt><trkpt lat="42.6933633" lon="-8.3750817"><ele>444.5</ele><time>2026-04-16T07:32:05.837Z</time></trkpt><trkpt lat="42.6933217" lon="-8.3752267"><ele>444.75</ele><time>2026-04-16T07:32:06.836Z</time></trkpt><trkpt lat="42.6932417" lon="-8.3753767"><ele>445.0</ele><time>2026-04-16T07:32:07.837Z</time></trkpt><trkpt lat="42.6931483" lon="-8.37552"><ele>442.0</ele><time>2026-04-16T07:32:08.836Z</time></trkpt><trkpt lat="42.69306" lon="-8.3756983"><ele>439.0</ele><time>2026-04-16T07:32:09.836Z</time></trkpt><trkpt lat="42.6929833" lon="-8.3759"><ele>436.0</ele><time>2026-04-16T07:32:10.836Z</time></trkpt><trkpt lat="42.6929117" lon="-8.3761067"><ele>436.0</ele><time>2026-04-16T07:32:11.836Z</time></trkpt><trkpt lat="42.6928367" lon="-8.3763017"><ele>436.0</ele><time>2026-04-16T07:32:12.837Z</time></trkpt><trkpt lat="42.6927567" lon="-8.3764667"><ele>436.0</ele><time>2026-04-16T07:32:13.837Z</time></trkpt><trkpt lat="42.6926617" lon="-8.3766083"><ele>436.0</ele><time>2026-04-16T07:32:14.836Z</time></trkpt><trkpt lat="42.692535" lon="-8.3767383"><ele>438.0</ele><time>2026-04-16T07:32:15.836Z</time></trkpt><trkpt lat="42.692395" lon="-8.3768467"><ele>440.0</ele><time>2026-04-16T07:32:16.837Z</time></trkpt><trkpt lat="42.6922567" lon="-8.3769383"><ele>442.0</ele><time>2026-04-16T07:32:17.836Z</time></trkpt><trkpt lat="42.6920983" lon="-8.3770167"><ele>442.0</ele><time>2026-04-16T07:32:18.837Z</time></trkpt><trkpt lat="42.6919483" lon="-8.3770967"><ele>442.0</ele><time>2026-04-16T07:32:19.836Z</time></trkpt><trkpt lat="42.691775" lon="-8.3771767"><ele>442.0</ele><time>2026-04-16T07:32:20.837Z</time></trkpt><trkpt lat="42.6915983" lon="-8.3773033"><ele>440.6666666666667</ele><time>2026-04-16T07:32:21.836Z</time></trkpt><trkpt lat="42.6913917" lon="-8.3774417"><ele>439.33333333333337</ele><time>2026-04-16T07:32:22.836Z</time></trkpt><trkpt lat="42.6912483" lon="-8.3775683"><ele>438.0</ele><time>2026-04-16T07:32:23.836Z</time></trkpt><trkpt lat="42.6911067" lon="-8.3776983"><ele>438.33333333333337</ele><time>2026-04-16T07:32:24.836Z</time></trkpt><trkpt lat="42.6909583" lon="-8.377815"><ele>438.6666666666667</ele><time>2026-04-16T07:32:25.836Z</time></trkpt><trkpt lat="42.6908067" lon="-8.3779317"><ele>439.0</ele><time>2026-04-16T07:32:26.836Z</time></trkpt><trkpt lat="42.6906583" lon="-8.3780433"><ele>439.0</ele><time>2026-04-16T07:32:27.836Z</time></trkpt><trkpt lat="42.6905083" lon="-8.3781667"><ele>439.0</ele><time>2026-04-16T07:32:28.837Z</time></trkpt><trkpt lat="42.6903583" lon="-8.378305"><ele>439.0</ele><time>2026-04-16T07:32:29.837Z</time></trkpt><trkpt lat="42.6902183" lon="-8.37844"><ele>437.0</ele><time>2026-04-16T07:32:30.837Z</time></trkpt><trkpt lat="42.6900933" lon="-8.37859"><ele>435.0</ele><time>2026-04-16T07:32:31.837Z</time></trkpt><trkpt lat="42.6899833" lon="-8.37874"><ele>433.0</ele><time>2026-04-16T07:32:32.837Z</time></trkpt><trkpt lat="42.68989" lon="-8.3788967"><ele>433.0</ele><time>2026-04-16T07:32:33.836Z</time></trkpt><trkpt lat="42.68981" lon="-8.3790617"><ele>433.0</ele><time>2026-04-16T07:32:34.837Z</time></trkpt><trkpt lat="42.6897517" lon="-8.37925"><ele>433.0</ele><time>2026-04-16T07:32:35.836Z</time></trkpt><trkpt lat="42.6897167" lon="-8.3794583"><ele>433.0</ele><time>2026-04-16T07:32:36.836Z</time></trkpt><trkpt lat="42.689705" lon="-8.37967"><ele>433.0</ele><time>2026-04-16T07:32:37.837Z</time></trkpt><trkpt lat="42.6897183" lon="-8.37989"><ele>433.0</ele><time>2026-04-16T07:32:38.837Z</time></trkpt><trkpt lat="42.6897217" lon="-8.3800917"><ele>431.33333333333337</ele><time>2026-04-16T07:32:39.837Z</time></trkpt><trkpt lat="42.689735" lon="-8.3802517"><ele>429.6666666666667</ele><time>2026-04-16T07:32:40.836Z</time></trkpt><trkpt lat="42.6897433" lon="-8.3803717"><ele>428.0</ele><time>2026-04-16T07:32:41.836Z</time></trkpt><trkpt lat="42.6897667" lon="-8.3804717"><ele>426.33333333333337</ele><time>2026-04-16T07:32:42.837Z</time></trkpt><trkpt lat="42.6898083" lon="-8.38056"><ele>424.6666666666667</ele><time>2026-04-16T07:32:43.836Z</time></trkpt><trkpt lat="42.6898633" lon="-8.3806283"><ele>423.0</ele><time>2026-04-16T07:32:44.836Z</time></trkpt><trkpt lat="42.689945" lon="-8.380665"><ele>423.0</ele><time>2026-04-16T07:32:45.837Z</time></trkpt><trkpt lat="42.6900617" lon="-8.380725"><ele>423.0</ele><time>2026-04-16T07:32:46.836Z</time></trkpt><trkpt lat="42.6901717" lon="-8.3807933"><ele>423.0</ele><time>2026-04-16T07:32:47.836Z</time></trkpt><trkpt lat="42.6902667" lon="-8.3809183"><ele>423.0</ele><time>2026-04-16T07:32:48.836Z</time></trkpt><trkpt lat="42.6903583" lon="-8.381055"><ele>418.33333333333337</ele><time>2026-04-16T07:32:49.836Z</time></trkpt><trkpt lat="42.6904683" lon="-8.3812017"><ele>413.6666666666667</ele><time>2026-04-16T07:32:50.836Z</time></trkpt><trkpt lat="42.6905633" lon="-8.3813667"><ele>409.0</ele><time>2026-04-16T07:32:51.836Z</time></trkpt><trkpt lat="42.69065" lon="-8.381565"><ele>409.0</ele><time>2026-04-16T07:32:52.836Z</time></trkpt><trkpt lat="42.6907333" lon="-8.3817283"><ele>409.0</ele><time>2026-04-16T07:32:53.836Z</time></trkpt><trkpt lat="42.6908" lon="-8.3818733"><ele>409.0</ele><time>2026-04-16T07:32:54.836Z</time></trkpt><trkpt lat="42.690845" lon="-8.3820233"><ele>409.0</ele><time>2026-04-16T07:32:55.837Z</time></trkpt><trkpt lat="42.6908833" lon="-8.3821933"><ele>409.75</ele><time>2026-04-16T07:32:56.836Z</time></trkpt><trkpt lat="42.6908617" lon="-8.3823883"><ele>410.5</ele><time>2026-04-16T07:32:57.837Z</time></trkpt><trkpt lat="42.6908383" lon="-8.3825767"><ele>411.25</ele><time>2026-04-16T07:32:58.837Z</time></trkpt><trkpt lat="42.6907917" lon="-8.382775"><ele>412.0</ele><time>2026-04-16T07:32:59.836Z</time></trkpt><trkpt lat="42.6907233" lon="-8.3829483"><ele>409.33333333333337</ele><time>2026-04-16T07:33:00.837Z</time></trkpt><trkpt lat="42.690645" lon="-8.3831233"><ele>406.66666666666663</ele><time>2026-04-16T07:33:01.836Z</time></trkpt><trkpt lat="42.690565" lon="-8.383295"><ele>404.0</ele><time>2026-04-16T07:33:02.837Z</time></trkpt><trkpt lat="42.69047" lon="-8.3834767"><ele>404.0</ele><time>2026-04-16T07:33:03.836Z</time></trkpt><trkpt lat="42.6903783" lon="-8.383645"><ele>404.0</ele><time>2026-04-16T07:33:04.836Z</time></trkpt><trkpt lat="42.6902833" lon="-8.383815"><ele>404.0</ele><time>2026-04-16T07:33:05.836Z</time></trkpt><trkpt lat="42.6901967" lon="-8.3839967"><ele>408.3333333333333</ele><time>2026-04-16T07:33:06.836Z</time></trkpt><trkpt lat="42.6901033" lon="-8.3841717"><ele>412.66666666666663</ele><time>2026-04-16T07:33:07.837Z</time></trkpt><trkpt lat="42.6899967" lon="-8.3843583"><ele>417.0</ele><time>2026-04-16T07:33:08.837Z</time></trkpt><trkpt lat="42.6898683" lon="-8.3845183"><ele>417.0</ele><time>2026-04-16T07:33:09.837Z</time></trkpt><trkpt lat="42.689755" lon="-8.3846617"><ele>417.0</ele><time>2026-04-16T07:33:10.836Z</time></trkpt><trkpt lat="42.689635" lon="-8.384785"><ele>417.0</ele><time>2026-04-16T07:33:11.836Z</time></trkpt><trkpt lat="42.6894817" lon="-8.3848983"><ele>417.0</ele><time>2026-04-16T07:33:12.837Z</time></trkpt><trkpt lat="42.6893417" lon="-8.3850017"><ele>417.0</ele><time>2026-04-16T07:33:13.836Z</time></trkpt><trkpt lat="42.6892083" lon="-8.3850917"><ele>417.0</ele><time>2026-04-16T07:33:14.836Z</time></trkpt><trkpt lat="42.6890633" lon="-8.385185"><ele>417.0</ele><time>2026-04-16T07:33:15.836Z</time></trkpt><trkpt lat="42.68891" lon="-8.3852817"><ele>417.0</ele><time>2026-04-16T07:33:16.836Z</time></trkpt><trkpt lat="42.6887517" lon="-8.3853733"><ele>417.0</ele><time>2026-04-16T07:33:17.836Z</time></trkpt><trkpt lat="42.6885667" lon="-8.3854517"><ele>416.33333333333337</ele><time>2026-04-16T07:33:18.836Z</time></trkpt><trkpt lat="42.68841" lon="-8.3855167"><ele>415.6666666666667</ele><time>2026-04-16T07:33:19.836Z</time></trkpt><trkpt lat="42.6882667" lon="-8.38559"><ele>415.0</ele><time>2026-04-16T07:33:20.837Z</time></trkpt><trkpt lat="42.6881233" lon="-8.3856583"><ele>415.0</ele><time>2026-04-16T07:33:21.836Z</time></trkpt><trkpt lat="42.6879867" lon="-8.38572"><ele>415.0</ele><time>2026-04-16T07:33:22.836Z</time></trkpt><trkpt lat="42.6878617" lon="-8.385775"><ele>415.0</ele><time>2026-04-16T07:33:23.836Z</time></trkpt><trkpt lat="42.6877533" lon="-8.3857967"><ele>415.0</ele><time>2026-04-16T07:33:24.836Z</time></trkpt><trkpt lat="42.6876533" lon="-8.385795"><ele>416.0</ele><time>2026-04-16T07:33:25.836Z</time></trkpt><trkpt lat="42.68756" lon="-8.3857583"><ele>417.0</ele><time>2026-04-16T07:33:26.836Z</time></trkpt><trkpt lat="42.687465" lon="-8.3857067"><ele>418.0</ele><time>2026-04-16T07:33:27.836Z</time></trkpt><trkpt lat="42.687355" lon="-8.3856667"><ele>419.0</ele><time>2026-04-16T07:33:28.836Z</time></trkpt><trkpt lat="42.6872367" lon="-8.3856517"><ele>420.0</ele><time>2026-04-16T07:33:29.836Z</time></trkpt><trkpt lat="42.6871283" lon="-8.3856683"><ele>420.0</ele><time>2026-04-16T07:33:30.836Z</time></trkpt><trkpt lat="42.6870183" lon="-8.385725"><ele>420.0</ele><time>2026-04-16T07:33:31.836Z</time></trkpt><trkpt lat="42.686915" lon="-8.3857817"><ele>420.0</ele><time>2026-04-16T07:33:32.837Z</time></trkpt><trkpt lat="42.6867833" lon="-8.3858183"><ele>420.0</ele><time>2026-04-16T07:33:33.837Z</time></trkpt><trkpt lat="42.6866683" lon="-8.385825"><ele>421.1666666666667</ele><time>2026-04-16T07:33:34.836Z</time></trkpt><trkpt lat="42.6865867" lon="-8.38579"><ele>422.33333333333337</ele><time>2026-04-16T07:33:35.836Z</time></trkpt><trkpt lat="42.6865133" lon="-8.385715"><ele>423.5</ele><time>2026-04-16T07:33:36.836Z</time></trkpt><trkpt lat="42.6864683" lon="-8.385625"><ele>424.6666666666667</ele><time>2026-04-16T07:33:37.836Z</time></trkpt><trkpt lat="42.6864467" lon="-8.3855183"><ele>425.83333333333337</ele><time>2026-04-16T07:33:38.836Z</time></trkpt><trkpt lat="42.6864517" lon="-8.38539"><ele>427.0</ele><time>2026-04-16T07:33:39.836Z</time></trkpt><trkpt lat="42.68648" lon="-8.3852617"><ele>430.0</ele><time>2026-04-16T07:33:40.837Z</time></trkpt><trkpt lat="42.6865317" lon="-8.38516"><ele>433.00000000000006</ele><time>2026-04-16T07:33:41.837Z</time></trkpt><trkpt lat="42.6866" lon="-8.38505"><ele>436.00000000000006</ele><time>2026-04-16T07:33:42.836Z</time></trkpt><trkpt lat="42.6866817" lon="-8.3849533"><ele>439.0</ele><time>2026-04-16T07:33:43.837Z</time></trkpt><trkpt lat="42.68675" lon="-8.38482"><ele>442.0</ele><time>2026-04-16T07:33:44.836Z</time></trkpt><trkpt lat="42.6868083" lon="-8.38466"><ele>442.75</ele><time>2026-04-16T07:33:45.837Z</time></trkpt><trkpt lat="42.6868667" lon="-8.3844883"><ele>443.5</ele><time>2026-04-16T07:33:46.836Z</time></trkpt><trkpt lat="42.6869017" lon="-8.3842917"><ele>444.25</ele><time>2026-04-16T07:33:47.837Z</time></trkpt><trkpt lat="42.686955" lon="-8.3840883"><ele>445.0</ele><time>2026-04-16T07:33:48.837Z</time></trkpt><trkpt lat="42.687015" lon="-8.3839167"><ele>447.25</ele><time>2026-04-16T07:33:49.837Z</time></trkpt><trkpt lat="42.6871" lon="-8.3837617"><ele>449.5</ele><time>2026-04-16T07:33:50.837Z</time></trkpt><trkpt lat="42.68718" lon="-8.3836167"><ele>451.75</ele><time>2026-04-16T07:33:51.837Z</time></trkpt><trkpt lat="42.6873017" lon="-8.3834683"><ele>454.0</ele><time>2026-04-16T07:33:52.836Z</time></trkpt><trkpt lat="42.687415" lon="-8.3833333"><ele>454.0</ele><time>2026-04-16T07:33:53.837Z</time></trkpt><trkpt lat="42.6875117" lon="-8.3831983"><ele>454.0</ele><time>2026-04-16T07:33:54.836Z</time></trkpt><trkpt lat="42.6875817" lon="-8.383065"><ele>454.0</ele><time>2026-04-16T07:33:55.836Z</time></trkpt><trkpt lat="42.687625" lon="-8.3829283"><ele>454.0</ele><time>2026-04-16T07:33:56.837Z</time></trkpt><trkpt lat="42.6876233" lon="-8.3828383"><ele>454.0</ele><time>2026-04-16T07:33:57.836Z</time></trkpt><trkpt lat="42.6875767" lon="-8.3827467"><ele>454.50000000000006</ele><time>2026-04-16T07:33:59.836Z</time></trkpt><trkpt lat="42.6874983" lon="-8.382785"><ele>455.0</ele><time>2026-04-16T07:34:01.837Z</time></trkpt><trkpt lat="42.68744" lon="-8.3828233"><ele>455.5</ele><time>2026-04-16T07:34:02.836Z</time></trkpt><trkpt lat="42.6873733" lon="-8.3828583"><ele>456.0</ele><time>2026-04-16T07:34:03.837Z</time></trkpt><trkpt lat="42.6873" lon="-8.38287"><ele>456.50000000000006</ele><time>2026-04-16T07:34:04.837Z</time></trkpt><trkpt lat="42.6872167" lon="-8.3828683"><ele>457.0</ele><time>2026-04-16T07:34:05.836Z</time></trkpt><trkpt lat="42.687155" lon="-8.3827983"><ele>457.0</ele><time>2026-04-16T07:34:06.836Z</time></trkpt><trkpt lat="42.6870983" lon="-8.3827033"><ele>457.00000000000006</ele><time>2026-04-16T07:34:07.836Z</time></trkpt><trkpt lat="42.6870667" lon="-8.3825867"><ele>457.00000000000006</ele><time>2026-04-16T07:34:08.836Z</time></trkpt><trkpt lat="42.6870433" lon="-8.3824283"><ele>457.0</ele><time>2026-04-16T07:34:09.837Z</time></trkpt><trkpt lat="42.68701" lon="-8.3822583"><ele>457.0</ele><time>2026-04-16T07:34:10.836Z</time></trkpt><trkpt lat="42.686965" lon="-8.3820917"><ele>463.25</ele><time>2026-04-16T07:34:11.837Z</time></trkpt><trkpt lat="42.6869183" lon="-8.381925"><ele>469.5</ele><time>2026-04-16T07:34:12.837Z</time></trkpt><trkpt lat="42.6868767" lon="-8.3817633"><ele>475.75</ele><time>2026-04-16T07:34:13.837Z</time></trkpt><trkpt lat="42.6868267" lon="-8.3816017"><ele>482.0</ele><time>2026-04-16T07:34:14.837Z</time></trkpt><trkpt lat="42.6867767" lon="-8.3814483"><ele>482.0</ele><time>2026-04-16T07:34:15.836Z</time></trkpt><trkpt lat="42.6867483" lon="-8.3813083"><ele>482.00000000000006</ele><time>2026-04-16T07:34:16.836Z</time></trkpt><trkpt lat="42.6867267" lon="-8.3811817"><ele>482.00000000000006</ele><time>2026-04-16T07:34:17.836Z</time></trkpt><trkpt lat="42.6867183" lon="-8.38106"><ele>482.0</ele><time>2026-04-16T07:34:18.837Z</time></trkpt><trkpt lat="42.6867283" lon="-8.38092"><ele>482.0</ele><time>2026-04-16T07:34:19.836Z</time></trkpt><trkpt lat="42.6867483" lon="-8.38078"><ele>482.0</ele><time>2026-04-16T07:34:20.836Z</time></trkpt><trkpt lat="42.6867633" lon="-8.3806283"><ele>482.00000000000006</ele><time>2026-04-16T07:34:21.837Z</time></trkpt><trkpt lat="42.6867833" lon="-8.3804767"><ele>482.00000000000006</ele><time>2026-04-16T07:34:22.836Z</time></trkpt><trkpt lat="42.6868117" lon="-8.380335"><ele>482.0</ele><time>2026-04-16T07:34:23.836Z</time></trkpt><trkpt lat="42.686835" lon="-8.3801917"><ele>482.0</ele><time>2026-04-16T07:34:24.836Z</time></trkpt><trkpt lat="42.686865" lon="-8.380045"><ele>482.3333333333333</ele><time>2026-04-16T07:34:25.836Z</time></trkpt><trkpt lat="42.68688" lon="-8.379895"><ele>482.66666666666663</ele><time>2026-04-16T07:34:26.836Z</time></trkpt><trkpt lat="42.6868767" lon="-8.379755"><ele>483.0</ele><time>2026-04-16T07:34:27.836Z</time></trkpt><trkpt lat="42.686885" lon="-8.37962"><ele>483.33333333333337</ele><time>2026-04-16T07:34:28.837Z</time></trkpt><trkpt lat="42.6869" lon="-8.3795267"><ele>483.6666666666667</ele><time>2026-04-16T07:34:29.837Z</time></trkpt><trkpt lat="42.6869383" lon="-8.3794583"><ele>484.0</ele><time>2026-04-16T07:34:30.836Z</time></trkpt><trkpt lat="42.6870017" lon="-8.3794067"><ele>484.0</ele><time>2026-04-16T07:34:31.837Z</time></trkpt><trkpt lat="42.6870833" lon="-8.3793583"><ele>484.0</ele><time>2026-04-16T07:34:32.837Z</time></trkpt><trkpt lat="42.687195" lon="-8.3793517"><ele>484.0</ele><time>2026-04-16T07:34:33.836Z</time></trkpt><trkpt lat="42.6873283" lon="-8.37934"><ele>484.0</ele><time>2026-04-16T07:34:34.837Z</time></trkpt><trkpt lat="42.6874317" lon="-8.3793167"><ele>484.0</ele><time>2026-04-16T07:34:35.837Z</time></trkpt><trkpt lat="42.68752" lon="-8.3792833"><ele>484.0</ele><time>2026-04-16T07:34:36.837Z</time></trkpt><trkpt lat="42.68759" lon="-8.37919"><ele>484.0</ele><time>2026-04-16T07:34:38.837Z</time></trkpt><trkpt lat="42.68756" lon="-8.379065"><ele>484.0</ele><time>2026-04-16T07:34:40.837Z</time></trkpt><trkpt lat="42.6875017" lon="-8.3789983"><ele>484.0</ele><time>2026-04-16T07:34:41.836Z</time></trkpt><trkpt lat="42.6874117" lon="-8.3789233"><ele>484.0</ele><time>2026-04-16T07:34:42.837Z</time></trkpt><trkpt lat="42.687325" lon="-8.378835"><ele>486.25</ele><time>2026-04-16T07:34:43.836Z</time></trkpt><trkpt lat="42.6872317" lon="-8.3787433"><ele>488.5</ele><time>2026-04-16T07:34:44.836Z</time></trkpt><trkpt lat="42.6871233" lon="-8.3786633"><ele>490.75</ele><time>2026-04-16T07:34:45.836Z</time></trkpt><trkpt lat="42.6870133" lon="-8.3786"><ele>493.0</ele><time>2026-04-16T07:34:46.836Z</time></trkpt><trkpt lat="42.6869217" lon="-8.3785417"><ele>494.0</ele><time>2026-04-16T07:34:47.836Z</time></trkpt><trkpt lat="42.6868467" lon="-8.37848"><ele>494.99999999999994</ele><time>2026-04-16T07:34:48.837Z</time></trkpt><trkpt lat="42.686785" lon="-8.3783383"><ele>495.99999999999994</ele><time>2026-04-16T07:34:50.837Z</time></trkpt><trkpt lat="42.6868083" lon="-8.37817"><ele>497.0</ele><time>2026-04-16T07:34:52.836Z</time></trkpt><trkpt lat="42.6868467" lon="-8.3780717"><ele>498.0</ele><time>2026-04-16T07:34:53.836Z</time></trkpt><trkpt lat="42.6869183" lon="-8.3779383"><ele>498.5</ele><time>2026-04-16T07:34:54.836Z</time></trkpt><trkpt lat="42.6870017" lon="-8.37777"><ele>499.0</ele><time>2026-04-16T07:34:55.836Z</time></trkpt><trkpt lat="42.687085" lon="-8.37761"><ele>499.5</ele><time>2026-04-16T07:34:56.836Z</time></trkpt><trkpt lat="42.6871633" lon="-8.37746"><ele>500.0</ele><time>2026-04-16T07:34:57.836Z</time></trkpt><trkpt lat="42.68726" lon="-8.3773333"><ele>500.0</ele><time>2026-04-16T07:34:58.836Z</time></trkpt><trkpt lat="42.6873567" lon="-8.377255"><ele>500.0</ele><time>2026-04-16T07:34:59.836Z</time></trkpt><trkpt lat="42.6874383" lon="-8.3771933"><ele>500.0</ele><time>2026-04-16T07:35:00.837Z</time></trkpt><trkpt lat="42.687535" lon="-8.3771017"><ele>500.0</ele><time>2026-04-16T07:35:01.837Z</time></trkpt><trkpt lat="42.6875933" lon="-8.377005"><ele>500.0</ele><time>2026-04-16T07:35:02.836Z</time></trkpt><trkpt lat="42.68762" lon="-8.376915"><ele>502.2</ele><time>2026-04-16T07:35:03.837Z</time></trkpt><trkpt lat="42.6875683" lon="-8.3767767"><ele>504.4</ele><time>2026-04-16T07:35:05.836Z</time></trkpt><trkpt lat="42.6874933" lon="-8.3767233"><ele>506.6</ele><time>2026-04-16T07:35:06.837Z</time></trkpt><trkpt lat="42.6874067" lon="-8.3766583"><ele>508.8</ele><time>2026-04-16T07:35:07.836Z</time></trkpt><trkpt lat="42.68732" lon="-8.3765683"><ele>511.0</ele><time>2026-04-16T07:35:08.836Z</time></trkpt><trkpt lat="42.6872283" lon="-8.3764817"><ele>511.0</ele><time>2026-04-16T07:35:09.837Z</time></trkpt><trkpt lat="42.6871217" lon="-8.3763783"><ele>511.0</ele><time>2026-04-16T07:35:10.837Z</time></trkpt><trkpt lat="42.68702" lon="-8.3762667"><ele>511.0</ele><time>2026-04-16T07:35:11.836Z</time></trkpt><trkpt lat="42.6869183" lon="-8.3761783"><ele>511.0</ele><time>2026-04-16T07:35:12.836Z</time></trkpt><trkpt lat="42.6867967" lon="-8.3761117"><ele>515.5</ele><time>2026-04-16T07:35:13.836Z</time></trkpt><trkpt lat="42.6866617" lon="-8.3760433"><ele>520.0</ele><time>2026-04-16T07:35:14.837Z</time></trkpt><trkpt lat="42.6865283" lon="-8.375985"><ele>524.5</ele><time>2026-04-16T07:35:15.836Z</time></trkpt><trkpt lat="42.6863967" lon="-8.3759167"><ele>529.0</ele><time>2026-04-16T07:35:16.837Z</time></trkpt><trkpt lat="42.6862617" lon="-8.3758433"><ele>529.0</ele><time>2026-04-16T07:35:17.837Z</time></trkpt><trkpt lat="42.68614" lon="-8.37575"><ele>529.0</ele><time>2026-04-16T07:35:18.837Z</time></trkpt><trkpt lat="42.6860233" lon="-8.3756417"><ele>529.0</ele><time>2026-04-16T07:35:19.837Z</time></trkpt><trkpt lat="42.6859283" lon="-8.375535"><ele>529.0</ele><time>2026-04-16T07:35:20.837Z</time></trkpt><trkpt lat="42.6858133" lon="-8.3754367"><ele>533.2</ele><time>2026-04-16T07:35:21.837Z</time></trkpt><trkpt lat="42.6857083" lon="-8.3753483"><ele>537.4</ele><time>2026-04-16T07:35:22.838Z</time></trkpt><trkpt lat="42.6856067" lon="-8.3752717"><ele>541.6</ele><time>2026-04-16T07:35:23.838Z</time></trkpt><trkpt lat="42.68552" lon="-8.3752117"><ele>545.8</ele><time>2026-04-16T07:35:24.838Z</time></trkpt><trkpt lat="42.68543" lon="-8.3751467"><ele>550.0</ele><time>2026-04-16T07:35:25.837Z</time></trkpt><trkpt lat="42.6853483" lon="-8.3750717"><ele>550.0</ele><time>2026-04-16T07:35:26.837Z</time></trkpt><trkpt lat="42.685275" lon="-8.374975"><ele>550.0</ele><time>2026-04-16T07:35:27.838Z</time></trkpt><trkpt lat="42.68522" lon="-8.3748467"><ele>550.0</ele><time>2026-04-16T07:35:28.837Z</time></trkpt><trkpt lat="42.685185" lon="-8.3747017"><ele>550.0</ele><time>2026-04-16T07:35:29.838Z</time></trkpt><trkpt lat="42.6851617" lon="-8.37455"><ele>550.0</ele><time>2026-04-16T07:35:30.838Z</time></trkpt><trkpt lat="42.68514" lon="-8.3743883"><ele>550.75</ele><time>2026-04-16T07:35:31.837Z</time></trkpt><trkpt lat="42.68511" lon="-8.37423"><ele>551.5</ele><time>2026-04-16T07:35:32.838Z</time></trkpt><trkpt lat="42.6850667" lon="-8.37407"><ele>552.25</ele><time>2026-04-16T07:35:33.837Z</time></trkpt><trkpt lat="42.6850083" lon="-8.3739233"><ele>553.0</ele><time>2026-04-16T07:35:34.838Z</time></trkpt><trkpt lat="42.6849567" lon="-8.3737833"><ele>554.75</ele><time>2026-04-16T07:35:35.837Z</time></trkpt><trkpt lat="42.6849033" lon="-8.3736367"><ele>556.5</ele><time>2026-04-16T07:35:36.837Z</time></trkpt><trkpt lat="42.6848617" lon="-8.3734833"><ele>558.25</ele><time>2026-04-16T07:35:37.837Z</time></trkpt><trkpt lat="42.6848067" lon="-8.373325"><ele>560.0</ele><time>2026-04-16T07:35:38.837Z</time></trkpt><trkpt lat="42.6847633" lon="-8.373175"><ele>560.0</ele><time>2026-04-16T07:35:39.837Z</time></trkpt><trkpt lat="42.684745" lon="-8.3730267"><ele>560.0</ele><time>2026-04-16T07:35:40.838Z</time></trkpt><trkpt lat="42.6847583" lon="-8.3728917"><ele>560.0</ele><time>2026-04-16T07:35:41.838Z</time></trkpt><trkpt lat="42.684795" lon="-8.3727717"><ele>560.0</ele><time>2026-04-16T07:35:42.838Z</time></trkpt><trkpt lat="42.6848483" lon="-8.3726633"><ele>560.0</ele><time>2026-04-16T07:35:43.837Z</time></trkpt><trkpt lat="42.684925" lon="-8.3725783"><ele>561.75</ele><time>2026-04-16T07:35:44.837Z</time></trkpt><trkpt lat="42.6850283" lon="-8.3725167"><ele>563.5</ele><time>2026-04-16T07:35:45.837Z</time></trkpt><trkpt lat="42.6851433" lon="-8.372475"><ele>565.25</ele><time>2026-04-16T07:35:46.837Z</time></trkpt><trkpt lat="42.6852833" lon="-8.3724583"><ele>567.0</ele><time>2026-04-16T07:35:47.837Z</time></trkpt><trkpt lat="42.685435" lon="-8.3724483"><ele>567.0</ele><time>2026-04-16T07:35:48.838Z</time></trkpt><trkpt lat="42.6855917" lon="-8.372445"><ele>567.0</ele><time>2026-04-16T07:35:49.838Z</time></trkpt><trkpt lat="42.6857483" lon="-8.3724267"><ele>567.0</ele><time>2026-04-16T07:35:50.837Z</time></trkpt><trkpt lat="42.6859" lon="-8.3724133"><ele>567.0</ele><time>2026-04-16T07:35:51.838Z</time></trkpt><trkpt lat="42.686045" lon="-8.3723933"><ele>567.0</ele><time>2026-04-16T07:35:52.837Z</time></trkpt><trkpt lat="42.6861933" lon="-8.37237"><ele>567.0</ele><time>2026-04-16T07:35:53.838Z</time></trkpt><trkpt lat="42.6863367" lon="-8.37234"><ele>567.0</ele><time>2026-04-16T07:35:54.837Z</time></trkpt><trkpt lat="42.6864883" lon="-8.3723267"><ele>566.6666666666666</ele><time>2026-04-16T07:35:55.838Z</time></trkpt><trkpt lat="42.6866417" lon="-8.37232"><ele>566.3333333333333</ele><time>2026-04-16T07:35:56.838Z</time></trkpt><trkpt lat="42.6867917" lon="-8.3723033"><ele>566.0</ele><time>2026-04-16T07:35:57.837Z</time></trkpt><trkpt lat="42.686945" lon="-8.3722833"><ele>565.75</ele><time>2026-04-16T07:35:58.837Z</time></trkpt><trkpt lat="42.687095" lon="-8.372275"><ele>565.5</ele><time>2026-04-16T07:35:59.837Z</time></trkpt><trkpt lat="42.687235" lon="-8.3722567"><ele>565.25</ele><time>2026-04-16T07:36:00.838Z</time></trkpt><trkpt lat="42.6873633" lon="-8.3722467"><ele>565.0</ele><time>2026-04-16T07:36:01.838Z</time></trkpt><trkpt lat="42.6874983" lon="-8.372225"><ele>565.0</ele><time>2026-04-16T07:36:02.838Z</time></trkpt><trkpt lat="42.68762" lon="-8.3721983"><ele>565.0</ele><time>2026-04-16T07:36:03.838Z</time></trkpt><trkpt lat="42.687735" lon="-8.372155"><ele>565.0</ele><time>2026-04-16T07:36:04.837Z</time></trkpt><trkpt lat="42.6878417" lon="-8.3720967"><ele>565.0</ele><time>2026-04-16T07:36:05.837Z</time></trkpt><trkpt lat="42.687945" lon="-8.372025"><ele>566.75</ele><time>2026-04-16T07:36:06.837Z</time></trkpt><trkpt lat="42.6880417" lon="-8.3719317"><ele>568.5</ele><time>2026-04-16T07:36:07.837Z</time></trkpt><trkpt lat="42.6881217" lon="-8.3718033"><ele>570.25</ele><time>2026-04-16T07:36:08.838Z</time></trkpt><trkpt lat="42.688195" lon="-8.3716817"><ele>572.0</ele><time>2026-04-16T07:36:09.837Z</time></trkpt><trkpt lat="42.68824" lon="-8.371535"><ele>572.0</ele><time>2026-04-16T07:36:10.837Z</time></trkpt><trkpt lat="42.68826" lon="-8.3713867"><ele>572.0</ele><time>2026-04-16T07:36:11.838Z</time></trkpt><trkpt lat="42.6882667" lon="-8.3712467"><ele>572.0</ele><time>2026-04-16T07:36:12.838Z</time></trkpt><trkpt lat="42.6882633" lon="-8.3711133"><ele>572.0</ele><time>2026-04-16T07:36:13.837Z</time></trkpt><trkpt lat="42.688255" lon="-8.371025"><ele>572.0</ele><time>2026-04-16T07:36:14.837Z</time></trkpt><trkpt lat="42.6882767" lon="-8.3711533"><ele>572.0</ele><time>2026-04-16T07:36:20.838Z</time></trkpt><trkpt lat="42.688275" lon="-8.371255"><ele>572.0</ele><time>2026-04-16T07:36:21.838Z</time></trkpt><trkpt lat="42.68827" lon="-8.3713983"><ele>572.0</ele><time>2026-04-16T07:36:22.837Z</time></trkpt><trkpt lat="42.68825" lon="-8.37156"><ele>572.0</ele><time>2026-04-16T07:36:23.837Z</time></trkpt><trkpt lat="42.6881967" lon="-8.3717283"><ele>572.0</ele><time>2026-04-16T07:36:24.837Z</time></trkpt><trkpt lat="42.6881217" lon="-8.3718683"><ele>572.0</ele><time>2026-04-16T07:36:25.837Z</time></trkpt><trkpt lat="42.68801" lon="-8.3719917"><ele>572.0</ele><time>2026-04-16T07:36:26.838Z</time></trkpt><trkpt lat="42.68788" lon="-8.3720983"><ele>572.0</ele><time>2026-04-16T07:36:27.838Z</time></trkpt><trkpt lat="42.6877483" lon="-8.3721883"><ele>572.0</ele><time>2026-04-16T07:36:28.837Z</time></trkpt><trkpt lat="42.6876117" lon="-8.3722483"><ele>569.6666666666666</ele><time>2026-04-16T07:36:29.838Z</time></trkpt><trkpt lat="42.6874567" lon="-8.37229"><ele>567.3333333333334</ele><time>2026-04-16T07:36:30.837Z</time></trkpt><trkpt lat="42.6872883" lon="-8.3723133"><ele>565.0</ele><time>2026-04-16T07:36:31.838Z</time></trkpt><trkpt lat="42.6870983" lon="-8.3723333"><ele>565.3333333333334</ele><time>2026-04-16T07:36:32.837Z</time></trkpt><trkpt lat="42.6869083" lon="-8.372345"><ele>565.6666666666666</ele><time>2026-04-16T07:36:33.838Z</time></trkpt><trkpt lat="42.6867033" lon="-8.372365"><ele>566.0</ele><time>2026-04-16T07:36:34.838Z</time></trkpt><trkpt lat="42.68647" lon="-8.3723983"><ele>566.0</ele><time>2026-04-16T07:36:35.838Z</time></trkpt><trkpt lat="42.6862583" lon="-8.3724083"><ele>566.0</ele><time>2026-04-16T07:36:36.838Z</time></trkpt><trkpt lat="42.68606" lon="-8.3724267"><ele>566.0</ele><time>2026-04-16T07:36:37.837Z</time></trkpt><trkpt lat="42.68588" lon="-8.3724417"><ele>566.3333333333333</ele><time>2026-04-16T07:36:38.838Z</time></trkpt><trkpt lat="42.6856917" lon="-8.3724667"><ele>566.6666666666666</ele><time>2026-04-16T07:36:39.838Z</time></trkpt><trkpt lat="42.6855133" lon="-8.3724817"><ele>567.0</ele><time>2026-04-16T07:36:40.837Z</time></trkpt><trkpt lat="42.6853633" lon="-8.3724917"><ele>567.0</ele><time>2026-04-16T07:36:41.837Z</time></trkpt><trkpt lat="42.685205" lon="-8.37253"><ele>567.0</ele><time>2026-04-16T07:36:42.838Z</time></trkpt><trkpt lat="42.6850533" lon="-8.3725617"><ele>567.0</ele><time>2026-04-16T07:36:43.837Z</time></trkpt><trkpt lat="42.6849233" lon="-8.3726183"><ele>567.0</ele><time>2026-04-16T07:36:44.838Z</time></trkpt><trkpt lat="42.6848283" lon="-8.37271"><ele>567.0</ele><time>2026-04-16T07:36:45.837Z</time></trkpt><trkpt lat="42.684775" lon="-8.3728367"><ele>567.0</ele><time>2026-04-16T07:36:46.838Z</time></trkpt><trkpt lat="42.68475" lon="-8.3729867"><ele>567.0</ele><time>2026-04-16T07:36:47.837Z</time></trkpt><trkpt lat="42.6847717" lon="-8.3731633"><ele>564.6666666666666</ele><time>2026-04-16T07:36:48.837Z</time></trkpt><trkpt lat="42.6848117" lon="-8.3733667"><ele>562.3333333333333</ele><time>2026-04-16T07:36:49.837Z</time></trkpt><trkpt lat="42.6848783" lon="-8.37358"><ele>560.0</ele><time>2026-04-16T07:36:50.837Z</time></trkpt><trkpt lat="42.684965" lon="-8.373805"><ele>557.6666666666666</ele><time>2026-04-16T07:36:51.837Z</time></trkpt><trkpt lat="42.6850383" lon="-8.37404"><ele>555.3333333333334</ele><time>2026-04-16T07:36:52.837Z</time></trkpt><trkpt lat="42.68511" lon="-8.3742467"><ele>553.0</ele><time>2026-04-16T07:36:53.838Z</time></trkpt><trkpt lat="42.685165" lon="-8.3744617"><ele>553.0</ele><time>2026-04-16T07:36:54.838Z</time></trkpt><trkpt lat="42.6852067" lon="-8.374645"><ele>553.0</ele><time>2026-04-16T07:36:55.838Z</time></trkpt><trkpt lat="42.6852483" lon="-8.3748017"><ele>553.0</ele><time>2026-04-16T07:36:56.837Z</time></trkpt><trkpt lat="42.6852917" lon="-8.3749517"><ele>553.0</ele><time>2026-04-16T07:36:57.838Z</time></trkpt><trkpt lat="42.685375" lon="-8.37506"><ele>552.0</ele><time>2026-04-16T07:36:58.837Z</time></trkpt><trkpt lat="42.6854867" lon="-8.3751583"><ele>551.0</ele><time>2026-04-16T07:36:59.837Z</time></trkpt><trkpt lat="42.6856367" lon="-8.37525"><ele>550.0</ele><time>2026-04-16T07:37:00.838Z</time></trkpt><trkpt lat="42.6857917" lon="-8.3753717"><ele>550.0</ele><time>2026-04-16T07:37:01.838Z</time></trkpt><trkpt lat="42.68594" lon="-8.3754967"><ele>550.0</ele><time>2026-04-16T07:37:02.838Z</time></trkpt><trkpt lat="42.6860833" lon="-8.3756283"><ele>550.0</ele><time>2026-04-16T07:37:03.838Z</time></trkpt><trkpt lat="42.6862467" lon="-8.3757617"><ele>543.0</ele><time>2026-04-16T07:37:04.838Z</time></trkpt><trkpt lat="42.68642" lon="-8.3758967"><ele>536.0</ele><time>2026-04-16T07:37:05.838Z</time></trkpt><trkpt lat="42.6866033" lon="-8.376005"><ele>529.0</ele><time>2026-04-16T07:37:06.837Z</time></trkpt><trkpt lat="42.686775" lon="-8.3760933"><ele>529.0</ele><time>2026-04-16T07:37:07.837Z</time></trkpt><trkpt lat="42.6869083" lon="-8.376185"><ele>529.0</ele><time>2026-04-16T07:37:08.837Z</time></trkpt><trkpt lat="42.687045" lon="-8.3763017"><ele>529.0</ele><time>2026-04-16T07:37:09.838Z</time></trkpt><trkpt lat="42.68717" lon="-8.3764267"><ele>524.5</ele><time>2026-04-16T07:37:10.837Z</time></trkpt><trkpt lat="42.687285" lon="-8.376555"><ele>520.0</ele><time>2026-04-16T07:37:11.838Z</time></trkpt><trkpt lat="42.6873917" lon="-8.3766567"><ele>515.5</ele><time>2026-04-16T07:37:12.837Z</time></trkpt><trkpt lat="42.68748" lon="-8.3767483"><ele>511.0</ele><time>2026-04-16T07:37:13.838Z</time></trkpt><trkpt lat="42.687545" lon="-8.376815"><ele>511.0</ele><time>2026-04-16T07:37:14.837Z</time></trkpt><trkpt lat="42.687595" lon="-8.3768833"><ele>511.0</ele><time>2026-04-16T07:37:15.838Z</time></trkpt><trkpt lat="42.6876433" lon="-8.37702"><ele>511.0</ele><time>2026-04-16T07:37:17.837Z</time></trkpt><trkpt lat="42.6875717" lon="-8.37718"><ele>511.0</ele><time>2026-04-16T07:37:19.838Z</time></trkpt><trkpt lat="42.6874783" lon="-8.3772633"><ele>511.0</ele><time>2026-04-16T07:37:20.837Z</time></trkpt><trkpt lat="42.6873683" lon="-8.377355"><ele>508.25</ele><time>2026-04-16T07:37:21.837Z</time></trkpt><trkpt lat="42.68724" lon="-8.3774717"><ele>505.5</ele><time>2026-04-16T07:37:22.837Z</time></trkpt><trkpt lat="42.6871517" lon="-8.3776133"><ele>502.75</ele><time>2026-04-16T07:37:23.837Z</time></trkpt><trkpt lat="42.6870833" lon="-8.377775"><ele>500.0</ele><time>2026-04-16T07:37:24.837Z</time></trkpt><trkpt lat="42.6870317" lon="-8.3779317"><ele>499.6</ele><time>2026-04-16T07:37:25.837Z</time></trkpt><trkpt lat="42.6869733" lon="-8.3780783"><ele>499.2</ele><time>2026-04-16T07:37:26.838Z</time></trkpt><trkpt lat="42.6869167" lon="-8.3781983"><ele>498.79999999999995</ele><time>2026-04-16T07:37:27.838Z</time></trkpt><trkpt lat="42.686875" lon="-8.3783"><ele>498.4</ele><time>2026-04-16T07:37:28.837Z</time></trkpt><trkpt lat="42.6868567" lon="-8.3783967"><ele>498.0</ele><time>2026-04-16T07:37:29.838Z</time></trkpt><trkpt lat="42.68688" lon="-8.3785383"><ele>497.0</ele><time>2026-04-16T07:37:31.837Z</time></trkpt><trkpt lat="42.68694" lon="-8.37858"><ele>495.99999999999994</ele><time>2026-04-16T07:37:32.838Z</time></trkpt><trkpt lat="42.6870133" lon="-8.378625"><ele>494.99999999999994</ele><time>2026-04-16T07:37:33.837Z</time></trkpt><trkpt lat="42.687105" lon="-8.378685"><ele>494.0</ele><time>2026-04-16T07:37:34.838Z</time></trkpt><trkpt lat="42.6872017" lon="-8.37877"><ele>493.0</ele><time>2026-04-16T07:37:35.838Z</time></trkpt><trkpt lat="42.687305" lon="-8.3788667"><ele>491.2</ele><time>2026-04-16T07:37:36.837Z</time></trkpt><trkpt lat="42.6873933" lon="-8.3789533"><ele>489.4</ele><time>2026-04-16T07:37:37.838Z</time></trkpt><trkpt lat="42.68746" lon="-8.3790283"><ele>487.59999999999997</ele><time>2026-04-16T07:37:38.837Z</time></trkpt><trkpt lat="42.687515" lon="-8.3790917"><ele>485.79999999999995</ele><time>2026-04-16T07:37:39.838Z</time></trkpt><trkpt lat="42.6875817" lon="-8.379205"><ele>484.0</ele><time>2026-04-16T07:37:41.838Z</time></trkpt><trkpt lat="42.6875267" lon="-8.3793167"><ele>484.0</ele><time>2026-04-16T07:37:43.837Z</time></trkpt><trkpt lat="42.6874533" lon="-8.3793583"><ele>484.0</ele><time>2026-04-16T07:37:44.838Z</time></trkpt><trkpt lat="42.68736" lon="-8.37939"><ele>484.0</ele><time>2026-04-16T07:37:45.838Z</time></trkpt><trkpt lat="42.6872433" lon="-8.379425"><ele>484.0</ele><time>2026-04-16T07:37:46.837Z</time></trkpt><trkpt lat="42.687125" lon="-8.37947"><ele>484.0</ele><time>2026-04-16T07:37:47.837Z</time></trkpt><trkpt lat="42.6870267" lon="-8.3795133"><ele>484.0</ele><time>2026-04-16T07:37:48.837Z</time></trkpt><trkpt lat="42.686945" lon="-8.37956"><ele>484.0</ele><time>2026-04-16T07:37:49.838Z</time></trkpt><trkpt lat="42.6868717" lon="-8.3796233"><ele>484.0</ele><time>2026-04-16T07:37:50.837Z</time></trkpt><trkpt lat="42.6868267" lon="-8.3797133"><ele>484.0</ele><time>2026-04-16T07:37:51.837Z</time></trkpt><trkpt lat="42.6868083" lon="-8.3798383"><ele>484.0</ele><time>2026-04-16T07:37:52.838Z</time></trkpt><trkpt lat="42.6868067" lon="-8.38001"><ele>484.0</ele><time>2026-04-16T07:37:53.838Z</time></trkpt><trkpt lat="42.6868067" lon="-8.3802267"><ele>484.0</ele><time>2026-04-16T07:37:54.837Z</time></trkpt><trkpt lat="42.6867967" lon="-8.380415"><ele>484.0</ele><time>2026-04-16T07:37:55.837Z</time></trkpt><trkpt lat="42.6867767" lon="-8.3805833"><ele>484.0</ele><time>2026-04-16T07:37:56.838Z</time></trkpt><trkpt lat="42.6867617" lon="-8.3807467"><ele>483.5</ele><time>2026-04-16T07:37:57.838Z</time></trkpt><trkpt lat="42.6867567" lon="-8.38091"><ele>483.0</ele><time>2026-04-16T07:37:58.837Z</time></trkpt><trkpt lat="42.6867533" lon="-8.381075"><ele>482.5</ele><time>2026-04-16T07:37:59.837Z</time></trkpt><trkpt lat="42.686755" lon="-8.38125"><ele>482.0</ele><time>2026-04-16T07:38:00.837Z</time></trkpt><trkpt lat="42.6867767" lon="-8.3814267"><ele>482.0</ele><time>2026-04-16T07:38:01.837Z</time></trkpt><trkpt lat="42.6868117" lon="-8.3815933"><ele>482.0</ele><time>2026-04-16T07:38:02.837Z</time></trkpt><trkpt lat="42.68686" lon="-8.3817717"><ele>482.0</ele><time>2026-04-16T07:38:03.837Z</time></trkpt><trkpt lat="42.6869183" lon="-8.38194"><ele>482.0</ele><time>2026-04-16T07:38:04.837Z</time></trkpt><trkpt lat="42.68697" lon="-8.3821117"><ele>475.75</ele><time>2026-04-16T07:38:05.837Z</time></trkpt><trkpt lat="42.68701" lon="-8.3822783"><ele>469.5</ele><time>2026-04-16T07:38:06.838Z</time></trkpt><trkpt lat="42.687055" lon="-8.3824333"><ele>463.25</ele><time>2026-04-16T07:38:07.837Z</time></trkpt><trkpt lat="42.6870417" lon="-8.3825867"><ele>457.0</ele><time>2026-04-16T07:38:08.837Z</time></trkpt><trkpt lat="42.6870917" lon="-8.3827133"><ele>457.00000000000006</ele><time>2026-04-16T07:38:09.837Z</time></trkpt><trkpt lat="42.687135" lon="-8.382815"><ele>457.0</ele><time>2026-04-16T07:38:10.837Z</time></trkpt><trkpt lat="42.6871717" lon="-8.3828983"><ele>457.0</ele><time>2026-04-16T07:38:11.838Z</time></trkpt><trkpt lat="42.6872933" lon="-8.3829333"><ele>457.0</ele><time>2026-04-16T07:38:13.837Z</time></trkpt><trkpt lat="42.68736" lon="-8.382925"><ele>457.00000000000006</ele><time>2026-04-16T07:38:14.838Z</time></trkpt><trkpt lat="42.6874283" lon="-8.38288"><ele>457.0</ele><time>2026-04-16T07:38:15.838Z</time></trkpt><trkpt lat="42.687495" lon="-8.3828433"><ele>457.0</ele><time>2026-04-16T07:38:16.837Z</time></trkpt><trkpt lat="42.6875967" lon="-8.38283"><ele>457.00000000000006</ele><time>2026-04-16T07:38:18.838Z</time></trkpt><trkpt lat="42.6876483" lon="-8.3829467"><ele>457.00000000000006</ele><time>2026-04-16T07:38:20.837Z</time></trkpt><trkpt lat="42.687645" lon="-8.3830733"><ele>457.0</ele><time>2026-04-16T07:38:21.838Z</time></trkpt><trkpt lat="42.6876133" lon="-8.38321"><ele>457.0</ele><time>2026-04-16T07:38:22.837Z</time></trkpt><trkpt lat="42.6875517" lon="-8.3833617"><ele>456.0</ele><time>2026-04-16T07:38:23.837Z</time></trkpt><trkpt lat="42.687455" lon="-8.3835183"><ele>455.0</ele><time>2026-04-16T07:38:24.838Z</time></trkpt><trkpt lat="42.6873117" lon="-8.3836733"><ele>454.0</ele><time>2026-04-16T07:38:25.837Z</time></trkpt><trkpt lat="42.687195" lon="-8.3838183"><ele>451.75</ele><time>2026-04-16T07:38:26.838Z</time></trkpt><trkpt lat="42.6871017" lon="-8.3839583"><ele>449.5</ele><time>2026-04-16T07:38:27.838Z</time></trkpt><trkpt lat="42.6870183" lon="-8.3841317"><ele>447.25</ele><time>2026-04-16T07:38:28.838Z</time></trkpt><trkpt lat="42.6869767" lon="-8.3843167"><ele>445.0</ele><time>2026-04-16T07:38:29.838Z</time></trkpt><trkpt lat="42.6869667" lon="-8.3845167"><ele>444.25</ele><time>2026-04-16T07:38:30.837Z</time></trkpt><trkpt lat="42.6869467" lon="-8.3847083"><ele>443.5</ele><time>2026-04-16T07:38:31.838Z</time></trkpt><trkpt lat="42.6869217" lon="-8.3848717"><ele>442.75</ele><time>2026-04-16T07:38:32.837Z</time></trkpt><trkpt lat="42.6868717" lon="-8.38501"><ele>442.0</ele><time>2026-04-16T07:38:33.837Z</time></trkpt><trkpt lat="42.6868183" lon="-8.3851433"><ele>442.00000000000006</ele><time>2026-04-16T07:38:34.837Z</time></trkpt><trkpt lat="42.686755" lon="-8.3852483"><ele>442.0</ele><time>2026-04-16T07:38:35.838Z</time></trkpt><trkpt lat="42.6866933" lon="-8.3853517"><ele>442.0</ele><time>2026-04-16T07:38:36.838Z</time></trkpt><trkpt lat="42.6866567" lon="-8.385465"><ele>442.0</ele><time>2026-04-16T07:38:37.838Z</time></trkpt><trkpt lat="42.6866217" lon="-8.38557"><ele>442.00000000000006</ele><time>2026-04-16T07:38:38.838Z</time></trkpt><trkpt lat="42.6866117" lon="-8.3856717"><ele>442.0</ele><time>2026-04-16T07:38:39.837Z</time></trkpt><trkpt lat="42.6866317" lon="-8.3857717"><ele>439.50000000000006</ele><time>2026-04-16T07:38:40.837Z</time></trkpt><trkpt lat="42.686675" lon="-8.3858417"><ele>437.0</ele><time>2026-04-16T07:38:41.838Z</time></trkpt><trkpt lat="42.68673" lon="-8.3858967"><ele>434.5</ele><time>2026-04-16T07:38:42.837Z</time></trkpt><trkpt lat="42.6868133" lon="-8.385915"><ele>432.0</ele><time>2026-04-16T07:38:43.837Z</time></trkpt><trkpt lat="42.6869033" lon="-8.3859067"><ele>429.50000000000006</ele><time>2026-04-16T07:38:44.837Z</time></trkpt><trkpt lat="42.6869867" lon="-8.3858867"><ele>427.0</ele><time>2026-04-16T07:38:45.838Z</time></trkpt><trkpt lat="42.6870983" lon="-8.3858267"><ele>425.6</ele><time>2026-04-16T07:38:46.837Z</time></trkpt><trkpt lat="42.6872117" lon="-8.385775"><ele>424.20000000000005</ele><time>2026-04-16T07:38:47.837Z</time></trkpt><trkpt lat="42.687335" lon="-8.3857667"><ele>422.8</ele><time>2026-04-16T07:38:48.837Z</time></trkpt><trkpt lat="42.6874367" lon="-8.38575"><ele>421.4</ele><time>2026-04-16T07:38:49.837Z</time></trkpt><trkpt lat="42.68752" lon="-8.3857517"><ele>420.0</ele><time>2026-04-16T07:38:50.838Z</time></trkpt><trkpt lat="42.68758" lon="-8.3858017"><ele>420.0</ele><time>2026-04-16T07:38:52.837Z</time></trkpt><trkpt lat="42.6875217" lon="-8.38587"><ele>420.0</ele><time>2026-04-16T07:38:54.837Z</time></trkpt><trkpt lat="42.6874583" lon="-8.3859133"><ele>420.0</ele><time>2026-04-16T07:38:55.838Z</time></trkpt><trkpt lat="42.6873783" lon="-8.3859733"><ele>420.0</ele><time>2026-04-16T07:38:56.837Z</time></trkpt><trkpt lat="42.6872967" lon="-8.38606"><ele>420.0</ele><time>2026-04-16T07:38:57.837Z</time></trkpt><trkpt lat="42.68721" lon="-8.3861583"><ele>420.0</ele><time>2026-04-16T07:38:58.837Z</time></trkpt><trkpt lat="42.6871217" lon="-8.3862567"><ele>420.0</ele><time>2026-04-16T07:38:59.837Z</time></trkpt><trkpt lat="42.687025" lon="-8.38635"><ele>420.0</ele><time>2026-04-16T07:39:00.838Z</time></trkpt><trkpt lat="42.68693" lon="-8.3864267"><ele>420.0</ele><time>2026-04-16T07:39:01.838Z</time></trkpt><trkpt lat="42.686835" lon="-8.3864833"><ele>420.0</ele><time>2026-04-16T07:39:02.838Z</time></trkpt><trkpt lat="42.6867367" lon="-8.3865467"><ele>418.8</ele><time>2026-04-16T07:39:03.837Z</time></trkpt><trkpt lat="42.68665" lon="-8.38662"><ele>417.6</ele><time>2026-04-16T07:39:04.837Z</time></trkpt><trkpt lat="42.686565" lon="-8.386685"><ele>416.4</ele><time>2026-04-16T07:39:05.837Z</time></trkpt><trkpt lat="42.6864733" lon="-8.3867533"><ele>415.2</ele><time>2026-04-16T07:39:06.838Z</time></trkpt><trkpt lat="42.6863767" lon="-8.3867983"><ele>414.0</ele><time>2026-04-16T07:39:07.837Z</time></trkpt><trkpt lat="42.6862667" lon="-8.3868217"><ele>414.0</ele><time>2026-04-16T07:39:08.837Z</time></trkpt><trkpt lat="42.6861433" lon="-8.38686"><ele>414.0</ele><time>2026-04-16T07:39:09.838Z</time></trkpt><trkpt lat="42.6860017" lon="-8.386915"><ele>414.0</ele><time>2026-04-16T07:39:10.838Z</time></trkpt><trkpt lat="42.68587" lon="-8.386995"><ele>414.0</ele><time>2026-04-16T07:39:11.837Z</time></trkpt><trkpt lat="42.6857433" lon="-8.38708"><ele>414.5</ele><time>2026-04-16T07:39:12.837Z</time></trkpt><trkpt lat="42.6856283" lon="-8.3871383"><ele>415.0</ele><time>2026-04-16T07:39:13.837Z</time></trkpt><trkpt lat="42.6855217" lon="-8.3871783"><ele>415.5</ele><time>2026-04-16T07:39:14.837Z</time></trkpt><trkpt lat="42.6854067" lon="-8.3871883"><ele>416.0</ele><time>2026-04-16T07:39:15.837Z</time></trkpt><trkpt lat="42.68529" lon="-8.3871717"><ele>414.75</ele><time>2026-04-16T07:39:16.838Z</time></trkpt><trkpt lat="42.6851717" lon="-8.3871367"><ele>413.5</ele><time>2026-04-16T07:39:17.838Z</time></trkpt><trkpt lat="42.6850633" lon="-8.3870883"><ele>412.25</ele><time>2026-04-16T07:39:18.838Z</time></trkpt><trkpt lat="42.6849583" lon="-8.3870083"><ele>411.0</ele><time>2026-04-16T07:39:19.837Z</time></trkpt><trkpt lat="42.684855" lon="-8.3869017"><ele>411.0</ele><time>2026-04-16T07:39:20.837Z</time></trkpt><trkpt lat="42.68476" lon="-8.3867967"><ele>411.0</ele><time>2026-04-16T07:39:21.838Z</time></trkpt><trkpt lat="42.6846617" lon="-8.3867183"><ele>411.0</ele><time>2026-04-16T07:39:22.838Z</time></trkpt><trkpt lat="42.6845867" lon="-8.3866817"><ele>411.0</ele><time>2026-04-16T07:39:23.837Z</time></trkpt><trkpt lat="42.6845167" lon="-8.38669"><ele>411.0</ele><time>2026-04-16T07:39:24.838Z</time></trkpt><trkpt lat="42.6844517" lon="-8.3867183"><ele>411.0</ele><time>2026-04-16T07:39:25.838Z</time></trkpt><trkpt lat="42.6844033" lon="-8.38679"><ele>411.0</ele><time>2026-04-16T07:39:26.838Z</time></trkpt><trkpt lat="42.6843667" lon="-8.3868883"><ele>411.0</ele><time>2026-04-16T07:39:27.838Z</time></trkpt><trkpt lat="42.6843267" lon="-8.3870267"><ele>411.0</ele><time>2026-04-16T07:39:28.837Z</time></trkpt><trkpt lat="42.68428" lon="-8.3872017"><ele>411.0</ele><time>2026-04-16T07:39:29.838Z</time></trkpt><trkpt lat="42.6842517" lon="-8.38741"><ele>411.0</ele><time>2026-04-16T07:39:30.837Z</time></trkpt><trkpt lat="42.6842333" lon="-8.3876167"><ele>411.0</ele><time>2026-04-16T07:39:31.838Z</time></trkpt><trkpt lat="42.6842167" lon="-8.3878017"><ele>411.0</ele><time>2026-04-16T07:39:32.838Z</time></trkpt><trkpt lat="42.68421" lon="-8.387975"><ele>411.0</ele><time>2026-04-16T07:39:33.838Z</time></trkpt><trkpt lat="42.6841933" lon="-8.3881333"><ele>410.20000000000005</ele><time>2026-04-16T07:39:34.837Z</time></trkpt><trkpt lat="42.6841683" lon="-8.38829"><ele>409.40000000000003</ele><time>2026-04-16T07:39:35.837Z</time></trkpt><trkpt lat="42.6841333" lon="-8.3884283"><ele>408.6</ele><time>2026-04-16T07:39:36.838Z</time></trkpt><trkpt lat="42.6840933" lon="-8.3885667"><ele>407.8</ele><time>2026-04-16T07:39:37.837Z</time></trkpt><trkpt lat="42.68406" lon="-8.3887133"><ele>407.0</ele><time>2026-04-16T07:39:38.837Z</time></trkpt><trkpt lat="42.6840283" lon="-8.3888617"><ele>406.20000000000005</ele><time>2026-04-16T07:39:39.838Z</time></trkpt><trkpt lat="42.684" lon="-8.38901"><ele>405.4</ele><time>2026-04-16T07:39:40.837Z</time></trkpt><trkpt lat="42.6839683" lon="-8.38915"><ele>404.6</ele><time>2026-04-16T07:39:41.837Z</time></trkpt><trkpt lat="42.6839583" lon="-8.38928"><ele>403.79999999999995</ele><time>2026-04-16T07:39:42.838Z</time></trkpt><trkpt lat="42.68393" lon="-8.3893933"><ele>403.0</ele><time>2026-04-16T07:39:43.837Z</time></trkpt><trkpt lat="42.6839133" lon="-8.38949"><ele>403.0</ele><time>2026-04-16T07:39:44.838Z</time></trkpt><trkpt lat="42.6838967" lon="-8.3896083"><ele>403.0</ele><time>2026-04-16T07:39:46.838Z</time></trkpt><trkpt lat="42.6838417" lon="-8.3896633"><ele>403.0</ele><time>2026-04-16T07:39:49.838Z</time></trkpt><trkpt lat="42.6838483" lon="-8.38953"><ele>403.0</ele><time>2026-04-16T07:39:52.837Z</time></trkpt><trkpt lat="42.683865" lon="-8.3893483"><ele>403.0</ele><time>2026-04-16T07:39:54.838Z</time></trkpt><trkpt lat="42.68387" lon="-8.38919"><ele>403.0</ele><time>2026-04-16T07:39:55.837Z</time></trkpt><trkpt lat="42.6838967" lon="-8.3890067"><ele>403.0</ele><time>2026-04-16T07:39:56.838Z</time></trkpt><trkpt lat="42.683935" lon="-8.38882"><ele>403.0</ele><time>2026-04-16T07:39:57.837Z</time></trkpt><trkpt lat="42.6839883" lon="-8.3886433"><ele>403.0</ele><time>2026-04-16T07:39:58.838Z</time></trkpt><trkpt lat="42.6840433" lon="-8.3885233"><ele>403.6666666666667</ele><time>2026-04-16T07:39:59.837Z</time></trkpt><trkpt lat="42.6840867" lon="-8.3884417"><ele>404.33333333333337</ele><time>2026-04-16T07:40:00.837Z</time></trkpt><trkpt lat="42.6841317" lon="-8.3883717"><ele>405.0</ele><time>2026-04-16T07:40:01.837Z</time></trkpt><trkpt lat="42.6841833" lon="-8.388295"><ele>405.66666666666663</ele><time>2026-04-16T07:40:03.837Z</time></trkpt><trkpt lat="42.684245" lon="-8.3882683"><ele>406.3333333333333</ele><time>2026-04-16T07:40:06.837Z</time></trkpt><trkpt lat="42.6842317" lon="-8.388425"><ele>407.0</ele><time>2026-04-16T07:40:42.837Z</time></trkpt><trkpt lat="42.6842233" lon="-8.3885433"><ele>407.0</ele><time>2026-04-16T07:40:43.838Z</time></trkpt><trkpt lat="42.6842117" lon="-8.3886883"><ele>407.0</ele><time>2026-04-16T07:40:44.838Z</time></trkpt><trkpt lat="42.684205" lon="-8.388875"><ele>407.0</ele><time>2026-04-16T07:40:45.837Z</time></trkpt><trkpt lat="42.6842067" lon="-8.3890733"><ele>407.0</ele><time>2026-04-16T07:40:46.838Z</time></trkpt><trkpt lat="42.6842233" lon="-8.3892783"><ele>405.66666666666663</ele><time>2026-04-16T07:40:47.838Z</time></trkpt><trkpt lat="42.6842183" lon="-8.3894883"><ele>404.33333333333337</ele><time>2026-04-16T07:40:48.837Z</time></trkpt><trkpt lat="42.6842217" lon="-8.3897233"><ele>403.0</ele><time>2026-04-16T07:40:49.837Z</time></trkpt><trkpt lat="42.6842167" lon="-8.3899367"><ele>402.0</ele><time>2026-04-16T07:40:50.838Z</time></trkpt><trkpt lat="42.68421" lon="-8.390145"><ele>401.0</ele><time>2026-04-16T07:40:51.838Z</time></trkpt><trkpt lat="42.6841933" lon="-8.39034"><ele>400.0</ele><time>2026-04-16T07:40:52.837Z</time></trkpt><trkpt lat="42.6841767" lon="-8.3905267"><ele>399.0</ele><time>2026-04-16T07:40:53.837Z</time></trkpt><trkpt lat="42.684145" lon="-8.390705"><ele>398.25</ele><time>2026-04-16T07:40:54.838Z</time></trkpt><trkpt lat="42.6841083" lon="-8.39088"><ele>397.5</ele><time>2026-04-16T07:40:55.838Z</time></trkpt><trkpt lat="42.684065" lon="-8.39105"><ele>396.75</ele><time>2026-04-16T07:40:56.838Z</time></trkpt><trkpt lat="42.684005" lon="-8.3912167"><ele>396.0</ele><time>2026-04-16T07:40:57.838Z</time></trkpt><trkpt lat="42.6839433" lon="-8.391385"><ele>393.75</ele><time>2026-04-16T07:40:58.838Z</time></trkpt><trkpt lat="42.6838733" lon="-8.3915583"><ele>391.5</ele><time>2026-04-16T07:40:59.838Z</time></trkpt><trkpt lat="42.6837983" lon="-8.3917283"><ele>389.25</ele><time>2026-04-16T07:41:00.838Z</time></trkpt><trkpt lat="42.6837167" lon="-8.3919033"><ele>387.0</ele><time>2026-04-16T07:41:01.837Z</time></trkpt><trkpt lat="42.6836367" lon="-8.39207"><ele>389.25</ele><time>2026-04-16T07:41:02.838Z</time></trkpt><trkpt lat="42.6835617" lon="-8.392225"><ele>391.5</ele><time>2026-04-16T07:41:03.837Z</time></trkpt><trkpt lat="42.6834833" lon="-8.3923583"><ele>393.75</ele><time>2026-04-16T07:41:04.838Z</time></trkpt><trkpt lat="42.683395" lon="-8.3924833"><ele>396.0</ele><time>2026-04-16T07:41:05.837Z</time></trkpt><trkpt lat="42.683305" lon="-8.392605"><ele>396.0</ele><time>2026-04-16T07:41:06.837Z</time></trkpt><trkpt lat="42.6832083" lon="-8.39272"><ele>396.0</ele><time>2026-04-16T07:41:07.838Z</time></trkpt><trkpt lat="42.6831017" lon="-8.3928267"><ele>396.0</ele><time>2026-04-16T07:41:08.838Z</time></trkpt><trkpt lat="42.682985" lon="-8.3929133"><ele>396.0</ele><time>2026-04-16T07:41:09.838Z</time></trkpt><trkpt lat="42.6828633" lon="-8.3929967"><ele>394.25</ele><time>2026-04-16T07:41:10.837Z</time></trkpt><trkpt lat="42.6827333" lon="-8.393065"><ele>392.5</ele><time>2026-04-16T07:41:11.838Z</time></trkpt><trkpt lat="42.6825967" lon="-8.3931283"><ele>390.75</ele><time>2026-04-16T07:41:12.838Z</time></trkpt><trkpt lat="42.6824717" lon="-8.39316"><ele>389.0</ele><time>2026-04-16T07:41:13.838Z</time></trkpt><trkpt lat="42.6823417" lon="-8.3931867"><ele>389.0</ele><time>2026-04-16T07:41:14.837Z</time></trkpt><trkpt lat="42.6821933" lon="-8.393215"><ele>389.0</ele><time>2026-04-16T07:41:15.837Z</time></trkpt><trkpt lat="42.6820517" lon="-8.39322"><ele>389.0</ele><time>2026-04-16T07:41:16.838Z</time></trkpt><trkpt lat="42.6819083" lon="-8.3931983"><ele>389.0</ele><time>2026-04-16T07:41:17.837Z</time></trkpt><trkpt lat="42.6817617" lon="-8.3931567"><ele>388.25</ele><time>2026-04-16T07:41:18.837Z</time></trkpt><trkpt lat="42.6816383" lon="-8.39308"><ele>387.5</ele><time>2026-04-16T07:41:19.837Z</time></trkpt><trkpt lat="42.6815233" lon="-8.3929667"><ele>386.75</ele><time>2026-04-16T07:41:20.838Z</time></trkpt><trkpt lat="42.6814067" lon="-8.3928567"><ele>386.0</ele><time>2026-04-16T07:41:21.837Z</time></trkpt><trkpt lat="42.6812933" lon="-8.3927567"><ele>387.20000000000005</ele><time>2026-04-16T07:41:22.837Z</time></trkpt><trkpt lat="42.6811867" lon="-8.3926717"><ele>388.40000000000003</ele><time>2026-04-16T07:41:23.837Z</time></trkpt><trkpt lat="42.6810817" lon="-8.3926033"><ele>389.6</ele><time>2026-04-16T07:41:24.838Z</time></trkpt><trkpt lat="42.68099" lon="-8.392545"><ele>390.8</ele><time>2026-04-16T07:41:25.838Z</time></trkpt><trkpt lat="42.6809167" lon="-8.3924817"><ele>392.0</ele><time>2026-04-16T07:41:26.837Z</time></trkpt><trkpt lat="42.6808583" lon="-8.392395"><ele>392.0</ele><time>2026-04-16T07:41:27.838Z</time></trkpt><trkpt lat="42.6808067" lon="-8.392275"><ele>392.0</ele><time>2026-04-16T07:41:28.837Z</time></trkpt><trkpt lat="42.6807483" lon="-8.392145"><ele>392.0</ele><time>2026-04-16T07:41:29.837Z</time></trkpt><trkpt lat="42.680665" lon="-8.3920217"><ele>392.0</ele><time>2026-04-16T07:41:30.838Z</time></trkpt><trkpt lat="42.6805917" lon="-8.3918683"><ele>396.25</ele><time>2026-04-16T07:41:31.838Z</time></trkpt><trkpt lat="42.6805167" lon="-8.3917067"><ele>400.5</ele><time>2026-04-16T07:41:32.838Z</time></trkpt><trkpt lat="42.68044" lon="-8.3915317"><ele>404.75</ele><time>2026-04-16T07:41:33.838Z</time></trkpt><trkpt lat="42.68036" lon="-8.391375"><ele>409.0</ele><time>2026-04-16T07:41:34.838Z</time></trkpt><trkpt lat="42.6802717" lon="-8.3912033"><ele>405.5</ele><time>2026-04-16T07:41:35.837Z</time></trkpt><trkpt lat="42.68017" lon="-8.3910533"><ele>402.0</ele><time>2026-04-16T07:41:36.838Z</time></trkpt><trkpt lat="42.680065" lon="-8.3909167"><ele>398.5</ele><time>2026-04-16T07:41:37.838Z</time></trkpt><trkpt lat="42.67995" lon="-8.3908033"><ele>395.0</ele><time>2026-04-16T07:41:38.837Z</time></trkpt><trkpt lat="42.6798217" lon="-8.3907083"><ele>395.0</ele><time>2026-04-16T07:41:39.837Z</time></trkpt><trkpt lat="42.6796933" lon="-8.390625"><ele>395.0</ele><time>2026-04-16T07:41:40.838Z</time></trkpt><trkpt lat="42.6795583" lon="-8.3905917"><ele>395.0</ele><time>2026-04-16T07:41:41.837Z</time></trkpt><trkpt lat="42.6794167" lon="-8.3905567"><ele>395.0</ele><time>2026-04-16T07:41:42.838Z</time></trkpt><trkpt lat="42.6792767" lon="-8.390515"><ele>398.0</ele><time>2026-04-16T07:41:43.837Z</time></trkpt><trkpt lat="42.6791383" lon="-8.3904833"><ele>401.0</ele><time>2026-04-16T07:41:44.838Z</time></trkpt><trkpt lat="42.679005" lon="-8.390455"><ele>404.0</ele><time>2026-04-16T07:41:45.838Z</time></trkpt><trkpt lat="42.6788617" lon="-8.3904233"><ele>407.0</ele><time>2026-04-16T07:41:46.838Z</time></trkpt><trkpt lat="42.6787133" lon="-8.3903817"><ele>406.66666666666663</ele><time>2026-04-16T07:41:47.837Z</time></trkpt><trkpt lat="42.6785517" lon="-8.3903333"><ele>406.33333333333337</ele><time>2026-04-16T07:41:48.838Z</time></trkpt><trkpt lat="42.6783933" lon="-8.39029"><ele>406.0</ele><time>2026-04-16T07:41:49.838Z</time></trkpt><trkpt lat="42.67824" lon="-8.390245"><ele>406.0</ele><time>2026-04-16T07:41:50.837Z</time></trkpt><trkpt lat="42.678085" lon="-8.390205"><ele>406.0</ele><time>2026-04-16T07:41:51.837Z</time></trkpt><trkpt lat="42.6779283" lon="-8.3901683"><ele>406.0</ele><time>2026-04-16T07:41:52.837Z</time></trkpt><trkpt lat="42.6777683" lon="-8.3901383"><ele>404.0</ele><time>2026-04-16T07:41:53.838Z</time></trkpt><trkpt lat="42.67761" lon="-8.39009"><ele>402.0</ele><time>2026-04-16T07:41:54.837Z</time></trkpt><trkpt lat="42.6774533" lon="-8.3900433"><ele>400.0</ele><time>2026-04-16T07:41:55.838Z</time></trkpt><trkpt lat="42.6773" lon="-8.389975"><ele>400.0</ele><time>2026-04-16T07:41:56.837Z</time></trkpt><trkpt lat="42.6771467" lon="-8.3899283"><ele>400.0</ele><time>2026-04-16T07:41:57.837Z</time></trkpt><trkpt lat="42.6770117" lon="-8.3898767"><ele>400.0</ele><time>2026-04-16T07:41:58.837Z</time></trkpt><trkpt lat="42.6768767" lon="-8.3898267"><ele>400.0</ele><time>2026-04-16T07:41:59.838Z</time></trkpt><trkpt lat="42.6767333" lon="-8.3897867"><ele>399.75</ele><time>2026-04-16T07:42:00.838Z</time></trkpt><trkpt lat="42.676595" lon="-8.389765"><ele>399.5</ele><time>2026-04-16T07:42:01.838Z</time></trkpt><trkpt lat="42.6764683" lon="-8.3897533"><ele>399.25</ele><time>2026-04-16T07:42:02.837Z</time></trkpt><trkpt lat="42.676345" lon="-8.3897433"><ele>399.0</ele><time>2026-04-16T07:42:03.838Z</time></trkpt><trkpt lat="42.676225" lon="-8.3897383"><ele>399.0</ele><time>2026-04-16T07:42:04.838Z</time></trkpt><trkpt lat="42.6761133" lon="-8.3897433"><ele>399.0</ele><time>2026-04-16T07:42:05.838Z</time></trkpt><trkpt lat="42.6760067" lon="-8.3897767"><ele>399.0</ele><time>2026-04-16T07:42:06.837Z</time></trkpt><trkpt lat="42.675905" lon="-8.38981"><ele>399.0</ele><time>2026-04-16T07:42:07.837Z</time></trkpt><trkpt lat="42.67581" lon="-8.389885"><ele>399.0</ele><time>2026-04-16T07:42:08.838Z</time></trkpt><trkpt lat="42.675735" lon="-8.38999"><ele>400.0</ele><time>2026-04-16T07:42:09.837Z</time></trkpt><trkpt lat="42.6756667" lon="-8.390125"><ele>401.0</ele><time>2026-04-16T07:42:10.838Z</time></trkpt><trkpt lat="42.6755967" lon="-8.390275"><ele>402.0</ele><time>2026-04-16T07:42:11.838Z</time></trkpt><trkpt lat="42.67552" lon="-8.3904317"><ele>403.0</ele><time>2026-04-16T07:42:12.838Z</time></trkpt><trkpt lat="42.6754433" lon="-8.3905933"><ele>404.5</ele><time>2026-04-16T07:42:13.838Z</time></trkpt><trkpt lat="42.6753683" lon="-8.390755"><ele>406.0</ele><time>2026-04-16T07:42:14.838Z</time></trkpt><trkpt lat="42.67528" lon="-8.3908933"><ele>407.5</ele><time>2026-04-16T07:42:15.838Z</time></trkpt><trkpt lat="42.6751933" lon="-8.3909983"><ele>409.0</ele><time>2026-04-16T07:42:16.837Z</time></trkpt><trkpt lat="42.6750867" lon="-8.3910617"><ele>409.0</ele><time>2026-04-16T07:42:17.837Z</time></trkpt><trkpt lat="42.6749683" lon="-8.391095"><ele>409.0</ele><time>2026-04-16T07:42:18.838Z</time></trkpt><trkpt lat="42.67484" lon="-8.3911017"><ele>409.0</ele><time>2026-04-16T07:42:19.837Z</time></trkpt><trkpt lat="42.674715" lon="-8.3910917"><ele>409.0</ele><time>2026-04-16T07:42:20.838Z</time></trkpt><trkpt lat="42.6745767" lon="-8.391095"><ele>409.0</ele><time>2026-04-16T07:42:21.837Z</time></trkpt><trkpt lat="42.6744383" lon="-8.3911183"><ele>409.0</ele><time>2026-04-16T07:42:22.837Z</time></trkpt><trkpt lat="42.674295" lon="-8.39117"><ele>409.0</ele><time>2026-04-16T07:42:23.838Z</time></trkpt><trkpt lat="42.6741617" lon="-8.3912233"><ele>409.0</ele><time>2026-04-16T07:42:24.838Z</time></trkpt><trkpt lat="42.6740367" lon="-8.3912583"><ele>411.75</ele><time>2026-04-16T07:42:25.837Z</time></trkpt><trkpt lat="42.6739217" lon="-8.391265"><ele>414.5</ele><time>2026-04-16T07:42:26.838Z</time></trkpt><trkpt lat="42.6738133" lon="-8.3912383"><ele>417.25</ele><time>2026-04-16T07:42:27.838Z</time></trkpt><trkpt lat="42.673695" lon="-8.3911783"><ele>420.0</ele><time>2026-04-16T07:42:28.838Z</time></trkpt><trkpt lat="42.67356" lon="-8.39111"><ele>422.0</ele><time>2026-04-16T07:42:29.837Z</time></trkpt><trkpt lat="42.6734183" lon="-8.3910617"><ele>424.0</ele><time>2026-04-16T07:42:30.838Z</time></trkpt><trkpt lat="42.673295" lon="-8.3910317"><ele>426.0</ele><time>2026-04-16T07:42:31.839Z</time></trkpt><trkpt lat="42.673165" lon="-8.3910333"><ele>428.0</ele><time>2026-04-16T07:42:32.839Z</time></trkpt><trkpt lat="42.673035" lon="-8.3910617"><ele>428.0</ele><time>2026-04-16T07:42:33.838Z</time></trkpt><trkpt lat="42.6729383" lon="-8.39112"><ele>427.99999999999994</ele><time>2026-04-16T07:42:34.839Z</time></trkpt><trkpt lat="42.672865" lon="-8.3912033"><ele>427.99999999999994</ele><time>2026-04-16T07:42:35.839Z</time></trkpt><trkpt lat="42.6727883" lon="-8.39131"><ele>428.0</ele><time>2026-04-16T07:42:36.838Z</time></trkpt><trkpt lat="42.6727317" lon="-8.391455"><ele>428.0</ele><time>2026-04-16T07:42:37.839Z</time></trkpt><trkpt lat="42.67269" lon="-8.39162"><ele>428.75</ele><time>2026-04-16T07:42:38.838Z</time></trkpt><trkpt lat="42.6726783" lon="-8.3917917"><ele>429.5</ele><time>2026-04-16T07:42:39.838Z</time></trkpt><trkpt lat="42.672735" lon="-8.391955"><ele>430.25</ele><time>2026-04-16T07:42:40.838Z</time></trkpt><trkpt lat="42.67282" lon="-8.3920867"><ele>431.0</ele><time>2026-04-16T07:42:41.838Z</time></trkpt><trkpt lat="42.6729367" lon="-8.3921983"><ele>431.0</ele><time>2026-04-16T07:42:42.838Z</time></trkpt><trkpt lat="42.6730733" lon="-8.392325"><ele>431.0</ele><time>2026-04-16T07:42:43.838Z</time></trkpt><trkpt lat="42.67321" lon="-8.3924833"><ele>431.0</ele><time>2026-04-16T07:42:44.839Z</time></trkpt><trkpt lat="42.6733617" lon="-8.3926217"><ele>431.0</ele><time>2026-04-16T07:42:45.838Z</time></trkpt><trkpt lat="42.67351" lon="-8.3927017"><ele>431.0</ele><time>2026-04-16T07:42:46.839Z</time></trkpt><trkpt lat="42.6736167" lon="-8.3927883"><ele>431.0</ele><time>2026-04-16T07:42:47.838Z</time></trkpt><trkpt lat="42.6737" lon="-8.3928867"><ele>431.0</ele><time>2026-04-16T07:42:48.838Z</time></trkpt><trkpt lat="42.67377" lon="-8.39301"><ele>429.0</ele><time>2026-04-16T07:42:49.839Z</time></trkpt><trkpt lat="42.67382" lon="-8.3931483"><ele>427.0</ele><time>2026-04-16T07:42:50.839Z</time></trkpt><trkpt lat="42.6738617" lon="-8.3932967"><ele>425.0</ele><time>2026-04-16T07:42:51.838Z</time></trkpt><trkpt lat="42.6738767" lon="-8.3934483"><ele>423.0</ele><time>2026-04-16T07:42:52.839Z</time></trkpt><trkpt lat="42.6738683" lon="-8.3935867"><ele>421.0</ele><time>2026-04-16T07:42:53.839Z</time></trkpt><trkpt lat="42.6738183" lon="-8.393735"><ele>421.6666666666667</ele><time>2026-04-16T07:42:54.838Z</time></trkpt><trkpt lat="42.6737383" lon="-8.3938983"><ele>422.33333333333337</ele><time>2026-04-16T07:42:55.839Z</time></trkpt><trkpt lat="42.6736483" lon="-8.3940717"><ele>423.0</ele><time>2026-04-16T07:42:56.838Z</time></trkpt><trkpt lat="42.67354" lon="-8.3942567"><ele>423.0</ele><time>2026-04-16T07:42:57.838Z</time></trkpt><trkpt lat="42.67342" lon="-8.394455"><ele>423.0</ele><time>2026-04-16T07:42:58.838Z</time></trkpt><trkpt lat="42.6733033" lon="-8.3946567"><ele>423.0</ele><time>2026-04-16T07:42:59.839Z</time></trkpt><trkpt lat="42.673185" lon="-8.3948767"><ele>418.66666666666663</ele><time>2026-04-16T07:43:00.839Z</time></trkpt><trkpt lat="42.67306" lon="-8.39511"><ele>414.3333333333333</ele><time>2026-04-16T07:43:01.839Z</time></trkpt><trkpt lat="42.6729383" lon="-8.3953283"><ele>410.0</ele><time>2026-04-16T07:43:02.839Z</time></trkpt><trkpt lat="42.6728417" lon="-8.3955217"><ele>412.2</ele><time>2026-04-16T07:43:03.839Z</time></trkpt><trkpt lat="42.672765" lon="-8.3956783"><ele>414.4</ele><time>2026-04-16T07:43:04.839Z</time></trkpt><trkpt lat="42.672705" lon="-8.3957833"><ele>416.6</ele><time>2026-04-16T07:43:05.839Z</time></trkpt><trkpt lat="42.6726667" lon="-8.3958683"><ele>418.8</ele><time>2026-04-16T07:43:06.839Z</time></trkpt><trkpt lat="42.6726733" lon="-8.3960017"><ele>421.0</ele><time>2026-04-16T07:43:08.839Z</time></trkpt><trkpt lat="42.672715" lon="-8.3960683"><ele>418.0</ele><time>2026-04-16T07:43:09.838Z</time></trkpt><trkpt lat="42.6727817" lon="-8.3961383"><ele>415.0</ele><time>2026-04-16T07:43:10.838Z</time></trkpt><trkpt lat="42.672865" lon="-8.3962033"><ele>412.0</ele><time>2026-04-16T07:43:11.839Z</time></trkpt><trkpt lat="42.6729717" lon="-8.39625"><ele>409.0</ele><time>2026-04-16T07:43:12.838Z</time></trkpt><trkpt lat="42.6730983" lon="-8.39629"><ele>406.0</ele><time>2026-04-16T07:43:13.839Z</time></trkpt><trkpt lat="42.6732183" lon="-8.3963367"><ele>406.0</ele><time>2026-04-16T07:43:14.839Z</time></trkpt><trkpt lat="42.6733367" lon="-8.3963967"><ele>406.0</ele><time>2026-04-16T07:43:15.839Z</time></trkpt><trkpt lat="42.67346" lon="-8.3964717"><ele>406.0</ele><time>2026-04-16T07:43:16.838Z</time></trkpt><trkpt lat="42.6735833" lon="-8.3965633"><ele>406.0</ele><time>2026-04-16T07:43:17.839Z</time></trkpt><trkpt lat="42.6737067" lon="-8.396645"><ele>403.75</ele><time>2026-04-16T07:43:18.839Z</time></trkpt><trkpt lat="42.6738333" lon="-8.396725"><ele>401.5</ele><time>2026-04-16T07:43:19.839Z</time></trkpt><trkpt lat="42.6739583" lon="-8.3968033"><ele>399.25</ele><time>2026-04-16T07:43:20.838Z</time></trkpt><trkpt lat="42.6740833" lon="-8.39687"><ele>397.0</ele><time>2026-04-16T07:43:21.839Z</time></trkpt><trkpt lat="42.6742083" lon="-8.3969367"><ele>397.0</ele><time>2026-04-16T07:43:22.838Z</time></trkpt><trkpt lat="42.674315" lon="-8.3969967"><ele>397.0</ele><time>2026-04-16T07:43:23.838Z</time></trkpt><trkpt lat="42.67442" lon="-8.3970633"><ele>397.0</ele><time>2026-04-16T07:43:24.839Z</time></trkpt><trkpt lat="42.6745217" lon="-8.3971317"><ele>397.0</ele><time>2026-04-16T07:43:25.838Z</time></trkpt><trkpt lat="42.6746217" lon="-8.397195"><ele>395.40000000000003</ele><time>2026-04-16T07:43:26.838Z</time></trkpt><trkpt lat="42.6747217" lon="-8.3972583"><ele>393.8</ele><time>2026-04-16T07:43:27.838Z</time></trkpt><trkpt lat="42.67482" lon="-8.39731"><ele>392.2</ele><time>2026-04-16T07:43:28.839Z</time></trkpt><trkpt lat="42.6749167" lon="-8.397365"><ele>390.6</ele><time>2026-04-16T07:43:29.838Z</time></trkpt><trkpt lat="42.6749983" lon="-8.3974317"><ele>389.0</ele><time>2026-04-16T07:43:30.838Z</time></trkpt><trkpt lat="42.675075" lon="-8.397505"><ele>388.99999999999994</ele><time>2026-04-16T07:43:31.838Z</time></trkpt><trkpt lat="42.67514" lon="-8.3975783"><ele>389.0</ele><time>2026-04-16T07:43:32.839Z</time></trkpt><trkpt lat="42.6751883" lon="-8.3976517"><ele>389.0</ele><time>2026-04-16T07:43:33.839Z</time></trkpt><trkpt lat="42.675245" lon="-8.3977867"><ele>389.0</ele><time>2026-04-16T07:43:35.839Z</time></trkpt><trkpt lat="42.67527" lon="-8.3979067"><ele>388.99999999999994</ele><time>2026-04-16T07:43:37.839Z</time></trkpt><trkpt lat="42.6752883" lon="-8.3980117"><ele>389.0</ele><time>2026-04-16T07:43:40.838Z</time></trkpt><trkpt lat="42.6752233" lon="-8.3979167"><ele>388.99999999999994</ele><time>2026-04-16T07:43:44.838Z</time></trkpt><trkpt lat="42.6752" lon="-8.3978267"><ele>389.0</ele><time>2026-04-16T07:43:45.839Z</time></trkpt><trkpt lat="42.6751733" lon="-8.3977283"><ele>389.0</ele><time>2026-04-16T07:43:46.838Z</time></trkpt><trkpt lat="42.6751267" lon="-8.39763"><ele>389.0</ele><time>2026-04-16T07:43:47.839Z</time></trkpt><trkpt lat="42.6750617" lon="-8.39755"><ele>388.99999999999994</ele><time>2026-04-16T07:43:48.838Z</time></trkpt><trkpt lat="42.675005" lon="-8.3974783"><ele>389.0</ele><time>2026-04-16T07:43:49.838Z</time></trkpt><trkpt lat="42.6749433" lon="-8.3974367"><ele>389.0</ele><time>2026-04-16T07:43:50.839Z</time></trkpt><trkpt lat="42.674825" lon="-8.3974417"><ele>389.0</ele><time>2026-04-16T07:43:52.838Z</time></trkpt><trkpt lat="42.674765" lon="-8.3974833"><ele>389.0</ele><time>2026-04-16T07:43:53.839Z</time></trkpt><trkpt lat="42.6746967" lon="-8.3975617"><ele>389.0</ele><time>2026-04-16T07:43:54.838Z</time></trkpt><trkpt lat="42.6746233" lon="-8.3976633"><ele>389.0</ele><time>2026-04-16T07:43:55.838Z</time></trkpt><trkpt lat="42.6745433" lon="-8.3977667"><ele>389.0</ele><time>2026-04-16T07:43:56.839Z</time></trkpt><trkpt lat="42.6744633" lon="-8.3978567"><ele>389.0</ele><time>2026-04-16T07:43:57.838Z</time></trkpt><trkpt lat="42.6743783" lon="-8.39792"><ele>389.0</ele><time>2026-04-16T07:43:58.839Z</time></trkpt><trkpt lat="42.6742917" lon="-8.397955"><ele>389.0</ele><time>2026-04-16T07:43:59.838Z</time></trkpt><trkpt lat="42.6742167" lon="-8.3979467"><ele>389.0</ele><time>2026-04-16T07:44:00.838Z</time></trkpt><trkpt lat="42.6741217" lon="-8.397915"><ele>390.75</ele><time>2026-04-16T07:44:01.839Z</time></trkpt><trkpt lat="42.6740083" lon="-8.3978617"><ele>392.5</ele><time>2026-04-16T07:44:02.838Z</time></trkpt><trkpt lat="42.67388" lon="-8.3978083"><ele>394.25</ele><time>2026-04-16T07:44:03.839Z</time></trkpt><trkpt lat="42.6737533" lon="-8.39776"><ele>396.0</ele><time>2026-04-16T07:44:04.839Z</time></trkpt><trkpt lat="42.6736417" lon="-8.3977233"><ele>397.0</ele><time>2026-04-16T07:44:05.839Z</time></trkpt><trkpt lat="42.673525" lon="-8.3976733"><ele>398.0</ele><time>2026-04-16T07:44:06.839Z</time></trkpt><trkpt lat="42.6734083" lon="-8.3976317"><ele>399.0</ele><time>2026-04-16T07:44:07.838Z</time></trkpt><trkpt lat="42.6732817" lon="-8.39758"><ele>400.0</ele><time>2026-04-16T07:44:08.838Z</time></trkpt><trkpt lat="42.6731667" lon="-8.397535"><ele>400.0</ele><time>2026-04-16T07:44:09.838Z</time></trkpt><trkpt lat="42.6730467" lon="-8.3974933"><ele>400.0</ele><time>2026-04-16T07:44:10.839Z</time></trkpt><trkpt lat="42.67292" lon="-8.3974617"><ele>400.0</ele><time>2026-04-16T07:44:11.839Z</time></trkpt><trkpt lat="42.6727967" lon="-8.3974433"><ele>400.0</ele><time>2026-04-16T07:44:12.838Z</time></trkpt><trkpt lat="42.672675" lon="-8.39744"><ele>400.2</ele><time>2026-04-16T07:44:13.839Z</time></trkpt><trkpt lat="42.6725633" lon="-8.3974667"><ele>400.4</ele><time>2026-04-16T07:44:14.839Z</time></trkpt><trkpt lat="42.67246" lon="-8.39752"><ele>400.6</ele><time>2026-04-16T07:44:15.839Z</time></trkpt><trkpt lat="42.6723633" lon="-8.397585"><ele>400.8</ele><time>2026-04-16T07:44:16.839Z</time></trkpt><trkpt lat="42.67227" lon="-8.39767"><ele>401.0</ele><time>2026-04-16T07:44:17.839Z</time></trkpt><trkpt lat="42.6721683" lon="-8.39776"><ele>401.0</ele><time>2026-04-16T07:44:18.839Z</time></trkpt><trkpt lat="42.672075" lon="-8.3978483"><ele>401.0</ele><time>2026-04-16T07:44:19.839Z</time></trkpt><trkpt lat="42.6719883" lon="-8.3979317"><ele>401.0</ele><time>2026-04-16T07:44:20.839Z</time></trkpt><trkpt lat="42.6719" lon="-8.39802"><ele>401.0</ele><time>2026-04-16T07:44:21.838Z</time></trkpt><trkpt lat="42.6718033" lon="-8.398105"><ele>401.0</ele><time>2026-04-16T07:44:22.838Z</time></trkpt><trkpt lat="42.671695" lon="-8.3981917"><ele>400.0</ele><time>2026-04-16T07:44:23.839Z</time></trkpt><trkpt lat="42.6715967" lon="-8.3982817"><ele>399.0</ele><time>2026-04-16T07:44:24.838Z</time></trkpt><trkpt lat="42.6714917" lon="-8.3983617"><ele>398.0</ele><time>2026-04-16T07:44:25.839Z</time></trkpt><trkpt lat="42.6713967" lon="-8.3984383"><ele>397.0</ele><time>2026-04-16T07:44:26.839Z</time></trkpt><trkpt lat="42.671295" lon="-8.3985283"><ele>397.0</ele><time>2026-04-16T07:44:27.838Z</time></trkpt><trkpt lat="42.6712017" lon="-8.39862"><ele>397.0</ele><time>2026-04-16T07:44:28.838Z</time></trkpt><trkpt lat="42.6711117" lon="-8.3987133"><ele>397.0</ele><time>2026-04-16T07:44:29.838Z</time></trkpt><trkpt lat="42.6710283" lon="-8.3987967"><ele>397.0</ele><time>2026-04-16T07:44:30.838Z</time></trkpt><trkpt lat="42.67094" lon="-8.39888"><ele>397.0</ele><time>2026-04-16T07:44:31.838Z</time></trkpt><trkpt lat="42.6708417" lon="-8.39896"><ele>397.8</ele><time>2026-04-16T07:44:32.838Z</time></trkpt><trkpt lat="42.6707467" lon="-8.3990283"><ele>398.6</ele><time>2026-04-16T07:44:33.838Z</time></trkpt><trkpt lat="42.670655" lon="-8.39908"><ele>399.40000000000003</ele><time>2026-04-16T07:44:34.839Z</time></trkpt><trkpt lat="42.6705483" lon="-8.3991467"><ele>400.20000000000005</ele><time>2026-04-16T07:44:35.838Z</time></trkpt><trkpt lat="42.6704417" lon="-8.399195"><ele>401.0</ele><time>2026-04-16T07:44:36.839Z</time></trkpt><trkpt lat="42.6703467" lon="-8.3992383"><ele>403.20000000000005</ele><time>2026-04-16T07:44:37.839Z</time></trkpt><trkpt lat="42.6702483" lon="-8.3992733"><ele>405.40000000000003</ele><time>2026-04-16T07:44:38.839Z</time></trkpt><trkpt lat="42.6701533" lon="-8.399305"><ele>407.6</ele><time>2026-04-16T07:44:39.839Z</time></trkpt><trkpt lat="42.6700567" lon="-8.399335"><ele>409.8</ele><time>2026-04-16T07:44:40.839Z</time></trkpt><trkpt lat="42.6699283" lon="-8.3993483"><ele>412.0</ele><time>2026-04-16T07:44:41.838Z</time></trkpt><trkpt lat="42.669815" lon="-8.3993467"><ele>412.0</ele><time>2026-04-16T07:44:42.839Z</time></trkpt><trkpt lat="42.6696983" lon="-8.3993333"><ele>412.0</ele><time>2026-04-16T07:44:43.839Z</time></trkpt><trkpt lat="42.669585" lon="-8.399305"><ele>412.0</ele><time>2026-04-16T07:44:44.838Z</time></trkpt><trkpt lat="42.6694683" lon="-8.3992767"><ele>412.0</ele><time>2026-04-16T07:44:45.838Z</time></trkpt><trkpt lat="42.66935" lon="-8.3992583"><ele>412.5</ele><time>2026-04-16T07:44:46.838Z</time></trkpt><trkpt lat="42.66922" lon="-8.3992333"><ele>413.0</ele><time>2026-04-16T07:44:47.838Z</time></trkpt><trkpt lat="42.66909" lon="-8.399205"><ele>413.5</ele><time>2026-04-16T07:44:48.838Z</time></trkpt><trkpt lat="42.6689683" lon="-8.3991833"><ele>414.0</ele><time>2026-04-16T07:44:49.838Z</time></trkpt><trkpt lat="42.6688383" lon="-8.39916"><ele>414.0</ele><time>2026-04-16T07:44:50.839Z</time></trkpt><trkpt lat="42.6687117" lon="-8.3991483"><ele>414.0</ele><time>2026-04-16T07:44:51.838Z</time></trkpt><trkpt lat="42.668595" lon="-8.3991433"><ele>414.0</ele><time>2026-04-16T07:44:52.839Z</time></trkpt><trkpt lat="42.668485" lon="-8.3991583"><ele>414.0</ele><time>2026-04-16T07:44:53.839Z</time></trkpt><trkpt lat="42.6683667" lon="-8.39918"><ele>413.0</ele><time>2026-04-16T07:44:54.839Z</time></trkpt><trkpt lat="42.6682583" lon="-8.399225"><ele>412.0</ele><time>2026-04-16T07:44:55.839Z</time></trkpt><trkpt lat="42.6681517" lon="-8.399285"><ele>411.0</ele><time>2026-04-16T07:44:56.838Z</time></trkpt><trkpt lat="42.668045" lon="-8.3993417"><ele>410.0</ele><time>2026-04-16T07:44:57.838Z</time></trkpt><trkpt lat="42.6679283" lon="-8.3994183"><ele>410.0</ele><time>2026-04-16T07:44:58.838Z</time></trkpt><trkpt lat="42.6678333" lon="-8.3994933"><ele>410.0</ele><time>2026-04-16T07:44:59.838Z</time></trkpt><trkpt lat="42.66776" lon="-8.3995833"><ele>410.0</ele><time>2026-04-16T07:45:00.838Z</time></trkpt><trkpt lat="42.6676917" lon="-8.3996867"><ele>410.0</ele><time>2026-04-16T07:45:01.838Z</time></trkpt><trkpt lat="42.66766" lon="-8.39979"><ele>410.0</ele><time>2026-04-16T07:45:02.839Z</time></trkpt><trkpt lat="42.6676533" lon="-8.3998917"><ele>409.0</ele><time>2026-04-16T07:45:03.838Z</time></trkpt><trkpt lat="42.6676433" lon="-8.3999867"><ele>408.0</ele><time>2026-04-16T07:45:04.838Z</time></trkpt><trkpt lat="42.6676683" lon="-8.4001433"><ele>407.0</ele><time>2026-04-16T07:45:06.838Z</time></trkpt><trkpt lat="42.66773" lon="-8.4001967"><ele>406.0</ele><time>2026-04-16T07:45:07.838Z</time></trkpt><trkpt lat="42.6677933" lon="-8.4002733"><ele>405.0</ele><time>2026-04-16T07:45:08.839Z</time></trkpt><trkpt lat="42.66789" lon="-8.400335"><ele>405.0</ele><time>2026-04-16T07:45:09.838Z</time></trkpt><trkpt lat="42.6680317" lon="-8.4003783"><ele>405.0</ele><time>2026-04-16T07:45:10.839Z</time></trkpt><trkpt lat="42.6681667" lon="-8.4004467"><ele>405.0</ele><time>2026-04-16T07:45:11.839Z</time></trkpt><trkpt lat="42.6682767" lon="-8.4005083"><ele>405.0</ele><time>2026-04-16T07:45:12.839Z</time></trkpt><trkpt lat="42.6683833" lon="-8.4005767"><ele>405.5</ele><time>2026-04-16T07:45:13.839Z</time></trkpt><trkpt lat="42.6684867" lon="-8.400655"><ele>406.0</ele><time>2026-04-16T07:45:14.838Z</time></trkpt><trkpt lat="42.6685967" lon="-8.400745"><ele>406.5</ele><time>2026-04-16T07:45:15.839Z</time></trkpt><trkpt lat="42.6687433" lon="-8.400875"><ele>407.0</ele><time>2026-04-16T07:45:16.838Z</time></trkpt><trkpt lat="42.6688667" lon="-8.4010183"><ele>407.0</ele><time>2026-04-16T07:45:17.839Z</time></trkpt><trkpt lat="42.6689667" lon="-8.40117"><ele>407.0</ele><time>2026-04-16T07:45:18.838Z</time></trkpt><trkpt lat="42.6690233" lon="-8.401325"><ele>407.0</ele><time>2026-04-16T07:45:19.838Z</time></trkpt><trkpt lat="42.6690367" lon="-8.401465"><ele>407.0</ele><time>2026-04-16T07:45:20.839Z</time></trkpt><trkpt lat="42.6690483" lon="-8.401585"><ele>408.5</ele><time>2026-04-16T07:45:21.839Z</time></trkpt><trkpt lat="42.6690217" lon="-8.4017117"><ele>410.0</ele><time>2026-04-16T07:45:22.839Z</time></trkpt><trkpt lat="42.6689517" lon="-8.4018467"><ele>411.5</ele><time>2026-04-16T07:45:23.838Z</time></trkpt><trkpt lat="42.6688283" lon="-8.401945"><ele>413.0</ele><time>2026-04-16T07:45:24.838Z</time></trkpt><trkpt lat="42.6687083" lon="-8.4019983"><ele>415.66666666666663</ele><time>2026-04-16T07:45:25.838Z</time></trkpt><trkpt lat="42.6685417" lon="-8.4020317"><ele>418.33333333333337</ele><time>2026-04-16T07:45:26.838Z</time></trkpt><trkpt lat="42.66838" lon="-8.402055"><ele>421.0</ele><time>2026-04-16T07:45:27.838Z</time></trkpt><trkpt lat="42.668225" lon="-8.4020717"><ele>421.0</ele><time>2026-04-16T07:45:28.838Z</time></trkpt><trkpt lat="42.6680817" lon="-8.40209"><ele>421.0</ele><time>2026-04-16T07:45:29.838Z</time></trkpt><trkpt lat="42.66794" lon="-8.4021033"><ele>421.0</ele><time>2026-04-16T07:45:30.839Z</time></trkpt><trkpt lat="42.667825" lon="-8.4021283"><ele>421.0</ele><time>2026-04-16T07:45:31.838Z</time></trkpt><trkpt lat="42.6677033" lon="-8.4021483"><ele>422.5</ele><time>2026-04-16T07:45:32.838Z</time></trkpt><trkpt lat="42.6675667" lon="-8.40217"><ele>424.0</ele><time>2026-04-16T07:45:33.839Z</time></trkpt><trkpt lat="42.6674433" lon="-8.4021783"><ele>425.5</ele><time>2026-04-16T07:45:34.839Z</time></trkpt><trkpt lat="42.6673267" lon="-8.4021933"><ele>427.0</ele><time>2026-04-16T07:45:35.838Z</time></trkpt><trkpt lat="42.667215" lon="-8.40221"><ele>427.0</ele><time>2026-04-16T07:45:36.838Z</time></trkpt><trkpt lat="42.66711" lon="-8.40223"><ele>427.00000000000006</ele><time>2026-04-16T07:45:37.839Z</time></trkpt><trkpt lat="42.667005" lon="-8.4022533"><ele>427.00000000000006</ele><time>2026-04-16T07:45:38.839Z</time></trkpt><trkpt lat="42.6669" lon="-8.4022733"><ele>427.0</ele><time>2026-04-16T07:45:39.838Z</time></trkpt><trkpt lat="42.666785" lon="-8.402295"><ele>427.0</ele><time>2026-04-16T07:45:40.839Z</time></trkpt><trkpt lat="42.666665" lon="-8.4023233"><ele>428.75</ele><time>2026-04-16T07:45:41.838Z</time></trkpt><trkpt lat="42.6665533" lon="-8.402355"><ele>430.5</ele><time>2026-04-16T07:45:42.839Z</time></trkpt><trkpt lat="42.6664433" lon="-8.40239"><ele>432.25</ele><time>2026-04-16T07:45:43.838Z</time></trkpt><trkpt lat="42.6663367" lon="-8.4024567"><ele>434.0</ele><time>2026-04-16T07:45:44.838Z</time></trkpt><trkpt lat="42.66625" lon="-8.4025533"><ele>434.0</ele><time>2026-04-16T07:45:45.839Z</time></trkpt><trkpt lat="42.6661867" lon="-8.4026783"><ele>434.0</ele><time>2026-04-16T07:45:46.839Z</time></trkpt><trkpt lat="42.6661467" lon="-8.402825"><ele>434.0</ele><time>2026-04-16T07:45:47.838Z</time></trkpt><trkpt lat="42.6661417" lon="-8.4029783"><ele>434.0</ele><time>2026-04-16T07:45:48.839Z</time></trkpt><trkpt lat="42.6661617" lon="-8.4031367"><ele>436.25</ele><time>2026-04-16T07:45:49.838Z</time></trkpt><trkpt lat="42.66621" lon="-8.4032833"><ele>438.5</ele><time>2026-04-16T07:45:50.839Z</time></trkpt><trkpt lat="42.6662783" lon="-8.4034133"><ele>440.75</ele><time>2026-04-16T07:45:51.838Z</time></trkpt><trkpt lat="42.6663683" lon="-8.4035333"><ele>443.0</ele><time>2026-04-16T07:45:52.839Z</time></trkpt><trkpt lat="42.6664683" lon="-8.4036117"><ele>443.0</ele><time>2026-04-16T07:45:53.839Z</time></trkpt><trkpt lat="42.66658" lon="-8.40368"><ele>443.0</ele><time>2026-04-16T07:45:54.838Z</time></trkpt><trkpt lat="42.6667" lon="-8.4037417"><ele>443.0</ele><time>2026-04-16T07:45:55.838Z</time></trkpt><trkpt lat="42.66682" lon="-8.4038183"><ele>443.0</ele><time>2026-04-16T07:45:56.839Z</time></trkpt><trkpt lat="42.6669317" lon="-8.4038883"><ele>445.25</ele><time>2026-04-16T07:45:57.839Z</time></trkpt><trkpt lat="42.6670367" lon="-8.40395"><ele>447.5</ele><time>2026-04-16T07:45:58.838Z</time></trkpt><trkpt lat="42.6671383" lon="-8.4040167"><ele>449.75</ele><time>2026-04-16T07:45:59.838Z</time></trkpt><trkpt lat="42.66724" lon="-8.4040917"><ele>452.0</ele><time>2026-04-16T07:46:00.838Z</time></trkpt><trkpt lat="42.667345" lon="-8.4041933"><ele>452.0</ele><time>2026-04-16T07:46:01.839Z</time></trkpt><trkpt lat="42.6674283" lon="-8.4042983"><ele>452.00000000000006</ele><time>2026-04-16T07:46:02.838Z</time></trkpt><trkpt lat="42.6675133" lon="-8.40441"><ele>452.00000000000006</ele><time>2026-04-16T07:46:03.838Z</time></trkpt><trkpt lat="42.66759" lon="-8.4045433"><ele>452.0</ele><time>2026-04-16T07:46:04.838Z</time></trkpt><trkpt lat="42.6676433" lon="-8.4046433"><ele>452.0</ele><time>2026-04-16T07:46:05.838Z</time></trkpt><trkpt lat="42.6677033" lon="-8.4047983"><ele>454.40000000000003</ele><time>2026-04-16T07:46:06.838Z</time></trkpt><trkpt lat="42.6677033" lon="-8.4049133"><ele>456.80000000000007</ele><time>2026-04-16T07:46:07.838Z</time></trkpt><trkpt lat="42.6677183" lon="-8.4050417"><ele>459.2</ele><time>2026-04-16T07:46:08.838Z</time></trkpt><trkpt lat="42.6677017" lon="-8.405195"><ele>461.6</ele><time>2026-04-16T07:46:09.839Z</time></trkpt><trkpt lat="42.6676533" lon="-8.4053433"><ele>464.0</ele><time>2026-04-16T07:46:10.839Z</time></trkpt><trkpt lat="42.6675867" lon="-8.405475"><ele>464.25</ele><time>2026-04-16T07:46:11.838Z</time></trkpt><trkpt lat="42.6675183" lon="-8.40562"><ele>464.5</ele><time>2026-04-16T07:46:12.838Z</time></trkpt><trkpt lat="42.66745" lon="-8.405755"><ele>464.75</ele><time>2026-04-16T07:46:13.838Z</time></trkpt><trkpt lat="42.66739" lon="-8.4058867"><ele>465.0</ele><time>2026-04-16T07:46:14.838Z</time></trkpt><trkpt lat="42.6673383" lon="-8.4060267"><ele>465.0</ele><time>2026-04-16T07:46:15.839Z</time></trkpt><trkpt lat="42.6672867" lon="-8.4061633"><ele>465.0</ele><time>2026-04-16T07:46:16.839Z</time></trkpt><trkpt lat="42.667255" lon="-8.4062933"><ele>465.0</ele><time>2026-04-16T07:46:17.838Z</time></trkpt><trkpt lat="42.6672517" lon="-8.4064317"><ele>465.0</ele><time>2026-04-16T07:46:18.838Z</time></trkpt><trkpt lat="42.6672583" lon="-8.40655"><ele>465.0</ele><time>2026-04-16T07:46:19.839Z</time></trkpt><trkpt lat="42.66728" lon="-8.4066583"><ele>464.8</ele><time>2026-04-16T07:46:20.838Z</time></trkpt><trkpt lat="42.66729" lon="-8.4067517"><ele>464.6</ele><time>2026-04-16T07:46:21.838Z</time></trkpt><trkpt lat="42.6672533" lon="-8.4068883"><ele>464.4</ele><time>2026-04-16T07:46:23.838Z</time></trkpt><trkpt lat="42.667165" lon="-8.4069733"><ele>464.2</ele><time>2026-04-16T07:46:25.839Z</time></trkpt><trkpt lat="42.6671083" lon="-8.4070733"><ele>464.0</ele><time>2026-04-16T07:46:27.839Z</time></trkpt><trkpt lat="42.66711" lon="-8.4072183"><ele>466.16666666666663</ele><time>2026-04-16T07:46:29.838Z</time></trkpt><trkpt lat="42.6671483" lon="-8.407295"><ele>468.3333333333333</ele><time>2026-04-16T07:46:30.839Z</time></trkpt><trkpt lat="42.6671883" lon="-8.4074033"><ele>470.5</ele><time>2026-04-16T07:46:31.838Z</time></trkpt><trkpt lat="42.667245" lon="-8.4075033"><ele>472.66666666666663</ele><time>2026-04-16T07:46:32.839Z</time></trkpt><trkpt lat="42.66729" lon="-8.4076033"><ele>474.8333333333333</ele><time>2026-04-16T07:46:33.839Z</time></trkpt><trkpt lat="42.6673167" lon="-8.4076983"><ele>477.0</ele><time>2026-04-16T07:46:34.838Z</time></trkpt><trkpt lat="42.66731" lon="-8.4078067"><ele>477.0</ele><time>2026-04-16T07:46:36.839Z</time></trkpt><trkpt lat="42.66722" lon="-8.4079017"><ele>477.00000000000006</ele><time>2026-04-16T07:46:38.838Z</time></trkpt><trkpt lat="42.66716" lon="-8.4079583"><ele>477.00000000000006</ele><time>2026-04-16T07:46:39.838Z</time></trkpt><trkpt lat="42.667085" lon="-8.4080233"><ele>477.0</ele><time>2026-04-16T07:46:40.839Z</time></trkpt><trkpt lat="42.667" lon="-8.4081"><ele>477.0</ele><time>2026-04-16T07:46:41.838Z</time></trkpt><trkpt lat="42.6669067" lon="-8.4081533"><ele>479.8</ele><time>2026-04-16T07:46:42.839Z</time></trkpt><trkpt lat="42.6668183" lon="-8.4081733"><ele>482.6</ele><time>2026-04-16T07:46:43.839Z</time></trkpt><trkpt lat="42.6667283" lon="-8.4081517"><ele>485.40000000000003</ele><time>2026-04-16T07:46:44.838Z</time></trkpt><trkpt lat="42.6666233" lon="-8.4080933"><ele>488.20000000000005</ele><time>2026-04-16T07:46:45.838Z</time></trkpt><trkpt lat="42.6664917" lon="-8.4079917"><ele>491.0</ele><time>2026-04-16T07:46:46.839Z</time></trkpt><trkpt lat="42.6663417" lon="-8.4078567"><ele>491.0</ele><time>2026-04-16T07:46:47.839Z</time></trkpt><trkpt lat="42.6661817" lon="-8.4077217"><ele>491.0</ele><time>2026-04-16T07:46:48.838Z</time></trkpt><trkpt lat="42.6660283" lon="-8.40759"><ele>491.0</ele><time>2026-04-16T07:46:49.839Z</time></trkpt><trkpt lat="42.6658383" lon="-8.40744"><ele>497.3333333333333</ele><time>2026-04-16T07:46:50.839Z</time></trkpt><trkpt lat="42.6656483" lon="-8.4073133"><ele>503.66666666666663</ele><time>2026-04-16T07:46:51.838Z</time></trkpt><trkpt lat="42.66545" lon="-8.4072"><ele>510.0</ele><time>2026-04-16T07:46:52.838Z</time></trkpt><trkpt lat="42.66525" lon="-8.4070933"><ele>510.5</ele><time>2026-04-16T07:46:53.839Z</time></trkpt><trkpt lat="42.6650417" lon="-8.40699"><ele>511.0</ele><time>2026-04-16T07:46:54.839Z</time></trkpt><trkpt lat="42.6648233" lon="-8.4069017"><ele>511.0</ele><time>2026-04-16T07:46:55.838Z</time></trkpt><trkpt lat="42.664605" lon="-8.40682"><ele>511.0</ele><time>2026-04-16T07:46:56.839Z</time></trkpt><trkpt lat="42.6644117" lon="-8.406755"><ele>511.0</ele><time>2026-04-16T07:46:57.839Z</time></trkpt><trkpt lat="42.664215" lon="-8.4067233"><ele>513.6666666666667</ele><time>2026-04-16T07:46:58.839Z</time></trkpt><trkpt lat="42.6640167" lon="-8.4067067"><ele>516.3333333333334</ele><time>2026-04-16T07:46:59.838Z</time></trkpt><trkpt lat="42.6638183" lon="-8.40672"><ele>519.0</ele><time>2026-04-16T07:47:00.839Z</time></trkpt><trkpt lat="42.663615" lon="-8.4067433"><ele>523.3333333333334</ele><time>2026-04-16T07:47:01.839Z</time></trkpt><trkpt lat="42.663425" lon="-8.4067817"><ele>527.6666666666667</ele><time>2026-04-16T07:47:02.839Z</time></trkpt><trkpt lat="42.6632433" lon="-8.4067933"><ele>532.0</ele><time>2026-04-16T07:47:03.839Z</time></trkpt><trkpt lat="42.6630933" lon="-8.4067667"><ele>532.0</ele><time>2026-04-16T07:47:04.839Z</time></trkpt><trkpt lat="42.6629567" lon="-8.4067067"><ele>532.0</ele><time>2026-04-16T07:47:05.838Z</time></trkpt><trkpt lat="42.6628383" lon="-8.4066017"><ele>532.0</ele><time>2026-04-16T07:47:06.839Z</time></trkpt><trkpt lat="42.6627317" lon="-8.4064767"><ele>532.0</ele><time>2026-04-16T07:47:07.838Z</time></trkpt><trkpt lat="42.66263" lon="-8.4063383"><ele>534.25</ele><time>2026-04-16T07:47:08.838Z</time></trkpt><trkpt lat="42.6625283" lon="-8.4061967"><ele>536.5</ele><time>2026-04-16T07:47:09.838Z</time></trkpt><trkpt lat="42.66242" lon="-8.4060517"><ele>538.75</ele><time>2026-04-16T07:47:10.838Z</time></trkpt><trkpt lat="42.6623067" lon="-8.40592"><ele>541.0</ele><time>2026-04-16T07:47:11.838Z</time></trkpt><trkpt lat="42.6622033" lon="-8.4057767"><ele>541.0</ele><time>2026-04-16T07:47:12.838Z</time></trkpt><trkpt lat="42.6620917" lon="-8.4056267"><ele>541.0</ele><time>2026-04-16T07:47:13.838Z</time></trkpt><trkpt lat="42.6619767" lon="-8.4054917"><ele>541.0</ele><time>2026-04-16T07:47:14.838Z</time></trkpt><trkpt lat="42.661875" lon="-8.405385"><ele>541.0</ele><time>2026-04-16T07:47:15.838Z</time></trkpt><trkpt lat="42.6617717" lon="-8.4053083"><ele>543.0</ele><time>2026-04-16T07:47:16.838Z</time></trkpt><trkpt lat="42.6616533" lon="-8.405245"><ele>545.0</ele><time>2026-04-16T07:47:17.838Z</time></trkpt><trkpt lat="42.66153" lon="-8.4051917"><ele>547.0</ele><time>2026-04-16T07:47:18.839Z</time></trkpt><trkpt lat="42.66139" lon="-8.4051383"><ele>549.0</ele><time>2026-04-16T07:47:19.838Z</time></trkpt><trkpt lat="42.66127" lon="-8.4051117"><ele>549.0</ele><time>2026-04-16T07:47:20.838Z</time></trkpt><trkpt lat="42.6611783" lon="-8.405105"><ele>549.0</ele><time>2026-04-16T07:47:21.839Z</time></trkpt><trkpt lat="42.66109" lon="-8.40512"><ele>549.0</ele><time>2026-04-16T07:47:22.839Z</time></trkpt><trkpt lat="42.6609983" lon="-8.40515"><ele>549.0</ele><time>2026-04-16T07:47:23.838Z</time></trkpt><trkpt lat="42.6609033" lon="-8.4051867"><ele>549.0</ele><time>2026-04-16T07:47:24.839Z</time></trkpt><trkpt lat="42.6608167" lon="-8.405225"><ele>549.5</ele><time>2026-04-16T07:47:25.839Z</time></trkpt><trkpt lat="42.6607483" lon="-8.405255"><ele>550.0</ele><time>2026-04-16T07:47:26.838Z</time></trkpt><trkpt lat="42.6606917" lon="-8.4053267"><ele>550.5</ele><time>2026-04-16T07:47:28.839Z</time></trkpt><trkpt lat="42.660715" lon="-8.4054083"><ele>551.0</ele><time>2026-04-16T07:47:30.838Z</time></trkpt><trkpt lat="42.66084" lon="-8.4054317"><ele>551.5</ele><time>2026-04-16T07:47:32.839Z</time></trkpt><trkpt lat="42.6609267" lon="-8.40543"><ele>552.0</ele><time>2026-04-16T07:47:33.839Z</time></trkpt><trkpt lat="42.661015" lon="-8.405445"><ele>552.0</ele><time>2026-04-16T07:47:34.839Z</time></trkpt><trkpt lat="42.6610983" lon="-8.4054717"><ele>552.0</ele><time>2026-04-16T07:47:35.839Z</time></trkpt><trkpt lat="42.6611667" lon="-8.4055033"><ele>552.0</ele><time>2026-04-16T07:47:36.838Z</time></trkpt><trkpt lat="42.66123" lon="-8.4055533"><ele>552.0</ele><time>2026-04-16T07:47:38.839Z</time></trkpt><trkpt lat="42.661305" lon="-8.4056083"><ele>552.0</ele><time>2026-04-16T07:48:20.838Z</time></trkpt><trkpt lat="42.66141" lon="-8.40572"><ele>554.0</ele><time>2026-04-16T07:48:22.839Z</time></trkpt><trkpt lat="42.6614817" lon="-8.4058133"><ele>556.0</ele><time>2026-04-16T07:48:23.839Z</time></trkpt><trkpt lat="42.66155" lon="-8.4059117"><ele>558.0</ele><time>2026-04-16T07:48:24.839Z</time></trkpt><trkpt lat="42.6616067" lon="-8.4059983"><ele>560.0</ele><time>2026-04-16T07:48:25.839Z</time></trkpt><trkpt lat="42.66166" lon="-8.4060767"><ele>562.0</ele><time>2026-04-16T07:48:26.839Z</time></trkpt><trkpt lat="42.661725" lon="-8.4061667"><ele>562.0</ele><time>2026-04-16T07:48:28.838Z</time></trkpt><trkpt lat="42.6617917" lon="-8.4062583"><ele>562.0</ele><time>2026-04-16T07:49:03.838Z</time></trkpt><trkpt lat="42.6618433" lon="-8.4063317"><ele>562.0</ele><time>2026-04-16T07:49:05.839Z</time></trkpt><trkpt lat="42.6618867" lon="-8.4063967"><ele>562.0</ele><time>2026-04-16T07:50:00.84Z</time></trkpt><trkpt lat="42.6619883" lon="-8.40655"><ele>562.0</ele><time>2026-04-16T07:50:02.84Z</time></trkpt><trkpt lat="42.662075" lon="-8.406665"><ele>559.6666666666667</ele><time>2026-04-16T07:50:03.84Z</time></trkpt><trkpt lat="42.662205" lon="-8.4068283"><ele>557.3333333333334</ele><time>2026-04-16T07:50:04.839Z</time></trkpt><trkpt lat="42.6623517" lon="-8.40702"><ele>555.0</ele><time>2026-04-16T07:50:05.839Z</time></trkpt><trkpt lat="42.662505" lon="-8.4072183"><ele>555.0</ele><time>2026-04-16T07:50:06.839Z</time></trkpt><trkpt lat="42.6626533" lon="-8.4073983"><ele>555.0</ele><time>2026-04-16T07:50:07.839Z</time></trkpt><trkpt lat="42.6627817" lon="-8.4075367"><ele>555.0</ele><time>2026-04-16T07:50:08.839Z</time></trkpt><trkpt lat="42.6629233" lon="-8.40765"><ele>555.0</ele><time>2026-04-16T07:50:09.839Z</time></trkpt><trkpt lat="42.6630667" lon="-8.4077567"><ele>555.0</ele><time>2026-04-16T07:50:10.84Z</time></trkpt><trkpt lat="42.6632233" lon="-8.4078483"><ele>555.0</ele><time>2026-04-16T07:50:11.84Z</time></trkpt><trkpt lat="42.66339" lon="-8.4079533"><ele>558.3333333333334</ele><time>2026-04-16T07:50:12.839Z</time></trkpt><trkpt lat="42.66357" lon="-8.4080633"><ele>561.6666666666667</ele><time>2026-04-16T07:50:13.839Z</time></trkpt><trkpt lat="42.6637467" lon="-8.4081817"><ele>565.0</ele><time>2026-04-16T07:50:14.839Z</time></trkpt><trkpt lat="42.6639267" lon="-8.4082883"><ele>565.0</ele><time>2026-04-16T07:50:15.839Z</time></trkpt><trkpt lat="42.6640917" lon="-8.4084"><ele>565.0</ele><time>2026-04-16T07:50:16.84Z</time></trkpt><trkpt lat="42.664235" lon="-8.408505"><ele>565.0</ele><time>2026-04-16T07:50:17.839Z</time></trkpt><trkpt lat="42.6643833" lon="-8.4086083"><ele>564.0</ele><time>2026-04-16T07:50:18.839Z</time></trkpt><trkpt lat="42.6645483" lon="-8.4087133"><ele>563.0</ele><time>2026-04-16T07:50:19.839Z</time></trkpt><trkpt lat="42.6647233" lon="-8.4088283"><ele>562.0</ele><time>2026-04-16T07:50:20.839Z</time></trkpt><trkpt lat="42.6649017" lon="-8.4089317"><ele>562.0</ele><time>2026-04-16T07:50:21.84Z</time></trkpt><trkpt lat="42.66505" lon="-8.4090383"><ele>562.0</ele><time>2026-04-16T07:50:22.84Z</time></trkpt><trkpt lat="42.6651717" lon="-8.4091367"><ele>562.0</ele><time>2026-04-16T07:50:23.84Z</time></trkpt><trkpt lat="42.665265" lon="-8.4092417"><ele>562.0</ele><time>2026-04-16T07:50:24.84Z</time></trkpt><trkpt lat="42.66533" lon="-8.4093617"><ele>560.0</ele><time>2026-04-16T07:50:25.839Z</time></trkpt><trkpt lat="42.6653933" lon="-8.409505"><ele>558.0</ele><time>2026-04-16T07:50:26.839Z</time></trkpt><trkpt lat="42.6654367" lon="-8.4096733"><ele>556.0</ele><time>2026-04-16T07:50:27.84Z</time></trkpt><trkpt lat="42.66548" lon="-8.4098617"><ele>554.0</ele><time>2026-04-16T07:50:28.839Z</time></trkpt><trkpt lat="42.6655083" lon="-8.4100533"><ele>554.0</ele><time>2026-04-16T07:50:29.84Z</time></trkpt><trkpt lat="42.66555" lon="-8.410215"><ele>554.0</ele><time>2026-04-16T07:50:30.84Z</time></trkpt><trkpt lat="42.6656183" lon="-8.4103517"><ele>554.0</ele><time>2026-04-16T07:50:31.84Z</time></trkpt><trkpt lat="42.665735" lon="-8.4104383"><ele>554.0</ele><time>2026-04-16T07:50:32.84Z</time></trkpt><trkpt lat="42.6658767" lon="-8.4104833"><ele>557.3333333333333</ele><time>2026-04-16T07:50:33.839Z</time></trkpt><trkpt lat="42.6660383" lon="-8.410525"><ele>560.6666666666666</ele><time>2026-04-16T07:50:34.84Z</time></trkpt><trkpt lat="42.6662067" lon="-8.4105683"><ele>564.0</ele><time>2026-04-16T07:50:35.839Z</time></trkpt><trkpt lat="42.6663967" lon="-8.4106317"><ele>564.0</ele><time>2026-04-16T07:50:36.839Z</time></trkpt><trkpt lat="42.6666" lon="-8.4107117"><ele>564.0</ele><time>2026-04-16T07:50:37.839Z</time></trkpt><trkpt lat="42.6668083" lon="-8.4108167"><ele>564.0</ele><time>2026-04-16T07:50:38.839Z</time></trkpt><trkpt lat="42.667015" lon="-8.4109183"><ele>562.6666666666666</ele><time>2026-04-16T07:50:39.84Z</time></trkpt><trkpt lat="42.6672067" lon="-8.4110183"><ele>561.3333333333333</ele><time>2026-04-16T07:50:40.84Z</time></trkpt><trkpt lat="42.6673817" lon="-8.41112"><ele>560.0</ele><time>2026-04-16T07:50:41.84Z</time></trkpt><trkpt lat="42.6675617" lon="-8.4112117"><ele>560.0</ele><time>2026-04-16T07:50:42.84Z</time></trkpt><trkpt lat="42.6677533" lon="-8.4113167"><ele>560.0</ele><time>2026-04-16T07:50:43.84Z</time></trkpt><trkpt lat="42.6679583" lon="-8.4114217"><ele>560.0</ele><time>2026-04-16T07:50:44.84Z</time></trkpt><trkpt lat="42.66815" lon="-8.4115283"><ele>560.0</ele><time>2026-04-16T07:50:45.839Z</time></trkpt><trkpt lat="42.6683183" lon="-8.4116267"><ele>560.0</ele><time>2026-04-16T07:50:46.84Z</time></trkpt><trkpt lat="42.6684667" lon="-8.4117167"><ele>560.0</ele><time>2026-04-16T07:50:47.84Z</time></trkpt><trkpt lat="42.668615" lon="-8.4117983"><ele>556.25</ele><time>2026-04-16T07:50:48.84Z</time></trkpt><trkpt lat="42.6687617" lon="-8.4118717"><ele>552.5</ele><time>2026-04-16T07:50:49.839Z</time></trkpt><trkpt lat="42.66888" lon="-8.4119517"><ele>548.75</ele><time>2026-04-16T07:50:50.839Z</time></trkpt><trkpt lat="42.6689783" lon="-8.4120317"><ele>545.0</ele><time>2026-04-16T07:50:51.84Z</time></trkpt><trkpt lat="42.669045" lon="-8.4121117"><ele>546.0</ele><time>2026-04-16T07:50:52.839Z</time></trkpt><trkpt lat="42.6690933" lon="-8.4121967"><ele>547.0</ele><time>2026-04-16T07:50:53.839Z</time></trkpt><trkpt lat="42.6691183" lon="-8.41229"><ele>548.0</ele><time>2026-04-16T07:50:54.839Z</time></trkpt><trkpt lat="42.6691167" lon="-8.4124117"><ele>549.0</ele><time>2026-04-16T07:50:55.839Z</time></trkpt><trkpt lat="42.6690867" lon="-8.4125567"><ele>550.0</ele><time>2026-04-16T07:50:56.839Z</time></trkpt><trkpt lat="42.66903" lon="-8.4127067"><ele>550.0</ele><time>2026-04-16T07:50:57.839Z</time></trkpt><trkpt lat="42.6689833" lon="-8.41283"><ele>550.0</ele><time>2026-04-16T07:50:58.84Z</time></trkpt><trkpt lat="42.6689433" lon="-8.412915"><ele>550.0</ele><time>2026-04-16T07:50:59.84Z</time></trkpt><trkpt lat="42.6688333" lon="-8.4129667"><ele>550.0</ele><time>2026-04-16T07:51:01.839Z</time></trkpt><trkpt lat="42.6687483" lon="-8.4129183"><ele>550.0</ele><time>2026-04-16T07:51:02.84Z</time></trkpt><trkpt lat="42.6686417" lon="-8.41282"><ele>553.6666666666667</ele><time>2026-04-16T07:51:03.839Z</time></trkpt><trkpt lat="42.6685083" lon="-8.4127283"><ele>557.3333333333334</ele><time>2026-04-16T07:51:04.839Z</time></trkpt><trkpt lat="42.66835" lon="-8.4126567"><ele>561.0</ele><time>2026-04-16T07:51:05.84Z</time></trkpt><trkpt lat="42.66818" lon="-8.4125933"><ele>561.0</ele><time>2026-04-16T07:51:06.84Z</time></trkpt><trkpt lat="42.6680083" lon="-8.4125417"><ele>561.0</ele><time>2026-04-16T07:51:07.84Z</time></trkpt><trkpt lat="42.667825" lon="-8.412505"><ele>561.0</ele><time>2026-04-16T07:51:08.839Z</time></trkpt><trkpt lat="42.6676217" lon="-8.4125"><ele>564.0</ele><time>2026-04-16T07:51:09.839Z</time></trkpt><trkpt lat="42.6674033" lon="-8.4125167"><ele>567.0</ele><time>2026-04-16T07:51:10.839Z</time></trkpt><trkpt lat="42.6671833" lon="-8.4125283"><ele>570.0</ele><time>2026-04-16T07:51:11.839Z</time></trkpt><trkpt lat="42.6669867" lon="-8.4125267"><ele>573.6666666666666</ele><time>2026-04-16T07:51:12.839Z</time></trkpt><trkpt lat="42.6668033" lon="-8.4125133"><ele>577.3333333333333</ele><time>2026-04-16T07:51:13.84Z</time></trkpt><trkpt lat="42.66663" lon="-8.4124967"><ele>581.0</ele><time>2026-04-16T07:51:14.839Z</time></trkpt><trkpt lat="42.66645" lon="-8.4124717"><ele>581.0</ele><time>2026-04-16T07:51:15.84Z</time></trkpt><trkpt lat="42.666275" lon="-8.4124417"><ele>581.0</ele><time>2026-04-16T07:51:16.839Z</time></trkpt><trkpt lat="42.6661083" lon="-8.4123683"><ele>581.0</ele><time>2026-04-16T07:51:17.839Z</time></trkpt><trkpt lat="42.6659517" lon="-8.41225"><ele>582.0</ele><time>2026-04-16T07:51:18.84Z</time></trkpt><trkpt lat="42.66577" lon="-8.412095"><ele>583.0</ele><time>2026-04-16T07:51:19.84Z</time></trkpt><trkpt lat="42.6655917" lon="-8.4119367"><ele>584.0</ele><time>2026-04-16T07:51:20.84Z</time></trkpt><trkpt lat="42.6654" lon="-8.4117767"><ele>583.0</ele><time>2026-04-16T07:51:21.839Z</time></trkpt><trkpt lat="42.6652033" lon="-8.4116083"><ele>582.0</ele><time>2026-04-16T07:51:22.84Z</time></trkpt><trkpt lat="42.6650067" lon="-8.4114367"><ele>580.5</ele><time>2026-04-16T07:51:23.839Z</time></trkpt><trkpt lat="42.6648" lon="-8.41127"><ele>579.0</ele><time>2026-04-16T07:51:24.84Z</time></trkpt><trkpt lat="42.6646117" lon="-8.4111233"><ele>580.3333333333334</ele><time>2026-04-16T07:51:25.839Z</time></trkpt><trkpt lat="42.6644233" lon="-8.4109867"><ele>581.6666666666667</ele><time>2026-04-16T07:51:26.839Z</time></trkpt><trkpt lat="42.6642367" lon="-8.4108367"><ele>583.0</ele><time>2026-04-16T07:51:27.839Z</time></trkpt><trkpt lat="42.6640533" lon="-8.41068"><ele>583.0</ele><time>2026-04-16T07:51:28.839Z</time></trkpt><trkpt lat="42.663875" lon="-8.4105117"><ele>583.0</ele><time>2026-04-16T07:51:29.839Z</time></trkpt><trkpt lat="42.6636967" lon="-8.4103167"><ele>583.0</ele><time>2026-04-16T07:51:30.839Z</time></trkpt><trkpt lat="42.6635233" lon="-8.4100983"><ele>582.5</ele><time>2026-04-16T07:51:31.839Z</time></trkpt><trkpt lat="42.66334" lon="-8.4098633"><ele>582.0</ele><time>2026-04-16T07:51:32.839Z</time></trkpt><trkpt lat="42.663145" lon="-8.4096333"><ele>581.5</ele><time>2026-04-16T07:51:33.84Z</time></trkpt><trkpt lat="42.6629567" lon="-8.4094217"><ele>581.0</ele><time>2026-04-16T07:51:34.84Z</time></trkpt><trkpt lat="42.6627633" lon="-8.4092467"><ele>579.0</ele><time>2026-04-16T07:51:35.839Z</time></trkpt><trkpt lat="42.6625667" lon="-8.409065"><ele>577.0</ele><time>2026-04-16T07:51:36.84Z</time></trkpt><trkpt lat="42.66237" lon="-8.4088833"><ele>577.0</ele><time>2026-04-16T07:51:37.839Z</time></trkpt><trkpt lat="42.662185" lon="-8.4087083"><ele>577.0</ele><time>2026-04-16T07:51:38.839Z</time></trkpt><trkpt lat="42.662" lon="-8.4085433"><ele>577.0</ele><time>2026-04-16T07:51:39.84Z</time></trkpt><trkpt lat="42.6618117" lon="-8.408375"><ele>577.0</ele><time>2026-04-16T07:51:40.839Z</time></trkpt><trkpt lat="42.661625" lon="-8.40821"><ele>577.0</ele><time>2026-04-16T07:51:41.839Z</time></trkpt><trkpt lat="42.6614467" lon="-8.408065"><ele>577.0</ele><time>2026-04-16T07:51:42.839Z</time></trkpt><trkpt lat="42.6612667" lon="-8.40792"><ele>578.3333333333334</ele><time>2026-04-16T07:51:43.84Z</time></trkpt><trkpt lat="42.6610783" lon="-8.4078033"><ele>579.6666666666666</ele><time>2026-04-16T07:51:44.839Z</time></trkpt><trkpt lat="42.6608867" lon="-8.4077117"><ele>581.0</ele><time>2026-04-16T07:51:45.84Z</time></trkpt><trkpt lat="42.6606817" lon="-8.4076483"><ele>581.0</ele><time>2026-04-16T07:51:46.84Z</time></trkpt><trkpt lat="42.660465" lon="-8.4075983"><ele>581.0</ele><time>2026-04-16T07:51:47.84Z</time></trkpt><trkpt lat="42.6602633" lon="-8.4075417"><ele>581.0</ele><time>2026-04-16T07:51:48.84Z</time></trkpt><trkpt lat="42.6600783" lon="-8.4074633"><ele>580.0</ele><time>2026-04-16T07:51:49.84Z</time></trkpt><trkpt lat="42.6599133" lon="-8.407375"><ele>579.0</ele><time>2026-04-16T07:51:50.84Z</time></trkpt><trkpt lat="42.6597717" lon="-8.407245"><ele>578.0</ele><time>2026-04-16T07:51:51.84Z</time></trkpt><trkpt lat="42.659645" lon="-8.4070683"><ele>578.0</ele><time>2026-04-16T07:51:52.839Z</time></trkpt><trkpt lat="42.65952" lon="-8.4068667"><ele>578.0</ele><time>2026-04-16T07:51:53.839Z</time></trkpt><trkpt lat="42.6594" lon="-8.4066667"><ele>578.0</ele><time>2026-04-16T07:51:54.84Z</time></trkpt><trkpt lat="42.6592817" lon="-8.4064717"><ele>575.0</ele><time>2026-04-16T07:51:55.839Z</time></trkpt><trkpt lat="42.6591617" lon="-8.4062867"><ele>572.0</ele><time>2026-04-16T07:51:56.84Z</time></trkpt><trkpt lat="42.65904" lon="-8.406105"><ele>569.0</ele><time>2026-04-16T07:51:57.839Z</time></trkpt><trkpt lat="42.6589183" lon="-8.40591"><ele>569.0</ele><time>2026-04-16T07:51:58.84Z</time></trkpt><trkpt lat="42.6587933" lon="-8.4056917"><ele>569.0</ele><time>2026-04-16T07:51:59.839Z</time></trkpt><trkpt lat="42.6586667" lon="-8.4054517"><ele>569.0</ele><time>2026-04-16T07:52:00.84Z</time></trkpt><trkpt lat="42.6585417" lon="-8.4052083"><ele>570.6666666666666</ele><time>2026-04-16T07:52:01.84Z</time></trkpt><trkpt lat="42.6584133" lon="-8.404965"><ele>572.3333333333334</ele><time>2026-04-16T07:52:02.839Z</time></trkpt><trkpt lat="42.65828" lon="-8.40472"><ele>574.0</ele><time>2026-04-16T07:52:03.839Z</time></trkpt><trkpt lat="42.65816" lon="-8.4044833"><ele>575.0</ele><time>2026-04-16T07:52:04.84Z</time></trkpt><trkpt lat="42.6580183" lon="-8.4042467"><ele>576.0</ele><time>2026-04-16T07:52:05.84Z</time></trkpt><trkpt lat="42.6578967" lon="-8.4040233"><ele>577.0</ele><time>2026-04-16T07:52:06.84Z</time></trkpt><trkpt lat="42.6577717" lon="-8.40382"><ele>578.0</ele><time>2026-04-16T07:52:07.84Z</time></trkpt><trkpt lat="42.6576317" lon="-8.4036067"><ele>579.0</ele><time>2026-04-16T07:52:08.84Z</time></trkpt><trkpt lat="42.6574933" lon="-8.4033717"><ele>580.0</ele><time>2026-04-16T07:52:09.84Z</time></trkpt><trkpt lat="42.6573517" lon="-8.40314"><ele>578.6666666666667</ele><time>2026-04-16T07:52:10.84Z</time></trkpt><trkpt lat="42.6572183" lon="-8.4029267"><ele>577.3333333333334</ele><time>2026-04-16T07:52:11.839Z</time></trkpt><trkpt lat="42.6571033" lon="-8.4027383"><ele>576.0</ele><time>2026-04-16T07:52:12.839Z</time></trkpt><trkpt lat="42.6569933" lon="-8.4025583"><ele>575.3333333333334</ele><time>2026-04-16T07:52:13.84Z</time></trkpt><trkpt lat="42.656885" lon="-8.4023767"><ele>574.6666666666667</ele><time>2026-04-16T07:52:14.839Z</time></trkpt><trkpt lat="42.65678" lon="-8.402215"><ele>574.0</ele><time>2026-04-16T07:52:15.84Z</time></trkpt><trkpt lat="42.656665" lon="-8.4020667"><ele>573.0</ele><time>2026-04-16T07:52:16.839Z</time></trkpt><trkpt lat="42.65654" lon="-8.401925"><ele>572.0</ele><time>2026-04-16T07:52:17.839Z</time></trkpt><trkpt lat="42.6564267" lon="-8.4017867"><ele>571.0</ele><time>2026-04-16T07:52:18.839Z</time></trkpt><trkpt lat="42.6563383" lon="-8.40165"><ele>570.0</ele><time>2026-04-16T07:52:19.839Z</time></trkpt><trkpt lat="42.6562683" lon="-8.4015283"><ele>570.0</ele><time>2026-04-16T07:52:20.84Z</time></trkpt><trkpt lat="42.656215" lon="-8.40137"><ele>570.0</ele><time>2026-04-16T07:52:21.84Z</time></trkpt><trkpt lat="42.6561567" lon="-8.40122"><ele>570.0</ele><time>2026-04-16T07:52:22.839Z</time></trkpt><trkpt lat="42.65608" lon="-8.401055"><ele>570.0</ele><time>2026-04-16T07:52:23.839Z</time></trkpt><trkpt lat="42.6559833" lon="-8.4009217"><ele>572.0</ele><time>2026-04-16T07:52:24.839Z</time></trkpt><trkpt lat="42.6559" lon="-8.400765"><ele>574.0</ele><time>2026-04-16T07:52:25.84Z</time></trkpt><trkpt lat="42.655785" lon="-8.4006283"><ele>576.0</ele><time>2026-04-16T07:52:26.84Z</time></trkpt><trkpt lat="42.6556683" lon="-8.400475"><ele>576.0</ele><time>2026-04-16T07:52:27.84Z</time></trkpt><trkpt lat="42.65555" lon="-8.40031"><ele>576.0</ele><time>2026-04-16T07:52:28.84Z</time></trkpt><trkpt lat="42.655425" lon="-8.4001267"><ele>576.0</ele><time>2026-04-16T07:52:29.84Z</time></trkpt><trkpt lat="42.6552783" lon="-8.3999417"><ele>577.75</ele><time>2026-04-16T07:52:30.84Z</time></trkpt><trkpt lat="42.6551533" lon="-8.3997667"><ele>579.5</ele><time>2026-04-16T07:52:31.84Z</time></trkpt><trkpt lat="42.6550533" lon="-8.3996367"><ele>581.25</ele><time>2026-04-16T07:52:32.839Z</time></trkpt><trkpt lat="42.654975" lon="-8.3995517"><ele>583.0</ele><time>2026-04-16T07:52:33.839Z</time></trkpt><trkpt lat="42.654925" lon="-8.3994833"><ele>583.0</ele><time>2026-04-16T07:52:34.84Z</time></trkpt><trkpt lat="42.6548633" lon="-8.399385"><ele>583.0</ele><time>2026-04-16T07:52:36.84Z</time></trkpt><trkpt lat="42.6548167" lon="-8.39932"><ele>583.0</ele><time>2026-04-16T07:52:39.839Z</time></trkpt><trkpt lat="42.6549033" lon="-8.3993517"><ele>583.0</ele><time>2026-04-16T07:52:43.839Z</time></trkpt><trkpt lat="42.6549617" lon="-8.3994117"><ele>583.0</ele><time>2026-04-16T07:52:45.839Z</time></trkpt><trkpt lat="42.65504" lon="-8.3993867"><ele>583.0</ele><time>2026-04-16T07:52:48.84Z</time></trkpt><trkpt lat="42.6550717" lon="-8.3992633"><ele>583.0</ele><time>2026-04-16T07:52:50.839Z</time></trkpt><trkpt lat="42.6550983" lon="-8.3991417"><ele>583.0</ele><time>2026-04-16T07:52:51.839Z</time></trkpt><trkpt lat="42.65515" lon="-8.39902"><ele>583.0</ele><time>2026-04-16T07:52:52.839Z</time></trkpt><trkpt lat="42.655235" lon="-8.3989083"><ele>583.0</ele><time>2026-04-16T07:52:53.84Z</time></trkpt><trkpt lat="42.655365" lon="-8.398815"><ele>582.3333333333334</ele><time>2026-04-16T07:52:54.84Z</time></trkpt><trkpt lat="42.65552" lon="-8.3987483"><ele>581.6666666666666</ele><time>2026-04-16T07:52:55.839Z</time></trkpt><trkpt lat="42.6556833" lon="-8.39873"><ele>581.0</ele><time>2026-04-16T07:52:56.84Z</time></trkpt><trkpt lat="42.6558633" lon="-8.3987667"><ele>581.0</ele><time>2026-04-16T07:52:57.839Z</time></trkpt><trkpt lat="42.65603" lon="-8.398825"><ele>581.0</ele><time>2026-04-16T07:52:58.839Z</time></trkpt><trkpt lat="42.6561867" lon="-8.3988967"><ele>581.0</ele><time>2026-04-16T07:52:59.839Z</time></trkpt><trkpt lat="42.6563283" lon="-8.39896"><ele>575.75</ele><time>2026-04-16T07:53:00.839Z</time></trkpt><trkpt lat="42.656465" lon="-8.3990183"><ele>570.5</ele><time>2026-04-16T07:53:01.84Z</time></trkpt><trkpt lat="42.6565917" lon="-8.399075"><ele>565.25</ele><time>2026-04-16T07:53:02.84Z</time></trkpt><trkpt lat="42.6567333" lon="-8.3991283"><ele>560.0</ele><time>2026-04-16T07:53:03.839Z</time></trkpt><trkpt lat="42.6568833" lon="-8.3991717"><ele>556.75</ele><time>2026-04-16T07:53:04.839Z</time></trkpt><trkpt lat="42.6570283" lon="-8.39919"><ele>553.5</ele><time>2026-04-16T07:53:05.839Z</time></trkpt><trkpt lat="42.6571617" lon="-8.399195"><ele>550.25</ele><time>2026-04-16T07:53:06.839Z</time></trkpt><trkpt lat="42.6572883" lon="-8.3991783"><ele>547.0</ele><time>2026-04-16T07:53:07.839Z</time></trkpt><trkpt lat="42.6574167" lon="-8.3991333"><ele>547.0</ele><time>2026-04-16T07:53:08.84Z</time></trkpt><trkpt lat="42.657555" lon="-8.3990783"><ele>547.0</ele><time>2026-04-16T07:53:09.839Z</time></trkpt><trkpt lat="42.65769" lon="-8.3990417"><ele>547.0</ele><time>2026-04-16T07:53:10.84Z</time></trkpt><trkpt lat="42.657825" lon="-8.3990367"><ele>547.0</ele><time>2026-04-16T07:53:11.839Z</time></trkpt><trkpt lat="42.6579717" lon="-8.3990617"><ele>543.6666666666667</ele><time>2026-04-16T07:53:12.84Z</time></trkpt><trkpt lat="42.6581317" lon="-8.3990817"><ele>540.3333333333334</ele><time>2026-04-16T07:53:13.84Z</time></trkpt><trkpt lat="42.65828" lon="-8.3991133"><ele>537.0</ele><time>2026-04-16T07:53:14.84Z</time></trkpt><trkpt lat="42.6584217" lon="-8.3991483"><ele>537.0</ele><time>2026-04-16T07:53:15.839Z</time></trkpt><trkpt lat="42.6585467" lon="-8.3991767"><ele>537.0</ele><time>2026-04-16T07:53:16.84Z</time></trkpt><trkpt lat="42.6586583" lon="-8.399185"><ele>537.0</ele><time>2026-04-16T07:53:17.839Z</time></trkpt><trkpt lat="42.658735" lon="-8.3991633"><ele>537.0</ele><time>2026-04-16T07:53:18.84Z</time></trkpt><trkpt lat="42.6587917" lon="-8.3990783"><ele>537.0</ele><time>2026-04-16T07:53:19.84Z</time></trkpt><trkpt lat="42.65886" lon="-8.3989883"><ele>534.8000000000001</ele><time>2026-04-16T07:53:20.84Z</time></trkpt><trkpt lat="42.6589317" lon="-8.398915"><ele>532.6</ele><time>2026-04-16T07:53:21.839Z</time></trkpt><trkpt lat="42.6590133" lon="-8.3988817"><ele>530.4000000000001</ele><time>2026-04-16T07:53:22.84Z</time></trkpt><trkpt lat="42.6590983" lon="-8.398875"><ele>528.2</ele><time>2026-04-16T07:53:23.84Z</time></trkpt><trkpt lat="42.6592083" lon="-8.3988783"><ele>526.0</ele><time>2026-04-16T07:53:24.839Z</time></trkpt><trkpt lat="42.6593583" lon="-8.3989"><ele>523.6666666666667</ele><time>2026-04-16T07:53:25.839Z</time></trkpt><trkpt lat="42.6595267" lon="-8.3989283"><ele>521.3333333333334</ele><time>2026-04-16T07:53:26.839Z</time></trkpt><trkpt lat="42.65971" lon="-8.3989533"><ele>519.0</ele><time>2026-04-16T07:53:27.839Z</time></trkpt><trkpt lat="42.659895" lon="-8.3989817"><ele>519.0</ele><time>2026-04-16T07:53:28.839Z</time></trkpt><trkpt lat="42.6600717" lon="-8.3990083"><ele>519.0</ele><time>2026-04-16T07:53:29.839Z</time></trkpt><trkpt lat="42.6602367" lon="-8.399025"><ele>519.0</ele><time>2026-04-16T07:53:30.839Z</time></trkpt><trkpt lat="42.660395" lon="-8.3990217"><ele>517.0</ele><time>2026-04-16T07:53:31.84Z</time></trkpt><trkpt lat="42.66054" lon="-8.3990033"><ele>515.0</ele><time>2026-04-16T07:53:32.84Z</time></trkpt><trkpt lat="42.660675" lon="-8.3990067"><ele>513.0</ele><time>2026-04-16T07:53:33.839Z</time></trkpt><trkpt lat="42.6608" lon="-8.3990283"><ele>511.0</ele><time>2026-04-16T07:53:34.839Z</time></trkpt><trkpt lat="42.6609383" lon="-8.3990767"><ele>511.0</ele><time>2026-04-16T07:53:35.839Z</time></trkpt><trkpt lat="42.66109" lon="-8.3991317"><ele>511.0</ele><time>2026-04-16T07:53:36.839Z</time></trkpt><trkpt lat="42.66125" lon="-8.39919"><ele>511.0</ele><time>2026-04-16T07:53:37.839Z</time></trkpt><trkpt lat="42.6613967" lon="-8.3992317"><ele>509.0</ele><time>2026-04-16T07:53:38.839Z</time></trkpt><trkpt lat="42.6615433" lon="-8.399275"><ele>507.0</ele><time>2026-04-16T07:53:39.839Z</time></trkpt><trkpt lat="42.6616883" lon="-8.39932"><ele>505.0</ele><time>2026-04-16T07:53:40.839Z</time></trkpt><trkpt lat="42.6618333" lon="-8.3993617"><ele>503.0</ele><time>2026-04-16T07:53:41.839Z</time></trkpt><trkpt lat="42.6619717" lon="-8.39939"><ele>499.75</ele><time>2026-04-16T07:53:42.84Z</time></trkpt><trkpt lat="42.662105" lon="-8.3994067"><ele>496.5</ele><time>2026-04-16T07:53:43.84Z</time></trkpt><trkpt lat="42.6622333" lon="-8.3993917"><ele>493.25</ele><time>2026-04-16T07:53:44.84Z</time></trkpt><trkpt lat="42.6623433" lon="-8.3993817"><ele>490.0</ele><time>2026-04-16T07:53:45.839Z</time></trkpt><trkpt lat="42.6624083" lon="-8.3993"><ele>490.00000000000006</ele><time>2026-04-16T07:53:47.839Z</time></trkpt><trkpt lat="42.6624767" lon="-8.399205"><ele>490.0</ele><time>2026-04-16T07:53:49.839Z</time></trkpt><trkpt lat="42.6625233" lon="-8.3991383"><ele>490.0</ele><time>2026-04-16T07:53:50.84Z</time></trkpt><trkpt lat="42.6625667" lon="-8.3990583"><ele>490.0</ele><time>2026-04-16T07:53:51.839Z</time></trkpt><trkpt lat="42.662605" lon="-8.3989717"><ele>490.00000000000006</ele><time>2026-04-16T07:53:52.839Z</time></trkpt><trkpt lat="42.6626467" lon="-8.398875"><ele>490.0</ele><time>2026-04-16T07:53:53.839Z</time></trkpt><trkpt lat="42.6626883" lon="-8.3987483"><ele>489.1666666666667</ele><time>2026-04-16T07:53:54.839Z</time></trkpt><trkpt lat="42.6627217" lon="-8.3986217"><ele>488.33333333333337</ele><time>2026-04-16T07:53:55.84Z</time></trkpt><trkpt lat="42.6627683" lon="-8.3984967"><ele>487.5</ele><time>2026-04-16T07:53:56.839Z</time></trkpt><trkpt lat="42.66281" lon="-8.398395"><ele>486.66666666666663</ele><time>2026-04-16T07:53:57.84Z</time></trkpt><trkpt lat="42.662855" lon="-8.3983083"><ele>485.8333333333333</ele><time>2026-04-16T07:53:58.839Z</time></trkpt><trkpt lat="42.6629033" lon="-8.3982233"><ele>485.0</ele><time>2026-04-16T07:53:59.839Z</time></trkpt><trkpt lat="42.6629767" lon="-8.398145"><ele>485.0</ele><time>2026-04-16T07:54:00.839Z</time></trkpt><trkpt lat="42.663095" lon="-8.3980067"><ele>485.0</ele><time>2026-04-16T07:54:01.839Z</time></trkpt><trkpt lat="42.6632117" lon="-8.39787"><ele>485.0</ele><time>2026-04-16T07:54:02.84Z</time></trkpt><trkpt lat="42.66332" lon="-8.3976967"><ele>489.3333333333333</ele><time>2026-04-16T07:54:03.839Z</time></trkpt><trkpt lat="42.6634067" lon="-8.3974917"><ele>493.66666666666663</ele><time>2026-04-16T07:54:04.839Z</time></trkpt><trkpt lat="42.663515" lon="-8.3972167"><ele>498.0</ele><time>2026-04-16T07:54:05.84Z</time></trkpt><trkpt lat="42.663605" lon="-8.3969417"><ele>497.0</ele><time>2026-04-16T07:54:06.839Z</time></trkpt><trkpt lat="42.663685" lon="-8.3966767"><ele>496.0</ele><time>2026-04-16T07:54:07.839Z</time></trkpt><trkpt lat="42.6637583" lon="-8.39642"><ele>495.0</ele><time>2026-04-16T07:54:08.839Z</time></trkpt><trkpt lat="42.6638333" lon="-8.3961783"><ele>499.0</ele><time>2026-04-16T07:54:09.839Z</time></trkpt><trkpt lat="42.6639033" lon="-8.3959133"><ele>503.0</ele><time>2026-04-16T07:54:10.84Z</time></trkpt><trkpt lat="42.6639683" lon="-8.3956683"><ele>507.0</ele><time>2026-04-16T07:54:11.84Z</time></trkpt><trkpt lat="42.66404" lon="-8.395405"><ele>511.66666666666663</ele><time>2026-04-16T07:54:12.839Z</time></trkpt><trkpt lat="42.6641133" lon="-8.3951533"><ele>516.3333333333333</ele><time>2026-04-16T07:54:13.84Z</time></trkpt><trkpt lat="42.6641867" lon="-8.3949117"><ele>521.0</ele><time>2026-04-16T07:54:14.84Z</time></trkpt><trkpt lat="42.66427" lon="-8.3946667"><ele>520.6666666666666</ele><time>2026-04-16T07:54:15.839Z</time></trkpt><trkpt lat="42.6643517" lon="-8.3944333"><ele>520.3333333333334</ele><time>2026-04-16T07:54:16.839Z</time></trkpt><trkpt lat="42.6644417" lon="-8.3942183"><ele>520.0</ele><time>2026-04-16T07:54:17.839Z</time></trkpt><trkpt lat="42.664525" lon="-8.3940283"><ele>523.0</ele><time>2026-04-16T07:54:18.839Z</time></trkpt><trkpt lat="42.664605" lon="-8.3938383"><ele>526.0</ele><time>2026-04-16T07:54:19.839Z</time></trkpt><trkpt lat="42.664675" lon="-8.39364"><ele>529.0</ele><time>2026-04-16T07:54:20.84Z</time></trkpt><trkpt lat="42.66474" lon="-8.3934617"><ele>529.0</ele><time>2026-04-16T07:54:21.84Z</time></trkpt><trkpt lat="42.66478" lon="-8.393285"><ele>529.0</ele><time>2026-04-16T07:54:22.839Z</time></trkpt><trkpt lat="42.6648133" lon="-8.393135"><ele>529.0</ele><time>2026-04-16T07:54:23.839Z</time></trkpt><trkpt lat="42.6648133" lon="-8.3930067"><ele>529.0</ele><time>2026-04-16T07:54:24.839Z</time></trkpt><trkpt lat="42.6647183" lon="-8.3929017"><ele>529.25</ele><time>2026-04-16T07:54:26.839Z</time></trkpt><trkpt lat="42.6646333" lon="-8.3928983"><ele>529.5</ele><time>2026-04-16T07:54:27.84Z</time></trkpt><trkpt lat="42.6645067" lon="-8.3928833"><ele>529.75</ele><time>2026-04-16T07:54:29.839Z</time></trkpt><trkpt lat="42.664375" lon="-8.3929983"><ele>530.0</ele><time>2026-04-16T07:54:30.839Z</time></trkpt><trkpt lat="42.6642683" lon="-8.393095"><ele>533.2</ele><time>2026-04-16T07:54:31.84Z</time></trkpt><trkpt lat="42.664175" lon="-8.3931317"><ele>536.4</ele><time>2026-04-16T07:54:32.839Z</time></trkpt><trkpt lat="42.664085" lon="-8.3931467"><ele>539.6</ele><time>2026-04-16T07:54:33.84Z</time></trkpt><trkpt lat="42.663985" lon="-8.3931133"><ele>542.8</ele><time>2026-04-16T07:54:34.839Z</time></trkpt><trkpt lat="42.6638667" lon="-8.3930517"><ele>546.0</ele><time>2026-04-16T07:54:35.84Z</time></trkpt><trkpt lat="42.6637167" lon="-8.3929833"><ele>551.6666666666666</ele><time>2026-04-16T07:54:36.84Z</time></trkpt><trkpt lat="42.6635683" lon="-8.3929067"><ele>557.3333333333333</ele><time>2026-04-16T07:54:37.839Z</time></trkpt><trkpt lat="42.6634067" lon="-8.392815"><ele>563.0</ele><time>2026-04-16T07:54:38.84Z</time></trkpt><trkpt lat="42.6632167" lon="-8.3927067"><ele>563.0</ele><time>2026-04-16T07:54:39.84Z</time></trkpt><trkpt lat="42.6630267" lon="-8.39259"><ele>563.0</ele><time>2026-04-16T07:54:40.839Z</time></trkpt><trkpt lat="42.66284" lon="-8.3924917"><ele>563.0</ele><time>2026-04-16T07:54:41.839Z</time></trkpt><trkpt lat="42.6626567" lon="-8.392385"><ele>569.6666666666666</ele><time>2026-04-16T07:54:42.839Z</time></trkpt><trkpt lat="42.6624867" lon="-8.3922883"><ele>576.3333333333334</ele><time>2026-04-16T07:54:43.84Z</time></trkpt><trkpt lat="42.6623117" lon="-8.39221"><ele>583.0</ele><time>2026-04-16T07:54:44.839Z</time></trkpt><trkpt lat="42.6621433" lon="-8.39211"><ele>584.3333333333334</ele><time>2026-04-16T07:54:45.84Z</time></trkpt><trkpt lat="42.6619667" lon="-8.3920267"><ele>585.6666666666666</ele><time>2026-04-16T07:54:46.839Z</time></trkpt><trkpt lat="42.6617917" lon="-8.3919483"><ele>587.0</ele><time>2026-04-16T07:54:47.84Z</time></trkpt><trkpt lat="42.66162" lon="-8.3918433"><ele>590.0</ele><time>2026-04-16T07:54:48.839Z</time></trkpt><trkpt lat="42.6614617" lon="-8.3917183"><ele>593.0</ele><time>2026-04-16T07:54:49.84Z</time></trkpt><trkpt lat="42.6612867" lon="-8.391595"><ele>596.0</ele><time>2026-04-16T07:54:50.839Z</time></trkpt><trkpt lat="42.661105" lon="-8.391445"><ele>600.3333333333333</ele><time>2026-04-16T07:54:51.84Z</time></trkpt><trkpt lat="42.6609283" lon="-8.39128"><ele>604.6666666666666</ele><time>2026-04-16T07:54:52.839Z</time></trkpt><trkpt lat="42.6607633" lon="-8.3911183"><ele>609.0</ele><time>2026-04-16T07:54:53.839Z</time></trkpt><trkpt lat="42.66063" lon="-8.3909433"><ele>609.0</ele><time>2026-04-16T07:54:54.839Z</time></trkpt><trkpt lat="42.6605067" lon="-8.3907817"><ele>609.0</ele><time>2026-04-16T07:54:55.84Z</time></trkpt><trkpt lat="42.6604" lon="-8.3906183"><ele>609.0</ele><time>2026-04-16T07:54:56.84Z</time></trkpt><trkpt lat="42.6603117" lon="-8.3904433"><ele>612.0</ele><time>2026-04-16T07:54:57.84Z</time></trkpt><trkpt lat="42.6602633" lon="-8.3902533"><ele>615.0</ele><time>2026-04-16T07:54:58.839Z</time></trkpt><trkpt lat="42.6602033" lon="-8.3900667"><ele>618.0</ele><time>2026-04-16T07:54:59.839Z</time></trkpt><trkpt lat="42.6601433" lon="-8.38988"><ele>621.0</ele><time>2026-04-16T07:55:00.839Z</time></trkpt><trkpt lat="42.6600867" lon="-8.3897033"><ele>621.0</ele><time>2026-04-16T07:55:01.839Z</time></trkpt><trkpt lat="42.6600367" lon="-8.3895333"><ele>621.0</ele><time>2026-04-16T07:55:02.84Z</time></trkpt><trkpt lat="42.659995" lon="-8.389385"><ele>621.0</ele><time>2026-04-16T07:55:03.839Z</time></trkpt><trkpt lat="42.6599667" lon="-8.3892583"><ele>621.0</ele><time>2026-04-16T07:55:04.84Z</time></trkpt><trkpt lat="42.6599567" lon="-8.389155"><ele>621.0</ele><time>2026-04-16T07:55:05.84Z</time></trkpt><trkpt lat="42.6599633" lon="-8.3890583"><ele>621.0</ele><time>2026-04-16T07:55:06.839Z</time></trkpt><trkpt lat="42.6599867" lon="-8.388965"><ele>621.0</ele><time>2026-04-16T07:55:07.84Z</time></trkpt><trkpt lat="42.66004" lon="-8.38887"><ele>621.0</ele><time>2026-04-16T07:55:08.839Z</time></trkpt><trkpt lat="42.66013" lon="-8.3887167"><ele>621.0</ele><time>2026-04-16T07:55:09.839Z</time></trkpt><trkpt lat="42.6601883" lon="-8.3886033"><ele>621.0</ele><time>2026-04-16T07:55:10.84Z</time></trkpt><trkpt lat="42.6602267" lon="-8.38851"><ele>621.0</ele><time>2026-04-16T07:55:11.84Z</time></trkpt><trkpt lat="42.660255" lon="-8.38839"><ele>621.0</ele><time>2026-04-16T07:55:13.84Z</time></trkpt><trkpt lat="42.66019" lon="-8.38829"><ele>621.0</ele><time>2026-04-16T07:55:15.839Z</time></trkpt><trkpt lat="42.6601183" lon="-8.3882367"><ele>621.0</ele><time>2026-04-16T07:55:16.839Z</time></trkpt><trkpt lat="42.6600233" lon="-8.3881767"><ele>621.0</ele><time>2026-04-16T07:55:17.839Z</time></trkpt><trkpt lat="42.6598983" lon="-8.3881"><ele>621.0</ele><time>2026-04-16T07:55:18.84Z</time></trkpt><trkpt lat="42.6597633" lon="-8.38802"><ele>621.0</ele><time>2026-04-16T07:55:19.839Z</time></trkpt><trkpt lat="42.65962" lon="-8.3879383"><ele>621.0</ele><time>2026-04-16T07:55:20.84Z</time></trkpt><trkpt lat="42.6594833" lon="-8.3878533"><ele>619.5</ele><time>2026-04-16T07:55:21.839Z</time></trkpt><trkpt lat="42.6593517" lon="-8.3877717"><ele>618.0</ele><time>2026-04-16T07:55:22.84Z</time></trkpt><trkpt lat="42.65923" lon="-8.3876783"><ele>616.5</ele><time>2026-04-16T07:55:23.84Z</time></trkpt><trkpt lat="42.6591067" lon="-8.387585"><ele>615.0</ele><time>2026-04-16T07:55:24.839Z</time></trkpt><trkpt lat="42.65899" lon="-8.3874983"><ele>615.0</ele><time>2026-04-16T07:55:25.84Z</time></trkpt><trkpt lat="42.6588567" lon="-8.3874033"><ele>615.0</ele><time>2026-04-16T07:55:26.839Z</time></trkpt><trkpt lat="42.6587183" lon="-8.3873033"><ele>615.0</ele><time>2026-04-16T07:55:27.839Z</time></trkpt><trkpt lat="42.6585683" lon="-8.3871983"><ele>614.0</ele><time>2026-04-16T07:55:28.84Z</time></trkpt><trkpt lat="42.6584333" lon="-8.3870917"><ele>613.0</ele><time>2026-04-16T07:55:29.839Z</time></trkpt><trkpt lat="42.6583083" lon="-8.3870117"><ele>612.0</ele><time>2026-04-16T07:55:30.84Z</time></trkpt><trkpt lat="42.6582183" lon="-8.3869483"><ele>611.0</ele><time>2026-04-16T07:55:31.839Z</time></trkpt><trkpt lat="42.658155" lon="-8.386885"><ele>611.0</ele><time>2026-04-16T07:55:32.839Z</time></trkpt><trkpt lat="42.6581083" lon="-8.386825"><ele>611.0</ele><time>2026-04-16T07:55:33.84Z</time></trkpt><trkpt lat="42.6580817" lon="-8.386715"><ele>611.0</ele><time>2026-04-16T07:55:35.839Z</time></trkpt><trkpt lat="42.6581367" lon="-8.3865767"><ele>611.0</ele><time>2026-04-16T07:55:37.84Z</time></trkpt><trkpt lat="42.6581933" lon="-8.386485"><ele>611.0</ele><time>2026-04-16T07:55:38.839Z</time></trkpt><trkpt lat="42.6582683" lon="-8.38637"><ele>613.3333333333333</ele><time>2026-04-16T07:55:39.84Z</time></trkpt><trkpt lat="42.6583533" lon="-8.38622"><ele>615.6666666666666</ele><time>2026-04-16T07:55:40.84Z</time></trkpt><trkpt lat="42.65846" lon="-8.3860417"><ele>618.0</ele><time>2026-04-16T07:55:41.839Z</time></trkpt><trkpt lat="42.658575" lon="-8.3858467"><ele>621.3333333333334</ele><time>2026-04-16T07:55:42.84Z</time></trkpt><trkpt lat="42.65867" lon="-8.385665"><ele>624.6666666666667</ele><time>2026-04-16T07:55:43.84Z</time></trkpt><trkpt lat="42.6587733" lon="-8.3854917"><ele>628.0</ele><time>2026-04-16T07:55:44.839Z</time></trkpt><trkpt lat="42.658865" lon="-8.3853267"><ele>628.0</ele><time>2026-04-16T07:55:45.839Z</time></trkpt><trkpt lat="42.65895" lon="-8.3851733"><ele>628.0</ele><time>2026-04-16T07:55:46.839Z</time></trkpt><trkpt lat="42.65903" lon="-8.3850433"><ele>628.0</ele><time>2026-04-16T07:55:47.84Z</time></trkpt><trkpt lat="42.65911" lon="-8.3849283"><ele>628.0</ele><time>2026-04-16T07:55:48.84Z</time></trkpt><trkpt lat="42.6591883" lon="-8.3848317"><ele>628.0</ele><time>2026-04-16T07:55:49.84Z</time></trkpt><trkpt lat="42.6592717" lon="-8.3847467"><ele>628.0</ele><time>2026-04-16T07:55:50.839Z</time></trkpt><trkpt lat="42.6593533" lon="-8.3846983"><ele>628.0</ele><time>2026-04-16T07:55:51.839Z</time></trkpt><trkpt lat="42.65945" lon="-8.3846633"><ele>628.0</ele><time>2026-04-16T07:55:52.839Z</time></trkpt><trkpt lat="42.6595583" lon="-8.3846567"><ele>628.0</ele><time>2026-04-16T07:55:53.84Z</time></trkpt><trkpt lat="42.6596833" lon="-8.3847117"><ele>628.5</ele><time>2026-04-16T07:55:54.84Z</time></trkpt><trkpt lat="42.6598267" lon="-8.3847817"><ele>629.0</ele><time>2026-04-16T07:55:55.84Z</time></trkpt><trkpt lat="42.6599583" lon="-8.38484"><ele>629.5</ele><time>2026-04-16T07:55:56.839Z</time></trkpt><trkpt lat="42.66007" lon="-8.38487"><ele>630.0</ele><time>2026-04-16T07:55:57.839Z</time></trkpt><trkpt lat="42.66016" lon="-8.3848667"><ele>630.0</ele><time>2026-04-16T07:55:58.84Z</time></trkpt><trkpt lat="42.6602683" lon="-8.384775"><ele>630.0</ele><time>2026-04-16T07:56:00.839Z</time></trkpt><trkpt lat="42.6602917" lon="-8.3846533"><ele>630.0</ele><time>2026-04-16T07:56:01.839Z</time></trkpt><trkpt lat="42.6603083" lon="-8.38449"><ele>630.0</ele><time>2026-04-16T07:56:02.839Z</time></trkpt><trkpt lat="42.660325" lon="-8.3842783"><ele>630.0</ele><time>2026-04-16T07:56:03.84Z</time></trkpt><trkpt lat="42.6603417" lon="-8.3840033"><ele>630.0</ele><time>2026-04-16T07:56:04.839Z</time></trkpt><trkpt lat="42.6603733" lon="-8.3837417"><ele>630.0</ele><time>2026-04-16T07:56:05.84Z</time></trkpt><trkpt lat="42.66041" lon="-8.3834833"><ele>630.0</ele><time>2026-04-16T07:56:06.84Z</time></trkpt><trkpt lat="42.6604483" lon="-8.38326"><ele>630.0</ele><time>2026-04-16T07:56:07.839Z</time></trkpt><trkpt lat="42.6604817" lon="-8.3830683"><ele>630.0</ele><time>2026-04-16T07:56:08.839Z</time></trkpt><trkpt lat="42.6605183" lon="-8.3829233"><ele>630.0</ele><time>2026-04-16T07:56:09.84Z</time></trkpt><trkpt lat="42.6605417" lon="-8.3828217"><ele>630.5</ele><time>2026-04-16T07:56:10.839Z</time></trkpt><trkpt lat="42.660655" lon="-8.38273"><ele>631.0</ele><time>2026-04-16T07:56:12.839Z</time></trkpt><trkpt lat="42.6607533" lon="-8.3827267"><ele>631.5</ele><time>2026-04-16T07:56:13.84Z</time></trkpt><trkpt lat="42.6608833" lon="-8.382725"><ele>632.0</ele><time>2026-04-16T07:56:14.84Z</time></trkpt><trkpt lat="42.6610567" lon="-8.3827283"><ele>632.6666666666666</ele><time>2026-04-16T07:56:15.839Z</time></trkpt><trkpt lat="42.6612567" lon="-8.3827383"><ele>633.3333333333334</ele><time>2026-04-16T07:56:16.84Z</time></trkpt><trkpt lat="42.6614817" lon="-8.3827167"><ele>634.0</ele><time>2026-04-16T07:56:17.84Z</time></trkpt><trkpt lat="42.6616883" lon="-8.3826967"><ele>634.0</ele><time>2026-04-16T07:56:18.84Z</time></trkpt><trkpt lat="42.6618883" lon="-8.38267"><ele>634.0</ele><time>2026-04-16T07:56:19.84Z</time></trkpt><trkpt lat="42.6620917" lon="-8.3826383"><ele>634.0</ele><time>2026-04-16T07:56:20.84Z</time></trkpt><trkpt lat="42.6622883" lon="-8.3826183"><ele>634.0</ele><time>2026-04-16T07:56:21.841Z</time></trkpt><trkpt lat="42.662475" lon="-8.3826"><ele>634.0</ele><time>2026-04-16T07:56:22.84Z</time></trkpt><trkpt lat="42.662655" lon="-8.382585"><ele>634.0</ele><time>2026-04-16T07:56:23.84Z</time></trkpt><trkpt lat="42.6628333" lon="-8.382545"><ele>635.0</ele><time>2026-04-16T07:56:24.84Z</time></trkpt><trkpt lat="42.6630083" lon="-8.38252"><ele>636.0</ele><time>2026-04-16T07:56:25.841Z</time></trkpt><trkpt lat="42.6631683" lon="-8.3825233"><ele>637.0</ele><time>2026-04-16T07:56:26.841Z</time></trkpt><trkpt lat="42.6633117" lon="-8.38251"><ele>637.0</ele><time>2026-04-16T07:56:27.84Z</time></trkpt><trkpt lat="42.663405" lon="-8.38248"><ele>637.0</ele><time>2026-04-16T07:56:28.84Z</time></trkpt><trkpt lat="42.6634983" lon="-8.38246"><ele>637.0</ele><time>2026-04-16T07:56:30.84Z</time></trkpt><trkpt lat="42.6635083" lon="-8.3825533"><ele>637.0</ele><time>2026-04-16T07:56:32.841Z</time></trkpt><trkpt lat="42.66345" lon="-8.3826783"><ele>637.0</ele><time>2026-04-16T07:56:33.84Z</time></trkpt><trkpt lat="42.663415" lon="-8.3827867"><ele>637.0</ele><time>2026-04-16T07:56:34.841Z</time></trkpt><trkpt lat="42.6634133" lon="-8.3829217"><ele>637.0</ele><time>2026-04-16T07:56:36.84Z</time></trkpt><trkpt lat="42.6635517" lon="-8.3828483"><ele>637.0</ele><time>2026-04-16T07:56:39.841Z</time></trkpt><trkpt lat="42.6636533" lon="-8.3827517"><ele>637.0</ele><time>2026-04-16T07:56:40.84Z</time></trkpt><trkpt lat="42.663735" lon="-8.3827"><ele>637.6</ele><time>2026-04-16T07:56:41.841Z</time></trkpt><trkpt lat="42.6638167" lon="-8.3826833"><ele>638.2</ele><time>2026-04-16T07:56:42.84Z</time></trkpt><trkpt lat="42.6638967" lon="-8.3827083"><ele>638.8</ele><time>2026-04-16T07:56:43.84Z</time></trkpt><trkpt lat="42.6639817" lon="-8.3827867"><ele>639.4</ele><time>2026-04-16T07:56:44.841Z</time></trkpt><trkpt lat="42.6640717" lon="-8.3829083"><ele>640.0</ele><time>2026-04-16T07:56:45.84Z</time></trkpt><trkpt lat="42.6641617" lon="-8.3830767"><ele>641.6666666666667</ele><time>2026-04-16T07:56:46.841Z</time></trkpt><trkpt lat="42.6642667" lon="-8.3833067"><ele>643.3333333333334</ele><time>2026-04-16T07:56:47.84Z</time></trkpt><trkpt lat="42.6643767" lon="-8.3835283"><ele>645.0</ele><time>2026-04-16T07:56:48.84Z</time></trkpt><trkpt lat="42.664475" lon="-8.3837233"><ele>646.5</ele><time>2026-04-16T07:56:49.84Z</time></trkpt><trkpt lat="42.66458" lon="-8.3838983"><ele>648.0</ele><time>2026-04-16T07:56:50.84Z</time></trkpt><trkpt lat="42.6646633" lon="-8.3840633"><ele>649.5</ele><time>2026-04-16T07:56:51.841Z</time></trkpt><trkpt lat="42.66473" lon="-8.384195"><ele>651.0</ele><time>2026-04-16T07:56:52.84Z</time></trkpt><trkpt lat="42.6647767" lon="-8.3842667"><ele>651.0</ele><time>2026-04-16T07:56:53.84Z</time></trkpt><trkpt lat="42.6648333" lon="-8.3841833"><ele>651.0</ele><time>2026-04-16T07:57:04.841Z</time></trkpt><trkpt lat="42.6648783" lon="-8.3841217"><ele>651.0</ele><time>2026-04-16T07:57:05.841Z</time></trkpt><trkpt lat="42.6649483" lon="-8.3840417"><ele>651.0</ele><time>2026-04-16T07:57:06.84Z</time></trkpt><trkpt lat="42.6650567" lon="-8.3839483"><ele>651.0</ele><time>2026-04-16T07:57:07.841Z</time></trkpt><trkpt lat="42.66517" lon="-8.38385"><ele>651.0</ele><time>2026-04-16T07:57:08.84Z</time></trkpt><trkpt lat="42.6653033" lon="-8.3837317"><ele>651.0</ele><time>2026-04-16T07:57:09.84Z</time></trkpt><trkpt lat="42.66545" lon="-8.383595"><ele>651.0</ele><time>2026-04-16T07:57:10.841Z</time></trkpt><trkpt lat="42.665605" lon="-8.38346"><ele>651.0</ele><time>2026-04-16T07:57:11.84Z</time></trkpt><trkpt lat="42.66577" lon="-8.3833217"><ele>651.0</ele><time>2026-04-16T07:57:12.84Z</time></trkpt><trkpt lat="42.66595" lon="-8.3831833"><ele>651.0</ele><time>2026-04-16T07:57:13.84Z</time></trkpt><trkpt lat="42.66612" lon="-8.383035"><ele>651.0</ele><time>2026-04-16T07:57:14.841Z</time></trkpt><trkpt lat="42.666295" lon="-8.3828983"><ele>651.0</ele><time>2026-04-16T07:57:15.841Z</time></trkpt><trkpt lat="42.6664783" lon="-8.3827583"><ele>651.0</ele><time>2026-04-16T07:57:16.84Z</time></trkpt><trkpt lat="42.6666683" lon="-8.3826083"><ele>651.0</ele><time>2026-04-16T07:57:17.84Z</time></trkpt><trkpt lat="42.6668483" lon="-8.3824583"><ele>651.0</ele><time>2026-04-16T07:57:18.841Z</time></trkpt><trkpt lat="42.667015" lon="-8.3823067"><ele>651.0</ele><time>2026-04-16T07:57:19.841Z</time></trkpt><trkpt lat="42.667185" lon="-8.3821633"><ele>649.0</ele><time>2026-04-16T07:57:20.84Z</time></trkpt><trkpt lat="42.6673617" lon="-8.3820217"><ele>647.0</ele><time>2026-04-16T07:57:21.841Z</time></trkpt><trkpt lat="42.6675333" lon="-8.3818717"><ele>645.0</ele><time>2026-04-16T07:57:22.841Z</time></trkpt><trkpt lat="42.6677167" lon="-8.3817383"><ele>644.3333333333334</ele><time>2026-04-16T07:57:23.84Z</time></trkpt><trkpt lat="42.667895" lon="-8.3815967"><ele>643.6666666666667</ele><time>2026-04-16T07:57:24.841Z</time></trkpt><trkpt lat="42.6680633" lon="-8.38146"><ele>643.0</ele><time>2026-04-16T07:57:25.841Z</time></trkpt><trkpt lat="42.6682233" lon="-8.381325"><ele>642.75</ele><time>2026-04-16T07:57:26.84Z</time></trkpt><trkpt lat="42.6683633" lon="-8.3812083"><ele>642.5</ele><time>2026-04-16T07:57:27.84Z</time></trkpt><trkpt lat="42.668495" lon="-8.38112"><ele>642.25</ele><time>2026-04-16T07:57:28.841Z</time></trkpt><trkpt lat="42.6686083" lon="-8.38104"><ele>642.0</ele><time>2026-04-16T07:57:29.841Z</time></trkpt><trkpt lat="42.6687017" lon="-8.3809383"><ele>641.8</ele><time>2026-04-16T07:57:30.84Z</time></trkpt><trkpt lat="42.6687883" lon="-8.3808617"><ele>641.6</ele><time>2026-04-16T07:57:31.84Z</time></trkpt><trkpt lat="42.6688967" lon="-8.38073"><ele>641.4</ele><time>2026-04-16T07:57:33.841Z</time></trkpt><trkpt lat="42.6689183" lon="-8.3806417"><ele>641.1999999999999</ele><time>2026-04-16T07:57:34.84Z</time></trkpt><trkpt lat="42.6689083" lon="-8.3805517"><ele>641.0</ele><time>2026-04-16T07:57:35.841Z</time></trkpt><trkpt lat="42.66888" lon="-8.3804333"><ele>641.5</ele><time>2026-04-16T07:57:36.841Z</time></trkpt><trkpt lat="42.668855" lon="-8.3802867"><ele>642.0</ele><time>2026-04-16T07:57:37.841Z</time></trkpt><trkpt lat="42.668865" lon="-8.38012"><ele>642.5</ele><time>2026-04-16T07:57:38.84Z</time></trkpt><trkpt lat="42.6689067" lon="-8.3799467"><ele>643.0</ele><time>2026-04-16T07:57:39.841Z</time></trkpt><trkpt lat="42.6689583" lon="-8.379745"><ele>643.6666666666667</ele><time>2026-04-16T07:57:40.841Z</time></trkpt><trkpt lat="42.6690083" lon="-8.3795267"><ele>644.3333333333334</ele><time>2026-04-16T07:57:41.84Z</time></trkpt><trkpt lat="42.6690533" lon="-8.3792883"><ele>645.0</ele><time>2026-04-16T07:57:42.84Z</time></trkpt><trkpt lat="42.6691033" lon="-8.3790333"><ele>645.0</ele><time>2026-04-16T07:57:43.84Z</time></trkpt><trkpt lat="42.6691467" lon="-8.3787633"><ele>645.0</ele><time>2026-04-16T07:57:44.84Z</time></trkpt><trkpt lat="42.66919" lon="-8.3784967"><ele>645.0</ele><time>2026-04-16T07:57:45.84Z</time></trkpt><trkpt lat="42.669245" lon="-8.37823"><ele>645.6666666666666</ele><time>2026-04-16T07:57:46.841Z</time></trkpt><trkpt lat="42.6692917" lon="-8.3779467"><ele>646.3333333333333</ele><time>2026-04-16T07:57:47.841Z</time></trkpt><trkpt lat="42.6693417" lon="-8.3776867"><ele>647.0</ele><time>2026-04-16T07:57:48.84Z</time></trkpt><trkpt lat="42.66938" lon="-8.3774433"><ele>647.0</ele><time>2026-04-16T07:57:49.841Z</time></trkpt><trkpt lat="42.6694233" lon="-8.37722"><ele>647.0</ele><time>2026-04-16T07:57:50.84Z</time></trkpt><trkpt lat="42.6694867" lon="-8.37705"><ele>647.0</ele><time>2026-04-16T07:57:51.84Z</time></trkpt><trkpt lat="42.6695583" lon="-8.3769183"><ele>647.0</ele><time>2026-04-16T07:57:52.841Z</time></trkpt><trkpt lat="42.66964" lon="-8.3768233"><ele>648.5</ele><time>2026-04-16T07:57:53.84Z</time></trkpt><trkpt lat="42.6697367" lon="-8.376725"><ele>650.0</ele><time>2026-04-16T07:57:54.841Z</time></trkpt><trkpt lat="42.6698383" lon="-8.376615"><ele>651.5</ele><time>2026-04-16T07:57:55.841Z</time></trkpt><trkpt lat="42.6699483" lon="-8.3765033"><ele>653.0</ele><time>2026-04-16T07:57:56.841Z</time></trkpt><trkpt lat="42.67006" lon="-8.3763783"><ele>653.5</ele><time>2026-04-16T07:57:57.841Z</time></trkpt><trkpt lat="42.6701683" lon="-8.3762633"><ele>654.0</ele><time>2026-04-16T07:57:58.841Z</time></trkpt><trkpt lat="42.6702683" lon="-8.37617"><ele>654.5</ele><time>2026-04-16T07:57:59.841Z</time></trkpt><trkpt lat="42.67038" lon="-8.3760933"><ele>655.0</ele><time>2026-04-16T07:58:00.84Z</time></trkpt><trkpt lat="42.6704883" lon="-8.3760517"><ele>655.5</ele><time>2026-04-16T07:58:01.84Z</time></trkpt><trkpt lat="42.6706083" lon="-8.3760117"><ele>656.0</ele><time>2026-04-16T07:58:02.84Z</time></trkpt><trkpt lat="42.670735" lon="-8.375955"><ele>656.5</ele><time>2026-04-16T07:58:03.841Z</time></trkpt><trkpt lat="42.6708367" lon="-8.375895"><ele>657.0</ele><time>2026-04-16T07:58:04.84Z</time></trkpt><trkpt lat="42.670925" lon="-8.375815"><ele>657.0</ele><time>2026-04-16T07:58:05.841Z</time></trkpt><trkpt lat="42.6710283" lon="-8.3757217"><ele>657.0</ele><time>2026-04-16T07:58:06.84Z</time></trkpt><trkpt lat="42.6711" lon="-8.3756317"><ele>657.0</ele><time>2026-04-16T07:58:07.84Z</time></trkpt><trkpt lat="42.67117" lon="-8.375545"><ele>657.0</ele><time>2026-04-16T07:58:08.84Z</time></trkpt><trkpt lat="42.67125" lon="-8.3754483"><ele>657.0</ele><time>2026-04-16T07:58:09.84Z</time></trkpt><trkpt lat="42.6713333" lon="-8.3753717"><ele>657.2</ele><time>2026-04-16T07:58:10.84Z</time></trkpt><trkpt lat="42.67141" lon="-8.3752933"><ele>657.4000000000001</ele><time>2026-04-16T07:58:11.841Z</time></trkpt><trkpt lat="42.6714983" lon="-8.3752183"><ele>657.5999999999999</ele><time>2026-04-16T07:58:12.841Z</time></trkpt><trkpt lat="42.67158" lon="-8.375145"><ele>657.8</ele><time>2026-04-16T07:58:13.841Z</time></trkpt><trkpt lat="42.6716517" lon="-8.3751"><ele>658.0</ele><time>2026-04-16T07:58:14.841Z</time></trkpt><trkpt lat="42.6717417" lon="-8.3750733"><ele>658.0</ele><time>2026-04-16T07:58:15.84Z</time></trkpt><trkpt lat="42.6718383" lon="-8.3750583"><ele>658.0</ele><time>2026-04-16T07:58:16.84Z</time></trkpt><trkpt lat="42.6719467" lon="-8.3750867"><ele>658.0</ele><time>2026-04-16T07:58:17.841Z</time></trkpt><trkpt lat="42.6720667" lon="-8.3751517"><ele>658.0</ele><time>2026-04-16T07:58:18.841Z</time></trkpt><trkpt lat="42.6722067" lon="-8.3752317"><ele>659.0</ele><time>2026-04-16T07:58:19.841Z</time></trkpt><trkpt lat="42.672375" lon="-8.3753183"><ele>660.0</ele><time>2026-04-16T07:58:20.841Z</time></trkpt><trkpt lat="42.6725333" lon="-8.37538"><ele>661.0</ele><time>2026-04-16T07:58:21.841Z</time></trkpt><trkpt lat="42.6726817" lon="-8.3754083"><ele>660.1999999999999</ele><time>2026-04-16T07:58:22.84Z</time></trkpt><trkpt lat="42.6728033" lon="-8.3754067"><ele>659.4</ele><time>2026-04-16T07:58:23.84Z</time></trkpt><trkpt lat="42.672905" lon="-8.3753717"><ele>658.6</ele><time>2026-04-16T07:58:24.84Z</time></trkpt><trkpt lat="42.6729783" lon="-8.3752917"><ele>657.8</ele><time>2026-04-16T07:58:25.84Z</time></trkpt><trkpt lat="42.6730317" lon="-8.3752"><ele>657.0</ele><time>2026-04-16T07:58:26.84Z</time></trkpt><trkpt lat="42.673075" lon="-8.3750933"><ele>657.0</ele><time>2026-04-16T07:58:27.841Z</time></trkpt><trkpt lat="42.673095" lon="-8.37498"><ele>657.0</ele><time>2026-04-16T07:58:28.84Z</time></trkpt><trkpt lat="42.67308" lon="-8.3748383"><ele>657.0</ele><time>2026-04-16T07:58:29.84Z</time></trkpt><trkpt lat="42.67305" lon="-8.374685"><ele>657.0</ele><time>2026-04-16T07:58:30.84Z</time></trkpt><trkpt lat="42.6730067" lon="-8.374525"><ele>657.0</ele><time>2026-04-16T07:58:31.84Z</time></trkpt><trkpt lat="42.6729217" lon="-8.3743467"><ele>658.0</ele><time>2026-04-16T07:58:32.841Z</time></trkpt><trkpt lat="42.6728267" lon="-8.3741883"><ele>659.0</ele><time>2026-04-16T07:58:33.84Z</time></trkpt><trkpt lat="42.6727383" lon="-8.3740483"><ele>660.0</ele><time>2026-04-16T07:58:34.84Z</time></trkpt><trkpt lat="42.67266" lon="-8.3739217"><ele>661.0</ele><time>2026-04-16T07:58:35.841Z</time></trkpt><trkpt lat="42.67259" lon="-8.3737983"><ele>661.8</ele><time>2026-04-16T07:58:36.841Z</time></trkpt><trkpt lat="42.6725383" lon="-8.373665"><ele>662.5999999999999</ele><time>2026-04-16T07:58:37.84Z</time></trkpt><trkpt lat="42.6725117" lon="-8.3735333"><ele>663.4</ele><time>2026-04-16T07:58:38.84Z</time></trkpt><trkpt lat="42.6725083" lon="-8.37341"><ele>664.2</ele><time>2026-04-16T07:58:39.841Z</time></trkpt><trkpt lat="42.6725267" lon="-8.37329"><ele>665.0</ele><time>2026-04-16T07:58:40.841Z</time></trkpt><trkpt lat="42.6725633" lon="-8.37318"><ele>665.0</ele><time>2026-04-16T07:58:41.841Z</time></trkpt><trkpt lat="42.6726133" lon="-8.3730567"><ele>665.0</ele><time>2026-04-16T07:58:42.84Z</time></trkpt><trkpt lat="42.6726967" lon="-8.37293"><ele>665.0</ele><time>2026-04-16T07:58:43.84Z</time></trkpt><trkpt lat="42.67279" lon="-8.372795"><ele>665.0</ele><time>2026-04-16T07:58:44.84Z</time></trkpt><trkpt lat="42.672885" lon="-8.3726517"><ele>664.6666666666666</ele><time>2026-04-16T07:58:45.841Z</time></trkpt><trkpt lat="42.67298" lon="-8.3725117"><ele>664.3333333333334</ele><time>2026-04-16T07:58:46.841Z</time></trkpt><trkpt lat="42.6730933" lon="-8.3723517"><ele>664.0</ele><time>2026-04-16T07:58:47.841Z</time></trkpt><trkpt lat="42.6732133" lon="-8.37218"><ele>663.5</ele><time>2026-04-16T07:58:48.84Z</time></trkpt><trkpt lat="42.67333" lon="-8.37201"><ele>663.0</ele><time>2026-04-16T07:58:49.841Z</time></trkpt><trkpt lat="42.6734333" lon="-8.3718667"><ele>662.5</ele><time>2026-04-16T07:58:50.841Z</time></trkpt><trkpt lat="42.6735133" lon="-8.371745"><ele>662.0</ele><time>2026-04-16T07:58:51.84Z</time></trkpt><trkpt lat="42.67357" lon="-8.3716633"><ele>661.8</ele><time>2026-04-16T07:58:52.841Z</time></trkpt><trkpt lat="42.6736317" lon="-8.3715983"><ele>661.6</ele><time>2026-04-16T07:58:53.841Z</time></trkpt><trkpt lat="42.673685" lon="-8.3715517"><ele>661.4</ele><time>2026-04-16T07:58:54.84Z</time></trkpt><trkpt lat="42.673765" lon="-8.3714917"><ele>661.1999999999999</ele><time>2026-04-16T07:58:56.84Z</time></trkpt><trkpt lat="42.6737917" lon="-8.3713717"><ele>661.0</ele><time>2026-04-16T07:58:58.841Z</time></trkpt><trkpt lat="42.673745" lon="-8.371205"><ele>661.8333333333334</ele><time>2026-04-16T07:59:00.84Z</time></trkpt><trkpt lat="42.67373" lon="-8.3711067"><ele>662.6666666666667</ele><time>2026-04-16T07:59:01.841Z</time></trkpt><trkpt lat="42.6737083" lon="-8.371025"><ele>663.5</ele><time>2026-04-16T07:59:02.841Z</time></trkpt><trkpt lat="42.6736533" lon="-8.3709333"><ele>664.3333333333334</ele><time>2026-04-16T07:59:04.841Z</time></trkpt><trkpt lat="42.67359" lon="-8.3709567"><ele>665.1666666666666</ele><time>2026-04-16T07:59:07.841Z</time></trkpt><trkpt lat="42.6735267" lon="-8.3710467"><ele>666.0</ele><time>2026-04-16T07:59:09.84Z</time></trkpt><trkpt lat="42.673455" lon="-8.37117"><ele>666.0</ele><time>2026-04-16T07:59:11.841Z</time></trkpt><trkpt lat="42.673405" lon="-8.3712367"><ele>666.0</ele><time>2026-04-16T07:59:13.841Z</time></trkpt><trkpt lat="42.6733333" lon="-8.371235"><ele>666.0</ele><time>2026-04-16T07:59:15.84Z</time></trkpt><trkpt lat="42.6732667" lon="-8.371135"><ele>666.0</ele><time>2026-04-16T07:59:17.841Z</time></trkpt><trkpt lat="42.6732233" lon="-8.3710517"><ele>666.0</ele><time>2026-04-16T07:59:18.841Z</time></trkpt><trkpt lat="42.67318" lon="-8.3709333"><ele>666.0</ele><time>2026-04-16T07:59:19.84Z</time></trkpt><trkpt lat="42.673145" lon="-8.3708017"><ele>666.0</ele><time>2026-04-16T07:59:20.84Z</time></trkpt><trkpt lat="42.673105" lon="-8.3706517"><ele>666.0</ele><time>2026-04-16T07:59:21.841Z</time></trkpt><trkpt lat="42.67306" lon="-8.37049"><ele>666.0</ele><time>2026-04-16T07:59:22.841Z</time></trkpt><trkpt lat="42.6730083" lon="-8.37032"><ele>666.0</ele><time>2026-04-16T07:59:23.841Z</time></trkpt><trkpt lat="42.6729567" lon="-8.3701383"><ele>668.0</ele><time>2026-04-16T07:59:24.841Z</time></trkpt><trkpt lat="42.672895" lon="-8.3699533"><ele>670.0</ele><time>2026-04-16T07:59:25.84Z</time></trkpt><trkpt lat="42.6728317" lon="-8.3697567"><ele>672.0</ele><time>2026-04-16T07:59:26.84Z</time></trkpt><trkpt lat="42.6727683" lon="-8.3695633"><ele>674.0</ele><time>2026-04-16T07:59:27.84Z</time></trkpt><trkpt lat="42.6726917" lon="-8.3693483"><ele>676.0</ele><time>2026-04-16T07:59:28.841Z</time></trkpt><trkpt lat="42.67261" lon="-8.369135"><ele>678.0</ele><time>2026-04-16T07:59:29.84Z</time></trkpt><trkpt lat="42.6725283" lon="-8.3689583"><ele>678.0</ele><time>2026-04-16T07:59:30.84Z</time></trkpt><trkpt lat="42.67246" lon="-8.368785"><ele>678.0</ele><time>2026-04-16T07:59:31.84Z</time></trkpt><trkpt lat="42.6723917" lon="-8.3685983"><ele>678.0</ele><time>2026-04-16T07:59:32.841Z</time></trkpt><trkpt lat="42.672325" lon="-8.368405"><ele>678.0</ele><time>2026-04-16T07:59:33.841Z</time></trkpt><trkpt lat="42.6722583" lon="-8.3682033"><ele>678.0</ele><time>2026-04-16T07:59:34.84Z</time></trkpt><trkpt lat="42.6721833" lon="-8.3679983"><ele>678.0</ele><time>2026-04-16T07:59:35.841Z</time></trkpt><trkpt lat="42.6721233" lon="-8.3677933"><ele>676.6666666666666</ele><time>2026-04-16T07:59:36.841Z</time></trkpt><trkpt lat="42.6720517" lon="-8.3675767"><ele>675.3333333333333</ele><time>2026-04-16T07:59:37.841Z</time></trkpt><trkpt lat="42.671985" lon="-8.3673533"><ele>674.0</ele><time>2026-04-16T07:59:38.84Z</time></trkpt><trkpt lat="42.6719067" lon="-8.3671517"><ele>672.25</ele><time>2026-04-16T07:59:39.841Z</time></trkpt><trkpt lat="42.6718367" lon="-8.3669617"><ele>670.5</ele><time>2026-04-16T07:59:40.841Z</time></trkpt><trkpt lat="42.6717683" lon="-8.3667817"><ele>668.75</ele><time>2026-04-16T07:59:41.84Z</time></trkpt><trkpt lat="42.6717017" lon="-8.366615"><ele>667.0</ele><time>2026-04-16T07:59:42.84Z</time></trkpt><trkpt lat="42.67164" lon="-8.3664467"><ele>666.2</ele><time>2026-04-16T07:59:43.841Z</time></trkpt><trkpt lat="42.6715833" lon="-8.3663017"><ele>665.4000000000001</ele><time>2026-04-16T07:59:44.841Z</time></trkpt><trkpt lat="42.6715283" lon="-8.3661867"><ele>664.5999999999999</ele><time>2026-04-16T07:59:45.84Z</time></trkpt><trkpt lat="42.6714817" lon="-8.366105"><ele>663.8</ele><time>2026-04-16T07:59:46.841Z</time></trkpt><trkpt lat="42.6714133" lon="-8.36605"><ele>663.0</ele><time>2026-04-16T07:59:48.841Z</time></trkpt><trkpt lat="42.6713017" lon="-8.36614"><ele>663.0</ele><time>2026-04-16T07:59:50.841Z</time></trkpt><trkpt lat="42.67121" lon="-8.3662283"><ele>663.0</ele><time>2026-04-16T07:59:51.84Z</time></trkpt><trkpt lat="42.6711017" lon="-8.3663217"><ele>663.0</ele><time>2026-04-16T07:59:52.84Z</time></trkpt><trkpt lat="42.67095" lon="-8.3664517"><ele>663.0</ele><time>2026-04-16T07:59:53.84Z</time></trkpt><trkpt lat="42.670765" lon="-8.3666033"><ele>663.0</ele><time>2026-04-16T07:59:54.841Z</time></trkpt><trkpt lat="42.6705817" lon="-8.3667317"><ele>663.0</ele><time>2026-04-16T07:59:55.84Z</time></trkpt><trkpt lat="42.6703967" lon="-8.3668517"><ele>663.0</ele><time>2026-04-16T07:59:56.84Z</time></trkpt><trkpt lat="42.6702" lon="-8.3669717"><ele>663.6666666666666</ele><time>2026-04-16T07:59:57.84Z</time></trkpt><trkpt lat="42.6700167" lon="-8.3670933"><ele>664.3333333333333</ele><time>2026-04-16T07:59:58.841Z</time></trkpt><trkpt lat="42.66984" lon="-8.36721"><ele>665.0</ele><time>2026-04-16T07:59:59.84Z</time></trkpt><trkpt lat="42.6696667" lon="-8.3673183"><ele>665.0</ele><time>2026-04-16T08:00:00.84Z</time></trkpt><trkpt lat="42.6694933" lon="-8.367425"><ele>665.0</ele><time>2026-04-16T08:00:01.84Z</time></trkpt><trkpt lat="42.6693133" lon="-8.367535"><ele>665.0</ele><time>2026-04-16T08:00:02.841Z</time></trkpt><trkpt lat="42.6691383" lon="-8.3676333"><ele>666.0</ele><time>2026-04-16T08:00:03.841Z</time></trkpt><trkpt lat="42.6689767" lon="-8.3677183"><ele>667.0</ele><time>2026-04-16T08:00:04.84Z</time></trkpt><trkpt lat="42.6688233" lon="-8.367815"><ele>668.0</ele><time>2026-04-16T08:00:05.84Z</time></trkpt><trkpt lat="42.6686783" lon="-8.3678883"><ele>668.0</ele><time>2026-04-16T08:00:06.84Z</time></trkpt><trkpt lat="42.6685617" lon="-8.367965"><ele>668.0</ele><time>2026-04-16T08:00:07.841Z</time></trkpt><trkpt lat="42.6684667" lon="-8.3680433"><ele>668.0</ele><time>2026-04-16T08:00:08.841Z</time></trkpt><trkpt lat="42.668395" lon="-8.3681333"><ele>668.0</ele><time>2026-04-16T08:00:09.84Z</time></trkpt><trkpt lat="42.6683483" lon="-8.3682717"><ele>668.0</ele><time>2026-04-16T08:00:10.841Z</time></trkpt><trkpt lat="42.6683317" lon="-8.368455"><ele>668.0</ele><time>2026-04-16T08:00:11.84Z</time></trkpt><trkpt lat="42.6683183" lon="-8.3686983"><ele>668.0</ele><time>2026-04-16T08:00:12.841Z</time></trkpt><trkpt lat="42.6682967" lon="-8.36897"><ele>668.0</ele><time>2026-04-16T08:00:13.841Z</time></trkpt><trkpt lat="42.6682717" lon="-8.369235"><ele>668.0</ele><time>2026-04-16T08:00:14.84Z</time></trkpt><trkpt lat="42.6682467" lon="-8.3694833"><ele>668.0</ele><time>2026-04-16T08:00:15.84Z</time></trkpt><trkpt lat="42.6682167" lon="-8.3697267"><ele>667.6666666666666</ele><time>2026-04-16T08:00:16.84Z</time></trkpt><trkpt lat="42.6682" lon="-8.3699667"><ele>667.3333333333334</ele><time>2026-04-16T08:00:17.84Z</time></trkpt><trkpt lat="42.6681867" lon="-8.3702183"><ele>667.0</ele><time>2026-04-16T08:00:18.84Z</time></trkpt><trkpt lat="42.6681733" lon="-8.3704517"><ele>667.3333333333334</ele><time>2026-04-16T08:00:19.84Z</time></trkpt><trkpt lat="42.6681717" lon="-8.370675"><ele>667.6666666666666</ele><time>2026-04-16T08:00:20.841Z</time></trkpt><trkpt lat="42.668165" lon="-8.3708817"><ele>668.0</ele><time>2026-04-16T08:00:21.841Z</time></trkpt><trkpt lat="42.6681367" lon="-8.371065"><ele>668.0</ele><time>2026-04-16T08:00:22.841Z</time></trkpt><trkpt lat="42.6680833" lon="-8.3712367"><ele>668.0</ele><time>2026-04-16T08:00:23.84Z</time></trkpt><trkpt lat="42.668015" lon="-8.371395"><ele>668.0</ele><time>2026-04-16T08:00:24.841Z</time></trkpt><trkpt lat="42.667935" lon="-8.3715433"><ele>668.0</ele><time>2026-04-16T08:00:25.841Z</time></trkpt><trkpt lat="42.6678483" lon="-8.3716867"><ele>665.0</ele><time>2026-04-16T08:00:26.84Z</time></trkpt><trkpt lat="42.66774" lon="-8.3718283"><ele>662.0</ele><time>2026-04-16T08:00:27.84Z</time></trkpt><trkpt lat="42.6676267" lon="-8.37197"><ele>659.0</ele><time>2026-04-16T08:00:28.84Z</time></trkpt><trkpt lat="42.667515" lon="-8.3721067"><ele>659.25</ele><time>2026-04-16T08:00:29.84Z</time></trkpt><trkpt lat="42.6674167" lon="-8.3722283"><ele>659.5</ele><time>2026-04-16T08:00:30.84Z</time></trkpt><trkpt lat="42.6673167" lon="-8.3723317"><ele>659.75</ele><time>2026-04-16T08:00:31.84Z</time></trkpt><trkpt lat="42.667195" lon="-8.3724283"><ele>660.0</ele><time>2026-04-16T08:00:32.841Z</time></trkpt><trkpt lat="42.66706" lon="-8.37252"><ele>658.0</ele><time>2026-04-16T08:00:33.841Z</time></trkpt><trkpt lat="42.6669267" lon="-8.3726333"><ele>656.0</ele><time>2026-04-16T08:00:34.84Z</time></trkpt><trkpt lat="42.6667933" lon="-8.3727683"><ele>654.0</ele><time>2026-04-16T08:00:35.841Z</time></trkpt><trkpt lat="42.666655" lon="-8.3729417"><ele>653.6666666666666</ele><time>2026-04-16T08:00:36.841Z</time></trkpt><trkpt lat="42.666515" lon="-8.3731333"><ele>653.3333333333333</ele><time>2026-04-16T08:00:37.84Z</time></trkpt><trkpt lat="42.66638" lon="-8.37334"><ele>653.0</ele><time>2026-04-16T08:00:38.841Z</time></trkpt><trkpt lat="42.6662617" lon="-8.3735117"><ele>653.0</ele><time>2026-04-16T08:00:39.841Z</time></trkpt><trkpt lat="42.6661683" lon="-8.373645"><ele>653.0</ele><time>2026-04-16T08:00:40.84Z</time></trkpt><trkpt lat="42.6661" lon="-8.3737367"><ele>653.0</ele><time>2026-04-16T08:00:41.84Z</time></trkpt><trkpt lat="42.6660417" lon="-8.3738"><ele>653.0</ele><time>2026-04-16T08:00:42.84Z</time></trkpt><trkpt lat="42.6659367" lon="-8.3738633"><ele>653.0</ele><time>2026-04-16T08:00:44.841Z</time></trkpt><trkpt lat="42.6657967" lon="-8.373825"><ele>653.0</ele><time>2026-04-16T08:00:46.84Z</time></trkpt><trkpt lat="42.6656883" lon="-8.3737783"><ele>653.0</ele><time>2026-04-16T08:00:47.84Z</time></trkpt><trkpt lat="42.6655333" lon="-8.373745"><ele>653.0</ele><time>2026-04-16T08:00:48.841Z</time></trkpt><trkpt lat="42.665395" lon="-8.3737017"><ele>653.0</ele><time>2026-04-16T08:00:49.84Z</time></trkpt><trkpt lat="42.6652583" lon="-8.373655"><ele>652.75</ele><time>2026-04-16T08:00:50.841Z</time></trkpt><trkpt lat="42.665135" lon="-8.3736167"><ele>652.5</ele><time>2026-04-16T08:00:51.841Z</time></trkpt><trkpt lat="42.66502" lon="-8.37357"><ele>652.25</ele><time>2026-04-16T08:00:52.84Z</time></trkpt><trkpt lat="42.6649133" lon="-8.37351"><ele>652.0</ele><time>2026-04-16T08:00:53.84Z</time></trkpt><trkpt lat="42.6648367" lon="-8.3734417"><ele>652.0</ele><time>2026-04-16T08:00:54.84Z</time></trkpt><trkpt lat="42.6647883" lon="-8.3733733"><ele>652.0</ele><time>2026-04-16T08:00:55.841Z</time></trkpt><trkpt lat="42.6647517" lon="-8.3731917"><ele>652.0</ele><time>2026-04-16T08:00:57.84Z</time></trkpt><trkpt lat="42.66475" lon="-8.373045"><ele>652.0</ele><time>2026-04-16T08:00:58.84Z</time></trkpt><trkpt lat="42.66477" lon="-8.3728483"><ele>651.4000000000001</ele><time>2026-04-16T08:00:59.84Z</time></trkpt><trkpt lat="42.66477" lon="-8.3726833"><ele>650.8000000000001</ele><time>2026-04-16T08:01:00.84Z</time></trkpt><trkpt lat="42.6647567" lon="-8.372545"><ele>650.2</ele><time>2026-04-16T08:01:01.841Z</time></trkpt><trkpt lat="42.6647467" lon="-8.3724283"><ele>649.6</ele><time>2026-04-16T08:01:02.84Z</time></trkpt><trkpt lat="42.664735" lon="-8.372335"><ele>649.0</ele><time>2026-04-16T08:01:03.84Z</time></trkpt><trkpt lat="42.664685" lon="-8.3722167"><ele>647.8000000000001</ele><time>2026-04-16T08:01:05.84Z</time></trkpt><trkpt lat="42.6646133" lon="-8.372125"><ele>646.6</ele><time>2026-04-16T08:01:08.84Z</time></trkpt><trkpt lat="42.6645617" lon="-8.3720733"><ele>645.4</ele><time>2026-04-16T08:01:09.84Z</time></trkpt><trkpt lat="42.6644817" lon="-8.37203"><ele>644.2</ele><time>2026-04-16T08:01:10.841Z</time></trkpt><trkpt lat="42.664365" lon="-8.372005"><ele>643.0</ele><time>2026-04-16T08:01:11.841Z</time></trkpt><trkpt lat="42.664195" lon="-8.371995"><ele>642.25</ele><time>2026-04-16T08:01:12.84Z</time></trkpt><trkpt lat="42.6640233" lon="-8.3720117"><ele>641.5</ele><time>2026-04-16T08:01:13.841Z</time></trkpt><trkpt lat="42.66388" lon="-8.3720317"><ele>640.75</ele><time>2026-04-16T08:01:14.841Z</time></trkpt><trkpt lat="42.6637483" lon="-8.3720467"><ele>640.0</ele><time>2026-04-16T08:01:15.841Z</time></trkpt><trkpt lat="42.6636417" lon="-8.37205"><ele>638.8333333333334</ele><time>2026-04-16T08:01:16.84Z</time></trkpt><trkpt lat="42.6635617" lon="-8.37204"><ele>637.6666666666667</ele><time>2026-04-16T08:01:17.841Z</time></trkpt><trkpt lat="42.663485" lon="-8.372015"><ele>636.5</ele><time>2026-04-16T08:01:18.84Z</time></trkpt><trkpt lat="42.6633983" lon="-8.3719667"><ele>635.3333333333334</ele><time>2026-04-16T08:01:19.841Z</time></trkpt><trkpt lat="42.6633333" lon="-8.371885"><ele>634.1666666666666</ele><time>2026-04-16T08:01:20.84Z</time></trkpt><trkpt lat="42.6632833" lon="-8.3718133"><ele>633.0</ele><time>2026-04-16T08:01:21.84Z</time></trkpt><trkpt lat="42.6631833" lon="-8.3717583"><ele>633.0</ele><time>2026-04-16T08:01:23.84Z</time></trkpt><trkpt lat="42.6630767" lon="-8.3718567"><ele>633.0</ele><time>2026-04-16T08:01:25.84Z</time></trkpt><trkpt lat="42.6630217" lon="-8.3719883"><ele>633.0</ele><time>2026-04-16T08:01:26.84Z</time></trkpt><trkpt lat="42.6629617" lon="-8.3721583"><ele>633.0</ele><time>2026-04-16T08:01:27.841Z</time></trkpt><trkpt lat="42.6628817" lon="-8.3723533"><ele>632.5</ele><time>2026-04-16T08:01:28.84Z</time></trkpt><trkpt lat="42.66277" lon="-8.3726083"><ele>632.0</ele><time>2026-04-16T08:01:29.84Z</time></trkpt><trkpt lat="42.6626483" lon="-8.3729217"><ele>631.0</ele><time>2026-04-16T08:01:30.841Z</time></trkpt><trkpt lat="42.6625217" lon="-8.3731917"><ele>630.0</ele><time>2026-04-16T08:01:31.84Z</time></trkpt><trkpt lat="42.6624017" lon="-8.3734317"><ele>629.0</ele><time>2026-04-16T08:01:32.841Z</time></trkpt><trkpt lat="42.662295" lon="-8.373635"><ele>629.0</ele><time>2026-04-16T08:01:33.84Z</time></trkpt><trkpt lat="42.6621833" lon="-8.3738317"><ele>629.0</ele><time>2026-04-16T08:01:34.84Z</time></trkpt><trkpt lat="42.6620833" lon="-8.3740267"><ele>629.0</ele><time>2026-04-16T08:01:35.84Z</time></trkpt><trkpt lat="42.662" lon="-8.374215"><ele>629.25</ele><time>2026-04-16T08:01:36.841Z</time></trkpt><trkpt lat="42.66195" lon="-8.3743817"><ele>629.5</ele><time>2026-04-16T08:01:37.841Z</time></trkpt><trkpt lat="42.6619233" lon="-8.3745267"><ele>629.75</ele><time>2026-04-16T08:01:38.841Z</time></trkpt><trkpt lat="42.6619467" lon="-8.37467"><ele>630.0</ele><time>2026-04-16T08:01:39.841Z</time></trkpt><trkpt lat="42.6619683" lon="-8.37484"><ele>630.6666666666666</ele><time>2026-04-16T08:01:40.84Z</time></trkpt><trkpt lat="42.662" lon="-8.3750383"><ele>631.3333333333333</ele><time>2026-04-16T08:01:41.84Z</time></trkpt><trkpt lat="42.6620433" lon="-8.3752617"><ele>632.0</ele><time>2026-04-16T08:01:42.841Z</time></trkpt><trkpt lat="42.6620817" lon="-8.3754917"><ele>632.5</ele><time>2026-04-16T08:01:43.84Z</time></trkpt><trkpt lat="42.6621117" lon="-8.3757"><ele>633.0</ele><time>2026-04-16T08:01:44.84Z</time></trkpt><trkpt lat="42.6621417" lon="-8.37587"><ele>633.5</ele><time>2026-04-16T08:01:45.84Z</time></trkpt><trkpt lat="42.66216" lon="-8.3760183"><ele>634.0</ele><time>2026-04-16T08:01:46.841Z</time></trkpt><trkpt lat="42.6621633" lon="-8.376135"><ele>634.0</ele><time>2026-04-16T08:01:47.841Z</time></trkpt><trkpt lat="42.6621467" lon="-8.37622"><ele>634.0</ele><time>2026-04-16T08:01:48.84Z</time></trkpt><trkpt lat="42.6621083" lon="-8.37629"><ele>634.0</ele><time>2026-04-16T08:01:49.84Z</time></trkpt><trkpt lat="42.6620417" lon="-8.376335"><ele>634.0</ele><time>2026-04-16T08:01:50.84Z</time></trkpt><trkpt lat="42.6619467" lon="-8.3763567"><ele>634.0</ele><time>2026-04-16T08:01:51.84Z</time></trkpt><trkpt lat="42.6618217" lon="-8.3763633"><ele>634.0</ele><time>2026-04-16T08:01:52.84Z</time></trkpt><trkpt lat="42.6616333" lon="-8.3763983"><ele>632.5</ele><time>2026-04-16T08:01:53.84Z</time></trkpt><trkpt lat="42.6614133" lon="-8.376475"><ele>631.0</ele><time>2026-04-16T08:01:54.84Z</time></trkpt><trkpt lat="42.66119" lon="-8.37655"><ele>628.6666666666667</ele><time>2026-04-16T08:01:55.841Z</time></trkpt><trkpt lat="42.6609733" lon="-8.3766233"><ele>626.3333333333334</ele><time>2026-04-16T08:01:56.841Z</time></trkpt><trkpt lat="42.6607783" lon="-8.3766917"><ele>624.0</ele><time>2026-04-16T08:01:57.841Z</time></trkpt><trkpt lat="42.6605983" lon="-8.3767483"><ele>624.0</ele><time>2026-04-16T08:01:58.841Z</time></trkpt><trkpt lat="42.6604317" lon="-8.3768117"><ele>624.0</ele><time>2026-04-16T08:01:59.841Z</time></trkpt><trkpt lat="42.6602833" lon="-8.37686"><ele>624.0</ele><time>2026-04-16T08:02:00.84Z</time></trkpt><trkpt lat="42.6601533" lon="-8.3769"><ele>623.2</ele><time>2026-04-16T08:02:01.84Z</time></trkpt><trkpt lat="42.6600517" lon="-8.3769283"><ele>622.4</ele><time>2026-04-16T08:02:02.84Z</time></trkpt><trkpt lat="42.6599867" lon="-8.3769283"><ele>621.6</ele><time>2026-04-16T08:02:03.84Z</time></trkpt><trkpt lat="42.6598967" lon="-8.3769"><ele>620.8</ele><time>2026-04-16T08:02:05.84Z</time></trkpt><trkpt lat="42.65986" lon="-8.3767633"><ele>620.0</ele><time>2026-04-16T08:02:07.841Z</time></trkpt><trkpt lat="42.6598433" lon="-8.3766317"><ele>620.0</ele><time>2026-04-16T08:02:08.84Z</time></trkpt><trkpt lat="42.6598283" lon="-8.37648"><ele>620.0</ele><time>2026-04-16T08:02:09.841Z</time></trkpt><trkpt lat="42.659805" lon="-8.3763367"><ele>620.0</ele><time>2026-04-16T08:02:10.84Z</time></trkpt><trkpt lat="42.6597683" lon="-8.3762233"><ele>620.0</ele><time>2026-04-16T08:02:12.841Z</time></trkpt><trkpt lat="42.6597033" lon="-8.3762033"><ele>620.0</ele><time>2026-04-16T08:02:13.841Z</time></trkpt><trkpt lat="42.6596267" lon="-8.376175"><ele>619.3333333333333</ele><time>2026-04-16T08:02:14.84Z</time></trkpt><trkpt lat="42.65952" lon="-8.3761633"><ele>618.6666666666666</ele><time>2026-04-16T08:02:15.841Z</time></trkpt><trkpt lat="42.6593683" lon="-8.37617"><ele>618.0</ele><time>2026-04-16T08:02:16.841Z</time></trkpt><trkpt lat="42.6591617" lon="-8.376205"><ele>617.0</ele><time>2026-04-16T08:02:17.84Z</time></trkpt><trkpt lat="42.6589683" lon="-8.376235"><ele>616.0</ele><time>2026-04-16T08:02:18.84Z</time></trkpt><trkpt lat="42.65878" lon="-8.37624"><ele>615.0</ele><time>2026-04-16T08:02:19.84Z</time></trkpt><trkpt lat="42.6586467" lon="-8.3762083"><ele>613.25</ele><time>2026-04-16T08:02:20.841Z</time></trkpt><trkpt lat="42.6585067" lon="-8.3761233"><ele>611.5</ele><time>2026-04-16T08:02:21.84Z</time></trkpt><trkpt lat="42.658375" lon="-8.376015"><ele>609.75</ele><time>2026-04-16T08:02:22.841Z</time></trkpt><trkpt lat="42.6582683" lon="-8.3758917"><ele>608.0</ele><time>2026-04-16T08:02:23.841Z</time></trkpt><trkpt lat="42.65818" lon="-8.3757567"><ele>608.0</ele><time>2026-04-16T08:02:24.84Z</time></trkpt><trkpt lat="42.6581117" lon="-8.3756117"><ele>608.0</ele><time>2026-04-16T08:02:25.841Z</time></trkpt><trkpt lat="42.6580617" lon="-8.3754517"><ele>608.0</ele><time>2026-04-16T08:02:26.841Z</time></trkpt><trkpt lat="42.6580367" lon="-8.3752667"><ele>608.0</ele><time>2026-04-16T08:02:27.84Z</time></trkpt><trkpt lat="42.6580283" lon="-8.375035"><ele>607.0</ele><time>2026-04-16T08:02:28.841Z</time></trkpt><trkpt lat="42.6580183" lon="-8.37475"><ele>606.0</ele><time>2026-04-16T08:02:29.841Z</time></trkpt><trkpt lat="42.6580117" lon="-8.3744517"><ele>605.0</ele><time>2026-04-16T08:02:30.84Z</time></trkpt><trkpt lat="42.6580033" lon="-8.374175"><ele>604.0</ele><time>2026-04-16T08:02:31.841Z</time></trkpt><trkpt lat="42.6579967" lon="-8.3739433"><ele>603.0</ele><time>2026-04-16T08:02:32.84Z</time></trkpt><trkpt lat="42.6580017" lon="-8.373745"><ele>602.0</ele><time>2026-04-16T08:02:33.84Z</time></trkpt><trkpt lat="42.6580217" lon="-8.3735533"><ele>602.0</ele><time>2026-04-16T08:02:34.84Z</time></trkpt><trkpt lat="42.6580567" lon="-8.3733517"><ele>602.0</ele><time>2026-04-16T08:02:35.84Z</time></trkpt><trkpt lat="42.6580933" lon="-8.3731517"><ele>602.0</ele><time>2026-04-16T08:02:36.841Z</time></trkpt><trkpt lat="42.658115" lon="-8.37296"><ele>602.0</ele><time>2026-04-16T08:02:37.841Z</time></trkpt><trkpt lat="42.6581517" lon="-8.37277"><ele>602.0</ele><time>2026-04-16T08:02:38.841Z</time></trkpt><trkpt lat="42.65815" lon="-8.3725467"><ele>602.0</ele><time>2026-04-16T08:02:39.84Z</time></trkpt><trkpt lat="42.65813" lon="-8.37232"><ele>602.0</ele><time>2026-04-16T08:02:40.841Z</time></trkpt><trkpt lat="42.6580833" lon="-8.372075"><ele>603.0</ele><time>2026-04-16T08:02:41.841Z</time></trkpt><trkpt lat="42.65803" lon="-8.3718283"><ele>604.0</ele><time>2026-04-16T08:02:42.841Z</time></trkpt><trkpt lat="42.6579633" lon="-8.3715933"><ele>605.0</ele><time>2026-04-16T08:02:43.84Z</time></trkpt><trkpt lat="42.6578833" lon="-8.3713533"><ele>606.3333333333333</ele><time>2026-04-16T08:02:44.84Z</time></trkpt><trkpt lat="42.6578117" lon="-8.3711217"><ele>607.6666666666666</ele><time>2026-04-16T08:02:45.84Z</time></trkpt><trkpt lat="42.6577417" lon="-8.3708783"><ele>609.0</ele><time>2026-04-16T08:02:46.84Z</time></trkpt><trkpt lat="42.6576533" lon="-8.3706433"><ele>607.0</ele><time>2026-04-16T08:02:47.841Z</time></trkpt><trkpt lat="42.65758" lon="-8.3704133"><ele>605.0</ele><time>2026-04-16T08:02:48.84Z</time></trkpt><trkpt lat="42.6575017" lon="-8.370245"><ele>603.0</ele><time>2026-04-16T08:02:49.84Z</time></trkpt><trkpt lat="42.6573817" lon="-8.3701317"><ele>603.0</ele><time>2026-04-16T08:02:50.84Z</time></trkpt><trkpt lat="42.657235" lon="-8.37005"><ele>603.0</ele><time>2026-04-16T08:02:51.84Z</time></trkpt><trkpt lat="42.657085" lon="-8.369985"><ele>603.0</ele><time>2026-04-16T08:02:52.841Z</time></trkpt><trkpt lat="42.65697" lon="-8.3699133"><ele>603.0</ele><time>2026-04-16T08:02:53.841Z</time></trkpt><trkpt lat="42.6568183" lon="-8.36991"><ele>601.0</ele><time>2026-04-16T08:02:54.84Z</time></trkpt><trkpt lat="42.6566883" lon="-8.36992"><ele>599.0</ele><time>2026-04-16T08:02:55.841Z</time></trkpt><trkpt lat="42.6565533" lon="-8.3699317"><ele>597.0</ele><time>2026-04-16T08:02:56.84Z</time></trkpt><trkpt lat="42.6564083" lon="-8.3699217"><ele>595.0</ele><time>2026-04-16T08:02:57.84Z</time></trkpt><trkpt lat="42.656245" lon="-8.3699"><ele>591.3333333333334</ele><time>2026-04-16T08:02:58.84Z</time></trkpt><trkpt lat="42.6560683" lon="-8.3698683"><ele>587.6666666666666</ele><time>2026-04-16T08:02:59.841Z</time></trkpt><trkpt lat="42.6559133" lon="-8.36982"><ele>584.0</ele><time>2026-04-16T08:03:00.841Z</time></trkpt><trkpt lat="42.655785" lon="-8.3697767"><ele>584.0</ele><time>2026-04-16T08:03:01.841Z</time></trkpt><trkpt lat="42.6556783" lon="-8.3697317"><ele>584.0</ele><time>2026-04-16T08:03:02.842Z</time></trkpt><trkpt lat="42.6556" lon="-8.3696933"><ele>584.0</ele><time>2026-04-16T08:03:03.842Z</time></trkpt><trkpt lat="42.6555167" lon="-8.36964"><ele>584.0</ele><time>2026-04-16T08:03:05.841Z</time></trkpt><trkpt lat="42.6554533" lon="-8.3694817"><ele>584.0</ele><time>2026-04-16T08:03:07.841Z</time></trkpt><trkpt lat="42.655425" lon="-8.3693817"><ele>584.3333333333333</ele><time>2026-04-16T08:03:08.842Z</time></trkpt><trkpt lat="42.6554017" lon="-8.3692983"><ele>584.6666666666666</ele><time>2026-04-16T08:03:09.842Z</time></trkpt><trkpt lat="42.6553917" lon="-8.36921"><ele>585.0</ele><time>2026-04-16T08:03:10.842Z</time></trkpt><trkpt lat="42.6553783" lon="-8.3691083"><ele>585.3333333333334</ele><time>2026-04-16T08:03:11.841Z</time></trkpt><trkpt lat="42.6553783" lon="-8.3689833"><ele>585.6666666666667</ele><time>2026-04-16T08:03:12.841Z</time></trkpt><trkpt lat="42.6553833" lon="-8.3688467"><ele>586.0</ele><time>2026-04-16T08:03:13.841Z</time></trkpt><trkpt lat="42.6553983" lon="-8.3687167"><ele>586.0</ele><time>2026-04-16T08:03:14.841Z</time></trkpt><trkpt lat="42.6554183" lon="-8.3686017"><ele>586.0</ele><time>2026-04-16T08:03:15.842Z</time></trkpt><trkpt lat="42.6554483" lon="-8.3685033"><ele>586.0</ele><time>2026-04-16T08:03:16.842Z</time></trkpt><trkpt lat="42.65548" lon="-8.368415"><ele>586.0</ele><time>2026-04-16T08:03:17.842Z</time></trkpt><trkpt lat="42.6555283" lon="-8.368315"><ele>586.0</ele><time>2026-04-16T08:03:19.841Z</time></trkpt><trkpt lat="42.6555017" lon="-8.3684783"><ele>586.0</ele><time>2026-04-16T08:03:23.842Z</time></trkpt><trkpt lat="42.6554617" lon="-8.3686183"><ele>586.0</ele><time>2026-04-16T08:03:24.841Z</time></trkpt><trkpt lat="42.6554383" lon="-8.368815"><ele>586.0</ele><time>2026-04-16T08:03:25.841Z</time></trkpt><trkpt lat="42.655445" lon="-8.3690317"><ele>586.0</ele><time>2026-04-16T08:03:26.841Z</time></trkpt><trkpt lat="42.6554717" lon="-8.36923"><ele>586.4</ele><time>2026-04-16T08:03:27.841Z</time></trkpt><trkpt lat="42.6555117" lon="-8.3694067"><ele>586.8</ele><time>2026-04-16T08:03:28.842Z</time></trkpt><trkpt lat="42.6555567" lon="-8.3695483"><ele>587.1999999999999</ele><time>2026-04-16T08:03:29.841Z</time></trkpt><trkpt lat="42.6555933" lon="-8.3696667"><ele>587.6</ele><time>2026-04-16T08:03:30.841Z</time></trkpt><trkpt lat="42.6556167" lon="-8.3697683"><ele>588.0</ele><time>2026-04-16T08:03:31.841Z</time></trkpt><trkpt lat="42.6556233" lon="-8.3698733"><ele>587.1999999999999</ele><time>2026-04-16T08:03:32.842Z</time></trkpt><trkpt lat="42.6556133" lon="-8.3699617"><ele>586.4</ele><time>2026-04-16T08:03:33.842Z</time></trkpt><trkpt lat="42.6555783" lon="-8.370055"><ele>585.5999999999999</ele><time>2026-04-16T08:03:34.841Z</time></trkpt><trkpt lat="42.6555167" lon="-8.3701683"><ele>584.8</ele><time>2026-04-16T08:03:35.841Z</time></trkpt><trkpt lat="42.65544" lon="-8.3703133"><ele>584.0</ele><time>2026-04-16T08:03:36.841Z</time></trkpt><trkpt lat="42.6553483" lon="-8.37048"><ele>581.25</ele><time>2026-04-16T08:03:37.841Z</time></trkpt><trkpt lat="42.6552667" lon="-8.3706317"><ele>578.5</ele><time>2026-04-16T08:03:38.842Z</time></trkpt><trkpt lat="42.6552" lon="-8.3707767"><ele>575.75</ele><time>2026-04-16T08:03:39.841Z</time></trkpt><trkpt lat="42.6551467" lon="-8.3709167"><ele>573.0</ele><time>2026-04-16T08:03:40.841Z</time></trkpt><trkpt lat="42.65511" lon="-8.3710483"><ele>573.0</ele><time>2026-04-16T08:03:41.842Z</time></trkpt><trkpt lat="42.6550817" lon="-8.37117"><ele>573.0</ele><time>2026-04-16T08:03:42.841Z</time></trkpt><trkpt lat="42.65506" lon="-8.3712717"><ele>573.0</ele><time>2026-04-16T08:03:43.842Z</time></trkpt><trkpt lat="42.6550333" lon="-8.371355"><ele>573.0</ele><time>2026-04-16T08:03:44.841Z</time></trkpt><trkpt lat="42.655005" lon="-8.3714333"><ele>573.0</ele><time>2026-04-16T08:03:45.841Z</time></trkpt><trkpt lat="42.6549383" lon="-8.3715317"><ele>573.0</ele><time>2026-04-16T08:03:47.841Z</time></trkpt><trkpt lat="42.6548367" lon="-8.3715767"><ele>573.1999999999999</ele><time>2026-04-16T08:03:49.841Z</time></trkpt><trkpt lat="42.6547383" lon="-8.3715617"><ele>573.4</ele><time>2026-04-16T08:03:51.841Z</time></trkpt><trkpt lat="42.6546167" lon="-8.3715217"><ele>573.5999999999999</ele><time>2026-04-16T08:03:53.842Z</time></trkpt><trkpt lat="42.6545383" lon="-8.371535"><ele>573.8</ele><time>2026-04-16T08:03:54.842Z</time></trkpt><trkpt lat="42.6544717" lon="-8.3715833"><ele>574.0</ele><time>2026-04-16T08:03:55.841Z</time></trkpt><trkpt lat="42.654415" lon="-8.37166"><ele>576.0</ele><time>2026-04-16T08:03:56.841Z</time></trkpt><trkpt lat="42.6543233" lon="-8.37174"><ele>578.0</ele><time>2026-04-16T08:03:57.841Z</time></trkpt><trkpt lat="42.654225" lon="-8.3717967"><ele>580.0</ele><time>2026-04-16T08:03:58.842Z</time></trkpt><trkpt lat="42.6541133" lon="-8.3718667"><ele>582.0</ele><time>2026-04-16T08:03:59.841Z</time></trkpt><trkpt lat="42.6539983" lon="-8.3719283"><ele>582.0</ele><time>2026-04-16T08:04:00.842Z</time></trkpt><trkpt lat="42.65385" lon="-8.3720083"><ele>582.0</ele><time>2026-04-16T08:04:01.842Z</time></trkpt><trkpt lat="42.653665" lon="-8.3720867"><ele>582.0</ele><time>2026-04-16T08:04:02.841Z</time></trkpt><trkpt lat="42.6535017" lon="-8.37216"><ele>582.6666666666666</ele><time>2026-04-16T08:04:03.842Z</time></trkpt><trkpt lat="42.6533083" lon="-8.372215"><ele>583.3333333333333</ele><time>2026-04-16T08:04:04.841Z</time></trkpt><trkpt lat="42.6531167" lon="-8.3722583"><ele>584.0</ele><time>2026-04-16T08:04:05.841Z</time></trkpt><trkpt lat="42.6529367" lon="-8.3722867"><ele>584.0</ele><time>2026-04-16T08:04:06.842Z</time></trkpt><trkpt lat="42.6528017" lon="-8.3723017"><ele>584.0</ele><time>2026-04-16T08:04:07.841Z</time></trkpt><trkpt lat="42.65267" lon="-8.3723433"><ele>584.0</ele><time>2026-04-16T08:04:08.842Z</time></trkpt><trkpt lat="42.6525783" lon="-8.3723433"><ele>584.0</ele><time>2026-04-16T08:04:09.842Z</time></trkpt><trkpt lat="42.652505" lon="-8.3723317"><ele>584.0</ele><time>2026-04-16T08:04:10.841Z</time></trkpt><trkpt lat="42.6524817" lon="-8.3722433"><ele>581.5</ele><time>2026-04-16T08:04:12.841Z</time></trkpt><trkpt lat="42.65246" lon="-8.37208"><ele>579.0</ele><time>2026-04-16T08:04:14.842Z</time></trkpt><trkpt lat="42.65252" lon="-8.3719283"><ele>576.5</ele><time>2026-04-16T08:04:15.842Z</time></trkpt><trkpt lat="42.6525433" lon="-8.371825"><ele>574.0</ele><time>2026-04-16T08:04:16.841Z</time></trkpt><trkpt lat="42.652595" lon="-8.3716617"><ele>574.0</ele><time>2026-04-16T08:04:17.842Z</time></trkpt><trkpt lat="42.65263" lon="-8.3715067"><ele>574.0</ele><time>2026-04-16T08:04:18.842Z</time></trkpt><trkpt lat="42.6526717" lon="-8.3713267"><ele>574.0</ele><time>2026-04-16T08:04:19.842Z</time></trkpt><trkpt lat="42.6527167" lon="-8.3710567"><ele>573.5</ele><time>2026-04-16T08:04:20.842Z</time></trkpt><trkpt lat="42.6527117" lon="-8.3707367"><ele>573.0</ele><time>2026-04-16T08:04:21.841Z</time></trkpt><trkpt lat="42.6527317" lon="-8.370385"><ele>573.0</ele><time>2026-04-16T08:04:22.842Z</time></trkpt><trkpt lat="42.6527817" lon="-8.3701067"><ele>573.0</ele><time>2026-04-16T08:04:23.842Z</time></trkpt><trkpt lat="42.6528533" lon="-8.3698617"><ele>573.0</ele><time>2026-04-16T08:04:24.842Z</time></trkpt><trkpt lat="42.6528833" lon="-8.3697067"><ele>573.0</ele><time>2026-04-16T08:04:25.842Z</time></trkpt><trkpt lat="42.652885" lon="-8.369585"><ele>573.0</ele><time>2026-04-16T08:04:26.842Z</time></trkpt><trkpt lat="42.6527817" lon="-8.3695017"><ele>573.0</ele><time>2026-04-16T08:04:28.842Z</time></trkpt><trkpt lat="42.6526583" lon="-8.3695267"><ele>573.0</ele><time>2026-04-16T08:04:29.841Z</time></trkpt><trkpt lat="42.652505" lon="-8.369565"><ele>573.0</ele><time>2026-04-16T08:04:30.842Z</time></trkpt><trkpt lat="42.6523083" lon="-8.36967"><ele>573.0</ele><time>2026-04-16T08:04:31.842Z</time></trkpt><trkpt lat="42.6521383" lon="-8.369785"><ele>573.0</ele><time>2026-04-16T08:04:32.842Z</time></trkpt><trkpt lat="42.6519983" lon="-8.36985"><ele>572.75</ele><time>2026-04-16T08:04:33.842Z</time></trkpt><trkpt lat="42.6518767" lon="-8.369845"><ele>572.5</ele><time>2026-04-16T08:04:34.842Z</time></trkpt><trkpt lat="42.6517667" lon="-8.369785"><ele>572.25</ele><time>2026-04-16T08:04:35.842Z</time></trkpt><trkpt lat="42.6516783" lon="-8.36969"><ele>572.0</ele><time>2026-04-16T08:04:36.841Z</time></trkpt><trkpt lat="42.6516067" lon="-8.369565"><ele>572.0</ele><time>2026-04-16T08:04:37.842Z</time></trkpt><trkpt lat="42.6515467" lon="-8.3694117"><ele>572.0</ele><time>2026-04-16T08:04:38.841Z</time></trkpt><trkpt lat="42.6514983" lon="-8.3692083"><ele>572.0</ele><time>2026-04-16T08:04:39.842Z</time></trkpt><trkpt lat="42.6514683" lon="-8.36898"><ele>572.25</ele><time>2026-04-16T08:04:40.841Z</time></trkpt><trkpt lat="42.6514433" lon="-8.3687667"><ele>572.5</ele><time>2026-04-16T08:04:41.841Z</time></trkpt><trkpt lat="42.651395" lon="-8.368585"><ele>572.75</ele><time>2026-04-16T08:04:42.842Z</time></trkpt><trkpt lat="42.6513317" lon="-8.36844"><ele>573.0</ele><time>2026-04-16T08:04:43.842Z</time></trkpt><trkpt lat="42.6512483" lon="-8.3683317"><ele>573.0</ele><time>2026-04-16T08:04:44.842Z</time></trkpt><trkpt lat="42.6511617" lon="-8.3682233"><ele>573.0</ele><time>2026-04-16T08:04:45.842Z</time></trkpt><trkpt lat="42.65107" lon="-8.3681217"><ele>573.0</ele><time>2026-04-16T08:04:46.842Z</time></trkpt><trkpt lat="42.650955" lon="-8.3681017"><ele>573.0</ele><time>2026-04-16T08:04:47.841Z</time></trkpt><trkpt lat="42.650855" lon="-8.3681233"><ele>571.1999999999999</ele><time>2026-04-16T08:04:48.842Z</time></trkpt><trkpt lat="42.6507583" lon="-8.36815"><ele>569.4</ele><time>2026-04-16T08:04:49.841Z</time></trkpt><trkpt lat="42.650655" lon="-8.3682033"><ele>567.5999999999999</ele><time>2026-04-16T08:04:50.842Z</time></trkpt><trkpt lat="42.6505717" lon="-8.3682783"><ele>565.8</ele><time>2026-04-16T08:04:51.841Z</time></trkpt><trkpt lat="42.65049" lon="-8.36835"><ele>564.0</ele><time>2026-04-16T08:04:52.842Z</time></trkpt><trkpt lat="42.650425" lon="-8.3683833"><ele>564.0</ele><time>2026-04-16T08:04:53.841Z</time></trkpt><trkpt lat="42.65032" lon="-8.368375"><ele>564.0</ele><time>2026-04-16T08:04:55.841Z</time></trkpt><trkpt lat="42.6502733" lon="-8.3682467"><ele>564.0</ele><time>2026-04-16T08:04:57.842Z</time></trkpt><trkpt lat="42.6502717" lon="-8.3681117"><ele>564.0</ele><time>2026-04-16T08:04:58.841Z</time></trkpt><trkpt lat="42.6502867" lon="-8.3679333"><ele>564.0</ele><time>2026-04-16T08:04:59.842Z</time></trkpt><trkpt lat="42.65032" lon="-8.3677333"><ele>562.75</ele><time>2026-04-16T08:05:00.842Z</time></trkpt><trkpt lat="42.6503517" lon="-8.3675433"><ele>561.5</ele><time>2026-04-16T08:05:01.841Z</time></trkpt><trkpt lat="42.6504033" lon="-8.36738"><ele>560.25</ele><time>2026-04-16T08:05:02.842Z</time></trkpt><trkpt lat="42.6504583" lon="-8.367235"><ele>559.0</ele><time>2026-04-16T08:05:03.842Z</time></trkpt><trkpt lat="42.65054" lon="-8.3671067"><ele>555.5</ele><time>2026-04-16T08:05:04.841Z</time></trkpt><trkpt lat="42.6506433" lon="-8.366995"><ele>552.0</ele><time>2026-04-16T08:05:05.842Z</time></trkpt><trkpt lat="42.6507617" lon="-8.36691"><ele>548.5</ele><time>2026-04-16T08:05:06.842Z</time></trkpt><trkpt lat="42.65089" lon="-8.366835"><ele>545.0</ele><time>2026-04-16T08:05:07.842Z</time></trkpt><trkpt lat="42.6510133" lon="-8.3667767"><ele>545.5</ele><time>2026-04-16T08:05:08.841Z</time></trkpt><trkpt lat="42.6511317" lon="-8.36673"><ele>546.0</ele><time>2026-04-16T08:05:09.842Z</time></trkpt><trkpt lat="42.6512483" lon="-8.3667033"><ele>546.5</ele><time>2026-04-16T08:05:10.842Z</time></trkpt><trkpt lat="42.6513717" lon="-8.3666867"><ele>547.0</ele><time>2026-04-16T08:05:11.842Z</time></trkpt><trkpt lat="42.6514767" lon="-8.366665"><ele>547.0</ele><time>2026-04-16T08:05:12.841Z</time></trkpt><trkpt lat="42.6515683" lon="-8.36664"><ele>547.0</ele><time>2026-04-16T08:05:13.842Z</time></trkpt><trkpt lat="42.6516567" lon="-8.3666"><ele>547.0</ele><time>2026-04-16T08:05:14.842Z</time></trkpt><trkpt lat="42.65175" lon="-8.366555"><ele>547.0</ele><time>2026-04-16T08:05:15.842Z</time></trkpt><trkpt lat="42.651845" lon="-8.366505"><ele>547.0</ele><time>2026-04-16T08:05:16.841Z</time></trkpt><trkpt lat="42.6519583" lon="-8.3664567"><ele>546.75</ele><time>2026-04-16T08:05:17.841Z</time></trkpt><trkpt lat="42.6520633" lon="-8.36642"><ele>546.5</ele><time>2026-04-16T08:05:18.841Z</time></trkpt><trkpt lat="42.652175" lon="-8.3663867"><ele>546.25</ele><time>2026-04-16T08:05:19.842Z</time></trkpt><trkpt lat="42.65229" lon="-8.366345"><ele>546.0</ele><time>2026-04-16T08:05:20.841Z</time></trkpt><trkpt lat="42.652405" lon="-8.366325"><ele>547.2</ele><time>2026-04-16T08:05:21.842Z</time></trkpt><trkpt lat="42.65251" lon="-8.3663033"><ele>548.4000000000001</ele><time>2026-04-16T08:05:22.842Z</time></trkpt><trkpt lat="42.652625" lon="-8.3662633"><ele>549.6</ele><time>2026-04-16T08:05:23.841Z</time></trkpt><trkpt lat="42.65272" lon="-8.36621"><ele>550.8000000000001</ele><time>2026-04-16T08:05:24.841Z</time></trkpt><trkpt lat="42.6527983" lon="-8.3661317"><ele>552.0</ele><time>2026-04-16T08:05:25.841Z</time></trkpt><trkpt lat="42.6528617" lon="-8.366045"><ele>553.6</ele><time>2026-04-16T08:05:26.842Z</time></trkpt><trkpt lat="42.6529" lon="-8.36593"><ele>555.2</ele><time>2026-04-16T08:05:27.841Z</time></trkpt><trkpt lat="42.6529217" lon="-8.3657867"><ele>556.8</ele><time>2026-04-16T08:05:28.842Z</time></trkpt><trkpt lat="42.65292" lon="-8.365635"><ele>558.4</ele><time>2026-04-16T08:05:29.841Z</time></trkpt><trkpt lat="42.6529117" lon="-8.3654833"><ele>560.0</ele><time>2026-04-16T08:05:30.842Z</time></trkpt><trkpt lat="42.65289" lon="-8.36534"><ele>561.0</ele><time>2026-04-16T08:05:31.841Z</time></trkpt><trkpt lat="42.6528417" lon="-8.3652017"><ele>562.0</ele><time>2026-04-16T08:05:32.842Z</time></trkpt><trkpt lat="42.652795" lon="-8.3650683"><ele>563.0</ele><time>2026-04-16T08:05:33.842Z</time></trkpt><trkpt lat="42.6527633" lon="-8.3649183"><ele>564.0</ele><time>2026-04-16T08:05:34.842Z</time></trkpt><trkpt lat="42.652725" lon="-8.3647583"><ele>565.5</ele><time>2026-04-16T08:05:35.842Z</time></trkpt><trkpt lat="42.652695" lon="-8.3645967"><ele>567.0</ele><time>2026-04-16T08:05:36.842Z</time></trkpt><trkpt lat="42.6526717" lon="-8.364435"><ele>568.5</ele><time>2026-04-16T08:05:37.842Z</time></trkpt><trkpt lat="42.6526667" lon="-8.3642683"><ele>570.0</ele><time>2026-04-16T08:05:38.841Z</time></trkpt><trkpt lat="42.652675" lon="-8.36409"><ele>570.0</ele><time>2026-04-16T08:05:39.841Z</time></trkpt><trkpt lat="42.6526883" lon="-8.363925"><ele>570.0</ele><time>2026-04-16T08:05:40.842Z</time></trkpt><trkpt lat="42.6527" lon="-8.3637917"><ele>570.0</ele><time>2026-04-16T08:05:41.841Z</time></trkpt><trkpt lat="42.6526783" lon="-8.3636817"><ele>570.0</ele><time>2026-04-16T08:05:42.841Z</time></trkpt><trkpt lat="42.6526183" lon="-8.3635867"><ele>570.0</ele><time>2026-04-16T08:05:43.841Z</time></trkpt><trkpt lat="42.6525783" lon="-8.3634917"><ele>570.0</ele><time>2026-04-16T08:05:44.842Z</time></trkpt><trkpt lat="42.6525183" lon="-8.36345"><ele>570.0</ele><time>2026-04-16T08:05:45.841Z</time></trkpt><trkpt lat="42.6524483" lon="-8.3634383"><ele>570.0</ele><time>2026-04-16T08:05:46.841Z</time></trkpt><trkpt lat="42.6523733" lon="-8.3634783"><ele>570.0</ele><time>2026-04-16T08:05:47.841Z</time></trkpt><trkpt lat="42.65232" lon="-8.3635833"><ele>570.0</ele><time>2026-04-16T08:05:48.841Z</time></trkpt><trkpt lat="42.65225" lon="-8.363745"><ele>570.0</ele><time>2026-04-16T08:05:49.841Z</time></trkpt><trkpt lat="42.652155" lon="-8.3639083"><ele>570.0</ele><time>2026-04-16T08:05:50.841Z</time></trkpt><trkpt lat="42.65198" lon="-8.36412"><ele>570.0</ele><time>2026-04-16T08:05:51.841Z</time></trkpt><trkpt lat="42.6517817" lon="-8.3643117"><ele>569.0</ele><time>2026-04-16T08:05:52.841Z</time></trkpt><trkpt lat="42.6515867" lon="-8.36445"><ele>568.0</ele><time>2026-04-16T08:05:53.841Z</time></trkpt><trkpt lat="42.6514217" lon="-8.3645683"><ele>567.0</ele><time>2026-04-16T08:05:54.842Z</time></trkpt><trkpt lat="42.651275" lon="-8.36467"><ele>565.25</ele><time>2026-04-16T08:05:55.842Z</time></trkpt><trkpt lat="42.6511283" lon="-8.3647217"><ele>563.5</ele><time>2026-04-16T08:05:56.841Z</time></trkpt><trkpt lat="42.6509867" lon="-8.3647367"><ele>561.75</ele><time>2026-04-16T08:05:57.841Z</time></trkpt><trkpt lat="42.6508683" lon="-8.3647017"><ele>560.0</ele><time>2026-04-16T08:05:58.842Z</time></trkpt><trkpt lat="42.65077" lon="-8.36463"><ele>559.75</ele><time>2026-04-16T08:05:59.842Z</time></trkpt><trkpt lat="42.650685" lon="-8.364525"><ele>559.5</ele><time>2026-04-16T08:06:00.841Z</time></trkpt><trkpt lat="42.650605" lon="-8.364365"><ele>559.25</ele><time>2026-04-16T08:06:01.841Z</time></trkpt><trkpt lat="42.650535" lon="-8.364145"><ele>559.0</ele><time>2026-04-16T08:06:02.842Z</time></trkpt><trkpt lat="42.6504683" lon="-8.36389"><ele>559.0</ele><time>2026-04-16T08:06:03.841Z</time></trkpt><trkpt lat="42.6504117" lon="-8.3636117"><ele>559.0</ele><time>2026-04-16T08:06:04.842Z</time></trkpt><trkpt lat="42.6503483" lon="-8.363335"><ele>559.0</ele><time>2026-04-16T08:06:05.841Z</time></trkpt><trkpt lat="42.6502767" lon="-8.363065"><ele>554.3333333333334</ele><time>2026-04-16T08:06:06.841Z</time></trkpt><trkpt lat="42.6502083" lon="-8.362805"><ele>549.6666666666666</ele><time>2026-04-16T08:06:07.841Z</time></trkpt><trkpt lat="42.65013" lon="-8.3625267"><ele>545.0</ele><time>2026-04-16T08:06:08.842Z</time></trkpt><trkpt lat="42.6500533" lon="-8.3622233"><ele>546.5</ele><time>2026-04-16T08:06:09.842Z</time></trkpt><trkpt lat="42.64997" lon="-8.3619217"><ele>548.0</ele><time>2026-04-16T08:06:10.842Z</time></trkpt><trkpt lat="42.6498867" lon="-8.3616067"><ele>550.3333333333333</ele><time>2026-04-16T08:06:11.842Z</time></trkpt><trkpt lat="42.6498033" lon="-8.3613267"><ele>552.6666666666666</ele><time>2026-04-16T08:06:12.841Z</time></trkpt><trkpt lat="42.64973" lon="-8.361085"><ele>555.0</ele><time>2026-04-16T08:06:13.842Z</time></trkpt><trkpt lat="42.6496883" lon="-8.3609"><ele>555.0</ele><time>2026-04-16T08:06:14.841Z</time></trkpt><trkpt lat="42.6496717" lon="-8.3608017"><ele>555.0</ele><time>2026-04-16T08:06:15.841Z</time></trkpt><trkpt lat="42.6495767" lon="-8.3608217"><ele>555.0</ele><time>2026-04-16T08:06:17.842Z</time></trkpt><trkpt lat="42.6495217" lon="-8.3609233"><ele>555.0</ele><time>2026-04-16T08:06:18.842Z</time></trkpt><trkpt lat="42.64945" lon="-8.3610933"><ele>555.0</ele><time>2026-04-16T08:06:19.841Z</time></trkpt><trkpt lat="42.649405" lon="-8.3613117"><ele>553.6666666666666</ele><time>2026-04-16T08:06:20.841Z</time></trkpt><trkpt lat="42.6493567" lon="-8.3615967"><ele>552.3333333333333</ele><time>2026-04-16T08:06:21.841Z</time></trkpt><trkpt lat="42.6492867" lon="-8.3618917"><ele>551.0</ele><time>2026-04-16T08:06:22.841Z</time></trkpt><trkpt lat="42.649225" lon="-8.36215"><ele>550.6666666666666</ele><time>2026-04-16T08:06:23.842Z</time></trkpt><trkpt lat="42.6491783" lon="-8.3624217"><ele>550.3333333333334</ele><time>2026-04-16T08:06:24.841Z</time></trkpt><trkpt lat="42.649125" lon="-8.3626883"><ele>550.0</ele><time>2026-04-16T08:06:25.842Z</time></trkpt><trkpt lat="42.6490683" lon="-8.3629333"><ele>548.0</ele><time>2026-04-16T08:06:26.841Z</time></trkpt><trkpt lat="42.6490333" lon="-8.3631233"><ele>546.0</ele><time>2026-04-16T08:06:27.841Z</time></trkpt><trkpt lat="42.6490083" lon="-8.3632233"><ele>544.0</ele><time>2026-04-16T08:06:28.842Z</time></trkpt><trkpt lat="42.648985" lon="-8.3633083"><ele>542.0</ele><time>2026-04-16T08:06:29.841Z</time></trkpt><trkpt lat="42.6488933" lon="-8.3634017"><ele>540.0</ele><time>2026-04-16T08:06:31.842Z</time></trkpt><trkpt lat="42.648815" lon="-8.3634167"><ele>540.0</ele><time>2026-04-16T08:06:32.842Z</time></trkpt><trkpt lat="42.6486817" lon="-8.3633983"><ele>540.0</ele><time>2026-04-16T08:06:33.841Z</time></trkpt><trkpt lat="42.648525" lon="-8.36337"><ele>540.0</ele><time>2026-04-16T08:06:34.841Z</time></trkpt><trkpt lat="42.6483783" lon="-8.3633017"><ele>540.0</ele><time>2026-04-16T08:06:35.841Z</time></trkpt><trkpt lat="42.6482517" lon="-8.363225"><ele>539.75</ele><time>2026-04-16T08:06:36.841Z</time></trkpt><trkpt lat="42.6481333" lon="-8.3631233"><ele>539.5</ele><time>2026-04-16T08:06:37.841Z</time></trkpt><trkpt lat="42.64802" lon="-8.3630233"><ele>539.25</ele><time>2026-04-16T08:06:38.842Z</time></trkpt><trkpt lat="42.6479217" lon="-8.36293"><ele>539.0</ele><time>2026-04-16T08:06:39.842Z</time></trkpt><trkpt lat="42.6478167" lon="-8.3628717"><ele>538.8333333333333</ele><time>2026-04-16T08:06:40.841Z</time></trkpt><trkpt lat="42.64773" lon="-8.362845"><ele>538.6666666666666</ele><time>2026-04-16T08:06:41.842Z</time></trkpt><trkpt lat="42.6476567" lon="-8.3628583"><ele>538.5</ele><time>2026-04-16T08:06:42.842Z</time></trkpt><trkpt lat="42.6475967" lon="-8.3629033"><ele>538.3333333333334</ele><time>2026-04-16T08:06:43.841Z</time></trkpt><trkpt lat="42.6475483" lon="-8.3629767"><ele>538.1666666666667</ele><time>2026-04-16T08:06:44.842Z</time></trkpt><trkpt lat="42.6475217" lon="-8.36309"><ele>538.0</ele><time>2026-04-16T08:06:45.842Z</time></trkpt><trkpt lat="42.6475067" lon="-8.3632467"><ele>538.0</ele><time>2026-04-16T08:06:46.842Z</time></trkpt><trkpt lat="42.647495" lon="-8.363465"><ele>538.0</ele><time>2026-04-16T08:06:47.842Z</time></trkpt><trkpt lat="42.6474633" lon="-8.3636183"><ele>538.0</ele><time>2026-04-16T08:06:48.841Z</time></trkpt><trkpt lat="42.6474317" lon="-8.3637233"><ele>538.0</ele><time>2026-04-16T08:06:49.842Z</time></trkpt><trkpt lat="42.6473767" lon="-8.3637867"><ele>538.0</ele><time>2026-04-16T08:06:50.842Z</time></trkpt><trkpt lat="42.6472967" lon="-8.3638183"><ele>538.0</ele><time>2026-04-16T08:06:51.841Z</time></trkpt><trkpt lat="42.6471817" lon="-8.3638083"><ele>538.0</ele><time>2026-04-16T08:06:52.842Z</time></trkpt><trkpt lat="42.647025" lon="-8.3637717"><ele>538.0</ele><time>2026-04-16T08:06:53.841Z</time></trkpt><trkpt lat="42.64684" lon="-8.363675"><ele>540.0</ele><time>2026-04-16T08:06:54.842Z</time></trkpt><trkpt lat="42.646685" lon="-8.3635733"><ele>542.0</ele><time>2026-04-16T08:06:55.842Z</time></trkpt><trkpt lat="42.6465733" lon="-8.3634717"><ele>544.0</ele><time>2026-04-16T08:06:56.842Z</time></trkpt><trkpt lat="42.6464883" lon="-8.3633517"><ele>546.0</ele><time>2026-04-16T08:06:57.842Z</time></trkpt><trkpt lat="42.64642" lon="-8.3632017"><ele>549.3333333333334</ele><time>2026-04-16T08:06:58.842Z</time></trkpt><trkpt lat="42.6463683" lon="-8.3630133"><ele>552.6666666666667</ele><time>2026-04-16T08:06:59.841Z</time></trkpt><trkpt lat="42.6463117" lon="-8.3628033"><ele>556.0</ele><time>2026-04-16T08:07:00.841Z</time></trkpt><trkpt lat="42.646245" lon="-8.3626"><ele>556.0</ele><time>2026-04-16T08:07:01.841Z</time></trkpt><trkpt lat="42.6461783" lon="-8.3624233"><ele>556.0</ele><time>2026-04-16T08:07:02.841Z</time></trkpt><trkpt lat="42.6460883" lon="-8.3622867"><ele>556.0</ele><time>2026-04-16T08:07:03.841Z</time></trkpt><trkpt lat="42.6459817" lon="-8.36216"><ele>556.0</ele><time>2026-04-16T08:07:04.842Z</time></trkpt><trkpt lat="42.6458917" lon="-8.36203"><ele>557.8</ele><time>2026-04-16T08:07:05.841Z</time></trkpt><trkpt lat="42.6457983" lon="-8.3619367"><ele>559.6</ele><time>2026-04-16T08:07:06.842Z</time></trkpt><trkpt lat="42.645715" lon="-8.361865"><ele>561.4</ele><time>2026-04-16T08:07:07.842Z</time></trkpt><trkpt lat="42.6456283" lon="-8.3618133"><ele>563.2</ele><time>2026-04-16T08:07:08.841Z</time></trkpt><trkpt lat="42.64554" lon="-8.3618083"><ele>565.0</ele><time>2026-04-16T08:07:09.841Z</time></trkpt><trkpt lat="42.64545" lon="-8.36181"><ele>565.0</ele><time>2026-04-16T08:07:10.842Z</time></trkpt><trkpt lat="42.6453567" lon="-8.361835"><ele>565.0</ele><time>2026-04-16T08:07:11.841Z</time></trkpt><trkpt lat="42.64528" lon="-8.3618783"><ele>565.0</ele><time>2026-04-16T08:07:12.842Z</time></trkpt><trkpt lat="42.6452217" lon="-8.36196"><ele>565.0</ele><time>2026-04-16T08:07:13.842Z</time></trkpt><trkpt lat="42.64518" lon="-8.3620867"><ele>565.0</ele><time>2026-04-16T08:07:14.842Z</time></trkpt><trkpt lat="42.6451533" lon="-8.36227"><ele>560.3333333333334</ele><time>2026-04-16T08:07:15.841Z</time></trkpt><trkpt lat="42.645145" lon="-8.3624933"><ele>555.6666666666666</ele><time>2026-04-16T08:07:16.842Z</time></trkpt><trkpt lat="42.64514" lon="-8.3627133"><ele>551.0</ele><time>2026-04-16T08:07:17.842Z</time></trkpt><trkpt lat="42.6451267" lon="-8.3629283"><ele>549.25</ele><time>2026-04-16T08:07:18.841Z</time></trkpt><trkpt lat="42.6451217" lon="-8.3631233"><ele>547.5</ele><time>2026-04-16T08:07:19.841Z</time></trkpt><trkpt lat="42.6451383" lon="-8.36329"><ele>545.75</ele><time>2026-04-16T08:07:20.841Z</time></trkpt><trkpt lat="42.6451567" lon="-8.3634367"><ele>544.0</ele><time>2026-04-16T08:07:21.842Z</time></trkpt><trkpt lat="42.6451767" lon="-8.3635583"><ele>544.0</ele><time>2026-04-16T08:07:22.841Z</time></trkpt><trkpt lat="42.645185" lon="-8.363665"><ele>544.0</ele><time>2026-04-16T08:07:23.841Z</time></trkpt><trkpt lat="42.6451983" lon="-8.363755"><ele>544.0</ele><time>2026-04-16T08:07:24.842Z</time></trkpt><trkpt lat="42.645205" lon="-8.3638533"><ele>544.0</ele><time>2026-04-16T08:07:26.842Z</time></trkpt><trkpt lat="42.645125" lon="-8.3638567"><ele>544.0</ele><time>2026-04-16T08:07:28.842Z</time></trkpt><trkpt lat="42.6450167" lon="-8.3639"><ele>544.0</ele><time>2026-04-16T08:07:30.842Z</time></trkpt><trkpt lat="42.644965" lon="-8.3639667"><ele>541.3333333333334</ele><time>2026-04-16T08:07:31.842Z</time></trkpt><trkpt lat="42.644915" lon="-8.3640967"><ele>538.6666666666666</ele><time>2026-04-16T08:07:32.841Z</time></trkpt><trkpt lat="42.6448633" lon="-8.3643067"><ele>536.0</ele><time>2026-04-16T08:07:33.842Z</time></trkpt><trkpt lat="42.6448083" lon="-8.3645983"><ele>534.3333333333333</ele><time>2026-04-16T08:07:34.841Z</time></trkpt><trkpt lat="42.6447667" lon="-8.3648833"><ele>532.6666666666666</ele><time>2026-04-16T08:07:35.842Z</time></trkpt><trkpt lat="42.6447233" lon="-8.3651233"><ele>531.0</ele><time>2026-04-16T08:07:36.842Z</time></trkpt><trkpt lat="42.6446867" lon="-8.365295"><ele>531.0</ele><time>2026-04-16T08:07:37.841Z</time></trkpt><trkpt lat="42.6446267" lon="-8.3654033"><ele>531.0</ele><time>2026-04-16T08:07:38.841Z</time></trkpt><trkpt lat="42.64453" lon="-8.3654917"><ele>531.0</ele><time>2026-04-16T08:07:39.842Z</time></trkpt><trkpt lat="42.6443967" lon="-8.36556"><ele>531.0</ele><time>2026-04-16T08:07:40.841Z</time></trkpt><trkpt lat="42.6442217" lon="-8.365645"><ele>532.0</ele><time>2026-04-16T08:07:41.841Z</time></trkpt><trkpt lat="42.644005" lon="-8.3657383"><ele>533.0</ele><time>2026-04-16T08:07:42.841Z</time></trkpt><trkpt lat="42.6437983" lon="-8.36584"><ele>534.0</ele><time>2026-04-16T08:07:43.842Z</time></trkpt><trkpt lat="42.643615" lon="-8.3659433"><ele>537.0</ele><time>2026-04-16T08:07:44.842Z</time></trkpt><trkpt lat="42.643455" lon="-8.3660333"><ele>540.0</ele><time>2026-04-16T08:07:45.841Z</time></trkpt><trkpt lat="42.643325" lon="-8.3661033"><ele>543.0</ele><time>2026-04-16T08:07:46.841Z</time></trkpt><trkpt lat="42.6432167" lon="-8.3661367"><ele>546.0</ele><time>2026-04-16T08:07:47.842Z</time></trkpt><trkpt lat="42.6431233" lon="-8.36613"><ele>546.0</ele><time>2026-04-16T08:07:48.841Z</time></trkpt><trkpt lat="42.6430333" lon="-8.366075"><ele>546.0</ele><time>2026-04-16T08:07:49.841Z</time></trkpt><trkpt lat="42.64296" lon="-8.3659783"><ele>546.0</ele><time>2026-04-16T08:07:50.842Z</time></trkpt><trkpt lat="42.6429017" lon="-8.3658433"><ele>546.0</ele><time>2026-04-16T08:07:51.842Z</time></trkpt><trkpt lat="42.6428617" lon="-8.3656667"><ele>547.6666666666666</ele><time>2026-04-16T08:07:52.841Z</time></trkpt><trkpt lat="42.6428317" lon="-8.36541"><ele>549.3333333333333</ele><time>2026-04-16T08:07:53.841Z</time></trkpt><trkpt lat="42.64281" lon="-8.365105"><ele>551.0</ele><time>2026-04-16T08:07:54.841Z</time></trkpt><trkpt lat="42.642785" lon="-8.364765"><ele>546.6666666666666</ele><time>2026-04-16T08:07:55.842Z</time></trkpt><trkpt lat="42.6427667" lon="-8.3644583"><ele>542.3333333333334</ele><time>2026-04-16T08:07:56.841Z</time></trkpt><trkpt lat="42.6427433" lon="-8.3642167"><ele>538.0</ele><time>2026-04-16T08:07:57.841Z</time></trkpt><trkpt lat="42.6427367" lon="-8.3640833"><ele>538.0</ele><time>2026-04-16T08:07:58.842Z</time></trkpt><trkpt lat="42.6427417" lon="-8.363985"><ele>538.0</ele><time>2026-04-16T08:07:59.841Z</time></trkpt><trkpt lat="42.6427717" lon="-8.363905"><ele>538.0</ele><time>2026-04-16T08:08:00.841Z</time></trkpt><trkpt lat="42.6428433" lon="-8.3638533"><ele>538.0</ele><time>2026-04-16T08:08:01.842Z</time></trkpt><trkpt lat="42.642915" lon="-8.363745"><ele>538.0</ele><time>2026-04-16T08:08:02.841Z</time></trkpt><trkpt lat="42.6430133" lon="-8.3636133"><ele>542.0</ele><time>2026-04-16T08:08:03.841Z</time></trkpt><trkpt lat="42.6431333" lon="-8.3634683"><ele>546.0</ele><time>2026-04-16T08:08:04.842Z</time></trkpt><trkpt lat="42.6432683" lon="-8.3633"><ele>550.0</ele><time>2026-04-16T08:08:05.842Z</time></trkpt><trkpt lat="42.643395" lon="-8.3631217"><ele>549.6666666666667</ele><time>2026-04-16T08:08:06.841Z</time></trkpt><trkpt lat="42.64353" lon="-8.3629433"><ele>549.3333333333334</ele><time>2026-04-16T08:08:07.842Z</time></trkpt><trkpt lat="42.6436633" lon="-8.36276"><ele>549.0</ele><time>2026-04-16T08:08:08.841Z</time></trkpt><trkpt lat="42.6437933" lon="-8.3625767"><ele>549.0</ele><time>2026-04-16T08:08:09.842Z</time></trkpt><trkpt lat="42.6439083" lon="-8.3624"><ele>549.0</ele><time>2026-04-16T08:08:10.842Z</time></trkpt><trkpt lat="42.644" lon="-8.3622283"><ele>549.0</ele><time>2026-04-16T08:08:11.842Z</time></trkpt><trkpt lat="42.6440567" lon="-8.3620733"><ele>550.4</ele><time>2026-04-16T08:08:12.842Z</time></trkpt><trkpt lat="42.6440967" lon="-8.36195"><ele>551.8</ele><time>2026-04-16T08:08:13.841Z</time></trkpt><trkpt lat="42.6440867" lon="-8.3618533"><ele>553.2</ele><time>2026-04-16T08:08:14.842Z</time></trkpt><trkpt lat="42.6440367" lon="-8.36176"><ele>554.6</ele><time>2026-04-16T08:08:15.841Z</time></trkpt><trkpt lat="42.6439067" lon="-8.361695"><ele>556.0</ele><time>2026-04-16T08:08:16.841Z</time></trkpt><trkpt lat="42.643755" lon="-8.3615983"><ele>553.3333333333334</ele><time>2026-04-16T08:08:17.841Z</time></trkpt><trkpt lat="42.6435867" lon="-8.36147"><ele>550.6666666666666</ele><time>2026-04-16T08:08:18.841Z</time></trkpt><trkpt lat="42.6434317" lon="-8.3612933"><ele>548.0</ele><time>2026-04-16T08:08:19.841Z</time></trkpt><trkpt lat="42.643275" lon="-8.3610933"><ele>553.3333333333333</ele><time>2026-04-16T08:08:20.841Z</time></trkpt><trkpt lat="42.643115" lon="-8.36089"><ele>558.6666666666666</ele><time>2026-04-16T08:08:21.841Z</time></trkpt><trkpt lat="42.64298" lon="-8.3606917"><ele>564.0</ele><time>2026-04-16T08:08:22.841Z</time></trkpt><trkpt lat="42.64282" lon="-8.3605217"><ele>566.0</ele><time>2026-04-16T08:08:23.841Z</time></trkpt><trkpt lat="42.642685" lon="-8.36039"><ele>568.0</ele><time>2026-04-16T08:08:24.841Z</time></trkpt><trkpt lat="42.6425583" lon="-8.3602517"><ele>570.0</ele><time>2026-04-16T08:08:25.842Z</time></trkpt><trkpt lat="42.6424617" lon="-8.3601267"><ele>570.0</ele><time>2026-04-16T08:08:26.842Z</time></trkpt><trkpt lat="42.642405" lon="-8.3600383"><ele>570.0</ele><time>2026-04-16T08:08:27.841Z</time></trkpt><trkpt lat="42.6423767" lon="-8.35995"><ele>570.0</ele><time>2026-04-16T08:08:28.841Z</time></trkpt><trkpt lat="42.6423933" lon="-8.3598067"><ele>570.0</ele><time>2026-04-16T08:08:29.842Z</time></trkpt><trkpt lat="42.6424567" lon="-8.3596467"><ele>570.0</ele><time>2026-04-16T08:08:30.842Z</time></trkpt><trkpt lat="42.6425167" lon="-8.3594983"><ele>572.0</ele><time>2026-04-16T08:08:31.841Z</time></trkpt><trkpt lat="42.642625" lon="-8.359325"><ele>574.0</ele><time>2026-04-16T08:08:32.841Z</time></trkpt><trkpt lat="42.64274" lon="-8.3591117"><ele>576.0</ele><time>2026-04-16T08:08:33.841Z</time></trkpt><trkpt lat="42.6428233" lon="-8.3589133"><ele>577.2</ele><time>2026-04-16T08:08:34.841Z</time></trkpt><trkpt lat="42.6428683" lon="-8.3587317"><ele>578.4000000000001</ele><time>2026-04-16T08:08:35.841Z</time></trkpt><trkpt lat="42.6428767" lon="-8.3586367"><ele>579.6</ele><time>2026-04-16T08:08:36.841Z</time></trkpt><trkpt lat="42.6428" lon="-8.3585283"><ele>580.8000000000001</ele><time>2026-04-16T08:08:37.841Z</time></trkpt><trkpt lat="42.6427517" lon="-8.3583933"><ele>582.0</ele><time>2026-04-16T08:08:38.841Z</time></trkpt><trkpt lat="42.642655" lon="-8.3582267"><ele>582.0</ele><time>2026-04-16T08:08:39.841Z</time></trkpt><trkpt lat="42.6425083" lon="-8.3580467"><ele>582.0</ele><time>2026-04-16T08:08:40.842Z</time></trkpt><trkpt lat="42.64235" lon="-8.3578617"><ele>582.0</ele><time>2026-04-16T08:08:41.842Z</time></trkpt><trkpt lat="42.6421917" lon="-8.35766"><ele>583.0</ele><time>2026-04-16T08:08:42.841Z</time></trkpt><trkpt lat="42.6420317" lon="-8.3574517"><ele>584.0</ele><time>2026-04-16T08:08:43.841Z</time></trkpt><trkpt lat="42.64186" lon="-8.357215"><ele>585.6666666666666</ele><time>2026-04-16T08:08:44.841Z</time></trkpt><trkpt lat="42.6416917" lon="-8.3570017"><ele>587.3333333333334</ele><time>2026-04-16T08:08:45.841Z</time></trkpt><trkpt lat="42.64155" lon="-8.3567983"><ele>589.0</ele><time>2026-04-16T08:08:46.841Z</time></trkpt><trkpt lat="42.6414117" lon="-8.3566267"><ele>589.0</ele><time>2026-04-16T08:08:47.841Z</time></trkpt><trkpt lat="42.6412967" lon="-8.3564617"><ele>589.0</ele><time>2026-04-16T08:08:48.841Z</time></trkpt><trkpt lat="42.6411833" lon="-8.3563033"><ele>589.0</ele><time>2026-04-16T08:08:49.841Z</time></trkpt><trkpt lat="42.6410633" lon="-8.3561383"><ele>588.6666666666667</ele><time>2026-04-16T08:08:50.841Z</time></trkpt><trkpt lat="42.6409483" lon="-8.3559667"><ele>588.3333333333334</ele><time>2026-04-16T08:08:51.842Z</time></trkpt><trkpt lat="42.6408317" lon="-8.3557917"><ele>588.0</ele><time>2026-04-16T08:08:52.841Z</time></trkpt><trkpt lat="42.6407283" lon="-8.3555867"><ele>587.3333333333334</ele><time>2026-04-16T08:08:53.842Z</time></trkpt><trkpt lat="42.64062" lon="-8.355365"><ele>586.6666666666667</ele><time>2026-04-16T08:08:54.842Z</time></trkpt><trkpt lat="42.6404983" lon="-8.355115"><ele>586.0</ele><time>2026-04-16T08:08:55.841Z</time></trkpt><trkpt lat="42.64038" lon="-8.35486"><ele>586.6666666666667</ele><time>2026-04-16T08:08:56.842Z</time></trkpt><trkpt lat="42.64026" lon="-8.35462"><ele>587.3333333333334</ele><time>2026-04-16T08:08:57.841Z</time></trkpt><trkpt lat="42.6401483" lon="-8.3544"><ele>588.0</ele><time>2026-04-16T08:08:58.842Z</time></trkpt><trkpt lat="42.640055" lon="-8.3542083"><ele>588.0</ele><time>2026-04-16T08:08:59.841Z</time></trkpt><trkpt lat="42.639975" lon="-8.3540233"><ele>588.0</ele><time>2026-04-16T08:09:00.841Z</time></trkpt><trkpt lat="42.6399067" lon="-8.3538583"><ele>588.0</ele><time>2026-04-16T08:09:01.842Z</time></trkpt><trkpt lat="42.6398967" lon="-8.3536833"><ele>588.0</ele><time>2026-04-16T08:09:02.841Z</time></trkpt><trkpt lat="42.6399083" lon="-8.3534783"><ele>589.3333333333334</ele><time>2026-04-16T08:09:03.842Z</time></trkpt><trkpt lat="42.63991" lon="-8.35324"><ele>590.6666666666667</ele><time>2026-04-16T08:09:04.841Z</time></trkpt><trkpt lat="42.6399133" lon="-8.3529883"><ele>592.0</ele><time>2026-04-16T08:09:05.841Z</time></trkpt><trkpt lat="42.6399067" lon="-8.3527583"><ele>592.3333333333334</ele><time>2026-04-16T08:09:06.841Z</time></trkpt><trkpt lat="42.639905" lon="-8.3525383"><ele>592.6666666666666</ele><time>2026-04-16T08:09:07.841Z</time></trkpt><trkpt lat="42.639855" lon="-8.3523483"><ele>593.0</ele><time>2026-04-16T08:09:08.842Z</time></trkpt><trkpt lat="42.63977" lon="-8.352175"><ele>593.3333333333333</ele><time>2026-04-16T08:09:09.841Z</time></trkpt><trkpt lat="42.6396733" lon="-8.3520233"><ele>593.6666666666666</ele><time>2026-04-16T08:09:10.841Z</time></trkpt><trkpt lat="42.6395567" lon="-8.351885"><ele>594.0</ele><time>2026-04-16T08:09:11.841Z</time></trkpt><trkpt lat="42.6394217" lon="-8.3517333"><ele>592.6666666666666</ele><time>2026-04-16T08:09:12.842Z</time></trkpt><trkpt lat="42.63927" lon="-8.351545"><ele>591.3333333333333</ele><time>2026-04-16T08:09:13.841Z</time></trkpt><trkpt lat="42.63915" lon="-8.3513183"><ele>590.0</ele><time>2026-04-16T08:09:14.841Z</time></trkpt><trkpt lat="42.6390583" lon="-8.3510783"><ele>589.6666666666666</ele><time>2026-04-16T08:09:15.841Z</time></trkpt><trkpt lat="42.638975" lon="-8.3508233"><ele>589.3333333333334</ele><time>2026-04-16T08:09:16.842Z</time></trkpt><trkpt lat="42.6389083" lon="-8.35056"><ele>589.0</ele><time>2026-04-16T08:09:17.842Z</time></trkpt><trkpt lat="42.6388417" lon="-8.3503167"><ele>587.0</ele><time>2026-04-16T08:09:18.841Z</time></trkpt><trkpt lat="42.6387817" lon="-8.3500933"><ele>585.0</ele><time>2026-04-16T08:09:19.841Z</time></trkpt><trkpt lat="42.6387" lon="-8.3499033"><ele>583.0</ele><time>2026-04-16T08:09:20.841Z</time></trkpt><trkpt lat="42.6386133" lon="-8.3497167"><ele>582.6666666666667</ele><time>2026-04-16T08:09:21.841Z</time></trkpt><trkpt lat="42.6385233" lon="-8.349535"><ele>582.3333333333334</ele><time>2026-04-16T08:09:22.842Z</time></trkpt><trkpt lat="42.638435" lon="-8.3493417"><ele>582.0</ele><time>2026-04-16T08:09:23.842Z</time></trkpt><trkpt lat="42.6382933" lon="-8.3492133"><ele>582.0</ele><time>2026-04-16T08:09:24.843Z</time></trkpt><trkpt lat="42.6382233" lon="-8.349075"><ele>582.0</ele><time>2026-04-16T08:09:25.842Z</time></trkpt><trkpt lat="42.638175" lon="-8.3489083"><ele>582.0</ele><time>2026-04-16T08:09:26.842Z</time></trkpt><trkpt lat="42.6381617" lon="-8.34876"><ele>582.0</ele><time>2026-04-16T08:09:27.843Z</time></trkpt><trkpt lat="42.6381683" lon="-8.34859"><ele>583.3333333333334</ele><time>2026-04-16T08:09:28.843Z</time></trkpt><trkpt lat="42.6381783" lon="-8.3483917"><ele>584.6666666666667</ele><time>2026-04-16T08:09:29.843Z</time></trkpt><trkpt lat="42.6381867" lon="-8.348155"><ele>586.0</ele><time>2026-04-16T08:09:30.843Z</time></trkpt><trkpt lat="42.6381683" lon="-8.347915"><ele>586.3333333333334</ele><time>2026-04-16T08:09:31.843Z</time></trkpt><trkpt lat="42.6381283" lon="-8.3476483"><ele>586.6666666666666</ele><time>2026-04-16T08:09:32.843Z</time></trkpt><trkpt lat="42.638055" lon="-8.3473567"><ele>587.0</ele><time>2026-04-16T08:09:33.842Z</time></trkpt><trkpt lat="42.6379767" lon="-8.34707"><ele>587.0</ele><time>2026-04-16T08:09:34.842Z</time></trkpt><trkpt lat="42.6378967" lon="-8.3468133"><ele>587.0</ele><time>2026-04-16T08:09:35.843Z</time></trkpt><trkpt lat="42.637855" lon="-8.3466"><ele>587.0</ele><time>2026-04-16T08:09:36.842Z</time></trkpt><trkpt lat="42.637805" lon="-8.3464083"><ele>587.25</ele><time>2026-04-16T08:09:37.843Z</time></trkpt><trkpt lat="42.6377567" lon="-8.3462433"><ele>587.5</ele><time>2026-04-16T08:09:38.842Z</time></trkpt><trkpt lat="42.6377133" lon="-8.3461067"><ele>587.75</ele><time>2026-04-16T08:09:39.843Z</time></trkpt><trkpt lat="42.6376667" lon="-8.3459583"><ele>588.0</ele><time>2026-04-16T08:09:40.843Z</time></trkpt><trkpt lat="42.637605" lon="-8.3458017"><ele>588.0</ele><time>2026-04-16T08:09:41.842Z</time></trkpt><trkpt lat="42.6375533" lon="-8.3456533"><ele>588.0</ele><time>2026-04-16T08:09:42.842Z</time></trkpt><trkpt lat="42.6374883" lon="-8.3454983"><ele>588.0</ele><time>2026-04-16T08:09:43.842Z</time></trkpt><trkpt lat="42.6374367" lon="-8.3453467"><ele>588.0</ele><time>2026-04-16T08:09:44.842Z</time></trkpt><trkpt lat="42.6373917" lon="-8.3452033"><ele>588.3333333333334</ele><time>2026-04-16T08:09:45.842Z</time></trkpt><trkpt lat="42.6373517" lon="-8.345075"><ele>588.6666666666666</ele><time>2026-04-16T08:09:46.842Z</time></trkpt><trkpt lat="42.6373267" lon="-8.344955"><ele>589.0</ele><time>2026-04-16T08:09:47.842Z</time></trkpt><trkpt lat="42.637325" lon="-8.3448583"><ele>589.3333333333333</ele><time>2026-04-16T08:09:48.843Z</time></trkpt><trkpt lat="42.6373383" lon="-8.3447717"><ele>589.6666666666666</ele><time>2026-04-16T08:09:49.843Z</time></trkpt><trkpt lat="42.63739" lon="-8.3446983"><ele>590.0</ele><time>2026-04-16T08:09:50.842Z</time></trkpt><trkpt lat="42.63747" lon="-8.344635"><ele>590.75</ele><time>2026-04-16T08:09:51.842Z</time></trkpt><trkpt lat="42.63759" lon="-8.34458"><ele>591.5</ele><time>2026-04-16T08:09:52.842Z</time></trkpt><trkpt lat="42.637735" lon="-8.3445233"><ele>592.25</ele><time>2026-04-16T08:09:53.842Z</time></trkpt><trkpt lat="42.6378783" lon="-8.3444583"><ele>593.0</ele><time>2026-04-16T08:09:54.842Z</time></trkpt><trkpt lat="42.6380117" lon="-8.3443983"><ele>591.5</ele><time>2026-04-16T08:09:55.842Z</time></trkpt><trkpt lat="42.638135" lon="-8.3443367"><ele>590.0</ele><time>2026-04-16T08:09:56.842Z</time></trkpt><trkpt lat="42.6382583" lon="-8.344275"><ele>588.5</ele><time>2026-04-16T08:09:57.843Z</time></trkpt><trkpt lat="42.6383683" lon="-8.3442167"><ele>587.0</ele><time>2026-04-16T08:09:58.843Z</time></trkpt><trkpt lat="42.6384783" lon="-8.344155"><ele>587.0</ele><time>2026-04-16T08:09:59.842Z</time></trkpt><trkpt lat="42.6385817" lon="-8.3440883"><ele>587.0</ele><time>2026-04-16T08:10:00.842Z</time></trkpt><trkpt lat="42.6386883" lon="-8.344025"><ele>587.0</ele><time>2026-04-16T08:10:01.842Z</time></trkpt><trkpt lat="42.6388033" lon="-8.3439717"><ele>587.0</ele><time>2026-04-16T08:10:02.842Z</time></trkpt><trkpt lat="42.6389117" lon="-8.3439033"><ele>588.0</ele><time>2026-04-16T08:10:03.842Z</time></trkpt><trkpt lat="42.6390133" lon="-8.3438383"><ele>589.0</ele><time>2026-04-16T08:10:04.842Z</time></trkpt><trkpt lat="42.639115" lon="-8.3437583"><ele>590.0</ele><time>2026-04-16T08:10:05.843Z</time></trkpt><trkpt lat="42.6392083" lon="-8.3436733"><ele>591.0</ele><time>2026-04-16T08:10:06.843Z</time></trkpt><trkpt lat="42.6393" lon="-8.34358"><ele>591.0</ele><time>2026-04-16T08:10:07.842Z</time></trkpt><trkpt lat="42.6393817" lon="-8.3434733"><ele>591.0</ele><time>2026-04-16T08:10:08.843Z</time></trkpt><trkpt lat="42.639455" lon="-8.3433517"><ele>591.0</ele><time>2026-04-16T08:10:09.843Z</time></trkpt><trkpt lat="42.6395133" lon="-8.343225"><ele>591.0</ele><time>2026-04-16T08:10:10.843Z</time></trkpt><trkpt lat="42.6395633" lon="-8.3431"><ele>591.0</ele><time>2026-04-16T08:10:11.842Z</time></trkpt><trkpt lat="42.6396083" lon="-8.3429767"><ele>590.5</ele><time>2026-04-16T08:10:12.842Z</time></trkpt><trkpt lat="42.6396367" lon="-8.34287"><ele>590.0</ele><time>2026-04-16T08:10:13.842Z</time></trkpt><trkpt lat="42.63964" lon="-8.3427717"><ele>589.5</ele><time>2026-04-16T08:10:14.842Z</time></trkpt><trkpt lat="42.6396067" lon="-8.3426833"><ele>589.0</ele><time>2026-04-16T08:10:15.842Z</time></trkpt><trkpt lat="42.63954" lon="-8.3426117"><ele>588.5</ele><time>2026-04-16T08:10:16.842Z</time></trkpt><trkpt lat="42.6394467" lon="-8.34255"><ele>588.0</ele><time>2026-04-16T08:10:17.843Z</time></trkpt><trkpt lat="42.6393367" lon="-8.34248"><ele>589.5</ele><time>2026-04-16T08:10:18.843Z</time></trkpt><trkpt lat="42.6392283" lon="-8.3423933"><ele>591.0</ele><time>2026-04-16T08:10:19.843Z</time></trkpt><trkpt lat="42.6391167" lon="-8.34232"><ele>592.5</ele><time>2026-04-16T08:10:20.842Z</time></trkpt><trkpt lat="42.6390067" lon="-8.3422317"><ele>594.0</ele><time>2026-04-16T08:10:21.842Z</time></trkpt><trkpt lat="42.6388917" lon="-8.3421233"><ele>594.2</ele><time>2026-04-16T08:10:22.843Z</time></trkpt><trkpt lat="42.63879" lon="-8.3420083"><ele>594.4</ele><time>2026-04-16T08:10:23.842Z</time></trkpt><trkpt lat="42.6387133" lon="-8.3418983"><ele>594.6</ele><time>2026-04-16T08:10:24.843Z</time></trkpt><trkpt lat="42.638675" lon="-8.3417817"><ele>594.8</ele><time>2026-04-16T08:10:25.842Z</time></trkpt><trkpt lat="42.6386483" lon="-8.3416367"><ele>595.0</ele><time>2026-04-16T08:10:26.843Z</time></trkpt><trkpt lat="42.6386383" lon="-8.34145"><ele>595.3333333333334</ele><time>2026-04-16T08:10:27.842Z</time></trkpt><trkpt lat="42.6386433" lon="-8.341225"><ele>595.6666666666666</ele><time>2026-04-16T08:10:28.842Z</time></trkpt><trkpt lat="42.6386683" lon="-8.3409867"><ele>596.0</ele><time>2026-04-16T08:10:29.843Z</time></trkpt><trkpt lat="42.6387017" lon="-8.3407783"><ele>596.0</ele><time>2026-04-16T08:10:30.843Z</time></trkpt><trkpt lat="42.6387433" lon="-8.340595"><ele>596.0</ele><time>2026-04-16T08:10:31.842Z</time></trkpt><trkpt lat="42.63881" lon="-8.3404017"><ele>596.0</ele><time>2026-04-16T08:10:32.842Z</time></trkpt><trkpt lat="42.63892" lon="-8.3402283"><ele>595.3333333333333</ele><time>2026-04-16T08:10:33.842Z</time></trkpt><trkpt lat="42.639085" lon="-8.34002"><ele>594.6666666666666</ele><time>2026-04-16T08:10:34.842Z</time></trkpt><trkpt lat="42.6392233" lon="-8.3398383"><ele>594.0</ele><time>2026-04-16T08:10:35.843Z</time></trkpt><trkpt lat="42.639335" lon="-8.3396667"><ele>594.0</ele><time>2026-04-16T08:10:36.843Z</time></trkpt><trkpt lat="42.63942" lon="-8.3394783"><ele>594.0</ele><time>2026-04-16T08:10:37.842Z</time></trkpt><trkpt lat="42.6394767" lon="-8.3392567"><ele>594.0</ele><time>2026-04-16T08:10:38.843Z</time></trkpt><trkpt lat="42.63949" lon="-8.3389833"><ele>595.5</ele><time>2026-04-16T08:10:39.842Z</time></trkpt><trkpt lat="42.639465" lon="-8.3386617"><ele>597.0</ele><time>2026-04-16T08:10:40.843Z</time></trkpt><trkpt lat="42.6394283" lon="-8.33835"><ele>595.5</ele><time>2026-04-16T08:10:41.842Z</time></trkpt><trkpt lat="42.6393683" lon="-8.338035"><ele>594.0</ele><time>2026-04-16T08:10:42.842Z</time></trkpt><trkpt lat="42.63932" lon="-8.3377367"><ele>594.0</ele><time>2026-04-16T08:10:43.843Z</time></trkpt><trkpt lat="42.639275" lon="-8.3374583"><ele>594.0</ele><time>2026-04-16T08:10:44.843Z</time></trkpt><trkpt lat="42.6392317" lon="-8.337235"><ele>594.0</ele><time>2026-04-16T08:10:45.842Z</time></trkpt><trkpt lat="42.639185" lon="-8.33706"><ele>594.0</ele><time>2026-04-16T08:10:46.842Z</time></trkpt><trkpt lat="42.6391683" lon="-8.336905"><ele>594.0</ele><time>2026-04-16T08:10:47.842Z</time></trkpt><trkpt lat="42.63917" lon="-8.3367617"><ele>594.0</ele><time>2026-04-16T08:10:48.842Z</time></trkpt><trkpt lat="42.639195" lon="-8.3366133"><ele>594.0</ele><time>2026-04-16T08:10:49.842Z</time></trkpt><trkpt lat="42.6392467" lon="-8.3364883"><ele>594.0</ele><time>2026-04-16T08:10:50.843Z</time></trkpt><trkpt lat="42.6393083" lon="-8.33639"><ele>594.0</ele><time>2026-04-16T08:10:51.843Z</time></trkpt><trkpt lat="42.6393733" lon="-8.3363083"><ele>594.0</ele><time>2026-04-16T08:10:52.842Z</time></trkpt><trkpt lat="42.63944" lon="-8.3362367"><ele>594.0</ele><time>2026-04-16T08:10:53.843Z</time></trkpt><trkpt lat="42.6395217" lon="-8.3361633"><ele>594.0</ele><time>2026-04-16T08:10:54.843Z</time></trkpt><trkpt lat="42.6396233" lon="-8.33609"><ele>594.0</ele><time>2026-04-16T08:10:55.843Z</time></trkpt><trkpt lat="42.63973" lon="-8.3360017"><ele>594.0</ele><time>2026-04-16T08:10:56.842Z</time></trkpt><trkpt lat="42.6398383" lon="-8.3359067"><ele>594.0</ele><time>2026-04-16T08:10:57.842Z</time></trkpt><trkpt lat="42.6399133" lon="-8.3358367"><ele>594.0</ele><time>2026-04-16T08:10:58.843Z</time></trkpt><trkpt lat="42.6399817" lon="-8.3357883"><ele>594.0</ele><time>2026-04-16T08:10:59.843Z</time></trkpt><trkpt lat="42.6400883" lon="-8.3357467"><ele>594.0</ele><time>2026-04-16T08:11:01.842Z</time></trkpt><trkpt lat="42.6402267" lon="-8.335835"><ele>595.0</ele><time>2026-04-16T08:11:03.842Z</time></trkpt><trkpt lat="42.6403367" lon="-8.3359267"><ele>596.0</ele><time>2026-04-16T08:11:04.843Z</time></trkpt><trkpt lat="42.6404717" lon="-8.33607"><ele>597.0</ele><time>2026-04-16T08:11:05.842Z</time></trkpt><trkpt lat="42.6406083" lon="-8.336285"><ele>597.5</ele><time>2026-04-16T08:11:06.843Z</time></trkpt><trkpt lat="42.6407767" lon="-8.3365417"><ele>598.0</ele><time>2026-04-16T08:11:07.843Z</time></trkpt><trkpt lat="42.6408933" lon="-8.3367683"><ele>598.0</ele><time>2026-04-16T08:11:08.842Z</time></trkpt><trkpt lat="42.6409933" lon="-8.3369483"><ele>598.0</ele><time>2026-04-16T08:11:09.842Z</time></trkpt><trkpt lat="42.641085" lon="-8.3371183"><ele>598.0</ele><time>2026-04-16T08:11:10.842Z</time></trkpt><trkpt lat="42.6411867" lon="-8.3372183"><ele>598.0</ele><time>2026-04-16T08:11:11.843Z</time></trkpt><trkpt lat="42.6412883" lon="-8.3372883"><ele>599.25</ele><time>2026-04-16T08:11:12.842Z</time></trkpt><trkpt lat="42.6413917" lon="-8.3372867"><ele>600.5</ele><time>2026-04-16T08:11:13.843Z</time></trkpt><trkpt lat="42.6415233" lon="-8.3372633"><ele>601.75</ele><time>2026-04-16T08:11:14.843Z</time></trkpt><trkpt lat="42.641655" lon="-8.3372567"><ele>603.0</ele><time>2026-04-16T08:11:15.843Z</time></trkpt><trkpt lat="42.641785" lon="-8.33731"><ele>603.0</ele><time>2026-04-16T08:11:16.843Z</time></trkpt><trkpt lat="42.6419367" lon="-8.337375"><ele>603.0</ele><time>2026-04-16T08:11:17.842Z</time></trkpt><trkpt lat="42.6421183" lon="-8.3374533"><ele>603.0</ele><time>2026-04-16T08:11:18.842Z</time></trkpt><trkpt lat="42.6423083" lon="-8.337515"><ele>602.5</ele><time>2026-04-16T08:11:19.842Z</time></trkpt><trkpt lat="42.642485" lon="-8.3375667"><ele>602.0</ele><time>2026-04-16T08:11:20.843Z</time></trkpt><trkpt lat="42.6426233" lon="-8.33759"><ele>601.5</ele><time>2026-04-16T08:11:21.843Z</time></trkpt><trkpt lat="42.642725" lon="-8.3376017"><ele>601.0</ele><time>2026-04-16T08:11:22.842Z</time></trkpt><trkpt lat="42.642815" lon="-8.337545"><ele>601.2</ele><time>2026-04-16T08:11:24.842Z</time></trkpt><trkpt lat="42.642825" lon="-8.337455"><ele>601.4000000000001</ele><time>2026-04-16T08:11:25.843Z</time></trkpt><trkpt lat="42.6428417" lon="-8.337335"><ele>601.6</ele><time>2026-04-16T08:11:26.842Z</time></trkpt><trkpt lat="42.6428517" lon="-8.3371867"><ele>601.8000000000001</ele><time>2026-04-16T08:11:27.842Z</time></trkpt><trkpt lat="42.6428583" lon="-8.3369733"><ele>602.0</ele><time>2026-04-16T08:11:28.843Z</time></trkpt><trkpt lat="42.6428817" lon="-8.3366883"><ele>605.5</ele><time>2026-04-16T08:11:29.842Z</time></trkpt><trkpt lat="42.6429283" lon="-8.3363783"><ele>609.0</ele><time>2026-04-16T08:11:30.843Z</time></trkpt><trkpt lat="42.6429933" lon="-8.3360783"><ele>609.0</ele><time>2026-04-16T08:11:31.843Z</time></trkpt><trkpt lat="42.6430433" lon="-8.33582"><ele>609.0</ele><time>2026-04-16T08:11:32.843Z</time></trkpt><trkpt lat="42.6431117" lon="-8.3356167"><ele>609.0</ele><time>2026-04-16T08:11:33.842Z</time></trkpt><trkpt lat="42.64321" lon="-8.33545"><ele>611.0</ele><time>2026-04-16T08:11:34.843Z</time></trkpt><trkpt lat="42.643325" lon="-8.3352767"><ele>613.0</ele><time>2026-04-16T08:11:35.842Z</time></trkpt><trkpt lat="42.643445" lon="-8.335135"><ele>615.0</ele><time>2026-04-16T08:11:36.843Z</time></trkpt><trkpt lat="42.643605" lon="-8.334975"><ele>616.6666666666666</ele><time>2026-04-16T08:11:37.843Z</time></trkpt><trkpt lat="42.64378" lon="-8.334795"><ele>618.3333333333333</ele><time>2026-04-16T08:11:38.843Z</time></trkpt><trkpt lat="42.6439467" lon="-8.3346217"><ele>620.0</ele><time>2026-04-16T08:11:39.843Z</time></trkpt><trkpt lat="42.6441333" lon="-8.3344283"><ele>624.0</ele><time>2026-04-16T08:11:40.842Z</time></trkpt><trkpt lat="42.6443233" lon="-8.33424"><ele>628.0</ele><time>2026-04-16T08:11:41.842Z</time></trkpt><trkpt lat="42.64452" lon="-8.334045"><ele>632.0</ele><time>2026-04-16T08:11:42.842Z</time></trkpt><trkpt lat="42.6447317" lon="-8.333835"><ele>636.0</ele><time>2026-04-16T08:11:43.842Z</time></trkpt><trkpt lat="42.644935" lon="-8.333615"><ele>636.0</ele><time>2026-04-16T08:11:44.843Z</time></trkpt><trkpt lat="42.64515" lon="-8.3334033"><ele>636.0</ele><time>2026-04-16T08:11:45.843Z</time></trkpt><trkpt lat="42.645375" lon="-8.3331767"><ele>638.5</ele><time>2026-04-16T08:11:46.843Z</time></trkpt><trkpt lat="42.64559" lon="-8.3329383"><ele>641.0</ele><time>2026-04-16T08:11:47.842Z</time></trkpt><trkpt lat="42.6458167" lon="-8.332695"><ele>641.0</ele><time>2026-04-16T08:11:48.842Z</time></trkpt><trkpt lat="42.6460367" lon="-8.3324533"><ele>641.0</ele><time>2026-04-16T08:11:49.843Z</time></trkpt><trkpt lat="42.6462383" lon="-8.3322217"><ele>644.5</ele><time>2026-04-16T08:11:50.843Z</time></trkpt><trkpt lat="42.6464367" lon="-8.33201"><ele>648.0</ele><time>2026-04-16T08:11:51.843Z</time></trkpt><trkpt lat="42.6466283" lon="-8.33181"><ele>648.0</ele><time>2026-04-16T08:11:52.842Z</time></trkpt><trkpt lat="42.6468317" lon="-8.3316017"><ele>648.0</ele><time>2026-04-16T08:11:53.843Z</time></trkpt><trkpt lat="42.6470433" lon="-8.3313867"><ele>649.5</ele><time>2026-04-16T08:11:54.842Z</time></trkpt><trkpt lat="42.647255" lon="-8.3311767"><ele>651.0</ele><time>2026-04-16T08:11:55.842Z</time></trkpt><trkpt lat="42.64747" lon="-8.3309867"><ele>651.0</ele><time>2026-04-16T08:11:56.842Z</time></trkpt><trkpt lat="42.6476583" lon="-8.3308"><ele>651.0</ele><time>2026-04-16T08:11:57.843Z</time></trkpt><trkpt lat="42.64785" lon="-8.330625"><ele>652.0</ele><time>2026-04-16T08:11:58.842Z</time></trkpt><trkpt lat="42.64804" lon="-8.33045"><ele>653.0</ele><time>2026-04-16T08:11:59.843Z</time></trkpt><trkpt lat="42.6482633" lon="-8.3302633"><ele>653.0</ele><time>2026-04-16T08:12:00.842Z</time></trkpt><trkpt lat="42.6484983" lon="-8.3300817"><ele>653.0</ele><time>2026-04-16T08:12:01.843Z</time></trkpt><trkpt lat="42.6487167" lon="-8.3299167"><ele>654.0</ele><time>2026-04-16T08:12:02.842Z</time></trkpt><trkpt lat="42.6489267" lon="-8.3297583"><ele>655.0</ele><time>2026-04-16T08:12:03.842Z</time></trkpt><trkpt lat="42.6491317" lon="-8.329625"><ele>655.0</ele><time>2026-04-16T08:12:04.843Z</time></trkpt><trkpt lat="42.6493333" lon="-8.3295333"><ele>655.0</ele><time>2026-04-16T08:12:05.842Z</time></trkpt><trkpt lat="42.6495483" lon="-8.3294767"><ele>655.0</ele><time>2026-04-16T08:12:06.843Z</time></trkpt><trkpt lat="42.6497883" lon="-8.329435"><ele>656.0</ele><time>2026-04-16T08:12:07.842Z</time></trkpt><trkpt lat="42.6500383" lon="-8.3294283"><ele>657.0</ele><time>2026-04-16T08:12:08.842Z</time></trkpt><trkpt lat="42.6502883" lon="-8.329445"><ele>657.0</ele><time>2026-04-16T08:12:09.843Z</time></trkpt><trkpt lat="42.6505533" lon="-8.32946"><ele>657.0</ele><time>2026-04-16T08:12:10.842Z</time></trkpt><trkpt lat="42.6508233" lon="-8.329495"><ele>657.0</ele><time>2026-04-16T08:12:11.842Z</time></trkpt><trkpt lat="42.6510867" lon="-8.32953"><ele>657.0</ele><time>2026-04-16T08:12:12.843Z</time></trkpt><trkpt lat="42.6513367" lon="-8.3295417"><ele>655.0</ele><time>2026-04-16T08:12:13.842Z</time></trkpt><trkpt lat="42.6515867" lon="-8.3295583"><ele>653.0</ele><time>2026-04-16T08:12:14.842Z</time></trkpt><trkpt lat="42.6518233" lon="-8.32956"><ele>652.0</ele><time>2026-04-16T08:12:15.842Z</time></trkpt><trkpt lat="42.6520283" lon="-8.329555"><ele>651.0</ele><time>2026-04-16T08:12:16.842Z</time></trkpt><trkpt lat="42.652225" lon="-8.32955"><ele>650.0</ele><time>2026-04-16T08:12:17.842Z</time></trkpt><trkpt lat="42.6523867" lon="-8.32957"><ele>650.0</ele><time>2026-04-16T08:12:18.843Z</time></trkpt><trkpt lat="42.6525133" lon="-8.3296033"><ele>650.0</ele><time>2026-04-16T08:12:19.842Z</time></trkpt><trkpt lat="42.6526233" lon="-8.329625"><ele>650.0</ele><time>2026-04-16T08:12:20.843Z</time></trkpt><trkpt lat="42.6526733" lon="-8.329685"><ele>650.0</ele><time>2026-04-16T08:12:21.842Z</time></trkpt><trkpt lat="42.6527167" lon="-8.3297583"><ele>650.0</ele><time>2026-04-16T08:12:22.842Z</time></trkpt><trkpt lat="42.6527467" lon="-8.3298517"><ele>648.75</ele><time>2026-04-16T08:12:23.843Z</time></trkpt><trkpt lat="42.6527833" lon="-8.3299733"><ele>647.5</ele><time>2026-04-16T08:12:24.843Z</time></trkpt><trkpt lat="42.6528367" lon="-8.3301467"><ele>646.25</ele><time>2026-04-16T08:12:25.843Z</time></trkpt><trkpt lat="42.6529067" lon="-8.3303467"><ele>645.0</ele><time>2026-04-16T08:12:26.843Z</time></trkpt><trkpt lat="42.6530033" lon="-8.3306033"><ele>644.0</ele><time>2026-04-16T08:12:27.843Z</time></trkpt><trkpt lat="42.65309" lon="-8.330855"><ele>643.0</ele><time>2026-04-16T08:12:28.842Z</time></trkpt><trkpt lat="42.65315" lon="-8.3310533"><ele>642.0</ele><time>2026-04-16T08:12:29.843Z</time></trkpt><trkpt lat="42.6532017" lon="-8.3312083"><ele>642.0</ele><time>2026-04-16T08:12:30.842Z</time></trkpt><trkpt lat="42.653265" lon="-8.3313117"><ele>642.0</ele><time>2026-04-16T08:12:31.843Z</time></trkpt><trkpt lat="42.65332" lon="-8.33137"><ele>642.0</ele><time>2026-04-16T08:12:32.843Z</time></trkpt><trkpt lat="42.6534267" lon="-8.3313517"><ele>642.0</ele><time>2026-04-16T08:12:34.842Z</time></trkpt><trkpt lat="42.6534967" lon="-8.33128"><ele>642.0</ele><time>2026-04-16T08:12:35.842Z</time></trkpt><trkpt lat="42.6535967" lon="-8.33118"><ele>642.6666666666666</ele><time>2026-04-16T08:12:36.842Z</time></trkpt><trkpt lat="42.6537567" lon="-8.33102"><ele>643.3333333333333</ele><time>2026-04-16T08:12:37.843Z</time></trkpt><trkpt lat="42.6539383" lon="-8.3308533"><ele>644.0</ele><time>2026-04-16T08:12:38.843Z</time></trkpt><trkpt lat="42.6541267" lon="-8.3306833"><ele>644.0</ele><time>2026-04-16T08:12:39.842Z</time></trkpt><trkpt lat="42.654325" lon="-8.3305267"><ele>644.0</ele><time>2026-04-16T08:12:40.842Z</time></trkpt><trkpt lat="42.6545133" lon="-8.3303767"><ele>644.0</ele><time>2026-04-16T08:12:41.843Z</time></trkpt><trkpt lat="42.654685" lon="-8.3302467"><ele>644.75</ele><time>2026-04-16T08:12:42.842Z</time></trkpt><trkpt lat="42.654835" lon="-8.3301533"><ele>645.5</ele><time>2026-04-16T08:12:43.842Z</time></trkpt><trkpt lat="42.6549567" lon="-8.3300767"><ele>646.25</ele><time>2026-04-16T08:12:44.843Z</time></trkpt><trkpt lat="42.6550733" lon="-8.3300317"><ele>647.0</ele><time>2026-04-16T08:12:45.842Z</time></trkpt><trkpt lat="42.655155" lon="-8.3300333"><ele>647.0</ele><time>2026-04-16T08:12:46.843Z</time></trkpt><trkpt lat="42.655235" lon="-8.3300567"><ele>647.0</ele><time>2026-04-16T08:12:47.843Z</time></trkpt><trkpt lat="42.6552983" lon="-8.330065"><ele>647.0</ele><time>2026-04-16T08:12:48.842Z</time></trkpt><trkpt lat="42.6553633" lon="-8.33004"><ele>647.0</ele><time>2026-04-16T08:12:49.842Z</time></trkpt><trkpt lat="42.6554467" lon="-8.32999"><ele>647.0</ele><time>2026-04-16T08:12:50.843Z</time></trkpt><trkpt lat="42.6555433" lon="-8.329925"><ele>647.0</ele><time>2026-04-16T08:12:51.843Z</time></trkpt><trkpt lat="42.65567" lon="-8.3298333"><ele>646.75</ele><time>2026-04-16T08:12:52.842Z</time></trkpt><trkpt lat="42.6558017" lon="-8.32975"><ele>646.5</ele><time>2026-04-16T08:12:53.843Z</time></trkpt><trkpt lat="42.6559333" lon="-8.3296633"><ele>646.25</ele><time>2026-04-16T08:12:54.842Z</time></trkpt><trkpt lat="42.6560483" lon="-8.3295883"><ele>646.0</ele><time>2026-04-16T08:12:55.843Z</time></trkpt><trkpt lat="42.6561667" lon="-8.3295117"><ele>647.0</ele><time>2026-04-16T08:12:56.843Z</time></trkpt><trkpt lat="42.6562733" lon="-8.329435"><ele>648.0</ele><time>2026-04-16T08:12:57.842Z</time></trkpt><trkpt lat="42.6563717" lon="-8.3293617"><ele>649.0</ele><time>2026-04-16T08:12:58.843Z</time></trkpt><trkpt lat="42.6564733" lon="-8.3292833"><ele>650.0</ele><time>2026-04-16T08:12:59.843Z</time></trkpt><trkpt lat="42.656575" lon="-8.3292117"><ele>650.0</ele><time>2026-04-16T08:13:00.843Z</time></trkpt><trkpt lat="42.65668" lon="-8.3291417"><ele>650.0</ele><time>2026-04-16T08:13:01.842Z</time></trkpt><trkpt lat="42.6567817" lon="-8.3290767"><ele>650.0</ele><time>2026-04-16T08:13:02.842Z</time></trkpt><trkpt lat="42.6568833" lon="-8.3290033"><ele>650.0</ele><time>2026-04-16T08:13:03.842Z</time></trkpt><trkpt lat="42.656985" lon="-8.3289283"><ele>649.8</ele><time>2026-04-16T08:13:04.843Z</time></trkpt><trkpt lat="42.6570533" lon="-8.3288333"><ele>649.6</ele><time>2026-04-16T08:13:05.843Z</time></trkpt><trkpt lat="42.6570867" lon="-8.3287117"><ele>649.4000000000001</ele><time>2026-04-16T08:13:06.843Z</time></trkpt><trkpt lat="42.6570783" lon="-8.3285783"><ele>649.2</ele><time>2026-04-16T08:13:07.843Z</time></trkpt><trkpt lat="42.6570483" lon="-8.3284283"><ele>649.0</ele><time>2026-04-16T08:13:08.843Z</time></trkpt><trkpt lat="42.6570133" lon="-8.3282683"><ele>649.0</ele><time>2026-04-16T08:13:09.842Z</time></trkpt><trkpt lat="42.6569717" lon="-8.3281167"><ele>649.0</ele><time>2026-04-16T08:13:10.842Z</time></trkpt><trkpt lat="42.6569317" lon="-8.32796"><ele>649.0</ele><time>2026-04-16T08:13:11.843Z</time></trkpt><trkpt lat="42.6568817" lon="-8.3278067"><ele>649.0</ele><time>2026-04-16T08:13:12.842Z</time></trkpt><trkpt lat="42.6568417" lon="-8.3276483"><ele>649.25</ele><time>2026-04-16T08:13:13.842Z</time></trkpt><trkpt lat="42.6568167" lon="-8.3274883"><ele>649.5</ele><time>2026-04-16T08:13:14.842Z</time></trkpt><trkpt lat="42.6567883" lon="-8.327315"><ele>649.75</ele><time>2026-04-16T08:13:15.842Z</time></trkpt><trkpt lat="42.6567767" lon="-8.32715"><ele>650.0</ele><time>2026-04-16T08:13:16.843Z</time></trkpt><trkpt lat="42.6567733" lon="-8.3269867"><ele>650.0</ele><time>2026-04-16T08:13:17.842Z</time></trkpt><trkpt lat="42.656765" lon="-8.3268333"><ele>650.0</ele><time>2026-04-16T08:13:18.842Z</time></trkpt><trkpt lat="42.65676" lon="-8.3266833"><ele>650.0</ele><time>2026-04-16T08:13:19.842Z</time></trkpt><trkpt lat="42.6567733" lon="-8.3265333"><ele>650.0</ele><time>2026-04-16T08:13:20.843Z</time></trkpt><trkpt lat="42.65678" lon="-8.326375"><ele>650.0</ele><time>2026-04-16T08:13:21.843Z</time></trkpt><trkpt lat="42.6567717" lon="-8.326215"><ele>650.0</ele><time>2026-04-16T08:13:22.842Z</time></trkpt><trkpt lat="42.65675" lon="-8.3260533"><ele>650.0</ele><time>2026-04-16T08:13:23.842Z</time></trkpt><trkpt lat="42.656715" lon="-8.3258883"><ele>650.0</ele><time>2026-04-16T08:13:24.842Z</time></trkpt><trkpt lat="42.6566733" lon="-8.3257317"><ele>650.0</ele><time>2026-04-16T08:13:25.842Z</time></trkpt><trkpt lat="42.656635" lon="-8.3255717"><ele>650.0</ele><time>2026-04-16T08:13:26.843Z</time></trkpt><trkpt lat="42.6565933" lon="-8.3254233"><ele>650.0</ele><time>2026-04-16T08:13:27.842Z</time></trkpt><trkpt lat="42.6565517" lon="-8.3252767"><ele>650.0</ele><time>2026-04-16T08:13:28.842Z</time></trkpt><trkpt lat="42.6565417" lon="-8.3251133"><ele>650.5</ele><time>2026-04-16T08:13:29.842Z</time></trkpt><trkpt lat="42.6565417" lon="-8.3249433"><ele>651.0</ele><time>2026-04-16T08:13:30.843Z</time></trkpt><trkpt lat="42.6565533" lon="-8.324775"><ele>651.5</ele><time>2026-04-16T08:13:31.842Z</time></trkpt><trkpt lat="42.6565683" lon="-8.324615"><ele>652.0</ele><time>2026-04-16T08:13:32.843Z</time></trkpt><trkpt lat="42.6565833" lon="-8.3244517"><ele>653.0</ele><time>2026-04-16T08:13:33.843Z</time></trkpt><trkpt lat="42.6565967" lon="-8.3242883"><ele>654.0</ele><time>2026-04-16T08:13:34.842Z</time></trkpt><trkpt lat="42.6566133" lon="-8.3241317"><ele>655.0</ele><time>2026-04-16T08:13:35.843Z</time></trkpt><trkpt lat="42.6566333" lon="-8.3239783"><ele>656.0</ele><time>2026-04-16T08:13:36.842Z</time></trkpt><trkpt lat="42.6566567" lon="-8.3238217"><ele>657.25</ele><time>2026-04-16T08:13:37.843Z</time></trkpt><trkpt lat="42.6566817" lon="-8.323665"><ele>658.5</ele><time>2026-04-16T08:13:38.843Z</time></trkpt><trkpt lat="42.6567067" lon="-8.3235033"><ele>659.75</ele><time>2026-04-16T08:13:39.842Z</time></trkpt><trkpt lat="42.65672" lon="-8.32334"><ele>661.0</ele><time>2026-04-16T08:13:40.843Z</time></trkpt><trkpt lat="42.6567233" lon="-8.3231733"><ele>662.75</ele><time>2026-04-16T08:13:41.843Z</time></trkpt><trkpt lat="42.6567083" lon="-8.32301"><ele>664.5</ele><time>2026-04-16T08:13:42.842Z</time></trkpt><trkpt lat="42.6566783" lon="-8.322855"><ele>666.25</ele><time>2026-04-16T08:13:43.842Z</time></trkpt><trkpt lat="42.6566267" lon="-8.3227167"><ele>668.0</ele><time>2026-04-16T08:13:44.842Z</time></trkpt><trkpt lat="42.6565733" lon="-8.3225717"><ele>668.0</ele><time>2026-04-16T08:13:45.843Z</time></trkpt><trkpt lat="42.6565183" lon="-8.3224267"><ele>668.0</ele><time>2026-04-16T08:13:46.843Z</time></trkpt><trkpt lat="42.656465" lon="-8.32228"><ele>668.0</ele><time>2026-04-16T08:13:47.843Z</time></trkpt><trkpt lat="42.656415" lon="-8.3221433"><ele>668.0</ele><time>2026-04-16T08:13:48.843Z</time></trkpt><trkpt lat="42.6563667" lon="-8.3220017"><ele>669.5</ele><time>2026-04-16T08:13:49.843Z</time></trkpt><trkpt lat="42.6563183" lon="-8.321855"><ele>671.0</ele><time>2026-04-16T08:13:50.842Z</time></trkpt><trkpt lat="42.6562617" lon="-8.32171"><ele>672.5</ele><time>2026-04-16T08:13:51.843Z</time></trkpt><trkpt lat="42.6562217" lon="-8.32156"><ele>674.0</ele><time>2026-04-16T08:13:52.842Z</time></trkpt><trkpt lat="42.656195" lon="-8.3214067"><ele>674.75</ele><time>2026-04-16T08:13:53.843Z</time></trkpt><trkpt lat="42.6561917" lon="-8.3212367"><ele>675.5</ele><time>2026-04-16T08:13:54.842Z</time></trkpt><trkpt lat="42.65621" lon="-8.3210683"><ele>676.25</ele><time>2026-04-16T08:13:55.843Z</time></trkpt><trkpt lat="42.65625" lon="-8.3209083"><ele>677.0</ele><time>2026-04-16T08:13:56.843Z</time></trkpt><trkpt lat="42.6563033" lon="-8.3207533"><ele>677.0</ele><time>2026-04-16T08:13:57.842Z</time></trkpt><trkpt lat="42.656355" lon="-8.3205967"><ele>677.0</ele><time>2026-04-16T08:13:58.843Z</time></trkpt><trkpt lat="42.6564117" lon="-8.3204317"><ele>677.0</ele><time>2026-04-16T08:13:59.842Z</time></trkpt><trkpt lat="42.65646" lon="-8.320265"><ele>677.0</ele><time>2026-04-16T08:14:00.842Z</time></trkpt><trkpt lat="42.6565133" lon="-8.3201067"><ele>677.25</ele><time>2026-04-16T08:14:01.843Z</time></trkpt><trkpt lat="42.6565583" lon="-8.31996"><ele>677.5</ele><time>2026-04-16T08:14:02.842Z</time></trkpt><trkpt lat="42.6565967" lon="-8.31982"><ele>677.75</ele><time>2026-04-16T08:14:03.843Z</time></trkpt><trkpt lat="42.6566233" lon="-8.3196733"><ele>678.0</ele><time>2026-04-16T08:14:04.842Z</time></trkpt><trkpt lat="42.6566467" lon="-8.3195183"><ele>678.0</ele><time>2026-04-16T08:14:05.843Z</time></trkpt><trkpt lat="42.656645" lon="-8.31936"><ele>678.0</ele><time>2026-04-16T08:14:06.843Z</time></trkpt><trkpt lat="42.6566617" lon="-8.319195"><ele>678.0</ele><time>2026-04-16T08:14:07.843Z</time></trkpt><trkpt lat="42.6566767" lon="-8.3190283"><ele>678.0</ele><time>2026-04-16T08:14:08.842Z</time></trkpt><trkpt lat="42.6566817" lon="-8.3188717"><ele>677.8</ele><time>2026-04-16T08:14:09.842Z</time></trkpt><trkpt lat="42.6566883" lon="-8.3187183"><ele>677.5999999999999</ele><time>2026-04-16T08:14:10.843Z</time></trkpt><trkpt lat="42.6566967" lon="-8.31857"><ele>677.4000000000001</ele><time>2026-04-16T08:14:11.842Z</time></trkpt><trkpt lat="42.6567083" lon="-8.3184183"><ele>677.2</ele><time>2026-04-16T08:14:12.842Z</time></trkpt><trkpt lat="42.656705" lon="-8.3182683"><ele>677.0</ele><time>2026-04-16T08:14:13.843Z</time></trkpt><trkpt lat="42.6567083" lon="-8.31811"><ele>676.8</ele><time>2026-04-16T08:14:14.842Z</time></trkpt><trkpt lat="42.6567083" lon="-8.31796"><ele>676.6</ele><time>2026-04-16T08:14:15.843Z</time></trkpt><trkpt lat="42.656715" lon="-8.3178083"><ele>676.4</ele><time>2026-04-16T08:14:16.842Z</time></trkpt><trkpt lat="42.6567317" lon="-8.31766"><ele>676.1999999999999</ele><time>2026-04-16T08:14:17.842Z</time></trkpt><trkpt lat="42.65676" lon="-8.31751"><ele>676.0</ele><time>2026-04-16T08:14:18.843Z</time></trkpt><trkpt lat="42.6568067" lon="-8.317375"><ele>676.0</ele><time>2026-04-16T08:14:19.843Z</time></trkpt><trkpt lat="42.6568717" lon="-8.317255"><ele>676.0</ele><time>2026-04-16T08:14:20.843Z</time></trkpt><trkpt lat="42.6569483" lon="-8.3171383"><ele>676.0</ele><time>2026-04-16T08:14:21.842Z</time></trkpt><trkpt lat="42.65704" lon="-8.31702"><ele>676.0</ele><time>2026-04-16T08:14:22.842Z</time></trkpt><trkpt lat="42.65713" lon="-8.3169033"><ele>674.75</ele><time>2026-04-16T08:14:23.843Z</time></trkpt><trkpt lat="42.6572167" lon="-8.316785"><ele>673.5</ele><time>2026-04-16T08:14:24.843Z</time></trkpt><trkpt lat="42.6572983" lon="-8.3166633"><ele>672.25</ele><time>2026-04-16T08:14:25.843Z</time></trkpt><trkpt lat="42.6573833" lon="-8.3165483"><ele>671.0</ele><time>2026-04-16T08:14:26.842Z</time></trkpt><trkpt lat="42.6574617" lon="-8.3164333"><ele>671.0</ele><time>2026-04-16T08:14:27.842Z</time></trkpt><trkpt lat="42.6575383" lon="-8.316325"><ele>671.0</ele><time>2026-04-16T08:14:28.843Z</time></trkpt><trkpt lat="42.6576133" lon="-8.3162167"><ele>671.0</ele><time>2026-04-16T08:14:29.842Z</time></trkpt><trkpt lat="42.6576717" lon="-8.316105"><ele>671.0</ele><time>2026-04-16T08:14:30.842Z</time></trkpt><trkpt lat="42.657695" lon="-8.31599"><ele>671.0</ele><time>2026-04-16T08:14:31.843Z</time></trkpt><trkpt lat="42.6576833" lon="-8.31588"><ele>671.0</ele><time>2026-04-16T08:14:32.842Z</time></trkpt><trkpt lat="42.65765" lon="-8.3157633"><ele>671.0</ele><time>2026-04-16T08:14:33.843Z</time></trkpt><trkpt lat="42.6575533" lon="-8.3156583"><ele>671.0</ele><time>2026-04-16T08:14:34.843Z</time></trkpt><trkpt lat="42.6574567" lon="-8.3155433"><ele>671.0</ele><time>2026-04-16T08:14:35.842Z</time></trkpt><trkpt lat="42.6573567" lon="-8.315415"><ele>672.25</ele><time>2026-04-16T08:14:36.842Z</time></trkpt><trkpt lat="42.6572733" lon="-8.31528"><ele>673.5</ele><time>2026-04-16T08:14:37.843Z</time></trkpt><trkpt lat="42.6571967" lon="-8.3151483"><ele>674.75</ele><time>2026-04-16T08:14:38.843Z</time></trkpt><trkpt lat="42.6571183" lon="-8.3150167"><ele>676.0</ele><time>2026-04-16T08:14:39.843Z</time></trkpt><trkpt lat="42.6570433" lon="-8.31488"><ele>676.0</ele><time>2026-04-16T08:14:40.842Z</time></trkpt><trkpt lat="42.6569583" lon="-8.314735"><ele>676.0</ele><time>2026-04-16T08:14:41.842Z</time></trkpt><trkpt lat="42.6568783" lon="-8.3145933"><ele>676.0</ele><time>2026-04-16T08:14:42.843Z</time></trkpt><trkpt lat="42.6568083" lon="-8.31446"><ele>676.0</ele><time>2026-04-16T08:14:43.842Z</time></trkpt><trkpt lat="42.656745" lon="-8.3143367"><ele>676.25</ele><time>2026-04-16T08:14:44.842Z</time></trkpt><trkpt lat="42.65668" lon="-8.3142167"><ele>676.5</ele><time>2026-04-16T08:14:45.843Z</time></trkpt><trkpt lat="42.656615" lon="-8.3140967"><ele>676.75</ele><time>2026-04-16T08:14:46.843Z</time></trkpt><trkpt lat="42.6565567" lon="-8.3139617"><ele>677.0</ele><time>2026-04-16T08:14:47.843Z</time></trkpt><trkpt lat="42.6564917" lon="-8.3138317"><ele>677.75</ele><time>2026-04-16T08:14:48.843Z</time></trkpt><trkpt lat="42.6564183" lon="-8.3136967"><ele>678.5</ele><time>2026-04-16T08:14:49.843Z</time></trkpt><trkpt lat="42.65634" lon="-8.3135583"><ele>679.25</ele><time>2026-04-16T08:14:50.843Z</time></trkpt><trkpt lat="42.65625" lon="-8.3134033"><ele>680.0</ele><time>2026-04-16T08:14:51.843Z</time></trkpt><trkpt lat="42.6561767" lon="-8.313235"><ele>680.0</ele><time>2026-04-16T08:14:52.843Z</time></trkpt><trkpt lat="42.656125" lon="-8.3131017"><ele>680.0</ele><time>2026-04-16T08:14:53.843Z</time></trkpt><trkpt lat="42.6560983" lon="-8.3130033"><ele>680.0</ele><time>2026-04-16T08:14:54.843Z</time></trkpt><trkpt lat="42.656115" lon="-8.3128467"><ele>680.0</ele><time>2026-04-16T08:14:56.843Z</time></trkpt><trkpt lat="42.6561633" lon="-8.3127583"><ele>680.0</ele><time>2026-04-16T08:14:57.843Z</time></trkpt><trkpt lat="42.6562467" lon="-8.312675"><ele>679.6666666666666</ele><time>2026-04-16T08:14:58.842Z</time></trkpt><trkpt lat="42.656355" lon="-8.312615"><ele>679.3333333333334</ele><time>2026-04-16T08:14:59.843Z</time></trkpt><trkpt lat="42.656505" lon="-8.312575"><ele>679.0</ele><time>2026-04-16T08:15:00.843Z</time></trkpt><trkpt lat="42.6567" lon="-8.3125667"><ele>679.0</ele><time>2026-04-16T08:15:01.842Z</time></trkpt><trkpt lat="42.65688" lon="-8.3125583"><ele>679.0</ele><time>2026-04-16T08:15:02.842Z</time></trkpt><trkpt lat="42.65703" lon="-8.3125433"><ele>679.0</ele><time>2026-04-16T08:15:03.842Z</time></trkpt><trkpt lat="42.657115" lon="-8.3125067"><ele>679.0</ele><time>2026-04-16T08:15:04.843Z</time></trkpt><trkpt lat="42.65715" lon="-8.3123767"><ele>679.25</ele><time>2026-04-16T08:15:06.842Z</time></trkpt><trkpt lat="42.657125" lon="-8.3122817"><ele>679.5</ele><time>2026-04-16T08:15:07.842Z</time></trkpt><trkpt lat="42.6570683" lon="-8.3121517"><ele>679.75</ele><time>2026-04-16T08:15:08.843Z</time></trkpt><trkpt lat="42.6569967" lon="-8.31198"><ele>680.0</ele><time>2026-04-16T08:15:09.843Z</time></trkpt><trkpt lat="42.6569167" lon="-8.311755"><ele>681.3333333333333</ele><time>2026-04-16T08:15:10.842Z</time></trkpt><trkpt lat="42.65683" lon="-8.3114883"><ele>682.6666666666666</ele><time>2026-04-16T08:15:11.842Z</time></trkpt><trkpt lat="42.656745" lon="-8.3112017"><ele>684.0</ele><time>2026-04-16T08:15:12.842Z</time></trkpt><trkpt lat="42.656675" lon="-8.3109"><ele>685.0</ele><time>2026-04-16T08:15:13.843Z</time></trkpt><trkpt lat="42.65661" lon="-8.3105817"><ele>686.0</ele><time>2026-04-16T08:15:14.842Z</time></trkpt><trkpt lat="42.6565433" lon="-8.3102833"><ele>687.3333333333333</ele><time>2026-04-16T08:15:15.842Z</time></trkpt><trkpt lat="42.6564733" lon="-8.3100083"><ele>688.6666666666666</ele><time>2026-04-16T08:15:16.843Z</time></trkpt><trkpt lat="42.65642" lon="-8.3097633"><ele>690.0</ele><time>2026-04-16T08:15:17.842Z</time></trkpt><trkpt lat="42.65638" lon="-8.309555"><ele>690.0</ele><time>2026-04-16T08:15:18.843Z</time></trkpt><trkpt lat="42.6563333" lon="-8.30938"><ele>690.0</ele><time>2026-04-16T08:15:19.842Z</time></trkpt><trkpt lat="42.6562683" lon="-8.309195"><ele>690.0</ele><time>2026-04-16T08:15:20.842Z</time></trkpt><trkpt lat="42.656195" lon="-8.3089733"><ele>690.0</ele><time>2026-04-16T08:15:21.842Z</time></trkpt><trkpt lat="42.65612" lon="-8.3087033"><ele>690.0</ele><time>2026-04-16T08:15:22.843Z</time></trkpt><trkpt lat="42.6560533" lon="-8.3084383"><ele>690.0</ele><time>2026-04-16T08:15:23.843Z</time></trkpt><trkpt lat="42.656" lon="-8.3082117"><ele>689.6</ele><time>2026-04-16T08:15:24.843Z</time></trkpt><trkpt lat="42.6559483" lon="-8.3080383"><ele>689.2</ele><time>2026-04-16T08:15:25.843Z</time></trkpt><trkpt lat="42.6559083" lon="-8.30792"><ele>688.8</ele><time>2026-04-16T08:15:26.842Z</time></trkpt><trkpt lat="42.65582" lon="-8.3078367"><ele>688.4</ele><time>2026-04-16T08:15:28.842Z</time></trkpt><trkpt lat="42.6557583" lon="-8.3078617"><ele>688.0</ele><time>2026-04-16T08:15:29.842Z</time></trkpt><trkpt lat="42.655655" lon="-8.30792"><ele>688.0</ele><time>2026-04-16T08:15:30.842Z</time></trkpt><trkpt lat="42.6555533" lon="-8.3079583"><ele>688.0</ele><time>2026-04-16T08:15:31.842Z</time></trkpt><trkpt lat="42.6554667" lon="-8.3079583"><ele>688.0</ele><time>2026-04-16T08:15:32.843Z</time></trkpt><trkpt lat="42.6553983" lon="-8.30792"><ele>688.0</ele><time>2026-04-16T08:15:33.843Z</time></trkpt><trkpt lat="42.6553333" lon="-8.3078417"><ele>688.0</ele><time>2026-04-16T08:15:34.842Z</time></trkpt><trkpt lat="42.655275" lon="-8.3077117"><ele>686.6666666666667</ele><time>2026-04-16T08:15:35.842Z</time></trkpt><trkpt lat="42.6552233" lon="-8.3074967"><ele>685.3333333333334</ele><time>2026-04-16T08:15:36.842Z</time></trkpt><trkpt lat="42.65517" lon="-8.3072517"><ele>684.0</ele><time>2026-04-16T08:15:37.843Z</time></trkpt><trkpt lat="42.6551317" lon="-8.3070583"><ele>683.8333333333334</ele><time>2026-04-16T08:15:38.843Z</time></trkpt><trkpt lat="42.6551" lon="-8.306915"><ele>683.6666666666666</ele><time>2026-04-16T08:15:39.842Z</time></trkpt><trkpt lat="42.6550833" lon="-8.3068167"><ele>683.5</ele><time>2026-04-16T08:15:40.842Z</time></trkpt><trkpt lat="42.6550783" lon="-8.3067267"><ele>683.3333333333333</ele><time>2026-04-16T08:15:42.842Z</time></trkpt><trkpt lat="42.6551533" lon="-8.3067033"><ele>683.1666666666666</ele><time>2026-04-16T08:15:44.843Z</time></trkpt><trkpt lat="42.655245" lon="-8.3067033"><ele>683.0</ele><time>2026-04-16T08:15:45.842Z</time></trkpt><trkpt lat="42.65536" lon="-8.306695"><ele>684.6666666666666</ele><time>2026-04-16T08:15:46.842Z</time></trkpt><trkpt lat="42.655515" lon="-8.30669"><ele>686.3333333333334</ele><time>2026-04-16T08:15:47.842Z</time></trkpt><trkpt lat="42.655695" lon="-8.3066667"><ele>688.0</ele><time>2026-04-16T08:15:48.842Z</time></trkpt><trkpt lat="42.6558733" lon="-8.3066417"><ele>688.0</ele><time>2026-04-16T08:15:49.842Z</time></trkpt><trkpt lat="42.65603" lon="-8.30663"><ele>688.0</ele><time>2026-04-16T08:15:50.842Z</time></trkpt><trkpt lat="42.656155" lon="-8.3066033"><ele>688.0</ele><time>2026-04-16T08:15:51.842Z</time></trkpt><trkpt lat="42.65624" lon="-8.3065667"><ele>688.0</ele><time>2026-04-16T08:15:52.842Z</time></trkpt><trkpt lat="42.6562883" lon="-8.3065017"><ele>688.0</ele><time>2026-04-16T08:15:53.843Z</time></trkpt><trkpt lat="42.656305" lon="-8.3064183"><ele>688.75</ele><time>2026-04-16T08:15:54.842Z</time></trkpt><trkpt lat="42.6563033" lon="-8.3063017"><ele>689.5</ele><time>2026-04-16T08:15:55.842Z</time></trkpt><trkpt lat="42.6562867" lon="-8.306135"><ele>690.25</ele><time>2026-04-16T08:15:56.842Z</time></trkpt><trkpt lat="42.6562683" lon="-8.30594"><ele>691.0</ele><time>2026-04-16T08:15:57.842Z</time></trkpt><trkpt lat="42.6562683" lon="-8.3057367"><ele>690.0</ele><time>2026-04-16T08:15:58.842Z</time></trkpt><trkpt lat="42.6563" lon="-8.30556"><ele>689.0</ele><time>2026-04-16T08:15:59.843Z</time></trkpt><trkpt lat="42.6563683" lon="-8.3054317"><ele>688.0</ele><time>2026-04-16T08:16:00.843Z</time></trkpt><trkpt lat="42.6564567" lon="-8.3053433"><ele>687.0</ele><time>2026-04-16T08:16:01.842Z</time></trkpt><trkpt lat="42.6565383" lon="-8.3052867"><ele>687.0</ele><time>2026-04-16T08:16:02.842Z</time></trkpt><trkpt lat="42.6566383" lon="-8.3052667"><ele>687.0</ele><time>2026-04-16T08:16:03.843Z</time></trkpt><trkpt lat="42.6567433" lon="-8.3052783"><ele>687.0</ele><time>2026-04-16T08:16:04.843Z</time></trkpt><trkpt lat="42.6568683" lon="-8.3053383"><ele>687.0</ele><time>2026-04-16T08:16:05.844Z</time></trkpt><trkpt lat="42.65703" lon="-8.3054183"><ele>686.6666666666666</ele><time>2026-04-16T08:16:06.844Z</time></trkpt><trkpt lat="42.6572117" lon="-8.305525"><ele>686.3333333333333</ele><time>2026-04-16T08:16:07.843Z</time></trkpt><trkpt lat="42.6573983" lon="-8.3056417"><ele>686.0</ele><time>2026-04-16T08:16:08.843Z</time></trkpt><trkpt lat="42.657575" lon="-8.3057483"><ele>686.0</ele><time>2026-04-16T08:16:09.844Z</time></trkpt><trkpt lat="42.6577183" lon="-8.3058617"><ele>686.0</ele><time>2026-04-16T08:16:10.843Z</time></trkpt><trkpt lat="42.6578433" lon="-8.306"><ele>686.0</ele><time>2026-04-16T08:16:11.844Z</time></trkpt><trkpt lat="42.6579583" lon="-8.3061567"><ele>683.75</ele><time>2026-04-16T08:16:12.843Z</time></trkpt><trkpt lat="42.6580733" lon="-8.306305"><ele>681.5</ele><time>2026-04-16T08:16:13.844Z</time></trkpt><trkpt lat="42.6581767" lon="-8.30643"><ele>679.25</ele><time>2026-04-16T08:16:14.843Z</time></trkpt><trkpt lat="42.6583" lon="-8.306525"><ele>677.0</ele><time>2026-04-16T08:16:15.844Z</time></trkpt><trkpt lat="42.6584383" lon="-8.306595"><ele>677.0</ele><time>2026-04-16T08:16:16.843Z</time></trkpt><trkpt lat="42.6585867" lon="-8.3066417"><ele>677.0</ele><time>2026-04-16T08:16:17.843Z</time></trkpt><trkpt lat="42.658885" lon="-8.30676"><ele>672.0</ele><time>2026-04-16T08:16:19.843Z</time></trkpt><trkpt lat="42.6590283" lon="-8.306835"><ele>667.0</ele><time>2026-04-16T08:16:20.843Z</time></trkpt><trkpt lat="42.6591617" lon="-8.3069283"><ele>662.0</ele><time>2026-04-16T08:16:21.843Z</time></trkpt><trkpt lat="42.6593117" lon="-8.3070367"><ele>658.3333333333333</ele><time>2026-04-16T08:16:22.844Z</time></trkpt><trkpt lat="42.6594617" lon="-8.3071417"><ele>654.6666666666666</ele><time>2026-04-16T08:16:23.843Z</time></trkpt><trkpt lat="42.6596133" lon="-8.3072467"><ele>651.0</ele><time>2026-04-16T08:16:24.844Z</time></trkpt><trkpt lat="42.6597583" lon="-8.3073483"><ele>651.0</ele><time>2026-04-16T08:16:25.843Z</time></trkpt><trkpt lat="42.65989" lon="-8.3074467"><ele>651.0</ele><time>2026-04-16T08:16:26.844Z</time></trkpt><trkpt lat="42.6600217" lon="-8.30753"><ele>651.0</ele><time>2026-04-16T08:16:27.843Z</time></trkpt><trkpt lat="42.660135" lon="-8.30759"><ele>651.0</ele><time>2026-04-16T08:16:28.843Z</time></trkpt><trkpt lat="42.660235" lon="-8.3076467"><ele>648.0</ele><time>2026-04-16T08:16:29.844Z</time></trkpt><trkpt lat="42.6603183" lon="-8.3077133"><ele>645.0</ele><time>2026-04-16T08:16:30.843Z</time></trkpt><trkpt lat="42.6603883" lon="-8.3078017"><ele>642.0</ele><time>2026-04-16T08:16:31.843Z</time></trkpt><trkpt lat="42.66046" lon="-8.30791"><ele>639.0</ele><time>2026-04-16T08:16:32.843Z</time></trkpt><trkpt lat="42.66054" lon="-8.3080083"><ele>636.0</ele><time>2026-04-16T08:16:33.843Z</time></trkpt><trkpt lat="42.660615" lon="-8.3080717"><ele>636.0</ele><time>2026-04-16T08:16:34.844Z</time></trkpt><trkpt lat="42.6607117" lon="-8.3080517"><ele>636.0</ele><time>2026-04-16T08:16:36.844Z</time></trkpt><trkpt lat="42.6607733" lon="-8.3078867"><ele>636.0</ele><time>2026-04-16T08:16:38.843Z</time></trkpt><trkpt lat="42.6607767" lon="-8.307715"><ele>636.0</ele><time>2026-04-16T08:16:39.844Z</time></trkpt><trkpt lat="42.6607733" lon="-8.3074683"><ele>633.3333333333334</ele><time>2026-04-16T08:16:40.843Z</time></trkpt><trkpt lat="42.6607367" lon="-8.30718"><ele>630.6666666666667</ele><time>2026-04-16T08:16:41.843Z</time></trkpt><trkpt lat="42.6607033" lon="-8.3069283"><ele>628.0</ele><time>2026-04-16T08:16:42.843Z</time></trkpt><trkpt lat="42.6606767" lon="-8.30674"><ele>628.0</ele><time>2026-04-16T08:16:43.843Z</time></trkpt><trkpt lat="42.6606717" lon="-8.306565"><ele>628.0</ele><time>2026-04-16T08:16:44.843Z</time></trkpt><trkpt lat="42.6606483" lon="-8.3064117"><ele>628.0</ele><time>2026-04-16T08:16:45.844Z</time></trkpt><trkpt lat="42.6605817" lon="-8.3062783"><ele>628.0</ele><time>2026-04-16T08:16:46.843Z</time></trkpt><trkpt lat="42.660485" lon="-8.3061433"><ele>628.5</ele><time>2026-04-16T08:16:47.843Z</time></trkpt><trkpt lat="42.66039" lon="-8.30601"><ele>629.0</ele><time>2026-04-16T08:16:48.844Z</time></trkpt><trkpt lat="42.6602983" lon="-8.3058683"><ele>629.5</ele><time>2026-04-16T08:16:49.843Z</time></trkpt><trkpt lat="42.66021" lon="-8.305725"><ele>630.0</ele><time>2026-04-16T08:16:50.844Z</time></trkpt><trkpt lat="42.6601283" lon="-8.3056017"><ele>629.0</ele><time>2026-04-16T08:16:51.843Z</time></trkpt><trkpt lat="42.6600467" lon="-8.305535"><ele>628.0</ele><time>2026-04-16T08:16:52.844Z</time></trkpt><trkpt lat="42.6599533" lon="-8.3054983"><ele>627.0</ele><time>2026-04-16T08:16:53.844Z</time></trkpt><trkpt lat="42.6598667" lon="-8.3054667"><ele>626.0</ele><time>2026-04-16T08:16:54.844Z</time></trkpt><trkpt lat="42.65979" lon="-8.3054317"><ele>625.0</ele><time>2026-04-16T08:16:55.843Z</time></trkpt><trkpt lat="42.6597167" lon="-8.3053617"><ele>625.0</ele><time>2026-04-16T08:16:56.843Z</time></trkpt><trkpt lat="42.65965" lon="-8.3052733"><ele>625.0</ele><time>2026-04-16T08:16:57.843Z</time></trkpt><trkpt lat="42.659585" lon="-8.3051717"><ele>625.0</ele><time>2026-04-16T08:16:58.843Z</time></trkpt><trkpt lat="42.659505" lon="-8.3050733"><ele>625.0</ele><time>2026-04-16T08:16:59.844Z</time></trkpt><trkpt lat="42.659415" lon="-8.3049767"><ele>625.0</ele><time>2026-04-16T08:17:00.843Z</time></trkpt><trkpt lat="42.6593283" lon="-8.3048667"><ele>624.75</ele><time>2026-04-16T08:17:01.844Z</time></trkpt><trkpt lat="42.65922" lon="-8.30475"><ele>624.5</ele><time>2026-04-16T08:17:02.843Z</time></trkpt><trkpt lat="42.6591017" lon="-8.3046167"><ele>624.25</ele><time>2026-04-16T08:17:03.843Z</time></trkpt><trkpt lat="42.6589883" lon="-8.3045183"><ele>624.0</ele><time>2026-04-16T08:17:04.843Z</time></trkpt><trkpt lat="42.6588667" lon="-8.304455"><ele>624.0</ele><time>2026-04-16T08:17:05.843Z</time></trkpt><trkpt lat="42.6587533" lon="-8.3044067"><ele>624.0</ele><time>2026-04-16T08:17:06.844Z</time></trkpt><trkpt lat="42.6586733" lon="-8.30435"><ele>624.0</ele><time>2026-04-16T08:17:07.844Z</time></trkpt><trkpt lat="42.6586033" lon="-8.30426"><ele>624.0</ele><time>2026-04-16T08:17:08.843Z</time></trkpt><trkpt lat="42.6585383" lon="-8.30415"><ele>624.0</ele><time>2026-04-16T08:17:09.844Z</time></trkpt><trkpt lat="42.6584617" lon="-8.3040283"><ele>622.2</ele><time>2026-04-16T08:17:10.843Z</time></trkpt><trkpt lat="42.6583833" lon="-8.30392"><ele>620.4</ele><time>2026-04-16T08:17:11.843Z</time></trkpt><trkpt lat="42.658315" lon="-8.303815"><ele>618.6</ele><time>2026-04-16T08:17:12.843Z</time></trkpt><trkpt lat="42.6582533" lon="-8.3036983"><ele>616.8</ele><time>2026-04-16T08:17:13.843Z</time></trkpt><trkpt lat="42.658195" lon="-8.3035733"><ele>615.0</ele><time>2026-04-16T08:17:14.843Z</time></trkpt><trkpt lat="42.6581167" lon="-8.3034533"><ele>615.0</ele><time>2026-04-16T08:17:15.843Z</time></trkpt><trkpt lat="42.6580217" lon="-8.3033067"><ele>615.0</ele><time>2026-04-16T08:17:16.844Z</time></trkpt><trkpt lat="42.6579217" lon="-8.30315"><ele>615.0</ele><time>2026-04-16T08:17:17.843Z</time></trkpt><trkpt lat="42.6578183" lon="-8.30299"><ele>612.3333333333334</ele><time>2026-04-16T08:17:18.843Z</time></trkpt><trkpt lat="42.6577083" lon="-8.3028217"><ele>609.6666666666667</ele><time>2026-04-16T08:17:19.844Z</time></trkpt><trkpt lat="42.6576117" lon="-8.3026667"><ele>607.0</ele><time>2026-04-16T08:17:20.844Z</time></trkpt><trkpt lat="42.657495" lon="-8.3025617"><ele>607.0</ele><time>2026-04-16T08:17:21.844Z</time></trkpt><trkpt lat="42.65738" lon="-8.3024583"><ele>607.0</ele><time>2026-04-16T08:17:22.844Z</time></trkpt><trkpt lat="42.657275" lon="-8.30238"><ele>607.0</ele><time>2026-04-16T08:17:23.843Z</time></trkpt><trkpt lat="42.6571917" lon="-8.302315"><ele>607.0</ele><time>2026-04-16T08:17:24.844Z</time></trkpt><trkpt lat="42.6571367" lon="-8.30224"><ele>607.0</ele><time>2026-04-16T08:17:25.843Z</time></trkpt><trkpt lat="42.6571067" lon="-8.302155"><ele>602.0</ele><time>2026-04-16T08:17:26.843Z</time></trkpt><trkpt lat="42.6570917" lon="-8.302045"><ele>597.0</ele><time>2026-04-16T08:17:27.843Z</time></trkpt><trkpt lat="42.657085" lon="-8.3019"><ele>592.0</ele><time>2026-04-16T08:17:28.844Z</time></trkpt><trkpt lat="42.6570667" lon="-8.3017017"><ele>587.0</ele><time>2026-04-16T08:17:29.843Z</time></trkpt><trkpt lat="42.6570217" lon="-8.3014933"><ele>582.3333333333333</ele><time>2026-04-16T08:17:30.844Z</time></trkpt><trkpt lat="42.6569717" lon="-8.3012817"><ele>577.6666666666666</ele><time>2026-04-16T08:17:31.843Z</time></trkpt><trkpt lat="42.6569167" lon="-8.30108"><ele>573.0</ele><time>2026-04-16T08:17:32.844Z</time></trkpt><trkpt lat="42.6568483" lon="-8.3008817"><ele>576.5</ele><time>2026-04-16T08:17:33.843Z</time></trkpt><trkpt lat="42.65677" lon="-8.3007067"><ele>580.0</ele><time>2026-04-16T08:17:34.843Z</time></trkpt><trkpt lat="42.6567017" lon="-8.3005533"><ele>583.5</ele><time>2026-04-16T08:17:35.843Z</time></trkpt><trkpt lat="42.656655" lon="-8.3004017"><ele>587.0</ele><time>2026-04-16T08:17:36.844Z</time></trkpt><trkpt lat="42.65663" lon="-8.3002383"><ele>587.0</ele><time>2026-04-16T08:17:37.844Z</time></trkpt><trkpt lat="42.6565933" lon="-8.30007"><ele>587.0</ele><time>2026-04-16T08:17:38.843Z</time></trkpt><trkpt lat="42.656545" lon="-8.2999267"><ele>587.0</ele><time>2026-04-16T08:17:39.843Z</time></trkpt><trkpt lat="42.6564767" lon="-8.29983"><ele>587.0</ele><time>2026-04-16T08:17:40.843Z</time></trkpt><trkpt lat="42.6563983" lon="-8.2997667"><ele>587.0</ele><time>2026-04-16T08:17:41.843Z</time></trkpt><trkpt lat="42.65631" lon="-8.2997183"><ele>589.0</ele><time>2026-04-16T08:17:42.844Z</time></trkpt><trkpt lat="42.6562033" lon="-8.299685"><ele>591.0</ele><time>2026-04-16T08:17:43.844Z</time></trkpt><trkpt lat="42.656095" lon="-8.2996817"><ele>593.0</ele><time>2026-04-16T08:17:44.844Z</time></trkpt><trkpt lat="42.65598" lon="-8.2997033"><ele>595.0</ele><time>2026-04-16T08:17:45.843Z</time></trkpt><trkpt lat="42.6558667" lon="-8.2997317"><ele>597.0</ele><time>2026-04-16T08:17:46.844Z</time></trkpt><trkpt lat="42.6557533" lon="-8.2997517"><ele>597.0</ele><time>2026-04-16T08:17:47.843Z</time></trkpt><trkpt lat="42.6556417" lon="-8.2997517"><ele>597.0</ele><time>2026-04-16T08:17:48.844Z</time></trkpt><trkpt lat="42.6555433" lon="-8.2997183"><ele>597.0</ele><time>2026-04-16T08:17:49.843Z</time></trkpt><trkpt lat="42.6554467" lon="-8.29967"><ele>597.0</ele><time>2026-04-16T08:17:50.844Z</time></trkpt><trkpt lat="42.6553683" lon="-8.2995833"><ele>597.0</ele><time>2026-04-16T08:17:51.844Z</time></trkpt><trkpt lat="42.6552767" lon="-8.2994833"><ele>593.2</ele><time>2026-04-16T08:17:52.844Z</time></trkpt><trkpt lat="42.655175" lon="-8.299385"><ele>589.4000000000001</ele><time>2026-04-16T08:17:53.843Z</time></trkpt><trkpt lat="42.6550767" lon="-8.2993183"><ele>585.5999999999999</ele><time>2026-04-16T08:17:54.844Z</time></trkpt><trkpt lat="42.6549633" lon="-8.2992917"><ele>581.8</ele><time>2026-04-16T08:17:55.844Z</time></trkpt><trkpt lat="42.654865" lon="-8.29929"><ele>578.0</ele><time>2026-04-16T08:17:56.843Z</time></trkpt><trkpt lat="42.654785" lon="-8.2993083"><ele>578.0</ele><time>2026-04-16T08:17:57.843Z</time></trkpt><trkpt lat="42.6547217" lon="-8.2993567"><ele>578.0</ele><time>2026-04-16T08:17:58.843Z</time></trkpt><trkpt lat="42.6546783" lon="-8.299425"><ele>578.0</ele><time>2026-04-16T08:17:59.844Z</time></trkpt><trkpt lat="42.6546117" lon="-8.29949"><ele>578.0</ele><time>2026-04-16T08:18:01.843Z</time></trkpt><trkpt lat="42.6545817" lon="-8.2994067"><ele>578.0</ele><time>2026-04-16T08:18:03.843Z</time></trkpt><trkpt lat="42.6545767" lon="-8.2993083"><ele>578.0</ele><time>2026-04-16T08:18:04.843Z</time></trkpt><trkpt lat="42.6545867" lon="-8.299195"><ele>578.0</ele><time>2026-04-16T08:18:05.843Z</time></trkpt><trkpt lat="42.65462" lon="-8.2990667"><ele>578.0</ele><time>2026-04-16T08:18:06.843Z</time></trkpt><trkpt lat="42.65466" lon="-8.2989533"><ele>578.0</ele><time>2026-04-16T08:18:07.844Z</time></trkpt><trkpt lat="42.6547267" lon="-8.2988433"><ele>578.0</ele><time>2026-04-16T08:18:08.843Z</time></trkpt><trkpt lat="42.65481" lon="-8.29872"><ele>578.0</ele><time>2026-04-16T08:18:09.844Z</time></trkpt><trkpt lat="42.6548867" lon="-8.2986117"><ele>578.0</ele><time>2026-04-16T08:18:10.843Z</time></trkpt><trkpt lat="42.6549733" lon="-8.2985333"><ele>574.6</ele><time>2026-04-16T08:18:11.843Z</time></trkpt><trkpt lat="42.6550667" lon="-8.2984917"><ele>571.1999999999999</ele><time>2026-04-16T08:18:12.844Z</time></trkpt><trkpt lat="42.655155" lon="-8.29851"><ele>567.8</ele><time>2026-04-16T08:18:13.843Z</time></trkpt><trkpt lat="42.6552433" lon="-8.2985783"><ele>564.4</ele><time>2026-04-16T08:18:14.843Z</time></trkpt><trkpt lat="42.6553467" lon="-8.2987083"><ele>561.0</ele><time>2026-04-16T08:18:15.843Z</time></trkpt><trkpt lat="42.655445" lon="-8.2988417"><ele>561.5</ele><time>2026-04-16T08:18:16.843Z</time></trkpt><trkpt lat="42.65552" lon="-8.2989217"><ele>562.0</ele><time>2026-04-16T08:18:17.844Z</time></trkpt><trkpt lat="42.6555867" lon="-8.2989983"><ele>562.5</ele><time>2026-04-16T08:18:18.843Z</time></trkpt><trkpt lat="42.6556583" lon="-8.299065"><ele>563.0</ele><time>2026-04-16T08:18:19.843Z</time></trkpt><trkpt lat="42.65574" lon="-8.2990967"><ele>563.5</ele><time>2026-04-16T08:18:20.843Z</time></trkpt><trkpt lat="42.655825" lon="-8.2991033"><ele>564.0</ele><time>2026-04-16T08:18:21.844Z</time></trkpt><trkpt lat="42.6559117" lon="-8.2990767"><ele>564.0</ele><time>2026-04-16T08:18:22.844Z</time></trkpt><trkpt lat="42.6559883" lon="-8.2989883"><ele>564.0</ele><time>2026-04-16T08:18:23.844Z</time></trkpt><trkpt lat="42.656055" lon="-8.2988983"><ele>564.0</ele><time>2026-04-16T08:18:24.843Z</time></trkpt><trkpt lat="42.656135" lon="-8.2988283"><ele>564.0</ele><time>2026-04-16T08:18:25.844Z</time></trkpt><trkpt lat="42.65622" lon="-8.29879"><ele>564.0</ele><time>2026-04-16T08:18:26.843Z</time></trkpt><trkpt lat="42.6563183" lon="-8.2987417"><ele>557.0</ele><time>2026-04-16T08:18:27.844Z</time></trkpt><trkpt lat="42.6564483" lon="-8.29869"><ele>550.0</ele><time>2026-04-16T08:18:28.843Z</time></trkpt><trkpt lat="42.6565783" lon="-8.2986233"><ele>543.0</ele><time>2026-04-16T08:18:29.844Z</time></trkpt><trkpt lat="42.6567133" lon="-8.2985433"><ele>536.0</ele><time>2026-04-16T08:18:30.843Z</time></trkpt><trkpt lat="42.65682" lon="-8.2984583"><ele>536.0</ele><time>2026-04-16T08:18:31.843Z</time></trkpt><trkpt lat="42.6569017" lon="-8.29836"><ele>536.0</ele><time>2026-04-16T08:18:32.844Z</time></trkpt><trkpt lat="42.6569883" lon="-8.2982717"><ele>536.0</ele><time>2026-04-16T08:18:33.843Z</time></trkpt><trkpt lat="42.65708" lon="-8.2982067"><ele>536.0</ele><time>2026-04-16T08:18:34.843Z</time></trkpt><trkpt lat="42.65717" lon="-8.2981683"><ele>536.0</ele><time>2026-04-16T08:18:35.844Z</time></trkpt><trkpt lat="42.6572683" lon="-8.2981667"><ele>535.2</ele><time>2026-04-16T08:18:36.844Z</time></trkpt><trkpt lat="42.657355" lon="-8.2982067"><ele>534.4000000000001</ele><time>2026-04-16T08:18:37.843Z</time></trkpt><trkpt lat="42.657445" lon="-8.2982833"><ele>533.6</ele><time>2026-04-16T08:18:38.844Z</time></trkpt><trkpt lat="42.6575317" lon="-8.2982933"><ele>532.8000000000001</ele><time>2026-04-16T08:18:39.843Z</time></trkpt><trkpt lat="42.6576233" lon="-8.29835"><ele>532.0</ele><time>2026-04-16T08:18:40.843Z</time></trkpt><trkpt lat="42.6577383" lon="-8.2983633"><ele>528.6</ele><time>2026-04-16T08:18:41.844Z</time></trkpt><trkpt lat="42.65785" lon="-8.2983567"><ele>525.2</ele><time>2026-04-16T08:18:42.843Z</time></trkpt><trkpt lat="42.6579583" lon="-8.2983367"><ele>521.8</ele><time>2026-04-16T08:18:43.844Z</time></trkpt><trkpt lat="42.6580633" lon="-8.2983417"><ele>518.4</ele><time>2026-04-16T08:18:44.843Z</time></trkpt><trkpt lat="42.6581517" lon="-8.29835"><ele>515.0</ele><time>2026-04-16T08:18:45.843Z</time></trkpt><trkpt lat="42.658235" lon="-8.2983517"><ele>515.0</ele><time>2026-04-16T08:18:46.844Z</time></trkpt><trkpt lat="42.6583083" lon="-8.2983567"><ele>515.0</ele><time>2026-04-16T08:18:47.843Z</time></trkpt><trkpt lat="42.6584" lon="-8.2983433"><ele>515.0</ele><time>2026-04-16T08:18:49.843Z</time></trkpt><trkpt lat="42.6583883" lon="-8.29825"><ele>515.0</ele><time>2026-04-16T08:18:51.844Z</time></trkpt><trkpt lat="42.6582733" lon="-8.298135"><ele>515.0</ele><time>2026-04-16T08:18:53.843Z</time></trkpt><trkpt lat="42.65819" lon="-8.2980533"><ele>514.0</ele><time>2026-04-16T08:18:54.843Z</time></trkpt><trkpt lat="42.658095" lon="-8.2979833"><ele>513.0</ele><time>2026-04-16T08:18:55.843Z</time></trkpt><trkpt lat="42.6580333" lon="-8.2979217"><ele>512.0</ele><time>2026-04-16T08:18:56.843Z</time></trkpt><trkpt lat="42.6579233" lon="-8.2978533"><ele>511.0</ele><time>2026-04-16T08:18:57.843Z</time></trkpt><trkpt lat="42.6578617" lon="-8.2978"><ele>509.99999999999994</ele><time>2026-04-16T08:18:58.843Z</time></trkpt><trkpt lat="42.6578083" lon="-8.2977433"><ele>509.0</ele><time>2026-04-16T08:18:59.843Z</time></trkpt><trkpt lat="42.6577633" lon="-8.2976833"><ele>508.99999999999994</ele><time>2026-04-16T08:19:00.844Z</time></trkpt><trkpt lat="42.6577033" lon="-8.2976133"><ele>509.0</ele><time>2026-04-16T08:19:01.844Z</time></trkpt><trkpt lat="42.6576467" lon="-8.2975033"><ele>509.0</ele><time>2026-04-16T08:19:02.844Z</time></trkpt><trkpt lat="42.6576067" lon="-8.2974367"><ele>509.0</ele><time>2026-04-16T08:19:03.844Z</time></trkpt><trkpt lat="42.6575917" lon="-8.297325"><ele>508.99999999999994</ele><time>2026-04-16T08:19:05.844Z</time></trkpt><trkpt lat="42.6576283" lon="-8.29725"><ele>509.0</ele><time>2026-04-16T08:19:07.844Z</time></trkpt><trkpt lat="42.65772" lon="-8.2971967"><ele>507.3333333333333</ele><time>2026-04-16T08:19:09.843Z</time></trkpt><trkpt lat="42.6577867" lon="-8.2971767"><ele>505.66666666666663</ele><time>2026-04-16T08:19:10.843Z</time></trkpt><trkpt lat="42.6578533" lon="-8.2971933"><ele>504.0</ele><time>2026-04-16T08:19:11.843Z</time></trkpt><trkpt lat="42.6579367" lon="-8.2972433"><ele>502.33333333333337</ele><time>2026-04-16T08:19:12.843Z</time></trkpt><trkpt lat="42.6580033" lon="-8.2972917"><ele>500.6666666666667</ele><time>2026-04-16T08:19:13.844Z</time></trkpt><trkpt lat="42.6581167" lon="-8.297325"><ele>499.0</ele><time>2026-04-16T08:19:15.843Z</time></trkpt><trkpt lat="42.6582017" lon="-8.2972967"><ele>493.6</ele><time>2026-04-16T08:19:17.844Z</time></trkpt><trkpt lat="42.6582717" lon="-8.2972517"><ele>488.2</ele><time>2026-04-16T08:19:18.844Z</time></trkpt><trkpt lat="42.6583717" lon="-8.2971867"><ele>482.80000000000007</ele><time>2026-04-16T08:19:19.844Z</time></trkpt><trkpt lat="42.6584717" lon="-8.29713"><ele>477.40000000000003</ele><time>2026-04-16T08:19:20.843Z</time></trkpt><trkpt lat="42.658595" lon="-8.2970467"><ele>472.0</ele><time>2026-04-16T08:19:21.843Z</time></trkpt><trkpt lat="42.6587167" lon="-8.2969817"><ele>470.8</ele><time>2026-04-16T08:19:22.843Z</time></trkpt><trkpt lat="42.6588117" lon="-8.2969233"><ele>469.6</ele><time>2026-04-16T08:19:23.844Z</time></trkpt><trkpt lat="42.6589067" lon="-8.2968917"><ele>468.40000000000003</ele><time>2026-04-16T08:19:24.844Z</time></trkpt><trkpt lat="42.65902" lon="-8.2968967"><ele>467.20000000000005</ele><time>2026-04-16T08:19:25.844Z</time></trkpt><trkpt lat="42.6591317" lon="-8.296905"><ele>466.0</ele><time>2026-04-16T08:19:26.844Z</time></trkpt><trkpt lat="42.6592333" lon="-8.2968967"><ele>466.0</ele><time>2026-04-16T08:19:27.844Z</time></trkpt><trkpt lat="42.6593583" lon="-8.2968783"><ele>466.0</ele><time>2026-04-16T08:19:28.843Z</time></trkpt><trkpt lat="42.6594617" lon="-8.2968533"><ele>466.0</ele><time>2026-04-16T08:19:29.844Z</time></trkpt><trkpt lat="42.6595517" lon="-8.296845"><ele>466.0</ele><time>2026-04-16T08:19:30.844Z</time></trkpt><trkpt lat="42.659625" lon="-8.2968367"><ele>466.0</ele><time>2026-04-16T08:19:31.844Z</time></trkpt><trkpt lat="42.6597133" lon="-8.29684"><ele>466.0</ele><time>2026-04-16T08:19:33.844Z</time></trkpt><trkpt lat="42.65962" lon="-8.2967533"><ele>466.0</ele><time>2026-04-16T08:19:37.844Z</time></trkpt><trkpt lat="42.6595" lon="-8.2967367"><ele>466.0</ele><time>2026-04-16T08:19:38.843Z</time></trkpt><trkpt lat="42.65939" lon="-8.2967033"><ele>466.0</ele><time>2026-04-16T08:19:39.844Z</time></trkpt><trkpt lat="42.6592733" lon="-8.2966667"><ele>466.0</ele><time>2026-04-16T08:19:40.843Z</time></trkpt><trkpt lat="42.659165" lon="-8.296635"><ele>466.0</ele><time>2026-04-16T08:19:41.844Z</time></trkpt><trkpt lat="42.6590483" lon="-8.2966017"><ele>466.0</ele><time>2026-04-16T08:19:42.844Z</time></trkpt><trkpt lat="42.6589233" lon="-8.2965767"><ele>466.0</ele><time>2026-04-16T08:19:43.843Z</time></trkpt><trkpt lat="42.6588067" lon="-8.2965317"><ele>466.0</ele><time>2026-04-16T08:19:44.844Z</time></trkpt><trkpt lat="42.6586983" lon="-8.2964767"><ele>466.0</ele><time>2026-04-16T08:19:45.843Z</time></trkpt><trkpt lat="42.6586167" lon="-8.2964167"><ele>466.0</ele><time>2026-04-16T08:19:46.843Z</time></trkpt><trkpt lat="42.658535" lon="-8.2963567"><ele>466.0</ele><time>2026-04-16T08:19:47.843Z</time></trkpt><trkpt lat="42.658485" lon="-8.2963"><ele>466.0</ele><time>2026-04-16T08:19:48.843Z</time></trkpt><trkpt lat="42.6584267" lon="-8.2962"><ele>465.6</ele><time>2026-04-16T08:19:50.843Z</time></trkpt><trkpt lat="42.6584467" lon="-8.296115"><ele>465.20000000000005</ele><time>2026-04-16T08:19:54.844Z</time></trkpt><trkpt lat="42.6585383" lon="-8.2961217"><ele>464.79999999999995</ele><time>2026-04-16T08:19:56.843Z</time></trkpt><trkpt lat="42.6586583" lon="-8.2961433"><ele>464.4</ele><time>2026-04-16T08:19:57.844Z</time></trkpt><trkpt lat="42.6587817" lon="-8.2961333"><ele>464.0</ele><time>2026-04-16T08:19:58.843Z</time></trkpt><trkpt lat="42.6589217" lon="-8.2961133"><ele>464.0</ele><time>2026-04-16T08:19:59.844Z</time></trkpt><trkpt lat="42.6590483" lon="-8.2960783"><ele>464.0</ele><time>2026-04-16T08:20:00.844Z</time></trkpt><trkpt lat="42.6591567" lon="-8.2960567"><ele>464.0</ele><time>2026-04-16T08:20:01.843Z</time></trkpt><trkpt lat="42.65925" lon="-8.296045"><ele>464.0</ele><time>2026-04-16T08:20:02.844Z</time></trkpt><trkpt lat="42.6593533" lon="-8.2960283"><ele>464.0</ele><time>2026-04-16T08:20:03.844Z</time></trkpt><trkpt lat="42.6594667" lon="-8.2960083"><ele>464.2</ele><time>2026-04-16T08:20:04.843Z</time></trkpt><trkpt lat="42.65959" lon="-8.295985"><ele>464.4</ele><time>2026-04-16T08:20:05.844Z</time></trkpt><trkpt lat="42.6596717" lon="-8.2959583"><ele>464.6</ele><time>2026-04-16T08:20:06.844Z</time></trkpt><trkpt lat="42.659765" lon="-8.29592"><ele>464.8</ele><time>2026-04-16T08:20:07.843Z</time></trkpt><trkpt lat="42.6598617" lon="-8.2958633"><ele>465.0</ele><time>2026-04-16T08:20:08.844Z</time></trkpt><trkpt lat="42.6599633" lon="-8.2958133"><ele>465.0</ele><time>2026-04-16T08:20:09.843Z</time></trkpt><trkpt lat="42.66005" lon="-8.29577"><ele>465.0</ele><time>2026-04-16T08:20:10.843Z</time></trkpt><trkpt lat="42.6601317" lon="-8.295745"><ele>465.0</ele><time>2026-04-16T08:20:11.843Z</time></trkpt><trkpt lat="42.6602117" lon="-8.2957417"><ele>465.0</ele><time>2026-04-16T08:20:12.843Z</time></trkpt><trkpt lat="42.66029" lon="-8.2957433"><ele>465.0</ele><time>2026-04-16T08:20:13.844Z</time></trkpt><trkpt lat="42.6603583" lon="-8.2957417"><ele>465.0</ele><time>2026-04-16T08:20:14.843Z</time></trkpt><trkpt lat="42.6604467" lon="-8.29572"><ele>464.2</ele><time>2026-04-16T08:20:16.844Z</time></trkpt><trkpt lat="42.66052" lon="-8.2957033"><ele>463.4</ele><time>2026-04-16T08:20:18.844Z</time></trkpt><trkpt lat="42.660595" lon="-8.2957033"><ele>462.6</ele><time>2026-04-16T08:20:20.843Z</time></trkpt><trkpt lat="42.66071" lon="-8.2956817"><ele>461.8</ele><time>2026-04-16T08:20:22.844Z</time></trkpt><trkpt lat="42.6608283" lon="-8.2956417"><ele>461.0</ele><time>2026-04-16T08:20:24.844Z</time></trkpt><trkpt lat="42.6609317" lon="-8.2955933"><ele>460.4</ele><time>2026-04-16T08:20:26.844Z</time></trkpt><trkpt lat="42.661035" lon="-8.2955533"><ele>459.8</ele><time>2026-04-16T08:20:28.843Z</time></trkpt><trkpt lat="42.6611467" lon="-8.2955517"><ele>459.19999999999993</ele><time>2026-04-16T08:20:30.843Z</time></trkpt><trkpt lat="42.6612483" lon="-8.2955733"><ele>458.59999999999997</ele><time>2026-04-16T08:20:32.844Z</time></trkpt><trkpt lat="42.6613383" lon="-8.2955883"><ele>458.0</ele><time>2026-04-16T08:20:34.844Z</time></trkpt><trkpt lat="42.66143" lon="-8.29558"><ele>459.66666666666663</ele><time>2026-04-16T08:20:36.844Z</time></trkpt><trkpt lat="42.66152" lon="-8.2955683"><ele>461.3333333333333</ele><time>2026-04-16T08:20:38.844Z</time></trkpt><trkpt lat="42.6615967" lon="-8.2955233"><ele>463.0</ele><time>2026-04-16T08:20:40.844Z</time></trkpt><trkpt lat="42.6616817" lon="-8.2954667"><ele>464.66666666666663</ele><time>2026-04-16T08:20:42.844Z</time></trkpt><trkpt lat="42.6617567" lon="-8.295405"><ele>466.3333333333333</ele><time>2026-04-16T08:20:44.844Z</time></trkpt><trkpt lat="42.6618217" lon="-8.2953317"><ele>468.0</ele><time>2026-04-16T08:20:46.843Z</time></trkpt><trkpt lat="42.6618833" lon="-8.2952717"><ele>468.0</ele><time>2026-04-16T08:20:48.844Z</time></trkpt><trkpt lat="42.6619467" lon="-8.2951617"><ele>467.99999999999994</ele><time>2026-04-16T08:20:50.844Z</time></trkpt><trkpt lat="42.6620433" lon="-8.295085"><ele>467.99999999999994</ele><time>2026-04-16T08:20:52.843Z</time></trkpt><trkpt lat="42.6621433" lon="-8.2950733"><ele>468.0</ele><time>2026-04-16T08:20:54.844Z</time></trkpt><trkpt lat="42.66224" lon="-8.2950867"><ele>468.0</ele><time>2026-04-16T08:20:56.844Z</time></trkpt><trkpt lat="42.662325" lon="-8.2950717"><ele>466.0</ele><time>2026-04-16T08:20:58.844Z</time></trkpt><trkpt lat="42.6624233" lon="-8.295065"><ele>463.99999999999994</ele><time>2026-04-16T08:21:00.844Z</time></trkpt><trkpt lat="42.6625217" lon="-8.2950533"><ele>461.99999999999994</ele><time>2026-04-16T08:21:02.843Z</time></trkpt><trkpt lat="42.662625" lon="-8.2950483"><ele>460.0</ele><time>2026-04-16T08:21:04.843Z</time></trkpt><trkpt lat="42.6627283" lon="-8.29504"><ele>458.0</ele><time>2026-04-16T08:21:06.843Z</time></trkpt><trkpt lat="42.6628217" lon="-8.295045"><ele>456.0</ele><time>2026-04-16T08:21:08.844Z</time></trkpt><trkpt lat="42.6629133" lon="-8.2950383"><ele>453.99999999999994</ele><time>2026-04-16T08:21:10.843Z</time></trkpt><trkpt lat="42.6630083" lon="-8.29502"><ele>451.99999999999994</ele><time>2026-04-16T08:21:12.844Z</time></trkpt><trkpt lat="42.66311" lon="-8.2949767"><ele>450.0</ele><time>2026-04-16T08:21:14.843Z</time></trkpt><trkpt lat="42.6632017" lon="-8.2949317"><ele>448.0</ele><time>2026-04-16T08:21:16.843Z</time></trkpt><trkpt lat="42.6632917" lon="-8.2948817"><ele>448.0</ele><time>2026-04-16T08:21:18.843Z</time></trkpt><trkpt lat="42.6633683" lon="-8.2948283"><ele>447.99999999999994</ele><time>2026-04-16T08:21:20.843Z</time></trkpt><trkpt lat="42.6634517" lon="-8.2947683"><ele>447.99999999999994</ele><time>2026-04-16T08:21:22.844Z</time></trkpt><trkpt lat="42.6635383" lon="-8.2946917"><ele>448.0</ele><time>2026-04-16T08:21:24.843Z</time></trkpt><trkpt lat="42.6636183" lon="-8.2946283"><ele>448.0</ele><time>2026-04-16T08:21:26.843Z</time></trkpt><trkpt lat="42.6637083" lon="-8.2945683"><ele>448.0</ele><time>2026-04-16T08:21:28.844Z</time></trkpt><trkpt lat="42.6638" lon="-8.2945133"><ele>447.99999999999994</ele><time>2026-04-16T08:21:30.844Z</time></trkpt><trkpt lat="42.6638867" lon="-8.294465"><ele>447.99999999999994</ele><time>2026-04-16T08:21:32.843Z</time></trkpt><trkpt lat="42.6639733" lon="-8.2944217"><ele>448.0</ele><time>2026-04-16T08:21:34.844Z</time></trkpt><trkpt lat="42.6640633" lon="-8.29439"><ele>448.0</ele><time>2026-04-16T08:21:36.844Z</time></trkpt><trkpt lat="42.6641433" lon="-8.294345"><ele>448.0</ele><time>2026-04-16T08:21:38.844Z</time></trkpt><trkpt lat="42.6642267" lon="-8.2942933"><ele>447.99999999999994</ele><time>2026-04-16T08:21:40.844Z</time></trkpt><trkpt lat="42.664305" lon="-8.2942317"><ele>447.99999999999994</ele><time>2026-04-16T08:21:42.843Z</time></trkpt><trkpt lat="42.6643867" lon="-8.2941717"><ele>448.0</ele><time>2026-04-16T08:21:44.843Z</time></trkpt><trkpt lat="42.6644633" lon="-8.2941"><ele>448.0</ele><time>2026-04-16T08:21:46.843Z</time></trkpt><trkpt lat="42.6645333" lon="-8.2940167"><ele>448.1666666666667</ele><time>2026-04-16T08:21:48.843Z</time></trkpt><trkpt lat="42.6645883" lon="-8.29394"><ele>448.33333333333337</ele><time>2026-04-16T08:21:50.844Z</time></trkpt><trkpt lat="42.6646417" lon="-8.2938567"><ele>448.5</ele><time>2026-04-16T08:21:52.843Z</time></trkpt><trkpt lat="42.6646867" lon="-8.2937717"><ele>448.66666666666663</ele><time>2026-04-16T08:21:54.843Z</time></trkpt><trkpt lat="42.6647267" lon="-8.29368"><ele>448.8333333333333</ele><time>2026-04-16T08:21:56.843Z</time></trkpt><trkpt lat="42.664785" lon="-8.2935933"><ele>449.0</ele><time>2026-04-16T08:21:58.844Z</time></trkpt><trkpt lat="42.6648617" lon="-8.2935167"><ele>449.0</ele><time>2026-04-16T08:22:00.843Z</time></trkpt><trkpt lat="42.6649367" lon="-8.2934733"><ele>449.0</ele><time>2026-04-16T08:22:02.844Z</time></trkpt><trkpt lat="42.6650383" lon="-8.2934083"><ele>449.0</ele><time>2026-04-16T08:22:04.843Z</time></trkpt><trkpt lat="42.665145" lon="-8.2933617"><ele>449.0</ele><time>2026-04-16T08:22:06.844Z</time></trkpt><trkpt lat="42.6652517" lon="-8.29331"><ele>449.0</ele><time>2026-04-16T08:22:08.843Z</time></trkpt><trkpt lat="42.6653467" lon="-8.2932333"><ele>446.79999999999995</ele><time>2026-04-16T08:22:10.844Z</time></trkpt><trkpt lat="42.665425" lon="-8.29316"><ele>444.59999999999997</ele><time>2026-04-16T08:22:12.844Z</time></trkpt><trkpt lat="42.6655033" lon="-8.29309"><ele>442.4</ele><time>2026-04-16T08:22:14.843Z</time></trkpt><trkpt lat="42.6655883" lon="-8.293025"><ele>440.2</ele><time>2026-04-16T08:22:16.843Z</time></trkpt><trkpt lat="42.66567" lon="-8.2929583"><ele>438.0</ele><time>2026-04-16T08:22:18.844Z</time></trkpt><trkpt lat="42.6657517" lon="-8.2928783"><ele>438.0</ele><time>2026-04-16T08:22:20.843Z</time></trkpt><trkpt lat="42.6658367" lon="-8.2928033"><ele>437.99999999999994</ele><time>2026-04-16T08:22:22.844Z</time></trkpt><trkpt lat="42.665905" lon="-8.2927317"><ele>437.99999999999994</ele><time>2026-04-16T08:22:24.843Z</time></trkpt><trkpt lat="42.665965" lon="-8.292655"><ele>438.0</ele><time>2026-04-16T08:22:26.844Z</time></trkpt><trkpt lat="42.6660383" lon="-8.29256"><ele>438.0</ele><time>2026-04-16T08:22:28.843Z</time></trkpt><trkpt lat="42.6661133" lon="-8.29247"><ele>436.6666666666667</ele><time>2026-04-16T08:22:30.844Z</time></trkpt><trkpt lat="42.66618" lon="-8.2923767"><ele>435.33333333333337</ele><time>2026-04-16T08:22:32.844Z</time></trkpt><trkpt lat="42.6662417" lon="-8.2922883"><ele>434.0</ele><time>2026-04-16T08:22:34.843Z</time></trkpt><trkpt lat="42.6663033" lon="-8.2921933"><ele>432.6666666666667</ele><time>2026-04-16T08:22:36.843Z</time></trkpt><trkpt lat="42.6663617" lon="-8.292115"><ele>431.33333333333337</ele><time>2026-04-16T08:22:38.843Z</time></trkpt><trkpt lat="42.6663867" lon="-8.2920033"><ele>430.0</ele><time>2026-04-16T08:22:40.843Z</time></trkpt><trkpt lat="42.6664233" lon="-8.2918983"><ele>430.0</ele><time>2026-04-16T08:22:42.844Z</time></trkpt><trkpt lat="42.6664633" lon="-8.291785"><ele>430.0</ele><time>2026-04-16T08:22:44.844Z</time></trkpt><trkpt lat="42.6665267" lon="-8.291685"><ele>430.0</ele><time>2026-04-16T08:22:46.844Z</time></trkpt><trkpt lat="42.6666017" lon="-8.2916317"><ele>430.0</ele><time>2026-04-16T08:22:48.845Z</time></trkpt><trkpt lat="42.6666917" lon="-8.29158"><ele>430.0</ele><time>2026-04-16T08:22:50.844Z</time></trkpt><trkpt lat="42.6668" lon="-8.291545"><ele>430.0</ele><time>2026-04-16T08:22:52.845Z</time></trkpt><trkpt lat="42.666905" lon="-8.2915233"><ele>430.0</ele><time>2026-04-16T08:22:54.845Z</time></trkpt><trkpt lat="42.667005" lon="-8.291505"><ele>430.0</ele><time>2026-04-16T08:22:56.845Z</time></trkpt><trkpt lat="42.66711" lon="-8.2914883"><ele>430.0</ele><time>2026-04-16T08:22:58.845Z</time></trkpt><trkpt lat="42.6672067" lon="-8.29145"><ele>430.0</ele><time>2026-04-16T08:23:00.845Z</time></trkpt><trkpt lat="42.6672967" lon="-8.2913767"><ele>430.33333333333337</ele><time>2026-04-16T08:23:02.845Z</time></trkpt><trkpt lat="42.6673683" lon="-8.2912917"><ele>430.6666666666667</ele><time>2026-04-16T08:23:04.845Z</time></trkpt><trkpt lat="42.6674233" lon="-8.2912167"><ele>431.0</ele><time>2026-04-16T08:23:06.844Z</time></trkpt><trkpt lat="42.6674933" lon="-8.2911683"><ele>431.33333333333337</ele><time>2026-04-16T08:23:08.844Z</time></trkpt><trkpt lat="42.6675783" lon="-8.29114"><ele>431.6666666666667</ele><time>2026-04-16T08:23:10.844Z</time></trkpt><trkpt lat="42.6676667" lon="-8.2911117"><ele>432.0</ele><time>2026-04-16T08:23:12.845Z</time></trkpt><trkpt lat="42.6677483" lon="-8.291075"><ele>431.1666666666667</ele><time>2026-04-16T08:23:14.844Z</time></trkpt><trkpt lat="42.66783" lon="-8.29101"><ele>430.33333333333337</ele><time>2026-04-16T08:23:16.845Z</time></trkpt><trkpt lat="42.6679017" lon="-8.29093"><ele>429.5</ele><time>2026-04-16T08:23:18.845Z</time></trkpt><trkpt lat="42.6679683" lon="-8.2908517"><ele>428.6666666666667</ele><time>2026-04-16T08:23:20.844Z</time></trkpt><trkpt lat="42.6680267" lon="-8.2907717"><ele>427.83333333333337</ele><time>2026-04-16T08:23:22.845Z</time></trkpt><trkpt lat="42.668095" lon="-8.2906917"><ele>427.0</ele><time>2026-04-16T08:23:24.845Z</time></trkpt><trkpt lat="42.6681633" lon="-8.2905983"><ele>429.20000000000005</ele><time>2026-04-16T08:23:26.845Z</time></trkpt><trkpt lat="42.66824" lon="-8.2904933"><ele>431.40000000000003</ele><time>2026-04-16T08:23:28.845Z</time></trkpt><trkpt lat="42.6682917" lon="-8.2904"><ele>433.59999999999997</ele><time>2026-04-16T08:23:30.844Z</time></trkpt><trkpt lat="42.66837" lon="-8.29032"><ele>435.79999999999995</ele><time>2026-04-16T08:23:32.845Z</time></trkpt><trkpt lat="42.668455" lon="-8.2902533"><ele>438.0</ele><time>2026-04-16T08:23:34.845Z</time></trkpt><trkpt lat="42.6685367" lon="-8.2901933"><ele>436.59999999999997</ele><time>2026-04-16T08:23:36.844Z</time></trkpt><trkpt lat="42.668625" lon="-8.29012"><ele>435.19999999999993</ele><time>2026-04-16T08:23:38.844Z</time></trkpt><trkpt lat="42.668705" lon="-8.2900183"><ele>433.8</ele><time>2026-04-16T08:23:40.845Z</time></trkpt><trkpt lat="42.6687883" lon="-8.2899267"><ele>432.4</ele><time>2026-04-16T08:23:42.845Z</time></trkpt><trkpt lat="42.6688833" lon="-8.2898567"><ele>431.0</ele><time>2026-04-16T08:23:44.844Z</time></trkpt><trkpt lat="42.6689733" lon="-8.2897867"><ele>431.3333333333333</ele><time>2026-04-16T08:23:46.844Z</time></trkpt><trkpt lat="42.669045" lon="-8.28969"><ele>431.66666666666663</ele><time>2026-04-16T08:23:48.845Z</time></trkpt><trkpt lat="42.6690917" lon="-8.2895933"><ele>432.0</ele><time>2026-04-16T08:23:50.844Z</time></trkpt><trkpt lat="42.6691267" lon="-8.2894917"><ele>432.33333333333337</ele><time>2026-04-16T08:23:52.844Z</time></trkpt><trkpt lat="42.66914" lon="-8.28938"><ele>432.6666666666667</ele><time>2026-04-16T08:23:54.844Z</time></trkpt><trkpt lat="42.6691267" lon="-8.2892583"><ele>433.0</ele><time>2026-04-16T08:23:56.845Z</time></trkpt><trkpt lat="42.669095" lon="-8.2891383"><ele>433.0</ele><time>2026-04-16T08:23:58.845Z</time></trkpt><trkpt lat="42.6690633" lon="-8.289015"><ele>432.99999999999994</ele><time>2026-04-16T08:24:00.845Z</time></trkpt><trkpt lat="42.669055" lon="-8.2888933"><ele>432.99999999999994</ele><time>2026-04-16T08:24:02.845Z</time></trkpt><trkpt lat="42.669055" lon="-8.288775"><ele>433.0</ele><time>2026-04-16T08:24:04.845Z</time></trkpt><trkpt lat="42.6690717" lon="-8.288655"><ele>433.0</ele><time>2026-04-16T08:24:06.844Z</time></trkpt><trkpt lat="42.6690933" lon="-8.2885283"><ele>432.79999999999995</ele><time>2026-04-16T08:24:08.845Z</time></trkpt><trkpt lat="42.6691117" lon="-8.288415"><ele>432.59999999999997</ele><time>2026-04-16T08:24:10.845Z</time></trkpt><trkpt lat="42.669125" lon="-8.288295"><ele>432.40000000000003</ele><time>2026-04-16T08:24:12.845Z</time></trkpt><trkpt lat="42.6691133" lon="-8.288165"><ele>432.20000000000005</ele><time>2026-04-16T08:24:14.845Z</time></trkpt><trkpt lat="42.6691167" lon="-8.2880533"><ele>432.0</ele><time>2026-04-16T08:24:16.844Z</time></trkpt><trkpt lat="42.6691383" lon="-8.2879233"><ele>431.40000000000003</ele><time>2026-04-16T08:24:18.844Z</time></trkpt><trkpt lat="42.6691867" lon="-8.287785"><ele>430.80000000000007</ele><time>2026-04-16T08:24:20.845Z</time></trkpt><trkpt lat="42.6692567" lon="-8.2876817"><ele>430.2</ele><time>2026-04-16T08:24:22.844Z</time></trkpt><trkpt lat="42.669335" lon="-8.2875933"><ele>429.6</ele><time>2026-04-16T08:24:24.844Z</time></trkpt><trkpt lat="42.669405" lon="-8.2874917"><ele>429.0</ele><time>2026-04-16T08:24:26.845Z</time></trkpt><trkpt lat="42.6694667" lon="-8.2874017"><ele>429.0</ele><time>2026-04-16T08:24:28.844Z</time></trkpt><trkpt lat="42.6695417" lon="-8.2873117"><ele>429.0</ele><time>2026-04-16T08:24:30.845Z</time></trkpt><trkpt lat="42.669585" lon="-8.2871883"><ele>429.0</ele><time>2026-04-16T08:24:32.844Z</time></trkpt><trkpt lat="42.6696" lon="-8.2870517"><ele>429.0</ele><time>2026-04-16T08:24:34.844Z</time></trkpt><trkpt lat="42.669575" lon="-8.28695"><ele>429.0</ele><time>2026-04-16T08:24:36.844Z</time></trkpt><trkpt lat="42.6695283" lon="-8.2868583"><ele>430.2</ele><time>2026-04-16T08:24:38.844Z</time></trkpt><trkpt lat="42.6694467" lon="-8.2868183"><ele>431.4</ele><time>2026-04-16T08:24:40.844Z</time></trkpt><trkpt lat="42.6693633" lon="-8.286795"><ele>432.6</ele><time>2026-04-16T08:24:42.844Z</time></trkpt><trkpt lat="42.66929" lon="-8.2867217"><ele>433.8</ele><time>2026-04-16T08:24:44.845Z</time></trkpt><trkpt lat="42.6692317" lon="-8.2866117"><ele>435.0</ele><time>2026-04-16T08:24:46.844Z</time></trkpt><trkpt lat="42.6691983" lon="-8.2864883"><ele>436.0</ele><time>2026-04-16T08:24:48.845Z</time></trkpt><trkpt lat="42.6691517" lon="-8.28637"><ele>437.0</ele><time>2026-04-16T08:24:50.844Z</time></trkpt><trkpt lat="42.6690583" lon="-8.2862983"><ele>438.0</ele><time>2026-04-16T08:24:52.844Z</time></trkpt><trkpt lat="42.6689667" lon="-8.286255"><ele>439.0</ele><time>2026-04-16T08:24:54.844Z</time></trkpt><trkpt lat="42.66903" lon="-8.2863067"><ele>440.0</ele><time>2026-04-16T08:25:05.845Z</time></trkpt><trkpt lat="42.6691217" lon="-8.28642"><ele>440.0</ele><time>2026-04-16T08:25:07.844Z</time></trkpt><trkpt lat="42.66919" lon="-8.2865317"><ele>440.0</ele><time>2026-04-16T08:25:09.844Z</time></trkpt><trkpt lat="42.6692333" lon="-8.2866433"><ele>440.0</ele><time>2026-04-16T08:25:11.844Z</time></trkpt><trkpt lat="42.6692967" lon="-8.286755"><ele>440.0</ele><time>2026-04-16T08:25:13.844Z</time></trkpt><trkpt lat="42.66936" lon="-8.2868283"><ele>440.0</ele><time>2026-04-16T08:25:15.844Z</time></trkpt><trkpt lat="42.6693967" lon="-8.28692"><ele>439.99999999999994</ele><time>2026-04-16T08:25:18.844Z</time></trkpt><trkpt lat="42.6693417" lon="-8.2869767"><ele>440.0</ele><time>2026-04-16T08:25:21.845Z</time></trkpt><trkpt lat="42.6692633" lon="-8.2870417"><ele>440.0</ele><time>2026-04-16T08:25:23.845Z</time></trkpt><trkpt lat="42.6692017" lon="-8.2870833"><ele>440.0</ele><time>2026-04-16T08:25:25.845Z</time></trkpt><trkpt lat="42.6691217" lon="-8.28707"><ele>439.99999999999994</ele><time>2026-04-16T08:25:27.845Z</time></trkpt><trkpt lat="42.66903" lon="-8.2870517"><ele>440.0</ele><time>2026-04-16T08:25:29.844Z</time></trkpt><trkpt lat="42.6689433" lon="-8.2870667"><ele>440.0</ele><time>2026-04-16T08:25:31.845Z</time></trkpt><trkpt lat="42.6688533" lon="-8.287075"><ele>440.0</ele><time>2026-04-16T08:25:33.845Z</time></trkpt><trkpt lat="42.6687367" lon="-8.2870783"><ele>440.0</ele><time>2026-04-16T08:25:35.844Z</time></trkpt><trkpt lat="42.6686433" lon="-8.287085"><ele>440.0</ele><time>2026-04-16T08:25:37.845Z</time></trkpt><trkpt lat="42.668545" lon="-8.28701"><ele>440.0</ele><time>2026-04-16T08:25:39.845Z</time></trkpt><trkpt lat="42.6684917" lon="-8.2869467"><ele>441.71428571428567</ele><time>2026-04-16T08:25:40.845Z</time></trkpt><trkpt lat="42.6684317" lon="-8.28689"><ele>443.42857142857144</ele><time>2026-04-16T08:25:41.844Z</time></trkpt><trkpt lat="42.668365" lon="-8.28684"><ele>445.1428571428571</ele><time>2026-04-16T08:25:42.844Z</time></trkpt><trkpt lat="42.6683017" lon="-8.2868167"><ele>446.85714285714283</ele><time>2026-04-16T08:25:43.844Z</time></trkpt><trkpt lat="42.6682383" lon="-8.28681"><ele>448.57142857142856</ele><time>2026-04-16T08:25:44.844Z</time></trkpt><trkpt lat="42.668165" lon="-8.2868083"><ele>450.2857142857143</ele><time>2026-04-16T08:25:45.844Z</time></trkpt><trkpt lat="42.668095" lon="-8.2868017"><ele>452.0</ele><time>2026-04-16T08:25:46.845Z</time></trkpt><trkpt lat="42.66798" lon="-8.286855"><ele>452.0</ele><time>2026-04-16T08:25:48.844Z</time></trkpt><trkpt lat="42.66791" lon="-8.2869933"><ele>452.00000000000006</ele><time>2026-04-16T08:25:50.845Z</time></trkpt><trkpt lat="42.6678383" lon="-8.2870783"><ele>452.00000000000006</ele><time>2026-04-16T08:25:52.845Z</time></trkpt><trkpt lat="42.6677717" lon="-8.287075"><ele>452.0</ele><time>2026-04-16T08:25:54.845Z</time></trkpt><trkpt lat="42.66772" lon="-8.286985"><ele>452.0</ele><time>2026-04-16T08:25:56.844Z</time></trkpt><trkpt lat="42.6676617" lon="-8.286845"><ele>455.6</ele><time>2026-04-16T08:25:58.844Z</time></trkpt><trkpt lat="42.6676133" lon="-8.2867867"><ele>459.20000000000005</ele><time>2026-04-16T08:25:59.845Z</time></trkpt><trkpt lat="42.6675217" lon="-8.2866717"><ele>462.8</ele><time>2026-04-16T08:26:01.844Z</time></trkpt><trkpt lat="42.6674867" lon="-8.2865867"><ele>466.4</ele><time>2026-04-16T08:26:02.845Z</time></trkpt><trkpt lat="42.6674567" lon="-8.2864683"><ele>470.0</ele><time>2026-04-16T08:26:03.844Z</time></trkpt><trkpt lat="42.66743" lon="-8.286315"><ele>470.5</ele><time>2026-04-16T08:26:04.844Z</time></trkpt><trkpt lat="42.6673983" lon="-8.286125"><ele>471.0</ele><time>2026-04-16T08:26:05.844Z</time></trkpt><trkpt lat="42.6673567" lon="-8.28595"><ele>471.5</ele><time>2026-04-16T08:26:06.845Z</time></trkpt><trkpt lat="42.66732" lon="-8.2857817"><ele>472.0</ele><time>2026-04-16T08:26:07.844Z</time></trkpt><trkpt lat="42.66727" lon="-8.285625"><ele>474.5</ele><time>2026-04-16T08:26:08.844Z</time></trkpt><trkpt lat="42.6672383" lon="-8.2854567"><ele>477.0</ele><time>2026-04-16T08:26:09.844Z</time></trkpt><trkpt lat="42.6672083" lon="-8.2852983"><ele>479.5</ele><time>2026-04-16T08:26:10.844Z</time></trkpt><trkpt lat="42.6672017" lon="-8.2851217"><ele>482.0</ele><time>2026-04-16T08:26:11.844Z</time></trkpt><trkpt lat="42.6672167" lon="-8.2849917"><ele>482.0</ele><time>2026-04-16T08:26:12.844Z</time></trkpt><trkpt lat="42.66722" lon="-8.28484"><ele>482.0</ele><time>2026-04-16T08:26:13.845Z</time></trkpt><trkpt lat="42.667205" lon="-8.2846867"><ele>482.0</ele><time>2026-04-16T08:26:14.844Z</time></trkpt><trkpt lat="42.6672" lon="-8.2845233"><ele>482.0</ele><time>2026-04-16T08:26:15.844Z</time></trkpt><trkpt lat="42.6671933" lon="-8.284365"><ele>482.8333333333333</ele><time>2026-04-16T08:26:16.844Z</time></trkpt><trkpt lat="42.6671967" lon="-8.284215"><ele>483.66666666666663</ele><time>2026-04-16T08:26:17.844Z</time></trkpt><trkpt lat="42.6672217" lon="-8.2840917"><ele>484.5</ele><time>2026-04-16T08:26:18.845Z</time></trkpt><trkpt lat="42.6672367" lon="-8.2839583"><ele>485.33333333333337</ele><time>2026-04-16T08:26:19.844Z</time></trkpt><trkpt lat="42.667245" lon="-8.2838567"><ele>486.1666666666667</ele><time>2026-04-16T08:26:20.845Z</time></trkpt><trkpt lat="42.66726" lon="-8.2837667"><ele>487.0</ele><time>2026-04-16T08:26:22.845Z</time></trkpt><trkpt lat="42.6671467" lon="-8.2838583"><ele>487.0</ele><time>2026-04-16T08:26:48.844Z</time></trkpt><trkpt lat="42.6671083" lon="-8.2839467"><ele>487.00000000000006</ele><time>2026-04-16T08:26:51.845Z</time></trkpt><trkpt lat="42.667075" lon="-8.2840333"><ele>487.00000000000006</ele><time>2026-04-16T08:26:53.845Z</time></trkpt><trkpt lat="42.6670117" lon="-8.284145"><ele>487.0</ele><time>2026-04-16T08:26:55.845Z</time></trkpt><trkpt lat="42.6669167" lon="-8.2842883"><ele>487.0</ele><time>2026-04-16T08:26:57.844Z</time></trkpt><trkpt lat="42.6668517" lon="-8.2843783"><ele>491.0</ele><time>2026-04-16T08:26:58.844Z</time></trkpt><trkpt lat="42.6667733" lon="-8.2845"><ele>495.0</ele><time>2026-04-16T08:26:59.845Z</time></trkpt><trkpt lat="42.666665" lon="-8.2846267"><ele>499.0</ele><time>2026-04-16T08:27:00.844Z</time></trkpt><trkpt lat="42.666565" lon="-8.2847683"><ele>503.0</ele><time>2026-04-16T08:27:01.845Z</time></trkpt><trkpt lat="42.666475" lon="-8.28489"><ele>502.99999999999994</ele><time>2026-04-16T08:27:02.844Z</time></trkpt><trkpt lat="42.666395" lon="-8.285"><ele>503.0</ele><time>2026-04-16T08:27:03.844Z</time></trkpt><trkpt lat="42.6663367" lon="-8.28509"><ele>503.0</ele><time>2026-04-16T08:27:04.844Z</time></trkpt><trkpt lat="42.6662817" lon="-8.2851417"><ele>503.0</ele><time>2026-04-16T08:27:05.845Z</time></trkpt><trkpt lat="42.66622" lon="-8.2851633"><ele>502.99999999999994</ele><time>2026-04-16T08:27:07.844Z</time></trkpt><trkpt lat="42.6661483" lon="-8.28516"><ele>503.0</ele><time>2026-04-16T08:27:09.845Z</time></trkpt><trkpt lat="42.6661633" lon="-8.285055"><ele>503.0</ele><time>2026-04-16T08:27:11.845Z</time></trkpt><trkpt lat="42.6661917" lon="-8.2849633"><ele>502.99999999999994</ele><time>2026-04-16T08:27:12.844Z</time></trkpt><trkpt lat="42.6662167" lon="-8.2848467"><ele>502.99999999999994</ele><time>2026-04-16T08:27:13.845Z</time></trkpt><trkpt lat="42.6662417" lon="-8.28471"><ele>503.0</ele><time>2026-04-16T08:27:14.844Z</time></trkpt><trkpt lat="42.6662617" lon="-8.2845483"><ele>503.0</ele><time>2026-04-16T08:27:15.845Z</time></trkpt><trkpt lat="42.6663167" lon="-8.2843383"><ele>505.59999999999997</ele><time>2026-04-16T08:27:16.844Z</time></trkpt><trkpt lat="42.666345" lon="-8.2841667"><ele>508.19999999999993</ele><time>2026-04-16T08:27:17.844Z</time></trkpt><trkpt lat="42.6663633" lon="-8.2840233"><ele>510.8</ele><time>2026-04-16T08:27:18.844Z</time></trkpt><trkpt lat="42.66637" lon="-8.283915"><ele>513.4</ele><time>2026-04-16T08:27:19.845Z</time></trkpt><trkpt lat="42.66637" lon="-8.283825"><ele>516.0</ele><time>2026-04-16T08:27:20.845Z</time></trkpt><trkpt lat="42.6663283" lon="-8.2837333"><ele>518.0</ele><time>2026-04-16T08:27:22.844Z</time></trkpt><trkpt lat="42.66623" lon="-8.2837733"><ele>520.0</ele><time>2026-04-16T08:27:25.845Z</time></trkpt><trkpt lat="42.66616" lon="-8.28387"><ele>522.0</ele><time>2026-04-16T08:27:26.845Z</time></trkpt><trkpt lat="42.6660733" lon="-8.2839417"><ele>524.0</ele><time>2026-04-16T08:27:27.844Z</time></trkpt><trkpt lat="42.6659883" lon="-8.2839883"><ele>526.0</ele><time>2026-04-16T08:27:28.844Z</time></trkpt><trkpt lat="42.6658833" lon="-8.284045"><ele>529.0</ele><time>2026-04-16T08:27:29.845Z</time></trkpt><trkpt lat="42.665795" lon="-8.2840833"><ele>532.0</ele><time>2026-04-16T08:27:30.844Z</time></trkpt><trkpt lat="42.6657083" lon="-8.284115"><ele>535.0</ele><time>2026-04-16T08:27:31.845Z</time></trkpt><trkpt lat="42.665615" lon="-8.2841417"><ele>538.0</ele><time>2026-04-16T08:27:32.845Z</time></trkpt><trkpt lat="42.6655317" lon="-8.2841517"><ele>541.0</ele><time>2026-04-16T08:27:33.845Z</time></trkpt><trkpt lat="42.6654417" lon="-8.2841633"><ele>541.0</ele><time>2026-04-16T08:27:34.845Z</time></trkpt><trkpt lat="42.66535" lon="-8.2841717"><ele>541.0</ele><time>2026-04-16T08:27:35.844Z</time></trkpt><trkpt lat="42.6652683" lon="-8.2841733"><ele>541.0</ele><time>2026-04-16T08:27:36.845Z</time></trkpt><trkpt lat="42.6651833" lon="-8.2841683"><ele>541.0</ele><time>2026-04-16T08:27:37.845Z</time></trkpt><trkpt lat="42.6650967" lon="-8.284165"><ele>541.0</ele><time>2026-04-16T08:27:38.844Z</time></trkpt><trkpt lat="42.6650183" lon="-8.2841467"><ele>541.0</ele><time>2026-04-16T08:27:39.844Z</time></trkpt><trkpt lat="42.6649383" lon="-8.2841367"><ele>544.0</ele><time>2026-04-16T08:27:40.844Z</time></trkpt><trkpt lat="42.66486" lon="-8.2841267"><ele>547.0</ele><time>2026-04-16T08:27:41.845Z</time></trkpt><trkpt lat="42.66478" lon="-8.28414"><ele>550.0</ele><time>2026-04-16T08:27:42.844Z</time></trkpt><trkpt lat="42.6647033" lon="-8.2841567"><ele>553.0</ele><time>2026-04-16T08:27:43.845Z</time></trkpt><trkpt lat="42.6646317" lon="-8.284195"><ele>556.0</ele><time>2026-04-16T08:27:44.844Z</time></trkpt><trkpt lat="42.6645483" lon="-8.28423"><ele>559.0</ele><time>2026-04-16T08:27:45.845Z</time></trkpt><trkpt lat="42.6644533" lon="-8.2842867"><ele>561.8</ele><time>2026-04-16T08:27:46.844Z</time></trkpt><trkpt lat="42.6643467" lon="-8.284355"><ele>564.5999999999999</ele><time>2026-04-16T08:27:47.845Z</time></trkpt><trkpt lat="42.6642517" lon="-8.28442"><ele>567.4</ele><time>2026-04-16T08:27:48.845Z</time></trkpt><trkpt lat="42.664145" lon="-8.28449"><ele>570.1999999999999</ele><time>2026-04-16T08:27:49.844Z</time></trkpt><trkpt lat="42.66405" lon="-8.2845533"><ele>573.0</ele><time>2026-04-16T08:27:50.845Z</time></trkpt><trkpt lat="42.6639667" lon="-8.2845967"><ele>573.0</ele><time>2026-04-16T08:27:51.845Z</time></trkpt><trkpt lat="42.6638933" lon="-8.284655"><ele>573.0</ele><time>2026-04-16T08:27:52.844Z</time></trkpt><trkpt lat="42.6638067" lon="-8.2847017"><ele>573.0</ele><time>2026-04-16T08:27:53.845Z</time></trkpt><trkpt lat="42.6637433" lon="-8.2847217"><ele>573.0</ele><time>2026-04-16T08:27:54.844Z</time></trkpt><trkpt lat="42.663675" lon="-8.28464"><ele>573.0</ele><time>2026-04-16T08:27:57.845Z</time></trkpt><trkpt lat="42.6636683" lon="-8.284535"><ele>573.0</ele><time>2026-04-16T08:27:59.844Z</time></trkpt><trkpt lat="42.6636983" lon="-8.2843833"><ele>573.0</ele><time>2026-04-16T08:28:01.845Z</time></trkpt><trkpt lat="42.6637217" lon="-8.284295"><ele>573.0</ele><time>2026-04-16T08:28:02.844Z</time></trkpt><trkpt lat="42.6637683" lon="-8.28418"><ele>573.0</ele><time>2026-04-16T08:28:03.845Z</time></trkpt><trkpt lat="42.663825" lon="-8.284075"><ele>573.0</ele><time>2026-04-16T08:28:04.845Z</time></trkpt><trkpt lat="42.6638667" lon="-8.28399"><ele>573.0</ele><time>2026-04-16T08:28:05.845Z</time></trkpt><trkpt lat="42.6639367" lon="-8.283875"><ele>573.0</ele><time>2026-04-16T08:28:06.845Z</time></trkpt><trkpt lat="42.664025" lon="-8.2837383"><ele>578.6666666666666</ele><time>2026-04-16T08:28:07.844Z</time></trkpt><trkpt lat="42.66412" lon="-8.28359"><ele>584.3333333333333</ele><time>2026-04-16T08:28:08.844Z</time></trkpt><trkpt lat="42.6642283" lon="-8.2834167"><ele>590.0</ele><time>2026-04-16T08:28:09.845Z</time></trkpt><trkpt lat="42.6643267" lon="-8.2832283"><ele>592.3333333333333</ele><time>2026-04-16T08:28:10.844Z</time></trkpt><trkpt lat="42.6644283" lon="-8.28306"><ele>594.6666666666666</ele><time>2026-04-16T08:28:11.844Z</time></trkpt><trkpt lat="42.66454" lon="-8.28288"><ele>597.0</ele><time>2026-04-16T08:28:12.845Z</time></trkpt><trkpt lat="42.6646417" lon="-8.282715"><ele>597.0</ele><time>2026-04-16T08:28:13.844Z</time></trkpt><trkpt lat="42.6647367" lon="-8.2825467"><ele>597.0</ele><time>2026-04-16T08:28:14.844Z</time></trkpt><trkpt lat="42.664845" lon="-8.282375"><ele>597.0</ele><time>2026-04-16T08:28:15.844Z</time></trkpt><trkpt lat="42.6649433" lon="-8.2822067"><ele>600.25</ele><time>2026-04-16T08:28:16.845Z</time></trkpt><trkpt lat="42.66501" lon="-8.2820483"><ele>603.5</ele><time>2026-04-16T08:28:17.844Z</time></trkpt><trkpt lat="42.66506" lon="-8.28191"><ele>606.75</ele><time>2026-04-16T08:28:18.845Z</time></trkpt><trkpt lat="42.6651067" lon="-8.281775"><ele>610.0</ele><time>2026-04-16T08:28:19.844Z</time></trkpt><trkpt lat="42.66514" lon="-8.281635"><ele>610.0</ele><time>2026-04-16T08:28:20.845Z</time></trkpt><trkpt lat="42.6651533" lon="-8.2815283"><ele>610.0</ele><time>2026-04-16T08:28:21.844Z</time></trkpt><trkpt lat="42.6651533" lon="-8.2814167"><ele>610.0</ele><time>2026-04-16T08:28:22.844Z</time></trkpt><trkpt lat="42.6651267" lon="-8.281315"><ele>610.0</ele><time>2026-04-16T08:28:23.845Z</time></trkpt><trkpt lat="42.66508" lon="-8.2812"><ele>610.0</ele><time>2026-04-16T08:28:24.845Z</time></trkpt><trkpt lat="42.6650617" lon="-8.2810733"><ele>610.0</ele><time>2026-04-16T08:28:25.844Z</time></trkpt><trkpt lat="42.6650567" lon="-8.2809367"><ele>611.6</ele><time>2026-04-16T08:28:26.844Z</time></trkpt><trkpt lat="42.6650717" lon="-8.2807983"><ele>613.2</ele><time>2026-04-16T08:28:27.845Z</time></trkpt><trkpt lat="42.6650817" lon="-8.2806617"><ele>614.8</ele><time>2026-04-16T08:28:28.844Z</time></trkpt><trkpt lat="42.6650933" lon="-8.2805283"><ele>616.4</ele><time>2026-04-16T08:28:29.844Z</time></trkpt><trkpt lat="42.6650983" lon="-8.2804233"><ele>618.0</ele><time>2026-04-16T08:28:30.844Z</time></trkpt><trkpt lat="42.6650967" lon="-8.2803117"><ele>618.0</ele><time>2026-04-16T08:28:31.844Z</time></trkpt><trkpt lat="42.66508" lon="-8.2802283"><ele>618.0</ele><time>2026-04-16T08:28:33.844Z</time></trkpt><trkpt lat="42.6650167" lon="-8.2802883"><ele>618.0</ele><time>2026-04-16T08:28:35.844Z</time></trkpt><trkpt lat="42.6649583" lon="-8.280365"><ele>618.0</ele><time>2026-04-16T08:28:36.844Z</time></trkpt><trkpt lat="42.664885" lon="-8.2804583"><ele>618.0</ele><time>2026-04-16T08:28:37.845Z</time></trkpt><trkpt lat="42.664795" lon="-8.2805483"><ele>618.0</ele><time>2026-04-16T08:28:38.845Z</time></trkpt><trkpt lat="42.6646783" lon="-8.2806333"><ele>618.0</ele><time>2026-04-16T08:28:39.844Z</time></trkpt><trkpt lat="42.6645367" lon="-8.2807283"><ele>618.0</ele><time>2026-04-16T08:28:40.844Z</time></trkpt><trkpt lat="42.6643933" lon="-8.280845"><ele>618.0</ele><time>2026-04-16T08:28:41.845Z</time></trkpt><trkpt lat="42.6642483" lon="-8.280975"><ele>623.25</ele><time>2026-04-16T08:28:42.845Z</time></trkpt><trkpt lat="42.6641317" lon="-8.2810867"><ele>628.5</ele><time>2026-04-16T08:28:43.844Z</time></trkpt><trkpt lat="42.6640317" lon="-8.2811767"><ele>633.75</ele><time>2026-04-16T08:28:44.844Z</time></trkpt><trkpt lat="42.66395" lon="-8.2812567"><ele>639.0</ele><time>2026-04-16T08:28:45.844Z</time></trkpt><trkpt lat="42.6638717" lon="-8.2813267"><ele>639.0</ele><time>2026-04-16T08:28:46.844Z</time></trkpt><trkpt lat="42.6637867" lon="-8.2813817"><ele>639.0</ele><time>2026-04-16T08:28:47.845Z</time></trkpt><trkpt lat="42.6636983" lon="-8.2814183"><ele>639.0</ele><time>2026-04-16T08:28:48.845Z</time></trkpt><trkpt lat="42.663605" lon="-8.281435"><ele>639.0</ele><time>2026-04-16T08:28:49.845Z</time></trkpt><trkpt lat="42.6634983" lon="-8.2814283"><ele>639.0</ele><time>2026-04-16T08:28:50.844Z</time></trkpt><trkpt lat="42.6633733" lon="-8.2814183"><ele>639.5</ele><time>2026-04-16T08:28:51.844Z</time></trkpt><trkpt lat="42.6632467" lon="-8.281425"><ele>640.0</ele><time>2026-04-16T08:28:52.845Z</time></trkpt><trkpt lat="42.66312" lon="-8.2814633"><ele>640.5</ele><time>2026-04-16T08:28:53.845Z</time></trkpt><trkpt lat="42.662995" lon="-8.281535"><ele>641.0</ele><time>2026-04-16T08:28:54.844Z</time></trkpt><trkpt lat="42.6628767" lon="-8.2816017"><ele>642.1999999999999</ele><time>2026-04-16T08:28:55.845Z</time></trkpt><trkpt lat="42.6627783" lon="-8.2816483"><ele>643.4</ele><time>2026-04-16T08:28:56.844Z</time></trkpt><trkpt lat="42.6626867" lon="-8.2816533"><ele>644.6</ele><time>2026-04-16T08:28:57.844Z</time></trkpt><trkpt lat="42.6625933" lon="-8.2816183"><ele>645.8</ele><time>2026-04-16T08:28:58.844Z</time></trkpt><trkpt lat="42.6624883" lon="-8.2815633"><ele>647.0</ele><time>2026-04-16T08:28:59.844Z</time></trkpt><trkpt lat="42.6623767" lon="-8.2815017"><ele>647.0</ele><time>2026-04-16T08:29:00.844Z</time></trkpt><trkpt lat="42.66225" lon="-8.2814367"><ele>647.0</ele><time>2026-04-16T08:29:01.844Z</time></trkpt><trkpt lat="42.6620983" lon="-8.28138"><ele>647.0</ele><time>2026-04-16T08:29:02.845Z</time></trkpt><trkpt lat="42.6619433" lon="-8.281335"><ele>652.75</ele><time>2026-04-16T08:29:03.845Z</time></trkpt><trkpt lat="42.6618" lon="-8.2812917"><ele>658.5</ele><time>2026-04-16T08:29:04.845Z</time></trkpt><trkpt lat="42.661675" lon="-8.2812533"><ele>664.25</ele><time>2026-04-16T08:29:05.844Z</time></trkpt><trkpt lat="42.6615583" lon="-8.2812633"><ele>670.0</ele><time>2026-04-16T08:29:06.844Z</time></trkpt><trkpt lat="42.6614367" lon="-8.281285"><ele>670.0</ele><time>2026-04-16T08:29:07.844Z</time></trkpt><trkpt lat="42.6613083" lon="-8.2813117"><ele>670.0</ele><time>2026-04-16T08:29:08.844Z</time></trkpt><trkpt lat="42.66117" lon="-8.28133"><ele>670.0</ele><time>2026-04-16T08:29:09.845Z</time></trkpt><trkpt lat="42.6610467" lon="-8.2813"><ele>670.0</ele><time>2026-04-16T08:29:10.844Z</time></trkpt><trkpt lat="42.6609217" lon="-8.2812683"><ele>671.5</ele><time>2026-04-16T08:29:11.845Z</time></trkpt><trkpt lat="42.6608033" lon="-8.281205"><ele>673.0</ele><time>2026-04-16T08:29:12.844Z</time></trkpt><trkpt lat="42.6606783" lon="-8.2811467"><ele>674.5</ele><time>2026-04-16T08:29:13.845Z</time></trkpt><trkpt lat="42.660535" lon="-8.2810967"><ele>676.0</ele><time>2026-04-16T08:29:14.845Z</time></trkpt><trkpt lat="42.6603867" lon="-8.2810767"><ele>677.5</ele><time>2026-04-16T08:29:15.844Z</time></trkpt><trkpt lat="42.6602367" lon="-8.28107"><ele>679.0</ele><time>2026-04-16T08:29:16.844Z</time></trkpt><trkpt lat="42.660105" lon="-8.2810917"><ele>680.5</ele><time>2026-04-16T08:29:17.845Z</time></trkpt><trkpt lat="42.6599817" lon="-8.2811283"><ele>682.0</ele><time>2026-04-16T08:29:18.844Z</time></trkpt><trkpt lat="42.6598717" lon="-8.2812017"><ele>682.0</ele><time>2026-04-16T08:29:19.845Z</time></trkpt><trkpt lat="42.6597717" lon="-8.2812967"><ele>682.0</ele><time>2026-04-16T08:29:20.845Z</time></trkpt><trkpt lat="42.6596683" lon="-8.2813883"><ele>682.0</ele><time>2026-04-16T08:29:21.845Z</time></trkpt><trkpt lat="42.6595583" lon="-8.2814517"><ele>682.0</ele><time>2026-04-16T08:29:22.845Z</time></trkpt><trkpt lat="42.6594467" lon="-8.2815083"><ele>682.8</ele><time>2026-04-16T08:29:23.845Z</time></trkpt><trkpt lat="42.6593267" lon="-8.2815333"><ele>683.6</ele><time>2026-04-16T08:29:24.845Z</time></trkpt><trkpt lat="42.659215" lon="-8.281535"><ele>684.4</ele><time>2026-04-16T08:29:25.845Z</time></trkpt><trkpt lat="42.6591083" lon="-8.2815167"><ele>685.1999999999999</ele><time>2026-04-16T08:29:26.845Z</time></trkpt><trkpt lat="42.65901" lon="-8.281475"><ele>686.0</ele><time>2026-04-16T08:29:27.846Z</time></trkpt><trkpt lat="42.6589033" lon="-8.2813933"><ele>687.5</ele><time>2026-04-16T08:29:28.845Z</time></trkpt><trkpt lat="42.6588" lon="-8.2812767"><ele>689.0</ele><time>2026-04-16T08:29:29.845Z</time></trkpt><trkpt lat="42.658675" lon="-8.28117"><ele>690.5</ele><time>2026-04-16T08:29:30.846Z</time></trkpt><trkpt lat="42.65855" lon="-8.2810833"><ele>692.0</ele><time>2026-04-16T08:29:31.845Z</time></trkpt><trkpt lat="42.658435" lon="-8.281025"><ele>692.25</ele><time>2026-04-16T08:29:32.845Z</time></trkpt><trkpt lat="42.6583217" lon="-8.2810067"><ele>692.5</ele><time>2026-04-16T08:29:33.845Z</time></trkpt><trkpt lat="42.658195" lon="-8.28104"><ele>692.75</ele><time>2026-04-16T08:29:34.846Z</time></trkpt><trkpt lat="42.6580617" lon="-8.281125"><ele>693.0</ele><time>2026-04-16T08:29:35.845Z</time></trkpt><trkpt lat="42.6579217" lon="-8.28123"><ele>693.75</ele><time>2026-04-16T08:29:36.846Z</time></trkpt><trkpt lat="42.657775" lon="-8.2813367"><ele>694.5</ele><time>2026-04-16T08:29:37.846Z</time></trkpt><trkpt lat="42.6576517" lon="-8.28144"><ele>695.25</ele><time>2026-04-16T08:29:38.845Z</time></trkpt><trkpt lat="42.6575333" lon="-8.281535"><ele>696.0</ele><time>2026-04-16T08:29:39.846Z</time></trkpt><trkpt lat="42.6574433" lon="-8.2815833"><ele>696.0</ele><time>2026-04-16T08:29:40.845Z</time></trkpt><trkpt lat="42.6573567" lon="-8.2816067"><ele>696.0</ele><time>2026-04-16T08:29:41.846Z</time></trkpt><trkpt lat="42.657265" lon="-8.2815967"><ele>696.0</ele><time>2026-04-16T08:29:42.845Z</time></trkpt><trkpt lat="42.65715" lon="-8.281565"><ele>696.0</ele><time>2026-04-16T08:29:43.846Z</time></trkpt><trkpt lat="42.6570033" lon="-8.28153"><ele>696.0</ele><time>2026-04-16T08:29:44.846Z</time></trkpt><trkpt lat="42.6568417" lon="-8.2814867"><ele>698.6666666666666</ele><time>2026-04-16T08:29:45.845Z</time></trkpt><trkpt lat="42.6566783" lon="-8.2814517"><ele>701.3333333333333</ele><time>2026-04-16T08:29:46.845Z</time></trkpt><trkpt lat="42.656535" lon="-8.28141"><ele>704.0</ele><time>2026-04-16T08:29:47.845Z</time></trkpt><trkpt lat="42.6563983" lon="-8.28137"><ele>704.3333333333333</ele><time>2026-04-16T08:29:48.845Z</time></trkpt><trkpt lat="42.6562583" lon="-8.2813133"><ele>704.6666666666666</ele><time>2026-04-16T08:29:49.846Z</time></trkpt><trkpt lat="42.6561117" lon="-8.28122"><ele>705.0</ele><time>2026-04-16T08:29:50.846Z</time></trkpt><trkpt lat="42.6559717" lon="-8.28111"><ele>705.75</ele><time>2026-04-16T08:29:51.845Z</time></trkpt><trkpt lat="42.65584" lon="-8.2810133"><ele>706.5</ele><time>2026-04-16T08:29:52.846Z</time></trkpt><trkpt lat="42.65572" lon="-8.2809317"><ele>707.25</ele><time>2026-04-16T08:29:53.846Z</time></trkpt><trkpt lat="42.6556083" lon="-8.28086"><ele>708.0</ele><time>2026-04-16T08:29:54.846Z</time></trkpt><trkpt lat="42.6555017" lon="-8.28083"><ele>708.0</ele><time>2026-04-16T08:29:55.845Z</time></trkpt><trkpt lat="42.6553933" lon="-8.2808283"><ele>708.0</ele><time>2026-04-16T08:29:56.846Z</time></trkpt><trkpt lat="42.6552717" lon="-8.280875"><ele>708.0</ele><time>2026-04-16T08:29:57.845Z</time></trkpt><trkpt lat="42.6551167" lon="-8.2809533"><ele>708.0</ele><time>2026-04-16T08:29:58.846Z</time></trkpt><trkpt lat="42.6549417" lon="-8.2810567"><ele>707.6666666666666</ele><time>2026-04-16T08:29:59.845Z</time></trkpt><trkpt lat="42.6547633" lon="-8.2811533"><ele>707.3333333333333</ele><time>2026-04-16T08:30:00.845Z</time></trkpt><trkpt lat="42.6545967" lon="-8.2812267"><ele>707.0</ele><time>2026-04-16T08:30:01.846Z</time></trkpt><trkpt lat="42.6544483" lon="-8.281285"><ele>707.0</ele><time>2026-04-16T08:30:02.846Z</time></trkpt><trkpt lat="42.6543067" lon="-8.281325"><ele>707.0</ele><time>2026-04-16T08:30:03.846Z</time></trkpt><trkpt lat="42.6541617" lon="-8.2813483"><ele>707.0</ele><time>2026-04-16T08:30:04.846Z</time></trkpt><trkpt lat="42.6540117" lon="-8.2813583"><ele>707.0</ele><time>2026-04-16T08:30:05.845Z</time></trkpt><trkpt lat="42.6538567" lon="-8.2813417"><ele>707.0</ele><time>2026-04-16T08:30:06.846Z</time></trkpt><trkpt lat="42.653695" lon="-8.2813117"><ele>707.0</ele><time>2026-04-16T08:30:07.846Z</time></trkpt><trkpt lat="42.6535333" lon="-8.281275"><ele>707.0</ele><time>2026-04-16T08:30:08.846Z</time></trkpt><trkpt lat="42.6533667" lon="-8.2812317"><ele>705.6666666666666</ele><time>2026-04-16T08:30:09.846Z</time></trkpt><trkpt lat="42.65321" lon="-8.2811717"><ele>704.3333333333334</ele><time>2026-04-16T08:30:10.846Z</time></trkpt><trkpt lat="42.6530617" lon="-8.2811033"><ele>703.0</ele><time>2026-04-16T08:30:11.846Z</time></trkpt><trkpt lat="42.65292" lon="-8.2810217"><ele>703.0</ele><time>2026-04-16T08:30:12.846Z</time></trkpt><trkpt lat="42.65279" lon="-8.2809233"><ele>703.0</ele><time>2026-04-16T08:30:13.846Z</time></trkpt><trkpt lat="42.6526817" lon="-8.2808433"><ele>703.0</ele><time>2026-04-16T08:30:14.846Z</time></trkpt><trkpt lat="42.6525917" lon="-8.2807733"><ele>703.0</ele><time>2026-04-16T08:30:15.845Z</time></trkpt><trkpt lat="42.6525183" lon="-8.2806983"><ele>702.1666666666667</ele><time>2026-04-16T08:30:16.845Z</time></trkpt><trkpt lat="42.6524583" lon="-8.28062"><ele>701.3333333333334</ele><time>2026-04-16T08:30:17.846Z</time></trkpt><trkpt lat="42.652415" lon="-8.2805217"><ele>700.5</ele><time>2026-04-16T08:30:18.845Z</time></trkpt><trkpt lat="42.65238" lon="-8.2804183"><ele>699.6666666666666</ele><time>2026-04-16T08:30:19.845Z</time></trkpt><trkpt lat="42.6523567" lon="-8.2803217"><ele>698.8333333333333</ele><time>2026-04-16T08:30:20.845Z</time></trkpt><trkpt lat="42.6523083" lon="-8.2802583"><ele>698.0</ele><time>2026-04-16T08:30:21.845Z</time></trkpt><trkpt lat="42.6522317" lon="-8.2802167"><ele>698.0</ele><time>2026-04-16T08:30:22.845Z</time></trkpt><trkpt lat="42.6521333" lon="-8.280175"><ele>698.0</ele><time>2026-04-16T08:30:23.846Z</time></trkpt><trkpt lat="42.6520233" lon="-8.2801367"><ele>698.0</ele><time>2026-04-16T08:30:24.845Z</time></trkpt><trkpt lat="42.6519283" lon="-8.2801017"><ele>698.0</ele><time>2026-04-16T08:30:25.845Z</time></trkpt><trkpt lat="42.651845" lon="-8.2800583"><ele>698.0</ele><time>2026-04-16T08:30:26.845Z</time></trkpt><trkpt lat="42.6517767" lon="-8.2800067"><ele>697.8</ele><time>2026-04-16T08:30:27.845Z</time></trkpt><trkpt lat="42.6516983" lon="-8.279905"><ele>697.5999999999999</ele><time>2026-04-16T08:30:29.845Z</time></trkpt><trkpt lat="42.6517033" lon="-8.2798"><ele>697.4000000000001</ele><time>2026-04-16T08:30:31.846Z</time></trkpt><trkpt lat="42.6517867" lon="-8.27971"><ele>697.2</ele><time>2026-04-16T08:30:33.845Z</time></trkpt><trkpt lat="42.651875" lon="-8.27964"><ele>697.0</ele><time>2026-04-16T08:30:34.845Z</time></trkpt><trkpt lat="42.6519817" lon="-8.2795333"><ele>698.25</ele><time>2026-04-16T08:30:35.845Z</time></trkpt><trkpt lat="42.6520683" lon="-8.279425"><ele>699.5</ele><time>2026-04-16T08:30:36.845Z</time></trkpt><trkpt lat="42.6521517" lon="-8.279325"><ele>700.75</ele><time>2026-04-16T08:30:37.845Z</time></trkpt><trkpt lat="42.6522267" lon="-8.279215"><ele>702.0</ele><time>2026-04-16T08:30:38.845Z</time></trkpt><trkpt lat="42.6522917" lon="-8.2790933"><ele>702.0</ele><time>2026-04-16T08:30:39.845Z</time></trkpt><trkpt lat="42.6523517" lon="-8.27897"><ele>702.0</ele><time>2026-04-16T08:30:40.845Z</time></trkpt><trkpt lat="42.65242" lon="-8.2788517"><ele>702.0</ele><time>2026-04-16T08:30:41.846Z</time></trkpt><trkpt lat="42.65249" lon="-8.27873"><ele>702.0</ele><time>2026-04-16T08:30:42.845Z</time></trkpt><trkpt lat="42.6525533" lon="-8.2785967"><ele>703.5</ele><time>2026-04-16T08:30:43.846Z</time></trkpt><trkpt lat="42.65262" lon="-8.2784583"><ele>705.0</ele><time>2026-04-16T08:30:44.845Z</time></trkpt><trkpt lat="42.6526767" lon="-8.278325"><ele>706.5</ele><time>2026-04-16T08:30:45.846Z</time></trkpt><trkpt lat="42.6527133" lon="-8.2781867"><ele>708.0</ele><time>2026-04-16T08:30:46.845Z</time></trkpt><trkpt lat="42.6527417" lon="-8.2780433"><ele>708.8</ele><time>2026-04-16T08:30:47.845Z</time></trkpt><trkpt lat="42.6527567" lon="-8.2779133"><ele>709.5999999999999</ele><time>2026-04-16T08:30:48.845Z</time></trkpt><trkpt lat="42.652765" lon="-8.27778"><ele>710.4000000000001</ele><time>2026-04-16T08:30:49.845Z</time></trkpt><trkpt lat="42.6527767" lon="-8.2776483"><ele>711.2</ele><time>2026-04-16T08:30:50.845Z</time></trkpt><trkpt lat="42.6527833" lon="-8.2775133"><ele>712.0</ele><time>2026-04-16T08:30:51.845Z</time></trkpt><trkpt lat="42.652785" lon="-8.2773733"><ele>713.0</ele><time>2026-04-16T08:30:52.845Z</time></trkpt><trkpt lat="42.6527833" lon="-8.2772267"><ele>714.0</ele><time>2026-04-16T08:30:53.846Z</time></trkpt><trkpt lat="42.6527767" lon="-8.2770783"><ele>715.0</ele><time>2026-04-16T08:30:54.846Z</time></trkpt><trkpt lat="42.6527617" lon="-8.276935"><ele>716.0</ele><time>2026-04-16T08:30:55.846Z</time></trkpt><trkpt lat="42.652745" lon="-8.2767933"><ele>717.0</ele><time>2026-04-16T08:30:56.845Z</time></trkpt><trkpt lat="42.6527267" lon="-8.2766417"><ele>717.0</ele><time>2026-04-16T08:30:57.846Z</time></trkpt><trkpt lat="42.65271" lon="-8.2764883"><ele>717.0</ele><time>2026-04-16T08:30:58.845Z</time></trkpt><trkpt lat="42.6526933" lon="-8.2763433"><ele>717.0</ele><time>2026-04-16T08:30:59.846Z</time></trkpt><trkpt lat="42.6526833" lon="-8.2761933"><ele>717.0</ele><time>2026-04-16T08:31:00.846Z</time></trkpt><trkpt lat="42.6526683" lon="-8.2760367"><ele>717.0</ele><time>2026-04-16T08:31:01.845Z</time></trkpt><trkpt lat="42.652655" lon="-8.2758667"><ele>717.8</ele><time>2026-04-16T08:31:02.846Z</time></trkpt><trkpt lat="42.652635" lon="-8.2757067"><ele>718.6</ele><time>2026-04-16T08:31:03.846Z</time></trkpt><trkpt lat="42.6526133" lon="-8.27555"><ele>719.4</ele><time>2026-04-16T08:31:04.845Z</time></trkpt><trkpt lat="42.6526017" lon="-8.2754167"><ele>720.1999999999999</ele><time>2026-04-16T08:31:05.846Z</time></trkpt><trkpt lat="42.652595" lon="-8.2753033"><ele>721.0</ele><time>2026-04-16T08:31:06.845Z</time></trkpt><trkpt lat="42.6525917" lon="-8.2751883"><ele>721.4</ele><time>2026-04-16T08:31:07.845Z</time></trkpt><trkpt lat="42.6525683" lon="-8.2750833"><ele>721.8</ele><time>2026-04-16T08:31:08.845Z</time></trkpt><trkpt lat="42.6525283" lon="-8.275"><ele>722.1999999999999</ele><time>2026-04-16T08:31:09.846Z</time></trkpt><trkpt lat="42.6523883" lon="-8.274955"><ele>722.5999999999999</ele><time>2026-04-16T08:31:11.846Z</time></trkpt><trkpt lat="42.65227" lon="-8.2749767"><ele>723.0</ele><time>2026-04-16T08:31:12.846Z</time></trkpt><trkpt lat="42.6521383" lon="-8.274995"><ele>723.0</ele><time>2026-04-16T08:31:13.846Z</time></trkpt><trkpt lat="42.6520117" lon="-8.27501"><ele>723.0</ele><time>2026-04-16T08:31:14.845Z</time></trkpt><trkpt lat="42.6518917" lon="-8.2750117"><ele>723.0</ele><time>2026-04-16T08:31:15.846Z</time></trkpt><trkpt lat="42.6517667" lon="-8.2750133"><ele>723.0</ele><time>2026-04-16T08:31:16.845Z</time></trkpt><trkpt lat="42.6516483" lon="-8.2750083"><ele>723.5</ele><time>2026-04-16T08:31:17.845Z</time></trkpt><trkpt lat="42.6515433" lon="-8.2750083"><ele>724.0</ele><time>2026-04-16T08:31:18.845Z</time></trkpt><trkpt lat="42.6514683" lon="-8.2749967"><ele>724.5</ele><time>2026-04-16T08:31:19.846Z</time></trkpt><trkpt lat="42.6514017" lon="-8.27496"><ele>725.0</ele><time>2026-04-16T08:31:20.845Z</time></trkpt><trkpt lat="42.65134" lon="-8.274895"><ele>725.5</ele><time>2026-04-16T08:31:21.846Z</time></trkpt><trkpt lat="42.651275" lon="-8.2748083"><ele>726.0</ele><time>2026-04-16T08:31:22.846Z</time></trkpt><trkpt lat="42.65123" lon="-8.274695"><ele>727.5</ele><time>2026-04-16T08:31:23.846Z</time></trkpt><trkpt lat="42.6511983" lon="-8.2745667"><ele>729.0</ele><time>2026-04-16T08:31:24.845Z</time></trkpt><trkpt lat="42.651185" lon="-8.274415"><ele>730.5</ele><time>2026-04-16T08:31:25.845Z</time></trkpt><trkpt lat="42.6511717" lon="-8.2742517"><ele>732.0</ele><time>2026-04-16T08:31:26.846Z</time></trkpt><trkpt lat="42.6511583" lon="-8.2740917"><ele>733.5</ele><time>2026-04-16T08:31:27.845Z</time></trkpt><trkpt lat="42.6511533" lon="-8.273935"><ele>735.0</ele><time>2026-04-16T08:31:28.846Z</time></trkpt><trkpt lat="42.65116" lon="-8.2737633"><ele>736.5</ele><time>2026-04-16T08:31:29.846Z</time></trkpt><trkpt lat="42.6511683" lon="-8.273605"><ele>738.0</ele><time>2026-04-16T08:31:30.846Z</time></trkpt><trkpt lat="42.6511717" lon="-8.2734667"><ele>738.0</ele><time>2026-04-16T08:31:31.845Z</time></trkpt><trkpt lat="42.6511717" lon="-8.2733517"><ele>738.0</ele><time>2026-04-16T08:31:32.845Z</time></trkpt><trkpt lat="42.6511683" lon="-8.2732383"><ele>738.0</ele><time>2026-04-16T08:31:33.845Z</time></trkpt><trkpt lat="42.6511733" lon="-8.27312"><ele>738.0</ele><time>2026-04-16T08:31:34.846Z</time></trkpt><trkpt lat="42.6511817" lon="-8.2729867"><ele>738.0</ele><time>2026-04-16T08:31:35.846Z</time></trkpt><trkpt lat="42.65119" lon="-8.27284"><ele>740.0</ele><time>2026-04-16T08:31:36.846Z</time></trkpt><trkpt lat="42.651205" lon="-8.272685"><ele>742.0</ele><time>2026-04-16T08:31:37.846Z</time></trkpt><trkpt lat="42.6512217" lon="-8.2725267"><ele>744.0</ele><time>2026-04-16T08:31:38.846Z</time></trkpt><trkpt lat="42.6512383" lon="-8.2723783"><ele>746.0</ele><time>2026-04-16T08:31:39.846Z</time></trkpt><trkpt lat="42.6512467" lon="-8.2722467"><ele>748.0</ele><time>2026-04-16T08:31:40.846Z</time></trkpt><trkpt lat="42.6512467" lon="-8.2721283"><ele>749.8</ele><time>2026-04-16T08:31:41.845Z</time></trkpt><trkpt lat="42.65125" lon="-8.271995"><ele>751.5999999999999</ele><time>2026-04-16T08:31:42.846Z</time></trkpt><trkpt lat="42.65122" lon="-8.271875"><ele>753.4000000000001</ele><time>2026-04-16T08:31:43.845Z</time></trkpt><trkpt lat="42.6511833" lon="-8.2717533"><ele>755.2</ele><time>2026-04-16T08:31:44.845Z</time></trkpt><trkpt lat="42.6511533" lon="-8.2716183"><ele>757.0</ele><time>2026-04-16T08:31:45.845Z</time></trkpt><trkpt lat="42.651115" lon="-8.2714683"><ele>761.0</ele><time>2026-04-16T08:31:46.846Z</time></trkpt><trkpt lat="42.6510783" lon="-8.2713083"><ele>765.0</ele><time>2026-04-16T08:31:47.846Z</time></trkpt><trkpt lat="42.6510517" lon="-8.2711533"><ele>769.0</ele><time>2026-04-16T08:31:48.845Z</time></trkpt><trkpt lat="42.65103" lon="-8.2710267"><ele>773.0</ele><time>2026-04-16T08:31:49.845Z</time></trkpt><trkpt lat="42.6510067" lon="-8.2709083"><ele>777.0</ele><time>2026-04-16T08:31:50.846Z</time></trkpt><trkpt lat="42.650985" lon="-8.2708033"><ele>777.0</ele><time>2026-04-16T08:31:51.846Z</time></trkpt><trkpt lat="42.6509717" lon="-8.2707"><ele>777.0</ele><time>2026-04-16T08:31:52.845Z</time></trkpt><trkpt lat="42.650965" lon="-8.2706117"><ele>777.0</ele><time>2026-04-16T08:31:53.845Z</time></trkpt><trkpt lat="42.6509483" lon="-8.2704717"><ele>777.0</ele><time>2026-04-16T08:31:55.845Z</time></trkpt><trkpt lat="42.6509417" lon="-8.27038"><ele>777.0</ele><time>2026-04-16T08:31:56.845Z</time></trkpt><trkpt lat="42.6509517" lon="-8.2702867"><ele>777.0</ele><time>2026-04-16T08:31:57.846Z</time></trkpt><trkpt lat="42.650975" lon="-8.2702033"><ele>777.0</ele><time>2026-04-16T08:31:58.845Z</time></trkpt><trkpt lat="42.6510033" lon="-8.2701017"><ele>778.1666666666666</ele><time>2026-04-16T08:31:59.846Z</time></trkpt><trkpt lat="42.6510217" lon="-8.26998"><ele>779.3333333333333</ele><time>2026-04-16T08:32:00.845Z</time></trkpt><trkpt lat="42.6510267" lon="-8.269855"><ele>780.5</ele><time>2026-04-16T08:32:01.846Z</time></trkpt><trkpt lat="42.651015" lon="-8.269725"><ele>781.6666666666666</ele><time>2026-04-16T08:32:02.846Z</time></trkpt><trkpt lat="42.6509883" lon="-8.2696183"><ele>782.8333333333333</ele><time>2026-04-16T08:32:03.846Z</time></trkpt><trkpt lat="42.650955" lon="-8.2695267"><ele>784.0</ele><time>2026-04-16T08:32:04.845Z</time></trkpt><trkpt lat="42.6509117" lon="-8.26944"><ele>784.7142857142857</ele><time>2026-04-16T08:32:05.845Z</time></trkpt><trkpt lat="42.650865" lon="-8.2693583"><ele>785.4285714285714</ele><time>2026-04-16T08:32:06.845Z</time></trkpt><trkpt lat="42.65082" lon="-8.2692867"><ele>786.1428571428571</ele><time>2026-04-16T08:32:07.845Z</time></trkpt><trkpt lat="42.6507783" lon="-8.2692167"><ele>786.8571428571429</ele><time>2026-04-16T08:32:08.845Z</time></trkpt><trkpt lat="42.6507417" lon="-8.2691383"><ele>787.5714285714286</ele><time>2026-04-16T08:32:09.845Z</time></trkpt><trkpt lat="42.6506967" lon="-8.2690517"><ele>788.2857142857142</ele><time>2026-04-16T08:32:10.845Z</time></trkpt><trkpt lat="42.6506533" lon="-8.26895"><ele>789.0</ele><time>2026-04-16T08:32:11.845Z</time></trkpt><trkpt lat="42.6506" lon="-8.2688283"><ele>789.4000000000001</ele><time>2026-04-16T08:32:12.845Z</time></trkpt><trkpt lat="42.6505417" lon="-8.2687"><ele>789.8</ele><time>2026-04-16T08:32:13.846Z</time></trkpt><trkpt lat="42.6504833" lon="-8.26858"><ele>790.2</ele><time>2026-04-16T08:32:14.846Z</time></trkpt><trkpt lat="42.650425" lon="-8.2684783"><ele>790.5999999999999</ele><time>2026-04-16T08:32:15.845Z</time></trkpt><trkpt lat="42.6503617" lon="-8.2683883"><ele>791.0</ele><time>2026-04-16T08:32:16.845Z</time></trkpt><trkpt lat="42.650295" lon="-8.2682917"><ele>793.1999999999999</ele><time>2026-04-16T08:32:17.846Z</time></trkpt><trkpt lat="42.6502283" lon="-8.2681867"><ele>795.4</ele><time>2026-04-16T08:32:18.845Z</time></trkpt><trkpt lat="42.6501567" lon="-8.268075"><ele>797.6</ele><time>2026-04-16T08:32:19.845Z</time></trkpt><trkpt lat="42.6500867" lon="-8.26795"><ele>799.8</ele><time>2026-04-16T08:32:20.846Z</time></trkpt><trkpt lat="42.65002" lon="-8.2678167"><ele>802.0</ele><time>2026-04-16T08:32:21.845Z</time></trkpt><trkpt lat="42.64995" lon="-8.26768"><ele>801.75</ele><time>2026-04-16T08:32:22.846Z</time></trkpt><trkpt lat="42.6498783" lon="-8.2675417"><ele>801.5</ele><time>2026-04-16T08:32:23.845Z</time></trkpt><trkpt lat="42.6498017" lon="-8.2674033"><ele>801.25</ele><time>2026-04-16T08:32:24.846Z</time></trkpt><trkpt lat="42.64972" lon="-8.2672883"><ele>801.0</ele><time>2026-04-16T08:32:25.845Z</time></trkpt><trkpt lat="42.6496283" lon="-8.267195"><ele>801.0</ele><time>2026-04-16T08:32:26.845Z</time></trkpt><trkpt lat="42.649525" lon="-8.2671033"><ele>801.0</ele><time>2026-04-16T08:32:27.846Z</time></trkpt><trkpt lat="42.6494217" lon="-8.2669883"><ele>801.0</ele><time>2026-04-16T08:32:28.846Z</time></trkpt><trkpt lat="42.6493217" lon="-8.2668533"><ele>801.0</ele><time>2026-04-16T08:32:29.846Z</time></trkpt><trkpt lat="42.64923" lon="-8.2667233"><ele>801.6666666666667</ele><time>2026-04-16T08:32:30.845Z</time></trkpt><trkpt lat="42.6491333" lon="-8.2665967"><ele>802.3333333333334</ele><time>2026-04-16T08:32:31.846Z</time></trkpt><trkpt lat="42.6490217" lon="-8.2664633"><ele>803.0</ele><time>2026-04-16T08:32:32.846Z</time></trkpt><trkpt lat="42.6488933" lon="-8.2663017"><ele>802.0</ele><time>2026-04-16T08:32:33.845Z</time></trkpt><trkpt lat="42.6487633" lon="-8.2661217"><ele>801.0</ele><time>2026-04-16T08:32:34.845Z</time></trkpt><trkpt lat="42.648635" lon="-8.265945"><ele>800.0</ele><time>2026-04-16T08:32:35.846Z</time></trkpt><trkpt lat="42.648525" lon="-8.2657933"><ele>800.0000000000001</ele><time>2026-04-16T08:32:36.846Z</time></trkpt><trkpt lat="42.648455" lon="-8.26569"><ele>800.0</ele><time>2026-04-16T08:32:37.846Z</time></trkpt><trkpt lat="42.6484533" lon="-8.2655833"><ele>800.0</ele><time>2026-04-16T08:32:40.846Z</time></trkpt><trkpt lat="42.64852" lon="-8.26548"><ele>800.0</ele><time>2026-04-16T08:32:42.845Z</time></trkpt><trkpt lat="42.6485467" lon="-8.2653967"><ele>800.0000000000001</ele><time>2026-04-16T08:32:43.845Z</time></trkpt><trkpt lat="42.6485783" lon="-8.265285"><ele>800.0</ele><time>2026-04-16T08:32:44.845Z</time></trkpt><trkpt lat="42.64861" lon="-8.26517"><ele>794.6</ele><time>2026-04-16T08:32:45.846Z</time></trkpt><trkpt lat="42.64865" lon="-8.2650483"><ele>789.2</ele><time>2026-04-16T08:32:46.845Z</time></trkpt><trkpt lat="42.6486833" lon="-8.26492"><ele>783.8</ele><time>2026-04-16T08:32:47.846Z</time></trkpt><trkpt lat="42.6487133" lon="-8.2648033"><ele>778.4</ele><time>2026-04-16T08:32:48.846Z</time></trkpt><trkpt lat="42.6487383" lon="-8.264685"><ele>773.0</ele><time>2026-04-16T08:32:49.845Z</time></trkpt><trkpt lat="42.6487517" lon="-8.2645633"><ele>771.6666666666667</ele><time>2026-04-16T08:32:50.845Z</time></trkpt><trkpt lat="42.6487633" lon="-8.2644567"><ele>770.3333333333334</ele><time>2026-04-16T08:32:51.845Z</time></trkpt><trkpt lat="42.6487683" lon="-8.2643533"><ele>769.0</ele><time>2026-04-16T08:32:52.846Z</time></trkpt><trkpt lat="42.6487433" lon="-8.2642067"><ele>767.6666666666667</ele><time>2026-04-16T08:32:54.845Z</time></trkpt><trkpt lat="42.6487267" lon="-8.2640817"><ele>766.3333333333334</ele><time>2026-04-16T08:32:56.846Z</time></trkpt><trkpt lat="42.6487683" lon="-8.26398"><ele>765.0</ele><time>2026-04-16T08:32:58.845Z</time></trkpt><trkpt lat="42.6488133" lon="-8.2639067"><ele>765.0</ele><time>2026-04-16T08:32:59.846Z</time></trkpt><trkpt lat="42.648875" lon="-8.2638083"><ele>765.0</ele><time>2026-04-16T08:33:00.846Z</time></trkpt><trkpt lat="42.6489533" lon="-8.26368"><ele>765.0</ele><time>2026-04-16T08:33:01.845Z</time></trkpt><trkpt lat="42.64902" lon="-8.2635367"><ele>765.0</ele><time>2026-04-16T08:33:02.845Z</time></trkpt><trkpt lat="42.649085" lon="-8.2633467"><ele>765.0</ele><time>2026-04-16T08:33:03.845Z</time></trkpt><trkpt lat="42.649145" lon="-8.26316"><ele>765.0</ele><time>2026-04-16T08:33:04.846Z</time></trkpt><trkpt lat="42.6491933" lon="-8.2629833"><ele>765.0</ele><time>2026-04-16T08:33:05.846Z</time></trkpt><trkpt lat="42.6492283" lon="-8.2628"><ele>765.0</ele><time>2026-04-16T08:33:06.846Z</time></trkpt><trkpt lat="42.64927" lon="-8.26261"><ele>766.0</ele><time>2026-04-16T08:33:07.846Z</time></trkpt><trkpt lat="42.6493133" lon="-8.2624167"><ele>767.0</ele><time>2026-04-16T08:33:08.846Z</time></trkpt><trkpt lat="42.6493583" lon="-8.2622283"><ele>768.0</ele><time>2026-04-16T08:33:09.845Z</time></trkpt><trkpt lat="42.6494133" lon="-8.262055"><ele>769.0</ele><time>2026-04-16T08:33:10.846Z</time></trkpt><trkpt lat="42.6494683" lon="-8.2619117"><ele>766.2</ele><time>2026-04-16T08:33:11.846Z</time></trkpt><trkpt lat="42.64953" lon="-8.26181"><ele>763.4000000000001</ele><time>2026-04-16T08:33:12.845Z</time></trkpt><trkpt lat="42.6496067" lon="-8.2617233"><ele>760.6</ele><time>2026-04-16T08:33:13.845Z</time></trkpt><trkpt lat="42.6497017" lon="-8.26165"><ele>757.8</ele><time>2026-04-16T08:33:14.845Z</time></trkpt><trkpt lat="42.6498117" lon="-8.2616"><ele>755.0</ele><time>2026-04-16T08:33:15.846Z</time></trkpt><trkpt lat="42.6499367" lon="-8.26156"><ele>755.0</ele><time>2026-04-16T08:33:16.845Z</time></trkpt><trkpt lat="42.6500767" lon="-8.2615267"><ele>755.0</ele><time>2026-04-16T08:33:17.845Z</time></trkpt><trkpt lat="42.6502383" lon="-8.26148"><ele>755.0</ele><time>2026-04-16T08:33:18.846Z</time></trkpt><trkpt lat="42.6504" lon="-8.2614117"><ele>750.0</ele><time>2026-04-16T08:33:19.845Z</time></trkpt><trkpt lat="42.6505433" lon="-8.2613417"><ele>745.0</ele><time>2026-04-16T08:33:20.845Z</time></trkpt><trkpt lat="42.65069" lon="-8.2612633"><ele>740.0</ele><time>2026-04-16T08:33:21.845Z</time></trkpt><trkpt lat="42.6508367" lon="-8.26118"><ele>740.0</ele><time>2026-04-16T08:33:22.846Z</time></trkpt><trkpt lat="42.6509733" lon="-8.2611067"><ele>740.0</ele><time>2026-04-16T08:33:23.845Z</time></trkpt><trkpt lat="42.651095" lon="-8.2610433"><ele>740.0</ele><time>2026-04-16T08:33:24.845Z</time></trkpt><trkpt lat="42.65122" lon="-8.2609917"><ele>740.0</ele><time>2026-04-16T08:33:25.846Z</time></trkpt><trkpt lat="42.651345" lon="-8.2609317"><ele>737.25</ele><time>2026-04-16T08:33:26.846Z</time></trkpt><trkpt lat="42.651465" lon="-8.260875"><ele>734.5</ele><time>2026-04-16T08:33:27.845Z</time></trkpt><trkpt lat="42.6515817" lon="-8.2608283"><ele>731.75</ele><time>2026-04-16T08:33:28.845Z</time></trkpt><trkpt lat="42.6517033" lon="-8.260785"><ele>729.0</ele><time>2026-04-16T08:33:29.846Z</time></trkpt><trkpt lat="42.6518317" lon="-8.2607317"><ele>724.0</ele><time>2026-04-16T08:33:30.846Z</time></trkpt><trkpt lat="42.6519717" lon="-8.2606733"><ele>719.0</ele><time>2026-04-16T08:33:31.845Z</time></trkpt><trkpt lat="42.6521167" lon="-8.260595"><ele>714.0</ele><time>2026-04-16T08:33:32.845Z</time></trkpt><trkpt lat="42.6522533" lon="-8.26052"><ele>714.0</ele><time>2026-04-16T08:33:33.845Z</time></trkpt><trkpt lat="42.6523883" lon="-8.2604533"><ele>714.0</ele><time>2026-04-16T08:33:34.845Z</time></trkpt><trkpt lat="42.6525033" lon="-8.2603983"><ele>714.0</ele><time>2026-04-16T08:33:35.845Z</time></trkpt><trkpt lat="42.6525933" lon="-8.2603267"><ele>714.0</ele><time>2026-04-16T08:33:36.846Z</time></trkpt><trkpt lat="42.6526567" lon="-8.26024"><ele>714.0</ele><time>2026-04-16T08:33:37.845Z</time></trkpt><trkpt lat="42.652685" lon="-8.2601217"><ele>714.0</ele><time>2026-04-16T08:33:38.846Z</time></trkpt><trkpt lat="42.6526817" lon="-8.259995"><ele>714.0</ele><time>2026-04-16T08:33:39.845Z</time></trkpt><trkpt lat="42.6526533" lon="-8.259865"><ele>714.0</ele><time>2026-04-16T08:33:40.845Z</time></trkpt><trkpt lat="42.6525967" lon="-8.2597617"><ele>714.0</ele><time>2026-04-16T08:33:41.846Z</time></trkpt><trkpt lat="42.652525" lon="-8.2596717"><ele>711.25</ele><time>2026-04-16T08:33:42.846Z</time></trkpt><trkpt lat="42.6524267" lon="-8.2596033"><ele>708.5</ele><time>2026-04-16T08:33:43.846Z</time></trkpt><trkpt lat="42.652325" lon="-8.2595633"><ele>705.75</ele><time>2026-04-16T08:33:44.845Z</time></trkpt><trkpt lat="42.6522067" lon="-8.2595367"><ele>703.0</ele><time>2026-04-16T08:33:45.845Z</time></trkpt><trkpt lat="42.6520717" lon="-8.2595117"><ele>703.5999999999999</ele><time>2026-04-16T08:33:46.845Z</time></trkpt><trkpt lat="42.6519467" lon="-8.2594917"><ele>704.1999999999999</ele><time>2026-04-16T08:33:47.845Z</time></trkpt><trkpt lat="42.651835" lon="-8.2594667"><ele>704.8</ele><time>2026-04-16T08:33:48.846Z</time></trkpt><trkpt lat="42.651745" lon="-8.2594183"><ele>705.4</ele><time>2026-04-16T08:33:49.845Z</time></trkpt><trkpt lat="42.65167" lon="-8.259345"><ele>706.0</ele><time>2026-04-16T08:33:50.846Z</time></trkpt><trkpt lat="42.6516083" lon="-8.2592583"><ele>706.0</ele><time>2026-04-16T08:33:51.845Z</time></trkpt><trkpt lat="42.6515833" lon="-8.2591683"><ele>706.0</ele><time>2026-04-16T08:33:52.846Z</time></trkpt><trkpt lat="42.6515983" lon="-8.2590667"><ele>706.0</ele><time>2026-04-16T08:33:53.845Z</time></trkpt><trkpt lat="42.6516483" lon="-8.25895"><ele>706.0</ele><time>2026-04-16T08:33:54.845Z</time></trkpt><trkpt lat="42.6517183" lon="-8.25882"><ele>706.0</ele><time>2026-04-16T08:33:55.845Z</time></trkpt><trkpt lat="42.6518267" lon="-8.2586583"><ele>704.3333333333334</ele><time>2026-04-16T08:33:56.846Z</time></trkpt><trkpt lat="42.65193" lon="-8.2585033"><ele>702.6666666666666</ele><time>2026-04-16T08:33:57.846Z</time></trkpt><trkpt lat="42.6520317" lon="-8.25835"><ele>701.0</ele><time>2026-04-16T08:33:58.846Z</time></trkpt><trkpt lat="42.6521383" lon="-8.2582033"><ele>697.5</ele><time>2026-04-16T08:33:59.846Z</time></trkpt><trkpt lat="42.6522433" lon="-8.25807"><ele>694.0</ele><time>2026-04-16T08:34:00.846Z</time></trkpt><trkpt lat="42.6523383" lon="-8.2579417"><ele>690.5</ele><time>2026-04-16T08:34:01.845Z</time></trkpt><trkpt lat="42.6524167" lon="-8.2578367"><ele>687.0</ele><time>2026-04-16T08:34:02.846Z</time></trkpt><trkpt lat="42.6524883" lon="-8.2577667"><ele>687.0</ele><time>2026-04-16T08:34:03.845Z</time></trkpt><trkpt lat="42.6525533" lon="-8.2577233"><ele>687.0</ele><time>2026-04-16T08:34:04.845Z</time></trkpt><trkpt lat="42.652625" lon="-8.2577083"><ele>687.0</ele><time>2026-04-16T08:34:05.846Z</time></trkpt><trkpt lat="42.652715" lon="-8.2577017"><ele>687.0</ele><time>2026-04-16T08:34:06.846Z</time></trkpt><trkpt lat="42.6528317" lon="-8.257695"><ele>687.0</ele><time>2026-04-16T08:34:07.845Z</time></trkpt><trkpt lat="42.6529567" lon="-8.2576717"><ele>684.75</ele><time>2026-04-16T08:34:08.845Z</time></trkpt><trkpt lat="42.6530767" lon="-8.2576367"><ele>682.5</ele><time>2026-04-16T08:34:09.846Z</time></trkpt><trkpt lat="42.6531967" lon="-8.2575917"><ele>680.25</ele><time>2026-04-16T08:34:10.846Z</time></trkpt><trkpt lat="42.6533033" lon="-8.2575383"><ele>678.0</ele><time>2026-04-16T08:34:11.845Z</time></trkpt><trkpt lat="42.6533867" lon="-8.2574733"><ele>678.0</ele><time>2026-04-16T08:34:12.846Z</time></trkpt><trkpt lat="42.6534533" lon="-8.2573883"><ele>678.0</ele><time>2026-04-16T08:34:13.845Z</time></trkpt><trkpt lat="42.65351" lon="-8.2573183"><ele>678.0</ele><time>2026-04-16T08:34:14.845Z</time></trkpt><trkpt lat="42.65357" lon="-8.257275"><ele>678.0</ele><time>2026-04-16T08:34:15.846Z</time></trkpt><trkpt lat="42.6536467" lon="-8.2572817"><ele>678.0</ele><time>2026-04-16T08:34:16.845Z</time></trkpt><trkpt lat="42.6537283" lon="-8.2573233"><ele>678.0</ele><time>2026-04-16T08:34:17.845Z</time></trkpt><trkpt lat="42.6538167" lon="-8.257385"><ele>676.25</ele><time>2026-04-16T08:34:18.846Z</time></trkpt><trkpt lat="42.6539183" lon="-8.2574683"><ele>674.5</ele><time>2026-04-16T08:34:19.846Z</time></trkpt><trkpt lat="42.654035" lon="-8.2575567"><ele>672.75</ele><time>2026-04-16T08:34:20.845Z</time></trkpt><trkpt lat="42.65415" lon="-8.257625"><ele>671.0</ele><time>2026-04-16T08:34:21.846Z</time></trkpt><trkpt lat="42.6542567" lon="-8.25768"><ele>671.0</ele><time>2026-04-16T08:34:22.846Z</time></trkpt><trkpt lat="42.65436" lon="-8.2577117"><ele>671.0</ele><time>2026-04-16T08:34:23.845Z</time></trkpt><trkpt lat="42.6544667" lon="-8.2577183"><ele>671.0</ele><time>2026-04-16T08:34:24.845Z</time></trkpt><trkpt lat="42.65459" lon="-8.2577233"><ele>671.0</ele><time>2026-04-16T08:34:25.846Z</time></trkpt><trkpt lat="42.654715" lon="-8.2577367"><ele>668.5999999999999</ele><time>2026-04-16T08:34:26.845Z</time></trkpt><trkpt lat="42.6548367" lon="-8.2577467"><ele>666.2</ele><time>2026-04-16T08:34:27.846Z</time></trkpt><trkpt lat="42.6549467" lon="-8.2577433"><ele>663.8</ele><time>2026-04-16T08:34:28.846Z</time></trkpt><trkpt lat="42.655045" lon="-8.2577167"><ele>661.4000000000001</ele><time>2026-04-16T08:34:29.845Z</time></trkpt><trkpt lat="42.6551217" lon="-8.2576417"><ele>659.0</ele><time>2026-04-16T08:34:30.845Z</time></trkpt><trkpt lat="42.65519" lon="-8.2575233"><ele>659.0</ele><time>2026-04-16T08:34:31.846Z</time></trkpt><trkpt lat="42.6552367" lon="-8.257365"><ele>659.0</ele><time>2026-04-16T08:34:32.845Z</time></trkpt><trkpt lat="42.6552583" lon="-8.257175"><ele>659.0</ele><time>2026-04-16T08:34:33.845Z</time></trkpt><trkpt lat="42.6552567" lon="-8.25698"><ele>659.0</ele><time>2026-04-16T08:34:34.846Z</time></trkpt><trkpt lat="42.65524" lon="-8.25682"><ele>658.2</ele><time>2026-04-16T08:34:35.846Z</time></trkpt><trkpt lat="42.6552167" lon="-8.2566933"><ele>657.4000000000001</ele><time>2026-04-16T08:34:36.845Z</time></trkpt><trkpt lat="42.6551683" lon="-8.2565867"><ele>656.6</ele><time>2026-04-16T08:34:37.845Z</time></trkpt><trkpt lat="42.6551067" lon="-8.2564733"><ele>655.8</ele><time>2026-04-16T08:34:38.846Z</time></trkpt><trkpt lat="42.6550483" lon="-8.2563833"><ele>655.0</ele><time>2026-04-16T08:34:39.845Z</time></trkpt><trkpt lat="42.654995" lon="-8.256295"><ele>652.8333333333334</ele><time>2026-04-16T08:34:40.846Z</time></trkpt><trkpt lat="42.65493" lon="-8.2562233"><ele>650.6666666666667</ele><time>2026-04-16T08:34:41.845Z</time></trkpt><trkpt lat="42.6548617" lon="-8.25616"><ele>648.5</ele><time>2026-04-16T08:34:42.846Z</time></trkpt><trkpt lat="42.6547967" lon="-8.2560867"><ele>646.3333333333334</ele><time>2026-04-16T08:34:43.846Z</time></trkpt><trkpt lat="42.6547283" lon="-8.2560167"><ele>644.1666666666666</ele><time>2026-04-16T08:34:44.845Z</time></trkpt><trkpt lat="42.6546517" lon="-8.2559467"><ele>642.0</ele><time>2026-04-16T08:34:45.845Z</time></trkpt><trkpt lat="42.65456" lon="-8.2558767"><ele>642.0</ele><time>2026-04-16T08:34:46.846Z</time></trkpt><trkpt lat="42.65446" lon="-8.2557983"><ele>642.0</ele><time>2026-04-16T08:34:47.846Z</time></trkpt><trkpt lat="42.6543533" lon="-8.25572"><ele>642.0</ele><time>2026-04-16T08:34:48.845Z</time></trkpt><trkpt lat="42.6542383" lon="-8.255655"><ele>642.0</ele><time>2026-04-16T08:34:49.846Z</time></trkpt><trkpt lat="42.6541167" lon="-8.2556"><ele>642.25</ele><time>2026-04-16T08:34:50.845Z</time></trkpt><trkpt lat="42.6539833" lon="-8.2555583"><ele>642.5</ele><time>2026-04-16T08:34:51.846Z</time></trkpt><trkpt lat="42.6538483" lon="-8.255535"><ele>642.75</ele><time>2026-04-16T08:34:52.846Z</time></trkpt><trkpt lat="42.6537367" lon="-8.255525"><ele>643.0</ele><time>2026-04-16T08:34:53.845Z</time></trkpt><trkpt lat="42.653655" lon="-8.255515"><ele>645.8</ele><time>2026-04-16T08:34:54.846Z</time></trkpt><trkpt lat="42.6535483" lon="-8.2554733"><ele>648.5999999999999</ele><time>2026-04-16T08:34:56.846Z</time></trkpt><trkpt lat="42.6535183" lon="-8.255385"><ele>651.4000000000001</ele><time>2026-04-16T08:34:58.845Z</time></trkpt><trkpt lat="42.65353" lon="-8.2552717"><ele>654.2</ele><time>2026-04-16T08:35:00.846Z</time></trkpt><trkpt lat="42.653545" lon="-8.2551233"><ele>657.0</ele><time>2026-04-16T08:35:02.845Z</time></trkpt><trkpt lat="42.65356" lon="-8.2550067"><ele>651.3333333333334</ele><time>2026-04-16T08:35:03.846Z</time></trkpt><trkpt lat="42.653645" lon="-8.2547783"><ele>645.6666666666667</ele><time>2026-04-16T08:35:04.846Z</time></trkpt><trkpt lat="42.6536583" lon="-8.2545583"><ele>640.0</ele><time>2026-04-16T08:35:05.845Z</time></trkpt><trkpt lat="42.6536667" lon="-8.25435"><ele>640.0</ele><time>2026-04-16T08:35:06.845Z</time></trkpt><trkpt lat="42.6536517" lon="-8.2541567"><ele>640.0</ele><time>2026-04-16T08:35:07.846Z</time></trkpt><trkpt lat="42.6536367" lon="-8.2539417"><ele>640.0</ele><time>2026-04-16T08:35:08.846Z</time></trkpt><trkpt lat="42.653655" lon="-8.2536817"><ele>639.0</ele><time>2026-04-16T08:35:09.845Z</time></trkpt><trkpt lat="42.6536367" lon="-8.2534583"><ele>638.0</ele><time>2026-04-16T08:35:10.846Z</time></trkpt><trkpt lat="42.6536317" lon="-8.2532517"><ele>637.0</ele><time>2026-04-16T08:35:11.846Z</time></trkpt><trkpt lat="42.653645" lon="-8.2530683"><ele>639.0</ele><time>2026-04-16T08:35:12.846Z</time></trkpt><trkpt lat="42.65368" lon="-8.2529267"><ele>641.0</ele><time>2026-04-16T08:35:13.845Z</time></trkpt><trkpt lat="42.6537117" lon="-8.2528233"><ele>643.0</ele><time>2026-04-16T08:35:14.846Z</time></trkpt><trkpt lat="42.6537617" lon="-8.2527267"><ele>645.0</ele><time>2026-04-16T08:35:15.846Z</time></trkpt><trkpt lat="42.653835" lon="-8.2526333"><ele>647.0</ele><time>2026-04-16T08:35:16.846Z</time></trkpt><trkpt lat="42.653925" lon="-8.25255"><ele>647.0</ele><time>2026-04-16T08:35:17.845Z</time></trkpt><trkpt lat="42.6540617" lon="-8.25245"><ele>647.0</ele><time>2026-04-16T08:35:18.845Z</time></trkpt><trkpt lat="42.6542283" lon="-8.2523383"><ele>647.0</ele><time>2026-04-16T08:35:19.845Z</time></trkpt><trkpt lat="42.6544033" lon="-8.2522033"><ele>647.6666666666666</ele><time>2026-04-16T08:35:20.846Z</time></trkpt><trkpt lat="42.654565" lon="-8.2520783"><ele>648.3333333333334</ele><time>2026-04-16T08:35:21.845Z</time></trkpt><trkpt lat="42.654715" lon="-8.2519583"><ele>649.0</ele><time>2026-04-16T08:35:22.845Z</time></trkpt><trkpt lat="42.654855" lon="-8.2518533"><ele>649.0</ele><time>2026-04-16T08:35:23.846Z</time></trkpt><trkpt lat="42.65496" lon="-8.2517567"><ele>649.0</ele><time>2026-04-16T08:35:24.846Z</time></trkpt><trkpt lat="42.6550567" lon="-8.25166"><ele>649.0</ele><time>2026-04-16T08:35:25.846Z</time></trkpt><trkpt lat="42.65515" lon="-8.2515633"><ele>649.0</ele><time>2026-04-16T08:35:26.845Z</time></trkpt><trkpt lat="42.65526" lon="-8.2514517"><ele>648.0</ele><time>2026-04-16T08:35:27.846Z</time></trkpt><trkpt lat="42.6553667" lon="-8.251345"><ele>647.0</ele><time>2026-04-16T08:35:28.846Z</time></trkpt><trkpt lat="42.6554767" lon="-8.251245"><ele>646.0</ele><time>2026-04-16T08:35:29.845Z</time></trkpt><trkpt lat="42.6555883" lon="-8.2511483"><ele>645.0</ele><time>2026-04-16T08:35:30.845Z</time></trkpt><trkpt lat="42.6556867" lon="-8.25106"><ele>645.0</ele><time>2026-04-16T08:35:31.846Z</time></trkpt><trkpt lat="42.65579" lon="-8.2509567"><ele>645.0</ele><time>2026-04-16T08:35:32.845Z</time></trkpt><trkpt lat="42.6559" lon="-8.250855"><ele>645.0</ele><time>2026-04-16T08:35:33.845Z</time></trkpt><trkpt lat="42.656025" lon="-8.2507483"><ele>645.0</ele><time>2026-04-16T08:35:34.845Z</time></trkpt><trkpt lat="42.6561583" lon="-8.2506317"><ele>645.3333333333334</ele><time>2026-04-16T08:35:35.845Z</time></trkpt><trkpt lat="42.6562967" lon="-8.2505233"><ele>645.6666666666667</ele><time>2026-04-16T08:35:36.845Z</time></trkpt><trkpt lat="42.6564283" lon="-8.2504017"><ele>646.0</ele><time>2026-04-16T08:35:37.845Z</time></trkpt><trkpt lat="42.656565" lon="-8.2502567"><ele>646.0</ele><time>2026-04-16T08:35:38.845Z</time></trkpt><trkpt lat="42.6566917" lon="-8.2500983"><ele>646.0</ele><time>2026-04-16T08:35:39.846Z</time></trkpt><trkpt lat="42.656815" lon="-8.2499283"><ele>646.0</ele><time>2026-04-16T08:35:40.846Z</time></trkpt><trkpt lat="42.6569017" lon="-8.2497383"><ele>645.0</ele><time>2026-04-16T08:35:41.846Z</time></trkpt><trkpt lat="42.6569767" lon="-8.249545"><ele>644.0</ele><time>2026-04-16T08:35:42.845Z</time></trkpt><trkpt lat="42.6570433" lon="-8.2493433"><ele>643.0</ele><time>2026-04-16T08:35:43.846Z</time></trkpt><trkpt lat="42.6570967" lon="-8.24915"><ele>643.0</ele><time>2026-04-16T08:35:44.846Z</time></trkpt><trkpt lat="42.6571483" lon="-8.2489717"><ele>643.0</ele><time>2026-04-16T08:35:45.847Z</time></trkpt><trkpt lat="42.6572083" lon="-8.2488133"><ele>643.0</ele><time>2026-04-16T08:35:46.847Z</time></trkpt><trkpt lat="42.6572683" lon="-8.2486767"><ele>643.0</ele><time>2026-04-16T08:35:47.846Z</time></trkpt><trkpt lat="42.65731" lon="-8.24856"><ele>641.5</ele><time>2026-04-16T08:35:48.847Z</time></trkpt><trkpt lat="42.6573367" lon="-8.2484467"><ele>640.0</ele><time>2026-04-16T08:35:49.847Z</time></trkpt><trkpt lat="42.65732" lon="-8.2483483"><ele>638.5</ele><time>2026-04-16T08:35:50.847Z</time></trkpt><trkpt lat="42.6572933" lon="-8.2482283"><ele>637.0</ele><time>2026-04-16T08:35:51.846Z</time></trkpt><trkpt lat="42.6572633" lon="-8.248095"><ele>635.5</ele><time>2026-04-16T08:35:52.847Z</time></trkpt><trkpt lat="42.657245" lon="-8.2479833"><ele>634.0</ele><time>2026-04-16T08:35:53.846Z</time></trkpt><trkpt lat="42.6572567" lon="-8.2478517"><ele>632.3333333333334</ele><time>2026-04-16T08:35:55.846Z</time></trkpt><trkpt lat="42.65735" lon="-8.24784"><ele>630.6666666666667</ele><time>2026-04-16T08:35:57.846Z</time></trkpt><trkpt lat="42.657425" lon="-8.2478383"><ele>629.0</ele><time>2026-04-16T08:35:58.846Z</time></trkpt><trkpt lat="42.6575033" lon="-8.2478133"><ele>627.3333333333334</ele><time>2026-04-16T08:35:59.846Z</time></trkpt><trkpt lat="42.657565" lon="-8.2477433"><ele>625.6666666666666</ele><time>2026-04-16T08:36:00.847Z</time></trkpt><trkpt lat="42.657615" lon="-8.2476167"><ele>624.0</ele><time>2026-04-16T08:36:01.847Z</time></trkpt><trkpt lat="42.6576417" lon="-8.24743"><ele>622.0</ele><time>2026-04-16T08:36:02.847Z</time></trkpt><trkpt lat="42.6576817" lon="-8.2471633"><ele>620.0</ele><time>2026-04-16T08:36:03.847Z</time></trkpt><trkpt lat="42.6577217" lon="-8.24686"><ele>618.0</ele><time>2026-04-16T08:36:04.847Z</time></trkpt><trkpt lat="42.65776" lon="-8.2465767"><ele>609.3333333333334</ele><time>2026-04-16T08:36:05.847Z</time></trkpt><trkpt lat="42.6577883" lon="-8.2463233"><ele>600.6666666666667</ele><time>2026-04-16T08:36:06.846Z</time></trkpt><trkpt lat="42.6578083" lon="-8.24608"><ele>592.0</ele><time>2026-04-16T08:36:07.846Z</time></trkpt><trkpt lat="42.6578333" lon="-8.2458633"><ele>592.0</ele><time>2026-04-16T08:36:08.846Z</time></trkpt><trkpt lat="42.6578667" lon="-8.2456633"><ele>592.0</ele><time>2026-04-16T08:36:09.846Z</time></trkpt><trkpt lat="42.6579167" lon="-8.2454767"><ele>592.0</ele><time>2026-04-16T08:36:10.846Z</time></trkpt><trkpt lat="42.6579783" lon="-8.2452967"><ele>592.0</ele><time>2026-04-16T08:36:11.847Z</time></trkpt><trkpt lat="42.6580183" lon="-8.2451317"><ele>590.0</ele><time>2026-04-16T08:36:12.847Z</time></trkpt><trkpt lat="42.6580517" lon="-8.244955"><ele>588.0</ele><time>2026-04-16T08:36:13.846Z</time></trkpt><trkpt lat="42.6580717" lon="-8.2447483"><ele>586.0</ele><time>2026-04-16T08:36:14.846Z</time></trkpt><trkpt lat="42.65808" lon="-8.244515"><ele>584.0</ele><time>2026-04-16T08:36:15.847Z</time></trkpt><trkpt lat="42.6580817" lon="-8.2442617"><ele>582.0</ele><time>2026-04-16T08:36:16.847Z</time></trkpt><trkpt lat="42.65808" lon="-8.2440017"><ele>580.0</ele><time>2026-04-16T08:36:17.846Z</time></trkpt><trkpt lat="42.6580933" lon="-8.2437583"><ele>577.5</ele><time>2026-04-16T08:36:18.846Z</time></trkpt><trkpt lat="42.6580933" lon="-8.2435667"><ele>575.0</ele><time>2026-04-16T08:36:19.847Z</time></trkpt><trkpt lat="42.65807" lon="-8.243395"><ele>572.5</ele><time>2026-04-16T08:36:20.846Z</time></trkpt><trkpt lat="42.6580083" lon="-8.24325"><ele>570.0</ele><time>2026-04-16T08:36:21.847Z</time></trkpt><trkpt lat="42.6579167" lon="-8.2430983"><ele>571.5</ele><time>2026-04-16T08:36:22.846Z</time></trkpt><trkpt lat="42.6578283" lon="-8.2429433"><ele>573.0</ele><time>2026-04-16T08:36:23.846Z</time></trkpt><trkpt lat="42.6577367" lon="-8.2427933"><ele>574.5</ele><time>2026-04-16T08:36:24.846Z</time></trkpt><trkpt lat="42.65765" lon="-8.2426367"><ele>576.0</ele><time>2026-04-16T08:36:25.846Z</time></trkpt><trkpt lat="42.657575" lon="-8.2424883"><ele>576.0</ele><time>2026-04-16T08:36:26.847Z</time></trkpt><trkpt lat="42.657525" lon="-8.2423583"><ele>576.0</ele><time>2026-04-16T08:36:27.847Z</time></trkpt><trkpt lat="42.65749" lon="-8.2422467"><ele>576.0</ele><time>2026-04-16T08:36:28.847Z</time></trkpt><trkpt lat="42.6574183" lon="-8.2421267"><ele>576.0</ele><time>2026-04-16T08:36:30.846Z</time></trkpt><trkpt lat="42.6572867" lon="-8.2420933"><ele>576.0</ele><time>2026-04-16T08:36:32.847Z</time></trkpt><trkpt lat="42.6571917" lon="-8.24206"><ele>575.2</ele><time>2026-04-16T08:36:33.847Z</time></trkpt><trkpt lat="42.6570883" lon="-8.24203"><ele>574.4000000000001</ele><time>2026-04-16T08:36:34.847Z</time></trkpt><trkpt lat="42.65699" lon="-8.2419967"><ele>573.6</ele><time>2026-04-16T08:36:35.846Z</time></trkpt><trkpt lat="42.6569" lon="-8.241945"><ele>572.8000000000001</ele><time>2026-04-16T08:36:36.847Z</time></trkpt><trkpt lat="42.6568567" lon="-8.2418233"><ele>572.0</ele><time>2026-04-16T08:36:37.847Z</time></trkpt><trkpt lat="42.6568017" lon="-8.2416867"><ele>572.0</ele><time>2026-04-16T08:36:38.846Z</time></trkpt><trkpt lat="42.6567283" lon="-8.2415233"><ele>572.0</ele><time>2026-04-16T08:36:39.847Z</time></trkpt><trkpt lat="42.65665" lon="-8.241355"><ele>572.0</ele><time>2026-04-16T08:36:40.847Z</time></trkpt><trkpt lat="42.6565667" lon="-8.2412133"><ele>572.0</ele><time>2026-04-16T08:36:41.847Z</time></trkpt><trkpt lat="42.6564733" lon="-8.2411167"><ele>572.0</ele><time>2026-04-16T08:36:42.847Z</time></trkpt><trkpt lat="42.6563567" lon="-8.24107"><ele>572.0</ele><time>2026-04-16T08:36:43.846Z</time></trkpt><trkpt lat="42.6562333" lon="-8.24106"><ele>572.0</ele><time>2026-04-16T08:36:44.846Z</time></trkpt><trkpt lat="42.6561233" lon="-8.2410833"><ele>572.0</ele><time>2026-04-16T08:36:45.846Z</time></trkpt><trkpt lat="42.6560467" lon="-8.2411367"><ele>572.0</ele><time>2026-04-16T08:36:46.847Z</time></trkpt><trkpt lat="42.655985" lon="-8.2411917"><ele>572.0</ele><time>2026-04-16T08:36:47.846Z</time></trkpt><trkpt lat="42.655935" lon="-8.241245"><ele>572.0</ele><time>2026-04-16T08:36:49.846Z</time></trkpt><trkpt lat="42.6558317" lon="-8.2412717"><ele>572.0</ele><time>2026-04-16T08:36:53.847Z</time></trkpt><trkpt lat="42.6557617" lon="-8.2412833"><ele>572.0</ele><time>2026-04-16T08:36:54.847Z</time></trkpt><trkpt lat="42.6556633" lon="-8.2412917"><ele>572.0</ele><time>2026-04-16T08:36:55.847Z</time></trkpt><trkpt lat="42.655545" lon="-8.24129"><ele>572.0</ele><time>2026-04-16T08:36:56.847Z</time></trkpt><trkpt lat="42.6554333" lon="-8.2412917"><ele>572.0</ele><time>2026-04-16T08:36:57.846Z</time></trkpt><trkpt lat="42.6553233" lon="-8.2413117"><ele>572.0</ele><time>2026-04-16T08:36:58.847Z</time></trkpt><trkpt lat="42.65521" lon="-8.2413617"><ele>572.0</ele><time>2026-04-16T08:36:59.846Z</time></trkpt><trkpt lat="42.65511" lon="-8.2414533"><ele>576.0</ele><time>2026-04-16T08:37:00.847Z</time></trkpt><trkpt lat="42.6549933" lon="-8.24158"><ele>580.0</ele><time>2026-04-16T08:37:01.846Z</time></trkpt><trkpt lat="42.6548833" lon="-8.2417133"><ele>584.0</ele><time>2026-04-16T08:37:02.847Z</time></trkpt><trkpt lat="42.65479" lon="-8.2418417"><ele>588.0</ele><time>2026-04-16T08:37:03.847Z</time></trkpt><trkpt lat="42.6547033" lon="-8.2419333"><ele>588.0</ele><time>2026-04-16T08:37:04.846Z</time></trkpt><trkpt lat="42.65462" lon="-8.2419917"><ele>588.0</ele><time>2026-04-16T08:37:05.846Z</time></trkpt><trkpt lat="42.6545383" lon="-8.2419967"><ele>588.0</ele><time>2026-04-16T08:37:06.847Z</time></trkpt><trkpt lat="42.6544783" lon="-8.241935"><ele>588.0</ele><time>2026-04-16T08:37:07.846Z</time></trkpt><trkpt lat="42.6544233" lon="-8.2418283"><ele>588.0</ele><time>2026-04-16T08:37:08.846Z</time></trkpt><trkpt lat="42.6543683" lon="-8.2416867"><ele>587.0</ele><time>2026-04-16T08:37:09.846Z</time></trkpt><trkpt lat="42.6543183" lon="-8.2415317"><ele>586.0</ele><time>2026-04-16T08:37:10.846Z</time></trkpt><trkpt lat="42.6542583" lon="-8.2414333"><ele>585.0</ele><time>2026-04-16T08:37:11.847Z</time></trkpt><trkpt lat="42.6542" lon="-8.2413467"><ele>584.0</ele><time>2026-04-16T08:37:12.846Z</time></trkpt><trkpt lat="42.654125" lon="-8.2412633"><ele>583.0</ele><time>2026-04-16T08:37:13.846Z</time></trkpt><trkpt lat="42.654035" lon="-8.2412017"><ele>583.0</ele><time>2026-04-16T08:37:14.847Z</time></trkpt><trkpt lat="42.65395" lon="-8.241155"><ele>583.0</ele><time>2026-04-16T08:37:15.846Z</time></trkpt><trkpt lat="42.6538683" lon="-8.24111"><ele>583.0</ele><time>2026-04-16T08:37:16.847Z</time></trkpt><trkpt lat="42.6538067" lon="-8.2410517"><ele>583.0</ele><time>2026-04-16T08:37:17.846Z</time></trkpt><trkpt lat="42.6537383" lon="-8.2409233"><ele>583.0</ele><time>2026-04-16T08:37:19.846Z</time></trkpt><trkpt lat="42.6537317" lon="-8.2408317"><ele>583.0</ele><time>2026-04-16T08:37:20.847Z</time></trkpt><trkpt lat="42.6537317" lon="-8.2407267"><ele>581.5</ele><time>2026-04-16T08:37:21.846Z</time></trkpt><trkpt lat="42.6537617" lon="-8.2405733"><ele>580.0</ele><time>2026-04-16T08:37:22.846Z</time></trkpt><trkpt lat="42.6537717" lon="-8.240415"><ele>578.5</ele><time>2026-04-16T08:37:23.847Z</time></trkpt><trkpt lat="42.6537433" lon="-8.240265"><ele>577.0</ele><time>2026-04-16T08:37:24.847Z</time></trkpt><trkpt lat="42.6537" lon="-8.2401267"><ele>577.0</ele><time>2026-04-16T08:37:25.847Z</time></trkpt><trkpt lat="42.653655" lon="-8.2400383"><ele>577.0</ele><time>2026-04-16T08:37:26.847Z</time></trkpt><trkpt lat="42.6535767" lon="-8.23998"><ele>577.0</ele><time>2026-04-16T08:37:28.847Z</time></trkpt><trkpt lat="42.6534683" lon="-8.2399867"><ele>577.0</ele><time>2026-04-16T08:37:30.847Z</time></trkpt><trkpt lat="42.6534" lon="-8.23996"><ele>577.0</ele><time>2026-04-16T08:37:31.846Z</time></trkpt><trkpt lat="42.6533333" lon="-8.2399167"><ele>577.0</ele><time>2026-04-16T08:37:32.846Z</time></trkpt><trkpt lat="42.6532733" lon="-8.2398667"><ele>576.6666666666667</ele><time>2026-04-16T08:37:33.847Z</time></trkpt><trkpt lat="42.6532133" lon="-8.2398"><ele>576.3333333333334</ele><time>2026-04-16T08:37:34.846Z</time></trkpt><trkpt lat="42.6531567" lon="-8.23971"><ele>576.0</ele><time>2026-04-16T08:37:35.846Z</time></trkpt><trkpt lat="42.6531133" lon="-8.2395967"><ele>575.6666666666666</ele><time>2026-04-16T08:37:36.847Z</time></trkpt><trkpt lat="42.6530817" lon="-8.2394833"><ele>575.3333333333333</ele><time>2026-04-16T08:37:37.846Z</time></trkpt><trkpt lat="42.6530733" lon="-8.239355"><ele>575.0</ele><time>2026-04-16T08:37:38.846Z</time></trkpt><trkpt lat="42.653105" lon="-8.2392133"><ele>575.0</ele><time>2026-04-16T08:37:39.847Z</time></trkpt><trkpt lat="42.6531467" lon="-8.2390683"><ele>575.0</ele><time>2026-04-16T08:37:40.847Z</time></trkpt><trkpt lat="42.6531833" lon="-8.2388967"><ele>575.0</ele><time>2026-04-16T08:37:41.846Z</time></trkpt><trkpt lat="42.6531933" lon="-8.2387433"><ele>575.0</ele><time>2026-04-16T08:37:42.846Z</time></trkpt><trkpt lat="42.6532033" lon="-8.2386017"><ele>573.8</ele><time>2026-04-16T08:37:43.847Z</time></trkpt><trkpt lat="42.65321" lon="-8.2384683"><ele>572.6</ele><time>2026-04-16T08:37:44.847Z</time></trkpt><trkpt lat="42.65323" lon="-8.2383567"><ele>571.4</ele><time>2026-04-16T08:37:45.846Z</time></trkpt><trkpt lat="42.6532683" lon="-8.2382433"><ele>570.2</ele><time>2026-04-16T08:37:46.846Z</time></trkpt><trkpt lat="42.6533267" lon="-8.238135"><ele>569.0</ele><time>2026-04-16T08:37:47.846Z</time></trkpt><trkpt lat="42.6533917" lon="-8.238025"><ele>568.3333333333333</ele><time>2026-04-16T08:37:48.847Z</time></trkpt><trkpt lat="42.6534533" lon="-8.237915"><ele>567.6666666666666</ele><time>2026-04-16T08:37:49.847Z</time></trkpt><trkpt lat="42.6535133" lon="-8.2378167"><ele>567.0</ele><time>2026-04-16T08:37:50.847Z</time></trkpt><trkpt lat="42.653565" lon="-8.2377283"><ele>566.3333333333334</ele><time>2026-04-16T08:37:51.846Z</time></trkpt><trkpt lat="42.6536183" lon="-8.2376433"><ele>565.6666666666667</ele><time>2026-04-16T08:37:52.847Z</time></trkpt><trkpt lat="42.653675" lon="-8.2375667"><ele>565.0</ele><time>2026-04-16T08:37:53.847Z</time></trkpt><trkpt lat="42.6537517" lon="-8.2375083"><ele>562.1666666666667</ele><time>2026-04-16T08:37:54.847Z</time></trkpt><trkpt lat="42.65382" lon="-8.2374383"><ele>559.3333333333334</ele><time>2026-04-16T08:37:55.846Z</time></trkpt><trkpt lat="42.65388" lon="-8.2373567"><ele>556.5</ele><time>2026-04-16T08:37:56.846Z</time></trkpt><trkpt lat="42.6539283" lon="-8.2372583"><ele>553.6666666666666</ele><time>2026-04-16T08:37:57.846Z</time></trkpt><trkpt lat="42.6539683" lon="-8.2371533"><ele>550.8333333333333</ele><time>2026-04-16T08:37:58.846Z</time></trkpt><trkpt lat="42.653995" lon="-8.2370433"><ele>548.0</ele><time>2026-04-16T08:37:59.847Z</time></trkpt><trkpt lat="42.6540117" lon="-8.236925"><ele>547.3333333333333</ele><time>2026-04-16T08:38:00.846Z</time></trkpt><trkpt lat="42.65401" lon="-8.2368067"><ele>546.6666666666666</ele><time>2026-04-16T08:38:01.846Z</time></trkpt><trkpt lat="42.653985" lon="-8.236715"><ele>546.0</ele><time>2026-04-16T08:38:02.847Z</time></trkpt><trkpt lat="42.6539083" lon="-8.2366217"><ele>545.3333333333334</ele><time>2026-04-16T08:38:05.847Z</time></trkpt><trkpt lat="42.6538483" lon="-8.2365833"><ele>544.6666666666667</ele><time>2026-04-16T08:38:06.846Z</time></trkpt><trkpt lat="42.653765" lon="-8.2365483"><ele>544.0</ele><time>2026-04-16T08:38:07.846Z</time></trkpt><trkpt lat="42.6536783" lon="-8.236505"><ele>544.75</ele><time>2026-04-16T08:38:08.847Z</time></trkpt><trkpt lat="42.6535767" lon="-8.2364533"><ele>545.5</ele><time>2026-04-16T08:38:09.846Z</time></trkpt><trkpt lat="42.6534633" lon="-8.23639"><ele>546.25</ele><time>2026-04-16T08:38:10.847Z</time></trkpt><trkpt lat="42.6533333" lon="-8.23633"><ele>547.0</ele><time>2026-04-16T08:38:11.847Z</time></trkpt><trkpt lat="42.6532033" lon="-8.2362817"><ele>547.0</ele><time>2026-04-16T08:38:12.847Z</time></trkpt><trkpt lat="42.6530733" lon="-8.2362383"><ele>547.0</ele><time>2026-04-16T08:38:13.846Z</time></trkpt><trkpt lat="42.6529467" lon="-8.2362"><ele>547.0</ele><time>2026-04-16T08:38:14.846Z</time></trkpt><trkpt lat="42.652815" lon="-8.2361633"><ele>547.0</ele><time>2026-04-16T08:38:15.846Z</time></trkpt><trkpt lat="42.6526733" lon="-8.2361267"><ele>549.25</ele><time>2026-04-16T08:38:16.847Z</time></trkpt><trkpt lat="42.6525417" lon="-8.2360883"><ele>551.5</ele><time>2026-04-16T08:38:17.847Z</time></trkpt><trkpt lat="42.652435" lon="-8.23606"><ele>553.75</ele><time>2026-04-16T08:38:18.846Z</time></trkpt><trkpt lat="42.6523367" lon="-8.2360483"><ele>556.0</ele><time>2026-04-16T08:38:19.846Z</time></trkpt><trkpt lat="42.6522217" lon="-8.2360383"><ele>556.0</ele><time>2026-04-16T08:38:20.846Z</time></trkpt><trkpt lat="42.652095" lon="-8.2360317"><ele>556.0</ele><time>2026-04-16T08:38:21.847Z</time></trkpt><trkpt lat="42.6519683" lon="-8.23602"><ele>556.0</ele><time>2026-04-16T08:38:22.847Z</time></trkpt><trkpt lat="42.651845" lon="-8.236025"><ele>556.0</ele><time>2026-04-16T08:38:23.847Z</time></trkpt><trkpt lat="42.651715" lon="-8.2360417"><ele>557.25</ele><time>2026-04-16T08:38:24.847Z</time></trkpt><trkpt lat="42.65159" lon="-8.236075"><ele>558.5</ele><time>2026-04-16T08:38:25.846Z</time></trkpt><trkpt lat="42.6514833" lon="-8.23611"><ele>559.75</ele><time>2026-04-16T08:38:26.846Z</time></trkpt><trkpt lat="42.65138" lon="-8.236145"><ele>561.0</ele><time>2026-04-16T08:38:27.846Z</time></trkpt><trkpt lat="42.6512717" lon="-8.2362133"><ele>561.0</ele><time>2026-04-16T08:38:28.846Z</time></trkpt><trkpt lat="42.65116" lon="-8.236285"><ele>561.0</ele><time>2026-04-16T08:38:29.846Z</time></trkpt><trkpt lat="42.6510483" lon="-8.2363433"><ele>561.0</ele><time>2026-04-16T08:38:30.846Z</time></trkpt><trkpt lat="42.65094" lon="-8.2363817"><ele>561.0</ele><time>2026-04-16T08:38:31.846Z</time></trkpt><trkpt lat="42.650845" lon="-8.2363983"><ele>561.6</ele><time>2026-04-16T08:38:32.846Z</time></trkpt><trkpt lat="42.650745" lon="-8.2363833"><ele>562.2</ele><time>2026-04-16T08:38:33.847Z</time></trkpt><trkpt lat="42.6506533" lon="-8.23634"><ele>562.8</ele><time>2026-04-16T08:38:34.847Z</time></trkpt><trkpt lat="42.6505467" lon="-8.2362733"><ele>563.4</ele><time>2026-04-16T08:38:35.846Z</time></trkpt><trkpt lat="42.650435" lon="-8.2362133"><ele>564.0</ele><time>2026-04-16T08:38:36.846Z</time></trkpt><trkpt lat="42.65033" lon="-8.2361717"><ele>567.25</ele><time>2026-04-16T08:38:37.847Z</time></trkpt><trkpt lat="42.6502117" lon="-8.2361433"><ele>570.5</ele><time>2026-04-16T08:38:38.846Z</time></trkpt><trkpt lat="42.65009" lon="-8.236125"><ele>573.75</ele><time>2026-04-16T08:38:39.846Z</time></trkpt><trkpt lat="42.64997" lon="-8.236125"><ele>577.0</ele><time>2026-04-16T08:38:40.847Z</time></trkpt><trkpt lat="42.649855" lon="-8.2361333"><ele>577.0</ele><time>2026-04-16T08:38:41.846Z</time></trkpt><trkpt lat="42.6497517" lon="-8.2361467"><ele>577.0</ele><time>2026-04-16T08:38:42.846Z</time></trkpt><trkpt lat="42.6496667" lon="-8.236145"><ele>577.0</ele><time>2026-04-16T08:38:43.846Z</time></trkpt><trkpt lat="42.6495867" lon="-8.236115"><ele>577.0</ele><time>2026-04-16T08:38:44.846Z</time></trkpt><trkpt lat="42.6494967" lon="-8.2360667"><ele>577.0</ele><time>2026-04-16T08:38:45.847Z</time></trkpt><trkpt lat="42.649395" lon="-8.23602"><ele>580.0</ele><time>2026-04-16T08:38:46.847Z</time></trkpt><trkpt lat="42.6492933" lon="-8.235975"><ele>583.0</ele><time>2026-04-16T08:38:47.846Z</time></trkpt><trkpt lat="42.6492067" lon="-8.2359483"><ele>586.0</ele><time>2026-04-16T08:38:48.847Z</time></trkpt><trkpt lat="42.6491267" lon="-8.2359333"><ele>589.0</ele><time>2026-04-16T08:38:49.846Z</time></trkpt><trkpt lat="42.6490433" lon="-8.2359233"><ele>592.0</ele><time>2026-04-16T08:38:50.846Z</time></trkpt><trkpt lat="42.6489567" lon="-8.2359067"><ele>595.0</ele><time>2026-04-16T08:38:51.846Z</time></trkpt><trkpt lat="42.6488683" lon="-8.2358833"><ele>595.0</ele><time>2026-04-16T08:38:52.846Z</time></trkpt><trkpt lat="42.6487683" lon="-8.2358583"><ele>595.0</ele><time>2026-04-16T08:38:53.847Z</time></trkpt><trkpt lat="42.6486633" lon="-8.2358383"><ele>595.0</ele><time>2026-04-16T08:38:54.846Z</time></trkpt><trkpt lat="42.6485583" lon="-8.2358117"><ele>595.0</ele><time>2026-04-16T08:38:55.846Z</time></trkpt><trkpt lat="42.648465" lon="-8.23577"><ele>595.0</ele><time>2026-04-16T08:38:56.846Z</time></trkpt><trkpt lat="42.6483883" lon="-8.2357183"><ele>597.5</ele><time>2026-04-16T08:38:57.847Z</time></trkpt><trkpt lat="42.64831" lon="-8.23566"><ele>600.0</ele><time>2026-04-16T08:38:58.846Z</time></trkpt><trkpt lat="42.648265" lon="-8.2355983"><ele>602.5</ele><time>2026-04-16T08:38:59.846Z</time></trkpt><trkpt lat="42.6482083" lon="-8.2355467"><ele>605.0</ele><time>2026-04-16T08:39:01.847Z</time></trkpt><trkpt lat="42.6481533" lon="-8.2356383"><ele>607.5</ele><time>2026-04-16T08:39:03.846Z</time></trkpt><trkpt lat="42.6481" lon="-8.23572"><ele>610.0</ele><time>2026-04-16T08:39:04.846Z</time></trkpt><trkpt lat="42.648035" lon="-8.2358017"><ele>610.0</ele><time>2026-04-16T08:39:05.847Z</time></trkpt><trkpt lat="42.64796" lon="-8.2358767"><ele>610.0</ele><time>2026-04-16T08:39:06.846Z</time></trkpt><trkpt lat="42.647875" lon="-8.2359383"><ele>610.0</ele><time>2026-04-16T08:39:07.846Z</time></trkpt><trkpt lat="42.64779" lon="-8.2359767"><ele>610.0</ele><time>2026-04-16T08:39:08.846Z</time></trkpt><trkpt lat="42.6477133" lon="-8.2359833"><ele>610.0</ele><time>2026-04-16T08:39:09.847Z</time></trkpt><trkpt lat="42.6476217" lon="-8.235975"><ele>610.0</ele><time>2026-04-16T08:39:10.846Z</time></trkpt><trkpt lat="42.6475217" lon="-8.23596"><ele>612.0</ele><time>2026-04-16T08:39:11.847Z</time></trkpt><trkpt lat="42.6474033" lon="-8.23597"><ele>614.0</ele><time>2026-04-16T08:39:12.846Z</time></trkpt><trkpt lat="42.64728" lon="-8.2359817"><ele>616.0</ele><time>2026-04-16T08:39:13.846Z</time></trkpt><trkpt lat="42.6471433" lon="-8.23599"><ele>618.0</ele><time>2026-04-16T08:39:14.847Z</time></trkpt><trkpt lat="42.6470133" lon="-8.2359967"><ele>618.6</ele><time>2026-04-16T08:39:15.846Z</time></trkpt><trkpt lat="42.64689" lon="-8.2359967"><ele>619.1999999999999</ele><time>2026-04-16T08:39:16.847Z</time></trkpt><trkpt lat="42.646795" lon="-8.2360067"><ele>619.8</ele><time>2026-04-16T08:39:17.847Z</time></trkpt><trkpt lat="42.64672" lon="-8.2360183"><ele>620.4</ele><time>2026-04-16T08:39:18.846Z</time></trkpt><trkpt lat="42.646635" lon="-8.236065"><ele>621.0</ele><time>2026-04-16T08:39:20.847Z</time></trkpt><trkpt lat="42.64658" lon="-8.2361983"><ele>621.0</ele><time>2026-04-16T08:39:22.846Z</time></trkpt><trkpt lat="42.6465583" lon="-8.2362817"><ele>621.0</ele><time>2026-04-16T08:39:23.846Z</time></trkpt><trkpt lat="42.6465317" lon="-8.2364467"><ele>621.0</ele><time>2026-04-16T08:39:25.846Z</time></trkpt><trkpt lat="42.64651" lon="-8.2365967"><ele>621.0</ele><time>2026-04-16T08:39:27.847Z</time></trkpt><trkpt lat="42.6464417" lon="-8.23671"><ele>621.0</ele><time>2026-04-16T08:39:29.846Z</time></trkpt><trkpt lat="42.6463817" lon="-8.23676"><ele>621.4</ele><time>2026-04-16T08:39:30.846Z</time></trkpt><trkpt lat="42.6463" lon="-8.2368"><ele>621.8</ele><time>2026-04-16T08:39:31.846Z</time></trkpt><trkpt lat="42.6462017" lon="-8.236845"><ele>622.1999999999999</ele><time>2026-04-16T08:39:32.846Z</time></trkpt><trkpt lat="42.64611" lon="-8.2369017"><ele>622.6</ele><time>2026-04-16T08:39:33.846Z</time></trkpt><trkpt lat="42.646005" lon="-8.2369733"><ele>623.0</ele><time>2026-04-16T08:39:34.847Z</time></trkpt><trkpt lat="42.6459167" lon="-8.2370683"><ele>623.0</ele><time>2026-04-16T08:39:35.846Z</time></trkpt><trkpt lat="42.6458367" lon="-8.2371933"><ele>623.0</ele><time>2026-04-16T08:39:36.846Z</time></trkpt><trkpt lat="42.64575" lon="-8.2373433"><ele>623.0</ele><time>2026-04-16T08:39:37.847Z</time></trkpt><trkpt lat="42.6456567" lon="-8.23752"><ele>623.0</ele><time>2026-04-16T08:39:38.847Z</time></trkpt><trkpt lat="42.6455617" lon="-8.2377133"><ele>622.3333333333333</ele><time>2026-04-16T08:39:39.847Z</time></trkpt><trkpt lat="42.6454617" lon="-8.237885"><ele>621.6666666666666</ele><time>2026-04-16T08:39:40.846Z</time></trkpt><trkpt lat="42.64537" lon="-8.2380567"><ele>621.0</ele><time>2026-04-16T08:39:41.847Z</time></trkpt><trkpt lat="42.6452767" lon="-8.2382183"><ele>621.0</ele><time>2026-04-16T08:39:42.846Z</time></trkpt><trkpt lat="42.6451783" lon="-8.2383833"><ele>621.0</ele><time>2026-04-16T08:39:43.846Z</time></trkpt><trkpt lat="42.6450833" lon="-8.2385367"><ele>621.0</ele><time>2026-04-16T08:39:44.847Z</time></trkpt><trkpt lat="42.6450017" lon="-8.2386667"><ele>621.0</ele><time>2026-04-16T08:39:45.847Z</time></trkpt><trkpt lat="42.6449217" lon="-8.2387983"><ele>621.0</ele><time>2026-04-16T08:39:46.847Z</time></trkpt><trkpt lat="42.6448367" lon="-8.2389233"><ele>621.0</ele><time>2026-04-16T08:39:47.846Z</time></trkpt><trkpt lat="42.6447533" lon="-8.2390583"><ele>621.0</ele><time>2026-04-16T08:39:48.847Z</time></trkpt><trkpt lat="42.64466" lon="-8.2391933"><ele>621.0</ele><time>2026-04-16T08:39:49.846Z</time></trkpt><trkpt lat="42.6445883" lon="-8.2393267"><ele>621.4</ele><time>2026-04-16T08:39:50.846Z</time></trkpt><trkpt lat="42.64452" lon="-8.2394317"><ele>621.8</ele><time>2026-04-16T08:39:51.846Z</time></trkpt><trkpt lat="42.644465" lon="-8.2395433"><ele>622.1999999999999</ele><time>2026-04-16T08:39:52.846Z</time></trkpt><trkpt lat="42.64442" lon="-8.239665"><ele>622.6</ele><time>2026-04-16T08:39:53.846Z</time></trkpt><trkpt lat="42.6443717" lon="-8.2398"><ele>623.0</ele><time>2026-04-16T08:39:54.847Z</time></trkpt><trkpt lat="42.6443333" lon="-8.2399333"><ele>620.5</ele><time>2026-04-16T08:39:55.847Z</time></trkpt><trkpt lat="42.644285" lon="-8.2400783"><ele>618.0</ele><time>2026-04-16T08:39:56.847Z</time></trkpt><trkpt lat="42.6442233" lon="-8.2402283"><ele>615.5</ele><time>2026-04-16T08:39:57.846Z</time></trkpt><trkpt lat="42.6441633" lon="-8.2403767"><ele>613.0</ele><time>2026-04-16T08:39:58.846Z</time></trkpt><trkpt lat="42.6441017" lon="-8.2405367"><ele>612.8</ele><time>2026-04-16T08:39:59.846Z</time></trkpt><trkpt lat="42.6440367" lon="-8.240695"><ele>612.5999999999999</ele><time>2026-04-16T08:40:00.846Z</time></trkpt><trkpt lat="42.643975" lon="-8.2408367"><ele>612.4000000000001</ele><time>2026-04-16T08:40:01.847Z</time></trkpt><trkpt lat="42.6439083" lon="-8.2409367"><ele>612.2</ele><time>2026-04-16T08:40:02.846Z</time></trkpt><trkpt lat="42.643845" lon="-8.241005"><ele>612.0</ele><time>2026-04-16T08:40:03.847Z</time></trkpt><trkpt lat="42.6437267" lon="-8.241045"><ele>612.0</ele><time>2026-04-16T08:40:05.846Z</time></trkpt><trkpt lat="42.6436633" lon="-8.241025"><ele>612.0</ele><time>2026-04-16T08:40:06.846Z</time></trkpt><trkpt lat="42.6436017" lon="-8.2409733"><ele>612.0</ele><time>2026-04-16T08:40:07.847Z</time></trkpt><trkpt lat="42.6435117" lon="-8.2409317"><ele>612.0</ele><time>2026-04-16T08:40:09.846Z</time></trkpt><trkpt lat="42.6435917" lon="-8.2410833"><ele>612.0</ele><time>2026-04-16T08:40:13.846Z</time></trkpt><trkpt lat="42.6436317" lon="-8.2411667"><ele>612.0</ele><time>2026-04-16T08:40:14.846Z</time></trkpt><trkpt lat="42.6436767" lon="-8.2412617"><ele>612.0</ele><time>2026-04-16T08:40:15.846Z</time></trkpt><trkpt lat="42.64372" lon="-8.241375"><ele>612.0</ele><time>2026-04-16T08:40:16.846Z</time></trkpt><trkpt lat="42.64375" lon="-8.2414783"><ele>612.0</ele><time>2026-04-16T08:40:17.846Z</time></trkpt><trkpt lat="42.643775" lon="-8.2415767"><ele>612.0</ele><time>2026-04-16T08:40:18.846Z</time></trkpt><trkpt lat="42.643795" lon="-8.2416767"><ele>612.0</ele><time>2026-04-16T08:40:19.847Z</time></trkpt><trkpt lat="42.6438133" lon="-8.2417783"><ele>612.0</ele><time>2026-04-16T08:40:20.846Z</time></trkpt><trkpt lat="42.6438333" lon="-8.2418967"><ele>612.2</ele><time>2026-04-16T08:40:21.847Z</time></trkpt><trkpt lat="42.64384" lon="-8.242025"><ele>612.4000000000001</ele><time>2026-04-16T08:40:22.846Z</time></trkpt><trkpt lat="42.6438517" lon="-8.242155"><ele>612.5999999999999</ele><time>2026-04-16T08:40:23.847Z</time></trkpt><trkpt lat="42.6438667" lon="-8.2422817"><ele>612.8</ele><time>2026-04-16T08:40:24.847Z</time></trkpt><trkpt lat="42.6438633" lon="-8.2423933"><ele>613.0</ele><time>2026-04-16T08:40:25.847Z</time></trkpt><trkpt lat="42.6438567" lon="-8.24251"><ele>614.0</ele><time>2026-04-16T08:40:26.846Z</time></trkpt><trkpt lat="42.6438433" lon="-8.2426267"><ele>615.0</ele><time>2026-04-16T08:40:27.847Z</time></trkpt><trkpt lat="42.64381" lon="-8.2427533"><ele>616.0</ele><time>2026-04-16T08:40:28.846Z</time></trkpt><trkpt lat="42.6437633" lon="-8.24287"><ele>617.0</ele><time>2026-04-16T08:40:29.846Z</time></trkpt><trkpt lat="42.6437133" lon="-8.2429833"><ele>618.0</ele><time>2026-04-16T08:40:30.847Z</time></trkpt><trkpt lat="42.6436367" lon="-8.2430967"><ele>619.4</ele><time>2026-04-16T08:40:31.846Z</time></trkpt><trkpt lat="42.6435467" lon="-8.2432017"><ele>620.8</ele><time>2026-04-16T08:40:32.847Z</time></trkpt><trkpt lat="42.64345" lon="-8.243275"><ele>622.2</ele><time>2026-04-16T08:40:33.847Z</time></trkpt><trkpt lat="42.64336" lon="-8.2433233"><ele>623.6</ele><time>2026-04-16T08:40:34.846Z</time></trkpt><trkpt lat="42.6432817" lon="-8.2433467"><ele>625.0</ele><time>2026-04-16T08:40:35.847Z</time></trkpt><trkpt lat="42.6431867" lon="-8.2433333"><ele>625.0</ele><time>2026-04-16T08:40:36.846Z</time></trkpt><trkpt lat="42.643105" lon="-8.2433033"><ele>625.0</ele><time>2026-04-16T08:40:37.847Z</time></trkpt><trkpt lat="42.6430183" lon="-8.2432833"><ele>625.0</ele><time>2026-04-16T08:40:39.847Z</time></trkpt><trkpt lat="42.64297" lon="-8.2433617"><ele>625.0</ele><time>2026-04-16T08:40:41.846Z</time></trkpt><trkpt lat="42.6429633" lon="-8.2434517"><ele>625.0</ele><time>2026-04-16T08:40:42.847Z</time></trkpt><trkpt lat="42.6429717" lon="-8.24356"><ele>625.0</ele><time>2026-04-16T08:40:43.847Z</time></trkpt><trkpt lat="42.64297" lon="-8.24367"><ele>625.0</ele><time>2026-04-16T08:40:44.847Z</time></trkpt><trkpt lat="42.64298" lon="-8.2438033"><ele>625.0</ele><time>2026-04-16T08:40:45.847Z</time></trkpt><trkpt lat="42.6429917" lon="-8.2439367"><ele>625.0</ele><time>2026-04-16T08:40:46.846Z</time></trkpt><trkpt lat="42.6430083" lon="-8.244055"><ele>625.0</ele><time>2026-04-16T08:40:47.846Z</time></trkpt><trkpt lat="42.6430333" lon="-8.2441483"><ele>625.0</ele><time>2026-04-16T08:40:48.846Z</time></trkpt><trkpt lat="42.6430733" lon="-8.2442333"><ele>625.0</ele><time>2026-04-16T08:40:49.847Z</time></trkpt><trkpt lat="42.6431167" lon="-8.244325"><ele>626.3333333333334</ele><time>2026-04-16T08:40:50.847Z</time></trkpt><trkpt lat="42.64315" lon="-8.24442"><ele>627.6666666666667</ele><time>2026-04-16T08:40:51.847Z</time></trkpt><trkpt lat="42.6431683" lon="-8.2445333"><ele>629.0</ele><time>2026-04-16T08:40:52.846Z</time></trkpt><trkpt lat="42.6431833" lon="-8.2446517"><ele>630.3333333333334</ele><time>2026-04-16T08:40:53.846Z</time></trkpt><trkpt lat="42.6431883" lon="-8.2447717"><ele>631.6666666666666</ele><time>2026-04-16T08:40:54.847Z</time></trkpt><trkpt lat="42.6431983" lon="-8.2448867"><ele>633.0</ele><time>2026-04-16T08:40:55.846Z</time></trkpt><trkpt lat="42.6432083" lon="-8.2449917"><ele>635.0</ele><time>2026-04-16T08:40:56.846Z</time></trkpt><trkpt lat="42.6432133" lon="-8.245095"><ele>637.0</ele><time>2026-04-16T08:40:57.847Z</time></trkpt><trkpt lat="42.6432183" lon="-8.2451867"><ele>639.0</ele><time>2026-04-16T08:40:58.847Z</time></trkpt><trkpt lat="42.6432333" lon="-8.2453567"><ele>641.0</ele><time>2026-04-16T08:41:00.847Z</time></trkpt><trkpt lat="42.6432483" lon="-8.2454533"><ele>643.0</ele><time>2026-04-16T08:41:01.847Z</time></trkpt><trkpt lat="42.6432617" lon="-8.2455583"><ele>645.0</ele><time>2026-04-16T08:41:02.847Z</time></trkpt><trkpt lat="42.6432733" lon="-8.24567"><ele>647.4</ele><time>2026-04-16T08:41:03.847Z</time></trkpt><trkpt lat="42.643275" lon="-8.2457883"><ele>649.8</ele><time>2026-04-16T08:41:04.846Z</time></trkpt><trkpt lat="42.643275" lon="-8.2459067"><ele>652.2</ele><time>2026-04-16T08:41:05.846Z</time></trkpt><trkpt lat="42.643275" lon="-8.246025"><ele>654.6</ele><time>2026-04-16T08:41:06.846Z</time></trkpt><trkpt lat="42.643265" lon="-8.246145"><ele>657.0</ele><time>2026-04-16T08:41:07.847Z</time></trkpt><trkpt lat="42.643245" lon="-8.2462783"><ele>657.0</ele><time>2026-04-16T08:41:08.847Z</time></trkpt><trkpt lat="42.6432233" lon="-8.2464317"><ele>657.0</ele><time>2026-04-16T08:41:09.846Z</time></trkpt><trkpt lat="42.6432017" lon="-8.2466083"><ele>657.0</ele><time>2026-04-16T08:41:10.846Z</time></trkpt><trkpt lat="42.64318" lon="-8.2467883"><ele>657.0</ele><time>2026-04-16T08:41:11.847Z</time></trkpt><trkpt lat="42.6431617" lon="-8.2469567"><ele>659.5</ele><time>2026-04-16T08:41:12.847Z</time></trkpt><trkpt lat="42.6431567" lon="-8.2471133"><ele>662.0</ele><time>2026-04-16T08:41:13.847Z</time></trkpt><trkpt lat="42.6431467" lon="-8.247265"><ele>664.5</ele><time>2026-04-16T08:41:14.847Z</time></trkpt><trkpt lat="42.643145" lon="-8.247415"><ele>667.0</ele><time>2026-04-16T08:41:15.847Z</time></trkpt><trkpt lat="42.6431483" lon="-8.2475683"><ele>669.2</ele><time>2026-04-16T08:41:16.847Z</time></trkpt><trkpt lat="42.6431583" lon="-8.2477033"><ele>671.4000000000001</ele><time>2026-04-16T08:41:17.847Z</time></trkpt><trkpt lat="42.6431617" lon="-8.2478333"><ele>673.5999999999999</ele><time>2026-04-16T08:41:18.847Z</time></trkpt><trkpt lat="42.64316" lon="-8.24796"><ele>675.8</ele><time>2026-04-16T08:41:19.847Z</time></trkpt><trkpt lat="42.64316" lon="-8.2480917"><ele>678.0</ele><time>2026-04-16T08:41:20.847Z</time></trkpt><trkpt lat="42.6431733" lon="-8.24822"><ele>679.2</ele><time>2026-04-16T08:41:21.846Z</time></trkpt><trkpt lat="42.6432017" lon="-8.2483417"><ele>680.4</ele><time>2026-04-16T08:41:22.846Z</time></trkpt><trkpt lat="42.64326" lon="-8.2484567"><ele>681.6</ele><time>2026-04-16T08:41:23.847Z</time></trkpt><trkpt lat="42.64334" lon="-8.2485733"><ele>682.8000000000001</ele><time>2026-04-16T08:41:24.846Z</time></trkpt><trkpt lat="42.6434217" lon="-8.248705"><ele>684.0</ele><time>2026-04-16T08:41:25.847Z</time></trkpt><trkpt lat="42.643485" lon="-8.24882"><ele>684.0</ele><time>2026-04-16T08:41:26.847Z</time></trkpt><trkpt lat="42.643485" lon="-8.2489517"><ele>684.0</ele><time>2026-04-16T08:41:28.846Z</time></trkpt><trkpt lat="42.6433983" lon="-8.24908"><ele>684.0</ele><time>2026-04-16T08:41:30.846Z</time></trkpt><trkpt lat="42.6433267" lon="-8.2491633"><ele>684.0</ele><time>2026-04-16T08:41:31.847Z</time></trkpt><trkpt lat="42.64325" lon="-8.2492667"><ele>684.0</ele><time>2026-04-16T08:41:32.847Z</time></trkpt><trkpt lat="42.64318" lon="-8.2493867"><ele>686.1666666666666</ele><time>2026-04-16T08:41:33.847Z</time></trkpt><trkpt lat="42.6431233" lon="-8.2494783"><ele>688.3333333333334</ele><time>2026-04-16T08:41:34.847Z</time></trkpt><trkpt lat="42.6430733" lon="-8.2495333"><ele>690.5</ele><time>2026-04-16T08:41:35.846Z</time></trkpt><trkpt lat="42.6429883" lon="-8.2495483"><ele>692.6666666666667</ele><time>2026-04-16T08:41:37.846Z</time></trkpt><trkpt lat="42.642925" lon="-8.249505"><ele>694.8333333333334</ele><time>2026-04-16T08:41:38.846Z</time></trkpt><trkpt lat="42.6428467" lon="-8.2494583"><ele>697.0</ele><time>2026-04-16T08:41:39.846Z</time></trkpt><trkpt lat="42.6427633" lon="-8.24945"><ele>697.6</ele><time>2026-04-16T08:41:40.847Z</time></trkpt><trkpt lat="42.6426917" lon="-8.2494633"><ele>698.2</ele><time>2026-04-16T08:41:41.847Z</time></trkpt><trkpt lat="42.6426183" lon="-8.249515"><ele>698.8</ele><time>2026-04-16T08:41:42.847Z</time></trkpt><trkpt lat="42.6425367" lon="-8.2496033"><ele>699.4</ele><time>2026-04-16T08:41:43.846Z</time></trkpt><trkpt lat="42.64245" lon="-8.2497"><ele>700.0</ele><time>2026-04-16T08:41:44.847Z</time></trkpt><trkpt lat="42.6423583" lon="-8.2498067"><ele>704.5</ele><time>2026-04-16T08:41:45.846Z</time></trkpt><trkpt lat="42.6422717" lon="-8.2499183"><ele>709.0</ele><time>2026-04-16T08:41:46.847Z</time></trkpt><trkpt lat="42.6421917" lon="-8.25004"><ele>713.5</ele><time>2026-04-16T08:41:47.847Z</time></trkpt><trkpt lat="42.642125" lon="-8.2501717"><ele>718.0</ele><time>2026-04-16T08:41:48.846Z</time></trkpt><trkpt lat="42.64207" lon="-8.2503167"><ele>718.0</ele><time>2026-04-16T08:41:49.846Z</time></trkpt><trkpt lat="42.64203" lon="-8.250465"><ele>718.0</ele><time>2026-04-16T08:41:50.846Z</time></trkpt><trkpt lat="42.6419867" lon="-8.2506067"><ele>718.0</ele><time>2026-04-16T08:41:51.846Z</time></trkpt><trkpt lat="42.641955" lon="-8.2507517"><ele>718.0</ele><time>2026-04-16T08:41:52.847Z</time></trkpt><trkpt lat="42.6419267" lon="-8.2509017"><ele>719.5</ele><time>2026-04-16T08:41:53.847Z</time></trkpt><trkpt lat="42.6418933" lon="-8.251065"><ele>721.0</ele><time>2026-04-16T08:41:54.846Z</time></trkpt><trkpt lat="42.64185" lon="-8.251225"><ele>722.5</ele><time>2026-04-16T08:41:55.846Z</time></trkpt><trkpt lat="42.6418017" lon="-8.2513767"><ele>724.0</ele><time>2026-04-16T08:41:56.847Z</time></trkpt><trkpt lat="42.64174" lon="-8.25152"><ele>726.5</ele><time>2026-04-16T08:41:57.847Z</time></trkpt><trkpt lat="42.641675" lon="-8.25166"><ele>729.0</ele><time>2026-04-16T08:41:58.847Z</time></trkpt><trkpt lat="42.6416083" lon="-8.251795"><ele>731.5</ele><time>2026-04-16T08:41:59.847Z</time></trkpt><trkpt lat="42.6415267" lon="-8.2519167"><ele>734.0</ele><time>2026-04-16T08:42:00.847Z</time></trkpt><trkpt lat="42.6414317" lon="-8.2520433"><ele>734.0</ele><time>2026-04-16T08:42:01.847Z</time></trkpt><trkpt lat="42.6413267" lon="-8.252165"><ele>734.0</ele><time>2026-04-16T08:42:02.846Z</time></trkpt><trkpt lat="42.641215" lon="-8.2522717"><ele>734.0</ele><time>2026-04-16T08:42:03.846Z</time></trkpt><trkpt lat="42.6411033" lon="-8.2523633"><ele>734.0</ele><time>2026-04-16T08:42:04.846Z</time></trkpt><trkpt lat="42.6410017" lon="-8.2524517"><ele>734.2</ele><time>2026-04-16T08:42:05.846Z</time></trkpt><trkpt lat="42.6409017" lon="-8.2525433"><ele>734.4000000000001</ele><time>2026-04-16T08:42:06.846Z</time></trkpt><trkpt lat="42.6408417" lon="-8.252635"><ele>734.6</ele><time>2026-04-16T08:42:07.846Z</time></trkpt><trkpt lat="42.640805" lon="-8.2527533"><ele>734.8</ele><time>2026-04-16T08:42:08.847Z</time></trkpt><trkpt lat="42.64078" lon="-8.252885"><ele>735.0</ele><time>2026-04-16T08:42:09.847Z</time></trkpt><trkpt lat="42.640765" lon="-8.253005"><ele>735.5</ele><time>2026-04-16T08:42:10.848Z</time></trkpt><trkpt lat="42.6407533" lon="-8.2531233"><ele>736.0</ele><time>2026-04-16T08:42:12.847Z</time></trkpt><trkpt lat="42.6408167" lon="-8.2531533"><ele>736.5</ele><time>2026-04-16T08:42:14.848Z</time></trkpt><trkpt lat="42.6409417" lon="-8.2531633"><ele>737.0</ele><time>2026-04-16T08:42:16.848Z</time></trkpt><trkpt lat="42.6410083" lon="-8.2531883"><ele>737.5</ele><time>2026-04-16T08:42:17.848Z</time></trkpt><trkpt lat="42.64107" lon="-8.253245"><ele>738.0</ele><time>2026-04-16T08:42:18.848Z</time></trkpt><trkpt lat="42.6411283" lon="-8.2533133"><ele>740.1666666666666</ele><time>2026-04-16T08:42:19.847Z</time></trkpt><trkpt lat="42.64118" lon="-8.2533867"><ele>742.3333333333334</ele><time>2026-04-16T08:42:20.847Z</time></trkpt><trkpt lat="42.64122" lon="-8.2534567"><ele>744.5</ele><time>2026-04-16T08:42:21.847Z</time></trkpt><trkpt lat="42.6412517" lon="-8.2535333"><ele>746.6666666666667</ele><time>2026-04-16T08:42:22.847Z</time></trkpt><trkpt lat="42.641315" lon="-8.2536467"><ele>748.8333333333334</ele><time>2026-04-16T08:42:24.847Z</time></trkpt><trkpt lat="42.6413983" lon="-8.2536533"><ele>751.0</ele><time>2026-04-16T08:42:26.847Z</time></trkpt><trkpt lat="42.641505" lon="-8.2535517"><ele>751.0</ele><time>2026-04-16T08:42:28.847Z</time></trkpt><trkpt lat="42.6415633" lon="-8.25349"><ele>751.0</ele><time>2026-04-16T08:42:29.847Z</time></trkpt><trkpt lat="42.6416317" lon="-8.2534333"><ele>751.0</ele><time>2026-04-16T08:42:30.848Z</time></trkpt><trkpt lat="42.6416933" lon="-8.253415"><ele>751.0</ele><time>2026-04-16T08:42:31.847Z</time></trkpt><trkpt lat="42.6418133" lon="-8.2534617"><ele>751.0</ele><time>2026-04-16T08:42:33.847Z</time></trkpt><trkpt lat="42.6418833" lon="-8.25354"><ele>751.0</ele><time>2026-04-16T08:42:34.848Z</time></trkpt><trkpt lat="42.6419633" lon="-8.2536283"><ele>753.5999999999999</ele><time>2026-04-16T08:42:35.848Z</time></trkpt><trkpt lat="42.6420333" lon="-8.2537217"><ele>756.2</ele><time>2026-04-16T08:42:36.847Z</time></trkpt><trkpt lat="42.6421017" lon="-8.2538183"><ele>758.8</ele><time>2026-04-16T08:42:37.848Z</time></trkpt><trkpt lat="42.6421633" lon="-8.2539133"><ele>761.4000000000001</ele><time>2026-04-16T08:42:38.848Z</time></trkpt><trkpt lat="42.6422217" lon="-8.2540017"><ele>764.0</ele><time>2026-04-16T08:42:39.847Z</time></trkpt><trkpt lat="42.642275" lon="-8.254075"><ele>764.5</ele><time>2026-04-16T08:42:40.848Z</time></trkpt><trkpt lat="42.6423267" lon="-8.2541433"><ele>765.0</ele><time>2026-04-16T08:42:41.848Z</time></trkpt><trkpt lat="42.6423717" lon="-8.25424"><ele>765.5</ele><time>2026-04-16T08:42:42.847Z</time></trkpt><trkpt lat="42.6424067" lon="-8.25435"><ele>766.0</ele><time>2026-04-16T08:42:43.847Z</time></trkpt><trkpt lat="42.642425" lon="-8.2544617"><ele>766.5</ele><time>2026-04-16T08:42:44.848Z</time></trkpt><trkpt lat="42.6424217" lon="-8.2545933"><ele>767.0</ele><time>2026-04-16T08:42:45.848Z</time></trkpt><trkpt lat="42.6424083" lon="-8.2547283"><ele>769.0</ele><time>2026-04-16T08:42:46.847Z</time></trkpt><trkpt lat="42.6423983" lon="-8.25487"><ele>771.0</ele><time>2026-04-16T08:42:47.848Z</time></trkpt><trkpt lat="42.64238" lon="-8.2550283"><ele>773.0</ele><time>2026-04-16T08:42:48.848Z</time></trkpt><trkpt lat="42.6423617" lon="-8.255205"><ele>775.0</ele><time>2026-04-16T08:42:49.848Z</time></trkpt><trkpt lat="42.64234" lon="-8.2553967"><ele>775.0</ele><time>2026-04-16T08:42:50.848Z</time></trkpt><trkpt lat="42.6423267" lon="-8.2555817"><ele>775.0</ele><time>2026-04-16T08:42:51.848Z</time></trkpt><trkpt lat="42.642325" lon="-8.2557467"><ele>775.0</ele><time>2026-04-16T08:42:52.847Z</time></trkpt><trkpt lat="42.642335" lon="-8.2559133"><ele>775.0</ele><time>2026-04-16T08:42:53.847Z</time></trkpt><trkpt lat="42.6423717" lon="-8.25608"><ele>776.5</ele><time>2026-04-16T08:42:54.847Z</time></trkpt><trkpt lat="42.6424167" lon="-8.256235"><ele>778.0</ele><time>2026-04-16T08:42:55.847Z</time></trkpt><trkpt lat="42.642485" lon="-8.2563767"><ele>779.5</ele><time>2026-04-16T08:42:56.847Z</time></trkpt><trkpt lat="42.6425783" lon="-8.2564967"><ele>781.0</ele><time>2026-04-16T08:42:57.847Z</time></trkpt><trkpt lat="42.64266" lon="-8.25659"><ele>781.1999999999999</ele><time>2026-04-16T08:42:58.848Z</time></trkpt><trkpt lat="42.6427433" lon="-8.256645"><ele>781.4</ele><time>2026-04-16T08:42:59.847Z</time></trkpt><trkpt lat="42.6428433" lon="-8.2566633"><ele>781.6</ele><time>2026-04-16T08:43:00.847Z</time></trkpt><trkpt lat="42.6429567" lon="-8.256665"><ele>781.8</ele><time>2026-04-16T08:43:01.848Z</time></trkpt><trkpt lat="42.6430917" lon="-8.2566733"><ele>782.0</ele><time>2026-04-16T08:43:02.848Z</time></trkpt><trkpt lat="42.64324" lon="-8.256675"><ele>783.0</ele><time>2026-04-16T08:43:03.848Z</time></trkpt><trkpt lat="42.6433817" lon="-8.2566767"><ele>784.0</ele><time>2026-04-16T08:43:04.848Z</time></trkpt><trkpt lat="42.64352" lon="-8.2566933"><ele>785.0</ele><time>2026-04-16T08:43:05.848Z</time></trkpt><trkpt lat="42.6436417" lon="-8.256735"><ele>786.0</ele><time>2026-04-16T08:43:06.847Z</time></trkpt><trkpt lat="42.6437567" lon="-8.256795"><ele>787.5</ele><time>2026-04-16T08:43:07.848Z</time></trkpt><trkpt lat="42.6438783" lon="-8.2568667"><ele>789.0</ele><time>2026-04-16T08:43:08.848Z</time></trkpt><trkpt lat="42.6440017" lon="-8.2569633"><ele>790.5</ele><time>2026-04-16T08:43:09.848Z</time></trkpt><trkpt lat="42.6441267" lon="-8.2570683"><ele>792.0</ele><time>2026-04-16T08:43:10.847Z</time></trkpt><trkpt lat="42.64426" lon="-8.2571533"><ele>792.0</ele><time>2026-04-16T08:43:11.847Z</time></trkpt><trkpt lat="42.644385" lon="-8.2572133"><ele>792.0</ele><time>2026-04-16T08:43:12.847Z</time></trkpt><trkpt lat="42.644495" lon="-8.2572533"><ele>792.0</ele><time>2026-04-16T08:43:13.847Z</time></trkpt><trkpt lat="42.6445917" lon="-8.25729"><ele>792.0</ele><time>2026-04-16T08:43:14.848Z</time></trkpt><trkpt lat="42.644665" lon="-8.2573183"><ele>792.0</ele><time>2026-04-16T08:43:15.847Z</time></trkpt><trkpt lat="42.6447633" lon="-8.2574167"><ele>790.8</ele><time>2026-04-16T08:43:17.848Z</time></trkpt><trkpt lat="42.644775" lon="-8.25752"><ele>789.6</ele><time>2026-04-16T08:43:18.847Z</time></trkpt><trkpt lat="42.6447767" lon="-8.25766"><ele>788.4</ele><time>2026-04-16T08:43:19.847Z</time></trkpt><trkpt lat="42.644775" lon="-8.2578183"><ele>787.1999999999999</ele><time>2026-04-16T08:43:20.847Z</time></trkpt><trkpt lat="42.6447817" lon="-8.2579983"><ele>786.0</ele><time>2026-04-16T08:43:21.848Z</time></trkpt><trkpt lat="42.64479" lon="-8.2581883"><ele>785.75</ele><time>2026-04-16T08:43:22.848Z</time></trkpt><trkpt lat="42.6447933" lon="-8.2583867"><ele>785.5</ele><time>2026-04-16T08:43:23.848Z</time></trkpt><trkpt lat="42.6448083" lon="-8.258585"><ele>785.25</ele><time>2026-04-16T08:43:24.848Z</time></trkpt><trkpt lat="42.64483" lon="-8.2587917"><ele>785.0</ele><time>2026-04-16T08:43:25.848Z</time></trkpt><trkpt lat="42.64487" lon="-8.2590217"><ele>786.0</ele><time>2026-04-16T08:43:26.847Z</time></trkpt><trkpt lat="42.644885" lon="-8.2592517"><ele>787.0</ele><time>2026-04-16T08:43:27.847Z</time></trkpt><trkpt lat="42.6449033" lon="-8.2594783"><ele>788.0</ele><time>2026-04-16T08:43:28.848Z</time></trkpt><trkpt lat="42.6449217" lon="-8.2596883"><ele>789.0</ele><time>2026-04-16T08:43:29.847Z</time></trkpt><trkpt lat="42.6449467" lon="-8.2598833"><ele>790.0</ele><time>2026-04-16T08:43:30.847Z</time></trkpt><trkpt lat="42.6449817" lon="-8.2600683"><ele>791.0</ele><time>2026-04-16T08:43:31.848Z</time></trkpt><trkpt lat="42.64504" lon="-8.2602383"><ele>792.0</ele><time>2026-04-16T08:43:32.848Z</time></trkpt><trkpt lat="42.64511" lon="-8.2603867"><ele>792.0</ele><time>2026-04-16T08:43:33.848Z</time></trkpt><trkpt lat="42.6452083" lon="-8.2605133"><ele>792.0</ele><time>2026-04-16T08:43:34.848Z</time></trkpt><trkpt lat="42.6453117" lon="-8.2606333"><ele>792.0</ele><time>2026-04-16T08:43:35.848Z</time></trkpt><trkpt lat="42.6454083" lon="-8.2607617"><ele>792.0</ele><time>2026-04-16T08:43:36.847Z</time></trkpt><trkpt lat="42.6454917" lon="-8.260905"><ele>793.5</ele><time>2026-04-16T08:43:37.847Z</time></trkpt><trkpt lat="42.6455567" lon="-8.2610583"><ele>795.0</ele><time>2026-04-16T08:43:38.848Z</time></trkpt><trkpt lat="42.6456283" lon="-8.2612083"><ele>796.5</ele><time>2026-04-16T08:43:39.847Z</time></trkpt><trkpt lat="42.6457183" lon="-8.26134"><ele>798.0</ele><time>2026-04-16T08:43:40.848Z</time></trkpt><trkpt lat="42.6458217" lon="-8.261465"><ele>799.6666666666667</ele><time>2026-04-16T08:43:41.848Z</time></trkpt><trkpt lat="42.6459433" lon="-8.2615967"><ele>801.3333333333334</ele><time>2026-04-16T08:43:42.847Z</time></trkpt><trkpt lat="42.6460667" lon="-8.26173"><ele>803.0</ele><time>2026-04-16T08:43:43.848Z</time></trkpt><trkpt lat="42.646185" lon="-8.261875"><ele>804.25</ele><time>2026-04-16T08:43:44.848Z</time></trkpt><trkpt lat="42.6463033" lon="-8.2619967"><ele>805.5</ele><time>2026-04-16T08:43:45.848Z</time></trkpt><trkpt lat="42.6464033" lon="-8.2621"><ele>806.75</ele><time>2026-04-16T08:43:46.847Z</time></trkpt><trkpt lat="42.6464967" lon="-8.2621983"><ele>808.0</ele><time>2026-04-16T08:43:47.847Z</time></trkpt><trkpt lat="42.6465883" lon="-8.2622817"><ele>808.3333333333333</ele><time>2026-04-16T08:43:48.848Z</time></trkpt><trkpt lat="42.64668" lon="-8.2623433"><ele>808.6666666666666</ele><time>2026-04-16T08:43:49.848Z</time></trkpt><trkpt lat="42.646765" lon="-8.262355"><ele>809.0</ele><time>2026-04-16T08:43:50.847Z</time></trkpt><trkpt lat="42.6468483" lon="-8.262365"><ele>809.3333333333333</ele><time>2026-04-16T08:43:51.847Z</time></trkpt><trkpt lat="42.6469183" lon="-8.2624117"><ele>809.6666666666666</ele><time>2026-04-16T08:43:52.848Z</time></trkpt><trkpt lat="42.646975" lon="-8.2625067"><ele>810.0</ele><time>2026-04-16T08:43:53.848Z</time></trkpt><trkpt lat="42.6470233" lon="-8.2626083"><ele>809.1666666666666</ele><time>2026-04-16T08:43:54.848Z</time></trkpt><trkpt lat="42.64708" lon="-8.262685"><ele>808.3333333333333</ele><time>2026-04-16T08:43:55.847Z</time></trkpt><trkpt lat="42.6471483" lon="-8.2627417"><ele>807.5</ele><time>2026-04-16T08:43:56.847Z</time></trkpt><trkpt lat="42.647225" lon="-8.2628033"><ele>806.6666666666666</ele><time>2026-04-16T08:43:57.847Z</time></trkpt><trkpt lat="42.647305" lon="-8.26287"><ele>805.8333333333333</ele><time>2026-04-16T08:43:58.848Z</time></trkpt><trkpt lat="42.6473717" lon="-8.2629583"><ele>805.0</ele><time>2026-04-16T08:43:59.848Z</time></trkpt><trkpt lat="42.647425" lon="-8.263065"><ele>804.5</ele><time>2026-04-16T08:44:00.847Z</time></trkpt><trkpt lat="42.647475" lon="-8.2632"><ele>804.0</ele><time>2026-04-16T08:44:01.847Z</time></trkpt><trkpt lat="42.6475217" lon="-8.2633583"><ele>803.5</ele><time>2026-04-16T08:44:02.847Z</time></trkpt><trkpt lat="42.6475667" lon="-8.263545"><ele>803.0</ele><time>2026-04-16T08:44:03.847Z</time></trkpt><trkpt lat="42.6475967" lon="-8.2637483"><ele>802.0</ele><time>2026-04-16T08:44:04.847Z</time></trkpt><trkpt lat="42.6476233" lon="-8.26395"><ele>801.0</ele><time>2026-04-16T08:44:05.847Z</time></trkpt><trkpt lat="42.6476467" lon="-8.2641383"><ele>800.0</ele><time>2026-04-16T08:44:06.848Z</time></trkpt><trkpt lat="42.64766" lon="-8.2643167"><ele>799.0</ele><time>2026-04-16T08:44:07.848Z</time></trkpt><trkpt lat="42.6476667" lon="-8.2644683"><ele>798.9999999999999</ele><time>2026-04-16T08:44:08.847Z</time></trkpt><trkpt lat="42.647655" lon="-8.2645817"><ele>799.0</ele><time>2026-04-16T08:44:09.847Z</time></trkpt><trkpt lat="42.64763" lon="-8.2646733"><ele>799.0</ele><time>2026-04-16T08:44:10.847Z</time></trkpt><trkpt lat="42.6475867" lon="-8.264755"><ele>799.0</ele><time>2026-04-16T08:44:11.848Z</time></trkpt><trkpt lat="42.647525" lon="-8.26483"><ele>798.9999999999999</ele><time>2026-04-16T08:44:12.848Z</time></trkpt><trkpt lat="42.6474217" lon="-8.2648967"><ele>799.0</ele><time>2026-04-16T08:44:13.848Z</time></trkpt><trkpt lat="42.6473033" lon="-8.26493"><ele>799.0</ele><time>2026-04-16T08:44:14.848Z</time></trkpt><trkpt lat="42.6472017" lon="-8.26493"><ele>799.0</ele><time>2026-04-16T08:44:15.847Z</time></trkpt><trkpt lat="42.6470933" lon="-8.26488"><ele>799.0</ele><time>2026-04-16T08:44:16.847Z</time></trkpt><trkpt lat="42.6469733" lon="-8.264795"><ele>799.0</ele><time>2026-04-16T08:44:17.848Z</time></trkpt><trkpt lat="42.6468567" lon="-8.2647"><ele>799.5</ele><time>2026-04-16T08:44:18.848Z</time></trkpt><trkpt lat="42.6467517" lon="-8.2646167"><ele>800.0</ele><time>2026-04-16T08:44:19.847Z</time></trkpt><trkpt lat="42.6466333" lon="-8.2645433"><ele>800.5</ele><time>2026-04-16T08:44:20.848Z</time></trkpt><trkpt lat="42.6465117" lon="-8.2644533"><ele>801.0</ele><time>2026-04-16T08:44:21.847Z</time></trkpt><trkpt lat="42.6463817" lon="-8.264355"><ele>801.0</ele><time>2026-04-16T08:44:22.847Z</time></trkpt><trkpt lat="42.64625" lon="-8.264255"><ele>801.0</ele><time>2026-04-16T08:44:23.847Z</time></trkpt><trkpt lat="42.6461183" lon="-8.2641733"><ele>801.0</ele><time>2026-04-16T08:44:24.847Z</time></trkpt><trkpt lat="42.6459833" lon="-8.2640917"><ele>801.0</ele><time>2026-04-16T08:44:25.847Z</time></trkpt><trkpt lat="42.6458533" lon="-8.26401"><ele>801.0</ele><time>2026-04-16T08:44:26.848Z</time></trkpt><trkpt lat="42.645735" lon="-8.263935"><ele>801.0</ele><time>2026-04-16T08:44:27.847Z</time></trkpt><trkpt lat="42.6456283" lon="-8.26387"><ele>801.0</ele><time>2026-04-16T08:44:28.848Z</time></trkpt><trkpt lat="42.6455367" lon="-8.2637983"><ele>801.0</ele><time>2026-04-16T08:44:29.847Z</time></trkpt><trkpt lat="42.6454667" lon="-8.2637467"><ele>801.0</ele><time>2026-04-16T08:44:30.847Z</time></trkpt><trkpt lat="42.6454017" lon="-8.2637283"><ele>801.0</ele><time>2026-04-16T08:44:31.848Z</time></trkpt><trkpt lat="42.6453317" lon="-8.263745"><ele>801.0</ele><time>2026-04-16T08:44:32.847Z</time></trkpt><trkpt lat="42.645255" lon="-8.26378"><ele>801.0</ele><time>2026-04-16T08:44:33.847Z</time></trkpt><trkpt lat="42.645155" lon="-8.2638083"><ele>801.0</ele><time>2026-04-16T08:44:34.847Z</time></trkpt><trkpt lat="42.6450367" lon="-8.26384"><ele>801.0</ele><time>2026-04-16T08:44:35.848Z</time></trkpt><trkpt lat="42.6449033" lon="-8.2638767"><ele>799.3333333333333</ele><time>2026-04-16T08:44:36.848Z</time></trkpt><trkpt lat="42.6447583" lon="-8.2639133"><ele>797.6666666666666</ele><time>2026-04-16T08:44:37.848Z</time></trkpt><trkpt lat="42.6446017" lon="-8.2639583"><ele>796.0</ele><time>2026-04-16T08:44:38.847Z</time></trkpt><trkpt lat="42.6444317" lon="-8.2640033"><ele>796.0</ele><time>2026-04-16T08:44:39.847Z</time></trkpt><trkpt lat="42.6442433" lon="-8.26404"><ele>796.0</ele><time>2026-04-16T08:44:40.848Z</time></trkpt><trkpt lat="42.6440733" lon="-8.26409"><ele>796.0</ele><time>2026-04-16T08:44:41.847Z</time></trkpt><trkpt lat="42.643885" lon="-8.264125"><ele>796.0</ele><time>2026-04-16T08:44:42.848Z</time></trkpt><trkpt lat="42.6437183" lon="-8.2641717"><ele>796.0</ele><time>2026-04-16T08:44:43.848Z</time></trkpt><trkpt lat="42.6435533" lon="-8.2642067"><ele>796.0</ele><time>2026-04-16T08:44:44.848Z</time></trkpt><trkpt lat="42.6433933" lon="-8.2642433"><ele>796.6666666666666</ele><time>2026-04-16T08:44:45.848Z</time></trkpt><trkpt lat="42.64324" lon="-8.26429"><ele>797.3333333333333</ele><time>2026-04-16T08:44:46.848Z</time></trkpt><trkpt lat="42.6431" lon="-8.2643417"><ele>798.0</ele><time>2026-04-16T08:44:47.847Z</time></trkpt><trkpt lat="42.6429567" lon="-8.2643967"><ele>798.0</ele><time>2026-04-16T08:44:48.848Z</time></trkpt><trkpt lat="42.6428117" lon="-8.2644367"><ele>798.0</ele><time>2026-04-16T08:44:49.848Z</time></trkpt><trkpt lat="42.642655" lon="-8.2644667"><ele>798.0</ele><time>2026-04-16T08:44:50.848Z</time></trkpt><trkpt lat="42.6425017" lon="-8.264495"><ele>797.25</ele><time>2026-04-16T08:44:51.848Z</time></trkpt><trkpt lat="42.64235" lon="-8.26452"><ele>796.5</ele><time>2026-04-16T08:44:52.847Z</time></trkpt><trkpt lat="42.6422" lon="-8.2645517"><ele>795.75</ele><time>2026-04-16T08:44:53.848Z</time></trkpt><trkpt lat="42.6420583" lon="-8.26459"><ele>795.0</ele><time>2026-04-16T08:44:54.847Z</time></trkpt><trkpt lat="42.641915" lon="-8.26462"><ele>793.6666666666667</ele><time>2026-04-16T08:44:55.848Z</time></trkpt><trkpt lat="42.64177" lon="-8.26465"><ele>792.3333333333334</ele><time>2026-04-16T08:44:56.847Z</time></trkpt><trkpt lat="42.6416183" lon="-8.2646717"><ele>791.0</ele><time>2026-04-16T08:44:57.848Z</time></trkpt><trkpt lat="42.6414467" lon="-8.2647017"><ele>791.0</ele><time>2026-04-16T08:44:58.847Z</time></trkpt><trkpt lat="42.6412533" lon="-8.2647333"><ele>791.0</ele><time>2026-04-16T08:44:59.847Z</time></trkpt><trkpt lat="42.6410617" lon="-8.26476"><ele>791.0</ele><time>2026-04-16T08:45:00.847Z</time></trkpt><trkpt lat="42.640875" lon="-8.264785"><ele>788.5</ele><time>2026-04-16T08:45:01.848Z</time></trkpt><trkpt lat="42.6407117" lon="-8.264815"><ele>786.0</ele><time>2026-04-16T08:45:02.847Z</time></trkpt><trkpt lat="42.64056" lon="-8.2648517"><ele>783.5</ele><time>2026-04-16T08:45:03.848Z</time></trkpt><trkpt lat="42.6404383" lon="-8.2648867"><ele>781.0</ele><time>2026-04-16T08:45:04.847Z</time></trkpt><trkpt lat="42.6403367" lon="-8.2649417"><ele>779.8</ele><time>2026-04-16T08:45:05.847Z</time></trkpt><trkpt lat="42.640265" lon="-8.2650083"><ele>778.5999999999999</ele><time>2026-04-16T08:45:06.848Z</time></trkpt><trkpt lat="42.6402117" lon="-8.2651067"><ele>777.4</ele><time>2026-04-16T08:45:07.847Z</time></trkpt><trkpt lat="42.6401567" lon="-8.2652117"><ele>776.2</ele><time>2026-04-16T08:45:08.848Z</time></trkpt><trkpt lat="42.6400817" lon="-8.2653017"><ele>775.0</ele><time>2026-04-16T08:45:09.848Z</time></trkpt><trkpt lat="42.640005" lon="-8.26539"><ele>775.0</ele><time>2026-04-16T08:45:10.847Z</time></trkpt><trkpt lat="42.6399383" lon="-8.2654983"><ele>775.0</ele><time>2026-04-16T08:45:11.847Z</time></trkpt><trkpt lat="42.6398683" lon="-8.2656317"><ele>775.0</ele><time>2026-04-16T08:45:12.847Z</time></trkpt><trkpt lat="42.6397867" lon="-8.2657833"><ele>775.0</ele><time>2026-04-16T08:45:13.848Z</time></trkpt><trkpt lat="42.639695" lon="-8.2659433"><ele>774.6666666666666</ele><time>2026-04-16T08:45:14.848Z</time></trkpt><trkpt lat="42.6396067" lon="-8.26611"><ele>774.3333333333333</ele><time>2026-04-16T08:45:15.848Z</time></trkpt><trkpt lat="42.63951" lon="-8.2662883"><ele>774.0</ele><time>2026-04-16T08:45:16.847Z</time></trkpt><trkpt lat="42.6394017" lon="-8.2664817"><ele>774.0</ele><time>2026-04-16T08:45:17.848Z</time></trkpt><trkpt lat="42.6392917" lon="-8.2666817"><ele>774.0</ele><time>2026-04-16T08:45:18.847Z</time></trkpt><trkpt lat="42.6391817" lon="-8.266885"><ele>774.0</ele><time>2026-04-16T08:45:19.848Z</time></trkpt><trkpt lat="42.6390683" lon="-8.2670867"><ele>772.6666666666667</ele><time>2026-04-16T08:45:20.847Z</time></trkpt><trkpt lat="42.638955" lon="-8.2673083"><ele>771.3333333333334</ele><time>2026-04-16T08:45:21.848Z</time></trkpt><trkpt lat="42.6388433" lon="-8.26751"><ele>770.0</ele><time>2026-04-16T08:45:22.848Z</time></trkpt><trkpt lat="42.638735" lon="-8.2676933"><ele>770.0</ele><time>2026-04-16T08:45:23.848Z</time></trkpt><trkpt lat="42.63864" lon="-8.267855"><ele>770.0</ele><time>2026-04-16T08:45:24.848Z</time></trkpt><trkpt lat="42.6385517" lon="-8.267995"><ele>770.0</ele><time>2026-04-16T08:45:25.848Z</time></trkpt><trkpt lat="42.6384783" lon="-8.2681183"><ele>770.0</ele><time>2026-04-16T08:45:26.847Z</time></trkpt><trkpt lat="42.638415" lon="-8.2682167"><ele>769.4</ele><time>2026-04-16T08:45:27.847Z</time></trkpt><trkpt lat="42.6383817" lon="-8.2683"><ele>768.8</ele><time>2026-04-16T08:45:28.847Z</time></trkpt><trkpt lat="42.6384017" lon="-8.2684"><ele>768.2</ele><time>2026-04-16T08:45:30.847Z</time></trkpt><trkpt lat="42.6385433" lon="-8.2684267"><ele>767.6</ele><time>2026-04-16T08:45:32.847Z</time></trkpt><trkpt lat="42.6386733" lon="-8.2684233"><ele>767.0</ele><time>2026-04-16T08:45:33.848Z</time></trkpt><trkpt lat="42.6388133" lon="-8.2684267"><ele>766.25</ele><time>2026-04-16T08:45:34.847Z</time></trkpt><trkpt lat="42.6389467" lon="-8.26844"><ele>765.5</ele><time>2026-04-16T08:45:35.848Z</time></trkpt><trkpt lat="42.6390683" lon="-8.2684633"><ele>764.75</ele><time>2026-04-16T08:45:36.847Z</time></trkpt><trkpt lat="42.6391867" lon="-8.26849"><ele>764.0</ele><time>2026-04-16T08:45:37.848Z</time></trkpt><trkpt lat="42.6392983" lon="-8.2685183"><ele>764.0</ele><time>2026-04-16T08:45:38.848Z</time></trkpt><trkpt lat="42.63941" lon="-8.268585"><ele>764.0</ele><time>2026-04-16T08:45:39.848Z</time></trkpt><trkpt lat="42.6395083" lon="-8.268655"><ele>764.0</ele><time>2026-04-16T08:45:40.847Z</time></trkpt><trkpt lat="42.6396" lon="-8.2687417"><ele>764.0</ele><time>2026-04-16T08:45:41.847Z</time></trkpt><trkpt lat="42.6396867" lon="-8.26883"><ele>762.4000000000001</ele><time>2026-04-16T08:45:42.848Z</time></trkpt><trkpt lat="42.639775" lon="-8.268925"><ele>760.8</ele><time>2026-04-16T08:45:43.848Z</time></trkpt><trkpt lat="42.6398583" lon="-8.2690117"><ele>759.2</ele><time>2026-04-16T08:45:44.848Z</time></trkpt><trkpt lat="42.6399417" lon="-8.2691067"><ele>757.5999999999999</ele><time>2026-04-16T08:45:45.847Z</time></trkpt><trkpt lat="42.6400233" lon="-8.2691933"><ele>756.0</ele><time>2026-04-16T08:45:46.848Z</time></trkpt><trkpt lat="42.6401" lon="-8.2692833"><ele>755.0</ele><time>2026-04-16T08:45:47.848Z</time></trkpt><trkpt lat="42.6401783" lon="-8.2693683"><ele>754.0</ele><time>2026-04-16T08:45:48.848Z</time></trkpt><trkpt lat="42.6402483" lon="-8.2694617"><ele>753.0</ele><time>2026-04-16T08:45:49.848Z</time></trkpt><trkpt lat="42.6403333" lon="-8.26955"><ele>752.0</ele><time>2026-04-16T08:45:50.847Z</time></trkpt><trkpt lat="42.6404133" lon="-8.2696433"><ele>751.0</ele><time>2026-04-16T08:45:51.848Z</time></trkpt><trkpt lat="42.64049" lon="-8.2697217"><ele>750.5</ele><time>2026-04-16T08:45:52.847Z</time></trkpt><trkpt lat="42.6405633" lon="-8.2697967"><ele>750.0</ele><time>2026-04-16T08:45:53.848Z</time></trkpt><trkpt lat="42.6406367" lon="-8.269865"><ele>749.5</ele><time>2026-04-16T08:45:54.847Z</time></trkpt><trkpt lat="42.6406983" lon="-8.2699267"><ele>749.0</ele><time>2026-04-16T08:45:55.847Z</time></trkpt><trkpt lat="42.640755" lon="-8.269985"><ele>748.5</ele><time>2026-04-16T08:45:56.848Z</time></trkpt><trkpt lat="42.640815" lon="-8.2700433"><ele>748.0</ele><time>2026-04-16T08:45:57.847Z</time></trkpt><trkpt lat="42.6408683" lon="-8.270105"><ele>748.0</ele><time>2026-04-16T08:45:58.848Z</time></trkpt><trkpt lat="42.6409333" lon="-8.27017"><ele>748.0</ele><time>2026-04-16T08:45:59.847Z</time></trkpt><trkpt lat="42.6410067" lon="-8.27024"><ele>748.0</ele><time>2026-04-16T08:46:00.848Z</time></trkpt><trkpt lat="42.641085" lon="-8.270315"><ele>748.0</ele><time>2026-04-16T08:46:01.848Z</time></trkpt><trkpt lat="42.6411583" lon="-8.270395"><ele>748.0</ele><time>2026-04-16T08:46:02.847Z</time></trkpt><trkpt lat="42.6412367" lon="-8.270475"><ele>747.0</ele><time>2026-04-16T08:46:03.848Z</time></trkpt><trkpt lat="42.641325" lon="-8.2705583"><ele>746.0</ele><time>2026-04-16T08:46:04.847Z</time></trkpt><trkpt lat="42.6414167" lon="-8.27064"><ele>745.0</ele><time>2026-04-16T08:46:05.848Z</time></trkpt><trkpt lat="42.6414933" lon="-8.270725"><ele>744.0</ele><time>2026-04-16T08:46:06.847Z</time></trkpt><trkpt lat="42.641585" lon="-8.2708167"><ele>743.0</ele><time>2026-04-16T08:46:07.847Z</time></trkpt><trkpt lat="42.641665" lon="-8.27091"><ele>743.0</ele><time>2026-04-16T08:46:08.847Z</time></trkpt><trkpt lat="42.6417433" lon="-8.271"><ele>743.0</ele><time>2026-04-16T08:46:09.848Z</time></trkpt><trkpt lat="42.6418083" lon="-8.27109"><ele>743.0</ele><time>2026-04-16T08:46:10.848Z</time></trkpt><trkpt lat="42.6418783" lon="-8.2711817"><ele>743.0</ele><time>2026-04-16T08:46:11.847Z</time></trkpt><trkpt lat="42.6419483" lon="-8.2712717"><ele>743.0</ele><time>2026-04-16T08:46:12.847Z</time></trkpt><trkpt lat="42.64202" lon="-8.2713667"><ele>741.5999999999999</ele><time>2026-04-16T08:46:13.848Z</time></trkpt><trkpt lat="42.6420867" lon="-8.2714567"><ele>740.1999999999999</ele><time>2026-04-16T08:46:14.848Z</time></trkpt><trkpt lat="42.6421583" lon="-8.271555"><ele>738.8</ele><time>2026-04-16T08:46:15.848Z</time></trkpt><trkpt lat="42.6422367" lon="-8.2716367"><ele>737.4</ele><time>2026-04-16T08:46:16.848Z</time></trkpt><trkpt lat="42.642305" lon="-8.2717283"><ele>736.0</ele><time>2026-04-16T08:46:17.847Z</time></trkpt><trkpt lat="42.6423733" lon="-8.27183"><ele>736.0</ele><time>2026-04-16T08:46:18.847Z</time></trkpt><trkpt lat="42.64245" lon="-8.271935"><ele>736.0</ele><time>2026-04-16T08:46:19.848Z</time></trkpt><trkpt lat="42.64252" lon="-8.272025"><ele>736.0</ele><time>2026-04-16T08:46:20.847Z</time></trkpt><trkpt lat="42.6425933" lon="-8.27212"><ele>736.0</ele><time>2026-04-16T08:46:21.848Z</time></trkpt><trkpt lat="42.6426667" lon="-8.2722067"><ele>736.0</ele><time>2026-04-16T08:46:22.848Z</time></trkpt><trkpt lat="42.6427317" lon="-8.2722967"><ele>735.0</ele><time>2026-04-16T08:46:23.848Z</time></trkpt><trkpt lat="42.64281" lon="-8.27241"><ele>734.0</ele><time>2026-04-16T08:46:24.848Z</time></trkpt><trkpt lat="42.6428833" lon="-8.272525"><ele>733.0</ele><time>2026-04-16T08:46:25.847Z</time></trkpt><trkpt lat="42.64297" lon="-8.27264"><ele>732.0</ele><time>2026-04-16T08:46:26.848Z</time></trkpt><trkpt lat="42.6430417" lon="-8.27275"><ele>732.0</ele><time>2026-04-16T08:46:27.847Z</time></trkpt><trkpt lat="42.643115" lon="-8.2728683"><ele>732.0</ele><time>2026-04-16T08:46:28.847Z</time></trkpt><trkpt lat="42.6431783" lon="-8.2729817"><ele>732.0</ele><time>2026-04-16T08:46:29.848Z</time></trkpt><trkpt lat="42.6432367" lon="-8.2731067"><ele>732.0</ele><time>2026-04-16T08:46:30.847Z</time></trkpt><trkpt lat="42.6432833" lon="-8.273235"><ele>732.0</ele><time>2026-04-16T08:46:31.847Z</time></trkpt><trkpt lat="42.643305" lon="-8.2733667"><ele>732.6</ele><time>2026-04-16T08:46:32.848Z</time></trkpt><trkpt lat="42.6433283" lon="-8.2735017"><ele>733.2</ele><time>2026-04-16T08:46:33.847Z</time></trkpt><trkpt lat="42.6433617" lon="-8.2736433"><ele>733.8</ele><time>2026-04-16T08:46:34.848Z</time></trkpt><trkpt lat="42.6434" lon="-8.273785"><ele>734.4</ele><time>2026-04-16T08:46:35.847Z</time></trkpt><trkpt lat="42.6434233" lon="-8.2739183"><ele>735.0</ele><time>2026-04-16T08:46:36.848Z</time></trkpt><trkpt lat="42.643455" lon="-8.27404"><ele>735.0</ele><time>2026-04-16T08:46:37.847Z</time></trkpt><trkpt lat="42.6435033" lon="-8.274145"><ele>735.0</ele><time>2026-04-16T08:46:38.847Z</time></trkpt><trkpt lat="42.6435383" lon="-8.27423"><ele>735.0</ele><time>2026-04-16T08:46:39.847Z</time></trkpt><trkpt lat="42.64357" lon="-8.2743383"><ele>735.0</ele><time>2026-04-16T08:46:41.847Z</time></trkpt><trkpt lat="42.6435167" lon="-8.2744067"><ele>735.0</ele><time>2026-04-16T08:46:43.847Z</time></trkpt><trkpt lat="42.6434517" lon="-8.2744367"><ele>735.0</ele><time>2026-04-16T08:46:44.847Z</time></trkpt><trkpt lat="42.6433733" lon="-8.274485"><ele>735.0</ele><time>2026-04-16T08:46:45.847Z</time></trkpt><trkpt lat="42.6432867" lon="-8.274545"><ele>735.0</ele><time>2026-04-16T08:46:46.847Z</time></trkpt><trkpt lat="42.6432033" lon="-8.2746133"><ele>735.0</ele><time>2026-04-16T08:46:47.847Z</time></trkpt><trkpt lat="42.643115" lon="-8.2746767"><ele>735.0</ele><time>2026-04-16T08:46:48.847Z</time></trkpt><trkpt lat="42.6430183" lon="-8.2747533"><ele>735.0</ele><time>2026-04-16T08:46:49.847Z</time></trkpt><trkpt lat="42.6429183" lon="-8.2748367"><ele>734.4</ele><time>2026-04-16T08:46:50.847Z</time></trkpt><trkpt lat="42.6428233" lon="-8.2749117"><ele>733.8</ele><time>2026-04-16T08:46:51.847Z</time></trkpt><trkpt lat="42.64274" lon="-8.2749833"><ele>733.2</ele><time>2026-04-16T08:46:52.848Z</time></trkpt><trkpt lat="42.6426667" lon="-8.2750667"><ele>732.6</ele><time>2026-04-16T08:46:53.847Z</time></trkpt><trkpt lat="42.6426117" lon="-8.2751667"><ele>732.0</ele><time>2026-04-16T08:46:54.847Z</time></trkpt><trkpt lat="42.6425633" lon="-8.27529"><ele>734.2</ele><time>2026-04-16T08:46:55.847Z</time></trkpt><trkpt lat="42.6425183" lon="-8.2754167"><ele>736.4000000000001</ele><time>2026-04-16T08:46:56.848Z</time></trkpt><trkpt lat="42.642485" lon="-8.2755467"><ele>738.5999999999999</ele><time>2026-04-16T08:46:57.847Z</time></trkpt><trkpt lat="42.6424667" lon="-8.275695"><ele>740.8</ele><time>2026-04-16T08:46:58.848Z</time></trkpt><trkpt lat="42.64244" lon="-8.2758433"><ele>743.0</ele><time>2026-04-16T08:46:59.847Z</time></trkpt><trkpt lat="42.6424167" lon="-8.275995"><ele>743.5</ele><time>2026-04-16T08:47:00.848Z</time></trkpt><trkpt lat="42.6423783" lon="-8.2761433"><ele>744.0</ele><time>2026-04-16T08:47:01.847Z</time></trkpt><trkpt lat="42.6423417" lon="-8.2762917"><ele>744.5</ele><time>2026-04-16T08:47:02.847Z</time></trkpt><trkpt lat="42.6423117" lon="-8.27644"><ele>745.0</ele><time>2026-04-16T08:47:03.847Z</time></trkpt><trkpt lat="42.6423033" lon="-8.2765867"><ele>745.6</ele><time>2026-04-16T08:47:04.847Z</time></trkpt><trkpt lat="42.6423217" lon="-8.2767283"><ele>746.2</ele><time>2026-04-16T08:47:05.847Z</time></trkpt><trkpt lat="42.6423717" lon="-8.2768583"><ele>746.8</ele><time>2026-04-16T08:47:06.848Z</time></trkpt><trkpt lat="42.6424367" lon="-8.2769933"><ele>747.4</ele><time>2026-04-16T08:47:07.848Z</time></trkpt><trkpt lat="42.6425083" lon="-8.277115"><ele>748.0</ele><time>2026-04-16T08:47:08.848Z</time></trkpt><trkpt lat="42.6425767" lon="-8.2772283"><ele>749.25</ele><time>2026-04-16T08:47:09.847Z</time></trkpt><trkpt lat="42.6426517" lon="-8.277355"><ele>750.5</ele><time>2026-04-16T08:47:10.848Z</time></trkpt><trkpt lat="42.6427283" lon="-8.27747"><ele>751.75</ele><time>2026-04-16T08:47:11.847Z</time></trkpt><trkpt lat="42.6428033" lon="-8.2775817"><ele>753.0</ele><time>2026-04-16T08:47:12.847Z</time></trkpt><trkpt lat="42.6428917" lon="-8.27769"><ele>750.4</ele><time>2026-04-16T08:47:13.848Z</time></trkpt><trkpt lat="42.642975" lon="-8.2777917"><ele>747.8</ele><time>2026-04-16T08:47:14.847Z</time></trkpt><trkpt lat="42.6430667" lon="-8.2778667"><ele>745.2</ele><time>2026-04-16T08:47:15.848Z</time></trkpt><trkpt lat="42.6431517" lon="-8.277945"><ele>742.6</ele><time>2026-04-16T08:47:16.847Z</time></trkpt><trkpt lat="42.6432467" lon="-8.2780017"><ele>740.0</ele><time>2026-04-16T08:47:17.848Z</time></trkpt><trkpt lat="42.643355" lon="-8.2780483"><ele>740.0</ele><time>2026-04-16T08:47:18.847Z</time></trkpt><trkpt lat="42.64346" lon="-8.27807"><ele>740.0</ele><time>2026-04-16T08:47:19.847Z</time></trkpt><trkpt lat="42.643555" lon="-8.2781133"><ele>740.0</ele><time>2026-04-16T08:47:20.848Z</time></trkpt><trkpt lat="42.6436533" lon="-8.2781633"><ele>740.0</ele><time>2026-04-16T08:47:21.847Z</time></trkpt><trkpt lat="42.64375" lon="-8.2782317"><ele>740.0</ele><time>2026-04-16T08:47:22.848Z</time></trkpt><trkpt lat="42.643825" lon="-8.2783267"><ele>740.8</ele><time>2026-04-16T08:47:23.848Z</time></trkpt><trkpt lat="42.6438783" lon="-8.27845"><ele>741.6</ele><time>2026-04-16T08:47:24.847Z</time></trkpt><trkpt lat="42.6439283" lon="-8.2785767"><ele>742.4000000000001</ele><time>2026-04-16T08:47:25.848Z</time></trkpt><trkpt lat="42.6439633" lon="-8.2787117"><ele>743.2</ele><time>2026-04-16T08:47:26.847Z</time></trkpt><trkpt lat="42.6439917" lon="-8.2788533"><ele>744.0</ele><time>2026-04-16T08:47:27.848Z</time></trkpt><trkpt lat="42.64401" lon="-8.278995"><ele>744.0</ele><time>2026-04-16T08:47:28.848Z</time></trkpt><trkpt lat="42.6440217" lon="-8.2791383"><ele>744.0</ele><time>2026-04-16T08:47:29.847Z</time></trkpt><trkpt lat="42.6440317" lon="-8.2792933"><ele>744.0</ele><time>2026-04-16T08:47:30.848Z</time></trkpt><trkpt lat="42.6440383" lon="-8.2794383"><ele>744.0</ele><time>2026-04-16T08:47:31.847Z</time></trkpt><trkpt lat="42.644045" lon="-8.27958"><ele>744.0</ele><time>2026-04-16T08:47:32.847Z</time></trkpt><trkpt lat="42.6440467" lon="-8.2797283"><ele>744.2</ele><time>2026-04-16T08:47:33.848Z</time></trkpt><trkpt lat="42.6440383" lon="-8.279875"><ele>744.4000000000001</ele><time>2026-04-16T08:47:34.847Z</time></trkpt><trkpt lat="42.6440417" lon="-8.280025"><ele>744.6</ele><time>2026-04-16T08:47:35.847Z</time></trkpt><trkpt lat="42.644045" lon="-8.2801667"><ele>744.8</ele><time>2026-04-16T08:47:36.847Z</time></trkpt><trkpt lat="42.6440517" lon="-8.2803033"><ele>745.0</ele><time>2026-04-16T08:47:37.848Z</time></trkpt><trkpt lat="42.64405" lon="-8.28044"><ele>745.0</ele><time>2026-04-16T08:47:38.847Z</time></trkpt><trkpt lat="42.64405" lon="-8.2805733"><ele>745.0</ele><time>2026-04-16T08:47:39.847Z</time></trkpt><trkpt lat="42.6440467" lon="-8.2807117"><ele>745.0</ele><time>2026-04-16T08:47:40.847Z</time></trkpt><trkpt lat="42.6440367" lon="-8.2808633"><ele>745.0</ele><time>2026-04-16T08:47:41.847Z</time></trkpt><trkpt lat="42.64401" lon="-8.2810133"><ele>745.0</ele><time>2026-04-16T08:47:42.848Z</time></trkpt><trkpt lat="42.6439767" lon="-8.281145"><ele>744.4</ele><time>2026-04-16T08:47:43.847Z</time></trkpt><trkpt lat="42.64393" lon="-8.28127"><ele>743.8</ele><time>2026-04-16T08:47:44.847Z</time></trkpt><trkpt lat="42.64387" lon="-8.2813867"><ele>743.2</ele><time>2026-04-16T08:47:45.847Z</time></trkpt><trkpt lat="42.643805" lon="-8.2815117"><ele>742.6</ele><time>2026-04-16T08:47:46.847Z</time></trkpt><trkpt lat="42.6437383" lon="-8.2816333"><ele>742.0</ele><time>2026-04-16T08:47:47.848Z</time></trkpt><trkpt lat="42.64368" lon="-8.281745"><ele>745.75</ele><time>2026-04-16T08:47:48.847Z</time></trkpt><trkpt lat="42.6436133" lon="-8.2818617"><ele>749.5</ele><time>2026-04-16T08:47:49.847Z</time></trkpt><trkpt lat="42.643545" lon="-8.2819883"><ele>753.25</ele><time>2026-04-16T08:47:50.847Z</time></trkpt><trkpt lat="42.6434683" lon="-8.2821217"><ele>757.0</ele><time>2026-04-16T08:47:51.847Z</time></trkpt><trkpt lat="42.6433883" lon="-8.2822467"><ele>755.75</ele><time>2026-04-16T08:47:52.848Z</time></trkpt><trkpt lat="42.6433017" lon="-8.2823633"><ele>754.5</ele><time>2026-04-16T08:47:53.848Z</time></trkpt><trkpt lat="42.64321" lon="-8.2824633"><ele>753.25</ele><time>2026-04-16T08:47:54.848Z</time></trkpt><trkpt lat="42.6431183" lon="-8.2825317"><ele>752.0</ele><time>2026-04-16T08:47:55.848Z</time></trkpt><trkpt lat="42.643025" lon="-8.282605"><ele>752.0</ele><time>2026-04-16T08:47:56.848Z</time></trkpt><trkpt lat="42.6429333" lon="-8.2826917"><ele>752.0</ele><time>2026-04-16T08:47:57.847Z</time></trkpt><trkpt lat="42.6428417" lon="-8.2827933"><ele>752.0</ele><time>2026-04-16T08:47:58.848Z</time></trkpt><trkpt lat="42.6427367" lon="-8.2828933"><ele>752.0</ele><time>2026-04-16T08:47:59.848Z</time></trkpt><trkpt lat="42.64264" lon="-8.2829883"><ele>754.2</ele><time>2026-04-16T08:48:00.848Z</time></trkpt><trkpt lat="42.6425517" lon="-8.2830817"><ele>756.4000000000001</ele><time>2026-04-16T08:48:01.848Z</time></trkpt><trkpt lat="42.642465" lon="-8.283165"><ele>758.5999999999999</ele><time>2026-04-16T08:48:02.847Z</time></trkpt><trkpt lat="42.64237" lon="-8.283225"><ele>760.8</ele><time>2026-04-16T08:48:03.848Z</time></trkpt><trkpt lat="42.6422717" lon="-8.2832417"><ele>763.0</ele><time>2026-04-16T08:48:04.847Z</time></trkpt><trkpt lat="42.642165" lon="-8.2832333"><ele>763.0</ele><time>2026-04-16T08:48:05.847Z</time></trkpt><trkpt lat="42.6420567" lon="-8.2832033"><ele>763.0</ele><time>2026-04-16T08:48:06.848Z</time></trkpt><trkpt lat="42.6419433" lon="-8.2831833"><ele>763.0</ele><time>2026-04-16T08:48:07.847Z</time></trkpt><trkpt lat="42.6418283" lon="-8.28316"><ele>763.0</ele><time>2026-04-16T08:48:08.848Z</time></trkpt><trkpt lat="42.6417083" lon="-8.283145"><ele>764.25</ele><time>2026-04-16T08:48:09.847Z</time></trkpt><trkpt lat="42.6415883" lon="-8.283135"><ele>765.5</ele><time>2026-04-16T08:48:10.848Z</time></trkpt><trkpt lat="42.6414733" lon="-8.2831217"><ele>766.75</ele><time>2026-04-16T08:48:11.847Z</time></trkpt><trkpt lat="42.64136" lon="-8.283105"><ele>768.0</ele><time>2026-04-16T08:48:12.847Z</time></trkpt><trkpt lat="42.6412467" lon="-8.2830967"><ele>769.25</ele><time>2026-04-16T08:48:13.847Z</time></trkpt><trkpt lat="42.64113" lon="-8.2830867"><ele>770.5</ele><time>2026-04-16T08:48:14.848Z</time></trkpt><trkpt lat="42.641015" lon="-8.283085"><ele>771.75</ele><time>2026-04-16T08:48:15.848Z</time></trkpt><trkpt lat="42.6408983" lon="-8.2830867"><ele>773.0</ele><time>2026-04-16T08:48:16.847Z</time></trkpt><trkpt lat="42.6407783" lon="-8.2830983"><ele>773.0</ele><time>2026-04-16T08:48:17.847Z</time></trkpt><trkpt lat="42.6406617" lon="-8.2831233"><ele>773.0</ele><time>2026-04-16T08:48:18.847Z</time></trkpt><trkpt lat="42.6405533" lon="-8.2831667"><ele>773.0</ele><time>2026-04-16T08:48:19.848Z</time></trkpt><trkpt lat="42.6404433" lon="-8.28321"><ele>773.0</ele><time>2026-04-16T08:48:20.847Z</time></trkpt><trkpt lat="42.640335" lon="-8.283275"><ele>774.5</ele><time>2026-04-16T08:48:21.848Z</time></trkpt><trkpt lat="42.6402367" lon="-8.2833517"><ele>776.0</ele><time>2026-04-16T08:48:22.847Z</time></trkpt><trkpt lat="42.6401383" lon="-8.28342"><ele>777.5</ele><time>2026-04-16T08:48:23.847Z</time></trkpt><trkpt lat="42.6400317" lon="-8.2835117"><ele>779.0</ele><time>2026-04-16T08:48:24.847Z</time></trkpt><trkpt lat="42.639925" lon="-8.28359"><ele>779.0</ele><time>2026-04-16T08:48:25.848Z</time></trkpt><trkpt lat="42.6398183" lon="-8.2836767"><ele>779.0</ele><time>2026-04-16T08:48:26.848Z</time></trkpt><trkpt lat="42.6397183" lon="-8.283775"><ele>779.0</ele><time>2026-04-16T08:48:27.848Z</time></trkpt><trkpt lat="42.6396167" lon="-8.2838683"><ele>779.0</ele><time>2026-04-16T08:48:28.848Z</time></trkpt><trkpt lat="42.6395233" lon="-8.2839633"><ele>778.25</ele><time>2026-04-16T08:48:29.848Z</time></trkpt><trkpt lat="42.6394333" lon="-8.28407"><ele>777.5</ele><time>2026-04-16T08:48:30.847Z</time></trkpt><trkpt lat="42.6393533" lon="-8.284175"><ele>776.75</ele><time>2026-04-16T08:48:31.847Z</time></trkpt><trkpt lat="42.63927" lon="-8.2843"><ele>776.0</ele><time>2026-04-16T08:48:32.847Z</time></trkpt><trkpt lat="42.6391817" lon="-8.284425"><ele>776.0</ele><time>2026-04-16T08:48:33.849Z</time></trkpt><trkpt lat="42.6391033" lon="-8.2845433"><ele>776.0</ele><time>2026-04-16T08:48:34.848Z</time></trkpt><trkpt lat="42.63903" lon="-8.2846583"><ele>776.0</ele><time>2026-04-16T08:48:35.848Z</time></trkpt><trkpt lat="42.6389533" lon="-8.2847733"><ele>776.0</ele><time>2026-04-16T08:48:36.848Z</time></trkpt><trkpt lat="42.63887" lon="-8.28488"><ele>776.5</ele><time>2026-04-16T08:48:37.848Z</time></trkpt><trkpt lat="42.6387933" lon="-8.2849933"><ele>777.0</ele><time>2026-04-16T08:48:38.849Z</time></trkpt><trkpt lat="42.6387083" lon="-8.2851033"><ele>777.5</ele><time>2026-04-16T08:48:39.848Z</time></trkpt><trkpt lat="42.6386317" lon="-8.285215"><ele>778.0</ele><time>2026-04-16T08:48:40.848Z</time></trkpt><trkpt lat="42.638555" lon="-8.2853317"><ele>778.25</ele><time>2026-04-16T08:48:41.849Z</time></trkpt><trkpt lat="42.6384783" lon="-8.2854483"><ele>778.5</ele><time>2026-04-16T08:48:42.849Z</time></trkpt><trkpt lat="42.6384017" lon="-8.2855617"><ele>778.75</ele><time>2026-04-16T08:48:43.848Z</time></trkpt><trkpt lat="42.638325" lon="-8.2856817"><ele>779.0</ele><time>2026-04-16T08:48:44.849Z</time></trkpt><trkpt lat="42.6382467" lon="-8.2858067"><ele>780.25</ele><time>2026-04-16T08:48:45.848Z</time></trkpt><trkpt lat="42.63816" lon="-8.2859317"><ele>781.5</ele><time>2026-04-16T08:48:46.849Z</time></trkpt><trkpt lat="42.63807" lon="-8.2860433"><ele>782.75</ele><time>2026-04-16T08:48:47.849Z</time></trkpt><trkpt lat="42.637975" lon="-8.2861433"><ele>784.0</ele><time>2026-04-16T08:48:48.848Z</time></trkpt><trkpt lat="42.63787" lon="-8.28624"><ele>783.75</ele><time>2026-04-16T08:48:49.848Z</time></trkpt><trkpt lat="42.6377667" lon="-8.28632"><ele>783.5</ele><time>2026-04-16T08:48:50.848Z</time></trkpt><trkpt lat="42.6376583" lon="-8.28639"><ele>783.25</ele><time>2026-04-16T08:48:51.848Z</time></trkpt><trkpt lat="42.6375383" lon="-8.2864567"><ele>783.0</ele><time>2026-04-16T08:48:52.849Z</time></trkpt><trkpt lat="42.6374133" lon="-8.2865117"><ele>784.0</ele><time>2026-04-16T08:48:53.848Z</time></trkpt><trkpt lat="42.6373033" lon="-8.2865667"><ele>785.0</ele><time>2026-04-16T08:48:54.849Z</time></trkpt><trkpt lat="42.6372067" lon="-8.2866133"><ele>786.0</ele><time>2026-04-16T08:48:55.849Z</time></trkpt><trkpt lat="42.6370983" lon="-8.2866683"><ele>787.0</ele><time>2026-04-16T08:48:56.848Z</time></trkpt><trkpt lat="42.636995" lon="-8.2867233"><ele>788.0</ele><time>2026-04-16T08:48:57.849Z</time></trkpt><trkpt lat="42.63689" lon="-8.286785"><ele>788.0</ele><time>2026-04-16T08:48:58.848Z</time></trkpt><trkpt lat="42.6367883" lon="-8.2868317"><ele>788.0</ele><time>2026-04-16T08:48:59.849Z</time></trkpt><trkpt lat="42.63669" lon="-8.2868767"><ele>788.0</ele><time>2026-04-16T08:49:00.849Z</time></trkpt><trkpt lat="42.6365917" lon="-8.2869217"><ele>788.0</ele><time>2026-04-16T08:49:01.849Z</time></trkpt><trkpt lat="42.636485" lon="-8.2869717"><ele>788.0</ele><time>2026-04-16T08:49:02.849Z</time></trkpt><trkpt lat="42.6363767" lon="-8.2870183"><ele>788.0</ele><time>2026-04-16T08:49:03.849Z</time></trkpt><trkpt lat="42.63627" lon="-8.2870717"><ele>788.0</ele><time>2026-04-16T08:49:04.849Z</time></trkpt><trkpt lat="42.636155" lon="-8.287125"><ele>788.0</ele><time>2026-04-16T08:49:05.848Z</time></trkpt><trkpt lat="42.6360433" lon="-8.287185"><ele>788.0</ele><time>2026-04-16T08:49:06.848Z</time></trkpt><trkpt lat="42.635935" lon="-8.2872467"><ele>789.5</ele><time>2026-04-16T08:49:07.848Z</time></trkpt><trkpt lat="42.6358283" lon="-8.287315"><ele>791.0</ele><time>2026-04-16T08:49:08.848Z</time></trkpt><trkpt lat="42.6357167" lon="-8.287385"><ele>792.5</ele><time>2026-04-16T08:49:09.849Z</time></trkpt><trkpt lat="42.63561" lon="-8.287465"><ele>794.0</ele><time>2026-04-16T08:49:10.849Z</time></trkpt><trkpt lat="42.6355067" lon="-8.287545"><ele>794.0</ele><time>2026-04-16T08:49:11.849Z</time></trkpt><trkpt lat="42.635405" lon="-8.2876333"><ele>794.0</ele><time>2026-04-16T08:49:12.849Z</time></trkpt><trkpt lat="42.6353133" lon="-8.2877217"><ele>794.0</ele><time>2026-04-16T08:49:13.848Z</time></trkpt><trkpt lat="42.635215" lon="-8.28781"><ele>794.0</ele><time>2026-04-16T08:49:14.848Z</time></trkpt><trkpt lat="42.63512" lon="-8.2878933"><ele>794.75</ele><time>2026-04-16T08:49:15.848Z</time></trkpt><trkpt lat="42.63503" lon="-8.2879783"><ele>795.5</ele><time>2026-04-16T08:49:16.849Z</time></trkpt><trkpt lat="42.6349383" lon="-8.2880533"><ele>796.25</ele><time>2026-04-16T08:49:17.848Z</time></trkpt><trkpt lat="42.6348383" lon="-8.2881333"><ele>797.0</ele><time>2026-04-16T08:49:18.848Z</time></trkpt><trkpt lat="42.6347383" lon="-8.28822"><ele>797.0</ele><time>2026-04-16T08:49:19.848Z</time></trkpt><trkpt lat="42.6346567" lon="-8.2883267"><ele>797.0</ele><time>2026-04-16T08:49:20.848Z</time></trkpt><trkpt lat="42.6345717" lon="-8.2884467"><ele>797.0</ele><time>2026-04-16T08:49:21.848Z</time></trkpt><trkpt lat="42.6344867" lon="-8.2885617"><ele>797.0</ele><time>2026-04-16T08:49:22.849Z</time></trkpt><trkpt lat="42.63441" lon="-8.2886317"><ele>797.0</ele><time>2026-04-16T08:49:23.849Z</time></trkpt><trkpt lat="42.6343383" lon="-8.2886717"><ele>796.6</ele><time>2026-04-16T08:49:24.848Z</time></trkpt><trkpt lat="42.634255" lon="-8.2886867"><ele>796.2</ele><time>2026-04-16T08:49:25.849Z</time></trkpt><trkpt lat="42.63416" lon="-8.28872"><ele>795.8</ele><time>2026-04-16T08:49:26.848Z</time></trkpt><trkpt lat="42.6340483" lon="-8.288775"><ele>795.4</ele><time>2026-04-16T08:49:27.848Z</time></trkpt><trkpt lat="42.6339233" lon="-8.2888517"><ele>795.0</ele><time>2026-04-16T08:49:28.849Z</time></trkpt><trkpt lat="42.6338067" lon="-8.2889317"><ele>795.0</ele><time>2026-04-16T08:49:29.848Z</time></trkpt><trkpt lat="42.63367" lon="-8.2890283"><ele>795.0</ele><time>2026-04-16T08:49:30.848Z</time></trkpt><trkpt lat="42.6335083" lon="-8.2891233"><ele>795.0</ele><time>2026-04-16T08:49:31.848Z</time></trkpt><trkpt lat="42.6333417" lon="-8.2892133"><ele>792.6666666666667</ele><time>2026-04-16T08:49:32.848Z</time></trkpt><trkpt lat="42.6331833" lon="-8.289295"><ele>790.3333333333334</ele><time>2026-04-16T08:49:33.849Z</time></trkpt><trkpt lat="42.6330433" lon="-8.2893717"><ele>788.0</ele><time>2026-04-16T08:49:34.849Z</time></trkpt><trkpt lat="42.632905" lon="-8.289425"><ele>786.75</ele><time>2026-04-16T08:49:35.849Z</time></trkpt><trkpt lat="42.6327717" lon="-8.28948"><ele>785.5</ele><time>2026-04-16T08:49:36.849Z</time></trkpt><trkpt lat="42.632635" lon="-8.28954"><ele>784.25</ele><time>2026-04-16T08:49:37.848Z</time></trkpt><trkpt lat="42.6325117" lon="-8.2896217"><ele>783.0</ele><time>2026-04-16T08:49:38.849Z</time></trkpt><trkpt lat="42.6324067" lon="-8.28972"><ele>782.75</ele><time>2026-04-16T08:49:39.849Z</time></trkpt><trkpt lat="42.63231" lon="-8.28984"><ele>782.5</ele><time>2026-04-16T08:49:40.848Z</time></trkpt><trkpt lat="42.6322267" lon="-8.2899917"><ele>782.25</ele><time>2026-04-16T08:49:41.849Z</time></trkpt><trkpt lat="42.632145" lon="-8.2901767"><ele>782.0</ele><time>2026-04-16T08:49:42.849Z</time></trkpt><trkpt lat="42.63206" lon="-8.29038"><ele>782.0</ele><time>2026-04-16T08:49:43.849Z</time></trkpt><trkpt lat="42.6319883" lon="-8.290565"><ele>782.0</ele><time>2026-04-16T08:49:44.849Z</time></trkpt><trkpt lat="42.631925" lon="-8.2907283"><ele>782.0</ele><time>2026-04-16T08:49:45.848Z</time></trkpt><trkpt lat="42.63186" lon="-8.2908633"><ele>782.0</ele><time>2026-04-16T08:49:46.848Z</time></trkpt><trkpt lat="42.631805" lon="-8.29097"><ele>780.0000000000001</ele><time>2026-04-16T08:49:47.849Z</time></trkpt><trkpt lat="42.63178" lon="-8.29105"><ele>778.0</ele><time>2026-04-16T08:49:48.848Z</time></trkpt><trkpt lat="42.63178" lon="-8.2911633"><ele>776.0</ele><time>2026-04-16T08:49:50.848Z</time></trkpt><trkpt lat="42.6317917" lon="-8.2912617"><ele>774.0</ele><time>2026-04-16T08:49:51.848Z</time></trkpt><trkpt lat="42.6318133" lon="-8.2913633"><ele>772.0000000000001</ele><time>2026-04-16T08:49:52.848Z</time></trkpt><trkpt lat="42.6318433" lon="-8.2914583"><ele>770.0</ele><time>2026-04-16T08:49:53.848Z</time></trkpt><trkpt lat="42.6318867" lon="-8.291545"><ele>770.0000000000001</ele><time>2026-04-16T08:49:54.849Z</time></trkpt><trkpt lat="42.6319383" lon="-8.291615"><ele>770.0</ele><time>2026-04-16T08:49:55.848Z</time></trkpt><trkpt lat="42.6320217" lon="-8.2916833"><ele>770.0</ele><time>2026-04-16T08:49:57.848Z</time></trkpt><trkpt lat="42.6321033" lon="-8.2916917"><ele>770.0</ele><time>2026-04-16T08:50:04.848Z</time></trkpt><trkpt lat="42.6321917" lon="-8.291625"><ele>770.0000000000001</ele><time>2026-04-16T08:50:06.849Z</time></trkpt><trkpt lat="42.63225" lon="-8.2915583"><ele>770.0</ele><time>2026-04-16T08:50:07.849Z</time></trkpt><trkpt lat="42.6323367" lon="-8.2914633"><ele>772.0</ele><time>2026-04-16T08:50:08.849Z</time></trkpt><trkpt lat="42.6324383" lon="-8.29136"><ele>774.0</ele><time>2026-04-16T08:50:09.848Z</time></trkpt><trkpt lat="42.6325933" lon="-8.2912267"><ele>776.0</ele><time>2026-04-16T08:50:10.848Z</time></trkpt><trkpt lat="42.6327583" lon="-8.2911067"><ele>778.0</ele><time>2026-04-16T08:50:11.848Z</time></trkpt><trkpt lat="42.63292" lon="-8.291005"><ele>780.0</ele><time>2026-04-16T08:50:12.848Z</time></trkpt><trkpt lat="42.633065" lon="-8.2909283"><ele>782.0</ele><time>2026-04-16T08:50:13.849Z</time></trkpt><trkpt lat="42.6331733" lon="-8.2908933"><ele>784.0</ele><time>2026-04-16T08:50:14.848Z</time></trkpt><trkpt lat="42.6332733" lon="-8.2909683"><ele>784.0</ele><time>2026-04-16T08:50:16.848Z</time></trkpt><trkpt lat="42.6333383" lon="-8.291045"><ele>784.0</ele><time>2026-04-16T08:50:17.848Z</time></trkpt><trkpt lat="42.6334317" lon="-8.29111"><ele>784.0</ele><time>2026-04-16T08:50:18.848Z</time></trkpt><trkpt lat="42.6335367" lon="-8.2911517"><ele>784.0</ele><time>2026-04-16T08:50:19.849Z</time></trkpt><trkpt lat="42.63365" lon="-8.2911917"><ele>784.0</ele><time>2026-04-16T08:50:20.849Z</time></trkpt><trkpt lat="42.6337533" lon="-8.2912233"><ele>784.4000000000001</ele><time>2026-04-16T08:50:21.848Z</time></trkpt><trkpt lat="42.6338333" lon="-8.2912567"><ele>784.8</ele><time>2026-04-16T08:50:22.848Z</time></trkpt><trkpt lat="42.6338817" lon="-8.2913183"><ele>785.2</ele><time>2026-04-16T08:50:23.848Z</time></trkpt><trkpt lat="42.6338883" lon="-8.2914733"><ele>785.5999999999999</ele><time>2026-04-16T08:50:25.849Z</time></trkpt><trkpt lat="42.633835" lon="-8.2916333"><ele>786.0</ele><time>2026-04-16T08:50:27.848Z</time></trkpt><trkpt lat="42.6337783" lon="-8.29174"><ele>786.0</ele><time>2026-04-16T08:50:28.849Z</time></trkpt><trkpt lat="42.6336983" lon="-8.2918683"><ele>786.0</ele><time>2026-04-16T08:50:29.849Z</time></trkpt><trkpt lat="42.63364" lon="-8.29202"><ele>786.0</ele><time>2026-04-16T08:50:30.849Z</time></trkpt><trkpt lat="42.6336067" lon="-8.29217"><ele>786.0</ele><time>2026-04-16T08:50:31.849Z</time></trkpt><trkpt lat="42.6335883" lon="-8.2923283"><ele>786.5</ele><time>2026-04-16T08:50:32.848Z</time></trkpt><trkpt lat="42.63358" lon="-8.292475"><ele>787.0</ele><time>2026-04-16T08:50:33.848Z</time></trkpt><trkpt lat="42.6335867" lon="-8.2925917"><ele>787.5</ele><time>2026-04-16T08:50:34.848Z</time></trkpt><trkpt lat="42.6336167" lon="-8.2926833"><ele>788.0</ele><time>2026-04-16T08:50:35.848Z</time></trkpt><trkpt lat="42.6336833" lon="-8.2927467"><ele>788.5</ele><time>2026-04-16T08:50:36.848Z</time></trkpt><trkpt lat="42.633765" lon="-8.292805"><ele>789.0</ele><time>2026-04-16T08:50:37.849Z</time></trkpt><trkpt lat="42.633865" lon="-8.2928733"><ele>789.0</ele><time>2026-04-16T08:50:38.849Z</time></trkpt><trkpt lat="42.6339567" lon="-8.2929617"><ele>789.0</ele><time>2026-04-16T08:50:39.849Z</time></trkpt><trkpt lat="42.6340467" lon="-8.2930483"><ele>789.0</ele><time>2026-04-16T08:50:40.848Z</time></trkpt><trkpt lat="42.6341417" lon="-8.2931183"><ele>789.0</ele><time>2026-04-16T08:50:41.849Z</time></trkpt><trkpt lat="42.6342333" lon="-8.2931867"><ele>789.0</ele><time>2026-04-16T08:50:42.848Z</time></trkpt><trkpt lat="42.634295" lon="-8.2932583"><ele>789.4000000000001</ele><time>2026-04-16T08:50:43.849Z</time></trkpt><trkpt lat="42.6343067" lon="-8.2934167"><ele>789.8</ele><time>2026-04-16T08:50:45.848Z</time></trkpt><trkpt lat="42.6342567" lon="-8.2934833"><ele>790.2</ele><time>2026-04-16T08:50:46.849Z</time></trkpt><trkpt lat="42.6341867" lon="-8.2935433"><ele>790.5999999999999</ele><time>2026-04-16T08:50:47.848Z</time></trkpt><trkpt lat="42.6340967" lon="-8.2936017"><ele>791.0</ele><time>2026-04-16T08:50:48.848Z</time></trkpt><trkpt lat="42.6340083" lon="-8.293655"><ele>791.0</ele><time>2026-04-16T08:50:49.848Z</time></trkpt><trkpt lat="42.6339317" lon="-8.2937383"><ele>791.0</ele><time>2026-04-16T08:50:50.848Z</time></trkpt><trkpt lat="42.6338683" lon="-8.2938383"><ele>791.0</ele><time>2026-04-16T08:50:51.849Z</time></trkpt><trkpt lat="42.633805" lon="-8.293955"><ele>791.0</ele><time>2026-04-16T08:50:52.848Z</time></trkpt><trkpt lat="42.6337433" lon="-8.2940867"><ele>791.0</ele><time>2026-04-16T08:50:53.848Z</time></trkpt><trkpt lat="42.6336867" lon="-8.29422"><ele>789.5999999999999</ele><time>2026-04-16T08:50:54.849Z</time></trkpt><trkpt lat="42.633635" lon="-8.29435"><ele>788.2</ele><time>2026-04-16T08:50:55.849Z</time></trkpt><trkpt lat="42.6335883" lon="-8.29447"><ele>786.8</ele><time>2026-04-16T08:50:56.848Z</time></trkpt><trkpt lat="42.6335483" lon="-8.294585"><ele>785.4000000000001</ele><time>2026-04-16T08:50:57.848Z</time></trkpt><trkpt lat="42.6335283" lon="-8.2947117"><ele>784.0</ele><time>2026-04-16T08:50:58.849Z</time></trkpt><trkpt lat="42.6335117" lon="-8.2948617"><ele>782.75</ele><time>2026-04-16T08:50:59.849Z</time></trkpt><trkpt lat="42.6335033" lon="-8.29503"><ele>781.5</ele><time>2026-04-16T08:51:00.849Z</time></trkpt><trkpt lat="42.633505" lon="-8.2952083"><ele>780.25</ele><time>2026-04-16T08:51:01.849Z</time></trkpt><trkpt lat="42.633505" lon="-8.2953917"><ele>779.0</ele><time>2026-04-16T08:51:02.849Z</time></trkpt><trkpt lat="42.6334983" lon="-8.2955617"><ele>776.75</ele><time>2026-04-16T08:51:03.848Z</time></trkpt><trkpt lat="42.633485" lon="-8.2957267"><ele>774.5</ele><time>2026-04-16T08:51:04.848Z</time></trkpt><trkpt lat="42.6334683" lon="-8.2958833"><ele>772.25</ele><time>2026-04-16T08:51:05.849Z</time></trkpt><trkpt lat="42.6334567" lon="-8.2960333"><ele>770.0</ele><time>2026-04-16T08:51:06.848Z</time></trkpt><trkpt lat="42.6334567" lon="-8.29617"><ele>770.0</ele><time>2026-04-16T08:51:07.849Z</time></trkpt><trkpt lat="42.6334617" lon="-8.296305"><ele>770.0</ele><time>2026-04-16T08:51:08.849Z</time></trkpt><trkpt lat="42.6334567" lon="-8.2964433"><ele>770.0</ele><time>2026-04-16T08:51:09.849Z</time></trkpt><trkpt lat="42.6334333" lon="-8.2965767"><ele>770.0</ele><time>2026-04-16T08:51:10.848Z</time></trkpt><trkpt lat="42.6333933" lon="-8.29672"><ele>770.0</ele><time>2026-04-16T08:51:11.849Z</time></trkpt><trkpt lat="42.63334" lon="-8.2968967"><ele>768.5</ele><time>2026-04-16T08:51:12.848Z</time></trkpt><trkpt lat="42.6332917" lon="-8.2970767"><ele>767.0</ele><time>2026-04-16T08:51:13.849Z</time></trkpt><trkpt lat="42.633255" lon="-8.2972583"><ele>765.5</ele><time>2026-04-16T08:51:14.848Z</time></trkpt><trkpt lat="42.6332283" lon="-8.2974383"><ele>764.0</ele><time>2026-04-16T08:51:15.848Z</time></trkpt><trkpt lat="42.6331867" lon="-8.2976067"><ele>763.5</ele><time>2026-04-16T08:51:16.848Z</time></trkpt><trkpt lat="42.633135" lon="-8.29775"><ele>763.0</ele><time>2026-04-16T08:51:17.849Z</time></trkpt><trkpt lat="42.63309" lon="-8.2978783"><ele>762.5</ele><time>2026-04-16T08:51:18.849Z</time></trkpt><trkpt lat="42.633035" lon="-8.29796"><ele>762.0</ele><time>2026-04-16T08:51:19.849Z</time></trkpt><trkpt lat="42.63299" lon="-8.2980233"><ele>761.5</ele><time>2026-04-16T08:51:20.848Z</time></trkpt><trkpt lat="42.6330267" lon="-8.2981117"><ele>761.0</ele><time>2026-04-16T08:51:23.848Z</time></trkpt><trkpt lat="42.6331033" lon="-8.2981333"><ele>759.5999999999999</ele><time>2026-04-16T08:51:24.848Z</time></trkpt><trkpt lat="42.6332033" lon="-8.29816"><ele>758.2</ele><time>2026-04-16T08:51:25.848Z</time></trkpt><trkpt lat="42.63332" lon="-8.2981967"><ele>756.8</ele><time>2026-04-16T08:51:26.848Z</time></trkpt><trkpt lat="42.6334283" lon="-8.2982433"><ele>755.4000000000001</ele><time>2026-04-16T08:51:27.849Z</time></trkpt><trkpt lat="42.6335133" lon="-8.2982883"><ele>754.0</ele><time>2026-04-16T08:51:28.849Z</time></trkpt><trkpt lat="42.6335683" lon="-8.29834"><ele>754.0</ele><time>2026-04-16T08:51:29.849Z</time></trkpt><trkpt lat="42.6335733" lon="-8.2985"><ele>754.0</ele><time>2026-04-16T08:51:31.849Z</time></trkpt><trkpt lat="42.633535" lon="-8.29862"><ele>754.0</ele><time>2026-04-16T08:51:32.849Z</time></trkpt><trkpt lat="42.633475" lon="-8.2987833"><ele>754.0</ele><time>2026-04-16T08:51:33.849Z</time></trkpt><trkpt lat="42.6333967" lon="-8.298985"><ele>751.6666666666667</ele><time>2026-04-16T08:51:34.848Z</time></trkpt><trkpt lat="42.6333083" lon="-8.29921"><ele>749.3333333333334</ele><time>2026-04-16T08:51:35.849Z</time></trkpt><trkpt lat="42.633205" lon="-8.2994583"><ele>747.0</ele><time>2026-04-16T08:51:36.849Z</time></trkpt><trkpt lat="42.6330817" lon="-8.2997233"><ele>743.5</ele><time>2026-04-16T08:51:37.848Z</time></trkpt><trkpt lat="42.6329517" lon="-8.2999867"><ele>740.0</ele><time>2026-04-16T08:51:38.849Z</time></trkpt><trkpt lat="42.63282" lon="-8.3002217"><ele>741.3333333333333</ele><time>2026-04-16T08:51:39.849Z</time></trkpt><trkpt lat="42.6327" lon="-8.3004317"><ele>742.6666666666666</ele><time>2026-04-16T08:51:40.849Z</time></trkpt><trkpt lat="42.632585" lon="-8.3006317"><ele>744.0</ele><time>2026-04-16T08:51:41.848Z</time></trkpt><trkpt lat="42.632475" lon="-8.3008383"><ele>744.0</ele><time>2026-04-16T08:51:42.848Z</time></trkpt><trkpt lat="42.6323533" lon="-8.3010367"><ele>744.0</ele><time>2026-04-16T08:51:43.849Z</time></trkpt><trkpt lat="42.6322217" lon="-8.30125"><ele>744.0</ele><time>2026-04-16T08:51:44.848Z</time></trkpt><trkpt lat="42.63209" lon="-8.3014783"><ele>742.0</ele><time>2026-04-16T08:51:45.849Z</time></trkpt><trkpt lat="42.6319467" lon="-8.30172"><ele>740.0</ele><time>2026-04-16T08:51:46.848Z</time></trkpt><trkpt lat="42.631795" lon="-8.3019833"><ele>740.0</ele><time>2026-04-16T08:51:47.849Z</time></trkpt><trkpt lat="42.63166" lon="-8.302235"><ele>740.0</ele><time>2026-04-16T08:51:48.849Z</time></trkpt><trkpt lat="42.6315367" lon="-8.3024517"><ele>740.0</ele><time>2026-04-16T08:51:49.849Z</time></trkpt><trkpt lat="42.6314317" lon="-8.3026333"><ele>738.6</ele><time>2026-04-16T08:51:50.848Z</time></trkpt><trkpt lat="42.63136" lon="-8.30278"><ele>737.2</ele><time>2026-04-16T08:51:51.848Z</time></trkpt><trkpt lat="42.631315" lon="-8.30292"><ele>735.8</ele><time>2026-04-16T08:51:52.848Z</time></trkpt><trkpt lat="42.6313083" lon="-8.30305"><ele>734.4</ele><time>2026-04-16T08:51:53.849Z</time></trkpt><trkpt lat="42.63134" lon="-8.3031567"><ele>733.0</ele><time>2026-04-16T08:51:54.849Z</time></trkpt><trkpt lat="42.63141" lon="-8.3032533"><ele>733.0</ele><time>2026-04-16T08:51:55.849Z</time></trkpt><trkpt lat="42.6315067" lon="-8.3033667"><ele>733.0</ele><time>2026-04-16T08:51:56.849Z</time></trkpt><trkpt lat="42.63161" lon="-8.3035117"><ele>733.0</ele><time>2026-04-16T08:51:57.849Z</time></trkpt><trkpt lat="42.6316983" lon="-8.3037017"><ele>733.0</ele><time>2026-04-16T08:51:58.849Z</time></trkpt><trkpt lat="42.6317717" lon="-8.303925"><ele>733.6666666666667</ele><time>2026-04-16T08:51:59.849Z</time></trkpt><trkpt lat="42.6318233" lon="-8.3041767"><ele>734.3333333333334</ele><time>2026-04-16T08:52:00.848Z</time></trkpt><trkpt lat="42.63185" lon="-8.304435"><ele>735.0</ele><time>2026-04-16T08:52:01.848Z</time></trkpt><trkpt lat="42.6318733" lon="-8.3046917"><ele>735.6666666666666</ele><time>2026-04-16T08:52:02.849Z</time></trkpt><trkpt lat="42.6319083" lon="-8.3049167"><ele>736.3333333333333</ele><time>2026-04-16T08:52:03.849Z</time></trkpt><trkpt lat="42.631965" lon="-8.3051133"><ele>737.0</ele><time>2026-04-16T08:52:04.848Z</time></trkpt><trkpt lat="42.63206" lon="-8.3053233"><ele>735.0</ele><time>2026-04-16T08:52:05.848Z</time></trkpt><trkpt lat="42.632185" lon="-8.30554"><ele>733.0</ele><time>2026-04-16T08:52:06.848Z</time></trkpt><trkpt lat="42.6323083" lon="-8.30575"><ele>731.0</ele><time>2026-04-16T08:52:07.848Z</time></trkpt><trkpt lat="42.6324117" lon="-8.3059317"><ele>731.0</ele><time>2026-04-16T08:52:08.848Z</time></trkpt><trkpt lat="42.6324867" lon="-8.3060717"><ele>731.0</ele><time>2026-04-16T08:52:09.849Z</time></trkpt><trkpt lat="42.6325233" lon="-8.3062017"><ele>731.0</ele><time>2026-04-16T08:52:10.848Z</time></trkpt><trkpt lat="42.6325167" lon="-8.306315"><ele>731.0</ele><time>2026-04-16T08:52:11.849Z</time></trkpt><trkpt lat="42.6324717" lon="-8.3064283"><ele>731.0</ele><time>2026-04-16T08:52:12.848Z</time></trkpt><trkpt lat="42.6323983" lon="-8.3065367"><ele>731.6666666666666</ele><time>2026-04-16T08:52:13.848Z</time></trkpt><trkpt lat="42.6322567" lon="-8.306625"><ele>732.3333333333334</ele><time>2026-04-16T08:52:14.848Z</time></trkpt><trkpt lat="42.632065" lon="-8.3067233"><ele>733.0</ele><time>2026-04-16T08:52:15.848Z</time></trkpt><trkpt lat="42.63187" lon="-8.3068483"><ele>733.0</ele><time>2026-04-16T08:52:16.849Z</time></trkpt><trkpt lat="42.6316733" lon="-8.3069933"><ele>733.0</ele><time>2026-04-16T08:52:17.849Z</time></trkpt><trkpt lat="42.631485" lon="-8.3071783"><ele>732.0</ele><time>2026-04-16T08:52:18.848Z</time></trkpt><trkpt lat="42.6313167" lon="-8.3073683"><ele>731.0</ele><time>2026-04-16T08:52:19.848Z</time></trkpt><trkpt lat="42.6311833" lon="-8.30756"><ele>730.0</ele><time>2026-04-16T08:52:20.849Z</time></trkpt><trkpt lat="42.6310783" lon="-8.30776"><ele>730.0</ele><time>2026-04-16T08:52:21.849Z</time></trkpt><trkpt lat="42.6309967" lon="-8.3079617"><ele>730.0</ele><time>2026-04-16T08:52:22.849Z</time></trkpt><trkpt lat="42.6309217" lon="-8.3081667"><ele>730.0</ele><time>2026-04-16T08:52:23.849Z</time></trkpt><trkpt lat="42.6308533" lon="-8.308365"><ele>729.0</ele><time>2026-04-16T08:52:24.849Z</time></trkpt><trkpt lat="42.630785" lon="-8.308575"><ele>728.0</ele><time>2026-04-16T08:52:25.848Z</time></trkpt><trkpt lat="42.630715" lon="-8.3088017"><ele>727.0</ele><time>2026-04-16T08:52:26.849Z</time></trkpt><trkpt lat="42.6306517" lon="-8.3090583"><ele>723.3333333333334</ele><time>2026-04-16T08:52:27.848Z</time></trkpt><trkpt lat="42.630595" lon="-8.3093317"><ele>719.6666666666666</ele><time>2026-04-16T08:52:28.848Z</time></trkpt><trkpt lat="42.6305467" lon="-8.3096017"><ele>716.0</ele><time>2026-04-16T08:52:29.849Z</time></trkpt><trkpt lat="42.63052" lon="-8.3098667"><ele>712.6666666666666</ele><time>2026-04-16T08:52:30.848Z</time></trkpt><trkpt lat="42.630505" lon="-8.3101267"><ele>709.3333333333334</ele><time>2026-04-16T08:52:31.848Z</time></trkpt><trkpt lat="42.6305083" lon="-8.31036"><ele>706.0</ele><time>2026-04-16T08:52:32.849Z</time></trkpt><trkpt lat="42.630535" lon="-8.310555"><ele>705.0</ele><time>2026-04-16T08:52:33.849Z</time></trkpt><trkpt lat="42.63056" lon="-8.310725"><ele>704.0</ele><time>2026-04-16T08:52:34.848Z</time></trkpt><trkpt lat="42.6305817" lon="-8.310875"><ele>703.0</ele><time>2026-04-16T08:52:35.848Z</time></trkpt><trkpt lat="42.6305833" lon="-8.31102"><ele>702.0</ele><time>2026-04-16T08:52:36.849Z</time></trkpt><trkpt lat="42.63056" lon="-8.3111633"><ele>702.0</ele><time>2026-04-16T08:52:37.849Z</time></trkpt><trkpt lat="42.630535" lon="-8.31129"><ele>702.0</ele><time>2026-04-16T08:52:38.848Z</time></trkpt><trkpt lat="42.6305067" lon="-8.3114033"><ele>702.0</ele><time>2026-04-16T08:52:39.848Z</time></trkpt><trkpt lat="42.6304817" lon="-8.3115017"><ele>702.0</ele><time>2026-04-16T08:52:40.849Z</time></trkpt><trkpt lat="42.6304683" lon="-8.3115983"><ele>702.0</ele><time>2026-04-16T08:52:41.848Z</time></trkpt><trkpt lat="42.63049" lon="-8.311705"><ele>702.0</ele><time>2026-04-16T08:52:42.848Z</time></trkpt><trkpt lat="42.63055" lon="-8.311835"><ele>701.0</ele><time>2026-04-16T08:52:43.848Z</time></trkpt><trkpt lat="42.63063" lon="-8.31197"><ele>700.0</ele><time>2026-04-16T08:52:44.849Z</time></trkpt><trkpt lat="42.6307183" lon="-8.3121033"><ele>699.0</ele><time>2026-04-16T08:52:45.849Z</time></trkpt><trkpt lat="42.6308017" lon="-8.312235"><ele>698.0</ele><time>2026-04-16T08:52:46.848Z</time></trkpt><trkpt lat="42.630895" lon="-8.3123617"><ele>696.5</ele><time>2026-04-16T08:52:47.848Z</time></trkpt><trkpt lat="42.6309783" lon="-8.31248"><ele>695.0</ele><time>2026-04-16T08:52:48.849Z</time></trkpt><trkpt lat="42.631055" lon="-8.3125933"><ele>693.5</ele><time>2026-04-16T08:52:49.849Z</time></trkpt><trkpt lat="42.6311383" lon="-8.312715"><ele>692.0</ele><time>2026-04-16T08:52:50.849Z</time></trkpt><trkpt lat="42.6312233" lon="-8.3128283"><ele>691.8</ele><time>2026-04-16T08:52:51.848Z</time></trkpt><trkpt lat="42.6313117" lon="-8.3129283"><ele>691.6</ele><time>2026-04-16T08:52:52.849Z</time></trkpt><trkpt lat="42.6314033" lon="-8.312995"><ele>691.4</ele><time>2026-04-16T08:52:53.849Z</time></trkpt><trkpt lat="42.6315017" lon="-8.313035"><ele>691.1999999999999</ele><time>2026-04-16T08:52:54.848Z</time></trkpt><trkpt lat="42.6316083" lon="-8.3130583"><ele>691.0</ele><time>2026-04-16T08:52:55.849Z</time></trkpt><trkpt lat="42.631715" lon="-8.31306"><ele>691.0</ele><time>2026-04-16T08:52:56.848Z</time></trkpt><trkpt lat="42.63183" lon="-8.3130517"><ele>691.0</ele><time>2026-04-16T08:52:57.848Z</time></trkpt><trkpt lat="42.63194" lon="-8.31302"><ele>691.0</ele><time>2026-04-16T08:52:58.849Z</time></trkpt><trkpt lat="42.6320517" lon="-8.3129833"><ele>691.0</ele><time>2026-04-16T08:52:59.848Z</time></trkpt><trkpt lat="42.6321683" lon="-8.3129483"><ele>690.0</ele><time>2026-04-16T08:53:00.849Z</time></trkpt><trkpt lat="42.6322833" lon="-8.3129017"><ele>689.0</ele><time>2026-04-16T08:53:01.848Z</time></trkpt><trkpt lat="42.6324067" lon="-8.31284"><ele>688.0</ele><time>2026-04-16T08:53:02.849Z</time></trkpt><trkpt lat="42.632525" lon="-8.312765"><ele>687.0</ele><time>2026-04-16T08:53:03.849Z</time></trkpt><trkpt lat="42.632635" lon="-8.3126833"><ele>687.0</ele><time>2026-04-16T08:53:04.849Z</time></trkpt><trkpt lat="42.632735" lon="-8.312605"><ele>687.0</ele><time>2026-04-16T08:53:05.849Z</time></trkpt><trkpt lat="42.63283" lon="-8.3125317"><ele>687.0</ele><time>2026-04-16T08:53:06.848Z</time></trkpt><trkpt lat="42.6329267" lon="-8.31247"><ele>687.0</ele><time>2026-04-16T08:53:07.848Z</time></trkpt><trkpt lat="42.6330217" lon="-8.3124333"><ele>687.0</ele><time>2026-04-16T08:53:08.848Z</time></trkpt><trkpt lat="42.6331167" lon="-8.3124067"><ele>686.0</ele><time>2026-04-16T08:53:09.848Z</time></trkpt><trkpt lat="42.6332117" lon="-8.3124267"><ele>685.0</ele><time>2026-04-16T08:53:10.848Z</time></trkpt><trkpt lat="42.6333017" lon="-8.312485"><ele>684.0</ele><time>2026-04-16T08:53:11.849Z</time></trkpt><trkpt lat="42.6333783" lon="-8.3125817"><ele>683.0</ele><time>2026-04-16T08:53:12.848Z</time></trkpt><trkpt lat="42.6334383" lon="-8.3127067"><ele>682.0</ele><time>2026-04-16T08:53:13.849Z</time></trkpt><trkpt lat="42.63349" lon="-8.3128533"><ele>682.0</ele><time>2026-04-16T08:53:14.849Z</time></trkpt><trkpt lat="42.6335417" lon="-8.3130017"><ele>682.0</ele><time>2026-04-16T08:53:15.848Z</time></trkpt><trkpt lat="42.633605" lon="-8.31315"><ele>682.0</ele><time>2026-04-16T08:53:16.849Z</time></trkpt><trkpt lat="42.6336667" lon="-8.3132883"><ele>682.0</ele><time>2026-04-16T08:53:17.849Z</time></trkpt><trkpt lat="42.6337433" lon="-8.313405"><ele>683.75</ele><time>2026-04-16T08:53:18.849Z</time></trkpt><trkpt lat="42.63383" lon="-8.3134983"><ele>685.5</ele><time>2026-04-16T08:53:19.848Z</time></trkpt><trkpt lat="42.63393" lon="-8.3135617"><ele>687.25</ele><time>2026-04-16T08:53:20.848Z</time></trkpt><trkpt lat="42.63404" lon="-8.3136117"><ele>689.0</ele><time>2026-04-16T08:53:21.849Z</time></trkpt><trkpt lat="42.634155" lon="-8.31365"><ele>689.0</ele><time>2026-04-16T08:53:22.848Z</time></trkpt><trkpt lat="42.6342733" lon="-8.3136883"><ele>689.0</ele><time>2026-04-16T08:53:23.849Z</time></trkpt><trkpt lat="42.6343917" lon="-8.313725"><ele>689.0</ele><time>2026-04-16T08:53:24.849Z</time></trkpt><trkpt lat="42.6345167" lon="-8.313765"><ele>689.0</ele><time>2026-04-16T08:53:25.849Z</time></trkpt><trkpt lat="42.6346367" lon="-8.3138083"><ele>689.4000000000001</ele><time>2026-04-16T08:53:26.848Z</time></trkpt><trkpt lat="42.6347567" lon="-8.3138567"><ele>689.8</ele><time>2026-04-16T08:53:27.848Z</time></trkpt><trkpt lat="42.634865" lon="-8.3139117"><ele>690.2</ele><time>2026-04-16T08:53:28.849Z</time></trkpt><trkpt lat="42.6349533" lon="-8.31399"><ele>690.5999999999999</ele><time>2026-04-16T08:53:29.849Z</time></trkpt><trkpt lat="42.6350117" lon="-8.3140917"><ele>691.0</ele><time>2026-04-16T08:53:30.849Z</time></trkpt><trkpt lat="42.63501" lon="-8.3142233"><ele>691.0</ele><time>2026-04-16T08:53:31.848Z</time></trkpt><trkpt lat="42.634985" lon="-8.3143517"><ele>691.0</ele><time>2026-04-16T08:53:32.848Z</time></trkpt><trkpt lat="42.6349283" lon="-8.3144433"><ele>691.0</ele><time>2026-04-16T08:53:33.849Z</time></trkpt><trkpt lat="42.63484" lon="-8.314515"><ele>691.0</ele><time>2026-04-16T08:53:34.849Z</time></trkpt><trkpt lat="42.6347233" lon="-8.3145567"><ele>691.0</ele><time>2026-04-16T08:53:35.848Z</time></trkpt><trkpt lat="42.634575" lon="-8.3145667"><ele>690.75</ele><time>2026-04-16T08:53:36.848Z</time></trkpt><trkpt lat="42.6344417" lon="-8.314605"><ele>690.5</ele><time>2026-04-16T08:53:37.848Z</time></trkpt><trkpt lat="42.6343183" lon="-8.314655"><ele>690.25</ele><time>2026-04-16T08:53:38.848Z</time></trkpt><trkpt lat="42.6342017" lon="-8.3147083"><ele>690.0</ele><time>2026-04-16T08:53:39.849Z</time></trkpt><trkpt lat="42.634095" lon="-8.3147583"><ele>691.2</ele><time>2026-04-16T08:53:40.848Z</time></trkpt><trkpt lat="42.6339917" lon="-8.3148083"><ele>692.4</ele><time>2026-04-16T08:53:41.848Z</time></trkpt><trkpt lat="42.6338933" lon="-8.3148583"><ele>693.5999999999999</ele><time>2026-04-16T08:53:42.848Z</time></trkpt><trkpt lat="42.633805" lon="-8.3149117"><ele>694.8</ele><time>2026-04-16T08:53:43.848Z</time></trkpt><trkpt lat="42.6337167" lon="-8.314995"><ele>696.0</ele><time>2026-04-16T08:53:44.849Z</time></trkpt><trkpt lat="42.6336383" lon="-8.315095"><ele>696.0</ele><time>2026-04-16T08:53:45.848Z</time></trkpt><trkpt lat="42.6335517" lon="-8.3152033"><ele>696.0</ele><time>2026-04-16T08:53:46.849Z</time></trkpt><trkpt lat="42.6334617" lon="-8.3153167"><ele>696.0</ele><time>2026-04-16T08:53:47.849Z</time></trkpt><trkpt lat="42.6333583" lon="-8.3154183"><ele>696.0</ele><time>2026-04-16T08:53:48.848Z</time></trkpt><trkpt lat="42.6332467" lon="-8.3155167"><ele>696.75</ele><time>2026-04-16T08:53:49.848Z</time></trkpt><trkpt lat="42.6331433" lon="-8.315605"><ele>697.5</ele><time>2026-04-16T08:53:50.848Z</time></trkpt><trkpt lat="42.6330433" lon="-8.3157"><ele>698.25</ele><time>2026-04-16T08:53:51.849Z</time></trkpt><trkpt lat="42.6329483" lon="-8.315805"><ele>699.0</ele><time>2026-04-16T08:53:52.848Z</time></trkpt><trkpt lat="42.63286" lon="-8.3159183"><ele>697.75</ele><time>2026-04-16T08:53:53.848Z</time></trkpt><trkpt lat="42.6327733" lon="-8.3160283"><ele>696.5</ele><time>2026-04-16T08:53:54.849Z</time></trkpt><trkpt lat="42.63269" lon="-8.3161367"><ele>695.25</ele><time>2026-04-16T08:53:55.848Z</time></trkpt><trkpt lat="42.6326067" lon="-8.31625"><ele>694.0</ele><time>2026-04-16T08:53:56.849Z</time></trkpt><trkpt lat="42.632525" lon="-8.3163617"><ele>694.25</ele><time>2026-04-16T08:53:57.848Z</time></trkpt><trkpt lat="42.6324467" lon="-8.3164733"><ele>694.5</ele><time>2026-04-16T08:53:58.849Z</time></trkpt><trkpt lat="42.63237" lon="-8.3165983"><ele>694.75</ele><time>2026-04-16T08:53:59.848Z</time></trkpt><trkpt lat="42.6322917" lon="-8.3167117"><ele>695.0</ele><time>2026-04-16T08:54:00.848Z</time></trkpt><trkpt lat="42.6322067" lon="-8.3168367"><ele>695.0</ele><time>2026-04-16T08:54:01.849Z</time></trkpt><trkpt lat="42.63213" lon="-8.316955"><ele>695.0</ele><time>2026-04-16T08:54:02.849Z</time></trkpt><trkpt lat="42.6320517" lon="-8.3170833"><ele>695.0</ele><time>2026-04-16T08:54:03.848Z</time></trkpt><trkpt lat="42.63198" lon="-8.317205"><ele>695.0</ele><time>2026-04-16T08:54:04.848Z</time></trkpt><trkpt lat="42.6319067" lon="-8.31733"><ele>692.5</ele><time>2026-04-16T08:54:05.849Z</time></trkpt><trkpt lat="42.6318233" lon="-8.3174467"><ele>690.0</ele><time>2026-04-16T08:54:06.848Z</time></trkpt><trkpt lat="42.6317467" lon="-8.3175683"><ele>687.5</ele><time>2026-04-16T08:54:07.849Z</time></trkpt><trkpt lat="42.63167" lon="-8.3176817"><ele>685.0</ele><time>2026-04-16T08:54:08.848Z</time></trkpt><trkpt lat="42.631605" lon="-8.317795"><ele>685.0</ele><time>2026-04-16T08:54:09.849Z</time></trkpt><trkpt lat="42.6315317" lon="-8.3179083"><ele>685.0</ele><time>2026-04-16T08:54:10.849Z</time></trkpt><trkpt lat="42.6314467" lon="-8.3180267"><ele>685.0</ele><time>2026-04-16T08:54:11.848Z</time></trkpt><trkpt lat="42.6313583" lon="-8.3181283"><ele>685.0</ele><time>2026-04-16T08:54:12.848Z</time></trkpt><trkpt lat="42.6312633" lon="-8.31822"><ele>686.25</ele><time>2026-04-16T08:54:13.849Z</time></trkpt><trkpt lat="42.6311717" lon="-8.3183083"><ele>687.5</ele><time>2026-04-16T08:54:14.848Z</time></trkpt><trkpt lat="42.6310783" lon="-8.3184033"><ele>688.75</ele><time>2026-04-16T08:54:15.849Z</time></trkpt><trkpt lat="42.630985" lon="-8.3185033"><ele>690.0</ele><time>2026-04-16T08:54:16.848Z</time></trkpt><trkpt lat="42.63089" lon="-8.318605"><ele>689.5</ele><time>2026-04-16T08:54:17.848Z</time></trkpt><trkpt lat="42.630795" lon="-8.318705"><ele>689.0</ele><time>2026-04-16T08:54:18.848Z</time></trkpt><trkpt lat="42.6307" lon="-8.3188017"><ele>688.5</ele><time>2026-04-16T08:54:19.848Z</time></trkpt><trkpt lat="42.6306083" lon="-8.3189"><ele>688.0</ele><time>2026-04-16T08:54:20.849Z</time></trkpt><trkpt lat="42.6305117" lon="-8.3189917"><ele>688.0</ele><time>2026-04-16T08:54:21.848Z</time></trkpt><trkpt lat="42.6304217" lon="-8.3190933"><ele>688.0</ele><time>2026-04-16T08:54:22.849Z</time></trkpt><trkpt lat="42.6303467" lon="-8.319215"><ele>688.0</ele><time>2026-04-16T08:54:23.848Z</time></trkpt><trkpt lat="42.63029" lon="-8.3193533"><ele>688.0</ele><time>2026-04-16T08:54:24.849Z</time></trkpt><trkpt lat="42.6302317" lon="-8.3194917"><ele>687.5</ele><time>2026-04-16T08:54:25.848Z</time></trkpt><trkpt lat="42.630165" lon="-8.3196233"><ele>687.0</ele><time>2026-04-16T08:54:26.848Z</time></trkpt><trkpt lat="42.6300767" lon="-8.3197383"><ele>686.5</ele><time>2026-04-16T08:54:27.848Z</time></trkpt><trkpt lat="42.6299733" lon="-8.3198183"><ele>686.0</ele><time>2026-04-16T08:54:28.849Z</time></trkpt><trkpt lat="42.6298567" lon="-8.3198667"><ele>686.0</ele><time>2026-04-16T08:54:29.848Z</time></trkpt><trkpt lat="42.6297333" lon="-8.3198933"><ele>686.0</ele><time>2026-04-16T08:54:30.848Z</time></trkpt><trkpt lat="42.6296117" lon="-8.3199283"><ele>686.0</ele><time>2026-04-16T08:54:31.849Z</time></trkpt><trkpt lat="42.6294967" lon="-8.3199767"><ele>686.0</ele><time>2026-04-16T08:54:32.848Z</time></trkpt><trkpt lat="42.629385" lon="-8.3200333"><ele>685.25</ele><time>2026-04-16T08:54:33.849Z</time></trkpt><trkpt lat="42.62928" lon="-8.320105"><ele>684.5</ele><time>2026-04-16T08:54:34.849Z</time></trkpt><trkpt lat="42.6291917" lon="-8.3201983"><ele>683.75</ele><time>2026-04-16T08:54:35.848Z</time></trkpt><trkpt lat="42.6291183" lon="-8.320315"><ele>683.0</ele><time>2026-04-16T08:54:36.848Z</time></trkpt><trkpt lat="42.6290533" lon="-8.320445"><ele>683.75</ele><time>2026-04-16T08:54:37.848Z</time></trkpt><trkpt lat="42.6289967" lon="-8.3205917"><ele>684.5</ele><time>2026-04-16T08:54:38.849Z</time></trkpt><trkpt lat="42.62894" lon="-8.32074"><ele>685.25</ele><time>2026-04-16T08:54:39.849Z</time></trkpt><trkpt lat="42.628875" lon="-8.320885"><ele>686.0</ele><time>2026-04-16T08:54:40.849Z</time></trkpt><trkpt lat="42.6288083" lon="-8.32103"><ele>686.0</ele><time>2026-04-16T08:54:41.848Z</time></trkpt><trkpt lat="42.62875" lon="-8.321175"><ele>686.0</ele><time>2026-04-16T08:54:42.848Z</time></trkpt><trkpt lat="42.6287" lon="-8.3213233"><ele>686.0</ele><time>2026-04-16T08:54:43.848Z</time></trkpt><trkpt lat="42.6286617" lon="-8.3214767"><ele>686.0</ele><time>2026-04-16T08:54:44.848Z</time></trkpt><trkpt lat="42.6286333" lon="-8.3216367"><ele>686.0</ele><time>2026-04-16T08:54:45.849Z</time></trkpt><trkpt lat="42.6286283" lon="-8.3217933"><ele>686.0</ele><time>2026-04-16T08:54:46.848Z</time></trkpt><trkpt lat="42.62864" lon="-8.3219517"><ele>686.0</ele><time>2026-04-16T08:54:47.848Z</time></trkpt><trkpt lat="42.62867" lon="-8.32211"><ele>686.0</ele><time>2026-04-16T08:54:48.849Z</time></trkpt><trkpt lat="42.6287133" lon="-8.3222617"><ele>684.75</ele><time>2026-04-16T08:54:49.849Z</time></trkpt><trkpt lat="42.6287683" lon="-8.3224133"><ele>683.5</ele><time>2026-04-16T08:54:50.849Z</time></trkpt><trkpt lat="42.628825" lon="-8.322565"><ele>682.25</ele><time>2026-04-16T08:54:51.849Z</time></trkpt><trkpt lat="42.6288767" lon="-8.3227167"><ele>681.0</ele><time>2026-04-16T08:54:52.849Z</time></trkpt><trkpt lat="42.6289267" lon="-8.3228683"><ele>681.0</ele><time>2026-04-16T08:54:53.849Z</time></trkpt><trkpt lat="42.6289833" lon="-8.3230117"><ele>681.0</ele><time>2026-04-16T08:54:54.849Z</time></trkpt><trkpt lat="42.6290267" lon="-8.32316"><ele>681.0</ele><time>2026-04-16T08:54:55.849Z</time></trkpt><trkpt lat="42.6290667" lon="-8.3233133"><ele>681.0</ele><time>2026-04-16T08:54:56.849Z</time></trkpt><trkpt lat="42.6290667" lon="-8.323465"><ele>679.75</ele><time>2026-04-16T08:54:57.848Z</time></trkpt><trkpt lat="42.6290417" lon="-8.323615"><ele>678.5</ele><time>2026-04-16T08:54:58.848Z</time></trkpt><trkpt lat="42.6290017" lon="-8.3237633"><ele>677.25</ele><time>2026-04-16T08:54:59.848Z</time></trkpt><trkpt lat="42.6289617" lon="-8.3239117"><ele>676.0</ele><time>2026-04-16T08:55:00.848Z</time></trkpt><trkpt lat="42.6289183" lon="-8.3240667"><ele>675.5</ele><time>2026-04-16T08:55:01.85Z</time></trkpt><trkpt lat="42.6288883" lon="-8.3242267"><ele>675.0</ele><time>2026-04-16T08:55:02.85Z</time></trkpt><trkpt lat="42.6288617" lon="-8.3243867"><ele>674.5</ele><time>2026-04-16T08:55:03.849Z</time></trkpt><trkpt lat="42.6288533" lon="-8.324545"><ele>674.0</ele><time>2026-04-16T08:55:04.849Z</time></trkpt><trkpt lat="42.6288517" lon="-8.3247117"><ele>672.5</ele><time>2026-04-16T08:55:05.849Z</time></trkpt><trkpt lat="42.628855" lon="-8.3248783"><ele>671.0</ele><time>2026-04-16T08:55:06.849Z</time></trkpt><trkpt lat="42.62886" lon="-8.3250333"><ele>669.5</ele><time>2026-04-16T08:55:07.85Z</time></trkpt><trkpt lat="42.6288833" lon="-8.325185"><ele>668.0</ele><time>2026-04-16T08:55:08.85Z</time></trkpt><trkpt lat="42.6289233" lon="-8.3253217"><ele>668.0</ele><time>2026-04-16T08:55:09.849Z</time></trkpt><trkpt lat="42.6289733" lon="-8.3254483"><ele>668.0</ele><time>2026-04-16T08:55:10.85Z</time></trkpt><trkpt lat="42.6290333" lon="-8.3255617"><ele>668.0</ele><time>2026-04-16T08:55:11.849Z</time></trkpt><trkpt lat="42.6291017" lon="-8.3256867"><ele>668.0</ele><time>2026-04-16T08:55:12.849Z</time></trkpt><trkpt lat="42.62917" lon="-8.3258183"><ele>668.0</ele><time>2026-04-16T08:55:13.85Z</time></trkpt><trkpt lat="42.629235" lon="-8.3259617"><ele>667.75</ele><time>2026-04-16T08:55:14.85Z</time></trkpt><trkpt lat="42.629285" lon="-8.3261017"><ele>667.5</ele><time>2026-04-16T08:55:15.849Z</time></trkpt><trkpt lat="42.6293" lon="-8.3262467"><ele>667.25</ele><time>2026-04-16T08:55:16.85Z</time></trkpt><trkpt lat="42.6292767" lon="-8.3264033"><ele>667.0</ele><time>2026-04-16T08:55:17.85Z</time></trkpt><trkpt lat="42.6292233" lon="-8.3265633"><ele>667.0</ele><time>2026-04-16T08:55:18.849Z</time></trkpt><trkpt lat="42.6291633" lon="-8.3267217"><ele>667.0</ele><time>2026-04-16T08:55:19.85Z</time></trkpt><trkpt lat="42.6290983" lon="-8.3268767"><ele>667.0</ele><time>2026-04-16T08:55:20.85Z</time></trkpt><trkpt lat="42.62904" lon="-8.32703"><ele>667.0</ele><time>2026-04-16T08:55:21.85Z</time></trkpt><trkpt lat="42.6289833" lon="-8.3271733"><ele>667.75</ele><time>2026-04-16T08:55:22.85Z</time></trkpt><trkpt lat="42.6289283" lon="-8.3273083"><ele>668.5</ele><time>2026-04-16T08:55:23.849Z</time></trkpt><trkpt lat="42.628875" lon="-8.3274433"><ele>669.25</ele><time>2026-04-16T08:55:24.85Z</time></trkpt><trkpt lat="42.628825" lon="-8.3275833"><ele>670.0</ele><time>2026-04-16T08:55:25.85Z</time></trkpt><trkpt lat="42.62877" lon="-8.327725"><ele>670.0</ele><time>2026-04-16T08:55:26.849Z</time></trkpt><trkpt lat="42.628715" lon="-8.3278733"><ele>670.0</ele><time>2026-04-16T08:55:27.85Z</time></trkpt><trkpt lat="42.628665" lon="-8.328015"><ele>670.0</ele><time>2026-04-16T08:55:28.849Z</time></trkpt><trkpt lat="42.628605" lon="-8.3281533"><ele>670.0</ele><time>2026-04-16T08:55:29.85Z</time></trkpt><trkpt lat="42.6285467" lon="-8.328305"><ele>668.25</ele><time>2026-04-16T08:55:30.849Z</time></trkpt><trkpt lat="42.6284817" lon="-8.3284483"><ele>666.5</ele><time>2026-04-16T08:55:31.85Z</time></trkpt><trkpt lat="42.6284233" lon="-8.3286017"><ele>664.75</ele><time>2026-04-16T08:55:32.85Z</time></trkpt><trkpt lat="42.6283717" lon="-8.328745"><ele>663.0</ele><time>2026-04-16T08:55:33.85Z</time></trkpt><trkpt lat="42.6283167" lon="-8.3288917"><ele>663.25</ele><time>2026-04-16T08:55:34.85Z</time></trkpt><trkpt lat="42.62826" lon="-8.3290283"><ele>663.5</ele><time>2026-04-16T08:55:35.849Z</time></trkpt><trkpt lat="42.6281983" lon="-8.3291717"><ele>663.75</ele><time>2026-04-16T08:55:36.85Z</time></trkpt><trkpt lat="42.6281417" lon="-8.3293117"><ele>664.0</ele><time>2026-04-16T08:55:37.85Z</time></trkpt><trkpt lat="42.6280817" lon="-8.3294533"><ele>664.0</ele><time>2026-04-16T08:55:38.85Z</time></trkpt><trkpt lat="42.62802" lon="-8.3296"><ele>664.0</ele><time>2026-04-16T08:55:39.849Z</time></trkpt><trkpt lat="42.6279617" lon="-8.3297483"><ele>664.0</ele><time>2026-04-16T08:55:40.85Z</time></trkpt><trkpt lat="42.62791" lon="-8.329895"><ele>664.0</ele><time>2026-04-16T08:55:41.849Z</time></trkpt><trkpt lat="42.6278583" lon="-8.330045"><ele>662.0</ele><time>2026-04-16T08:55:42.85Z</time></trkpt><trkpt lat="42.6277983" lon="-8.33018"><ele>660.0</ele><time>2026-04-16T08:55:43.85Z</time></trkpt><trkpt lat="42.6277383" lon="-8.3303233"><ele>658.0</ele><time>2026-04-16T08:55:44.85Z</time></trkpt><trkpt lat="42.627685" lon="-8.3304633"><ele>656.0</ele><time>2026-04-16T08:55:45.85Z</time></trkpt><trkpt lat="42.6276317" lon="-8.3306"><ele>655.5</ele><time>2026-04-16T08:55:46.849Z</time></trkpt><trkpt lat="42.62758" lon="-8.3307417"><ele>655.0</ele><time>2026-04-16T08:55:47.85Z</time></trkpt><trkpt lat="42.6275267" lon="-8.3308833"><ele>654.5</ele><time>2026-04-16T08:55:48.85Z</time></trkpt><trkpt lat="42.6274767" lon="-8.3310267"><ele>654.0</ele><time>2026-04-16T08:55:49.85Z</time></trkpt><trkpt lat="42.627435" lon="-8.3311783"><ele>654.0</ele><time>2026-04-16T08:55:50.849Z</time></trkpt><trkpt lat="42.6273867" lon="-8.3313367"><ele>654.0</ele><time>2026-04-16T08:55:51.849Z</time></trkpt><trkpt lat="42.6273417" lon="-8.3314867"><ele>654.0</ele><time>2026-04-16T08:55:52.85Z</time></trkpt><trkpt lat="42.6272983" lon="-8.3316383"><ele>654.0</ele><time>2026-04-16T08:55:53.849Z</time></trkpt><trkpt lat="42.6272583" lon="-8.3317867"><ele>653.0</ele><time>2026-04-16T08:55:54.85Z</time></trkpt><trkpt lat="42.6272167" lon="-8.3319417"><ele>652.0</ele><time>2026-04-16T08:55:55.849Z</time></trkpt><trkpt lat="42.6271717" lon="-8.33209"><ele>651.0</ele><time>2026-04-16T08:55:56.85Z</time></trkpt><trkpt lat="42.6271283" lon="-8.3322433"><ele>650.0</ele><time>2026-04-16T08:55:57.85Z</time></trkpt><trkpt lat="42.62709" lon="-8.3323867"><ele>648.6</ele><time>2026-04-16T08:55:58.85Z</time></trkpt><trkpt lat="42.6270583" lon="-8.3325383"><ele>647.2</ele><time>2026-04-16T08:55:59.849Z</time></trkpt><trkpt lat="42.6270417" lon="-8.3326833"><ele>645.8</ele><time>2026-04-16T08:56:00.85Z</time></trkpt><trkpt lat="42.62705" lon="-8.3328267"><ele>644.4</ele><time>2026-04-16T08:56:01.85Z</time></trkpt><trkpt lat="42.627095" lon="-8.3329517"><ele>643.0</ele><time>2026-04-16T08:56:02.849Z</time></trkpt><trkpt lat="42.627175" lon="-8.3330483"><ele>640.75</ele><time>2026-04-16T08:56:03.85Z</time></trkpt><trkpt lat="42.6272883" lon="-8.3330983"><ele>638.5</ele><time>2026-04-16T08:56:04.849Z</time></trkpt><trkpt lat="42.6274333" lon="-8.3331117"><ele>636.25</ele><time>2026-04-16T08:56:05.85Z</time></trkpt><trkpt lat="42.6275717" lon="-8.333125"><ele>634.0</ele><time>2026-04-16T08:56:06.85Z</time></trkpt><trkpt lat="42.6277033" lon="-8.3331383"><ele>632.75</ele><time>2026-04-16T08:56:07.849Z</time></trkpt><trkpt lat="42.62783" lon="-8.33315"><ele>631.5</ele><time>2026-04-16T08:56:08.849Z</time></trkpt><trkpt lat="42.6279533" lon="-8.3331583"><ele>630.25</ele><time>2026-04-16T08:56:09.85Z</time></trkpt><trkpt lat="42.6280733" lon="-8.3331767"><ele>629.0</ele><time>2026-04-16T08:56:10.85Z</time></trkpt><trkpt lat="42.6281967" lon="-8.3332017"><ele>629.0</ele><time>2026-04-16T08:56:11.85Z</time></trkpt><trkpt lat="42.6283133" lon="-8.333225"><ele>629.0</ele><time>2026-04-16T08:56:12.85Z</time></trkpt><trkpt lat="42.6284317" lon="-8.3332433"><ele>629.0</ele><time>2026-04-16T08:56:13.849Z</time></trkpt><trkpt lat="42.6285517" lon="-8.333265"><ele>629.0</ele><time>2026-04-16T08:56:14.849Z</time></trkpt><trkpt lat="42.6286667" lon="-8.3332883"><ele>629.5</ele><time>2026-04-16T08:56:15.849Z</time></trkpt><trkpt lat="42.6287833" lon="-8.3333017"><ele>630.0</ele><time>2026-04-16T08:56:16.849Z</time></trkpt><trkpt lat="42.6289033" lon="-8.3333183"><ele>630.5</ele><time>2026-04-16T08:56:17.849Z</time></trkpt><trkpt lat="42.62902" lon="-8.3333517"><ele>631.0</ele><time>2026-04-16T08:56:18.849Z</time></trkpt><trkpt lat="42.6291333" lon="-8.33338"><ele>631.0</ele><time>2026-04-16T08:56:19.85Z</time></trkpt><trkpt lat="42.62925" lon="-8.333405"><ele>631.0</ele><time>2026-04-16T08:56:20.849Z</time></trkpt><trkpt lat="42.6293717" lon="-8.3334483"><ele>631.0</ele><time>2026-04-16T08:56:21.85Z</time></trkpt><trkpt lat="42.6294833" lon="-8.3334917"><ele>631.0</ele><time>2026-04-16T08:56:22.85Z</time></trkpt><trkpt lat="42.62959" lon="-8.33355"><ele>631.25</ele><time>2026-04-16T08:56:23.849Z</time></trkpt><trkpt lat="42.6296883" lon="-8.33361"><ele>631.5</ele><time>2026-04-16T08:56:24.849Z</time></trkpt><trkpt lat="42.6297867" lon="-8.3336833"><ele>631.75</ele><time>2026-04-16T08:56:25.849Z</time></trkpt><trkpt lat="42.6298983" lon="-8.3337583"><ele>632.0</ele><time>2026-04-16T08:56:26.849Z</time></trkpt><trkpt lat="42.6300083" lon="-8.333845"><ele>633.25</ele><time>2026-04-16T08:56:27.85Z</time></trkpt><trkpt lat="42.6301133" lon="-8.333945"><ele>634.5</ele><time>2026-04-16T08:56:28.85Z</time></trkpt><trkpt lat="42.630215" lon="-8.3340583"><ele>635.75</ele><time>2026-04-16T08:56:29.849Z</time></trkpt><trkpt lat="42.6303167" lon="-8.3341833"><ele>637.0</ele><time>2026-04-16T08:56:30.85Z</time></trkpt><trkpt lat="42.630385" lon="-8.334305"><ele>637.0</ele><time>2026-04-16T08:56:31.849Z</time></trkpt><trkpt lat="42.6304167" lon="-8.3344017"><ele>637.0</ele><time>2026-04-16T08:56:32.849Z</time></trkpt><trkpt lat="42.6304" lon="-8.3345367"><ele>637.0</ele><time>2026-04-16T08:56:34.85Z</time></trkpt><trkpt lat="42.6302967" lon="-8.3345783"><ele>637.0</ele><time>2026-04-16T08:56:36.849Z</time></trkpt><trkpt lat="42.6301967" lon="-8.3345833"><ele>637.0</ele><time>2026-04-16T08:56:37.85Z</time></trkpt><trkpt lat="42.6300817" lon="-8.334605"><ele>638.25</ele><time>2026-04-16T08:56:38.849Z</time></trkpt><trkpt lat="42.629975" lon="-8.3346517"><ele>639.5</ele><time>2026-04-16T08:56:39.849Z</time></trkpt><trkpt lat="42.6298767" lon="-8.3347283"><ele>640.75</ele><time>2026-04-16T08:56:40.849Z</time></trkpt><trkpt lat="42.6297867" lon="-8.3348317"><ele>642.0</ele><time>2026-04-16T08:56:41.849Z</time></trkpt><trkpt lat="42.6296983" lon="-8.3349483"><ele>643.0</ele><time>2026-04-16T08:56:42.85Z</time></trkpt><trkpt lat="42.62961" lon="-8.3350733"><ele>644.0</ele><time>2026-04-16T08:56:43.849Z</time></trkpt><trkpt lat="42.6295283" lon="-8.335205"><ele>645.0</ele><time>2026-04-16T08:56:44.85Z</time></trkpt><trkpt lat="42.6294467" lon="-8.3353317"><ele>646.0</ele><time>2026-04-16T08:56:45.85Z</time></trkpt><trkpt lat="42.629365" lon="-8.3354633"><ele>647.75</ele><time>2026-04-16T08:56:46.85Z</time></trkpt><trkpt lat="42.6292833" lon="-8.3355817"><ele>649.5</ele><time>2026-04-16T08:56:47.849Z</time></trkpt><trkpt lat="42.6292033" lon="-8.335695"><ele>651.25</ele><time>2026-04-16T08:56:48.849Z</time></trkpt><trkpt lat="42.6291183" lon="-8.3358167"><ele>653.0</ele><time>2026-04-16T08:56:49.85Z</time></trkpt><trkpt lat="42.6290217" lon="-8.3359617"><ele>653.0</ele><time>2026-04-16T08:56:50.85Z</time></trkpt><trkpt lat="42.6289333" lon="-8.3361067"><ele>653.0</ele><time>2026-04-16T08:56:51.85Z</time></trkpt><trkpt lat="42.6288617" lon="-8.3362283"><ele>653.0</ele><time>2026-04-16T08:56:52.85Z</time></trkpt><trkpt lat="42.62882" lon="-8.3363467"><ele>653.0</ele><time>2026-04-16T08:56:53.85Z</time></trkpt><trkpt lat="42.6288117" lon="-8.3364983"><ele>655.6666666666666</ele><time>2026-04-16T08:56:54.849Z</time></trkpt><trkpt lat="42.6288283" lon="-8.3366717"><ele>658.3333333333334</ele><time>2026-04-16T08:56:55.85Z</time></trkpt><trkpt lat="42.6288383" lon="-8.33689"><ele>661.0</ele><time>2026-04-16T08:56:56.85Z</time></trkpt><trkpt lat="42.6288533" lon="-8.3371433"><ele>662.3333333333334</ele><time>2026-04-16T08:56:57.849Z</time></trkpt><trkpt lat="42.6288733" lon="-8.3374233"><ele>663.6666666666666</ele><time>2026-04-16T08:56:58.849Z</time></trkpt><trkpt lat="42.6288967" lon="-8.3377267"><ele>665.0</ele><time>2026-04-16T08:56:59.849Z</time></trkpt><trkpt lat="42.6289233" lon="-8.33804"><ele>664.5</ele><time>2026-04-16T08:57:00.849Z</time></trkpt><trkpt lat="42.6289517" lon="-8.33838"><ele>664.0</ele><time>2026-04-16T08:57:01.85Z</time></trkpt><trkpt lat="42.6289517" lon="-8.3386983"><ele>663.3333333333334</ele><time>2026-04-16T08:57:02.85Z</time></trkpt><trkpt lat="42.6289483" lon="-8.3389867"><ele>662.6666666666666</ele><time>2026-04-16T08:57:03.849Z</time></trkpt><trkpt lat="42.6289233" lon="-8.339255"><ele>662.0</ele><time>2026-04-16T08:57:04.849Z</time></trkpt><trkpt lat="42.6288717" lon="-8.339535"><ele>661.0</ele><time>2026-04-16T08:57:05.85Z</time></trkpt><trkpt lat="42.6288067" lon="-8.3397667"><ele>660.0</ele><time>2026-04-16T08:57:06.85Z</time></trkpt><trkpt lat="42.62871" lon="-8.3399867"><ele>659.0</ele><time>2026-04-16T08:57:07.85Z</time></trkpt><trkpt lat="42.62859" lon="-8.3402183"><ele>660.3333333333333</ele><time>2026-04-16T08:57:08.849Z</time></trkpt><trkpt lat="42.62847" lon="-8.3404367"><ele>661.6666666666666</ele><time>2026-04-16T08:57:09.849Z</time></trkpt><trkpt lat="42.62837" lon="-8.3406317"><ele>663.0</ele><time>2026-04-16T08:57:10.849Z</time></trkpt><trkpt lat="42.6282967" lon="-8.3407983"><ele>663.0</ele><time>2026-04-16T08:57:11.849Z</time></trkpt><trkpt lat="42.6282567" lon="-8.3409617"><ele>663.0</ele><time>2026-04-16T08:57:12.85Z</time></trkpt><trkpt lat="42.6282483" lon="-8.3411717"><ele>663.0</ele><time>2026-04-16T08:57:13.849Z</time></trkpt><trkpt lat="42.6282717" lon="-8.3414017"><ele>663.0</ele><time>2026-04-16T08:57:14.85Z</time></trkpt><trkpt lat="42.6283217" lon="-8.3416617"><ele>663.0</ele><time>2026-04-16T08:57:15.85Z</time></trkpt><trkpt lat="42.6283883" lon="-8.3419433"><ele>663.0</ele><time>2026-04-16T08:57:16.85Z</time></trkpt><trkpt lat="42.6284467" lon="-8.3422533"><ele>663.0</ele><time>2026-04-16T08:57:17.849Z</time></trkpt><trkpt lat="42.6285" lon="-8.3425767"><ele>663.0</ele><time>2026-04-16T08:57:18.85Z</time></trkpt><trkpt lat="42.628555" lon="-8.3428983"><ele>663.3333333333334</ele><time>2026-04-16T08:57:19.85Z</time></trkpt><trkpt lat="42.6286117" lon="-8.3431817"><ele>663.6666666666667</ele><time>2026-04-16T08:57:20.849Z</time></trkpt><trkpt lat="42.6286533" lon="-8.3434183"><ele>664.0</ele><time>2026-04-16T08:57:21.849Z</time></trkpt><trkpt lat="42.628665" lon="-8.3436017"><ele>664.0</ele><time>2026-04-16T08:57:22.85Z</time></trkpt><trkpt lat="42.6286567" lon="-8.3437333"><ele>664.0</ele><time>2026-04-16T08:57:23.85Z</time></trkpt><trkpt lat="42.6286117" lon="-8.3438283"><ele>664.0</ele><time>2026-04-16T08:57:24.85Z</time></trkpt><trkpt lat="42.6285533" lon="-8.3438833"><ele>664.0</ele><time>2026-04-16T08:57:25.849Z</time></trkpt><trkpt lat="42.6284983" lon="-8.3439317"><ele>664.0</ele><time>2026-04-16T08:57:26.85Z</time></trkpt><trkpt lat="42.62841" lon="-8.343965"><ele>664.0</ele><time>2026-04-16T08:57:28.85Z</time></trkpt><trkpt lat="42.628305" lon="-8.3439933"><ele>665.75</ele><time>2026-04-16T08:57:31.849Z</time></trkpt><trkpt lat="42.6282317" lon="-8.3440217"><ele>667.5</ele><time>2026-04-16T08:57:32.85Z</time></trkpt><trkpt lat="42.6281367" lon="-8.3440833"><ele>669.25</ele><time>2026-04-16T08:57:33.85Z</time></trkpt><trkpt lat="42.6280117" lon="-8.3441667"><ele>671.0</ele><time>2026-04-16T08:57:34.849Z</time></trkpt><trkpt lat="42.6278633" lon="-8.344275"><ele>672.0</ele><time>2026-04-16T08:57:35.85Z</time></trkpt><trkpt lat="42.6276783" lon="-8.3443983"><ele>673.0</ele><time>2026-04-16T08:57:36.849Z</time></trkpt><trkpt lat="42.62749" lon="-8.3445367"><ele>674.0</ele><time>2026-04-16T08:57:37.849Z</time></trkpt><trkpt lat="42.6272967" lon="-8.344665"><ele>676.3333333333333</ele><time>2026-04-16T08:57:38.849Z</time></trkpt><trkpt lat="42.6270933" lon="-8.3447833"><ele>678.6666666666666</ele><time>2026-04-16T08:57:39.85Z</time></trkpt><trkpt lat="42.6268867" lon="-8.3449"><ele>681.0</ele><time>2026-04-16T08:57:40.85Z</time></trkpt><trkpt lat="42.626675" lon="-8.3450383"><ele>681.5</ele><time>2026-04-16T08:57:41.85Z</time></trkpt><trkpt lat="42.6264417" lon="-8.34519"><ele>682.0</ele><time>2026-04-16T08:57:42.85Z</time></trkpt><trkpt lat="42.6262067" lon="-8.3453517"><ele>684.0</ele><time>2026-04-16T08:57:43.85Z</time></trkpt><trkpt lat="42.62597" lon="-8.34551"><ele>686.0</ele><time>2026-04-16T08:57:44.85Z</time></trkpt><trkpt lat="42.62573" lon="-8.3456767"><ele>688.5</ele><time>2026-04-16T08:57:45.849Z</time></trkpt><trkpt lat="42.62549" lon="-8.3458483"><ele>691.0</ele><time>2026-04-16T08:57:46.85Z</time></trkpt><trkpt lat="42.6252683" lon="-8.3460083"><ele>691.6666666666667</ele><time>2026-04-16T08:57:47.849Z</time></trkpt><trkpt lat="42.6250817" lon="-8.3461417"><ele>692.3333333333334</ele><time>2026-04-16T08:57:48.849Z</time></trkpt><trkpt lat="42.624925" lon="-8.346245"><ele>693.0</ele><time>2026-04-16T08:57:49.85Z</time></trkpt><trkpt lat="42.6248083" lon="-8.3463367"><ele>693.25</ele><time>2026-04-16T08:57:50.849Z</time></trkpt><trkpt lat="42.624735" lon="-8.3464333"><ele>693.5</ele><time>2026-04-16T08:57:51.85Z</time></trkpt><trkpt lat="42.624695" lon="-8.3465633"><ele>693.75</ele><time>2026-04-16T08:57:52.849Z</time></trkpt><trkpt lat="42.6246717" lon="-8.34673"><ele>694.0</ele><time>2026-04-16T08:57:53.849Z</time></trkpt><trkpt lat="42.6246567" lon="-8.346955"><ele>693.6666666666667</ele><time>2026-04-16T08:57:54.849Z</time></trkpt><trkpt lat="42.6246433" lon="-8.3472233"><ele>693.3333333333334</ele><time>2026-04-16T08:57:55.85Z</time></trkpt><trkpt lat="42.62462" lon="-8.3475117"><ele>693.0</ele><time>2026-04-16T08:57:56.85Z</time></trkpt><trkpt lat="42.624585" lon="-8.34782"><ele>692.0</ele><time>2026-04-16T08:57:57.85Z</time></trkpt><trkpt lat="42.6245467" lon="-8.3481467"><ele>691.0</ele><time>2026-04-16T08:57:58.849Z</time></trkpt><trkpt lat="42.6245033" lon="-8.3484783"><ele>692.5</ele><time>2026-04-16T08:57:59.85Z</time></trkpt><trkpt lat="42.6244683" lon="-8.3488267"><ele>694.0</ele><time>2026-04-16T08:58:00.849Z</time></trkpt><trkpt lat="42.6244333" lon="-8.34917"><ele>694.0</ele><time>2026-04-16T08:58:01.85Z</time></trkpt><trkpt lat="42.624415" lon="-8.3494833"><ele>694.0</ele><time>2026-04-16T08:58:02.849Z</time></trkpt><trkpt lat="42.6244067" lon="-8.34982"><ele>694.5</ele><time>2026-04-16T08:58:03.85Z</time></trkpt><trkpt lat="42.6244217" lon="-8.3501583"><ele>695.0</ele><time>2026-04-16T08:58:04.849Z</time></trkpt><trkpt lat="42.6244367" lon="-8.3505067"><ele>694.6666666666666</ele><time>2026-04-16T08:58:05.85Z</time></trkpt><trkpt lat="42.6244617" lon="-8.3508217"><ele>694.3333333333334</ele><time>2026-04-16T08:58:06.849Z</time></trkpt><trkpt lat="42.6244783" lon="-8.3511117"><ele>694.0</ele><time>2026-04-16T08:58:07.849Z</time></trkpt><trkpt lat="42.6244967" lon="-8.3513567"><ele>690.3333333333334</ele><time>2026-04-16T08:58:08.85Z</time></trkpt><trkpt lat="42.62451" lon="-8.351585"><ele>686.6666666666666</ele><time>2026-04-16T08:58:09.849Z</time></trkpt><trkpt lat="42.6245233" lon="-8.3518133"><ele>683.0</ele><time>2026-04-16T08:58:10.85Z</time></trkpt><trkpt lat="42.6245367" lon="-8.3520133"><ele>683.0</ele><time>2026-04-16T08:58:11.849Z</time></trkpt><trkpt lat="42.6245467" lon="-8.352175"><ele>683.0</ele><time>2026-04-16T08:58:12.85Z</time></trkpt><trkpt lat="42.624555" lon="-8.35228"><ele>683.0</ele><time>2026-04-16T08:58:13.85Z</time></trkpt><trkpt lat="42.6246267" lon="-8.3523133"><ele>683.0</ele><time>2026-04-16T08:58:16.85Z</time></trkpt><trkpt lat="42.62469" lon="-8.3523333"><ele>683.0</ele><time>2026-04-16T08:58:17.85Z</time></trkpt><trkpt lat="42.624775" lon="-8.3523667"><ele>683.0</ele><time>2026-04-16T08:58:18.85Z</time></trkpt><trkpt lat="42.6248883" lon="-8.352425"><ele>680.3333333333333</ele><time>2026-04-16T08:58:19.849Z</time></trkpt><trkpt lat="42.6250517" lon="-8.3525217"><ele>677.6666666666666</ele><time>2026-04-16T08:58:20.849Z</time></trkpt><trkpt lat="42.6252217" lon="-8.3526333"><ele>675.0</ele><time>2026-04-16T08:58:21.85Z</time></trkpt><trkpt lat="42.6254083" lon="-8.3527683"><ele>675.0</ele><time>2026-04-16T08:58:22.849Z</time></trkpt><trkpt lat="42.6256017" lon="-8.3529067"><ele>675.0</ele><time>2026-04-16T08:58:23.849Z</time></trkpt><trkpt lat="42.6258167" lon="-8.353055"><ele>672.0</ele><time>2026-04-16T08:58:24.849Z</time></trkpt><trkpt lat="42.6260317" lon="-8.3531783"><ele>669.0</ele><time>2026-04-16T08:58:25.85Z</time></trkpt><trkpt lat="42.6262217" lon="-8.3532767"><ele>666.0</ele><time>2026-04-16T08:58:26.849Z</time></trkpt><trkpt lat="42.6264117" lon="-8.35336"><ele>665.3333333333334</ele><time>2026-04-16T08:58:27.85Z</time></trkpt><trkpt lat="42.626605" lon="-8.3534533"><ele>664.6666666666667</ele><time>2026-04-16T08:58:28.85Z</time></trkpt><trkpt lat="42.6267917" lon="-8.3535433"><ele>664.0</ele><time>2026-04-16T08:58:29.85Z</time></trkpt><trkpt lat="42.62696" lon="-8.3536233"><ele>664.6666666666667</ele><time>2026-04-16T08:58:30.849Z</time></trkpt><trkpt lat="42.627115" lon="-8.353695"><ele>665.3333333333334</ele><time>2026-04-16T08:58:31.85Z</time></trkpt><trkpt lat="42.627265" lon="-8.3537883"><ele>666.0</ele><time>2026-04-16T08:58:32.85Z</time></trkpt><trkpt lat="42.6274" lon="-8.353895"><ele>665.3333333333334</ele><time>2026-04-16T08:58:33.849Z</time></trkpt><trkpt lat="42.6275317" lon="-8.3539583"><ele>664.6666666666667</ele><time>2026-04-16T08:58:34.849Z</time></trkpt><trkpt lat="42.627685" lon="-8.3539867"><ele>664.0</ele><time>2026-04-16T08:58:35.849Z</time></trkpt><trkpt lat="42.6278483" lon="-8.35401"><ele>664.0</ele><time>2026-04-16T08:58:36.85Z</time></trkpt><trkpt lat="42.6280233" lon="-8.3540333"><ele>664.0</ele><time>2026-04-16T08:58:37.85Z</time></trkpt><trkpt lat="42.6282083" lon="-8.3540633"><ele>664.0</ele><time>2026-04-16T08:58:38.85Z</time></trkpt><trkpt lat="42.6284133" lon="-8.35409"><ele>664.0</ele><time>2026-04-16T08:58:39.849Z</time></trkpt><trkpt lat="42.628635" lon="-8.354135"><ele>664.0</ele><time>2026-04-16T08:58:40.849Z</time></trkpt><trkpt lat="42.6288583" lon="-8.354195"><ele>664.0</ele><time>2026-04-16T08:58:41.849Z</time></trkpt><trkpt lat="42.6290667" lon="-8.35426"><ele>664.0</ele><time>2026-04-16T08:58:42.849Z</time></trkpt><trkpt lat="42.6292633" lon="-8.354325"><ele>664.0</ele><time>2026-04-16T08:58:43.85Z</time></trkpt><trkpt lat="42.6294617" lon="-8.3543983"><ele>661.0</ele><time>2026-04-16T08:58:44.849Z</time></trkpt><trkpt lat="42.6296567" lon="-8.3544583"><ele>658.0</ele><time>2026-04-16T08:58:45.85Z</time></trkpt><trkpt lat="42.6298333" lon="-8.35451"><ele>655.0</ele><time>2026-04-16T08:58:46.849Z</time></trkpt><trkpt lat="42.62998" lon="-8.3545533"><ele>655.0</ele><time>2026-04-16T08:58:47.85Z</time></trkpt><trkpt lat="42.6300883" lon="-8.3545933"><ele>655.0</ele><time>2026-04-16T08:58:48.85Z</time></trkpt><trkpt lat="42.63015" lon="-8.3546383"><ele>655.0</ele><time>2026-04-16T08:58:49.849Z</time></trkpt><trkpt lat="42.6302083" lon="-8.3547117"><ele>655.0</ele><time>2026-04-16T08:58:51.85Z</time></trkpt><trkpt lat="42.630165" lon="-8.3548633"><ele>655.0</ele><time>2026-04-16T08:58:53.849Z</time></trkpt><trkpt lat="42.6301317" lon="-8.355"><ele>653.6666666666667</ele><time>2026-04-16T08:58:54.85Z</time></trkpt><trkpt lat="42.6301033" lon="-8.35519"><ele>652.3333333333334</ele><time>2026-04-16T08:58:55.849Z</time></trkpt><trkpt lat="42.6300783" lon="-8.3554367"><ele>651.0</ele><time>2026-04-16T08:58:56.849Z</time></trkpt><trkpt lat="42.63006" lon="-8.3557067"><ele>649.3333333333334</ele><time>2026-04-16T08:58:57.849Z</time></trkpt><trkpt lat="42.630035" lon="-8.3559733"><ele>647.6666666666667</ele><time>2026-04-16T08:58:58.849Z</time></trkpt><trkpt lat="42.6299967" lon="-8.35619"><ele>646.0</ele><time>2026-04-16T08:58:59.85Z</time></trkpt><trkpt lat="42.62997" lon="-8.3563533"><ele>643.8</ele><time>2026-04-16T08:59:00.85Z</time></trkpt><trkpt lat="42.6299317" lon="-8.35646"><ele>641.5999999999999</ele><time>2026-04-16T08:59:01.849Z</time></trkpt><trkpt lat="42.629875" lon="-8.3565267"><ele>639.4</ele><time>2026-04-16T08:59:02.849Z</time></trkpt><trkpt lat="42.6297867" lon="-8.3565717"><ele>637.2</ele><time>2026-04-16T08:59:03.85Z</time></trkpt><trkpt lat="42.6296867" lon="-8.3566283"><ele>635.0</ele><time>2026-04-16T08:59:04.849Z</time></trkpt><trkpt lat="42.6295733" lon="-8.3567117"><ele>636.75</ele><time>2026-04-16T08:59:05.849Z</time></trkpt><trkpt lat="42.6294467" lon="-8.356795"><ele>638.5</ele><time>2026-04-16T08:59:06.849Z</time></trkpt><trkpt lat="42.6293233" lon="-8.3568667"><ele>640.25</ele><time>2026-04-16T08:59:07.849Z</time></trkpt><trkpt lat="42.6292233" lon="-8.3569017"><ele>642.0</ele><time>2026-04-16T08:59:08.85Z</time></trkpt><trkpt lat="42.629115" lon="-8.35689"><ele>642.0</ele><time>2026-04-16T08:59:09.849Z</time></trkpt><trkpt lat="42.6289883" lon="-8.35685"><ele>642.0</ele><time>2026-04-16T08:59:10.85Z</time></trkpt><trkpt lat="42.62883" lon="-8.3568017"><ele>642.0</ele><time>2026-04-16T08:59:11.849Z</time></trkpt><trkpt lat="42.6286883" lon="-8.3567567"><ele>642.0</ele><time>2026-04-16T08:59:12.85Z</time></trkpt><trkpt lat="42.62856" lon="-8.3566817"><ele>642.3333333333334</ele><time>2026-04-16T08:59:13.849Z</time></trkpt><trkpt lat="42.6284317" lon="-8.3565683"><ele>642.6666666666667</ele><time>2026-04-16T08:59:14.85Z</time></trkpt><trkpt lat="42.6282933" lon="-8.3564117"><ele>643.0</ele><time>2026-04-16T08:59:15.849Z</time></trkpt><trkpt lat="42.628155" lon="-8.3562383"><ele>643.0</ele><time>2026-04-16T08:59:16.849Z</time></trkpt><trkpt lat="42.6280317" lon="-8.35608"><ele>643.0</ele><time>2026-04-16T08:59:17.85Z</time></trkpt><trkpt lat="42.627925" lon="-8.3559267"><ele>643.0</ele><time>2026-04-16T08:59:18.85Z</time></trkpt><trkpt lat="42.6278517" lon="-8.3558167"><ele>643.0</ele><time>2026-04-16T08:59:19.849Z</time></trkpt><trkpt lat="42.6278017" lon="-8.355745"><ele>642.8</ele><time>2026-04-16T08:59:20.849Z</time></trkpt><trkpt lat="42.62774" lon="-8.3557867"><ele>642.5999999999999</ele><time>2026-04-16T08:59:22.85Z</time></trkpt><trkpt lat="42.6277083" lon="-8.3558717"><ele>642.4000000000001</ele><time>2026-04-16T08:59:23.85Z</time></trkpt><trkpt lat="42.6276833" lon="-8.3560017"><ele>642.2</ele><time>2026-04-16T08:59:24.85Z</time></trkpt><trkpt lat="42.6276583" lon="-8.35618"><ele>642.0</ele><time>2026-04-16T08:59:25.85Z</time></trkpt><trkpt lat="42.627665" lon="-8.3564333"><ele>642.0</ele><time>2026-04-16T08:59:26.849Z</time></trkpt><trkpt lat="42.6276767" lon="-8.35665"><ele>642.0</ele><time>2026-04-16T08:59:27.849Z</time></trkpt><trkpt lat="42.6276733" lon="-8.3568117"><ele>642.0</ele><time>2026-04-16T08:59:28.85Z</time></trkpt><trkpt lat="42.6276317" lon="-8.3569217"><ele>642.0</ele><time>2026-04-16T08:59:29.85Z</time></trkpt><trkpt lat="42.6275517" lon="-8.356985"><ele>642.0</ele><time>2026-04-16T08:59:30.849Z</time></trkpt><trkpt lat="42.6274433" lon="-8.357035"><ele>642.0</ele><time>2026-04-16T08:59:31.849Z</time></trkpt><trkpt lat="42.6273183" lon="-8.3570867"><ele>642.0</ele><time>2026-04-16T08:59:32.85Z</time></trkpt><trkpt lat="42.6271883" lon="-8.3571483"><ele>642.0</ele><time>2026-04-16T08:59:33.849Z</time></trkpt><trkpt lat="42.6270783" lon="-8.3572083"><ele>640.75</ele><time>2026-04-16T08:59:34.85Z</time></trkpt><trkpt lat="42.6270033" lon="-8.3572683"><ele>639.5</ele><time>2026-04-16T08:59:35.85Z</time></trkpt><trkpt lat="42.6269567" lon="-8.3574417"><ele>638.25</ele><time>2026-04-16T08:59:37.849Z</time></trkpt><trkpt lat="42.6269367" lon="-8.3575733"><ele>637.0</ele><time>2026-04-16T08:59:38.85Z</time></trkpt><trkpt lat="42.6269283" lon="-8.357755"><ele>637.0</ele><time>2026-04-16T08:59:39.849Z</time></trkpt><trkpt lat="42.6269117" lon="-8.35799"><ele>637.0</ele><time>2026-04-16T08:59:40.85Z</time></trkpt><trkpt lat="42.62689" lon="-8.3582683"><ele>637.0</ele><time>2026-04-16T08:59:41.849Z</time></trkpt><trkpt lat="42.6268617" lon="-8.3585267"><ele>634.3333333333334</ele><time>2026-04-16T08:59:42.849Z</time></trkpt><trkpt lat="42.6268167" lon="-8.35878"><ele>631.6666666666666</ele><time>2026-04-16T08:59:43.85Z</time></trkpt><trkpt lat="42.62678" lon="-8.35903"><ele>629.0</ele><time>2026-04-16T08:59:44.849Z</time></trkpt><trkpt lat="42.6267417" lon="-8.3592583"><ele>626.6666666666666</ele><time>2026-04-16T08:59:45.85Z</time></trkpt><trkpt lat="42.6267083" lon="-8.35948"><ele>624.3333333333334</ele><time>2026-04-16T08:59:46.849Z</time></trkpt><trkpt lat="42.6266683" lon="-8.3596883"><ele>622.0</ele><time>2026-04-16T08:59:47.85Z</time></trkpt><trkpt lat="42.6266233" lon="-8.3598833"><ele>620.4</ele><time>2026-04-16T08:59:48.85Z</time></trkpt><trkpt lat="42.6265717" lon="-8.3600483"><ele>618.8000000000001</ele><time>2026-04-16T08:59:49.85Z</time></trkpt><trkpt lat="42.6265133" lon="-8.3601817"><ele>617.2</ele><time>2026-04-16T08:59:50.85Z</time></trkpt><trkpt lat="42.6264567" lon="-8.36028"><ele>615.6</ele><time>2026-04-16T08:59:51.849Z</time></trkpt><trkpt lat="42.6264067" lon="-8.3603733"><ele>614.0</ele><time>2026-04-16T08:59:53.85Z</time></trkpt><trkpt lat="42.626365" lon="-8.3602867"><ele>614.0</ele><time>2026-04-16T09:00:00.85Z</time></trkpt><trkpt lat="42.6262917" lon="-8.3601283"><ele>614.0</ele><time>2026-04-16T09:00:02.849Z</time></trkpt><trkpt lat="42.6262333" lon="-8.3600017"><ele>614.0</ele><time>2026-04-16T09:00:03.85Z</time></trkpt><trkpt lat="42.62616" lon="-8.3598367"><ele>614.0</ele><time>2026-04-16T09:00:04.849Z</time></trkpt><trkpt lat="42.626045" lon="-8.3596167"><ele>616.3333333333333</ele><time>2026-04-16T09:00:05.85Z</time></trkpt><trkpt lat="42.625905" lon="-8.359395"><ele>618.6666666666666</ele><time>2026-04-16T09:00:06.85Z</time></trkpt><trkpt lat="42.6257583" lon="-8.3591667"><ele>621.0</ele><time>2026-04-16T09:00:07.849Z</time></trkpt><trkpt lat="42.6256167" lon="-8.3589517"><ele>624.3333333333334</ele><time>2026-04-16T09:00:08.849Z</time></trkpt><trkpt lat="42.6254583" lon="-8.3587333"><ele>627.6666666666667</ele><time>2026-04-16T09:00:09.849Z</time></trkpt><trkpt lat="42.6252967" lon="-8.358535"><ele>631.0</ele><time>2026-04-16T09:00:10.849Z</time></trkpt><trkpt lat="42.62515" lon="-8.3583733"><ele>631.25</ele><time>2026-04-16T09:00:11.849Z</time></trkpt><trkpt lat="42.625035" lon="-8.3582833"><ele>631.5</ele><time>2026-04-16T09:00:12.85Z</time></trkpt><trkpt lat="42.6249383" lon="-8.35826"><ele>631.75</ele><time>2026-04-16T09:00:13.85Z</time></trkpt><trkpt lat="42.62481" lon="-8.358265"><ele>632.0</ele><time>2026-04-16T09:00:14.85Z</time></trkpt><trkpt lat="42.6246433" lon="-8.358275"><ele>633.6666666666666</ele><time>2026-04-16T09:00:15.849Z</time></trkpt><trkpt lat="42.62444" lon="-8.3582833"><ele>635.3333333333334</ele><time>2026-04-16T09:00:16.85Z</time></trkpt><trkpt lat="42.6242283" lon="-8.358275"><ele>637.0</ele><time>2026-04-16T09:00:17.849Z</time></trkpt><trkpt lat="42.6240083" lon="-8.3582633"><ele>637.0</ele><time>2026-04-16T09:00:18.849Z</time></trkpt><trkpt lat="42.6237883" lon="-8.358255"><ele>637.0</ele><time>2026-04-16T09:00:19.849Z</time></trkpt><trkpt lat="42.6235817" lon="-8.3582817"><ele>637.0</ele><time>2026-04-16T09:00:20.85Z</time></trkpt><trkpt lat="42.6233983" lon="-8.3583433"><ele>640.0</ele><time>2026-04-16T09:00:21.85Z</time></trkpt><trkpt lat="42.6232167" lon="-8.35842"><ele>643.0</ele><time>2026-04-16T09:00:22.85Z</time></trkpt><trkpt lat="42.62303" lon="-8.3585033"><ele>646.0</ele><time>2026-04-16T09:00:23.849Z</time></trkpt><trkpt lat="42.6228317" lon="-8.3585833"><ele>648.6666666666667</ele><time>2026-04-16T09:00:24.849Z</time></trkpt><trkpt lat="42.6226233" lon="-8.3586583"><ele>651.3333333333334</ele><time>2026-04-16T09:00:25.85Z</time></trkpt><trkpt lat="42.6224083" lon="-8.3587467"><ele>654.0</ele><time>2026-04-16T09:00:26.85Z</time></trkpt><trkpt lat="42.6222033" lon="-8.358825"><ele>653.3333333333334</ele><time>2026-04-16T09:00:27.85Z</time></trkpt><trkpt lat="42.6220067" lon="-8.3589183"><ele>652.6666666666667</ele><time>2026-04-16T09:00:28.849Z</time></trkpt><trkpt lat="42.621815" lon="-8.3590167"><ele>652.0</ele><time>2026-04-16T09:00:29.85Z</time></trkpt><trkpt lat="42.6216133" lon="-8.3590967"><ele>652.0</ele><time>2026-04-16T09:00:30.85Z</time></trkpt><trkpt lat="42.6214233" lon="-8.3591767"><ele>652.0</ele><time>2026-04-16T09:00:31.85Z</time></trkpt><trkpt lat="42.6212333" lon="-8.3592283"><ele>652.0</ele><time>2026-04-16T09:00:32.85Z</time></trkpt><trkpt lat="42.6210533" lon="-8.35925"><ele>652.5</ele><time>2026-04-16T09:00:33.85Z</time></trkpt><trkpt lat="42.6209217" lon="-8.3592367"><ele>653.0</ele><time>2026-04-16T09:00:34.849Z</time></trkpt><trkpt lat="42.6208" lon="-8.3591867"><ele>653.5</ele><time>2026-04-16T09:00:35.849Z</time></trkpt><trkpt lat="42.6206767" lon="-8.359105"><ele>654.0</ele><time>2026-04-16T09:00:36.85Z</time></trkpt><trkpt lat="42.6205617" lon="-8.3589917"><ele>654.0</ele><time>2026-04-16T09:00:37.85Z</time></trkpt><trkpt lat="42.6204467" lon="-8.3588383"><ele>654.0</ele><time>2026-04-16T09:00:38.849Z</time></trkpt><trkpt lat="42.62033" lon="-8.3586433"><ele>654.0</ele><time>2026-04-16T09:00:39.85Z</time></trkpt><trkpt lat="42.620205" lon="-8.3584467"><ele>654.0</ele><time>2026-04-16T09:00:40.849Z</time></trkpt><trkpt lat="42.6200683" lon="-8.3582467"><ele>654.0</ele><time>2026-04-16T09:00:41.849Z</time></trkpt><trkpt lat="42.61994" lon="-8.35807"><ele>654.0</ele><time>2026-04-16T09:00:42.849Z</time></trkpt><trkpt lat="42.6198283" lon="-8.3579233"><ele>654.3333333333334</ele><time>2026-04-16T09:00:43.85Z</time></trkpt><trkpt lat="42.61974" lon="-8.3578183"><ele>654.6666666666666</ele><time>2026-04-16T09:00:44.849Z</time></trkpt><trkpt lat="42.6196717" lon="-8.3577683"><ele>655.0</ele><time>2026-04-16T09:00:45.849Z</time></trkpt><trkpt lat="42.6195983" lon="-8.3577667"><ele>655.3333333333333</ele><time>2026-04-16T09:00:46.85Z</time></trkpt><trkpt lat="42.6195383" lon="-8.3578"><ele>655.6666666666666</ele><time>2026-04-16T09:00:47.85Z</time></trkpt><trkpt lat="42.619485" lon="-8.357855"><ele>656.0</ele><time>2026-04-16T09:00:48.849Z</time></trkpt><trkpt lat="42.61945" lon="-8.3579317"><ele>655.6666666666666</ele><time>2026-04-16T09:00:49.85Z</time></trkpt><trkpt lat="42.6194367" lon="-8.3580217"><ele>655.3333333333333</ele><time>2026-04-16T09:00:50.85Z</time></trkpt><trkpt lat="42.61944" lon="-8.3581167"><ele>655.0</ele><time>2026-04-16T09:00:51.85Z</time></trkpt><trkpt lat="42.61946" lon="-8.35822"><ele>654.6666666666666</ele><time>2026-04-16T09:00:52.849Z</time></trkpt><trkpt lat="42.6195" lon="-8.35835"><ele>654.3333333333334</ele><time>2026-04-16T09:00:53.849Z</time></trkpt><trkpt lat="42.619555" lon="-8.35849"><ele>654.0</ele><time>2026-04-16T09:00:54.85Z</time></trkpt><trkpt lat="42.6196017" lon="-8.3586367"><ele>654.0</ele><time>2026-04-16T09:00:55.85Z</time></trkpt><trkpt lat="42.6196417" lon="-8.3587917"><ele>654.0</ele><time>2026-04-16T09:00:56.849Z</time></trkpt><trkpt lat="42.6196817" lon="-8.3589383"><ele>654.0</ele><time>2026-04-16T09:00:57.85Z</time></trkpt><trkpt lat="42.619725" lon="-8.3590883"><ele>654.0</ele><time>2026-04-16T09:00:58.849Z</time></trkpt><trkpt lat="42.619765" lon="-8.35923"><ele>652.8000000000001</ele><time>2026-04-16T09:00:59.85Z</time></trkpt><trkpt lat="42.6198033" lon="-8.359375"><ele>651.6</ele><time>2026-04-16T09:01:00.85Z</time></trkpt><trkpt lat="42.6198333" lon="-8.35951"><ele>650.4</ele><time>2026-04-16T09:01:01.849Z</time></trkpt><trkpt lat="42.6198683" lon="-8.3596417"><ele>649.2</ele><time>2026-04-16T09:01:02.85Z</time></trkpt><trkpt lat="42.619895" lon="-8.35978"><ele>648.0</ele><time>2026-04-16T09:01:03.849Z</time></trkpt><trkpt lat="42.6199083" lon="-8.3599383"><ele>647.0</ele><time>2026-04-16T09:01:04.849Z</time></trkpt><trkpt lat="42.6199167" lon="-8.360095"><ele>646.0</ele><time>2026-04-16T09:01:05.849Z</time></trkpt><trkpt lat="42.6199183" lon="-8.3602567"><ele>645.0</ele><time>2026-04-16T09:01:06.85Z</time></trkpt><trkpt lat="42.6199233" lon="-8.3604217"><ele>644.0</ele><time>2026-04-16T09:01:07.849Z</time></trkpt><trkpt lat="42.61993" lon="-8.36058"><ele>643.8000000000001</ele><time>2026-04-16T09:01:08.849Z</time></trkpt><trkpt lat="42.6199283" lon="-8.3607383"><ele>643.6</ele><time>2026-04-16T09:01:09.85Z</time></trkpt><trkpt lat="42.619925" lon="-8.3608833"><ele>643.4</ele><time>2026-04-16T09:01:10.849Z</time></trkpt><trkpt lat="42.6199267" lon="-8.36102"><ele>643.2</ele><time>2026-04-16T09:01:11.849Z</time></trkpt><trkpt lat="42.61993" lon="-8.3611433"><ele>643.0</ele><time>2026-04-16T09:01:12.849Z</time></trkpt><trkpt lat="42.6199567" lon="-8.3612567"><ele>642.1999999999999</ele><time>2026-04-16T09:01:13.85Z</time></trkpt><trkpt lat="42.6199967" lon="-8.3613667"><ele>641.4</ele><time>2026-04-16T09:01:14.85Z</time></trkpt><trkpt lat="42.62005" lon="-8.3614583"><ele>640.5999999999999</ele><time>2026-04-16T09:01:15.85Z</time></trkpt><trkpt lat="42.6201233" lon="-8.36154"><ele>639.8</ele><time>2026-04-16T09:01:16.849Z</time></trkpt><trkpt lat="42.6202033" lon="-8.3616017"><ele>639.0</ele><time>2026-04-16T09:01:17.849Z</time></trkpt><trkpt lat="42.620295" lon="-8.361645"><ele>638.4</ele><time>2026-04-16T09:01:18.849Z</time></trkpt><trkpt lat="42.6203983" lon="-8.3616617"><ele>637.8</ele><time>2026-04-16T09:01:19.849Z</time></trkpt><trkpt lat="42.620505" lon="-8.36167"><ele>637.2</ele><time>2026-04-16T09:01:20.85Z</time></trkpt><trkpt lat="42.620615" lon="-8.3616833"><ele>636.6</ele><time>2026-04-16T09:01:21.849Z</time></trkpt><trkpt lat="42.6207317" lon="-8.3617067"><ele>636.0</ele><time>2026-04-16T09:01:22.85Z</time></trkpt><trkpt lat="42.6208467" lon="-8.3617217"><ele>636.0</ele><time>2026-04-16T09:01:23.849Z</time></trkpt><trkpt lat="42.620955" lon="-8.361725"><ele>636.0</ele><time>2026-04-16T09:01:24.85Z</time></trkpt><trkpt lat="42.621075" lon="-8.361745"><ele>636.0</ele><time>2026-04-16T09:01:25.849Z</time></trkpt><trkpt lat="42.621195" lon="-8.3617617"><ele>636.0</ele><time>2026-04-16T09:01:26.849Z</time></trkpt><trkpt lat="42.6213167" lon="-8.3617733"><ele>634.75</ele><time>2026-04-16T09:01:27.849Z</time></trkpt><trkpt lat="42.621435" lon="-8.3617817"><ele>633.5</ele><time>2026-04-16T09:01:28.85Z</time></trkpt><trkpt lat="42.6215633" lon="-8.36179"><ele>632.25</ele><time>2026-04-16T09:01:29.849Z</time></trkpt><trkpt lat="42.6216933" lon="-8.3618067"><ele>631.0</ele><time>2026-04-16T09:01:30.85Z</time></trkpt><trkpt lat="42.621815" lon="-8.3618217"><ele>631.0</ele><time>2026-04-16T09:01:31.849Z</time></trkpt><trkpt lat="42.621925" lon="-8.3618417"><ele>631.0</ele><time>2026-04-16T09:01:32.85Z</time></trkpt><trkpt lat="42.6220233" lon="-8.3618833"><ele>631.0</ele><time>2026-04-16T09:01:33.851Z</time></trkpt><trkpt lat="42.6221183" lon="-8.361965"><ele>631.0</ele><time>2026-04-16T09:01:34.85Z</time></trkpt><trkpt lat="42.622225" lon="-8.3621067"><ele>627.6666666666667</ele><time>2026-04-16T09:01:35.85Z</time></trkpt><trkpt lat="42.6223467" lon="-8.36229"><ele>624.3333333333334</ele><time>2026-04-16T09:01:36.851Z</time></trkpt><trkpt lat="42.622475" lon="-8.3624867"><ele>621.0</ele><time>2026-04-16T09:01:37.851Z</time></trkpt><trkpt lat="42.6226017" lon="-8.362675"><ele>621.0</ele><time>2026-04-16T09:01:38.851Z</time></trkpt><trkpt lat="42.6227267" lon="-8.3628567"><ele>621.0</ele><time>2026-04-16T09:01:39.851Z</time></trkpt><trkpt lat="42.6228533" lon="-8.3630633"><ele>621.0</ele><time>2026-04-16T09:01:40.85Z</time></trkpt><trkpt lat="42.6229833" lon="-8.3632567"><ele>617.0</ele><time>2026-04-16T09:01:41.851Z</time></trkpt><trkpt lat="42.623105" lon="-8.36343"><ele>613.0</ele><time>2026-04-16T09:01:42.85Z</time></trkpt><trkpt lat="42.623215" lon="-8.363615"><ele>609.0</ele><time>2026-04-16T09:01:43.851Z</time></trkpt><trkpt lat="42.6233317" lon="-8.3637867"><ele>607.0</ele><time>2026-04-16T09:01:44.851Z</time></trkpt><trkpt lat="42.6234183" lon="-8.3639567"><ele>605.0</ele><time>2026-04-16T09:01:45.851Z</time></trkpt><trkpt lat="42.6235" lon="-8.3640867"><ele>603.0</ele><time>2026-04-16T09:01:46.85Z</time></trkpt><trkpt lat="42.6235717" lon="-8.3641733"><ele>601.0</ele><time>2026-04-16T09:01:47.851Z</time></trkpt><trkpt lat="42.6236367" lon="-8.364245"><ele>599.6</ele><time>2026-04-16T09:01:48.85Z</time></trkpt><trkpt lat="42.6237083" lon="-8.3642833"><ele>598.2</ele><time>2026-04-16T09:01:49.851Z</time></trkpt><trkpt lat="42.6238033" lon="-8.3643233"><ele>596.8</ele><time>2026-04-16T09:01:50.85Z</time></trkpt><trkpt lat="42.623905" lon="-8.3643583"><ele>595.4</ele><time>2026-04-16T09:01:51.851Z</time></trkpt><trkpt lat="42.6240383" lon="-8.36439"><ele>594.0</ele><time>2026-04-16T09:01:52.85Z</time></trkpt><trkpt lat="42.6241767" lon="-8.3644133"><ele>594.0</ele><time>2026-04-16T09:01:53.851Z</time></trkpt><trkpt lat="42.6243333" lon="-8.36444"><ele>594.0</ele><time>2026-04-16T09:01:54.85Z</time></trkpt><trkpt lat="42.6245017" lon="-8.364475"><ele>594.0</ele><time>2026-04-16T09:01:55.851Z</time></trkpt><trkpt lat="42.6246617" lon="-8.3645083"><ele>590.3333333333334</ele><time>2026-04-16T09:01:56.851Z</time></trkpt><trkpt lat="42.6248233" lon="-8.3645267"><ele>586.6666666666667</ele><time>2026-04-16T09:01:57.851Z</time></trkpt><trkpt lat="42.624985" lon="-8.3645417"><ele>583.0</ele><time>2026-04-16T09:01:58.85Z</time></trkpt><trkpt lat="42.6251583" lon="-8.36456"><ele>583.6666666666667</ele><time>2026-04-16T09:01:59.851Z</time></trkpt><trkpt lat="42.6253383" lon="-8.364605"><ele>584.3333333333334</ele><time>2026-04-16T09:02:00.851Z</time></trkpt><trkpt lat="42.6255367" lon="-8.3646417"><ele>585.0</ele><time>2026-04-16T09:02:01.851Z</time></trkpt><trkpt lat="42.62576" lon="-8.36468"><ele>584.3333333333334</ele><time>2026-04-16T09:02:02.85Z</time></trkpt><trkpt lat="42.6259917" lon="-8.3647267"><ele>583.6666666666667</ele><time>2026-04-16T09:02:03.851Z</time></trkpt><trkpt lat="42.626195" lon="-8.364775"><ele>583.0</ele><time>2026-04-16T09:02:04.85Z</time></trkpt><trkpt lat="42.6263883" lon="-8.3648367"><ele>585.6666666666667</ele><time>2026-04-16T09:02:05.85Z</time></trkpt><trkpt lat="42.626555" lon="-8.3648317"><ele>588.3333333333334</ele><time>2026-04-16T09:02:06.85Z</time></trkpt><trkpt lat="42.626705" lon="-8.364815"><ele>591.0</ele><time>2026-04-16T09:02:07.85Z</time></trkpt><trkpt lat="42.6268333" lon="-8.36475"><ele>590.3333333333334</ele><time>2026-04-16T09:02:08.851Z</time></trkpt><trkpt lat="42.626955" lon="-8.3646517"><ele>589.6666666666667</ele><time>2026-04-16T09:02:09.85Z</time></trkpt><trkpt lat="42.6270733" lon="-8.3645033"><ele>589.0</ele><time>2026-04-16T09:02:10.85Z</time></trkpt><trkpt lat="42.6271933" lon="-8.3643333"><ele>588.6666666666667</ele><time>2026-04-16T09:02:11.85Z</time></trkpt><trkpt lat="42.6273183" lon="-8.3641533"><ele>588.3333333333334</ele><time>2026-04-16T09:02:12.85Z</time></trkpt><trkpt lat="42.627465" lon="-8.3639533"><ele>588.0</ele><time>2026-04-16T09:02:13.851Z</time></trkpt><trkpt lat="42.6275867" lon="-8.36377"><ele>588.0</ele><time>2026-04-16T09:02:14.851Z</time></trkpt><trkpt lat="42.6277067" lon="-8.3635967"><ele>588.0</ele><time>2026-04-16T09:02:15.85Z</time></trkpt><trkpt lat="42.6278117" lon="-8.36344"><ele>588.0</ele><time>2026-04-16T09:02:16.85Z</time></trkpt><trkpt lat="42.6278917" lon="-8.36332"><ele>587.3333333333334</ele><time>2026-04-16T09:02:17.851Z</time></trkpt><trkpt lat="42.627935" lon="-8.3632467"><ele>586.6666666666666</ele><time>2026-04-16T09:02:18.85Z</time></trkpt><trkpt lat="42.6280033" lon="-8.3632067"><ele>586.0</ele><time>2026-04-16T09:02:20.85Z</time></trkpt><trkpt lat="42.6280917" lon="-8.363295"><ele>585.3333333333333</ele><time>2026-04-16T09:02:22.85Z</time></trkpt><trkpt lat="42.62815" lon="-8.3633733"><ele>584.6666666666666</ele><time>2026-04-16T09:02:23.85Z</time></trkpt><trkpt lat="42.6282067" lon="-8.3634917"><ele>584.0</ele><time>2026-04-16T09:02:24.851Z</time></trkpt><trkpt lat="42.6282517" lon="-8.36363"><ele>584.0</ele><time>2026-04-16T09:02:25.85Z</time></trkpt><trkpt lat="42.6282867" lon="-8.363745"><ele>584.0</ele><time>2026-04-16T09:02:26.85Z</time></trkpt><trkpt lat="42.62831" lon="-8.3638467"><ele>584.0</ele><time>2026-04-16T09:02:27.85Z</time></trkpt><trkpt lat="42.62834" lon="-8.3640133"><ele>584.0</ele><time>2026-04-16T09:02:29.851Z</time></trkpt><trkpt lat="42.628355" lon="-8.364105"><ele>584.0</ele><time>2026-04-16T09:02:30.85Z</time></trkpt><trkpt lat="42.6283783" lon="-8.364215"><ele>584.0</ele><time>2026-04-16T09:02:31.851Z</time></trkpt><trkpt lat="42.6283983" lon="-8.3643283"><ele>584.8</ele><time>2026-04-16T09:02:32.851Z</time></trkpt><trkpt lat="42.6284233" lon="-8.364465"><ele>585.5999999999999</ele><time>2026-04-16T09:02:33.85Z</time></trkpt><trkpt lat="42.6284633" lon="-8.3645983"><ele>586.4</ele><time>2026-04-16T09:02:34.85Z</time></trkpt><trkpt lat="42.6285233" lon="-8.364755"><ele>587.1999999999999</ele><time>2026-04-16T09:02:35.85Z</time></trkpt><trkpt lat="42.6285733" lon="-8.3648533"><ele>588.0</ele><time>2026-04-16T09:02:36.851Z</time></trkpt><trkpt lat="42.6286217" lon="-8.3649367"><ele>584.3333333333334</ele><time>2026-04-16T09:02:37.851Z</time></trkpt><trkpt lat="42.6286717" lon="-8.365035"><ele>580.6666666666666</ele><time>2026-04-16T09:02:38.85Z</time></trkpt><trkpt lat="42.62872" lon="-8.36512"><ele>577.0</ele><time>2026-04-16T09:02:39.851Z</time></trkpt><trkpt lat="42.6287733" lon="-8.3651967"><ele>573.3333333333333</ele><time>2026-04-16T09:02:40.851Z</time></trkpt><trkpt lat="42.6288283" lon="-8.365275"><ele>569.6666666666666</ele><time>2026-04-16T09:02:41.85Z</time></trkpt><trkpt lat="42.6288867" lon="-8.3653633"><ele>566.0</ele><time>2026-04-16T09:02:42.85Z</time></trkpt><trkpt lat="42.62895" lon="-8.3654517"><ele>567.8333333333333</ele><time>2026-04-16T09:02:43.85Z</time></trkpt><trkpt lat="42.6290083" lon="-8.365545"><ele>569.6666666666666</ele><time>2026-04-16T09:02:44.851Z</time></trkpt><trkpt lat="42.6290583" lon="-8.3656333"><ele>571.5</ele><time>2026-04-16T09:02:45.85Z</time></trkpt><trkpt lat="42.629105" lon="-8.36572"><ele>573.3333333333334</ele><time>2026-04-16T09:02:46.851Z</time></trkpt><trkpt lat="42.6291433" lon="-8.36581"><ele>575.1666666666667</ele><time>2026-04-16T09:02:47.851Z</time></trkpt><trkpt lat="42.629175" lon="-8.3659067"><ele>577.0</ele><time>2026-04-16T09:02:48.85Z</time></trkpt><trkpt lat="42.6292033" lon="-8.36601"><ele>577.0</ele><time>2026-04-16T09:02:49.851Z</time></trkpt><trkpt lat="42.629225" lon="-8.3660983"><ele>577.0</ele><time>2026-04-16T09:02:50.85Z</time></trkpt><trkpt lat="42.6292467" lon="-8.3661917"><ele>577.0</ele><time>2026-04-16T09:02:51.851Z</time></trkpt><trkpt lat="42.6292667" lon="-8.36628"><ele>577.0</ele><time>2026-04-16T09:02:52.85Z</time></trkpt><trkpt lat="42.6292783" lon="-8.366375"><ele>577.0</ele><time>2026-04-16T09:02:53.851Z</time></trkpt><trkpt lat="42.62929" lon="-8.366475"><ele>577.0</ele><time>2026-04-16T09:02:54.85Z</time></trkpt><trkpt lat="42.629305" lon="-8.366575"><ele>577.0</ele><time>2026-04-16T09:02:55.85Z</time></trkpt><trkpt lat="42.6293167" lon="-8.366685"><ele>577.5</ele><time>2026-04-16T09:02:56.85Z</time></trkpt><trkpt lat="42.629325" lon="-8.3668017"><ele>578.0</ele><time>2026-04-16T09:02:57.851Z</time></trkpt><trkpt lat="42.6293367" lon="-8.366915"><ele>578.5</ele><time>2026-04-16T09:02:58.85Z</time></trkpt><trkpt lat="42.6293483" lon="-8.3670233"><ele>579.0</ele><time>2026-04-16T09:02:59.85Z</time></trkpt><trkpt lat="42.6293383" lon="-8.367125"><ele>579.5</ele><time>2026-04-16T09:03:00.85Z</time></trkpt><trkpt lat="42.62931" lon="-8.3672183"><ele>580.0</ele><time>2026-04-16T09:03:01.85Z</time></trkpt><trkpt lat="42.6292733" lon="-8.3673217"><ele>580.0</ele><time>2026-04-16T09:03:03.85Z</time></trkpt><trkpt lat="42.6292633" lon="-8.36723"><ele>580.0</ele><time>2026-04-16T09:03:13.851Z</time></trkpt><trkpt lat="42.6292783" lon="-8.3671317"><ele>580.0</ele><time>2026-04-16T09:03:14.851Z</time></trkpt><trkpt lat="42.6292883" lon="-8.3669883"><ele>580.0</ele><time>2026-04-16T09:03:15.851Z</time></trkpt><trkpt lat="42.6292933" lon="-8.36679"><ele>580.0</ele><time>2026-04-16T09:03:16.85Z</time></trkpt><trkpt lat="42.629285" lon="-8.36655"><ele>579.0</ele><time>2026-04-16T09:03:17.85Z</time></trkpt><trkpt lat="42.62926" lon="-8.3662917"><ele>578.0</ele><time>2026-04-16T09:03:18.85Z</time></trkpt><trkpt lat="42.62922" lon="-8.3660333"><ele>577.0</ele><time>2026-04-16T09:03:19.85Z</time></trkpt><trkpt lat="42.6291717" lon="-8.3658167"><ele>577.0</ele><time>2026-04-16T09:03:20.851Z</time></trkpt><trkpt lat="42.6291167" lon="-8.365615"><ele>577.0</ele><time>2026-04-16T09:03:21.85Z</time></trkpt><trkpt lat="42.629025" lon="-8.36543"><ele>577.0</ele><time>2026-04-16T09:03:22.85Z</time></trkpt><trkpt lat="42.6289133" lon="-8.3652433"><ele>573.3333333333334</ele><time>2026-04-16T09:03:23.85Z</time></trkpt><trkpt lat="42.6288067" lon="-8.3650533"><ele>569.6666666666666</ele><time>2026-04-16T09:03:24.85Z</time></trkpt><trkpt lat="42.6286833" lon="-8.364885"><ele>566.0</ele><time>2026-04-16T09:03:25.85Z</time></trkpt><trkpt lat="42.6285733" lon="-8.3647267"><ele>571.5</ele><time>2026-04-16T09:03:26.85Z</time></trkpt><trkpt lat="42.6284817" lon="-8.3645817"><ele>577.0</ele><time>2026-04-16T09:03:27.85Z</time></trkpt><trkpt lat="42.6284083" lon="-8.364445"><ele>582.5</ele><time>2026-04-16T09:03:28.85Z</time></trkpt><trkpt lat="42.6283533" lon="-8.364305"><ele>588.0</ele><time>2026-04-16T09:03:29.85Z</time></trkpt><trkpt lat="42.6283" lon="-8.3641617"><ele>588.0</ele><time>2026-04-16T09:03:30.851Z</time></trkpt><trkpt lat="42.6282683" lon="-8.3640133"><ele>588.0</ele><time>2026-04-16T09:03:31.85Z</time></trkpt><trkpt lat="42.6282333" lon="-8.3638533"><ele>588.0</ele><time>2026-04-16T09:03:32.85Z</time></trkpt><trkpt lat="42.62819" lon="-8.3637067"><ele>588.0</ele><time>2026-04-16T09:03:33.851Z</time></trkpt><trkpt lat="42.6281267" lon="-8.363575"><ele>588.0</ele><time>2026-04-16T09:03:34.851Z</time></trkpt><trkpt lat="42.6280567" lon="-8.3634667"><ele>588.0</ele><time>2026-04-16T09:03:35.85Z</time></trkpt><trkpt lat="42.62799" lon="-8.3633733"><ele>588.0</ele><time>2026-04-16T09:03:36.85Z</time></trkpt><trkpt lat="42.6279433" lon="-8.3633083"><ele>588.0</ele><time>2026-04-16T09:03:37.851Z</time></trkpt><trkpt lat="42.6278817" lon="-8.3632617"><ele>588.0</ele><time>2026-04-16T09:03:39.851Z</time></trkpt><trkpt lat="42.6278083" lon="-8.3633017"><ele>588.0</ele><time>2026-04-16T09:03:41.85Z</time></trkpt><trkpt lat="42.6277617" lon="-8.36336"><ele>588.0</ele><time>2026-04-16T09:03:42.851Z</time></trkpt><trkpt lat="42.6277" lon="-8.3634517"><ele>588.0</ele><time>2026-04-16T09:03:43.85Z</time></trkpt><trkpt lat="42.62762" lon="-8.3635667"><ele>588.0</ele><time>2026-04-16T09:03:44.85Z</time></trkpt><trkpt lat="42.627525" lon="-8.3637117"><ele>588.0</ele><time>2026-04-16T09:03:45.851Z</time></trkpt><trkpt lat="42.627405" lon="-8.3638817"><ele>590.0</ele><time>2026-04-16T09:03:46.851Z</time></trkpt><trkpt lat="42.627255" lon="-8.3640733"><ele>592.0</ele><time>2026-04-16T09:03:47.85Z</time></trkpt><trkpt lat="42.627105" lon="-8.3642667"><ele>594.0</ele><time>2026-04-16T09:03:48.85Z</time></trkpt><trkpt lat="42.626985" lon="-8.3644467"><ele>593.25</ele><time>2026-04-16T09:03:49.851Z</time></trkpt><trkpt lat="42.6268833" lon="-8.3646"><ele>592.5</ele><time>2026-04-16T09:03:50.851Z</time></trkpt><trkpt lat="42.6267817" lon="-8.3647183"><ele>591.75</ele><time>2026-04-16T09:03:51.85Z</time></trkpt><trkpt lat="42.6266767" lon="-8.3647917"><ele>591.0</ele><time>2026-04-16T09:03:52.85Z</time></trkpt><trkpt lat="42.62656" lon="-8.3648267"><ele>591.0</ele><time>2026-04-16T09:03:53.851Z</time></trkpt><trkpt lat="42.626425" lon="-8.3648367"><ele>591.0</ele><time>2026-04-16T09:03:54.851Z</time></trkpt><trkpt lat="42.6262783" lon="-8.36482"><ele>591.0</ele><time>2026-04-16T09:03:55.85Z</time></trkpt><trkpt lat="42.62612" lon="-8.36478"><ele>591.0</ele><time>2026-04-16T09:03:56.851Z</time></trkpt><trkpt lat="42.6259467" lon="-8.3647333"><ele>589.5</ele><time>2026-04-16T09:03:57.851Z</time></trkpt><trkpt lat="42.6257817" lon="-8.36469"><ele>588.0</ele><time>2026-04-16T09:03:58.851Z</time></trkpt><trkpt lat="42.6256317" lon="-8.364655"><ele>586.5</ele><time>2026-04-16T09:03:59.85Z</time></trkpt><trkpt lat="42.6255033" lon="-8.3646467"><ele>585.0</ele><time>2026-04-16T09:04:00.851Z</time></trkpt><trkpt lat="42.62542" lon="-8.3646467"><ele>585.0</ele><time>2026-04-16T09:04:01.851Z</time></trkpt><trkpt lat="42.625355" lon="-8.3646467"><ele>585.0</ele><time>2026-04-16T09:04:02.851Z</time></trkpt><trkpt lat="42.625305" lon="-8.3647567"><ele>585.0</ele><time>2026-04-16T09:04:04.851Z</time></trkpt><trkpt lat="42.62528" lon="-8.3648483"><ele>585.0</ele><time>2026-04-16T09:04:05.85Z</time></trkpt><trkpt lat="42.625235" lon="-8.3649667"><ele>585.0</ele><time>2026-04-16T09:04:06.85Z</time></trkpt><trkpt lat="42.625155" lon="-8.365125"><ele>582.0</ele><time>2026-04-16T09:04:07.851Z</time></trkpt><trkpt lat="42.6250267" lon="-8.365375"><ele>579.0</ele><time>2026-04-16T09:04:08.851Z</time></trkpt><trkpt lat="42.6249183" lon="-8.3656283"><ele>576.0</ele><time>2026-04-16T09:04:09.85Z</time></trkpt><trkpt lat="42.6248383" lon="-8.3658567"><ele>576.0</ele><time>2026-04-16T09:04:10.85Z</time></trkpt><trkpt lat="42.62477" lon="-8.366075"><ele>576.0</ele><time>2026-04-16T09:04:11.85Z</time></trkpt><trkpt lat="42.6247" lon="-8.3662917"><ele>576.0</ele><time>2026-04-16T09:04:12.851Z</time></trkpt><trkpt lat="42.6246333" lon="-8.3665383"><ele>576.0</ele><time>2026-04-16T09:04:13.851Z</time></trkpt><trkpt lat="42.6245767" lon="-8.3668"><ele>576.0</ele><time>2026-04-16T09:04:14.85Z</time></trkpt><trkpt lat="42.6245267" lon="-8.3670617"><ele>576.0</ele><time>2026-04-16T09:04:15.851Z</time></trkpt><trkpt lat="42.62447" lon="-8.3673183"><ele>570.6666666666666</ele><time>2026-04-16T09:04:16.851Z</time></trkpt><trkpt lat="42.62442" lon="-8.3675483"><ele>565.3333333333333</ele><time>2026-04-16T09:04:17.85Z</time></trkpt><trkpt lat="42.6243767" lon="-8.3677567"><ele>560.0</ele><time>2026-04-16T09:04:18.851Z</time></trkpt><trkpt lat="42.6243533" lon="-8.3679367"><ele>559.0</ele><time>2026-04-16T09:04:19.851Z</time></trkpt><trkpt lat="42.6243367" lon="-8.3681083"><ele>558.0</ele><time>2026-04-16T09:04:20.851Z</time></trkpt><trkpt lat="42.6243217" lon="-8.3682767"><ele>557.0</ele><time>2026-04-16T09:04:21.851Z</time></trkpt><trkpt lat="42.6243367" lon="-8.3684633"><ele>556.0</ele><time>2026-04-16T09:04:22.851Z</time></trkpt><trkpt lat="42.624345" lon="-8.3686467"><ele>556.0</ele><time>2026-04-16T09:04:23.85Z</time></trkpt><trkpt lat="42.62437" lon="-8.3688067"><ele>556.0</ele><time>2026-04-16T09:04:24.851Z</time></trkpt><trkpt lat="42.6243883" lon="-8.368935"><ele>556.0</ele><time>2026-04-16T09:04:25.85Z</time></trkpt><trkpt lat="42.6244483" lon="-8.3690483"><ele>556.0</ele><time>2026-04-16T09:04:26.85Z</time></trkpt><trkpt lat="42.6245383" lon="-8.369165"><ele>556.0</ele><time>2026-04-16T09:04:27.85Z</time></trkpt><trkpt lat="42.62464" lon="-8.3692783"><ele>556.6</ele><time>2026-04-16T09:04:28.85Z</time></trkpt><trkpt lat="42.6247483" lon="-8.3693683"><ele>557.2</ele><time>2026-04-16T09:04:29.85Z</time></trkpt><trkpt lat="42.6248533" lon="-8.36944"><ele>557.8</ele><time>2026-04-16T09:04:30.851Z</time></trkpt><trkpt lat="42.6249317" lon="-8.3694833"><ele>558.4</ele><time>2026-04-16T09:04:31.851Z</time></trkpt><trkpt lat="42.6249817" lon="-8.3695417"><ele>559.0</ele><time>2026-04-16T09:04:34.85Z</time></trkpt><trkpt lat="42.6249283" lon="-8.3696233"><ele>557.0</ele><time>2026-04-16T09:04:36.851Z</time></trkpt><trkpt lat="42.6249167" lon="-8.3697817"><ele>555.0</ele><time>2026-04-16T09:04:38.851Z</time></trkpt><trkpt lat="42.6249817" lon="-8.369915"><ele>553.0</ele><time>2026-04-16T09:04:40.851Z</time></trkpt><trkpt lat="42.625065" lon="-8.3699717"><ele>551.0</ele><time>2026-04-16T09:04:41.851Z</time></trkpt><trkpt lat="42.6251667" lon="-8.3700367"><ele>549.0</ele><time>2026-04-16T09:04:42.851Z</time></trkpt><trkpt lat="42.625275" lon="-8.3701033"><ele>550.25</ele><time>2026-04-16T09:04:43.851Z</time></trkpt><trkpt lat="42.625385" lon="-8.37016"><ele>551.5</ele><time>2026-04-16T09:04:44.851Z</time></trkpt><trkpt lat="42.62549" lon="-8.37022"><ele>552.75</ele><time>2026-04-16T09:04:45.85Z</time></trkpt><trkpt lat="42.62559" lon="-8.3702833"><ele>554.0</ele><time>2026-04-16T09:04:46.85Z</time></trkpt><trkpt lat="42.625695" lon="-8.3703533"><ele>554.0</ele><time>2026-04-16T09:04:47.851Z</time></trkpt><trkpt lat="42.6258067" lon="-8.3704083"><ele>554.0</ele><time>2026-04-16T09:04:48.85Z</time></trkpt><trkpt lat="42.6259267" lon="-8.3704533"><ele>554.0</ele><time>2026-04-16T09:04:49.85Z</time></trkpt><trkpt lat="42.6260567" lon="-8.3704867"><ele>554.0</ele><time>2026-04-16T09:04:50.85Z</time></trkpt><trkpt lat="42.6261933" lon="-8.3705117"><ele>556.25</ele><time>2026-04-16T09:04:51.851Z</time></trkpt><trkpt lat="42.62633" lon="-8.37053"><ele>558.5</ele><time>2026-04-16T09:04:52.85Z</time></trkpt><trkpt lat="42.6264633" lon="-8.3705417"><ele>560.75</ele><time>2026-04-16T09:04:53.851Z</time></trkpt><trkpt lat="42.6265933" lon="-8.3705733"><ele>563.0</ele><time>2026-04-16T09:04:54.85Z</time></trkpt><trkpt lat="42.6267033" lon="-8.37063"><ele>563.0</ele><time>2026-04-16T09:04:55.851Z</time></trkpt><trkpt lat="42.6268" lon="-8.3707233"><ele>563.0</ele><time>2026-04-16T09:04:56.85Z</time></trkpt><trkpt lat="42.62688" lon="-8.3708417"><ele>563.0</ele><time>2026-04-16T09:04:57.851Z</time></trkpt><trkpt lat="42.6269583" lon="-8.3709883"><ele>563.0</ele><time>2026-04-16T09:04:58.85Z</time></trkpt><trkpt lat="42.6270233" lon="-8.3711433"><ele>562.8</ele><time>2026-04-16T09:04:59.851Z</time></trkpt><trkpt lat="42.6270717" lon="-8.3712867"><ele>562.5999999999999</ele><time>2026-04-16T09:05:00.851Z</time></trkpt><trkpt lat="42.62709" lon="-8.3714017"><ele>562.4000000000001</ele><time>2026-04-16T09:05:01.851Z</time></trkpt><trkpt lat="42.6270983" lon="-8.371505"><ele>562.2</ele><time>2026-04-16T09:05:02.851Z</time></trkpt><trkpt lat="42.6270483" lon="-8.37158"><ele>562.0</ele><time>2026-04-16T09:05:04.85Z</time></trkpt><trkpt lat="42.626955" lon="-8.3715183"><ele>563.75</ele><time>2026-04-16T09:05:06.851Z</time></trkpt><trkpt lat="42.6268767" lon="-8.3714767"><ele>565.5</ele><time>2026-04-16T09:05:07.851Z</time></trkpt><trkpt lat="42.6267767" lon="-8.3714583"><ele>567.25</ele><time>2026-04-16T09:05:08.851Z</time></trkpt><trkpt lat="42.6266433" lon="-8.37145"><ele>569.0</ele><time>2026-04-16T09:05:09.85Z</time></trkpt><trkpt lat="42.6264833" lon="-8.3714367"><ele>569.0</ele><time>2026-04-16T09:05:10.85Z</time></trkpt><trkpt lat="42.6263167" lon="-8.371425"><ele>569.0</ele><time>2026-04-16T09:05:11.851Z</time></trkpt><trkpt lat="42.6261633" lon="-8.37142"><ele>569.0</ele><time>2026-04-16T09:05:12.851Z</time></trkpt><trkpt lat="42.6260133" lon="-8.3714267"><ele>568.3333333333333</ele><time>2026-04-16T09:05:13.851Z</time></trkpt><trkpt lat="42.6258783" lon="-8.3714683"><ele>567.6666666666666</ele><time>2026-04-16T09:05:14.85Z</time></trkpt><trkpt lat="42.6257333" lon="-8.3715383"><ele>567.0</ele><time>2026-04-16T09:05:15.85Z</time></trkpt><trkpt lat="42.6255833" lon="-8.37162"><ele>567.0</ele><time>2026-04-16T09:05:16.85Z</time></trkpt><trkpt lat="42.6254383" lon="-8.3717067"><ele>567.0</ele><time>2026-04-16T09:05:17.85Z</time></trkpt><trkpt lat="42.6253117" lon="-8.3718"><ele>567.0</ele><time>2026-04-16T09:05:18.851Z</time></trkpt><trkpt lat="42.6251983" lon="-8.3719167"><ele>567.0</ele><time>2026-04-16T09:05:19.851Z</time></trkpt><trkpt lat="42.6251" lon="-8.3720567"><ele>567.75</ele><time>2026-04-16T09:05:20.85Z</time></trkpt><trkpt lat="42.6249967" lon="-8.3722167"><ele>568.5</ele><time>2026-04-16T09:05:21.85Z</time></trkpt><trkpt lat="42.6249" lon="-8.372365"><ele>569.25</ele><time>2026-04-16T09:05:22.851Z</time></trkpt><trkpt lat="42.6248083" lon="-8.3724983"><ele>570.0</ele><time>2026-04-16T09:05:23.851Z</time></trkpt><trkpt lat="42.6246967" lon="-8.3726033"><ele>570.0</ele><time>2026-04-16T09:05:24.851Z</time></trkpt><trkpt lat="42.6245617" lon="-8.3727017"><ele>570.0</ele><time>2026-04-16T09:05:25.85Z</time></trkpt><trkpt lat="42.6244133" lon="-8.37279"><ele>570.0</ele><time>2026-04-16T09:05:26.851Z</time></trkpt><trkpt lat="42.6242567" lon="-8.37289"><ele>570.0</ele><time>2026-04-16T09:05:27.851Z</time></trkpt><trkpt lat="42.6240883" lon="-8.3730017"><ele>570.0</ele><time>2026-04-16T09:05:28.851Z</time></trkpt><trkpt lat="42.623915" lon="-8.3731333"><ele>570.0</ele><time>2026-04-16T09:05:29.851Z</time></trkpt><trkpt lat="42.6237333" lon="-8.373255"><ele>568.6666666666666</ele><time>2026-04-16T09:05:30.85Z</time></trkpt><trkpt lat="42.62355" lon="-8.3733883"><ele>567.3333333333333</ele><time>2026-04-16T09:05:31.851Z</time></trkpt><trkpt lat="42.62336" lon="-8.3735033"><ele>566.0</ele><time>2026-04-16T09:05:32.85Z</time></trkpt><trkpt lat="42.6231667" lon="-8.3736233"><ele>566.0</ele><time>2026-04-16T09:05:33.85Z</time></trkpt><trkpt lat="42.62298" lon="-8.37374"><ele>566.0</ele><time>2026-04-16T09:05:34.85Z</time></trkpt><trkpt lat="42.6227933" lon="-8.3738683"><ele>566.0</ele><time>2026-04-16T09:05:35.85Z</time></trkpt><trkpt lat="42.6226217" lon="-8.3740017"><ele>568.3333333333333</ele><time>2026-04-16T09:05:36.85Z</time></trkpt><trkpt lat="42.6224767" lon="-8.3741267"><ele>570.6666666666666</ele><time>2026-04-16T09:05:37.851Z</time></trkpt><trkpt lat="42.622335" lon="-8.3742467"><ele>573.0</ele><time>2026-04-16T09:05:38.851Z</time></trkpt><trkpt lat="42.6221967" lon="-8.374345"><ele>573.0</ele><time>2026-04-16T09:05:39.85Z</time></trkpt><trkpt lat="42.6220417" lon="-8.37444"><ele>573.0</ele><time>2026-04-16T09:05:40.85Z</time></trkpt><trkpt lat="42.621865" lon="-8.374515"><ele>573.0</ele><time>2026-04-16T09:05:41.85Z</time></trkpt><trkpt lat="42.62168" lon="-8.3745867"><ele>572.3333333333334</ele><time>2026-04-16T09:05:42.851Z</time></trkpt><trkpt lat="42.6214917" lon="-8.3746533"><ele>571.6666666666667</ele><time>2026-04-16T09:05:43.85Z</time></trkpt><trkpt lat="42.6212883" lon="-8.3747383"><ele>571.0</ele><time>2026-04-16T09:05:44.85Z</time></trkpt><trkpt lat="42.6210983" lon="-8.3748317"><ele>572.0</ele><time>2026-04-16T09:05:45.851Z</time></trkpt><trkpt lat="42.62092" lon="-8.37492"><ele>573.0</ele><time>2026-04-16T09:05:46.851Z</time></trkpt><trkpt lat="42.6207917" lon="-8.3749933"><ele>574.0</ele><time>2026-04-16T09:05:47.85Z</time></trkpt><trkpt lat="42.6207" lon="-8.3750383"><ele>575.0</ele><time>2026-04-16T09:05:48.851Z</time></trkpt><trkpt lat="42.6206633" lon="-8.3751267"><ele>575.0</ele><time>2026-04-16T09:05:50.85Z</time></trkpt><trkpt lat="42.6207617" lon="-8.3753033"><ele>575.0</ele><time>2026-04-16T09:05:52.85Z</time></trkpt><trkpt lat="42.62086" lon="-8.37543"><ele>575.0</ele><time>2026-04-16T09:05:53.85Z</time></trkpt><trkpt lat="42.6209633" lon="-8.375585"><ele>575.3333333333333</ele><time>2026-04-16T09:05:54.85Z</time></trkpt><trkpt lat="42.621095" lon="-8.3757233"><ele>575.6666666666666</ele><time>2026-04-16T09:05:55.85Z</time></trkpt><trkpt lat="42.621235" lon="-8.3758333"><ele>576.0</ele><time>2026-04-16T09:05:56.851Z</time></trkpt><trkpt lat="42.6213883" lon="-8.375915"><ele>576.0</ele><time>2026-04-16T09:05:57.85Z</time></trkpt><trkpt lat="42.62158" lon="-8.3759483"><ele>576.0</ele><time>2026-04-16T09:05:58.85Z</time></trkpt><trkpt lat="42.6217533" lon="-8.37599"><ele>576.0</ele><time>2026-04-16T09:05:59.85Z</time></trkpt><trkpt lat="42.6219133" lon="-8.3760567"><ele>577.0</ele><time>2026-04-16T09:06:00.851Z</time></trkpt><trkpt lat="42.62205" lon="-8.3761533"><ele>578.0</ele><time>2026-04-16T09:06:01.85Z</time></trkpt><trkpt lat="42.6221833" lon="-8.3762933"><ele>579.0</ele><time>2026-04-16T09:06:02.85Z</time></trkpt><trkpt lat="42.6223" lon="-8.3764817"><ele>580.25</ele><time>2026-04-16T09:06:03.851Z</time></trkpt><trkpt lat="42.6224033" lon="-8.376665"><ele>581.5</ele><time>2026-04-16T09:06:04.85Z</time></trkpt><trkpt lat="42.6224783" lon="-8.3768"><ele>582.75</ele><time>2026-04-16T09:06:05.851Z</time></trkpt><trkpt lat="42.622535" lon="-8.3768817"><ele>584.0</ele><time>2026-04-16T09:06:06.85Z</time></trkpt><trkpt lat="42.6226367" lon="-8.3769317"><ele>584.0</ele><time>2026-04-16T09:06:08.85Z</time></trkpt><trkpt lat="42.6227367" lon="-8.3769283"><ele>584.0</ele><time>2026-04-16T09:06:10.851Z</time></trkpt><trkpt lat="42.6228267" lon="-8.37687"><ele>584.0</ele><time>2026-04-16T09:06:12.851Z</time></trkpt><trkpt lat="42.6228717" lon="-8.3767983"><ele>584.0</ele><time>2026-04-16T09:06:13.85Z</time></trkpt><trkpt lat="42.6229333" lon="-8.3766333"><ele>584.0</ele><time>2026-04-16T09:06:14.851Z</time></trkpt><trkpt lat="42.6229783" lon="-8.3763733"><ele>586.0</ele><time>2026-04-16T09:06:15.85Z</time></trkpt><trkpt lat="42.6230267" lon="-8.376145"><ele>588.0</ele><time>2026-04-16T09:06:16.85Z</time></trkpt><trkpt lat="42.623125" lon="-8.37597"><ele>590.0</ele><time>2026-04-16T09:06:17.85Z</time></trkpt><trkpt lat="42.623245" lon="-8.3758583"><ele>590.0</ele><time>2026-04-16T09:06:18.85Z</time></trkpt><trkpt lat="42.6234167" lon="-8.375735"><ele>590.0</ele><time>2026-04-16T09:06:19.85Z</time></trkpt><trkpt lat="42.6235917" lon="-8.3756417"><ele>590.0</ele><time>2026-04-16T09:06:20.851Z</time></trkpt><trkpt lat="42.6237683" lon="-8.3755833"><ele>590.0</ele><time>2026-04-16T09:06:21.851Z</time></trkpt><trkpt lat="42.623965" lon="-8.37553"><ele>590.0</ele><time>2026-04-16T09:06:22.85Z</time></trkpt><trkpt lat="42.6241617" lon="-8.3754617"><ele>590.0</ele><time>2026-04-16T09:06:23.85Z</time></trkpt><trkpt lat="42.6243417" lon="-8.3754067"><ele>591.8</ele><time>2026-04-16T09:06:24.85Z</time></trkpt><trkpt lat="42.62449" lon="-8.3753817"><ele>593.6</ele><time>2026-04-16T09:06:25.851Z</time></trkpt><trkpt lat="42.6245833" lon="-8.375365"><ele>595.4</ele><time>2026-04-16T09:06:26.851Z</time></trkpt><trkpt lat="42.6246467" lon="-8.3753417"><ele>597.2</ele><time>2026-04-16T09:06:27.85Z</time></trkpt><trkpt lat="42.6246567" lon="-8.3754383"><ele>599.0</ele><time>2026-04-16T09:06:30.85Z</time></trkpt><trkpt lat="42.624625" lon="-8.3755267"><ele>599.5</ele><time>2026-04-16T09:06:31.85Z</time></trkpt><trkpt lat="42.6245767" lon="-8.3756483"><ele>600.0</ele><time>2026-04-16T09:06:32.851Z</time></trkpt><trkpt lat="42.6245067" lon="-8.3758083"><ele>600.5</ele><time>2026-04-16T09:06:33.851Z</time></trkpt><trkpt lat="42.6244367" lon="-8.3760367"><ele>601.0</ele><time>2026-04-16T09:06:34.851Z</time></trkpt><trkpt lat="42.6243733" lon="-8.37629"><ele>603.0</ele><time>2026-04-16T09:06:35.85Z</time></trkpt><trkpt lat="42.6243133" lon="-8.3765683"><ele>605.0</ele><time>2026-04-16T09:06:36.85Z</time></trkpt><trkpt lat="42.6242467" lon="-8.3768617"><ele>607.0</ele><time>2026-04-16T09:06:37.851Z</time></trkpt><trkpt lat="42.6241867" lon="-8.3771733"><ele>610.5</ele><time>2026-04-16T09:06:38.85Z</time></trkpt><trkpt lat="42.6241117" lon="-8.3775017"><ele>614.0</ele><time>2026-04-16T09:06:39.851Z</time></trkpt><trkpt lat="42.62404" lon="-8.37785"><ele>615.5</ele><time>2026-04-16T09:06:40.851Z</time></trkpt><trkpt lat="42.6239633" lon="-8.3782067"><ele>617.0</ele><time>2026-04-16T09:06:41.851Z</time></trkpt><trkpt lat="42.6238983" lon="-8.3785467"><ele>619.0</ele><time>2026-04-16T09:06:42.85Z</time></trkpt><trkpt lat="42.62383" lon="-8.3788583"><ele>621.0</ele><time>2026-04-16T09:06:43.85Z</time></trkpt><trkpt lat="42.6237683" lon="-8.3791583"><ele>621.0</ele><time>2026-04-16T09:06:44.85Z</time></trkpt><trkpt lat="42.6237083" lon="-8.37943"><ele>621.0</ele><time>2026-04-16T09:06:45.851Z</time></trkpt><trkpt lat="42.6236583" lon="-8.3796817"><ele>621.0</ele><time>2026-04-16T09:06:46.851Z</time></trkpt><trkpt lat="42.623645" lon="-8.3798917"><ele>621.6666666666666</ele><time>2026-04-16T09:06:47.851Z</time></trkpt><trkpt lat="42.6236633" lon="-8.380085"><ele>622.3333333333333</ele><time>2026-04-16T09:06:48.85Z</time></trkpt><trkpt lat="42.6237233" lon="-8.3802817"><ele>623.0</ele><time>2026-04-16T09:06:49.851Z</time></trkpt><trkpt lat="42.62378" lon="-8.38048"><ele>622.25</ele><time>2026-04-16T09:06:50.851Z</time></trkpt><trkpt lat="42.6238133" lon="-8.3806633"><ele>621.5</ele><time>2026-04-16T09:06:51.85Z</time></trkpt><trkpt lat="42.6237983" lon="-8.38086"><ele>620.75</ele><time>2026-04-16T09:06:52.851Z</time></trkpt><trkpt lat="42.6237383" lon="-8.38106"><ele>620.0</ele><time>2026-04-16T09:06:53.851Z</time></trkpt><trkpt lat="42.623645" lon="-8.3812317"><ele>620.5</ele><time>2026-04-16T09:06:54.85Z</time></trkpt><trkpt lat="42.623535" lon="-8.3813817"><ele>621.0</ele><time>2026-04-16T09:06:55.851Z</time></trkpt><trkpt lat="42.6234383" lon="-8.3814883"><ele>621.5</ele><time>2026-04-16T09:06:56.85Z</time></trkpt><trkpt lat="42.6233383" lon="-8.3815467"><ele>622.0</ele><time>2026-04-16T09:06:57.85Z</time></trkpt><trkpt lat="42.62324" lon="-8.3815567"><ele>622.0</ele><time>2026-04-16T09:06:58.851Z</time></trkpt><trkpt lat="42.6231633" lon="-8.38152"><ele>622.0</ele><time>2026-04-16T09:06:59.851Z</time></trkpt><trkpt lat="42.6230883" lon="-8.38145"><ele>622.0</ele><time>2026-04-16T09:07:00.851Z</time></trkpt><trkpt lat="42.623015" lon="-8.3813517"><ele>622.0</ele><time>2026-04-16T09:07:01.85Z</time></trkpt><trkpt lat="42.6229483" lon="-8.3812517"><ele>622.0</ele><time>2026-04-16T09:07:02.85Z</time></trkpt><trkpt lat="42.622855" lon="-8.3812017"><ele>621.25</ele><time>2026-04-16T09:07:03.85Z</time></trkpt><trkpt lat="42.62275" lon="-8.381165"><ele>620.5</ele><time>2026-04-16T09:07:04.851Z</time></trkpt><trkpt lat="42.62261" lon="-8.3811517"><ele>619.75</ele><time>2026-04-16T09:07:05.85Z</time></trkpt><trkpt lat="42.6224383" lon="-8.38115"><ele>619.0</ele><time>2026-04-16T09:07:06.85Z</time></trkpt><trkpt lat="42.6222433" lon="-8.381145"><ele>619.0</ele><time>2026-04-16T09:07:07.85Z</time></trkpt><trkpt lat="42.62203" lon="-8.381135"><ele>619.0</ele><time>2026-04-16T09:07:08.85Z</time></trkpt><trkpt lat="42.6218117" lon="-8.3811267"><ele>619.0</ele><time>2026-04-16T09:07:09.85Z</time></trkpt><trkpt lat="42.62158" lon="-8.3811217"><ele>620.0</ele><time>2026-04-16T09:07:10.851Z</time></trkpt><trkpt lat="42.6213417" lon="-8.381125"><ele>621.0</ele><time>2026-04-16T09:07:11.851Z</time></trkpt><trkpt lat="42.6211383" lon="-8.3811167"><ele>622.0</ele><time>2026-04-16T09:07:12.851Z</time></trkpt><trkpt lat="42.62098" lon="-8.3811217"><ele>622.5</ele><time>2026-04-16T09:07:13.851Z</time></trkpt><trkpt lat="42.6208467" lon="-8.3811217"><ele>623.0</ele><time>2026-04-16T09:07:14.85Z</time></trkpt><trkpt lat="42.6207233" lon="-8.3810933"><ele>623.5</ele><time>2026-04-16T09:07:15.85Z</time></trkpt><trkpt lat="42.6206083" lon="-8.381005"><ele>624.0</ele><time>2026-04-16T09:07:16.85Z</time></trkpt><trkpt lat="42.6205117" lon="-8.3809317"><ele>624.0</ele><time>2026-04-16T09:07:17.85Z</time></trkpt><trkpt lat="42.6204317" lon="-8.3809067"><ele>624.0</ele><time>2026-04-16T09:07:18.851Z</time></trkpt><trkpt lat="42.6203433" lon="-8.380925"><ele>624.0</ele><time>2026-04-16T09:07:19.85Z</time></trkpt><trkpt lat="42.62024" lon="-8.3809883"><ele>624.0</ele><time>2026-04-16T09:07:20.851Z</time></trkpt><trkpt lat="42.6201167" lon="-8.3810917"><ele>624.0</ele><time>2026-04-16T09:07:21.85Z</time></trkpt><trkpt lat="42.6199733" lon="-8.381215"><ele>623.75</ele><time>2026-04-16T09:07:22.85Z</time></trkpt><trkpt lat="42.6198367" lon="-8.381335"><ele>623.5</ele><time>2026-04-16T09:07:23.85Z</time></trkpt><trkpt lat="42.6197333" lon="-8.3814333"><ele>623.25</ele><time>2026-04-16T09:07:24.85Z</time></trkpt><trkpt lat="42.619665" lon="-8.381535"><ele>623.0</ele><time>2026-04-16T09:07:25.851Z</time></trkpt><trkpt lat="42.6196333" lon="-8.3816633"><ele>623.5</ele><time>2026-04-16T09:07:26.85Z</time></trkpt><trkpt lat="42.619635" lon="-8.3818217"><ele>624.0</ele><time>2026-04-16T09:07:27.85Z</time></trkpt><trkpt lat="42.6196817" lon="-8.38199"><ele>624.5</ele><time>2026-04-16T09:07:28.85Z</time></trkpt><trkpt lat="42.6197633" lon="-8.3821867"><ele>625.0</ele><time>2026-04-16T09:07:29.851Z</time></trkpt><trkpt lat="42.6198383" lon="-8.3823883"><ele>625.6666666666667</ele><time>2026-04-16T09:07:30.851Z</time></trkpt><trkpt lat="42.6198983" lon="-8.3825933"><ele>626.3333333333334</ele><time>2026-04-16T09:07:31.85Z</time></trkpt><trkpt lat="42.6199333" lon="-8.3827983"><ele>627.0</ele><time>2026-04-16T09:07:32.85Z</time></trkpt><trkpt lat="42.61993" lon="-8.3830033"><ele>627.0</ele><time>2026-04-16T09:07:33.851Z</time></trkpt><trkpt lat="42.6199033" lon="-8.3831783"><ele>627.0</ele><time>2026-04-16T09:07:34.851Z</time></trkpt><trkpt lat="42.6198583" lon="-8.3833317"><ele>627.0</ele><time>2026-04-16T09:07:35.85Z</time></trkpt><trkpt lat="42.6197783" lon="-8.38347"><ele>627.0</ele><time>2026-04-16T09:07:36.85Z</time></trkpt><trkpt lat="42.619665" lon="-8.383595"><ele>627.0</ele><time>2026-04-16T09:07:37.85Z</time></trkpt><trkpt lat="42.6195283" lon="-8.38372"><ele>627.0</ele><time>2026-04-16T09:07:38.851Z</time></trkpt><trkpt lat="42.6193633" lon="-8.3838483"><ele>627.0</ele><time>2026-04-16T09:07:39.85Z</time></trkpt><trkpt lat="42.619185" lon="-8.383985"><ele>627.6666666666666</ele><time>2026-04-16T09:07:40.85Z</time></trkpt><trkpt lat="42.6190017" lon="-8.3841267"><ele>628.3333333333333</ele><time>2026-04-16T09:07:41.851Z</time></trkpt><trkpt lat="42.6188017" lon="-8.3842683"><ele>629.0</ele><time>2026-04-16T09:07:42.85Z</time></trkpt><trkpt lat="42.6186183" lon="-8.3844133"><ele>627.6666666666666</ele><time>2026-04-16T09:07:43.85Z</time></trkpt><trkpt lat="42.61843" lon="-8.3845733"><ele>626.3333333333334</ele><time>2026-04-16T09:07:44.851Z</time></trkpt><trkpt lat="42.618235" lon="-8.3847317"><ele>625.0</ele><time>2026-04-16T09:07:45.851Z</time></trkpt><trkpt lat="42.6180267" lon="-8.3848883"><ele>626.0</ele><time>2026-04-16T09:07:46.85Z</time></trkpt><trkpt lat="42.6178033" lon="-8.385065"><ele>627.0</ele><time>2026-04-16T09:07:47.85Z</time></trkpt><trkpt lat="42.6175917" lon="-8.3852483"><ele>627.0</ele><time>2026-04-16T09:07:48.851Z</time></trkpt><trkpt lat="42.6173983" lon="-8.3854"><ele>627.0</ele><time>2026-04-16T09:07:49.85Z</time></trkpt><trkpt lat="42.6172117" lon="-8.3855167"><ele>627.0</ele><time>2026-04-16T09:07:50.851Z</time></trkpt><trkpt lat="42.617035" lon="-8.3856383"><ele>628.3333333333334</ele><time>2026-04-16T09:07:51.85Z</time></trkpt><trkpt lat="42.61687" lon="-8.3857533"><ele>629.6666666666667</ele><time>2026-04-16T09:07:52.851Z</time></trkpt><trkpt lat="42.61673" lon="-8.3858617"><ele>631.0</ele><time>2026-04-16T09:07:53.851Z</time></trkpt><trkpt lat="42.61662" lon="-8.3859267"><ele>631.0</ele><time>2026-04-16T09:07:54.851Z</time></trkpt><trkpt lat="42.6165367" lon="-8.3859667"><ele>631.0</ele><time>2026-04-16T09:07:55.851Z</time></trkpt><trkpt lat="42.61646" lon="-8.3859583"><ele>631.0</ele><time>2026-04-16T09:07:57.851Z</time></trkpt><trkpt lat="42.6163983" lon="-8.385835"><ele>631.0</ele><time>2026-04-16T09:07:59.851Z</time></trkpt><trkpt lat="42.6163767" lon="-8.3857367"><ele>631.0</ele><time>2026-04-16T09:08:00.851Z</time></trkpt><trkpt lat="42.6163667" lon="-8.38562"><ele>631.0</ele><time>2026-04-16T09:08:01.85Z</time></trkpt><trkpt lat="42.6163717" lon="-8.3855133"><ele>629.3333333333334</ele><time>2026-04-16T09:08:02.85Z</time></trkpt><trkpt lat="42.616435" lon="-8.3853533"><ele>627.6666666666666</ele><time>2026-04-16T09:08:03.85Z</time></trkpt><trkpt lat="42.6165367" lon="-8.3851583"><ele>626.0</ele><time>2026-04-16T09:08:04.85Z</time></trkpt><trkpt lat="42.6166483" lon="-8.384955"><ele>626.0</ele><time>2026-04-16T09:08:05.85Z</time></trkpt><trkpt lat="42.616725" lon="-8.3847717"><ele>626.0</ele><time>2026-04-16T09:08:06.85Z</time></trkpt><trkpt lat="42.6167833" lon="-8.3845817"><ele>626.0</ele><time>2026-04-16T09:08:07.851Z</time></trkpt><trkpt lat="42.616825" lon="-8.3843783"><ele>623.3333333333333</ele><time>2026-04-16T09:08:08.85Z</time></trkpt><trkpt lat="42.61684" lon="-8.3841617"><ele>620.6666666666666</ele><time>2026-04-16T09:08:09.851Z</time></trkpt><trkpt lat="42.6168333" lon="-8.3839083"><ele>618.0</ele><time>2026-04-16T09:08:10.851Z</time></trkpt><trkpt lat="42.61681" lon="-8.383665"><ele>615.5</ele><time>2026-04-16T09:08:11.852Z</time></trkpt><trkpt lat="42.6167917" lon="-8.38345"><ele>613.0</ele><time>2026-04-16T09:08:12.851Z</time></trkpt><trkpt lat="42.6167633" lon="-8.3832833"><ele>610.5</ele><time>2026-04-16T09:08:13.852Z</time></trkpt><trkpt lat="42.61675" lon="-8.3831533"><ele>608.0</ele><time>2026-04-16T09:08:14.851Z</time></trkpt><trkpt lat="42.6167417" lon="-8.3830533"><ele>606.6</ele><time>2026-04-16T09:08:15.851Z</time></trkpt><trkpt lat="42.6167017" lon="-8.3829733"><ele>605.1999999999999</ele><time>2026-04-16T09:08:16.851Z</time></trkpt><trkpt lat="42.616645" lon="-8.3829317"><ele>603.8</ele><time>2026-04-16T09:08:17.852Z</time></trkpt><trkpt lat="42.61656" lon="-8.3829083"><ele>602.4</ele><time>2026-04-16T09:08:18.851Z</time></trkpt><trkpt lat="42.6164333" lon="-8.3829067"><ele>601.0</ele><time>2026-04-16T09:08:19.852Z</time></trkpt><trkpt lat="42.6162367" lon="-8.382905"><ele>598.0</ele><time>2026-04-16T09:08:20.852Z</time></trkpt><trkpt lat="42.6160183" lon="-8.3829067"><ele>595.0</ele><time>2026-04-16T09:08:21.851Z</time></trkpt><trkpt lat="42.6157617" lon="-8.3829317"><ele>595.0</ele><time>2026-04-16T09:08:22.852Z</time></trkpt><trkpt lat="42.6155433" lon="-8.382955"><ele>595.0</ele><time>2026-04-16T09:08:23.851Z</time></trkpt><trkpt lat="42.6153833" lon="-8.3829433"><ele>595.0</ele><time>2026-04-16T09:08:24.851Z</time></trkpt><trkpt lat="42.6152817" lon="-8.3829433"><ele>595.0</ele><time>2026-04-16T09:08:25.852Z</time></trkpt><trkpt lat="42.61521" lon="-8.3829567"><ele>595.0</ele><time>2026-04-16T09:08:26.851Z</time></trkpt><trkpt lat="42.6151367" lon="-8.3829933"><ele>595.0</ele><time>2026-04-16T09:08:28.852Z</time></trkpt><trkpt lat="42.6152367" lon="-8.3829117"><ele>595.0</ele><time>2026-04-16T09:08:34.851Z</time></trkpt><trkpt lat="42.61534" lon="-8.382895"><ele>595.0</ele><time>2026-04-16T09:08:35.851Z</time></trkpt><trkpt lat="42.6154217" lon="-8.3828633"><ele>595.0</ele><time>2026-04-16T09:08:36.852Z</time></trkpt><trkpt lat="42.6154583" lon="-8.3827233"><ele>595.0</ele><time>2026-04-16T09:08:38.852Z</time></trkpt><trkpt lat="42.615445" lon="-8.3826067"><ele>595.0</ele><time>2026-04-16T09:08:39.852Z</time></trkpt><trkpt lat="42.615425" lon="-8.38245"><ele>595.0</ele><time>2026-04-16T09:08:40.851Z</time></trkpt><trkpt lat="42.61539" lon="-8.3822333"><ele>595.0</ele><time>2026-04-16T09:08:41.852Z</time></trkpt><trkpt lat="42.6153483" lon="-8.3820217"><ele>595.0</ele><time>2026-04-16T09:08:42.852Z</time></trkpt><trkpt lat="42.615295" lon="-8.381795"><ele>595.0</ele><time>2026-04-16T09:08:43.851Z</time></trkpt><trkpt lat="42.6152367" lon="-8.3815633"><ele>592.6666666666667</ele><time>2026-04-16T09:08:44.852Z</time></trkpt><trkpt lat="42.6151767" lon="-8.3813383"><ele>590.3333333333334</ele><time>2026-04-16T09:08:45.851Z</time></trkpt><trkpt lat="42.6151217" lon="-8.381105"><ele>588.0</ele><time>2026-04-16T09:08:46.852Z</time></trkpt><trkpt lat="42.61509" lon="-8.380905"><ele>588.0</ele><time>2026-04-16T09:08:47.852Z</time></trkpt><trkpt lat="42.6150633" lon="-8.38072"><ele>588.0</ele><time>2026-04-16T09:08:48.851Z</time></trkpt><trkpt lat="42.6150583" lon="-8.3805383"><ele>588.0</ele><time>2026-04-16T09:08:49.851Z</time></trkpt><trkpt lat="42.6150817" lon="-8.3803233"><ele>588.0</ele><time>2026-04-16T09:08:50.851Z</time></trkpt><trkpt lat="42.61512" lon="-8.3800917"><ele>588.0</ele><time>2026-04-16T09:08:51.852Z</time></trkpt><trkpt lat="42.6151667" lon="-8.3798267"><ele>588.0</ele><time>2026-04-16T09:08:52.851Z</time></trkpt><trkpt lat="42.615215" lon="-8.3795417"><ele>588.0</ele><time>2026-04-16T09:08:53.852Z</time></trkpt><trkpt lat="42.6152583" lon="-8.3792317"><ele>588.0</ele><time>2026-04-16T09:08:54.851Z</time></trkpt><trkpt lat="42.6152817" lon="-8.3789233"><ele>588.0</ele><time>2026-04-16T09:08:55.851Z</time></trkpt><trkpt lat="42.6153" lon="-8.378645"><ele>588.0</ele><time>2026-04-16T09:08:56.851Z</time></trkpt><trkpt lat="42.6153267" lon="-8.3784083"><ele>586.75</ele><time>2026-04-16T09:08:57.852Z</time></trkpt><trkpt lat="42.615355" lon="-8.3781967"><ele>585.5</ele><time>2026-04-16T09:08:58.852Z</time></trkpt><trkpt lat="42.6153983" lon="-8.3780217"><ele>584.25</ele><time>2026-04-16T09:08:59.851Z</time></trkpt><trkpt lat="42.6154767" lon="-8.3778767"><ele>583.0</ele><time>2026-04-16T09:09:00.852Z</time></trkpt><trkpt lat="42.6155817" lon="-8.3777333"><ele>580.75</ele><time>2026-04-16T09:09:01.851Z</time></trkpt><trkpt lat="42.6156967" lon="-8.3775883"><ele>578.5</ele><time>2026-04-16T09:09:02.851Z</time></trkpt><trkpt lat="42.615795" lon="-8.377465"><ele>576.25</ele><time>2026-04-16T09:09:03.852Z</time></trkpt><trkpt lat="42.6158617" lon="-8.3773667"><ele>574.0</ele><time>2026-04-16T09:09:04.851Z</time></trkpt><trkpt lat="42.6159033" lon="-8.3772867"><ele>595.0</ele><time>2026-04-16T09:09:05.851Z</time></trkpt><trkpt lat="42.61534" lon="-8.382895"><ele>595.0</ele><time>2026-04-16T09:08:35.851Z</time></trkpt><trkpt lat="42.6154217" lon="-8.3828633"><ele>595.0</ele><time>2026-04-16T09:08:36.852Z</time></trkpt><trkpt lat="42.6154583" lon="-8.3827233"><ele>595.0</ele><time>2026-04-16T09:08:38.852Z</time></trkpt><trkpt lat="42.615445" lon="-8.3826067"><ele>595.0</ele><time>2026-04-16T09:08:39.852Z</time></trkpt><trkpt lat="42.615425" lon="-8.38245"><ele>595.0</ele><time>2026-04-16T09:08:40.851Z</time></trkpt><trkpt lat="42.61539" lon="-8.3822333"><ele>595.0</ele><time>2026-04-16T09:08:41.852Z</time></trkpt><trkpt lat="42.6153483" lon="-8.3820217"><ele>595.0</ele><time>2026-04-16T09:08:42.852Z</time></trkpt><trkpt lat="42.615295" lon="-8.381795"><ele>595.0</ele><time>2026-04-16T09:08:43.851Z</time></trkpt><trkpt lat="42.6152367" lon="-8.3815633"><ele>592.6666666666667</ele><time>2026-04-16T09:08:44.852Z</time></trkpt><trkpt lat="42.6151767" lon="-8.3813383"><ele>590.3333333333334</ele><time>2026-04-16T09:08:45.851Z</time></trkpt><trkpt lat="42.6151217" lon="-8.381105"><ele>588.0</ele><time>2026-04-16T09:08:46.852Z</time></trkpt><trkpt lat="42.61509" lon="-8.380905"><ele>588.0</ele><time>2026-04-16T09:08:47.852Z</time></trkpt><trkpt lat="42.6150633" lon="-8.38072"><ele>588.0</ele><time>2026-04-16T09:08:48.851Z</time></trkpt><trkpt lat="42.6150583" lon="-8.3805383"><ele>588.0</ele><time>2026-04-16T09:08:49.851Z</time></trkpt><trkpt lat="42.6150817" lon="-8.3803233"><ele>588.0</ele><time>2026-04-16T09:08:50.851Z</time></trkpt><trkpt lat="42.61512" lon="-8.3800917"><ele>588.0</ele><time>2026-04-16T09:08:51.852Z</time></trkpt><trkpt lat="42.6151667" lon="-8.3798267"><ele>588.0</ele><time>2026-04-16T09:08:52.851Z</time></trkpt><trkpt lat="42.615215" lon="-8.3795417"><ele>588.0</ele><time>2026-04-16T09:08:53.852Z</time></trkpt><trkpt lat="42.6152583" lon="-8.3792317"><ele>588.0</ele><time>2026-04-16T09:08:54.851Z</time></trkpt><trkpt lat="42.6152817" lon="-8.3789233"><ele>588.0</ele><time>2026-04-16T09:08:55.851Z</time></trkpt><trkpt lat="42.6153" lon="-8.378645"><ele>588.0</ele><time>2026-04-16T09:08:56.851Z</time></trkpt><trkpt lat="42.6153267" lon="-8.3784083"><ele>586.75</ele><time>2026-04-16T09:08:57.852Z</time></trkpt><trkpt lat="42.615355" lon="-8.3781967"><ele>585.5</ele><time>2026-04-16T09:08:58.852Z</time></trkpt><trkpt lat="42.6153983" lon="-8.3780217"><ele>584.25</ele><time>2026-04-16T09:08:59.851Z</time></trkpt><trkpt lat="42.6154767" lon="-8.3778767"><ele>583.0</ele><time>2026-04-16T09:09:00.852Z</time></trkpt><trkpt lat="42.6155817" lon="-8.3777333"><ele>580.75</ele><time>2026-04-16T09:09:01.851Z</time></trkpt><trkpt lat="42.6156967" lon="-8.3775883"><ele>578.5</ele><time>2026-04-16T09:09:02.851Z</time></trkpt><trkpt lat="42.615795" lon="-8.377465"><ele>576.25</ele><time>2026-04-16T09:09:03.852Z</time></trkpt><trkpt lat="42.6158617" lon="-8.3773667"><ele>574.0</ele><time>2026-04-16T09:09:04.851Z</time></trkpt><trkpt lat="42.6159033" lon="-8.3772867"><ele>574.0</ele><time>2026-04-16T09:09:05.851Z</time></trkpt><trkpt lat="42.61584" lon="-8.3771983"><ele>574.0</ele><time>2026-04-16T09:09:08.851Z</time></trkpt><trkpt lat="42.6157517" lon="-8.377165"><ele>574.0</ele><time>2026-04-16T09:09:09.852Z</time></trkpt><trkpt lat="42.6156417" lon="-8.3771133"><ele>574.0</ele><time>2026-04-16T09:09:10.851Z</time></trkpt><trkpt lat="42.6154867" lon="-8.3770333"><ele>575.3333333333334</ele><time>2026-04-16T09:09:11.851Z</time></trkpt><trkpt lat="42.61531" lon="-8.3769333"><ele>576.6666666666666</ele><time>2026-04-16T09:09:12.851Z</time></trkpt><trkpt lat="42.6151183" lon="-8.3768183"><ele>578.0</ele><time>2026-04-16T09:09:13.851Z</time></trkpt><trkpt lat="42.6149317" lon="-8.3767133"><ele>578.0</ele><time>2026-04-16T09:09:14.851Z</time></trkpt><trkpt lat="42.61476" lon="-8.3765967"><ele>578.0</ele><time>2026-04-16T09:09:15.852Z</time></trkpt><trkpt lat="42.6146067" lon="-8.3765233"><ele>578.0</ele><time>2026-04-16T09:09:16.852Z</time></trkpt><trkpt lat="42.6144733" lon="-8.37645"><ele>578.8</ele><time>2026-04-16T09:09:17.851Z</time></trkpt><trkpt lat="42.6143633" lon="-8.3764"><ele>579.5999999999999</ele><time>2026-04-16T09:09:18.852Z</time></trkpt><trkpt lat="42.6142717" lon="-8.3763883"><ele>580.4000000000001</ele><time>2026-04-16T09:09:19.852Z</time></trkpt><trkpt lat="42.6142067" lon="-8.37641"><ele>581.2</ele><time>2026-04-16T09:09:20.852Z</time></trkpt><trkpt lat="42.6141417" lon="-8.376475"><ele>582.0</ele><time>2026-04-16T09:09:21.852Z</time></trkpt><trkpt lat="42.614065" lon="-8.376595"><ele>582.0</ele><time>2026-04-16T09:09:22.851Z</time></trkpt><trkpt lat="42.6139767" lon="-8.3767583"><ele>582.0</ele><time>2026-04-16T09:09:23.852Z</time></trkpt><trkpt lat="42.6138867" lon="-8.3769367"><ele>582.0</ele><time>2026-04-16T09:09:24.851Z</time></trkpt><trkpt lat="42.6138" lon="-8.37711"><ele>580.3333333333334</ele><time>2026-04-16T09:09:25.852Z</time></trkpt><trkpt lat="42.61369" lon="-8.377265"><ele>578.6666666666667</ele><time>2026-04-16T09:09:26.852Z</time></trkpt><trkpt lat="42.6135617" lon="-8.3774267"><ele>577.0</ele><time>2026-04-16T09:09:27.852Z</time></trkpt><trkpt lat="42.6134233" lon="-8.3776283"><ele>578.6666666666667</ele><time>2026-04-16T09:09:28.851Z</time></trkpt><trkpt lat="42.6132867" lon="-8.377835"><ele>580.3333333333334</ele><time>2026-04-16T09:09:29.852Z</time></trkpt><trkpt lat="42.6131467" lon="-8.3780383"><ele>582.0</ele><time>2026-04-16T09:09:30.852Z</time></trkpt><trkpt lat="42.612985" lon="-8.3782167"><ele>582.0</ele><time>2026-04-16T09:09:31.851Z</time></trkpt><trkpt lat="42.6128233" lon="-8.3783783"><ele>582.0</ele><time>2026-04-16T09:09:32.852Z</time></trkpt><trkpt lat="42.61267" lon="-8.3785017"><ele>582.0</ele><time>2026-04-16T09:09:33.852Z</time></trkpt><trkpt lat="42.6125367" lon="-8.378575"><ele>585.0</ele><time>2026-04-16T09:09:34.852Z</time></trkpt><trkpt lat="42.6123967" lon="-8.3786183"><ele>588.0</ele><time>2026-04-16T09:09:35.852Z</time></trkpt><trkpt lat="42.612255" lon="-8.378635"><ele>591.0</ele><time>2026-04-16T09:09:36.851Z</time></trkpt><trkpt lat="42.6121067" lon="-8.378665"><ele>594.0</ele><time>2026-04-16T09:09:37.851Z</time></trkpt><trkpt lat="42.6119617" lon="-8.3786883"><ele>595.0</ele><time>2026-04-16T09:09:38.852Z</time></trkpt><trkpt lat="42.6118483" lon="-8.378685"><ele>596.0</ele><time>2026-04-16T09:09:39.852Z</time></trkpt><trkpt lat="42.61175" lon="-8.3786817"><ele>597.0</ele><time>2026-04-16T09:09:40.851Z</time></trkpt><trkpt lat="42.6116733" lon="-8.37869"><ele>598.0</ele><time>2026-04-16T09:09:41.851Z</time></trkpt><trkpt lat="42.61161" lon="-8.3787"><ele>599.0</ele><time>2026-04-16T09:09:42.851Z</time></trkpt><trkpt lat="42.6115283" lon="-8.3787067"><ele>600.0</ele><time>2026-04-16T09:09:43.852Z</time></trkpt><trkpt lat="42.6114333" lon="-8.37869"><ele>600.0</ele><time>2026-04-16T09:09:44.851Z</time></trkpt><trkpt lat="42.6113317" lon="-8.37865"><ele>600.0</ele><time>2026-04-16T09:09:45.851Z</time></trkpt><trkpt lat="42.6112167" lon="-8.37856"><ele>600.0</ele><time>2026-04-16T09:09:46.851Z</time></trkpt><trkpt lat="42.6110967" lon="-8.3784167"><ele>600.0</ele><time>2026-04-16T09:09:47.852Z</time></trkpt><trkpt lat="42.6109817" lon="-8.378245"><ele>601.0</ele><time>2026-04-16T09:09:48.851Z</time></trkpt><trkpt lat="42.6108983" lon="-8.378075"><ele>602.0</ele><time>2026-04-16T09:09:49.852Z</time></trkpt><trkpt lat="42.610845" lon="-8.3779617"><ele>603.0</ele><time>2026-04-16T09:09:50.851Z</time></trkpt><trkpt lat="42.6107917" lon="-8.3779"><ele>604.0</ele><time>2026-04-16T09:09:51.851Z</time></trkpt><trkpt lat="42.61066" lon="-8.377905"><ele>605.75</ele><time>2026-04-16T09:09:53.852Z</time></trkpt><trkpt lat="42.61056" lon="-8.3779383"><ele>607.5</ele><time>2026-04-16T09:09:54.851Z</time></trkpt><trkpt lat="42.610445" lon="-8.3779467"><ele>609.25</ele><time>2026-04-16T09:09:55.851Z</time></trkpt><trkpt lat="42.6102933" lon="-8.3779383"><ele>611.0</ele><time>2026-04-16T09:09:56.852Z</time></trkpt><trkpt lat="42.610105" lon="-8.3779217"><ele>614.6666666666666</ele><time>2026-04-16T09:09:57.851Z</time></trkpt><trkpt lat="42.6099033" lon="-8.377895"><ele>618.3333333333334</ele><time>2026-04-16T09:09:58.851Z</time></trkpt><trkpt lat="42.6097167" lon="-8.3778917"><ele>622.0</ele><time>2026-04-16T09:09:59.851Z</time></trkpt><trkpt lat="42.6095467" lon="-8.37792"><ele>622.25</ele><time>2026-04-16T09:10:00.852Z</time></trkpt><trkpt lat="42.6094083" lon="-8.37799"><ele>622.5</ele><time>2026-04-16T09:10:01.851Z</time></trkpt><trkpt lat="42.6092917" lon="-8.3780733"><ele>622.75</ele><time>2026-04-16T09:10:02.851Z</time></trkpt><trkpt lat="42.6091733" lon="-8.378155"><ele>623.0</ele><time>2026-04-16T09:10:03.852Z</time></trkpt><trkpt lat="42.60905" lon="-8.3782167"><ele>623.0</ele><time>2026-04-16T09:10:04.852Z</time></trkpt><trkpt lat="42.6089433" lon="-8.3782483"><ele>623.0</ele><time>2026-04-16T09:10:05.852Z</time></trkpt><trkpt lat="42.60886" lon="-8.37826"><ele>623.0</ele><time>2026-04-16T09:10:06.852Z</time></trkpt><trkpt lat="42.6087817" lon="-8.3782233"><ele>623.0</ele><time>2026-04-16T09:10:08.852Z</time></trkpt><trkpt lat="42.6088433" lon="-8.3780517"><ele>623.0</ele><time>2026-04-16T09:10:11.852Z</time></trkpt><trkpt lat="42.6089133" lon="-8.3779467"><ele>628.5</ele><time>2026-04-16T09:10:12.851Z</time></trkpt><trkpt lat="42.6091083" lon="-8.3777483"><ele>634.0</ele><time>2026-04-16T09:10:13.851Z</time></trkpt><trkpt lat="42.60932" lon="-8.3775683"><ele>634.0</ele><time>2026-04-16T09:10:14.851Z</time></trkpt><trkpt lat="42.6094683" lon="-8.3774267"><ele>634.0</ele><time>2026-04-16T09:10:15.851Z</time></trkpt><trkpt lat="42.6096833" lon="-8.377235"><ele>634.0</ele><time>2026-04-16T09:10:16.851Z</time></trkpt><trkpt lat="42.6098783" lon="-8.3770417"><ele>632.6666666666667</ele><time>2026-04-16T09:10:17.851Z</time></trkpt><trkpt lat="42.60999" lon="-8.3768683"><ele>631.3333333333334</ele><time>2026-04-16T09:10:18.851Z</time></trkpt><trkpt lat="42.6100267" lon="-8.3766783"><ele>630.0</ele><time>2026-04-16T09:10:19.851Z</time></trkpt><trkpt lat="42.610015" lon="-8.3764667"><ele>631.3333333333334</ele><time>2026-04-16T09:10:20.852Z</time></trkpt><trkpt lat="42.6099817" lon="-8.376215"><ele>632.6666666666667</ele><time>2026-04-16T09:10:21.851Z</time></trkpt><trkpt lat="42.6099633" lon="-8.3759383"><ele>634.0</ele><time>2026-04-16T09:10:22.852Z</time></trkpt><trkpt lat="42.6099483" lon="-8.37565"><ele>635.6666666666667</ele><time>2026-04-16T09:10:23.852Z</time></trkpt><trkpt lat="42.6099383" lon="-8.3753833"><ele>637.3333333333334</ele><time>2026-04-16T09:10:24.851Z</time></trkpt><trkpt lat="42.60994" lon="-8.375165"><ele>639.0</ele><time>2026-04-16T09:10:25.851Z</time></trkpt><trkpt lat="42.6099517" lon="-8.3749917"><ele>639.0</ele><time>2026-04-16T09:10:26.851Z</time></trkpt><trkpt lat="42.6099933" lon="-8.374875"><ele>639.0</ele><time>2026-04-16T09:10:27.852Z</time></trkpt><trkpt lat="42.6100617" lon="-8.3747867"><ele>639.0</ele><time>2026-04-16T09:10:28.852Z</time></trkpt><trkpt lat="42.6101617" lon="-8.3747117"><ele>639.0</ele><time>2026-04-16T09:10:29.852Z</time></trkpt><trkpt lat="42.6102983" lon="-8.374635"><ele>640.0</ele><time>2026-04-16T09:10:30.852Z</time></trkpt><trkpt lat="42.61044" lon="-8.3745567"><ele>641.0</ele><time>2026-04-16T09:10:31.851Z</time></trkpt><trkpt lat="42.610585" lon="-8.37447"><ele>642.0</ele><time>2026-04-16T09:10:32.851Z</time></trkpt><trkpt lat="42.6092917" lon="-8.3780733"><ele>637.25</ele><time>2026-04-16T09:10:02.851Z</time></trkpt><trkpt lat="42.6091733" lon="-8.378155"><ele>632.5</ele><time>2026-04-16T09:10:03.852Z</time></trkpt><trkpt lat="42.60905" lon="-8.3782167"><ele>627.75</ele><time>2026-04-16T09:10:04.852Z</time></trkpt><trkpt lat="42.6089433" lon="-8.3782483"><ele>623.0</ele><time>2026-04-16T09:10:05.852Z</time></trkpt><trkpt lat="42.60886" lon="-8.37826"><ele>623.0</ele><time>2026-04-16T09:10:06.852Z</time></trkpt><trkpt lat="42.6087817" lon="-8.3782233"><ele>623.0</ele><time>2026-04-16T09:10:08.852Z</time></trkpt><trkpt lat="42.6088433" lon="-8.3780517"><ele>623.0</ele><time>2026-04-16T09:10:11.852Z</time></trkpt><trkpt lat="42.6089133" lon="-8.3779467"><ele>623.0</ele><time>2026-04-16T09:10:12.851Z</time></trkpt><trkpt lat="42.6091083" lon="-8.3777483"><ele>622.6666666666666</ele><time>2026-04-16T09:10:13.851Z</time></trkpt><trkpt lat="42.60932" lon="-8.3775683"><ele>622.3333333333334</ele><time>2026-04-16T09:10:14.851Z</time></trkpt><trkpt lat="42.6094683" lon="-8.3774267"><ele>622.0</ele><time>2026-04-16T09:10:15.851Z</time></trkpt><trkpt lat="42.6096833" lon="-8.377235"><ele>624.6666666666667</ele><time>2026-04-16T09:10:16.851Z</time></trkpt><trkpt lat="42.6098783" lon="-8.3770417"><ele>627.3333333333334</ele><time>2026-04-16T09:10:17.851Z</time></trkpt><trkpt lat="42.60999" lon="-8.3768683"><ele>630.0</ele><time>2026-04-16T09:10:18.851Z</time></trkpt><trkpt lat="42.6100267" lon="-8.3766783"><ele>630.0</ele><time>2026-04-16T09:10:19.851Z</time></trkpt><trkpt lat="42.610015" lon="-8.3764667"><ele>630.0</ele><time>2026-04-16T09:10:20.852Z</time></trkpt><trkpt lat="42.6099817" lon="-8.376215"><ele>630.0</ele><time>2026-04-16T09:10:21.851Z</time></trkpt><trkpt lat="42.6099633" lon="-8.3759383"><ele>631.3333333333334</ele><time>2026-04-16T09:10:22.852Z</time></trkpt><trkpt lat="42.6099483" lon="-8.37565"><ele>632.6666666666667</ele><time>2026-04-16T09:10:23.852Z</time></trkpt><trkpt lat="42.6099383" lon="-8.3753833"><ele>634.0</ele><time>2026-04-16T09:10:24.851Z</time></trkpt><trkpt lat="42.60994" lon="-8.375165"><ele>635.0</ele><time>2026-04-16T09:10:25.851Z</time></trkpt><trkpt lat="42.6099517" lon="-8.3749917"><ele>636.0</ele><time>2026-04-16T09:10:26.851Z</time></trkpt><trkpt lat="42.6099933" lon="-8.374875"><ele>637.0</ele><time>2026-04-16T09:10:27.852Z</time></trkpt><trkpt lat="42.6100617" lon="-8.3747867"><ele>638.0</ele><time>2026-04-16T09:10:28.852Z</time></trkpt><trkpt lat="42.6101617" lon="-8.3747117"><ele>639.0</ele><time>2026-04-16T09:10:29.852Z</time></trkpt><trkpt lat="42.6102983" lon="-8.374635"><ele>639.75</ele><time>2026-04-16T09:10:30.852Z</time></trkpt><trkpt lat="42.61044" lon="-8.3745567"><ele>640.5</ele><time>2026-04-16T09:10:31.851Z</time></trkpt><trkpt lat="42.610585" lon="-8.37447"><ele>641.25</ele><time>2026-04-16T09:10:32.851Z</time></trkpt><trkpt lat="42.61068" lon="-8.3743683"><ele>642.0</ele><time>2026-04-16T09:10:33.852Z</time></trkpt><trkpt lat="42.6107167" lon="-8.3742317"><ele>642.0</ele><time>2026-04-16T09:10:34.851Z</time></trkpt><trkpt lat="42.6107117" lon="-8.3740583"><ele>642.0</ele><time>2026-04-16T09:10:35.851Z</time></trkpt><trkpt lat="42.6106733" lon="-8.3738433"><ele>642.0</ele><time>2026-04-16T09:10:36.852Z</time></trkpt><trkpt lat="42.6106233" lon="-8.3736033"><ele>642.5</ele><time>2026-04-16T09:10:37.851Z</time></trkpt><trkpt lat="42.610595" lon="-8.37337"><ele>643.0</ele><time>2026-04-16T09:10:38.852Z</time></trkpt><trkpt lat="42.610585" lon="-8.37319"><ele>643.5</ele><time>2026-04-16T09:10:39.851Z</time></trkpt><trkpt lat="42.6106067" lon="-8.3730267"><ele>644.0</ele><time>2026-04-16T09:10:40.851Z</time></trkpt><trkpt lat="42.6106367" lon="-8.3728983"><ele>646.2</ele><time>2026-04-16T09:10:41.852Z</time></trkpt><trkpt lat="42.6106433" lon="-8.37281"><ele>648.4000000000001</ele><time>2026-04-16T09:10:42.851Z</time></trkpt><trkpt lat="42.6105617" lon="-8.3727433"><ele>650.6</ele><time>2026-04-16T09:10:44.852Z</time></trkpt><trkpt lat="42.6104717" lon="-8.372725"><ele>652.8</ele><time>2026-04-16T09:10:45.851Z</time></trkpt><trkpt lat="42.61035" lon="-8.3726967"><ele>655.0</ele><time>2026-04-16T09:10:46.852Z</time></trkpt><trkpt lat="42.610225" lon="-8.3726617"><ele>655.0</ele><time>2026-04-16T09:10:47.851Z</time></trkpt><trkpt lat="42.6101" lon="-8.372615"><ele>655.0</ele><time>2026-04-16T09:10:48.851Z</time></trkpt><trkpt lat="42.60998" lon="-8.37256"><ele>655.0</ele><time>2026-04-16T09:10:49.852Z</time></trkpt><trkpt lat="42.6098667" lon="-8.3725083"><ele>655.0</ele><time>2026-04-16T09:10:50.851Z</time></trkpt><trkpt lat="42.609755" lon="-8.3724533"><ele>655.0</ele><time>2026-04-16T09:10:51.851Z</time></trkpt><trkpt lat="42.609645" lon="-8.3723917"><ele>655.0</ele><time>2026-04-16T09:10:52.851Z</time></trkpt><trkpt lat="42.6095367" lon="-8.372335"><ele>655.0</ele><time>2026-04-16T09:10:53.851Z</time></trkpt><trkpt lat="42.60943" lon="-8.37229"><ele>655.0</ele><time>2026-04-16T09:10:54.851Z</time></trkpt><trkpt lat="42.60932" lon="-8.3722367"><ele>656.4</ele><time>2026-04-16T09:10:55.851Z</time></trkpt><trkpt lat="42.6092183" lon="-8.3721867"><ele>657.8</ele><time>2026-04-16T09:10:56.852Z</time></trkpt><trkpt lat="42.60912" lon="-8.3721367"><ele>659.2</ele><time>2026-04-16T09:10:57.852Z</time></trkpt><trkpt lat="42.60902" lon="-8.3720917"><ele>660.6</ele><time>2026-04-16T09:10:58.852Z</time></trkpt><trkpt lat="42.6089267" lon="-8.3720517"><ele>662.0</ele><time>2026-04-16T09:10:59.851Z</time></trkpt><trkpt lat="42.6088417" lon="-8.3720417"><ele>662.0</ele><time>2026-04-16T09:11:00.852Z</time></trkpt><trkpt lat="42.608765" lon="-8.372075"><ele>662.0</ele><time>2026-04-16T09:11:01.851Z</time></trkpt><trkpt lat="42.6087033" lon="-8.3721683"><ele>662.0</ele><time>2026-04-16T09:11:02.851Z</time></trkpt><trkpt lat="42.608665" lon="-8.3722933"><ele>662.0</ele><time>2026-04-16T09:11:03.851Z</time></trkpt><trkpt lat="42.6086317" lon="-8.3724367"><ele>662.0</ele><time>2026-04-16T09:11:04.852Z</time></trkpt><trkpt lat="42.6085967" lon="-8.3725883"><ele>661.75</ele><time>2026-04-16T09:11:05.852Z</time></trkpt><trkpt lat="42.60856" lon="-8.3727417"><ele>661.5</ele><time>2026-04-16T09:11:06.851Z</time></trkpt><trkpt lat="42.6085233" lon="-8.3729083"><ele>661.25</ele><time>2026-04-16T09:11:07.851Z</time></trkpt><trkpt lat="42.6084767" lon="-8.3730683"><ele>661.0</ele><time>2026-04-16T09:11:08.852Z</time></trkpt><trkpt lat="42.608435" lon="-8.3732333"><ele>662.0</ele><time>2026-04-16T09:11:09.851Z</time></trkpt><trkpt lat="42.6083967" lon="-8.3734"><ele>663.0</ele><time>2026-04-16T09:11:10.851Z</time></trkpt><trkpt lat="42.608355" lon="-8.373565"><ele>664.0</ele><time>2026-04-16T09:11:11.851Z</time></trkpt><trkpt lat="42.6083117" lon="-8.3737317"><ele>665.0</ele><time>2026-04-16T09:11:12.851Z</time></trkpt><trkpt lat="42.60827" lon="-8.3739033"><ele>665.0</ele><time>2026-04-16T09:11:13.852Z</time></trkpt><trkpt lat="42.6082267" lon="-8.3740767"><ele>665.0</ele><time>2026-04-16T09:11:14.851Z</time></trkpt><trkpt lat="42.60818" lon="-8.3742683"><ele>665.0</ele><time>2026-04-16T09:11:15.852Z</time></trkpt><trkpt lat="42.6081233" lon="-8.3744583"><ele>665.0</ele><time>2026-04-16T09:11:16.852Z</time></trkpt><trkpt lat="42.608045" lon="-8.3746317"><ele>663.75</ele><time>2026-04-16T09:11:17.851Z</time></trkpt><trkpt lat="42.60795" lon="-8.3747883"><ele>662.5</ele><time>2026-04-16T09:11:18.852Z</time></trkpt><trkpt lat="42.60785" lon="-8.3749333"><ele>661.25</ele><time>2026-04-16T09:11:19.852Z</time></trkpt><trkpt lat="42.6077333" lon="-8.3750617"><ele>660.0</ele><time>2026-04-16T09:11:20.851Z</time></trkpt><trkpt lat="42.6075967" lon="-8.37518"><ele>661.3333333333334</ele><time>2026-04-16T09:11:21.851Z</time></trkpt><trkpt lat="42.607455" lon="-8.3752967"><ele>662.6666666666667</ele><time>2026-04-16T09:11:22.851Z</time></trkpt><trkpt lat="42.6073067" lon="-8.37541"><ele>664.0</ele><time>2026-04-16T09:11:23.851Z</time></trkpt><trkpt lat="42.6071617" lon="-8.3755317"><ele>664.0</ele><time>2026-04-16T09:11:24.851Z</time></trkpt><trkpt lat="42.607025" lon="-8.375645"><ele>664.0</ele><time>2026-04-16T09:11:25.852Z</time></trkpt><trkpt lat="42.606895" lon="-8.3757617"><ele>664.0</ele><time>2026-04-16T09:11:26.851Z</time></trkpt><trkpt lat="42.6067567" lon="-8.375875"><ele>667.6666666666667</ele><time>2026-04-16T09:11:27.851Z</time></trkpt><trkpt lat="42.6066167" lon="-8.376015"><ele>671.3333333333334</ele><time>2026-04-16T09:11:28.852Z</time></trkpt><trkpt lat="42.6064733" lon="-8.3761017"><ele>675.0</ele><time>2026-04-16T09:11:29.852Z</time></trkpt><trkpt lat="42.6063333" lon="-8.3762017"><ele>675.0</ele><time>2026-04-16T09:11:30.851Z</time></trkpt><trkpt lat="42.6061983" lon="-8.3763133"><ele>675.0</ele><time>2026-04-16T09:11:31.851Z</time></trkpt><trkpt lat="42.6060567" lon="-8.3764217"><ele>675.0</ele><time>2026-04-16T09:11:32.852Z</time></trkpt><trkpt lat="42.6059233" lon="-8.37652"><ele>675.3333333333334</ele><time>2026-04-16T09:11:33.851Z</time></trkpt><trkpt lat="42.6057917" lon="-8.37663"><ele>675.6666666666667</ele><time>2026-04-16T09:11:34.851Z</time></trkpt><trkpt lat="42.6056633" lon="-8.3767417"><ele>676.0</ele><time>2026-04-16T09:11:35.852Z</time></trkpt><trkpt lat="42.6055317" lon="-8.3768467"><ele>676.0</ele><time>2026-04-16T09:11:36.851Z</time></trkpt><trkpt lat="42.605405" lon="-8.37696"><ele>676.0</ele><time>2026-04-16T09:11:37.851Z</time></trkpt><trkpt lat="42.6052817" lon="-8.3770733"><ele>676.0</ele><time>2026-04-16T09:11:38.851Z</time></trkpt><trkpt lat="42.6051633" lon="-8.3771967"><ele>676.3333333333334</ele><time>2026-04-16T09:11:39.851Z</time></trkpt><trkpt lat="42.6050433" lon="-8.3773333"><ele>676.6666666666666</ele><time>2026-04-16T09:11:40.851Z</time></trkpt><trkpt lat="42.6049217" lon="-8.37748"><ele>677.0</ele><time>2026-04-16T09:11:41.852Z</time></trkpt><trkpt lat="42.6048017" lon="-8.37764"><ele>677.0</ele><time>2026-04-16T09:11:42.852Z</time></trkpt><trkpt lat="42.6046783" lon="-8.3777967"><ele>677.0</ele><time>2026-04-16T09:11:43.852Z</time></trkpt><trkpt lat="42.6045533" lon="-8.37795"><ele>677.0</ele><time>2026-04-16T09:11:44.851Z</time></trkpt><trkpt lat="42.6044283" lon="-8.3781033"><ele>681.0</ele><time>2026-04-16T09:11:45.851Z</time></trkpt><trkpt lat="42.604315" lon="-8.3782633"><ele>685.0</ele><time>2026-04-16T09:11:46.851Z</time></trkpt><trkpt lat="42.6041983" lon="-8.3784183"><ele>689.0</ele><time>2026-04-16T09:11:47.851Z</time></trkpt><trkpt lat="42.6040733" lon="-8.378575"><ele>689.0</ele><time>2026-04-16T09:11:48.852Z</time></trkpt><trkpt lat="42.60396" lon="-8.3787317"><ele>689.0</ele><time>2026-04-16T09:11:49.852Z</time></trkpt><trkpt lat="42.60384" lon="-8.378885"><ele>689.0</ele><time>2026-04-16T09:11:50.851Z</time></trkpt><trkpt lat="42.6037133" lon="-8.37903"><ele>692.0</ele><time>2026-04-16T09:11:51.852Z</time></trkpt><trkpt lat="42.6035817" lon="-8.3791683"><ele>695.0</ele><time>2026-04-16T09:11:52.851Z</time></trkpt><trkpt lat="42.6034383" lon="-8.3793"><ele>698.0</ele><time>2026-04-16T09:11:53.851Z</time></trkpt><trkpt lat="42.6032933" lon="-8.379425"><ele>698.0</ele><time>2026-04-16T09:11:54.851Z</time></trkpt><trkpt lat="42.6031483" lon="-8.3795417"><ele>698.0</ele><time>2026-04-16T09:11:55.851Z</time></trkpt><trkpt lat="42.60301" lon="-8.379655"><ele>698.0</ele><time>2026-04-16T09:11:56.852Z</time></trkpt><trkpt lat="42.6028633" lon="-8.3797717"><ele>701.0</ele><time>2026-04-16T09:11:57.852Z</time></trkpt><trkpt lat="42.6027167" lon="-8.3798867"><ele>704.0</ele><time>2026-04-16T09:11:58.852Z</time></trkpt><trkpt lat="42.60257" lon="-8.379985"><ele>707.0</ele><time>2026-04-16T09:11:59.852Z</time></trkpt><trkpt lat="42.6024283" lon="-8.38008"><ele>675.0</ele><time>2026-04-16T09:12:00.851Z</time></trkpt><trkpt lat="42.6064733" lon="-8.3761017"><ele>675.0</ele><time>2026-04-16T09:11:29.852Z</time></trkpt><trkpt lat="42.6063333" lon="-8.3762017"><ele>675.0</ele><time>2026-04-16T09:11:30.851Z</time></trkpt><trkpt lat="42.6061983" lon="-8.3763133"><ele>675.0</ele><time>2026-04-16T09:11:31.851Z</time></trkpt><trkpt lat="42.6060567" lon="-8.3764217"><ele>675.3333333333334</ele><time>2026-04-16T09:11:32.852Z</time></trkpt><trkpt lat="42.6059233" lon="-8.37652"><ele>675.6666666666667</ele><time>2026-04-16T09:11:33.851Z</time></trkpt><trkpt lat="42.6057917" lon="-8.37663"><ele>676.0</ele><time>2026-04-16T09:11:34.851Z</time></trkpt><trkpt lat="42.6056633" lon="-8.3767417"><ele>676.0</ele><time>2026-04-16T09:11:35.852Z</time></trkpt><trkpt lat="42.6055317" lon="-8.3768467"><ele>676.0</ele><time>2026-04-16T09:11:36.851Z</time></trkpt><trkpt lat="42.605405" lon="-8.37696"><ele>676.0</ele><time>2026-04-16T09:11:37.851Z</time></trkpt><trkpt lat="42.6052817" lon="-8.3770733"><ele>676.3333333333334</ele><time>2026-04-16T09:11:38.851Z</time></trkpt><trkpt lat="42.6051633" lon="-8.3771967"><ele>676.6666666666666</ele><time>2026-04-16T09:11:39.851Z</time></trkpt><trkpt lat="42.6050433" lon="-8.3773333"><ele>677.0</ele><time>2026-04-16T09:11:40.851Z</time></trkpt><trkpt lat="42.6049217" lon="-8.37748"><ele>677.0</ele><time>2026-04-16T09:11:41.852Z</time></trkpt><trkpt lat="42.6048017" lon="-8.37764"><ele>677.0</ele><time>2026-04-16T09:11:42.852Z</time></trkpt><trkpt lat="42.6046783" lon="-8.3777967"><ele>677.0</ele><time>2026-04-16T09:11:43.852Z</time></trkpt><trkpt lat="42.6045533" lon="-8.37795"><ele>681.0</ele><time>2026-04-16T09:11:44.851Z</time></trkpt><trkpt lat="42.6044283" lon="-8.3781033"><ele>685.0</ele><time>2026-04-16T09:11:45.851Z</time></trkpt><trkpt lat="42.604315" lon="-8.3782633"><ele>689.0</ele><time>2026-04-16T09:11:46.851Z</time></trkpt><trkpt lat="42.6041983" lon="-8.3784183"><ele>689.0</ele><time>2026-04-16T09:11:47.851Z</time></trkpt><trkpt lat="42.6040733" lon="-8.378575"><ele>689.0</ele><time>2026-04-16T09:11:48.852Z</time></trkpt><trkpt lat="42.60396" lon="-8.3787317"><ele>689.0</ele><time>2026-04-16T09:11:49.852Z</time></trkpt><trkpt lat="42.60384" lon="-8.378885"><ele>691.3333333333333</ele><time>2026-04-16T09:11:50.851Z</time></trkpt><trkpt lat="42.6037133" lon="-8.37903"><ele>693.6666666666666</ele><time>2026-04-16T09:11:51.852Z</time></trkpt><trkpt lat="42.6035817" lon="-8.3791683"><ele>696.0</ele><time>2026-04-16T09:11:52.851Z</time></trkpt><trkpt lat="42.6034383" lon="-8.3793"><ele>696.6666666666666</ele><time>2026-04-16T09:11:53.851Z</time></trkpt><trkpt lat="42.6032933" lon="-8.379425"><ele>697.3333333333333</ele><time>2026-04-16T09:11:54.851Z</time></trkpt><trkpt lat="42.6031483" lon="-8.3795417"><ele>698.0</ele><time>2026-04-16T09:11:55.851Z</time></trkpt><trkpt lat="42.60301" lon="-8.379655"><ele>699.3333333333333</ele><time>2026-04-16T09:11:56.852Z</time></trkpt><trkpt lat="42.6028633" lon="-8.3797717"><ele>700.6666666666666</ele><time>2026-04-16T09:11:57.852Z</time></trkpt><trkpt lat="42.6027167" lon="-8.3798867"><ele>702.0</ele><time>2026-04-16T09:11:58.852Z</time></trkpt><trkpt lat="42.60257" lon="-8.379985"><ele>703.6666666666666</ele><time>2026-04-16T09:11:59.852Z</time></trkpt><trkpt lat="42.6024283" lon="-8.38008"><ele>705.3333333333333</ele><time>2026-04-16T09:12:00.851Z</time></trkpt><trkpt lat="42.6022767" lon="-8.3801767"><ele>707.0</ele><time>2026-04-16T09:12:01.851Z</time></trkpt><trkpt lat="42.6021117" lon="-8.3802633"><ele>708.0</ele><time>2026-04-16T09:12:02.851Z</time></trkpt><trkpt lat="42.6019517" lon="-8.3803317"><ele>709.0</ele><time>2026-04-16T09:12:03.851Z</time></trkpt><trkpt lat="42.6017967" lon="-8.3803917"><ele>710.0</ele><time>2026-04-16T09:12:04.852Z</time></trkpt><trkpt lat="42.6016417" lon="-8.3804617"><ele>708.3333333333333</ele><time>2026-04-16T09:12:05.852Z</time></trkpt><trkpt lat="42.6014817" lon="-8.38052"><ele>706.6666666666666</ele><time>2026-04-16T09:12:06.851Z</time></trkpt><trkpt lat="42.6013183" lon="-8.3805833"><ele>705.0</ele><time>2026-04-16T09:12:07.851Z</time></trkpt><trkpt lat="42.6011517" lon="-8.3806283"><ele>705.0</ele><time>2026-04-16T09:12:08.852Z</time></trkpt><trkpt lat="42.6009983" lon="-8.3806733"><ele>705.0</ele><time>2026-04-16T09:12:09.851Z</time></trkpt><trkpt lat="42.6008383" lon="-8.3807033"><ele>705.0</ele><time>2026-04-16T09:12:10.851Z</time></trkpt><trkpt lat="42.6006767" lon="-8.380735"><ele>705.0</ele><time>2026-04-16T09:12:11.852Z</time></trkpt><trkpt lat="42.60052" lon="-8.380755"><ele>705.0</ele><time>2026-04-16T09:12:12.852Z</time></trkpt><trkpt lat="42.600355" lon="-8.3807667"><ele>705.0</ele><time>2026-04-16T09:12:13.852Z</time></trkpt><trkpt lat="42.6001833" lon="-8.380785"><ele>705.0</ele><time>2026-04-16T09:12:14.852Z</time></trkpt><trkpt lat="42.6000067" lon="-8.3808117"><ele>705.0</ele><time>2026-04-16T09:12:15.851Z</time></trkpt><trkpt lat="42.5998333" lon="-8.380825"><ele>705.0</ele><time>2026-04-16T09:12:16.851Z</time></trkpt><trkpt lat="42.5996633" lon="-8.3808483"><ele>705.0</ele><time>2026-04-16T09:12:17.852Z</time></trkpt><trkpt lat="42.59949" lon="-8.3808683"><ele>705.0</ele><time>2026-04-16T09:12:18.852Z</time></trkpt><trkpt lat="42.59932" lon="-8.3809033"><ele>705.0</ele><time>2026-04-16T09:12:19.851Z</time></trkpt><trkpt lat="42.599155" lon="-8.3809583"><ele>705.0</ele><time>2026-04-16T09:12:20.852Z</time></trkpt><trkpt lat="42.598985" lon="-8.3810133"><ele>705.0</ele><time>2026-04-16T09:12:21.851Z</time></trkpt><trkpt lat="42.5988183" lon="-8.3810833"><ele>705.0</ele><time>2026-04-16T09:12:22.851Z</time></trkpt><trkpt lat="42.5986583" lon="-8.3811617"><ele>705.6666666666666</ele><time>2026-04-16T09:12:23.851Z</time></trkpt><trkpt lat="42.598505" lon="-8.38126"><ele>706.3333333333333</ele><time>2026-04-16T09:12:24.851Z</time></trkpt><trkpt lat="42.5983467" lon="-8.3813567"><ele>707.0</ele><time>2026-04-16T09:12:25.851Z</time></trkpt><trkpt lat="42.5982017" lon="-8.381455"><ele>706.6666666666666</ele><time>2026-04-16T09:12:26.851Z</time></trkpt><trkpt lat="42.59806" lon="-8.3815733"><ele>706.3333333333334</ele><time>2026-04-16T09:12:27.852Z</time></trkpt><trkpt lat="42.5979183" lon="-8.3816983"><ele>706.0</ele><time>2026-04-16T09:12:28.851Z</time></trkpt><trkpt lat="42.5977817" lon="-8.3818267"><ele>706.0</ele><time>2026-04-16T09:12:29.852Z</time></trkpt><trkpt lat="42.597655" lon="-8.38197"><ele>706.0</ele><time>2026-04-16T09:12:30.852Z</time></trkpt><trkpt lat="42.5975317" lon="-8.3821167"><ele>706.0</ele><time>2026-04-16T09:12:31.852Z</time></trkpt><trkpt lat="42.597415" lon="-8.3822767"><ele>704.0</ele><time>2026-04-16T09:12:32.851Z</time></trkpt><trkpt lat="42.597305" lon="-8.3824417"><ele>702.0</ele><time>2026-04-16T09:12:33.851Z</time></trkpt><trkpt lat="42.597205" lon="-8.382605"><ele>700.0</ele><time>2026-04-16T09:12:34.852Z</time></trkpt><trkpt lat="42.5971117" lon="-8.38278"><ele>700.0</ele><time>2026-04-16T09:12:35.851Z</time></trkpt><trkpt lat="42.5970167" lon="-8.3829483"><ele>700.0</ele><time>2026-04-16T09:12:36.852Z</time></trkpt><trkpt lat="42.5969317" lon="-8.3831267"><ele>700.0</ele><time>2026-04-16T09:12:37.852Z</time></trkpt><trkpt lat="42.5968533" lon="-8.3833117"><ele>702.3333333333334</ele><time>2026-04-16T09:12:38.851Z</time></trkpt><trkpt lat="42.5967783" lon="-8.383495"><ele>704.6666666666666</ele><time>2026-04-16T09:12:39.852Z</time></trkpt><trkpt lat="42.5967117" lon="-8.3836833"><ele>707.0</ele><time>2026-04-16T09:12:40.851Z</time></trkpt><trkpt lat="42.59665" lon="-8.3838867"><ele>707.6666666666666</ele><time>2026-04-16T09:12:41.851Z</time></trkpt><trkpt lat="42.596595" lon="-8.3841"><ele>708.3333333333334</ele><time>2026-04-16T09:12:42.851Z</time></trkpt><trkpt lat="42.5965533" lon="-8.3843017"><ele>709.0</ele><time>2026-04-16T09:12:43.851Z</time></trkpt><trkpt lat="42.5965117" lon="-8.3845017"><ele>707.6666666666667</ele><time>2026-04-16T09:12:44.852Z</time></trkpt><trkpt lat="42.5964767" lon="-8.38471"><ele>706.3333333333334</ele><time>2026-04-16T09:12:45.851Z</time></trkpt><trkpt lat="42.5964467" lon="-8.3849267"><ele>705.0</ele><time>2026-04-16T09:12:46.851Z</time></trkpt><trkpt lat="42.59642" lon="-8.3851467"><ele>705.0</ele><time>2026-04-16T09:12:47.852Z</time></trkpt><trkpt lat="42.5964017" lon="-8.3853517"><ele>705.0</ele><time>2026-04-16T09:12:48.851Z</time></trkpt><trkpt lat="42.596385" lon="-8.385545"><ele>705.0</ele><time>2026-04-16T09:12:49.851Z</time></trkpt><trkpt lat="42.5963717" lon="-8.3857317"><ele>705.0</ele><time>2026-04-16T09:12:50.851Z</time></trkpt><trkpt lat="42.5963583" lon="-8.385915"><ele>703.5</ele><time>2026-04-16T09:12:51.851Z</time></trkpt><trkpt lat="42.5963433" lon="-8.38611"><ele>702.0</ele><time>2026-04-16T09:12:52.852Z</time></trkpt><trkpt lat="42.5963167" lon="-8.3862967"><ele>700.5</ele><time>2026-04-16T09:12:53.852Z</time></trkpt><trkpt lat="42.5963017" lon="-8.3864717"><ele>699.0</ele><time>2026-04-16T09:12:54.851Z</time></trkpt><trkpt lat="42.5962917" lon="-8.3866417"><ele>699.3333333333334</ele><time>2026-04-16T09:12:55.852Z</time></trkpt><trkpt lat="42.5962767" lon="-8.38679"><ele>699.6666666666666</ele><time>2026-04-16T09:12:56.851Z</time></trkpt><trkpt lat="42.5962517" lon="-8.3869083"><ele>700.0</ele><time>2026-04-16T09:12:57.851Z</time></trkpt><trkpt lat="42.5962067" lon="-8.38699"><ele>700.3333333333333</ele><time>2026-04-16T09:12:58.851Z</time></trkpt><trkpt lat="42.596145" lon="-8.387035"><ele>700.6666666666666</ele><time>2026-04-16T09:12:59.852Z</time></trkpt><trkpt lat="42.5960717" lon="-8.387035"><ele>701.0</ele><time>2026-04-16T09:13:00.852Z</time></trkpt><trkpt lat="42.59598" lon="-8.3869883"><ele>701.0</ele><time>2026-04-16T09:13:01.852Z</time></trkpt><trkpt lat="42.5958783" lon="-8.386905"><ele>701.0</ele><time>2026-04-16T09:13:02.852Z</time></trkpt><trkpt lat="42.59576" lon="-8.3867967"><ele>701.0</ele><time>2026-04-16T09:13:03.851Z</time></trkpt><trkpt lat="42.5956117" lon="-8.3866833"><ele>701.0</ele><time>2026-04-16T09:13:04.851Z</time></trkpt><trkpt lat="42.5954533" lon="-8.38658"><ele>701.3333333333333</ele><time>2026-04-16T09:13:05.852Z</time></trkpt><trkpt lat="42.5952917" lon="-8.3864967"><ele>701.6666666666666</ele><time>2026-04-16T09:13:06.851Z</time></trkpt><trkpt lat="42.59514" lon="-8.3864367"><ele>702.0</ele><time>2026-04-16T09:13:07.851Z</time></trkpt><trkpt lat="42.5949917" lon="-8.386375"><ele>703.3333333333334</ele><time>2026-04-16T09:13:08.851Z</time></trkpt><trkpt lat="42.59484" lon="-8.3863183"><ele>704.6666666666667</ele><time>2026-04-16T09:13:09.851Z</time></trkpt><trkpt lat="42.5946733" lon="-8.38626"><ele>706.0</ele><time>2026-04-16T09:13:10.851Z</time></trkpt><trkpt lat="42.5944967" lon="-8.3862133"><ele>706.0</ele><time>2026-04-16T09:13:11.851Z</time></trkpt><trkpt lat="42.5943317" lon="-8.3861717"><ele>706.0</ele><time>2026-04-16T09:13:12.851Z</time></trkpt><trkpt lat="42.5941817" lon="-8.3861283"><ele>706.0</ele><time>2026-04-16T09:13:13.851Z</time></trkpt><trkpt lat="42.5940317" lon="-8.3860733"><ele>706.0</ele><time>2026-04-16T09:13:14.851Z</time></trkpt><trkpt lat="42.5938733" lon="-8.3860233"><ele>706.0</ele><time>2026-04-16T09:13:15.852Z</time></trkpt><trkpt lat="42.593715" lon="-8.3859633"><ele>706.0</ele><time>2026-04-16T09:13:16.851Z</time></trkpt><trkpt lat="42.593555" lon="-8.3859017"><ele>704.3333333333334</ele><time>2026-04-16T09:13:17.851Z</time></trkpt><trkpt lat="42.5933983" lon="-8.38584"><ele>702.6666666666666</ele><time>2026-04-16T09:13:18.852Z</time></trkpt><trkpt lat="42.5932367" lon="-8.3857733"><ele>701.0</ele><time>2026-04-16T09:13:19.852Z</time></trkpt><trkpt lat="42.593085" lon="-8.3856867"><ele>701.0</ele><time>2026-04-16T09:13:20.851Z</time></trkpt><trkpt lat="42.5929333" lon="-8.385605"><ele>701.0</ele><time>2026-04-16T09:13:21.852Z</time></trkpt><trkpt lat="42.5927783" lon="-8.385515"><ele>701.0</ele><time>2026-04-16T09:13:22.852Z</time></trkpt><trkpt lat="42.5926317" lon="-8.38543"><ele>701.6666666666666</ele><time>2026-04-16T09:13:23.852Z</time></trkpt><trkpt lat="42.5924867" lon="-8.385345"><ele>702.3333333333334</ele><time>2026-04-16T09:13:24.852Z</time></trkpt><trkpt lat="42.5923383" lon="-8.38526"><ele>703.0</ele><time>2026-04-16T09:13:25.851Z</time></trkpt><trkpt lat="42.592195" lon="-8.3851683"><ele>703.0</ele><time>2026-04-16T09:13:26.851Z</time></trkpt><trkpt lat="42.592045" lon="-8.38508"><ele>703.0</ele><time>2026-04-16T09:13:27.852Z</time></trkpt><trkpt lat="42.591895" lon="-8.3849983"><ele>703.0</ele><time>2026-04-16T09:13:28.852Z</time></trkpt><trkpt lat="42.591735" lon="-8.3849233"><ele>703.3333333333334</ele><time>2026-04-16T09:13:29.851Z</time></trkpt><trkpt lat="42.5915833" lon="-8.3848333"><ele>703.6666666666666</ele><time>2026-04-16T09:13:30.851Z</time></trkpt><trkpt lat="42.5914333" lon="-8.3847533"><ele>704.0</ele><time>2026-04-16T09:13:31.851Z</time></trkpt><trkpt lat="42.5912817" lon="-8.384665"><ele>703.6666666666666</ele><time>2026-04-16T09:13:32.851Z</time></trkpt><trkpt lat="42.59113" lon="-8.38458"><ele>703.3333333333334</ele><time>2026-04-16T09:13:33.851Z</time></trkpt><trkpt lat="42.5909717" lon="-8.384495"><ele>703.0</ele><time>2026-04-16T09:13:34.852Z</time></trkpt><trkpt lat="42.59082" lon="-8.384415"><ele>703.0</ele><time>2026-04-16T09:13:35.852Z</time></trkpt><trkpt lat="42.5906533" lon="-8.3843267"><ele>703.0</ele><time>2026-04-16T09:13:36.851Z</time></trkpt><trkpt lat="42.590495" lon="-8.3842417"><ele>703.0</ele><time>2026-04-16T09:13:37.852Z</time></trkpt><trkpt lat="42.5903367" lon="-8.384155"><ele>702.0</ele><time>2026-04-16T09:13:38.852Z</time></trkpt><trkpt lat="42.5901733" lon="-8.3840717"><ele>701.0</ele><time>2026-04-16T09:13:39.851Z</time></trkpt><trkpt lat="42.5900267" lon="-8.3839933"><ele>700.0</ele><time>2026-04-16T09:13:40.852Z</time></trkpt><trkpt lat="42.589895" lon="-8.383925"><ele>700.0</ele><time>2026-04-16T09:13:41.852Z</time></trkpt><trkpt lat="42.5897683" lon="-8.3838617"><ele>700.0</ele><time>2026-04-16T09:13:42.852Z</time></trkpt><trkpt lat="42.589645" lon="-8.38379"><ele>700.0</ele><time>2026-04-16T09:13:43.852Z</time></trkpt><trkpt lat="42.5895033" lon="-8.383705"><ele>700.0</ele><time>2026-04-16T09:13:44.852Z</time></trkpt><trkpt lat="42.589355" lon="-8.38361"><ele>699.0</ele><time>2026-04-16T09:13:45.852Z</time></trkpt><trkpt lat="42.5892133" lon="-8.3834983"><ele>698.0</ele><time>2026-04-16T09:13:46.852Z</time></trkpt><trkpt lat="42.58908" lon="-8.3833817"><ele>697.0</ele><time>2026-04-16T09:13:47.851Z</time></trkpt><trkpt lat="42.58895" lon="-8.3832667"><ele>697.0</ele><time>2026-04-16T09:13:48.852Z</time></trkpt><trkpt lat="42.5888283" lon="-8.3831367"><ele>697.0</ele><time>2026-04-16T09:13:49.851Z</time></trkpt><trkpt lat="42.5887233" lon="-8.3830083"><ele>697.0</ele><time>2026-04-16T09:13:50.851Z</time></trkpt><trkpt lat="42.588635" lon="-8.3828867"><ele>697.0</ele><time>2026-04-16T09:13:51.852Z</time></trkpt><trkpt lat="42.5885533" lon="-8.3827933"><ele>696.8</ele><time>2026-04-16T09:13:52.851Z</time></trkpt><trkpt lat="42.5884767" lon="-8.3827333"><ele>696.6</ele><time>2026-04-16T09:13:53.852Z</time></trkpt><trkpt lat="42.5883833" lon="-8.382695"><ele>696.4</ele><time>2026-04-16T09:13:54.851Z</time></trkpt><trkpt lat="42.5882667" lon="-8.3826933"><ele>696.1999999999999</ele><time>2026-04-16T09:13:55.851Z</time></trkpt><trkpt lat="42.58813" lon="-8.3826783"><ele>696.0</ele><time>2026-04-16T09:13:56.851Z</time></trkpt><trkpt lat="42.5880233" lon="-8.38271"><ele>696.0</ele><time>2026-04-16T09:13:57.852Z</time></trkpt><trkpt lat="42.5879633" lon="-8.38277"><ele>696.0</ele><time>2026-04-16T09:13:58.851Z</time></trkpt><trkpt lat="42.5879183" lon="-8.382865"><ele>696.0</ele><time>2026-04-16T09:13:59.852Z</time></trkpt><trkpt lat="42.5878833" lon="-8.382995"><ele>696.0</ele><time>2026-04-16T09:14:00.851Z</time></trkpt><trkpt lat="42.5878633" lon="-8.3831533"><ele>696.0</ele><time>2026-04-16T09:14:01.851Z</time></trkpt><trkpt lat="42.587835" lon="-8.3833267"><ele>698.0</ele><time>2026-04-16T09:14:02.852Z</time></trkpt><trkpt lat="42.5877983" lon="-8.3835"><ele>700.0</ele><time>2026-04-16T09:14:03.851Z</time></trkpt><trkpt lat="42.5877667" lon="-8.3836767"><ele>702.0</ele><time>2026-04-16T09:14:04.851Z</time></trkpt><trkpt lat="42.5877233" lon="-8.3838317"><ele>704.0</ele><time>2026-04-16T09:14:05.852Z</time></trkpt><trkpt lat="42.5876483" lon="-8.3839383"><ele>705.0</ele><time>2026-04-16T09:14:06.851Z</time></trkpt><trkpt lat="42.5875533" lon="-8.38403"><ele>706.0</ele><time>2026-04-16T09:14:07.852Z</time></trkpt><trkpt lat="42.5874317" lon="-8.38411"><ele>707.0</ele><time>2026-04-16T09:14:08.851Z</time></trkpt><trkpt lat="42.5872917" lon="-8.3841783"><ele>708.0</ele><time>2026-04-16T09:14:09.852Z</time></trkpt><trkpt lat="42.5871417" lon="-8.3842317"><ele>708.3333333333334</ele><time>2026-04-16T09:14:10.852Z</time></trkpt><trkpt lat="42.58698" lon="-8.3842783"><ele>708.6666666666667</ele><time>2026-04-16T09:14:11.851Z</time></trkpt><trkpt lat="42.5868183" lon="-8.3843217"><ele>709.0</ele><time>2026-04-16T09:14:12.851Z</time></trkpt><trkpt lat="42.58665" lon="-8.384375"><ele>709.0</ele><time>2026-04-16T09:14:13.851Z</time></trkpt><trkpt lat="42.5864883" lon="-8.384425"><ele>709.0</ele><time>2026-04-16T09:14:14.851Z</time></trkpt><trkpt lat="42.5863183" lon="-8.3844667"><ele>709.0</ele><time>2026-04-16T09:14:15.851Z</time></trkpt><trkpt lat="42.5861533" lon="-8.3844917"><ele>709.6666666666667</ele><time>2026-04-16T09:14:16.852Z</time></trkpt><trkpt lat="42.58599" lon="-8.3845117"><ele>710.3333333333334</ele><time>2026-04-16T09:14:17.852Z</time></trkpt><trkpt lat="42.5858233" lon="-8.3845333"><ele>711.0</ele><time>2026-04-16T09:14:18.851Z</time></trkpt><trkpt lat="42.5856533" lon="-8.3845517"><ele>711.0</ele><time>2026-04-16T09:14:19.852Z</time></trkpt><trkpt lat="42.5854883" lon="-8.3845767"><ele>711.0</ele><time>2026-04-16T09:14:20.851Z</time></trkpt><trkpt lat="42.5853283" lon="-8.3846083"><ele>711.0</ele><time>2026-04-16T09:14:21.851Z</time></trkpt><trkpt lat="42.5851667" lon="-8.3846483"><ele>708.6666666666666</ele><time>2026-04-16T09:14:22.851Z</time></trkpt><trkpt lat="42.5850067" lon="-8.3846867"><ele>706.3333333333333</ele><time>2026-04-16T09:14:23.851Z</time></trkpt><trkpt lat="42.58484" lon="-8.3847017"><ele>704.0</ele><time>2026-04-16T09:14:24.852Z</time></trkpt><trkpt lat="42.5846717" lon="-8.3847033"><ele>702.6666666666666</ele><time>2026-04-16T09:14:25.852Z</time></trkpt><trkpt lat="42.5844983" lon="-8.3846783"><ele>701.3333333333334</ele><time>2026-04-16T09:14:26.852Z</time></trkpt><trkpt lat="42.5843217" lon="-8.3846583"><ele>700.0</ele><time>2026-04-16T09:14:27.852Z</time></trkpt><trkpt lat="42.5901733" lon="-8.3840717"><ele>700.0</ele><time>2026-04-16T09:13:39.851Z</time></trkpt><trkpt lat="42.5900267" lon="-8.3839933"><ele>700.0</ele><time>2026-04-16T09:13:40.852Z</time></trkpt><trkpt lat="42.589895" lon="-8.383925"><ele>700.0</ele><time>2026-04-16T09:13:41.852Z</time></trkpt><trkpt lat="42.5897683" lon="-8.3838617"><ele>700.0</ele><time>2026-04-16T09:13:42.852Z</time></trkpt><trkpt lat="42.589645" lon="-8.38379"><ele>699.0</ele><time>2026-04-16T09:13:43.852Z</time></trkpt><trkpt lat="42.5895033" lon="-8.383705"><ele>698.0</ele><time>2026-04-16T09:13:44.852Z</time></trkpt><trkpt lat="42.589355" lon="-8.38361"><ele>697.0</ele><time>2026-04-16T09:13:45.852Z</time></trkpt><trkpt lat="42.5892133" lon="-8.3834983"><ele>697.0</ele><time>2026-04-16T09:13:46.852Z</time></trkpt><trkpt lat="42.58908" lon="-8.3833817"><ele>697.0</ele><time>2026-04-16T09:13:47.851Z</time></trkpt><trkpt lat="42.58895" lon="-8.3832667"><ele>697.0</ele><time>2026-04-16T09:13:48.852Z</time></trkpt><trkpt lat="42.5888283" lon="-8.3831367"><ele>696.75</ele><time>2026-04-16T09:13:49.851Z</time></trkpt><trkpt lat="42.5887233" lon="-8.3830083"><ele>696.5</ele><time>2026-04-16T09:13:50.851Z</time></trkpt><trkpt lat="42.588635" lon="-8.3828867"><ele>696.25</ele><time>2026-04-16T09:13:51.852Z</time></trkpt><trkpt lat="42.5885533" lon="-8.3827933"><ele>696.0</ele><time>2026-04-16T09:13:52.851Z</time></trkpt><trkpt lat="42.5884767" lon="-8.3827333"><ele>696.0</ele><time>2026-04-16T09:13:53.852Z</time></trkpt><trkpt lat="42.5883833" lon="-8.382695"><ele>696.0</ele><time>2026-04-16T09:13:54.851Z</time></trkpt><trkpt lat="42.5882667" lon="-8.3826933"><ele>696.0</ele><time>2026-04-16T09:13:55.851Z</time></trkpt><trkpt lat="42.58813" lon="-8.3826783"><ele>696.0</ele><time>2026-04-16T09:13:56.851Z</time></trkpt><trkpt lat="42.5880233" lon="-8.38271"><ele>696.0</ele><time>2026-04-16T09:13:57.852Z</time></trkpt><trkpt lat="42.5879633" lon="-8.38277"><ele>696.0</ele><time>2026-04-16T09:13:58.851Z</time></trkpt><trkpt lat="42.5879183" lon="-8.382865"><ele>696.0</ele><time>2026-04-16T09:13:59.852Z</time></trkpt><trkpt lat="42.5878833" lon="-8.382995"><ele>696.0</ele><time>2026-04-16T09:14:00.851Z</time></trkpt><trkpt lat="42.5878633" lon="-8.3831533"><ele>696.0</ele><time>2026-04-16T09:14:01.851Z</time></trkpt><trkpt lat="42.587835" lon="-8.3833267"><ele>698.0</ele><time>2026-04-16T09:14:02.852Z</time></trkpt><trkpt lat="42.5877983" lon="-8.3835"><ele>700.0</ele><time>2026-04-16T09:14:03.851Z</time></trkpt><trkpt lat="42.5877667" lon="-8.3836767"><ele>702.0</ele><time>2026-04-16T09:14:04.851Z</time></trkpt><trkpt lat="42.5877233" lon="-8.3838317"><ele>704.0</ele><time>2026-04-16T09:14:05.852Z</time></trkpt><trkpt lat="42.5876483" lon="-8.3839383"><ele>705.0</ele><time>2026-04-16T09:14:06.851Z</time></trkpt><trkpt lat="42.5875533" lon="-8.38403"><ele>706.0</ele><time>2026-04-16T09:14:07.852Z</time></trkpt><trkpt lat="42.5874317" lon="-8.38411"><ele>707.0</ele><time>2026-04-16T09:14:08.851Z</time></trkpt><trkpt lat="42.5872917" lon="-8.3841783"><ele>708.0</ele><time>2026-04-16T09:14:09.852Z</time></trkpt><trkpt lat="42.5871417" lon="-8.3842317"><ele>708.3333333333334</ele><time>2026-04-16T09:14:10.852Z</time></trkpt><trkpt lat="42.58698" lon="-8.3842783"><ele>708.6666666666667</ele><time>2026-04-16T09:14:11.851Z</time></trkpt><trkpt lat="42.5868183" lon="-8.3843217"><ele>709.0</ele><time>2026-04-16T09:14:12.851Z</time></trkpt><trkpt lat="42.58665" lon="-8.384375"><ele>709.0</ele><time>2026-04-16T09:14:13.851Z</time></trkpt><trkpt lat="42.5864883" lon="-8.384425"><ele>709.0</ele><time>2026-04-16T09:14:14.851Z</time></trkpt><trkpt lat="42.5863183" lon="-8.3844667"><ele>709.0</ele><time>2026-04-16T09:14:15.851Z</time></trkpt><trkpt lat="42.5861533" lon="-8.3844917"><ele>709.6666666666667</ele><time>2026-04-16T09:14:16.852Z</time></trkpt><trkpt lat="42.58599" lon="-8.3845117"><ele>710.3333333333334</ele><time>2026-04-16T09:14:17.852Z</time></trkpt><trkpt lat="42.5858233" lon="-8.3845333"><ele>711.0</ele><time>2026-04-16T09:14:18.851Z</time></trkpt><trkpt lat="42.5856533" lon="-8.3845517"><ele>711.0</ele><time>2026-04-16T09:14:19.852Z</time></trkpt><trkpt lat="42.5854883" lon="-8.3845767"><ele>711.0</ele><time>2026-04-16T09:14:20.851Z</time></trkpt><trkpt lat="42.5853283" lon="-8.3846083"><ele>711.0</ele><time>2026-04-16T09:14:21.851Z</time></trkpt><trkpt lat="42.5851667" lon="-8.3846483"><ele>708.6666666666666</ele><time>2026-04-16T09:14:22.851Z</time></trkpt><trkpt lat="42.5850067" lon="-8.3846867"><ele>706.3333333333333</ele><time>2026-04-16T09:14:23.851Z</time></trkpt><trkpt lat="42.58484" lon="-8.3847017"><ele>704.0</ele><time>2026-04-16T09:14:24.852Z</time></trkpt><trkpt lat="42.5846717" lon="-8.3847033"><ele>707.0</ele><time>2026-04-16T09:14:25.852Z</time></trkpt><trkpt lat="42.5844983" lon="-8.3846783"><ele>710.0</ele><time>2026-04-16T09:14:26.852Z</time></trkpt><trkpt lat="42.5843217" lon="-8.3846583"><ele>713.0</ele><time>2026-04-16T09:14:27.852Z</time></trkpt><trkpt lat="42.584145" lon="-8.384635"><ele>713.0</ele><time>2026-04-16T09:14:28.852Z</time></trkpt><trkpt lat="42.5839883" lon="-8.384645"><ele>713.0</ele><time>2026-04-16T09:14:29.851Z</time></trkpt><trkpt lat="42.5838483" lon="-8.3846667"><ele>713.0</ele><time>2026-04-16T09:14:30.851Z</time></trkpt><trkpt lat="42.5837183" lon="-8.384745"><ele>713.0</ele><time>2026-04-16T09:14:31.852Z</time></trkpt><trkpt lat="42.5835783" lon="-8.384845"><ele>712.3333333333333</ele><time>2026-04-16T09:14:32.851Z</time></trkpt><trkpt lat="42.5834533" lon="-8.384955"><ele>711.6666666666666</ele><time>2026-04-16T09:14:33.851Z</time></trkpt><trkpt lat="42.5833133" lon="-8.3850533"><ele>711.0</ele><time>2026-04-16T09:14:34.851Z</time></trkpt><trkpt lat="42.5831617" lon="-8.3851267"><ele>711.0</ele><time>2026-04-16T09:14:35.852Z</time></trkpt><trkpt lat="42.583" lon="-8.3851833"><ele>711.0</ele><time>2026-04-16T09:14:36.851Z</time></trkpt><trkpt lat="42.5828383" lon="-8.3852283"><ele>711.0</ele><time>2026-04-16T09:14:37.851Z</time></trkpt><trkpt lat="42.5826733" lon="-8.3852733"><ele>711.3333333333334</ele><time>2026-04-16T09:14:38.851Z</time></trkpt><trkpt lat="42.5825083" lon="-8.385315"><ele>711.6666666666667</ele><time>2026-04-16T09:14:39.852Z</time></trkpt><trkpt lat="42.5823267" lon="-8.38536"><ele>712.0</ele><time>2026-04-16T09:14:40.851Z</time></trkpt><trkpt lat="42.5821217" lon="-8.385415"><ele>711.6666666666667</ele><time>2026-04-16T09:14:41.852Z</time></trkpt><trkpt lat="42.5819317" lon="-8.3854833"><ele>711.3333333333334</ele><time>2026-04-16T09:14:42.852Z</time></trkpt><trkpt lat="42.58177" lon="-8.3855517"><ele>711.0</ele><time>2026-04-16T09:14:43.852Z</time></trkpt><trkpt lat="42.581615" lon="-8.3856267"><ele>710.0</ele><time>2026-04-16T09:14:44.851Z</time></trkpt><trkpt lat="42.581445" lon="-8.3857183"><ele>709.0</ele><time>2026-04-16T09:14:45.851Z</time></trkpt><trkpt lat="42.58125" lon="-8.38581"><ele>708.0</ele><time>2026-04-16T09:14:46.852Z</time></trkpt><trkpt lat="42.5810333" lon="-8.385905"><ele>708.0</ele><time>2026-04-16T09:14:47.851Z</time></trkpt><trkpt lat="42.580815" lon="-8.385995"><ele>708.0</ele><time>2026-04-16T09:14:48.851Z</time></trkpt><trkpt lat="42.5806167" lon="-8.38607"><ele>708.0</ele><time>2026-04-16T09:14:49.851Z</time></trkpt><trkpt lat="42.58043" lon="-8.386095"><ele>708.6666666666666</ele><time>2026-04-16T09:14:50.852Z</time></trkpt><trkpt lat="42.5802417" lon="-8.3861"><ele>709.3333333333333</ele><time>2026-04-16T09:14:51.851Z</time></trkpt><trkpt lat="42.5800433" lon="-8.3860833"><ele>710.0</ele><time>2026-04-16T09:14:52.852Z</time></trkpt><trkpt lat="42.5798383" lon="-8.3860483"><ele>710.0</ele><time>2026-04-16T09:14:53.851Z</time></trkpt><trkpt lat="42.57962" lon="-8.3860133"><ele>710.0</ele><time>2026-04-16T09:14:54.852Z</time></trkpt><trkpt lat="42.5794067" lon="-8.385985"><ele>710.0</ele><time>2026-04-16T09:14:55.851Z</time></trkpt><trkpt lat="42.579175" lon="-8.3859483"><ele>708.5</ele><time>2026-04-16T09:14:56.852Z</time></trkpt><trkpt lat="42.578935" lon="-8.3859233"><ele>707.0</ele><time>2026-04-16T09:14:57.853Z</time></trkpt><trkpt lat="42.5786833" lon="-8.3858967"><ele>706.5</ele><time>2026-04-16T09:14:58.853Z</time></trkpt><trkpt lat="42.5784167" lon="-8.3858733"><ele>706.0</ele><time>2026-04-16T09:14:59.852Z</time></trkpt><trkpt lat="42.578145" lon="-8.3858467"><ele>706.0</ele><time>2026-04-16T09:15:00.853Z</time></trkpt><trkpt lat="42.5778733" lon="-8.3858183"><ele>706.0</ele><time>2026-04-16T09:15:01.852Z</time></trkpt><trkpt lat="42.5776233" lon="-8.3857917"><ele>705.0</ele><time>2026-04-16T09:15:02.853Z</time></trkpt><trkpt lat="42.5774033" lon="-8.38578"><ele>704.0</ele><time>2026-04-16T09:15:03.853Z</time></trkpt><trkpt lat="42.5772083" lon="-8.3857617"><ele>703.0</ele><time>2026-04-16T09:15:04.852Z</time></trkpt><trkpt lat="42.5770483" lon="-8.3857483"><ele>702.5999999999999</ele><time>2026-04-16T09:15:05.852Z</time></trkpt><trkpt lat="42.5769183" lon="-8.3857183"><ele>702.1999999999999</ele><time>2026-04-16T09:15:06.852Z</time></trkpt><trkpt lat="42.576825" lon="-8.3857067"><ele>701.8</ele><time>2026-04-16T09:15:07.852Z</time></trkpt><trkpt lat="42.5767567" lon="-8.3857117"><ele>701.4</ele><time>2026-04-16T09:15:08.853Z</time></trkpt><trkpt lat="42.576685" lon="-8.385795"><ele>701.0</ele><time>2026-04-16T09:15:10.852Z</time></trkpt><trkpt lat="42.5766767" lon="-8.385885"><ele>701.0</ele><time>2026-04-16T09:15:11.853Z</time></trkpt><trkpt lat="42.5766767" lon="-8.386005"><ele>701.0</ele><time>2026-04-16T09:15:12.852Z</time></trkpt><trkpt lat="42.576685" lon="-8.386175"><ele>701.0</ele><time>2026-04-16T09:15:13.852Z</time></trkpt><trkpt lat="42.5766967" lon="-8.3863667"><ele>701.0</ele><time>2026-04-16T09:15:14.852Z</time></trkpt><trkpt lat="42.5767183" lon="-8.3866"><ele>700.0</ele><time>2026-04-16T09:15:15.853Z</time></trkpt><trkpt lat="42.5767483" lon="-8.3868667"><ele>699.0</ele><time>2026-04-16T09:15:16.852Z</time></trkpt><trkpt lat="42.57676" lon="-8.3871233"><ele>698.0</ele><time>2026-04-16T09:15:17.853Z</time></trkpt><trkpt lat="42.5767633" lon="-8.387375"><ele>698.0</ele><time>2026-04-16T09:15:18.853Z</time></trkpt><trkpt lat="42.57676" lon="-8.3876217"><ele>698.0</ele><time>2026-04-16T09:15:19.852Z</time></trkpt><trkpt lat="42.57675" lon="-8.3878567"><ele>698.0</ele><time>2026-04-16T09:15:20.853Z</time></trkpt><trkpt lat="42.5767483" lon="-8.3880817"><ele>696.6666666666666</ele><time>2026-04-16T09:15:21.853Z</time></trkpt><trkpt lat="42.5767433" lon="-8.3882933"><ele>695.3333333333334</ele><time>2026-04-16T09:15:22.853Z</time></trkpt><trkpt lat="42.5767283" lon="-8.3885067"><ele>694.0</ele><time>2026-04-16T09:15:23.852Z</time></trkpt><trkpt lat="42.5767133" lon="-8.38871"><ele>692.0</ele><time>2026-04-16T09:15:24.852Z</time></trkpt><trkpt lat="42.5766983" lon="-8.3889167"><ele>690.0</ele><time>2026-04-16T09:15:25.853Z</time></trkpt><trkpt lat="42.5766833" lon="-8.3891267"><ele>688.0</ele><time>2026-04-16T09:15:26.852Z</time></trkpt><trkpt lat="42.5766733" lon="-8.3893267"><ele>688.0</ele><time>2026-04-16T09:15:27.852Z</time></trkpt><trkpt lat="42.5766617" lon="-8.3895167"><ele>688.0</ele><time>2026-04-16T09:15:28.852Z</time></trkpt><trkpt lat="42.5766533" lon="-8.3897017"><ele>688.0</ele><time>2026-04-16T09:15:29.853Z</time></trkpt><trkpt lat="42.5766417" lon="-8.3898817"><ele>688.0</ele><time>2026-04-16T09:15:30.853Z</time></trkpt><trkpt lat="42.576625" lon="-8.3900717"><ele>686.25</ele><time>2026-04-16T09:15:31.853Z</time></trkpt><trkpt lat="42.5766033" lon="-8.39026"><ele>684.5</ele><time>2026-04-16T09:15:32.853Z</time></trkpt><trkpt lat="42.5765833" lon="-8.3904283"><ele>682.75</ele><time>2026-04-16T09:15:33.853Z</time></trkpt><trkpt lat="42.5765667" lon="-8.39058"><ele>681.0</ele><time>2026-04-16T09:15:34.852Z</time></trkpt><trkpt lat="42.576555" lon="-8.390725"><ele>679.6666666666666</ele><time>2026-04-16T09:15:35.853Z</time></trkpt><trkpt lat="42.5765567" lon="-8.3908633"><ele>678.3333333333334</ele><time>2026-04-16T09:15:36.853Z</time></trkpt><trkpt lat="42.5765717" lon="-8.3909767"><ele>677.0</ele><time>2026-04-16T09:15:37.853Z</time></trkpt><trkpt lat="42.576595" lon="-8.3910833"><ele>675.6666666666667</ele><time>2026-04-16T09:15:38.852Z</time></trkpt><trkpt lat="42.5766333" lon="-8.3911833"><ele>674.3333333333334</ele><time>2026-04-16T09:15:39.852Z</time></trkpt><trkpt lat="42.5766733" lon="-8.3912817"><ele>673.0</ele><time>2026-04-16T09:15:40.852Z</time></trkpt><trkpt lat="42.5767083" lon="-8.3913567"><ele>670.4</ele><time>2026-04-16T09:15:41.852Z</time></trkpt><trkpt lat="42.576755" lon="-8.39149"><ele>667.8</ele><time>2026-04-16T09:15:43.852Z</time></trkpt><trkpt lat="42.5767967" lon="-8.3915867"><ele>665.2</ele><time>2026-04-16T09:15:44.853Z</time></trkpt><trkpt lat="42.5768433" lon="-8.391695"><ele>662.6</ele><time>2026-04-16T09:15:45.853Z</time></trkpt><trkpt lat="42.576905" lon="-8.3918333"><ele>660.0</ele><time>2026-04-16T09:15:46.852Z</time></trkpt><trkpt lat="42.5769767" lon="-8.3919817"><ele>660.0</ele><time>2026-04-16T09:15:47.852Z</time></trkpt><trkpt lat="42.5770483" lon="-8.39213"><ele>660.0</ele><time>2026-04-16T09:15:48.852Z</time></trkpt><trkpt lat="42.57712" lon="-8.392275"><ele>660.0</ele><time>2026-04-16T09:15:49.852Z</time></trkpt><trkpt lat="42.57719" lon="-8.3924117"><ele>660.0</ele><time>2026-04-16T09:15:50.853Z</time></trkpt><trkpt lat="42.577255" lon="-8.39257"><ele>657.5</ele><time>2026-04-16T09:15:51.853Z</time></trkpt><trkpt lat="42.5773217" lon="-8.3927267"><ele>655.0</ele><time>2026-04-16T09:15:52.852Z</time></trkpt><trkpt lat="42.5773767" lon="-8.392875"><ele>652.5</ele><time>2026-04-16T09:15:53.852Z</time></trkpt><trkpt lat="42.5774433" lon="-8.393"><ele>650.0</ele><time>2026-04-16T09:15:54.852Z</time></trkpt><trkpt lat="42.5767133" lon="-8.38871"><ele>662.6666666666666</ele><time>2026-04-16T09:15:24.852Z</time></trkpt><trkpt lat="42.5766983" lon="-8.3889167"><ele>675.3333333333334</ele><time>2026-04-16T09:15:25.853Z</time></trkpt><trkpt lat="42.5766833" lon="-8.3891267"><ele>688.0</ele><time>2026-04-16T09:15:26.852Z</time></trkpt><trkpt lat="42.5766733" lon="-8.3893267"><ele>688.0</ele><time>2026-04-16T09:15:27.852Z</time></trkpt><trkpt lat="42.5766617" lon="-8.3895167"><ele>688.0</ele><time>2026-04-16T09:15:28.852Z</time></trkpt><trkpt lat="42.5766533" lon="-8.3897017"><ele>688.0</ele><time>2026-04-16T09:15:29.853Z</time></trkpt><trkpt lat="42.5766417" lon="-8.3898817"><ele>688.0</ele><time>2026-04-16T09:15:30.853Z</time></trkpt><trkpt lat="42.576625" lon="-8.3900717"><ele>686.25</ele><time>2026-04-16T09:15:31.853Z</time></trkpt><trkpt lat="42.5766033" lon="-8.39026"><ele>684.5</ele><time>2026-04-16T09:15:32.853Z</time></trkpt><trkpt lat="42.5765833" lon="-8.3904283"><ele>682.75</ele><time>2026-04-16T09:15:33.853Z</time></trkpt><trkpt lat="42.5765667" lon="-8.39058"><ele>681.0</ele><time>2026-04-16T09:15:34.852Z</time></trkpt><trkpt lat="42.576555" lon="-8.390725"><ele>679.6666666666666</ele><time>2026-04-16T09:15:35.853Z</time></trkpt><trkpt lat="42.5765567" lon="-8.3908633"><ele>678.3333333333334</ele><time>2026-04-16T09:15:36.853Z</time></trkpt><trkpt lat="42.5765717" lon="-8.3909767"><ele>677.0</ele><time>2026-04-16T09:15:37.853Z</time></trkpt><trkpt lat="42.576595" lon="-8.3910833"><ele>675.6666666666667</ele><time>2026-04-16T09:15:38.852Z</time></trkpt><trkpt lat="42.5766333" lon="-8.3911833"><ele>674.3333333333334</ele><time>2026-04-16T09:15:39.852Z</time></trkpt><trkpt lat="42.5766733" lon="-8.3912817"><ele>673.0</ele><time>2026-04-16T09:15:40.852Z</time></trkpt><trkpt lat="42.5767083" lon="-8.3913567"><ele>670.4</ele><time>2026-04-16T09:15:41.852Z</time></trkpt><trkpt lat="42.576755" lon="-8.39149"><ele>667.8</ele><time>2026-04-16T09:15:43.852Z</time></trkpt><trkpt lat="42.5767967" lon="-8.3915867"><ele>665.2</ele><time>2026-04-16T09:15:44.853Z</time></trkpt><trkpt lat="42.5768433" lon="-8.391695"><ele>662.6</ele><time>2026-04-16T09:15:45.853Z</time></trkpt><trkpt lat="42.576905" lon="-8.3918333"><ele>660.0</ele><time>2026-04-16T09:15:46.852Z</time></trkpt><trkpt lat="42.5769767" lon="-8.3919817"><ele>660.0</ele><time>2026-04-16T09:15:47.852Z</time></trkpt><trkpt lat="42.5770483" lon="-8.39213"><ele>660.0</ele><time>2026-04-16T09:15:48.852Z</time></trkpt><trkpt lat="42.57712" lon="-8.392275"><ele>660.0</ele><time>2026-04-16T09:15:49.852Z</time></trkpt><trkpt lat="42.57719" lon="-8.3924117"><ele>660.0</ele><time>2026-04-16T09:15:50.853Z</time></trkpt><trkpt lat="42.577255" lon="-8.39257"><ele>657.5</ele><time>2026-04-16T09:15:51.853Z</time></trkpt><trkpt lat="42.5773217" lon="-8.3927267"><ele>655.0</ele><time>2026-04-16T09:15:52.852Z</time></trkpt><trkpt lat="42.5773767" lon="-8.392875"><ele>652.5</ele><time>2026-04-16T09:15:53.852Z</time></trkpt><trkpt lat="42.5774433" lon="-8.393"><ele>650.0</ele><time>2026-04-16T09:15:54.852Z</time></trkpt><trkpt lat="42.5775233" lon="-8.3931"><ele>647.4</ele><time>2026-04-16T09:15:55.852Z</time></trkpt><trkpt lat="42.577625" lon="-8.393175"><ele>644.8</ele><time>2026-04-16T09:15:56.853Z</time></trkpt><trkpt lat="42.5777233" lon="-8.3932483"><ele>642.2</ele><time>2026-04-16T09:15:57.853Z</time></trkpt><trkpt lat="42.5778133" lon="-8.3933083"><ele>639.6</ele><time>2026-04-16T09:15:58.852Z</time></trkpt><trkpt lat="42.5778933" lon="-8.3933533"><ele>637.0</ele><time>2026-04-16T09:15:59.852Z</time></trkpt><trkpt lat="42.5779633" lon="-8.393445"><ele>634.0</ele><time>2026-04-16T09:16:01.853Z</time></trkpt><trkpt lat="42.57799" lon="-8.39363"><ele>631.0</ele><time>2026-04-16T09:16:03.853Z</time></trkpt><trkpt lat="42.5779967" lon="-8.39378"><ele>628.0</ele><time>2026-04-16T09:16:04.853Z</time></trkpt><trkpt lat="42.5780017" lon="-8.3939617"><ele>625.0</ele><time>2026-04-16T09:16:05.852Z</time></trkpt><trkpt lat="42.5780067" lon="-8.394185"><ele>622.5</ele><time>2026-04-16T09:16:06.852Z</time></trkpt><trkpt lat="42.5780167" lon="-8.394385"><ele>620.0</ele><time>2026-04-16T09:16:07.853Z</time></trkpt><trkpt lat="42.5780167" lon="-8.3945733"><ele>617.5</ele><time>2026-04-16T09:16:08.853Z</time></trkpt><trkpt lat="42.57801" lon="-8.3947483"><ele>615.0</ele><time>2026-04-16T09:16:09.853Z</time></trkpt><trkpt lat="42.578" lon="-8.39487"><ele>611.0</ele><time>2026-04-16T09:16:10.852Z</time></trkpt><trkpt lat="42.578" lon="-8.3949667"><ele>607.0</ele><time>2026-04-16T09:16:12.852Z</time></trkpt><trkpt lat="42.5781017" lon="-8.3948767"><ele>603.0</ele><time>2026-04-16T09:16:16.853Z</time></trkpt><trkpt lat="42.5781867" lon="-8.394825"><ele>599.0</ele><time>2026-04-16T09:16:17.852Z</time></trkpt><trkpt lat="42.5783317" lon="-8.3946967"><ele>597.6666666666666</ele><time>2026-04-16T09:16:18.853Z</time></trkpt><trkpt lat="42.5785117" lon="-8.3946467"><ele>596.3333333333334</ele><time>2026-04-16T09:16:19.853Z</time></trkpt><trkpt lat="42.5786783" lon="-8.3946067"><ele>595.0</ele><time>2026-04-16T09:16:20.853Z</time></trkpt><trkpt lat="42.5788217" lon="-8.3945667"><ele>595.0</ele><time>2026-04-16T09:16:21.853Z</time></trkpt><trkpt lat="42.5789467" lon="-8.3945383"><ele>595.0</ele><time>2026-04-16T09:16:22.853Z</time></trkpt><trkpt lat="42.5790467" lon="-8.3945067"><ele>595.0</ele><time>2026-04-16T09:16:23.853Z</time></trkpt><trkpt lat="42.579125" lon="-8.3944717"><ele>595.0</ele><time>2026-04-16T09:16:24.853Z</time></trkpt><trkpt lat="42.5791867" lon="-8.3944083"><ele>595.0</ele><time>2026-04-16T09:16:26.852Z</time></trkpt><trkpt lat="42.57914" lon="-8.3942883"><ele>595.0</ele><time>2026-04-16T09:16:28.852Z</time></trkpt><trkpt lat="42.579115" lon="-8.394195"><ele>595.0</ele><time>2026-04-16T09:16:29.852Z</time></trkpt><trkpt lat="42.5791133" lon="-8.3941083"><ele>595.0</ele><time>2026-04-16T09:16:30.852Z</time></trkpt><trkpt lat="42.5791417" lon="-8.39402"><ele>595.0</ele><time>2026-04-16T09:16:31.853Z</time></trkpt><trkpt lat="42.5791967" lon="-8.393945"><ele>595.0</ele><time>2026-04-16T09:16:32.853Z</time></trkpt><trkpt lat="42.5792767" lon="-8.3938867"><ele>595.0</ele><time>2026-04-16T09:16:33.853Z</time></trkpt><trkpt lat="42.5793933" lon="-8.3938283"><ele>600.3333333333334</ele><time>2026-04-16T09:16:34.853Z</time></trkpt><trkpt lat="42.5795367" lon="-8.3937617"><ele>605.6666666666666</ele><time>2026-04-16T09:16:35.853Z</time></trkpt><trkpt lat="42.5797483" lon="-8.39369"><ele>611.0</ele><time>2026-04-16T09:16:36.852Z</time></trkpt><trkpt lat="42.5799667" lon="-8.3936233"><ele>611.0</ele><time>2026-04-16T09:16:37.852Z</time></trkpt><trkpt lat="42.5802017" lon="-8.3935833"><ele>611.0</ele><time>2026-04-16T09:16:38.852Z</time></trkpt><trkpt lat="42.580405" lon="-8.3935367"><ele>611.0</ele><time>2026-04-16T09:16:39.853Z</time></trkpt><trkpt lat="42.5805817" lon="-8.39348"><ele>611.0</ele><time>2026-04-16T09:16:40.852Z</time></trkpt><trkpt lat="42.580745" lon="-8.393405"><ele>611.0</ele><time>2026-04-16T09:16:41.852Z</time></trkpt><trkpt lat="42.5808967" lon="-8.393325"><ele>611.0</ele><time>2026-04-16T09:16:42.853Z</time></trkpt><trkpt lat="42.5810283" lon="-8.3932117"><ele>611.0</ele><time>2026-04-16T09:16:43.852Z</time></trkpt><trkpt lat="42.581135" lon="-8.3930983"><ele>611.0</ele><time>2026-04-16T09:16:44.853Z</time></trkpt><trkpt lat="42.5812333" lon="-8.3930317"><ele>611.0</ele><time>2026-04-16T09:16:45.852Z</time></trkpt><trkpt lat="42.5813517" lon="-8.392995"><ele>611.0</ele><time>2026-04-16T09:16:46.853Z</time></trkpt><trkpt lat="42.58149" lon="-8.3929667"><ele>615.25</ele><time>2026-04-16T09:16:47.852Z</time></trkpt><trkpt lat="42.5816317" lon="-8.39294"><ele>619.5</ele><time>2026-04-16T09:16:48.853Z</time></trkpt><trkpt lat="42.5817683" lon="-8.3928967"><ele>623.75</ele><time>2026-04-16T09:16:49.852Z</time></trkpt><trkpt lat="42.581895" lon="-8.392825"><ele>628.0</ele><time>2026-04-16T09:16:50.852Z</time></trkpt><trkpt lat="42.5820083" lon="-8.3927167"><ele>627.3333333333334</ele><time>2026-04-16T09:16:51.853Z</time></trkpt><trkpt lat="42.5821133" lon="-8.3925667"><ele>626.6666666666666</ele><time>2026-04-16T09:16:52.853Z</time></trkpt><trkpt lat="42.5822133" lon="-8.3923917"><ele>626.0</ele><time>2026-04-16T09:16:53.852Z</time></trkpt><trkpt lat="42.5823117" lon="-8.39224"><ele>626.0</ele><time>2026-04-16T09:16:54.853Z</time></trkpt><trkpt lat="42.582405" lon="-8.39214"><ele>626.0</ele><time>2026-04-16T09:16:55.853Z</time></trkpt><trkpt lat="42.58249" lon="-8.392095"><ele>626.0</ele><time>2026-04-16T09:16:56.852Z</time></trkpt><trkpt lat="42.5825667" lon="-8.3920683"><ele>626.0</ele><time>2026-04-16T09:16:57.853Z</time></trkpt><trkpt lat="42.5826517" lon="-8.3921367"><ele>626.0</ele><time>2026-04-16T09:16:59.853Z</time></trkpt><trkpt lat="42.582685" lon="-8.3922717"><ele>626.0</ele><time>2026-04-16T09:17:01.852Z</time></trkpt><trkpt lat="42.58271" lon="-8.3923667"><ele>626.0</ele><time>2026-04-16T09:17:02.852Z</time></trkpt><trkpt lat="42.5827533" lon="-8.3924933"><ele>626.0</ele><time>2026-04-16T09:17:03.852Z</time></trkpt><trkpt lat="42.5828267" lon="-8.3926783"><ele>626.0</ele><time>2026-04-16T09:17:04.852Z</time></trkpt><trkpt lat="42.5829033" lon="-8.3928517"><ele>625.75</ele><time>2026-04-16T09:17:05.852Z</time></trkpt><trkpt lat="42.5829867" lon="-8.3930083"><ele>625.5</ele><time>2026-04-16T09:17:06.853Z</time></trkpt><trkpt lat="42.583095" lon="-8.3931333"><ele>625.25</ele><time>2026-04-16T09:17:07.852Z</time></trkpt><trkpt lat="42.5832383" lon="-8.393225"><ele>625.0</ele><time>2026-04-16T09:17:08.852Z</time></trkpt><trkpt lat="42.583405" lon="-8.3933133"><ele>625.0</ele><time>2026-04-16T09:17:09.853Z</time></trkpt><trkpt lat="42.5835867" lon="-8.3933683"><ele>625.0</ele><time>2026-04-16T09:17:10.853Z</time></trkpt><trkpt lat="42.583755" lon="-8.3933783"><ele>625.0</ele><time>2026-04-16T09:17:11.852Z</time></trkpt><trkpt lat="42.5839133" lon="-8.393355"><ele>626.1666666666667</ele><time>2026-04-16T09:17:12.853Z</time></trkpt><trkpt lat="42.5840433" lon="-8.3933317"><ele>627.3333333333334</ele><time>2026-04-16T09:17:13.853Z</time></trkpt><trkpt lat="42.5841217" lon="-8.3933417"><ele>628.5</ele><time>2026-04-16T09:17:14.853Z</time></trkpt><trkpt lat="42.5841783" lon="-8.3933867"><ele>629.6666666666666</ele><time>2026-04-16T09:17:15.853Z</time></trkpt><trkpt lat="42.5842267" lon="-8.3934667"><ele>630.8333333333333</ele><time>2026-04-16T09:17:16.853Z</time></trkpt><trkpt lat="42.5842817" lon="-8.39356"><ele>632.0</ele><time>2026-04-16T09:17:17.852Z</time></trkpt><trkpt lat="42.5843417" lon="-8.393725"><ele>630.6666666666666</ele><time>2026-04-16T09:17:18.853Z</time></trkpt><trkpt lat="42.584435" lon="-8.393915"><ele>629.3333333333334</ele><time>2026-04-16T09:17:19.853Z</time></trkpt><trkpt lat="42.58453" lon="-8.3940683"><ele>628.0</ele><time>2026-04-16T09:17:20.852Z</time></trkpt><trkpt lat="42.5846433" lon="-8.3941733"><ele>628.0</ele><time>2026-04-16T09:17:21.853Z</time></trkpt><trkpt lat="42.5820083" lon="-8.3927167"><ele>627.3333333333334</ele><time>2026-04-16T09:16:51.853Z</time></trkpt><trkpt lat="42.5821133" lon="-8.3925667"><ele>626.6666666666666</ele><time>2026-04-16T09:16:52.853Z</time></trkpt><trkpt lat="42.5822133" lon="-8.3923917"><ele>626.0</ele><time>2026-04-16T09:16:53.852Z</time></trkpt><trkpt lat="42.5823117" lon="-8.39224"><ele>626.0</ele><time>2026-04-16T09:16:54.853Z</time></trkpt><trkpt lat="42.582405" lon="-8.39214"><ele>626.0</ele><time>2026-04-16T09:16:55.853Z</time></trkpt><trkpt lat="42.58249" lon="-8.392095"><ele>626.0</ele><time>2026-04-16T09:16:56.852Z</time></trkpt><trkpt lat="42.5825667" lon="-8.3920683"><ele>626.0</ele><time>2026-04-16T09:16:57.853Z</time></trkpt><trkpt lat="42.5826517" lon="-8.3921367"><ele>626.0</ele><time>2026-04-16T09:16:59.853Z</time></trkpt><trkpt lat="42.582685" lon="-8.3922717"><ele>626.0</ele><time>2026-04-16T09:17:01.852Z</time></trkpt><trkpt lat="42.58271" lon="-8.3923667"><ele>626.0</ele><time>2026-04-16T09:17:02.852Z</time></trkpt><trkpt lat="42.5827533" lon="-8.3924933"><ele>626.0</ele><time>2026-04-16T09:17:03.852Z</time></trkpt><trkpt lat="42.5828267" lon="-8.3926783"><ele>626.0</ele><time>2026-04-16T09:17:04.852Z</time></trkpt><trkpt lat="42.5829033" lon="-8.3928517"><ele>625.75</ele><time>2026-04-16T09:17:05.852Z</time></trkpt><trkpt lat="42.5829867" lon="-8.3930083"><ele>625.5</ele><time>2026-04-16T09:17:06.853Z</time></trkpt><trkpt lat="42.583095" lon="-8.3931333"><ele>625.25</ele><time>2026-04-16T09:17:07.852Z</time></trkpt><trkpt lat="42.5832383" lon="-8.393225"><ele>625.0</ele><time>2026-04-16T09:17:08.852Z</time></trkpt><trkpt lat="42.583405" lon="-8.3933133"><ele>625.0</ele><time>2026-04-16T09:17:09.853Z</time></trkpt><trkpt lat="42.5835867" lon="-8.3933683"><ele>625.0</ele><time>2026-04-16T09:17:10.853Z</time></trkpt><trkpt lat="42.583755" lon="-8.3933783"><ele>625.0</ele><time>2026-04-16T09:17:11.852Z</time></trkpt><trkpt lat="42.5839133" lon="-8.393355"><ele>626.1666666666667</ele><time>2026-04-16T09:17:12.853Z</time></trkpt><trkpt lat="42.5840433" lon="-8.3933317"><ele>627.3333333333334</ele><time>2026-04-16T09:17:13.853Z</time></trkpt><trkpt lat="42.5841217" lon="-8.3933417"><ele>628.5</ele><time>2026-04-16T09:17:14.853Z</time></trkpt><trkpt lat="42.5841783" lon="-8.3933867"><ele>629.6666666666666</ele><time>2026-04-16T09:17:15.853Z</time></trkpt><trkpt lat="42.5842267" lon="-8.3934667"><ele>630.8333333333333</ele><time>2026-04-16T09:17:16.853Z</time></trkpt><trkpt lat="42.5842817" lon="-8.39356"><ele>632.0</ele><time>2026-04-16T09:17:17.852Z</time></trkpt><trkpt lat="42.5843417" lon="-8.393725"><ele>630.6666666666666</ele><time>2026-04-16T09:17:18.853Z</time></trkpt><trkpt lat="42.584435" lon="-8.393915"><ele>629.3333333333334</ele><time>2026-04-16T09:17:19.853Z</time></trkpt><trkpt lat="42.58453" lon="-8.3940683"><ele>628.0</ele><time>2026-04-16T09:17:20.852Z</time></trkpt><trkpt lat="42.5846433" lon="-8.3941733"><ele>628.0</ele><time>2026-04-16T09:17:21.853Z</time></trkpt><trkpt lat="42.58478" lon="-8.3942133"><ele>628.0</ele><time>2026-04-16T09:17:22.852Z</time></trkpt><trkpt lat="42.58494" lon="-8.39421"><ele>628.0</ele><time>2026-04-16T09:17:23.853Z</time></trkpt><trkpt lat="42.5851067" lon="-8.39418"><ele>628.0</ele><time>2026-04-16T09:17:24.853Z</time></trkpt><trkpt lat="42.5852933" lon="-8.3940983"><ele>628.0</ele><time>2026-04-16T09:17:25.853Z</time></trkpt><trkpt lat="42.5854833" lon="-8.3939917"><ele>628.0</ele><time>2026-04-16T09:17:26.853Z</time></trkpt><trkpt lat="42.5856633" lon="-8.3938567"><ele>632.0</ele><time>2026-04-16T09:17:27.853Z</time></trkpt><trkpt lat="42.585825" lon="-8.3937067"><ele>636.0</ele><time>2026-04-16T09:17:28.852Z</time></trkpt><trkpt lat="42.58598" lon="-8.3935667"><ele>640.0</ele><time>2026-04-16T09:17:29.852Z</time></trkpt><trkpt lat="42.5861417" lon="-8.393455"><ele>637.3333333333334</ele><time>2026-04-16T09:17:30.853Z</time></trkpt><trkpt lat="42.58632" lon="-8.3933733"><ele>634.6666666666666</ele><time>2026-04-16T09:17:31.852Z</time></trkpt><trkpt lat="42.5864983" lon="-8.39329"><ele>632.0</ele><time>2026-04-16T09:17:32.852Z</time></trkpt><trkpt lat="42.586675" lon="-8.3931817"><ele>632.0</ele><time>2026-04-16T09:17:33.852Z</time></trkpt><trkpt lat="42.586855" lon="-8.3930383"><ele>632.0</ele><time>2026-04-16T09:17:34.852Z</time></trkpt><trkpt lat="42.587045" lon="-8.3928683"><ele>632.0</ele><time>2026-04-16T09:17:35.853Z</time></trkpt><trkpt lat="42.587235" lon="-8.3926867"><ele>634.0</ele><time>2026-04-16T09:17:36.852Z</time></trkpt><trkpt lat="42.5874133" lon="-8.3925167"><ele>636.0</ele><time>2026-04-16T09:17:37.853Z</time></trkpt><trkpt lat="42.58755" lon="-8.3923533"><ele>638.0</ele><time>2026-04-16T09:17:38.852Z</time></trkpt><trkpt lat="42.587655" lon="-8.3921883"><ele>639.75</ele><time>2026-04-16T09:17:39.853Z</time></trkpt><trkpt lat="42.5877133" lon="-8.3920233"><ele>641.5</ele><time>2026-04-16T09:17:40.852Z</time></trkpt><trkpt lat="42.5877517" lon="-8.391835"><ele>643.25</ele><time>2026-04-16T09:17:41.853Z</time></trkpt><trkpt lat="42.587765" lon="-8.39164"><ele>645.0</ele><time>2026-04-16T09:17:42.853Z</time></trkpt><trkpt lat="42.587775" lon="-8.3914483"><ele>646.0</ele><time>2026-04-16T09:17:43.852Z</time></trkpt><trkpt lat="42.587765" lon="-8.3912767"><ele>647.0</ele><time>2026-04-16T09:17:44.853Z</time></trkpt><trkpt lat="42.58775" lon="-8.39116"><ele>648.0</ele><time>2026-04-16T09:17:45.853Z</time></trkpt><trkpt lat="42.587755" lon="-8.3910683"><ele>649.0</ele><time>2026-04-16T09:17:46.852Z</time></trkpt><trkpt lat="42.5878317" lon="-8.3909617"><ele>650.0</ele><time>2026-04-16T09:17:48.852Z</time></trkpt><trkpt lat="42.5879083" lon="-8.3909417"><ele>647.25</ele><time>2026-04-16T09:17:49.853Z</time></trkpt><trkpt lat="42.5880167" lon="-8.3909283"><ele>644.5</ele><time>2026-04-16T09:17:50.852Z</time></trkpt><trkpt lat="42.58816" lon="-8.390925"><ele>641.75</ele><time>2026-04-16T09:17:51.853Z</time></trkpt><trkpt lat="42.58834" lon="-8.3909283"><ele>639.0</ele><time>2026-04-16T09:17:52.853Z</time></trkpt><trkpt lat="42.5885567" lon="-8.3909633"><ele>642.5</ele><time>2026-04-16T09:17:53.853Z</time></trkpt><trkpt lat="42.58879" lon="-8.3910217"><ele>646.0</ele><time>2026-04-16T09:17:54.852Z</time></trkpt><trkpt lat="42.5890117" lon="-8.3910617"><ele>646.0</ele><time>2026-04-16T09:17:55.852Z</time></trkpt><trkpt lat="42.5891933" lon="-8.3911183"><ele>646.0</ele><time>2026-04-16T09:17:56.852Z</time></trkpt><trkpt lat="42.5893533" lon="-8.3912033"><ele>646.0</ele><time>2026-04-16T09:17:57.853Z</time></trkpt><trkpt lat="42.5894983" lon="-8.3913283"><ele>645.0</ele><time>2026-04-16T09:17:58.853Z</time></trkpt><trkpt lat="42.589635" lon="-8.3914867"><ele>644.0</ele><time>2026-04-16T09:17:59.852Z</time></trkpt><trkpt lat="42.5897733" lon="-8.391635"><ele>643.0</ele><time>2026-04-16T09:18:00.853Z</time></trkpt><trkpt lat="42.5899033" lon="-8.391745"><ele>643.0</ele><time>2026-04-16T09:18:01.853Z</time></trkpt><trkpt lat="42.5900333" lon="-8.3917967"><ele>643.0</ele><time>2026-04-16T09:18:02.852Z</time></trkpt><trkpt lat="42.5901717" lon="-8.391815"><ele>643.0</ele><time>2026-04-16T09:18:03.853Z</time></trkpt><trkpt lat="42.590315" lon="-8.3917867"><ele>643.0</ele><time>2026-04-16T09:18:04.853Z</time></trkpt><trkpt lat="42.5904633" lon="-8.3917133"><ele>642.3333333333334</ele><time>2026-04-16T09:18:05.853Z</time></trkpt><trkpt lat="42.5906083" lon="-8.3916067"><ele>641.6666666666666</ele><time>2026-04-16T09:18:06.853Z</time></trkpt><trkpt lat="42.5907517" lon="-8.3914533"><ele>641.0</ele><time>2026-04-16T09:18:07.852Z</time></trkpt><trkpt lat="42.5909017" lon="-8.3912817"><ele>642.6666666666666</ele><time>2026-04-16T09:18:08.853Z</time></trkpt><trkpt lat="42.59104" lon="-8.3911"><ele>644.3333333333334</ele><time>2026-04-16T09:18:09.852Z</time></trkpt><trkpt lat="42.591145" lon="-8.3909283"><ele>646.0</ele><time>2026-04-16T09:18:10.853Z</time></trkpt><trkpt lat="42.5912133" lon="-8.3907517"><ele>646.0</ele><time>2026-04-16T09:18:11.852Z</time></trkpt><trkpt lat="42.5912467" lon="-8.3905583"><ele>646.0</ele><time>2026-04-16T09:18:12.853Z</time></trkpt><trkpt lat="42.5912483" lon="-8.390365"><ele>646.0</ele><time>2026-04-16T09:18:13.853Z</time></trkpt><trkpt lat="42.5912" lon="-8.3902183"><ele>646.0</ele><time>2026-04-16T09:18:14.852Z</time></trkpt><trkpt lat="42.5911217" lon="-8.390055"><ele>649.25</ele><time>2026-04-16T09:18:15.852Z</time></trkpt><trkpt lat="42.5910433" lon="-8.3898833"><ele>652.5</ele><time>2026-04-16T09:18:16.852Z</time></trkpt><trkpt lat="42.5910033" lon="-8.38972"><ele>655.75</ele><time>2026-04-16T09:18:17.853Z</time></trkpt><trkpt lat="42.59101" lon="-8.38957"><ele>659.0</ele><time>2026-04-16T09:18:18.853Z</time></trkpt><trkpt lat="42.5910483" lon="-8.389415"><ele>660.0</ele><time>2026-04-16T09:18:19.852Z</time></trkpt><trkpt lat="42.591085" lon="-8.38923"><ele>661.0</ele><time>2026-04-16T09:18:20.852Z</time></trkpt><trkpt lat="42.5911033" lon="-8.3890017"><ele>662.0</ele><time>2026-04-16T09:18:21.853Z</time></trkpt><trkpt lat="42.59112" lon="-8.3887467"><ele>662.5</ele><time>2026-04-16T09:18:22.853Z</time></trkpt><trkpt lat="42.5911417" lon="-8.3885217"><ele>663.0</ele><time>2026-04-16T09:18:23.853Z</time></trkpt><trkpt lat="42.5911667" lon="-8.3883617"><ele>663.5</ele><time>2026-04-16T09:18:24.852Z</time></trkpt><trkpt lat="42.5911983" lon="-8.3882683"><ele>664.0</ele><time>2026-04-16T09:18:25.852Z</time></trkpt><trkpt lat="42.5912667" lon="-8.3881917"><ele>664.0</ele><time>2026-04-16T09:18:27.853Z</time></trkpt><trkpt lat="42.591415" lon="-8.388265"><ele>664.0</ele><time>2026-04-16T09:18:29.852Z</time></trkpt><trkpt lat="42.5915283" lon="-8.3883583"><ele>664.0</ele><time>2026-04-16T09:18:30.852Z</time></trkpt><trkpt lat="42.591685" lon="-8.3884783"><ele>664.0</ele><time>2026-04-16T09:18:31.852Z</time></trkpt><trkpt lat="42.5918683" lon="-8.3886133"><ele>664.0</ele><time>2026-04-16T09:18:32.853Z</time></trkpt><trkpt lat="42.59206" lon="-8.3887583"><ele>664.0</ele><time>2026-04-16T09:18:33.852Z</time></trkpt><trkpt lat="42.592255" lon="-8.3889383"><ele>663.0</ele><time>2026-04-16T09:18:34.852Z</time></trkpt><trkpt lat="42.5924483" lon="-8.3891317"><ele>662.0</ele><time>2026-04-16T09:18:35.853Z</time></trkpt><trkpt lat="42.5926283" lon="-8.38932"><ele>662.0</ele><time>2026-04-16T09:18:36.852Z</time></trkpt><trkpt lat="42.5927867" lon="-8.3895117"><ele>662.0</ele><time>2026-04-16T09:18:37.852Z</time></trkpt><trkpt lat="42.5929267" lon="-8.389695"><ele>662.0</ele><time>2026-04-16T09:18:38.852Z</time></trkpt><trkpt lat="42.5930483" lon="-8.3898733"><ele>662.75</ele><time>2026-04-16T09:18:39.853Z</time></trkpt><trkpt lat="42.5931533" lon="-8.3900067"><ele>663.5</ele><time>2026-04-16T09:18:40.853Z</time></trkpt><trkpt lat="42.593265" lon="-8.3900967"><ele>664.25</ele><time>2026-04-16T09:18:41.852Z</time></trkpt><trkpt lat="42.59341" lon="-8.3901333"><ele>665.0</ele><time>2026-04-16T09:18:42.852Z</time></trkpt><trkpt lat="42.5935783" lon="-8.390155"><ele>667.3333333333333</ele><time>2026-04-16T09:18:43.853Z</time></trkpt><trkpt lat="42.5937433" lon="-8.39018"><ele>669.6666666666666</ele><time>2026-04-16T09:18:44.852Z</time></trkpt><trkpt lat="42.5938867" lon="-8.39026"><ele>672.0</ele><time>2026-04-16T09:18:45.853Z</time></trkpt><trkpt lat="42.5939917" lon="-8.3903867"><ele>671.6666666666666</ele><time>2026-04-16T09:18:46.852Z</time></trkpt><trkpt lat="42.594075" lon="-8.3905417"><ele>671.3333333333333</ele><time>2026-04-16T09:18:47.853Z</time></trkpt><trkpt lat="42.594165" lon="-8.3907483"><ele>671.0</ele><time>2026-04-16T09:18:48.852Z</time></trkpt><trkpt lat="42.5942567" lon="-8.3909683"><ele>671.0</ele><time>2026-04-16T09:18:49.853Z</time></trkpt><trkpt lat="42.5943367" lon="-8.391195"><ele>671.0</ele><time>2026-04-16T09:18:50.853Z</time></trkpt><trkpt lat="42.5943983" lon="-8.3914"><ele>671.0</ele><time>2026-04-16T09:18:51.852Z</time></trkpt><trkpt lat="42.59443" lon="-8.3915883"><ele>670.75</ele><time>2026-04-16T09:18:52.852Z</time></trkpt><trkpt lat="42.5944517" lon="-8.3917567"><ele>670.5</ele><time>2026-04-16T09:18:53.852Z</time></trkpt><trkpt lat="42.5944667" lon="-8.39195"><ele>670.25</ele><time>2026-04-16T09:18:54.852Z</time></trkpt><trkpt lat="42.5944967" lon="-8.3921767"><ele>670.0</ele><time>2026-04-16T09:18:55.852Z</time></trkpt><trkpt lat="42.5945433" lon="-8.3923917"><ele>666.0</ele><time>2026-04-16T09:18:56.853Z</time></trkpt><trkpt lat="42.5945883" lon="-8.3925983"><ele>662.0</ele><time>2026-04-16T09:18:57.853Z</time></trkpt><trkpt lat="42.59101" lon="-8.38957"><ele>662.0</ele><time>2026-04-16T09:18:18.853Z</time></trkpt><trkpt lat="42.5910483" lon="-8.389415"><ele>662.0</ele><time>2026-04-16T09:18:19.852Z</time></trkpt><trkpt lat="42.591085" lon="-8.38923"><ele>662.0</ele><time>2026-04-16T09:18:20.852Z</time></trkpt><trkpt lat="42.5911033" lon="-8.3890017"><ele>662.0</ele><time>2026-04-16T09:18:21.853Z</time></trkpt><trkpt lat="42.59112" lon="-8.3887467"><ele>662.5</ele><time>2026-04-16T09:18:22.853Z</time></trkpt><trkpt lat="42.5911417" lon="-8.3885217"><ele>663.0</ele><time>2026-04-16T09:18:23.853Z</time></trkpt><trkpt lat="42.5911667" lon="-8.3883617"><ele>663.5</ele><time>2026-04-16T09:18:24.852Z</time></trkpt><trkpt lat="42.5911983" lon="-8.3882683"><ele>664.0</ele><time>2026-04-16T09:18:25.852Z</time></trkpt><trkpt lat="42.5912667" lon="-8.3881917"><ele>664.0</ele><time>2026-04-16T09:18:27.853Z</time></trkpt><trkpt lat="42.591415" lon="-8.388265"><ele>664.0</ele><time>2026-04-16T09:18:29.852Z</time></trkpt><trkpt lat="42.5915283" lon="-8.3883583"><ele>664.0</ele><time>2026-04-16T09:18:30.852Z</time></trkpt><trkpt lat="42.591685" lon="-8.3884783"><ele>664.0</ele><time>2026-04-16T09:18:31.852Z</time></trkpt><trkpt lat="42.5918683" lon="-8.3886133"><ele>664.0</ele><time>2026-04-16T09:18:32.853Z</time></trkpt><trkpt lat="42.59206" lon="-8.3887583"><ele>664.0</ele><time>2026-04-16T09:18:33.852Z</time></trkpt><trkpt lat="42.592255" lon="-8.3889383"><ele>663.0</ele><time>2026-04-16T09:18:34.852Z</time></trkpt><trkpt lat="42.5924483" lon="-8.3891317"><ele>662.0</ele><time>2026-04-16T09:18:35.853Z</time></trkpt><trkpt lat="42.5926283" lon="-8.38932"><ele>662.0</ele><time>2026-04-16T09:18:36.852Z</time></trkpt><trkpt lat="42.5927867" lon="-8.3895117"><ele>662.0</ele><time>2026-04-16T09:18:37.852Z</time></trkpt><trkpt lat="42.5929267" lon="-8.389695"><ele>662.0</ele><time>2026-04-16T09:18:38.852Z</time></trkpt><trkpt lat="42.5930483" lon="-8.3898733"><ele>662.75</ele><time>2026-04-16T09:18:39.853Z</time></trkpt><trkpt lat="42.5931533" lon="-8.3900067"><ele>663.5</ele><time>2026-04-16T09:18:40.853Z</time></trkpt><trkpt lat="42.593265" lon="-8.3900967"><ele>664.25</ele><time>2026-04-16T09:18:41.852Z</time></trkpt><trkpt lat="42.59341" lon="-8.3901333"><ele>665.0</ele><time>2026-04-16T09:18:42.852Z</time></trkpt><trkpt lat="42.5935783" lon="-8.390155"><ele>667.3333333333333</ele><time>2026-04-16T09:18:43.853Z</time></trkpt><trkpt lat="42.5937433" lon="-8.39018"><ele>669.6666666666666</ele><time>2026-04-16T09:18:44.852Z</time></trkpt><trkpt lat="42.5938867" lon="-8.39026"><ele>672.0</ele><time>2026-04-16T09:18:45.853Z</time></trkpt><trkpt lat="42.5939917" lon="-8.3903867"><ele>671.6666666666666</ele><time>2026-04-16T09:18:46.852Z</time></trkpt><trkpt lat="42.594075" lon="-8.3905417"><ele>671.3333333333333</ele><time>2026-04-16T09:18:47.853Z</time></trkpt><trkpt lat="42.594165" lon="-8.3907483"><ele>671.0</ele><time>2026-04-16T09:18:48.852Z</time></trkpt><trkpt lat="42.5942567" lon="-8.3909683"><ele>671.0</ele><time>2026-04-16T09:18:49.853Z</time></trkpt><trkpt lat="42.5943367" lon="-8.391195"><ele>671.0</ele><time>2026-04-16T09:18:50.853Z</time></trkpt><trkpt lat="42.5943983" lon="-8.3914"><ele>671.0</ele><time>2026-04-16T09:18:51.852Z</time></trkpt><trkpt lat="42.59443" lon="-8.3915883"><ele>670.75</ele><time>2026-04-16T09:18:52.852Z</time></trkpt><trkpt lat="42.5944517" lon="-8.3917567"><ele>670.5</ele><time>2026-04-16T09:18:53.852Z</time></trkpt><trkpt lat="42.5944667" lon="-8.39195"><ele>670.25</ele><time>2026-04-16T09:18:54.852Z</time></trkpt><trkpt lat="42.5944967" lon="-8.3921767"><ele>670.0</ele><time>2026-04-16T09:18:55.852Z</time></trkpt><trkpt lat="42.5945433" lon="-8.3923917"><ele>672.5</ele><time>2026-04-16T09:18:56.853Z</time></trkpt><trkpt lat="42.5945883" lon="-8.3925983"><ele>675.0</ele><time>2026-04-16T09:18:57.853Z</time></trkpt><trkpt lat="42.5946283" lon="-8.392775"><ele>677.5</ele><time>2026-04-16T09:18:58.852Z</time></trkpt><trkpt lat="42.59466" lon="-8.3929317"><ele>680.0</ele><time>2026-04-16T09:18:59.852Z</time></trkpt><trkpt lat="42.5946633" lon="-8.39308"><ele>680.3333333333333</ele><time>2026-04-16T09:19:00.852Z</time></trkpt><trkpt lat="42.594635" lon="-8.3931983"><ele>680.6666666666666</ele><time>2026-04-16T09:19:01.853Z</time></trkpt><trkpt lat="42.5945833" lon="-8.3932883"><ele>681.0</ele><time>2026-04-16T09:19:02.852Z</time></trkpt><trkpt lat="42.5945083" lon="-8.3933467"><ele>681.3333333333334</ele><time>2026-04-16T09:19:03.852Z</time></trkpt><trkpt lat="42.594435" lon="-8.3933667"><ele>681.6666666666667</ele><time>2026-04-16T09:19:04.852Z</time></trkpt><trkpt lat="42.594365" lon="-8.3933883"><ele>682.0</ele><time>2026-04-16T09:19:05.852Z</time></trkpt><trkpt lat="42.59428" lon="-8.3934"><ele>676.0</ele><time>2026-04-16T09:19:06.852Z</time></trkpt><trkpt lat="42.5941517" lon="-8.3934117"><ele>670.0</ele><time>2026-04-16T09:19:07.852Z</time></trkpt><trkpt lat="42.5939917" lon="-8.39344"><ele>664.0</ele><time>2026-04-16T09:19:08.853Z</time></trkpt><trkpt lat="42.5938183" lon="-8.3935033"><ele>659.3333333333334</ele><time>2026-04-16T09:19:09.852Z</time></trkpt><trkpt lat="42.5936283" lon="-8.3936"><ele>654.6666666666666</ele><time>2026-04-16T09:19:10.853Z</time></trkpt><trkpt lat="42.5934467" lon="-8.3937"><ele>650.0</ele><time>2026-04-16T09:19:11.853Z</time></trkpt><trkpt lat="42.5932867" lon="-8.3938067"><ele>654.6666666666666</ele><time>2026-04-16T09:19:12.853Z</time></trkpt><trkpt lat="42.593145" lon="-8.3939433"><ele>659.3333333333334</ele><time>2026-04-16T09:19:13.852Z</time></trkpt><trkpt lat="42.5930333" lon="-8.3941033"><ele>664.0</ele><time>2026-04-16T09:19:14.852Z</time></trkpt><trkpt lat="42.5929517" lon="-8.3942683"><ele>664.0</ele><time>2026-04-16T09:19:15.853Z</time></trkpt><trkpt lat="42.5929217" lon="-8.39442"><ele>664.0</ele><time>2026-04-16T09:19:16.853Z</time></trkpt><trkpt lat="42.5929233" lon="-8.3945983"><ele>664.0</ele><time>2026-04-16T09:19:17.852Z</time></trkpt><trkpt lat="42.5929483" lon="-8.39478"><ele>664.0</ele><time>2026-04-16T09:19:18.852Z</time></trkpt><trkpt lat="42.59295" lon="-8.39498"><ele>663.75</ele><time>2026-04-16T09:19:19.852Z</time></trkpt><trkpt lat="42.5929367" lon="-8.39518"><ele>663.5</ele><time>2026-04-16T09:19:20.852Z</time></trkpt><trkpt lat="42.5929067" lon="-8.3953583"><ele>663.25</ele><time>2026-04-16T09:19:21.853Z</time></trkpt><trkpt lat="42.59287" lon="-8.39549"><ele>663.0</ele><time>2026-04-16T09:19:22.852Z</time></trkpt><trkpt lat="42.5928283" lon="-8.3955633"><ele>659.2</ele><time>2026-04-16T09:19:23.853Z</time></trkpt><trkpt lat="42.5927617" lon="-8.3955833"><ele>655.4</ele><time>2026-04-16T09:19:25.853Z</time></trkpt><trkpt lat="42.59265" lon="-8.39553"><ele>651.6</ele><time>2026-04-16T09:19:27.853Z</time></trkpt><trkpt lat="42.5925517" lon="-8.3954967"><ele>647.8000000000001</ele><time>2026-04-16T09:19:28.853Z</time></trkpt><trkpt lat="42.592425" lon="-8.3954733"><ele>644.0</ele><time>2026-04-16T09:19:29.852Z</time></trkpt><trkpt lat="42.59227" lon="-8.3954333"><ele>644.0</ele><time>2026-04-16T09:19:30.853Z</time></trkpt><trkpt lat="42.5921167" lon="-8.3953983"><ele>644.0</ele><time>2026-04-16T09:19:31.852Z</time></trkpt><trkpt lat="42.59196" lon="-8.3953683"><ele>644.0</ele><time>2026-04-16T09:19:32.853Z</time></trkpt><trkpt lat="42.5918183" lon="-8.395365"><ele>637.6666666666666</ele><time>2026-04-16T09:19:33.853Z</time></trkpt><trkpt lat="42.591675" lon="-8.3953767"><ele>631.3333333333334</ele><time>2026-04-16T09:19:34.852Z</time></trkpt><trkpt lat="42.59152" lon="-8.3954167"><ele>625.0</ele><time>2026-04-16T09:19:35.852Z</time></trkpt><trkpt lat="42.5913667" lon="-8.3954867"><ele>625.3333333333334</ele><time>2026-04-16T09:19:36.852Z</time></trkpt><trkpt lat="42.5912133" lon="-8.3955717"><ele>625.6666666666666</ele><time>2026-04-16T09:19:37.852Z</time></trkpt><trkpt lat="42.5910617" lon="-8.3956717"><ele>626.0</ele><time>2026-04-16T09:19:38.852Z</time></trkpt><trkpt lat="42.5909133" lon="-8.3957617"><ele>620.6666666666666</ele><time>2026-04-16T09:19:39.853Z</time></trkpt><trkpt lat="42.5907583" lon="-8.3958433"><ele>615.3333333333334</ele><time>2026-04-16T09:19:40.852Z</time></trkpt><trkpt lat="42.5905833" lon="-8.39592"><ele>610.0</ele><time>2026-04-16T09:19:41.853Z</time></trkpt><trkpt lat="42.5904117" lon="-8.39597"><ele>605.0</ele><time>2026-04-16T09:19:42.853Z</time></trkpt><trkpt lat="42.5902517" lon="-8.3960017"><ele>600.0</ele><time>2026-04-16T09:19:43.852Z</time></trkpt><trkpt lat="42.5900967" lon="-8.396015"><ele>595.0</ele><time>2026-04-16T09:19:44.853Z</time></trkpt><trkpt lat="42.5899583" lon="-8.396035"><ele>595.0</ele><time>2026-04-16T09:19:45.852Z</time></trkpt><trkpt lat="42.5898283" lon="-8.3960667"><ele>595.0</ele><time>2026-04-16T09:19:46.853Z</time></trkpt><trkpt lat="42.589715" lon="-8.3961017"><ele>595.0</ele><time>2026-04-16T09:19:47.852Z</time></trkpt><trkpt lat="42.5896383" lon="-8.3961233"><ele>595.0</ele><time>2026-04-16T09:19:48.853Z</time></trkpt><trkpt lat="42.589575" lon="-8.3961333"><ele>595.0</ele><time>2026-04-16T09:19:50.852Z</time></trkpt><trkpt lat="42.58963" lon="-8.39602"><ele>595.0</ele><time>2026-04-16T09:19:53.853Z</time></trkpt><trkpt lat="42.5896883" lon="-8.395945"><ele>595.0</ele><time>2026-04-16T09:19:54.853Z</time></trkpt><trkpt lat="42.589775" lon="-8.395845"><ele>595.0</ele><time>2026-04-16T09:19:55.853Z</time></trkpt><trkpt lat="42.5898583" lon="-8.3957467"><ele>595.0</ele><time>2026-04-16T09:19:56.853Z</time></trkpt><trkpt lat="42.5899467" lon="-8.3956317"><ele>595.0</ele><time>2026-04-16T09:19:57.852Z</time></trkpt><trkpt lat="42.59002" lon="-8.3955233"><ele>594.6</ele><time>2026-04-16T09:19:58.853Z</time></trkpt><trkpt lat="42.5900883" lon="-8.3954083"><ele>594.2</ele><time>2026-04-16T09:19:59.852Z</time></trkpt><trkpt lat="42.5901317" lon="-8.3952783"><ele>593.8</ele><time>2026-04-16T09:20:00.852Z</time></trkpt><trkpt lat="42.5901683" lon="-8.3951283"><ele>593.4</ele><time>2026-04-16T09:20:01.853Z</time></trkpt><trkpt lat="42.5902083" lon="-8.3950083"><ele>593.0</ele><time>2026-04-16T09:20:02.853Z</time></trkpt><trkpt lat="42.5902417" lon="-8.394905"><ele>593.0</ele><time>2026-04-16T09:20:03.853Z</time></trkpt><trkpt lat="42.5902783" lon="-8.3948117"><ele>593.0</ele><time>2026-04-16T09:20:04.853Z</time></trkpt><trkpt lat="42.5903067" lon="-8.3947167"><ele>593.0</ele><time>2026-04-16T09:20:05.853Z</time></trkpt><trkpt lat="42.590325" lon="-8.3946233"><ele>593.0</ele><time>2026-04-16T09:20:06.852Z</time></trkpt><trkpt lat="42.59032" lon="-8.3944967"><ele>593.0</ele><time>2026-04-16T09:20:08.852Z</time></trkpt><trkpt lat="42.5902183" lon="-8.3945033"><ele>593.0</ele><time>2026-04-16T09:20:10.853Z</time></trkpt><trkpt lat="42.5901183" lon="-8.39454"><ele>594.4</ele><time>2026-04-16T09:20:11.853Z</time></trkpt><trkpt lat="42.5900067" lon="-8.3945717"><ele>595.8</ele><time>2026-04-16T09:20:12.852Z</time></trkpt><trkpt lat="42.589915" lon="-8.39458"><ele>597.2</ele><time>2026-04-16T09:20:13.853Z</time></trkpt><trkpt lat="42.5898217" lon="-8.3945783"><ele>598.6</ele><time>2026-04-16T09:20:14.853Z</time></trkpt><trkpt lat="42.589745" lon="-8.3945817"><ele>600.0</ele><time>2026-04-16T09:20:15.852Z</time></trkpt><trkpt lat="42.589655" lon="-8.394605"><ele>600.0</ele><time>2026-04-16T09:20:16.852Z</time></trkpt><trkpt lat="42.5895867" lon="-8.3946533"><ele>600.0</ele><time>2026-04-16T09:20:17.852Z</time></trkpt><trkpt lat="42.589515" lon="-8.39469"><ele>600.0</ele><time>2026-04-16T09:20:18.852Z</time></trkpt><trkpt lat="42.589415" lon="-8.3946867"><ele>600.0</ele><time>2026-04-16T09:20:20.852Z</time></trkpt><trkpt lat="42.5893767" lon="-8.3945667"><ele>600.0</ele><time>2026-04-16T09:20:23.852Z</time></trkpt><trkpt lat="42.5893967" lon="-8.3944633"><ele>600.0</ele><time>2026-04-16T09:20:24.852Z</time></trkpt><trkpt lat="42.5894217" lon="-8.3943267"><ele>598.5</ele><time>2026-04-16T09:20:25.853Z</time></trkpt><trkpt lat="42.589425" lon="-8.39418"><ele>597.0</ele><time>2026-04-16T09:20:26.853Z</time></trkpt><trkpt lat="42.5896883" lon="-8.395945"><ele>596.5</ele><time>2026-04-16T09:19:54.853Z</time></trkpt><trkpt lat="42.589775" lon="-8.395845"><ele>596.0</ele><time>2026-04-16T09:19:55.853Z</time></trkpt><trkpt lat="42.5898583" lon="-8.3957467"><ele>595.5</ele><time>2026-04-16T09:19:56.853Z</time></trkpt><trkpt lat="42.5899467" lon="-8.3956317"><ele>595.0</ele><time>2026-04-16T09:19:57.852Z</time></trkpt><trkpt lat="42.59002" lon="-8.3955233"><ele>594.6</ele><time>2026-04-16T09:19:58.853Z</time></trkpt><trkpt lat="42.5900883" lon="-8.3954083"><ele>594.2</ele><time>2026-04-16T09:19:59.852Z</time></trkpt><trkpt lat="42.5901317" lon="-8.3952783"><ele>593.8</ele><time>2026-04-16T09:20:00.852Z</time></trkpt><trkpt lat="42.5901683" lon="-8.3951283"><ele>593.4</ele><time>2026-04-16T09:20:01.853Z</time></trkpt><trkpt lat="42.5902083" lon="-8.3950083"><ele>593.0</ele><time>2026-04-16T09:20:02.853Z</time></trkpt><trkpt lat="42.5902417" lon="-8.394905"><ele>593.0</ele><time>2026-04-16T09:20:03.853Z</time></trkpt><trkpt lat="42.5902783" lon="-8.3948117"><ele>593.0</ele><time>2026-04-16T09:20:04.853Z</time></trkpt><trkpt lat="42.5903067" lon="-8.3947167"><ele>593.0</ele><time>2026-04-16T09:20:05.853Z</time></trkpt><trkpt lat="42.590325" lon="-8.3946233"><ele>593.0</ele><time>2026-04-16T09:20:06.852Z</time></trkpt><trkpt lat="42.59032" lon="-8.3944967"><ele>593.0</ele><time>2026-04-16T09:20:08.852Z</time></trkpt><trkpt lat="42.5902183" lon="-8.3945033"><ele>593.0</ele><time>2026-04-16T09:20:10.853Z</time></trkpt><trkpt lat="42.5901183" lon="-8.39454"><ele>594.4</ele><time>2026-04-16T09:20:11.853Z</time></trkpt><trkpt lat="42.5900067" lon="-8.3945717"><ele>595.8</ele><time>2026-04-16T09:20:12.852Z</time></trkpt><trkpt lat="42.589915" lon="-8.39458"><ele>597.2</ele><time>2026-04-16T09:20:13.853Z</time></trkpt><trkpt lat="42.5898217" lon="-8.3945783"><ele>598.6</ele><time>2026-04-16T09:20:14.853Z</time></trkpt><trkpt lat="42.589745" lon="-8.3945817"><ele>600.0</ele><time>2026-04-16T09:20:15.852Z</time></trkpt><trkpt lat="42.589655" lon="-8.394605"><ele>600.0</ele><time>2026-04-16T09:20:16.852Z</time></trkpt><trkpt lat="42.5895867" lon="-8.3946533"><ele>600.0</ele><time>2026-04-16T09:20:17.852Z</time></trkpt><trkpt lat="42.589515" lon="-8.39469"><ele>600.0</ele><time>2026-04-16T09:20:18.852Z</time></trkpt><trkpt lat="42.589415" lon="-8.3946867"><ele>600.0</ele><time>2026-04-16T09:20:20.852Z</time></trkpt><trkpt lat="42.5893767" lon="-8.3945667"><ele>600.0</ele><time>2026-04-16T09:20:23.852Z</time></trkpt><trkpt lat="42.5893967" lon="-8.3944633"><ele>600.0</ele><time>2026-04-16T09:20:24.852Z</time></trkpt><trkpt lat="42.5894217" lon="-8.3943267"><ele>599.4</ele><time>2026-04-16T09:20:25.853Z</time></trkpt><trkpt lat="42.589425" lon="-8.39418"><ele>598.8</ele><time>2026-04-16T09:20:26.853Z</time></trkpt><trkpt lat="42.5894" lon="-8.3940483"><ele>598.2</ele><time>2026-04-16T09:20:27.853Z</time></trkpt><trkpt lat="42.589355" lon="-8.3939283"><ele>597.6</ele><time>2026-04-16T09:20:28.853Z</time></trkpt><trkpt lat="42.5893067" lon="-8.3938383"><ele>597.0</ele><time>2026-04-16T09:20:29.853Z</time></trkpt><trkpt lat="42.58927" lon="-8.3937583"><ele>597.0</ele><time>2026-04-16T09:20:30.853Z</time></trkpt><trkpt lat="42.589215" lon="-8.3936767"><ele>597.0</ele><time>2026-04-16T09:20:32.853Z</time></trkpt><trkpt lat="42.5892133" lon="-8.3938017"><ele>597.0</ele><time>2026-04-16T09:20:35.853Z</time></trkpt><trkpt lat="42.5892167" lon="-8.3938917"><ele>597.0</ele><time>2026-04-16T09:20:36.853Z</time></trkpt><trkpt lat="42.5892217" lon="-8.3939967"><ele>597.0</ele><time>2026-04-16T09:20:37.853Z</time></trkpt><trkpt lat="42.589235" lon="-8.3940983"><ele>597.0</ele><time>2026-04-16T09:20:38.852Z</time></trkpt><trkpt lat="42.5892017" lon="-8.394205"><ele>597.0</ele><time>2026-04-16T09:20:39.852Z</time></trkpt><trkpt lat="42.5891733" lon="-8.394295"><ele>597.0</ele><time>2026-04-16T09:20:40.852Z</time></trkpt><trkpt lat="42.5891283" lon="-8.394365"><ele>597.0</ele><time>2026-04-16T09:20:41.853Z</time></trkpt><trkpt lat="42.5890633" lon="-8.39442"><ele>597.0</ele><time>2026-04-16T09:20:42.853Z</time></trkpt><trkpt lat="42.5889817" lon="-8.3944617"><ele>597.0</ele><time>2026-04-16T09:20:43.852Z</time></trkpt><trkpt lat="42.5888517" lon="-8.3945"><ele>597.0</ele><time>2026-04-16T09:20:44.853Z</time></trkpt><trkpt lat="42.5887283" lon="-8.3945283"><ele>595.5</ele><time>2026-04-16T09:20:45.852Z</time></trkpt><trkpt lat="42.5885783" lon="-8.3945983"><ele>594.0</ele><time>2026-04-16T09:20:46.853Z</time></trkpt><trkpt lat="42.5884717" lon="-8.3946733"><ele>592.5</ele><time>2026-04-16T09:20:47.853Z</time></trkpt><trkpt lat="42.5883833" lon="-8.3947433"><ele>591.0</ele><time>2026-04-16T09:20:48.852Z</time></trkpt><trkpt lat="42.5883083" lon="-8.3948017"><ele>591.0</ele><time>2026-04-16T09:20:49.852Z</time></trkpt><trkpt lat="42.588255" lon="-8.39485"><ele>591.0</ele><time>2026-04-16T09:20:50.852Z</time></trkpt><trkpt lat="42.5881517" lon="-8.394915"><ele>591.0</ele><time>2026-04-16T09:20:52.852Z</time></trkpt><trkpt lat="42.5880667" lon="-8.395"><ele>591.0</ele><time>2026-04-16T09:20:54.852Z</time></trkpt><trkpt lat="42.5879783" lon="-8.3950933"><ele>591.0</ele><time>2026-04-16T09:20:56.853Z</time></trkpt><trkpt lat="42.587925" lon="-8.3951433"><ele>591.0</ele><time>2026-04-16T09:20:57.853Z</time></trkpt><trkpt lat="42.5878617" lon="-8.395185"><ele>591.0</ele><time>2026-04-16T09:20:58.853Z</time></trkpt><trkpt lat="42.5877833" lon="-8.39523"><ele>591.0</ele><time>2026-04-16T09:20:59.853Z</time></trkpt><trkpt lat="42.5876783" lon="-8.39526"><ele>591.0</ele><time>2026-04-16T09:21:00.852Z</time></trkpt><trkpt lat="42.5875617" lon="-8.395275"><ele>591.0</ele><time>2026-04-16T09:21:01.852Z</time></trkpt><trkpt lat="42.5874483" lon="-8.3952783"><ele>593.25</ele><time>2026-04-16T09:21:02.853Z</time></trkpt><trkpt lat="42.5873533" lon="-8.39526"><ele>595.5</ele><time>2026-04-16T09:21:03.852Z</time></trkpt><trkpt lat="42.5872467" lon="-8.3952267"><ele>597.75</ele><time>2026-04-16T09:21:04.852Z</time></trkpt><trkpt lat="42.5871367" lon="-8.395195"><ele>600.0</ele><time>2026-04-16T09:21:05.853Z</time></trkpt><trkpt lat="42.587005" lon="-8.395165"><ele>600.0</ele><time>2026-04-16T09:21:06.852Z</time></trkpt><trkpt lat="42.5868767" lon="-8.395145"><ele>600.0</ele><time>2026-04-16T09:21:07.853Z</time></trkpt><trkpt lat="42.5867633" lon="-8.3951433"><ele>600.0</ele><time>2026-04-16T09:21:08.852Z</time></trkpt><trkpt lat="42.5866617" lon="-8.39514"><ele>600.0</ele><time>2026-04-16T09:21:09.853Z</time></trkpt><trkpt lat="42.5865867" lon="-8.39513"><ele>600.0</ele><time>2026-04-16T09:21:10.852Z</time></trkpt><trkpt lat="42.5864867" lon="-8.3950717"><ele>600.0</ele><time>2026-04-16T09:21:12.853Z</time></trkpt><trkpt lat="42.58645" lon="-8.394965"><ele>600.0</ele><time>2026-04-16T09:21:14.853Z</time></trkpt><trkpt lat="42.5864183" lon="-8.39488"><ele>600.0</ele><time>2026-04-16T09:21:16.852Z</time></trkpt><trkpt lat="42.5863567" lon="-8.39483"><ele>600.0</ele><time>2026-04-16T09:21:18.852Z</time></trkpt><trkpt lat="42.5862033" lon="-8.3948"><ele>600.0</ele><time>2026-04-16T09:21:20.852Z</time></trkpt><trkpt lat="42.5860617" lon="-8.3948067"><ele>600.2</ele><time>2026-04-16T09:21:21.853Z</time></trkpt><trkpt lat="42.5859567" lon="-8.3948217"><ele>600.4</ele><time>2026-04-16T09:21:22.852Z</time></trkpt><trkpt lat="42.58586" lon="-8.39486"><ele>600.6</ele><time>2026-04-16T09:21:23.852Z</time></trkpt><trkpt lat="42.5857717" lon="-8.3949083"><ele>600.8</ele><time>2026-04-16T09:21:24.852Z</time></trkpt><trkpt lat="42.5856983" lon="-8.39497"><ele>601.0</ele><time>2026-04-16T09:21:25.852Z</time></trkpt><trkpt lat="42.5856383" lon="-8.3950333"><ele>601.0</ele><time>2026-04-16T09:21:26.853Z</time></trkpt><trkpt lat="42.585605" lon="-8.3951067"><ele>601.0</ele><time>2026-04-16T09:21:27.853Z</time></trkpt><trkpt lat="42.58558" lon="-8.3951917"><ele>601.0</ele><time>2026-04-16T09:21:28.852Z</time></trkpt><trkpt lat="42.5855717" lon="-8.3953283"><ele>601.0</ele><time>2026-04-16T09:21:29.852Z</time></trkpt><trkpt lat="42.58554" lon="-8.3954417"><ele>601.0</ele><time>2026-04-16T09:21:30.852Z</time></trkpt><trkpt lat="42.5855067" lon="-8.3955767"><ele>601.0</ele><time>2026-04-16T09:21:31.853Z</time></trkpt><trkpt lat="42.5854783" lon="-8.3957117"><ele>598.5</ele><time>2026-04-16T09:21:32.853Z</time></trkpt><trkpt lat="42.5854367" lon="-8.3958467"><ele>596.0</ele><time>2026-04-16T09:21:33.853Z</time></trkpt><trkpt lat="42.5853967" lon="-8.3959817"><ele>593.5</ele><time>2026-04-16T09:21:34.852Z</time></trkpt><trkpt lat="42.5853383" lon="-8.39613"><ele>591.0</ele><time>2026-04-16T09:21:35.853Z</time></trkpt><trkpt lat="42.585265" lon="-8.3962883"><ele>586.75</ele><time>2026-04-16T09:21:36.853Z</time></trkpt><trkpt lat="42.5851717" lon="-8.3964483"><ele>582.5</ele><time>2026-04-16T09:21:37.853Z</time></trkpt><trkpt lat="42.5850717" lon="-8.3965967"><ele>578.25</ele><time>2026-04-16T09:21:38.853Z</time></trkpt><trkpt lat="42.5849867" lon="-8.396725"><ele>574.0</ele><time>2026-04-16T09:21:39.853Z</time></trkpt><trkpt lat="42.5849083" lon="-8.3968583"><ele>574.0</ele><time>2026-04-16T09:21:40.852Z</time></trkpt><trkpt lat="42.5848433" lon="-8.3969967"><ele>574.0</ele><time>2026-04-16T09:21:41.852Z</time></trkpt><trkpt lat="42.5847783" lon="-8.397125"><ele>574.0</ele><time>2026-04-16T09:21:42.853Z</time></trkpt><trkpt lat="42.5847117" lon="-8.3972567"><ele>574.0</ele><time>2026-04-16T09:21:43.852Z</time></trkpt><trkpt lat="42.584635" lon="-8.3973733"><ele>572.25</ele><time>2026-04-16T09:21:44.852Z</time></trkpt><trkpt lat="42.58455" lon="-8.3975117"><ele>570.5</ele><time>2026-04-16T09:21:45.853Z</time></trkpt><trkpt lat="42.584465" lon="-8.3976233"><ele>568.75</ele><time>2026-04-16T09:21:46.852Z</time></trkpt><trkpt lat="42.584375" lon="-8.3977267"><ele>567.0</ele><time>2026-04-16T09:21:47.853Z</time></trkpt><trkpt lat="42.5842917" lon="-8.397815"><ele>567.0</ele><time>2026-04-16T09:21:48.852Z</time></trkpt><trkpt lat="42.5842183" lon="-8.3978917"><ele>567.0</ele><time>2026-04-16T09:21:49.853Z</time></trkpt><trkpt lat="42.5841533" lon="-8.3979583"><ele>567.0</ele><time>2026-04-16T09:21:50.852Z</time></trkpt><trkpt lat="42.5840983" lon="-8.3980183"><ele>567.0</ele><time>2026-04-16T09:21:51.854Z</time></trkpt><trkpt lat="42.584045" lon="-8.398075"><ele>567.0</ele><time>2026-04-16T09:21:52.853Z</time></trkpt><trkpt lat="42.5839583" lon="-8.398145"><ele>567.0</ele><time>2026-04-16T09:21:54.853Z</time></trkpt><trkpt lat="42.5838917" lon="-8.39814"><ele>601.0</ele><time>2026-04-16T09:21:56.854Z</time></trkpt><trkpt lat="42.58586" lon="-8.39486"><ele>601.0</ele><time>2026-04-16T09:21:23.852Z</time></trkpt><trkpt lat="42.5857717" lon="-8.3949083"><ele>601.0</ele><time>2026-04-16T09:21:24.852Z</time></trkpt><trkpt lat="42.5856983" lon="-8.39497"><ele>601.0</ele><time>2026-04-16T09:21:25.852Z</time></trkpt><trkpt lat="42.5856383" lon="-8.3950333"><ele>601.0</ele><time>2026-04-16T09:21:26.853Z</time></trkpt><trkpt lat="42.585605" lon="-8.3951067"><ele>601.0</ele><time>2026-04-16T09:21:27.853Z</time></trkpt><trkpt lat="42.58558" lon="-8.3951917"><ele>601.0</ele><time>2026-04-16T09:21:28.852Z</time></trkpt><trkpt lat="42.5855717" lon="-8.3953283"><ele>601.0</ele><time>2026-04-16T09:21:29.852Z</time></trkpt><trkpt lat="42.58554" lon="-8.3954417"><ele>601.0</ele><time>2026-04-16T09:21:30.852Z</time></trkpt><trkpt lat="42.5855067" lon="-8.3955767"><ele>601.0</ele><time>2026-04-16T09:21:31.853Z</time></trkpt><trkpt lat="42.5854783" lon="-8.3957117"><ele>601.0</ele><time>2026-04-16T09:21:32.853Z</time></trkpt><trkpt lat="42.5854367" lon="-8.3958467"><ele>601.0</ele><time>2026-04-16T09:21:33.853Z</time></trkpt><trkpt lat="42.5853967" lon="-8.3959817"><ele>598.5</ele><time>2026-04-16T09:21:34.852Z</time></trkpt><trkpt lat="42.5853383" lon="-8.39613"><ele>596.0</ele><time>2026-04-16T09:21:35.853Z</time></trkpt><trkpt lat="42.585265" lon="-8.3962883"><ele>593.5</ele><time>2026-04-16T09:21:36.853Z</time></trkpt><trkpt lat="42.5851717" lon="-8.3964483"><ele>591.0</ele><time>2026-04-16T09:21:37.853Z</time></trkpt><trkpt lat="42.5850717" lon="-8.3965967"><ele>586.75</ele><time>2026-04-16T09:21:38.853Z</time></trkpt><trkpt lat="42.5849867" lon="-8.396725"><ele>582.5</ele><time>2026-04-16T09:21:39.853Z</time></trkpt><trkpt lat="42.5849083" lon="-8.3968583"><ele>578.25</ele><time>2026-04-16T09:21:40.852Z</time></trkpt><trkpt lat="42.5848433" lon="-8.3969967"><ele>574.0</ele><time>2026-04-16T09:21:41.852Z</time></trkpt><trkpt lat="42.5847783" lon="-8.397125"><ele>572.25</ele><time>2026-04-16T09:21:42.853Z</time></trkpt><trkpt lat="42.5847117" lon="-8.3972567"><ele>570.5</ele><time>2026-04-16T09:21:43.852Z</time></trkpt><trkpt lat="42.584635" lon="-8.3973733"><ele>568.75</ele><time>2026-04-16T09:21:44.852Z</time></trkpt><trkpt lat="42.58455" lon="-8.3975117"><ele>567.0</ele><time>2026-04-16T09:21:45.853Z</time></trkpt><trkpt lat="42.584465" lon="-8.3976233"><ele>567.0</ele><time>2026-04-16T09:21:46.852Z</time></trkpt><trkpt lat="42.584375" lon="-8.3977267"><ele>567.0</ele><time>2026-04-16T09:21:47.853Z</time></trkpt><trkpt lat="42.5842917" lon="-8.397815"><ele>567.0</ele><time>2026-04-16T09:21:48.852Z</time></trkpt><trkpt lat="42.5842183" lon="-8.3978917"><ele>567.0</ele><time>2026-04-16T09:21:49.853Z</time></trkpt><trkpt lat="42.5841533" lon="-8.3979583"><ele>567.0</ele><time>2026-04-16T09:21:50.852Z</time></trkpt><trkpt lat="42.5840983" lon="-8.3980183"><ele>564.5</ele><time>2026-04-16T09:21:51.854Z</time></trkpt><trkpt lat="42.584045" lon="-8.398075"><ele>562.0</ele><time>2026-04-16T09:21:52.853Z</time></trkpt><trkpt lat="42.5839583" lon="-8.398145"><ele>559.5</ele><time>2026-04-16T09:21:54.853Z</time></trkpt><trkpt lat="42.5838917" lon="-8.39814"><ele>557.0</ele><time>2026-04-16T09:21:56.854Z</time></trkpt><trkpt lat="42.58381" lon="-8.3980967"><ele>554.5</ele><time>2026-04-16T09:21:58.854Z</time></trkpt><trkpt lat="42.5837267" lon="-8.3980717"><ele>552.0</ele><time>2026-04-16T09:22:00.854Z</time></trkpt><trkpt lat="42.5836333" lon="-8.398055"><ele>551.6</ele><time>2026-04-16T09:22:02.853Z</time></trkpt><trkpt lat="42.5835617" lon="-8.3980883"><ele>551.2</ele><time>2026-04-16T09:22:06.854Z</time></trkpt><trkpt lat="42.5835217" lon="-8.3981617"><ele>550.8</ele><time>2026-04-16T09:22:08.853Z</time></trkpt><trkpt lat="42.583475" lon="-8.3982217"><ele>550.4</ele><time>2026-04-16T09:22:09.853Z</time></trkpt><trkpt lat="42.5833517" lon="-8.3983433"><ele>550.0</ele><time>2026-04-16T09:22:10.853Z</time></trkpt><trkpt lat="42.5832333" lon="-8.3984"><ele>550.0</ele><time>2026-04-16T09:22:12.853Z</time></trkpt><trkpt lat="42.5831583" lon="-8.398415"><ele>550.0</ele><time>2026-04-16T09:22:13.854Z</time></trkpt><trkpt lat="42.583065" lon="-8.398405"><ele>550.0</ele><time>2026-04-16T09:22:14.854Z</time></trkpt><trkpt lat="42.5829767" lon="-8.398385"><ele>550.0</ele><time>2026-04-16T09:22:15.854Z</time></trkpt><trkpt lat="42.5828833" lon="-8.39836"><ele>550.0</ele><time>2026-04-16T09:22:16.854Z</time></trkpt><trkpt lat="42.5827783" lon="-8.3983167"><ele>551.6</ele><time>2026-04-16T09:22:17.853Z</time></trkpt><trkpt lat="42.5826733" lon="-8.3982717"><ele>553.2</ele><time>2026-04-16T09:22:18.854Z</time></trkpt><trkpt lat="42.5825683" lon="-8.3982017"><ele>554.8</ele><time>2026-04-16T09:22:19.854Z</time></trkpt><trkpt lat="42.5824667" lon="-8.3981183"><ele>556.4</ele><time>2026-04-16T09:22:20.854Z</time></trkpt><trkpt lat="42.582395" lon="-8.3980517"><ele>558.0</ele><time>2026-04-16T09:22:21.853Z</time></trkpt><trkpt lat="42.5823217" lon="-8.3979117"><ele>560.6</ele><time>2026-04-16T09:22:23.853Z</time></trkpt><trkpt lat="42.5822983" lon="-8.3978017"><ele>563.1999999999999</ele><time>2026-04-16T09:22:24.854Z</time></trkpt><trkpt lat="42.5822833" lon="-8.39767"><ele>565.8</ele><time>2026-04-16T09:22:25.853Z</time></trkpt><trkpt lat="42.5822617" lon="-8.3975283"><ele>568.4</ele><time>2026-04-16T09:22:26.853Z</time></trkpt><trkpt lat="42.5822367" lon="-8.3974"><ele>571.0</ele><time>2026-04-16T09:22:27.853Z</time></trkpt><trkpt lat="42.5821933" lon="-8.3972817"><ele>572.4</ele><time>2026-04-16T09:22:28.853Z</time></trkpt><trkpt lat="42.5821517" lon="-8.39716"><ele>573.8</ele><time>2026-04-16T09:22:29.853Z</time></trkpt><trkpt lat="42.582115" lon="-8.3970533"><ele>575.1999999999999</ele><time>2026-04-16T09:22:30.854Z</time></trkpt><trkpt lat="42.5820717" lon="-8.3969183"><ele>576.6</ele><time>2026-04-16T09:22:31.853Z</time></trkpt><trkpt lat="42.582025" lon="-8.3967633"><ele>578.0</ele><time>2026-04-16T09:22:32.853Z</time></trkpt><trkpt lat="42.5819783" lon="-8.396595"><ele>576.0</ele><time>2026-04-16T09:22:33.853Z</time></trkpt><trkpt lat="42.5819267" lon="-8.3964583"><ele>574.0</ele><time>2026-04-16T09:22:34.853Z</time></trkpt><trkpt lat="42.5818817" lon="-8.396315"><ele>572.0</ele><time>2026-04-16T09:22:35.854Z</time></trkpt><trkpt lat="42.5818483" lon="-8.39617"><ele>570.0</ele><time>2026-04-16T09:22:36.853Z</time></trkpt><trkpt lat="42.5818167" lon="-8.3960417"><ele>568.0</ele><time>2026-04-16T09:22:37.854Z</time></trkpt><trkpt lat="42.5817883" lon="-8.3959483"><ele>568.0</ele><time>2026-04-16T09:22:38.854Z</time></trkpt><trkpt lat="42.58174" lon="-8.39586"><ele>568.0</ele><time>2026-04-16T09:22:39.853Z</time></trkpt><trkpt lat="42.5816833" lon="-8.39577"><ele>568.0</ele><time>2026-04-16T09:22:40.853Z</time></trkpt><trkpt lat="42.581625" lon="-8.3956883"><ele>568.0</ele><time>2026-04-16T09:22:41.854Z</time></trkpt><trkpt lat="42.5815667" lon="-8.3955983"><ele>568.0</ele><time>2026-04-16T09:22:42.854Z</time></trkpt><trkpt lat="42.5814983" lon="-8.395505"><ele>568.0</ele><time>2026-04-16T09:22:43.853Z</time></trkpt><trkpt lat="42.581425" lon="-8.3954167"><ele>569.3333333333334</ele><time>2026-04-16T09:22:44.853Z</time></trkpt><trkpt lat="42.5813617" lon="-8.3953367"><ele>570.6666666666667</ele><time>2026-04-16T09:22:45.854Z</time></trkpt><trkpt lat="42.5813217" lon="-8.3952667"><ele>572.0</ele><time>2026-04-16T09:22:46.854Z</time></trkpt><trkpt lat="42.5813033" lon="-8.39512"><ele>573.3333333333334</ele><time>2026-04-16T09:22:48.854Z</time></trkpt><trkpt lat="42.5813283" lon="-8.395035"><ele>574.6666666666666</ele><time>2026-04-16T09:22:49.854Z</time></trkpt><trkpt lat="42.581335" lon="-8.3948933"><ele>576.0</ele><time>2026-04-16T09:22:51.853Z</time></trkpt><trkpt lat="42.581255" lon="-8.3947733"><ele>573.8</ele><time>2026-04-16T09:22:53.853Z</time></trkpt><trkpt lat="42.58116" lon="-8.39466"><ele>571.6</ele><time>2026-04-16T09:22:55.853Z</time></trkpt><trkpt lat="42.581095" lon="-8.39458"><ele>569.4</ele><time>2026-04-16T09:22:57.854Z</time></trkpt><trkpt lat="42.58102" lon="-8.3945283"><ele>567.2</ele><time>2026-04-16T09:23:00.853Z</time></trkpt><trkpt lat="42.580935" lon="-8.3945883"><ele>565.0</ele><time>2026-04-16T09:23:03.853Z</time></trkpt><trkpt lat="42.5808283" lon="-8.3946833"><ele>565.0</ele><time>2026-04-16T09:23:05.854Z</time></trkpt><trkpt lat="42.5807483" lon="-8.3947583"><ele>565.0</ele><time>2026-04-16T09:23:06.854Z</time></trkpt><trkpt lat="42.5806217" lon="-8.3948517"><ele>565.0</ele><time>2026-04-16T09:23:07.854Z</time></trkpt><trkpt lat="42.58048" lon="-8.39495"><ele>565.0</ele><time>2026-04-16T09:23:08.853Z</time></trkpt><trkpt lat="42.5803633" lon="-8.39503"><ele>566.75</ele><time>2026-04-16T09:23:09.853Z</time></trkpt><trkpt lat="42.58026" lon="-8.3951283"><ele>568.5</ele><time>2026-04-16T09:23:10.853Z</time></trkpt><trkpt lat="42.5801683" lon="-8.3952483"><ele>570.25</ele><time>2026-04-16T09:23:11.854Z</time></trkpt><trkpt lat="42.58012" lon="-8.395375"><ele>572.0</ele><time>2026-04-16T09:23:12.853Z</time></trkpt><trkpt lat="42.580055" lon="-8.3955283"><ele>568.5</ele><time>2026-04-16T09:23:13.853Z</time></trkpt><trkpt lat="42.5799683" lon="-8.3957217"><ele>565.0</ele><time>2026-04-16T09:23:14.854Z</time></trkpt><trkpt lat="42.5799217" lon="-8.3958833"><ele>561.5</ele><time>2026-04-16T09:23:15.853Z</time></trkpt><trkpt lat="42.5798867" lon="-8.3960483"><ele>558.0</ele><time>2026-04-16T09:23:16.853Z</time></trkpt><trkpt lat="42.579855" lon="-8.39623"><ele>556.1999999999999</ele><time>2026-04-16T09:23:17.853Z</time></trkpt><trkpt lat="42.57983" lon="-8.3963917"><ele>554.4</ele><time>2026-04-16T09:23:18.853Z</time></trkpt><trkpt lat="42.5798067" lon="-8.39653"><ele>552.5999999999999</ele><time>2026-04-16T09:23:19.854Z</time></trkpt><trkpt lat="42.5797733" lon="-8.3966567"><ele>550.8</ele><time>2026-04-16T09:23:20.853Z</time></trkpt><trkpt lat="42.5797267" lon="-8.3967633"><ele>549.0</ele><time>2026-04-16T09:23:21.853Z</time></trkpt><trkpt lat="42.57968" lon="-8.396845"><ele>549.0</ele><time>2026-04-16T09:23:22.853Z</time></trkpt><trkpt lat="42.579635" lon="-8.39692"><ele>549.0</ele><time>2026-04-16T09:23:23.853Z</time></trkpt><trkpt lat="42.5795317" lon="-8.3969617"><ele>549.0</ele><time>2026-04-16T09:23:25.853Z</time></trkpt><trkpt lat="42.58116" lon="-8.39466"><ele>552.2</ele><time>2026-04-16T09:22:55.853Z</time></trkpt><trkpt lat="42.581095" lon="-8.39458"><ele>555.4</ele><time>2026-04-16T09:22:57.854Z</time></trkpt><trkpt lat="42.58102" lon="-8.3945283"><ele>558.6</ele><time>2026-04-16T09:23:00.853Z</time></trkpt><trkpt lat="42.580935" lon="-8.3945883"><ele>561.8</ele><time>2026-04-16T09:23:03.853Z</time></trkpt><trkpt lat="42.5808283" lon="-8.3946833"><ele>565.0</ele><time>2026-04-16T09:23:05.854Z</time></trkpt><trkpt lat="42.5807483" lon="-8.3947583"><ele>565.0</ele><time>2026-04-16T09:23:06.854Z</time></trkpt><trkpt lat="42.5806217" lon="-8.3948517"><ele>565.0</ele><time>2026-04-16T09:23:07.854Z</time></trkpt><trkpt lat="42.58048" lon="-8.39495"><ele>565.0</ele><time>2026-04-16T09:23:08.853Z</time></trkpt><trkpt lat="42.5803633" lon="-8.39503"><ele>565.0</ele><time>2026-04-16T09:23:09.853Z</time></trkpt><trkpt lat="42.58026" lon="-8.3951283"><ele>566.75</ele><time>2026-04-16T09:23:10.853Z</time></trkpt><trkpt lat="42.5801683" lon="-8.3952483"><ele>568.5</ele><time>2026-04-16T09:23:11.854Z</time></trkpt><trkpt lat="42.58012" lon="-8.395375"><ele>570.25</ele><time>2026-04-16T09:23:12.853Z</time></trkpt><trkpt lat="42.580055" lon="-8.3955283"><ele>572.0</ele><time>2026-04-16T09:23:13.853Z</time></trkpt><trkpt lat="42.5799683" lon="-8.3957217"><ele>568.5</ele><time>2026-04-16T09:23:14.854Z</time></trkpt><trkpt lat="42.5799217" lon="-8.3958833"><ele>565.0</ele><time>2026-04-16T09:23:15.853Z</time></trkpt><trkpt lat="42.5798867" lon="-8.3960483"><ele>561.5</ele><time>2026-04-16T09:23:16.853Z</time></trkpt><trkpt lat="42.579855" lon="-8.39623"><ele>558.0</ele><time>2026-04-16T09:23:17.853Z</time></trkpt><trkpt lat="42.57983" lon="-8.3963917"><ele>556.5</ele><time>2026-04-16T09:23:18.853Z</time></trkpt><trkpt lat="42.5798067" lon="-8.39653"><ele>555.0</ele><time>2026-04-16T09:23:19.854Z</time></trkpt><trkpt lat="42.5797733" lon="-8.3966567"><ele>553.5</ele><time>2026-04-16T09:23:20.853Z</time></trkpt><trkpt lat="42.5797267" lon="-8.3967633"><ele>552.0</ele><time>2026-04-16T09:23:21.853Z</time></trkpt><trkpt lat="42.57968" lon="-8.396845"><ele>550.5</ele><time>2026-04-16T09:23:22.853Z</time></trkpt><trkpt lat="42.579635" lon="-8.39692"><ele>549.0</ele><time>2026-04-16T09:23:23.853Z</time></trkpt><trkpt lat="42.5795317" lon="-8.3969617"><ele>549.5</ele><time>2026-04-16T09:23:25.853Z</time></trkpt><trkpt lat="42.5794733" lon="-8.3969117"><ele>550.0</ele><time>2026-04-16T09:23:26.854Z</time></trkpt><trkpt lat="42.5794183" lon="-8.396835"><ele>550.5</ele><time>2026-04-16T09:23:27.854Z</time></trkpt><trkpt lat="42.5793483" lon="-8.3967667"><ele>551.0</ele><time>2026-04-16T09:23:28.853Z</time></trkpt><trkpt lat="42.5792617" lon="-8.396705"><ele>551.5</ele><time>2026-04-16T09:23:29.853Z</time></trkpt><trkpt lat="42.579175" lon="-8.3966683"><ele>552.0</ele><time>2026-04-16T09:23:30.854Z</time></trkpt><trkpt lat="42.5790983" lon="-8.396655"><ele>552.0</ele><time>2026-04-16T09:23:31.854Z</time></trkpt><trkpt lat="42.5789983" lon="-8.396745"><ele>552.0</ele><time>2026-04-16T09:23:33.854Z</time></trkpt><trkpt lat="42.5789567" lon="-8.3968533"><ele>552.0</ele><time>2026-04-16T09:23:34.854Z</time></trkpt><trkpt lat="42.5788983" lon="-8.3969717"><ele>552.0</ele><time>2026-04-16T09:23:35.853Z</time></trkpt><trkpt lat="42.5788383" lon="-8.39708"><ele>552.0</ele><time>2026-04-16T09:23:36.853Z</time></trkpt><trkpt lat="42.57878" lon="-8.3971717"><ele>550.6</ele><time>2026-04-16T09:23:37.853Z</time></trkpt><trkpt lat="42.5787333" lon="-8.3972617"><ele>549.2</ele><time>2026-04-16T09:23:38.854Z</time></trkpt><trkpt lat="42.5787067" lon="-8.3973617"><ele>547.8</ele><time>2026-04-16T09:23:39.854Z</time></trkpt><trkpt lat="42.5786967" lon="-8.39749"><ele>546.4</ele><time>2026-04-16T09:23:40.853Z</time></trkpt><trkpt lat="42.5786983" lon="-8.3976167"><ele>545.0</ele><time>2026-04-16T09:23:41.854Z</time></trkpt><trkpt lat="42.5786983" lon="-8.3977567"><ele>545.0</ele><time>2026-04-16T09:23:42.853Z</time></trkpt><trkpt lat="42.5786967" lon="-8.3978867"><ele>545.0</ele><time>2026-04-16T09:23:43.853Z</time></trkpt><trkpt lat="42.57868" lon="-8.3980133"><ele>545.0</ele><time>2026-04-16T09:23:44.853Z</time></trkpt><trkpt lat="42.57865" lon="-8.3981433"><ele>545.0</ele><time>2026-04-16T09:23:45.853Z</time></trkpt><trkpt lat="42.578615" lon="-8.3982667"><ele>545.0</ele><time>2026-04-16T09:23:46.853Z</time></trkpt><trkpt lat="42.578585" lon="-8.3984"><ele>543.8</ele><time>2026-04-16T09:23:47.854Z</time></trkpt><trkpt lat="42.5785583" lon="-8.3985367"><ele>542.6</ele><time>2026-04-16T09:23:48.854Z</time></trkpt><trkpt lat="42.578535" lon="-8.3986817"><ele>541.4</ele><time>2026-04-16T09:23:49.854Z</time></trkpt><trkpt lat="42.57851" lon="-8.3988183"><ele>540.2</ele><time>2026-04-16T09:23:50.853Z</time></trkpt><trkpt lat="42.57848" lon="-8.398965"><ele>539.0</ele><time>2026-04-16T09:23:51.853Z</time></trkpt><trkpt lat="42.578445" lon="-8.3991167"><ele>537.4</ele><time>2026-04-16T09:23:52.853Z</time></trkpt><trkpt lat="42.578415" lon="-8.3992567"><ele>535.8</ele><time>2026-04-16T09:23:53.854Z</time></trkpt><trkpt lat="42.5783817" lon="-8.3994"><ele>534.2</ele><time>2026-04-16T09:23:54.854Z</time></trkpt><trkpt lat="42.5783467" lon="-8.3995383"><ele>532.6</ele><time>2026-04-16T09:23:55.853Z</time></trkpt><trkpt lat="42.5783167" lon="-8.3996783"><ele>531.0</ele><time>2026-04-16T09:23:56.853Z</time></trkpt><trkpt lat="42.5782917" lon="-8.3998233"><ele>529.8</ele><time>2026-04-16T09:23:57.853Z</time></trkpt><trkpt lat="42.5782667" lon="-8.3999667"><ele>528.6</ele><time>2026-04-16T09:23:58.854Z</time></trkpt><trkpt lat="42.5782383" lon="-8.40011"><ele>527.4</ele><time>2026-04-16T09:23:59.853Z</time></trkpt><trkpt lat="42.578215" lon="-8.4002617"><ele>526.2</ele><time>2026-04-16T09:24:00.853Z</time></trkpt><trkpt lat="42.5781883" lon="-8.4004083"><ele>525.0</ele><time>2026-04-16T09:24:01.853Z</time></trkpt><trkpt lat="42.578155" lon="-8.400545"><ele>524.1666666666666</ele><time>2026-04-16T09:24:02.853Z</time></trkpt><trkpt lat="42.5781233" lon="-8.40068"><ele>523.3333333333334</ele><time>2026-04-16T09:24:03.854Z</time></trkpt><trkpt lat="42.578095" lon="-8.4008117"><ele>522.5</ele><time>2026-04-16T09:24:04.853Z</time></trkpt><trkpt lat="42.5780683" lon="-8.4009217"><ele>521.6666666666667</ele><time>2026-04-16T09:24:05.853Z</time></trkpt><trkpt lat="42.5780483" lon="-8.4010067"><ele>520.8333333333334</ele><time>2026-04-16T09:24:06.853Z</time></trkpt><trkpt lat="42.5780533" lon="-8.4011267"><ele>520.0</ele><time>2026-04-16T09:24:08.853Z</time></trkpt><trkpt lat="42.57815" lon="-8.40124"><ele>520.0</ele><time>2026-04-16T09:24:10.853Z</time></trkpt><trkpt lat="42.57823" lon="-8.4012833"><ele>520.0</ele><time>2026-04-16T09:24:11.854Z</time></trkpt><trkpt lat="42.5783167" lon="-8.4013183"><ele>520.0</ele><time>2026-04-16T09:24:12.854Z</time></trkpt><trkpt lat="42.578415" lon="-8.401345"><ele>520.0</ele><time>2026-04-16T09:24:13.854Z</time></trkpt><trkpt lat="42.5785283" lon="-8.4013583"><ele>520.0</ele><time>2026-04-16T09:24:14.853Z</time></trkpt><trkpt lat="42.5786483" lon="-8.40135"><ele>518.75</ele><time>2026-04-16T09:24:15.854Z</time></trkpt><trkpt lat="42.5787717" lon="-8.4013283"><ele>517.5</ele><time>2026-04-16T09:24:16.854Z</time></trkpt><trkpt lat="42.57889" lon="-8.4012917"><ele>516.25</ele><time>2026-04-16T09:24:17.854Z</time></trkpt><trkpt lat="42.5790033" lon="-8.4012533"><ele>515.0</ele><time>2026-04-16T09:24:18.853Z</time></trkpt><trkpt lat="42.57911" lon="-8.40122"><ele>515.0</ele><time>2026-04-16T09:24:19.853Z</time></trkpt><trkpt lat="42.5792267" lon="-8.401185"><ele>515.0</ele><time>2026-04-16T09:24:20.853Z</time></trkpt><trkpt lat="42.5793417" lon="-8.4011433"><ele>515.0</ele><time>2026-04-16T09:24:21.854Z</time></trkpt><trkpt lat="42.5794567" lon="-8.4011083"><ele>515.0</ele><time>2026-04-16T09:24:22.853Z</time></trkpt><trkpt lat="42.5795733" lon="-8.40107"><ele>513.75</ele><time>2026-04-16T09:24:23.854Z</time></trkpt><trkpt lat="42.5796867" lon="-8.401035"><ele>512.5</ele><time>2026-04-16T09:24:24.853Z</time></trkpt><trkpt lat="42.5797967" lon="-8.4009933"><ele>511.25</ele><time>2026-04-16T09:24:25.853Z</time></trkpt><trkpt lat="42.5799117" lon="-8.4009533"><ele>510.0</ele><time>2026-04-16T09:24:26.854Z</time></trkpt><trkpt lat="42.5800283" lon="-8.4009167"><ele>510.0</ele><time>2026-04-16T09:24:27.854Z</time></trkpt><trkpt lat="42.5801483" lon="-8.4008733"><ele>510.0</ele><time>2026-04-16T09:24:28.853Z</time></trkpt><trkpt lat="42.5802617" lon="-8.4008367"><ele>510.0</ele><time>2026-04-16T09:24:29.854Z</time></trkpt><trkpt lat="42.5803733" lon="-8.400815"><ele>510.0</ele><time>2026-04-16T09:24:30.853Z</time></trkpt><trkpt lat="42.5804817" lon="-8.4008033"><ele>509.2</ele><time>2026-04-16T09:24:31.854Z</time></trkpt><trkpt lat="42.5805767" lon="-8.400815"><ele>508.4</ele><time>2026-04-16T09:24:32.854Z</time></trkpt><trkpt lat="42.5806717" lon="-8.4008433"><ele>507.6</ele><time>2026-04-16T09:24:33.854Z</time></trkpt><trkpt lat="42.58077" lon="-8.40089"><ele>506.8</ele><time>2026-04-16T09:24:34.853Z</time></trkpt><trkpt lat="42.5808683" lon="-8.400955"><ele>506.0</ele><time>2026-04-16T09:24:35.853Z</time></trkpt><trkpt lat="42.5809683" lon="-8.4010233"><ele>506.0</ele><time>2026-04-16T09:24:36.853Z</time></trkpt><trkpt lat="42.5810767" lon="-8.401095"><ele>506.0</ele><time>2026-04-16T09:24:37.853Z</time></trkpt><trkpt lat="42.5811833" lon="-8.4011733"><ele>506.0</ele><time>2026-04-16T09:24:38.854Z</time></trkpt><trkpt lat="42.5812883" lon="-8.4012533"><ele>506.0</ele><time>2026-04-16T09:24:39.853Z</time></trkpt><trkpt lat="42.5813867" lon="-8.4013333"><ele>505.6</ele><time>2026-04-16T09:24:40.853Z</time></trkpt><trkpt lat="42.5814833" lon="-8.4014183"><ele>505.20000000000005</ele><time>2026-04-16T09:24:41.854Z</time></trkpt><trkpt lat="42.5815817" lon="-8.4015017"><ele>504.79999999999995</ele><time>2026-04-16T09:24:42.853Z</time></trkpt><trkpt lat="42.581665" lon="-8.4015983"><ele>504.4</ele><time>2026-04-16T09:24:43.853Z</time></trkpt><trkpt lat="42.581735" lon="-8.401695"><ele>504.0</ele><time>2026-04-16T09:24:44.853Z</time></trkpt><trkpt lat="42.5817917" lon="-8.40181"><ele>504.0</ele><time>2026-04-16T09:24:45.854Z</time></trkpt><trkpt lat="42.581835" lon="-8.4019083"><ele>504.0</ele><time>2026-04-16T09:24:46.853Z</time></trkpt><trkpt lat="42.5818933" lon="-8.402015"><ele>504.0</ele><time>2026-04-16T09:24:47.853Z</time></trkpt><trkpt lat="42.581955" lon="-8.4021267"><ele>504.0</ele><time>2026-04-16T09:24:48.853Z</time></trkpt><trkpt lat="42.582015" lon="-8.402255"><ele>504.0</ele><time>2026-04-16T09:24:49.853Z</time></trkpt><trkpt lat="42.5820833" lon="-8.402395"><ele>505.5</ele><time>2026-04-16T09:24:50.853Z</time></trkpt><trkpt lat="42.5821517" lon="-8.4025367"><ele>507.0</ele><time>2026-04-16T09:24:51.853Z</time></trkpt><trkpt lat="42.5822217" lon="-8.4026783"><ele>508.5</ele><time>2026-04-16T09:24:52.854Z</time></trkpt><trkpt lat="42.5822983" lon="-8.4028017"><ele>510.0</ele><time>2026-04-16T09:24:53.853Z</time></trkpt><trkpt lat="42.5823833" lon="-8.4029183"><ele>515.0</ele><time>2026-04-16T09:24:54.854Z</time></trkpt><trkpt lat="42.5794567" lon="-8.4011083"><ele>513.75</ele><time>2026-04-16T09:24:22.853Z</time></trkpt><trkpt lat="42.5795733" lon="-8.40107"><ele>512.5</ele><time>2026-04-16T09:24:23.854Z</time></trkpt><trkpt lat="42.5796867" lon="-8.401035"><ele>511.25</ele><time>2026-04-16T09:24:24.853Z</time></trkpt><trkpt lat="42.5797967" lon="-8.4009933"><ele>510.0</ele><time>2026-04-16T09:24:25.853Z</time></trkpt><trkpt lat="42.5799117" lon="-8.4009533"><ele>510.0</ele><time>2026-04-16T09:24:26.854Z</time></trkpt><trkpt lat="42.5800283" lon="-8.4009167"><ele>510.0</ele><time>2026-04-16T09:24:27.854Z</time></trkpt><trkpt lat="42.5801483" lon="-8.4008733"><ele>510.0</ele><time>2026-04-16T09:24:28.853Z</time></trkpt><trkpt lat="42.5802617" lon="-8.4008367"><ele>510.0</ele><time>2026-04-16T09:24:29.854Z</time></trkpt><trkpt lat="42.5803733" lon="-8.400815"><ele>509.2</ele><time>2026-04-16T09:24:30.853Z</time></trkpt><trkpt lat="42.5804817" lon="-8.4008033"><ele>508.4</ele><time>2026-04-16T09:24:31.854Z</time></trkpt><trkpt lat="42.5805767" lon="-8.400815"><ele>507.6</ele><time>2026-04-16T09:24:32.854Z</time></trkpt><trkpt lat="42.5806717" lon="-8.4008433"><ele>506.8</ele><time>2026-04-16T09:24:33.854Z</time></trkpt><trkpt lat="42.58077" lon="-8.40089"><ele>506.0</ele><time>2026-04-16T09:24:34.853Z</time></trkpt><trkpt lat="42.5808683" lon="-8.400955"><ele>506.0</ele><time>2026-04-16T09:24:35.853Z</time></trkpt><trkpt lat="42.5809683" lon="-8.4010233"><ele>506.0</ele><time>2026-04-16T09:24:36.853Z</time></trkpt><trkpt lat="42.5810767" lon="-8.401095"><ele>506.0</ele><time>2026-04-16T09:24:37.853Z</time></trkpt><trkpt lat="42.5811833" lon="-8.4011733"><ele>506.0</ele><time>2026-04-16T09:24:38.854Z</time></trkpt><trkpt lat="42.5812883" lon="-8.4012533"><ele>505.5</ele><time>2026-04-16T09:24:39.853Z</time></trkpt><trkpt lat="42.5813867" lon="-8.4013333"><ele>505.0</ele><time>2026-04-16T09:24:40.853Z</time></trkpt><trkpt lat="42.5814833" lon="-8.4014183"><ele>504.5</ele><time>2026-04-16T09:24:41.854Z</time></trkpt><trkpt lat="42.5815817" lon="-8.4015017"><ele>504.0</ele><time>2026-04-16T09:24:42.853Z</time></trkpt><trkpt lat="42.581665" lon="-8.4015983"><ele>504.0</ele><time>2026-04-16T09:24:43.853Z</time></trkpt><trkpt lat="42.581735" lon="-8.401695"><ele>504.0</ele><time>2026-04-16T09:24:44.853Z</time></trkpt><trkpt lat="42.5817917" lon="-8.40181"><ele>504.0</ele><time>2026-04-16T09:24:45.854Z</time></trkpt><trkpt lat="42.581835" lon="-8.4019083"><ele>504.0</ele><time>2026-04-16T09:24:46.853Z</time></trkpt><trkpt lat="42.5818933" lon="-8.402015"><ele>504.0</ele><time>2026-04-16T09:24:47.853Z</time></trkpt><trkpt lat="42.581955" lon="-8.4021267"><ele>505.5</ele><time>2026-04-16T09:24:48.853Z</time></trkpt><trkpt lat="42.582015" lon="-8.402255"><ele>507.0</ele><time>2026-04-16T09:24:49.853Z</time></trkpt><trkpt lat="42.5820833" lon="-8.402395"><ele>508.5</ele><time>2026-04-16T09:24:50.853Z</time></trkpt><trkpt lat="42.5821517" lon="-8.4025367"><ele>510.0</ele><time>2026-04-16T09:24:51.853Z</time></trkpt><trkpt lat="42.5822217" lon="-8.4026783"><ele>510.0</ele><time>2026-04-16T09:24:52.854Z</time></trkpt><trkpt lat="42.5822983" lon="-8.4028017"><ele>510.0</ele><time>2026-04-16T09:24:53.853Z</time></trkpt><trkpt lat="42.5823833" lon="-8.4029183"><ele>510.0</ele><time>2026-04-16T09:24:54.854Z</time></trkpt><trkpt lat="42.582475" lon="-8.4030183"><ele>510.0</ele><time>2026-04-16T09:24:55.854Z</time></trkpt><trkpt lat="42.5825733" lon="-8.403095"><ele>507.25</ele><time>2026-04-16T09:24:56.854Z</time></trkpt><trkpt lat="42.5826767" lon="-8.4031417"><ele>504.5</ele><time>2026-04-16T09:24:57.853Z</time></trkpt><trkpt lat="42.5827867" lon="-8.4031717"><ele>501.75</ele><time>2026-04-16T09:24:58.854Z</time></trkpt><trkpt lat="42.5828983" lon="-8.4031917"><ele>499.0</ele><time>2026-04-16T09:24:59.853Z</time></trkpt><trkpt lat="42.58302" lon="-8.4032083"><ele>499.0</ele><time>2026-04-16T09:25:00.854Z</time></trkpt><trkpt lat="42.5831333" lon="-8.403215"><ele>499.0</ele><time>2026-04-16T09:25:01.854Z</time></trkpt><trkpt lat="42.583245" lon="-8.403205"><ele>499.0</ele><time>2026-04-16T09:25:02.854Z</time></trkpt><trkpt lat="42.5833533" lon="-8.40319"><ele>499.0</ele><time>2026-04-16T09:25:03.854Z</time></trkpt><trkpt lat="42.5834633" lon="-8.4031683"><ele>499.0</ele><time>2026-04-16T09:25:04.853Z</time></trkpt><trkpt lat="42.5835633" lon="-8.4031083"><ele>499.0</ele><time>2026-04-16T09:25:05.854Z</time></trkpt><trkpt lat="42.5836567" lon="-8.403025"><ele>499.0</ele><time>2026-04-16T09:25:06.853Z</time></trkpt><trkpt lat="42.5837383" lon="-8.4029217"><ele>499.0</ele><time>2026-04-16T09:25:07.854Z</time></trkpt><trkpt lat="42.5838133" lon="-8.4028017"><ele>499.0</ele><time>2026-04-16T09:25:08.854Z</time></trkpt><trkpt lat="42.5838867" lon="-8.4026783"><ele>498.25</ele><time>2026-04-16T09:25:09.854Z</time></trkpt><trkpt lat="42.5839717" lon="-8.40257"><ele>497.5</ele><time>2026-04-16T09:25:10.854Z</time></trkpt><trkpt lat="42.5840633" lon="-8.402485"><ele>496.75</ele><time>2026-04-16T09:25:11.853Z</time></trkpt><trkpt lat="42.584165" lon="-8.40243"><ele>496.0</ele><time>2026-04-16T09:25:12.854Z</time></trkpt><trkpt lat="42.5842833" lon="-8.4024"><ele>496.0</ele><time>2026-04-16T09:25:13.853Z</time></trkpt><trkpt lat="42.584395" lon="-8.402405"><ele>496.0</ele><time>2026-04-16T09:25:14.853Z</time></trkpt><trkpt lat="42.5845083" lon="-8.4024383"><ele>496.0</ele><time>2026-04-16T09:25:15.853Z</time></trkpt><trkpt lat="42.58461" lon="-8.4024783"><ele>496.0</ele><time>2026-04-16T09:25:16.853Z</time></trkpt><trkpt lat="42.5847083" lon="-8.4025217"><ele>496.0</ele><time>2026-04-16T09:25:17.853Z</time></trkpt><trkpt lat="42.584795" lon="-8.402585"><ele>496.0</ele><time>2026-04-16T09:25:18.853Z</time></trkpt><trkpt lat="42.5848767" lon="-8.40267"><ele>496.0</ele><time>2026-04-16T09:25:19.853Z</time></trkpt><trkpt lat="42.58495" lon="-8.4027783"><ele>496.0</ele><time>2026-04-16T09:25:20.853Z</time></trkpt><trkpt lat="42.58501" lon="-8.4029"><ele>496.0</ele><time>2026-04-16T09:25:21.853Z</time></trkpt><trkpt lat="42.58505" lon="-8.403035"><ele>496.0</ele><time>2026-04-16T09:25:22.853Z</time></trkpt><trkpt lat="42.5850783" lon="-8.40317"><ele>496.0</ele><time>2026-04-16T09:25:23.853Z</time></trkpt><trkpt lat="42.585085" lon="-8.403315"><ele>496.0</ele><time>2026-04-16T09:25:24.853Z</time></trkpt><trkpt lat="42.5850667" lon="-8.4034533"><ele>496.0</ele><time>2026-04-16T09:25:25.854Z</time></trkpt><trkpt lat="42.585025" lon="-8.40358"><ele>496.0</ele><time>2026-04-16T09:25:26.853Z</time></trkpt><trkpt lat="42.58496" lon="-8.4037"><ele>496.0</ele><time>2026-04-16T09:25:27.854Z</time></trkpt><trkpt lat="42.584875" lon="-8.4038083"><ele>498.5</ele><time>2026-04-16T09:25:28.853Z</time></trkpt><trkpt lat="42.5847833" lon="-8.4039117"><ele>501.0</ele><time>2026-04-16T09:25:29.853Z</time></trkpt><trkpt lat="42.5846933" lon="-8.404005"><ele>503.5</ele><time>2026-04-16T09:25:30.853Z</time></trkpt><trkpt lat="42.584605" lon="-8.404095"><ele>506.0</ele><time>2026-04-16T09:25:31.853Z</time></trkpt><trkpt lat="42.5845167" lon="-8.4041967"><ele>502.5</ele><time>2026-04-16T09:25:32.853Z</time></trkpt><trkpt lat="42.584435" lon="-8.40431"><ele>499.0</ele><time>2026-04-16T09:25:33.854Z</time></trkpt><trkpt lat="42.5843617" lon="-8.4044367"><ele>495.5</ele><time>2026-04-16T09:25:34.853Z</time></trkpt><trkpt lat="42.584305" lon="-8.4045817"><ele>492.0</ele><time>2026-04-16T09:25:35.853Z</time></trkpt><trkpt lat="42.58426" lon="-8.404735"><ele>492.0</ele><time>2026-04-16T09:25:36.854Z</time></trkpt><trkpt lat="42.5842233" lon="-8.404885"><ele>492.0</ele><time>2026-04-16T09:25:37.854Z</time></trkpt><trkpt lat="42.58419" lon="-8.4050433"><ele>492.0</ele><time>2026-04-16T09:25:38.854Z</time></trkpt><trkpt lat="42.5841583" lon="-8.4052"><ele>492.0</ele><time>2026-04-16T09:25:39.853Z</time></trkpt><trkpt lat="42.5841283" lon="-8.4053633"><ele>493.25</ele><time>2026-04-16T09:25:40.854Z</time></trkpt><trkpt lat="42.5840983" lon="-8.405525"><ele>494.5</ele><time>2026-04-16T09:25:41.854Z</time></trkpt><trkpt lat="42.5840733" lon="-8.4056883"><ele>495.75</ele><time>2026-04-16T09:25:42.853Z</time></trkpt><trkpt lat="42.5840433" lon="-8.4058483"><ele>497.0</ele><time>2026-04-16T09:25:43.853Z</time></trkpt><trkpt lat="42.58402" lon="-8.4060067"><ele>497.0</ele><time>2026-04-16T09:25:44.853Z</time></trkpt><trkpt lat="42.5839933" lon="-8.4061683"><ele>497.0</ele><time>2026-04-16T09:25:45.854Z</time></trkpt><trkpt lat="42.5839667" lon="-8.4063317"><ele>497.0</ele><time>2026-04-16T09:25:46.854Z</time></trkpt><trkpt lat="42.5839433" lon="-8.4064933"><ele>497.0</ele><time>2026-04-16T09:25:47.853Z</time></trkpt><trkpt lat="42.58392" lon="-8.4066583"><ele>498.0</ele><time>2026-04-16T09:25:48.854Z</time></trkpt><trkpt lat="42.5839" lon="-8.40682"><ele>499.0</ele><time>2026-04-16T09:25:49.853Z</time></trkpt><trkpt lat="42.583885" lon="-8.4069667"><ele>500.0</ele><time>2026-04-16T09:25:50.854Z</time></trkpt><trkpt lat="42.583865" lon="-8.4071167"><ele>501.0</ele><time>2026-04-16T09:25:51.854Z</time></trkpt><trkpt lat="42.5838433" lon="-8.4072633"><ele>502.0</ele><time>2026-04-16T09:25:52.854Z</time></trkpt><trkpt lat="42.58382" lon="-8.407405"><ele>503.0</ele><time>2026-04-16T09:25:53.853Z</time></trkpt><trkpt lat="42.5837983" lon="-8.4075567"><ele>504.0</ele><time>2026-04-16T09:25:54.853Z</time></trkpt><trkpt lat="42.5837883" lon="-8.4077167"><ele>505.0</ele><time>2026-04-16T09:25:55.853Z</time></trkpt><trkpt lat="42.58378" lon="-8.407875"><ele>506.0</ele><time>2026-04-16T09:25:56.853Z</time></trkpt><trkpt lat="42.583775" lon="-8.4080333"><ele>507.0</ele><time>2026-04-16T09:25:57.854Z</time></trkpt><trkpt lat="42.583775" lon="-8.4081933"><ele>508.0</ele><time>2026-04-16T09:25:58.853Z</time></trkpt><trkpt lat="42.5837817" lon="-8.4083633"><ele>509.0</ele><time>2026-04-16T09:25:59.853Z</time></trkpt><trkpt lat="42.5837967" lon="-8.4085317"><ele>509.0</ele><time>2026-04-16T09:26:00.854Z</time></trkpt><trkpt lat="42.5838267" lon="-8.4086933"><ele>509.0</ele><time>2026-04-16T09:26:01.854Z</time></trkpt><trkpt lat="42.583855" lon="-8.4088517"><ele>509.0</ele><time>2026-04-16T09:26:02.854Z</time></trkpt><trkpt lat="42.5838817" lon="-8.409005"><ele>509.0</ele><time>2026-04-16T09:26:03.853Z</time></trkpt><trkpt lat="42.5838983" lon="-8.40916"><ele>509.0</ele><time>2026-04-16T09:26:04.853Z</time></trkpt><trkpt lat="42.5839017" lon="-8.4093167"><ele>509.0</ele><time>2026-04-16T09:26:05.854Z</time></trkpt><trkpt lat="42.5838817" lon="-8.4094683"><ele>509.0</ele><time>2026-04-16T09:26:06.854Z</time></trkpt><trkpt lat="42.5838433" lon="-8.409615"><ele>509.0</ele><time>2026-04-16T09:26:07.854Z</time></trkpt><trkpt lat="42.5837817" lon="-8.409745"><ele>509.5</ele><time>2026-04-16T09:26:08.853Z</time></trkpt><trkpt lat="42.5837083" lon="-8.409865"><ele>510.0</ele><time>2026-04-16T09:26:09.854Z</time></trkpt><trkpt lat="42.5836183" lon="-8.40998"><ele>510.5</ele><time>2026-04-16T09:26:10.853Z</time></trkpt><trkpt lat="42.5835183" lon="-8.4100833"><ele>511.0</ele><time>2026-04-16T09:26:11.853Z</time></trkpt><trkpt lat="42.5834167" lon="-8.4101917"><ele>509.0</ele><time>2026-04-16T09:26:12.853Z</time></trkpt><trkpt lat="42.5833167" lon="-8.4103"><ele>507.0</ele><time>2026-04-16T09:26:13.854Z</time></trkpt><trkpt lat="42.5832167" lon="-8.4104083"><ele>505.0</ele><time>2026-04-16T09:26:14.854Z</time></trkpt><trkpt lat="42.5831167" lon="-8.4105183"><ele>503.0</ele><time>2026-04-16T09:26:15.854Z</time></trkpt><trkpt lat="42.5830217" lon="-8.4106283"><ele>503.0</ele><time>2026-04-16T09:26:16.853Z</time></trkpt><trkpt lat="42.5829283" lon="-8.4107367"><ele>503.0</ele><time>2026-04-16T09:26:17.853Z</time></trkpt><trkpt lat="42.5828367" lon="-8.4108433"><ele>503.0</ele><time>2026-04-16T09:26:18.854Z</time></trkpt><trkpt lat="42.5827517" lon="-8.4109533"><ele>503.0</ele><time>2026-04-16T09:26:19.853Z</time></trkpt><trkpt lat="42.58268" lon="-8.4110833"><ele>502.3333333333333</ele><time>2026-04-16T09:26:20.854Z</time></trkpt><trkpt lat="42.582615" lon="-8.4112083"><ele>501.66666666666663</ele><time>2026-04-16T09:26:21.853Z</time></trkpt><trkpt lat="42.5825717" lon="-8.4113517"><ele>501.0</ele><time>2026-04-16T09:26:22.854Z</time></trkpt><trkpt lat="42.583865" lon="-8.4071167"><ele>501.8</ele><time>2026-04-16T09:25:51.854Z</time></trkpt><trkpt lat="42.5838433" lon="-8.4072633"><ele>502.6</ele><time>2026-04-16T09:25:52.854Z</time></trkpt><trkpt lat="42.58382" lon="-8.407405"><ele>503.4</ele><time>2026-04-16T09:25:53.853Z</time></trkpt><trkpt lat="42.5837983" lon="-8.4075567"><ele>504.2</ele><time>2026-04-16T09:25:54.853Z</time></trkpt><trkpt lat="42.5837883" lon="-8.4077167"><ele>505.0</ele><time>2026-04-16T09:25:55.853Z</time></trkpt><trkpt lat="42.58378" lon="-8.407875"><ele>506.0</ele><time>2026-04-16T09:25:56.853Z</time></trkpt><trkpt lat="42.583775" lon="-8.4080333"><ele>507.0</ele><time>2026-04-16T09:25:57.854Z</time></trkpt><trkpt lat="42.583775" lon="-8.4081933"><ele>508.0</ele><time>2026-04-16T09:25:58.853Z</time></trkpt><trkpt lat="42.5837817" lon="-8.4083633"><ele>509.0</ele><time>2026-04-16T09:25:59.853Z</time></trkpt><trkpt lat="42.5837967" lon="-8.4085317"><ele>509.0</ele><time>2026-04-16T09:26:00.854Z</time></trkpt><trkpt lat="42.5838267" lon="-8.4086933"><ele>509.0</ele><time>2026-04-16T09:26:01.854Z</time></trkpt><trkpt lat="42.583855" lon="-8.4088517"><ele>509.0</ele><time>2026-04-16T09:26:02.854Z</time></trkpt><trkpt lat="42.5838817" lon="-8.409005"><ele>509.0</ele><time>2026-04-16T09:26:03.853Z</time></trkpt><trkpt lat="42.5838983" lon="-8.40916"><ele>509.0</ele><time>2026-04-16T09:26:04.853Z</time></trkpt><trkpt lat="42.5839017" lon="-8.4093167"><ele>509.0</ele><time>2026-04-16T09:26:05.854Z</time></trkpt><trkpt lat="42.5838817" lon="-8.4094683"><ele>509.0</ele><time>2026-04-16T09:26:06.854Z</time></trkpt><trkpt lat="42.5838433" lon="-8.409615"><ele>509.0</ele><time>2026-04-16T09:26:07.854Z</time></trkpt><trkpt lat="42.5837817" lon="-8.409745"><ele>509.5</ele><time>2026-04-16T09:26:08.853Z</time></trkpt><trkpt lat="42.5837083" lon="-8.409865"><ele>510.0</ele><time>2026-04-16T09:26:09.854Z</time></trkpt><trkpt lat="42.5836183" lon="-8.40998"><ele>510.5</ele><time>2026-04-16T09:26:10.853Z</time></trkpt><trkpt lat="42.5835183" lon="-8.4100833"><ele>511.0</ele><time>2026-04-16T09:26:11.853Z</time></trkpt><trkpt lat="42.5834167" lon="-8.4101917"><ele>509.0</ele><time>2026-04-16T09:26:12.853Z</time></trkpt><trkpt lat="42.5833167" lon="-8.4103"><ele>507.0</ele><time>2026-04-16T09:26:13.854Z</time></trkpt><trkpt lat="42.5832167" lon="-8.4104083"><ele>505.0</ele><time>2026-04-16T09:26:14.854Z</time></trkpt><trkpt lat="42.5831167" lon="-8.4105183"><ele>503.0</ele><time>2026-04-16T09:26:15.854Z</time></trkpt><trkpt lat="42.5830217" lon="-8.4106283"><ele>503.0</ele><time>2026-04-16T09:26:16.853Z</time></trkpt><trkpt lat="42.5829283" lon="-8.4107367"><ele>503.0</ele><time>2026-04-16T09:26:17.853Z</time></trkpt><trkpt lat="42.5828367" lon="-8.4108433"><ele>503.0</ele><time>2026-04-16T09:26:18.854Z</time></trkpt><trkpt lat="42.5827517" lon="-8.4109533"><ele>503.0</ele><time>2026-04-16T09:26:19.853Z</time></trkpt><trkpt lat="42.58268" lon="-8.4110833"><ele>500.75</ele><time>2026-04-16T09:26:20.854Z</time></trkpt><trkpt lat="42.582615" lon="-8.4112083"><ele>498.5</ele><time>2026-04-16T09:26:21.853Z</time></trkpt><trkpt lat="42.5825717" lon="-8.4113517"><ele>496.25</ele><time>2026-04-16T09:26:22.854Z</time></trkpt><trkpt lat="42.5825417" lon="-8.4115067"><ele>494.0</ele><time>2026-04-16T09:26:23.854Z</time></trkpt><trkpt lat="42.58252" lon="-8.411675"><ele>494.0</ele><time>2026-04-16T09:26:24.853Z</time></trkpt><trkpt lat="42.5825083" lon="-8.4118367"><ele>494.0</ele><time>2026-04-16T09:26:25.853Z</time></trkpt><trkpt lat="42.5825" lon="-8.41199"><ele>494.0</ele><time>2026-04-16T09:26:26.853Z</time></trkpt><trkpt lat="42.5824933" lon="-8.4121367"><ele>494.0</ele><time>2026-04-16T09:26:27.854Z</time></trkpt><trkpt lat="42.58249" lon="-8.412265"><ele>494.0</ele><time>2026-04-16T09:26:28.854Z</time></trkpt><trkpt lat="42.5824917" lon="-8.4123717"><ele>494.0</ele><time>2026-04-16T09:26:29.853Z</time></trkpt><trkpt lat="42.582475" lon="-8.4124917"><ele>494.0</ele><time>2026-04-16T09:26:31.854Z</time></trkpt><trkpt lat="42.5824017" lon="-8.4123383"><ele>494.0</ele><time>2026-04-16T09:26:35.854Z</time></trkpt><trkpt lat="42.5823433" lon="-8.4122233"><ele>494.0</ele><time>2026-04-16T09:26:36.853Z</time></trkpt><trkpt lat="42.5822867" lon="-8.4121267"><ele>494.0</ele><time>2026-04-16T09:26:37.854Z</time></trkpt><trkpt lat="42.582235" lon="-8.41207"><ele>494.0</ele><time>2026-04-16T09:26:38.853Z</time></trkpt><trkpt lat="42.58212" lon="-8.4120483"><ele>494.0</ele><time>2026-04-16T09:26:40.854Z</time></trkpt><trkpt lat="42.5820617" lon="-8.4120883"><ele>494.0</ele><time>2026-04-16T09:26:41.854Z</time></trkpt><trkpt lat="42.582015" lon="-8.4121767"><ele>494.0</ele><time>2026-04-16T09:26:42.854Z</time></trkpt><trkpt lat="42.581975" lon="-8.4123167"><ele>494.0</ele><time>2026-04-16T09:26:43.853Z</time></trkpt><trkpt lat="42.58197" lon="-8.4124783"><ele>494.75</ele><time>2026-04-16T09:26:44.853Z</time></trkpt><trkpt lat="42.5819817" lon="-8.412635"><ele>495.5</ele><time>2026-04-16T09:26:45.853Z</time></trkpt><trkpt lat="42.5820183" lon="-8.4127983"><ele>496.25</ele><time>2026-04-16T09:26:46.853Z</time></trkpt><trkpt lat="42.582065" lon="-8.4129583"><ele>497.0</ele><time>2026-04-16T09:26:47.853Z</time></trkpt><trkpt lat="42.5821183" lon="-8.4131267"><ele>494.25</ele><time>2026-04-16T09:26:48.853Z</time></trkpt><trkpt lat="42.58217" lon="-8.4132783"><ele>491.5</ele><time>2026-04-16T09:26:49.853Z</time></trkpt><trkpt lat="42.5822183" lon="-8.41343"><ele>488.75</ele><time>2026-04-16T09:26:50.853Z</time></trkpt><trkpt lat="42.5822667" lon="-8.4135817"><ele>486.0</ele><time>2026-04-16T09:26:51.854Z</time></trkpt><trkpt lat="42.58231" lon="-8.4137267"><ele>482.5</ele><time>2026-04-16T09:26:52.853Z</time></trkpt><trkpt lat="42.5823517" lon="-8.4138783"><ele>479.0</ele><time>2026-04-16T09:26:53.854Z</time></trkpt><trkpt lat="42.5823933" lon="-8.4140283"><ele>475.5</ele><time>2026-04-16T09:26:54.853Z</time></trkpt><trkpt lat="42.582435" lon="-8.4141733"><ele>472.0</ele><time>2026-04-16T09:26:55.853Z</time></trkpt><trkpt lat="42.5824817" lon="-8.4143183"><ele>472.0</ele><time>2026-04-16T09:26:56.853Z</time></trkpt><trkpt lat="42.5825367" lon="-8.414455"><ele>472.00000000000006</ele><time>2026-04-16T09:26:57.854Z</time></trkpt><trkpt lat="42.5825883" lon="-8.4145917"><ele>472.00000000000006</ele><time>2026-04-16T09:26:58.854Z</time></trkpt><trkpt lat="42.5826483" lon="-8.4147233"><ele>472.0</ele><time>2026-04-16T09:26:59.854Z</time></trkpt><trkpt lat="42.5826917" lon="-8.414855"><ele>472.0</ele><time>2026-04-16T09:27:00.853Z</time></trkpt><trkpt lat="42.5827367" lon="-8.4149767"><ele>472.40000000000003</ele><time>2026-04-16T09:27:01.854Z</time></trkpt><trkpt lat="42.5827867" lon="-8.41509"><ele>472.80000000000007</ele><time>2026-04-16T09:27:02.854Z</time></trkpt><trkpt lat="42.5828417" lon="-8.415205"><ele>473.2</ele><time>2026-04-16T09:27:03.853Z</time></trkpt><trkpt lat="42.58291" lon="-8.4153183"><ele>473.6</ele><time>2026-04-16T09:27:04.853Z</time></trkpt><trkpt lat="42.58297" lon="-8.4154233"><ele>474.0</ele><time>2026-04-16T09:27:05.854Z</time></trkpt><trkpt lat="42.5830333" lon="-8.41555"><ele>474.0</ele><time>2026-04-16T09:27:06.853Z</time></trkpt><trkpt lat="42.58309" lon="-8.4156833"><ele>474.0</ele><time>2026-04-16T09:27:07.853Z</time></trkpt><trkpt lat="42.58314" lon="-8.4158217"><ele>474.0</ele><time>2026-04-16T09:27:08.853Z</time></trkpt><trkpt lat="42.5831717" lon="-8.41596"><ele>474.0</ele><time>2026-04-16T09:27:09.853Z</time></trkpt><trkpt lat="42.583205" lon="-8.4160967"><ele>474.0</ele><time>2026-04-16T09:27:10.854Z</time></trkpt><trkpt lat="42.5832367" lon="-8.416225"><ele>471.4</ele><time>2026-04-16T09:27:11.854Z</time></trkpt><trkpt lat="42.583275" lon="-8.4163533"><ele>468.79999999999995</ele><time>2026-04-16T09:27:12.854Z</time></trkpt><trkpt lat="42.5833233" lon="-8.4164717"><ele>466.20000000000005</ele><time>2026-04-16T09:27:13.854Z</time></trkpt><trkpt lat="42.583385" lon="-8.4166"><ele>463.6</ele><time>2026-04-16T09:27:14.853Z</time></trkpt><trkpt lat="42.5834567" lon="-8.4167333"><ele>461.0</ele><time>2026-04-16T09:27:15.853Z</time></trkpt><trkpt lat="42.5835267" lon="-8.4168617"><ele>461.0</ele><time>2026-04-16T09:27:16.853Z</time></trkpt><trkpt lat="42.5835867" lon="-8.41697"><ele>461.0</ele><time>2026-04-16T09:27:17.853Z</time></trkpt><trkpt lat="42.5836583" lon="-8.41706"><ele>461.0</ele><time>2026-04-16T09:27:18.854Z</time></trkpt><trkpt lat="42.5837533" lon="-8.417155"><ele>461.0</ele><time>2026-04-16T09:27:19.853Z</time></trkpt><trkpt lat="42.5838517" lon="-8.4172367"><ele>461.0</ele><time>2026-04-16T09:27:20.853Z</time></trkpt><trkpt lat="42.583945" lon="-8.4173167"><ele>459.6</ele><time>2026-04-16T09:27:21.853Z</time></trkpt><trkpt lat="42.58402" lon="-8.4173917"><ele>458.20000000000005</ele><time>2026-04-16T09:27:22.854Z</time></trkpt><trkpt lat="42.5841383" lon="-8.4175017"><ele>456.79999999999995</ele><time>2026-04-16T09:27:23.853Z</time></trkpt><trkpt lat="42.58417" lon="-8.4176"><ele>455.4</ele><time>2026-04-16T09:27:24.853Z</time></trkpt><trkpt lat="42.5841817" lon="-8.417705"><ele>454.0</ele><time>2026-04-16T09:27:25.854Z</time></trkpt><trkpt lat="42.5841817" lon="-8.417805"><ele>454.00000000000006</ele><time>2026-04-16T09:27:26.853Z</time></trkpt><trkpt lat="42.5841517" lon="-8.417885"><ele>454.0</ele><time>2026-04-16T09:27:27.853Z</time></trkpt><trkpt lat="42.5841017" lon="-8.4179533"><ele>454.0</ele><time>2026-04-16T09:27:28.853Z</time></trkpt><trkpt lat="42.5840367" lon="-8.417995"><ele>454.0</ele><time>2026-04-16T09:27:29.854Z</time></trkpt><trkpt lat="42.5839567" lon="-8.4179867"><ele>454.00000000000006</ele><time>2026-04-16T09:27:30.853Z</time></trkpt><trkpt lat="42.5838583" lon="-8.4179483"><ele>454.0</ele><time>2026-04-16T09:27:31.853Z</time></trkpt><trkpt lat="42.5836967" lon="-8.417925"><ele>453.75</ele><time>2026-04-16T09:27:32.853Z</time></trkpt><trkpt lat="42.5835633" lon="-8.41792"><ele>453.5</ele><time>2026-04-16T09:27:33.854Z</time></trkpt><trkpt lat="42.583435" lon="-8.4179183"><ele>453.25</ele><time>2026-04-16T09:27:34.853Z</time></trkpt><trkpt lat="42.5833" lon="-8.4179217"><ele>453.0</ele><time>2026-04-16T09:27:35.854Z</time></trkpt><trkpt lat="42.5831733" lon="-8.417935"><ele>453.0</ele><time>2026-04-16T09:27:36.854Z</time></trkpt><trkpt lat="42.5830483" lon="-8.4179483"><ele>453.0</ele><time>2026-04-16T09:27:37.854Z</time></trkpt><trkpt lat="42.5829233" lon="-8.417965"><ele>453.0</ele><time>2026-04-16T09:27:38.853Z</time></trkpt><trkpt lat="42.582805" lon="-8.4179917"><ele>453.0</ele><time>2026-04-16T09:27:39.853Z</time></trkpt><trkpt lat="42.582685" lon="-8.41803"><ele>452.25</ele><time>2026-04-16T09:27:40.854Z</time></trkpt><trkpt lat="42.582575" lon="-8.41809"><ele>451.5</ele><time>2026-04-16T09:27:41.853Z</time></trkpt><trkpt lat="42.5824733" lon="-8.4181683"><ele>450.75</ele><time>2026-04-16T09:27:42.853Z</time></trkpt><trkpt lat="42.58237" lon="-8.4182717"><ele>450.0</ele><time>2026-04-16T09:27:43.853Z</time></trkpt><trkpt lat="42.5823" lon="-8.4184017"><ele>450.0</ele><time>2026-04-16T09:27:44.853Z</time></trkpt><trkpt lat="42.5822517" lon="-8.41854"><ele>450.0</ele><time>2026-04-16T09:27:45.853Z</time></trkpt><trkpt lat="42.582215" lon="-8.41869"><ele>450.0</ele><time>2026-04-16T09:27:46.853Z</time></trkpt><trkpt lat="42.5821933" lon="-8.4188483"><ele>450.0</ele><time>2026-04-16T09:27:47.854Z</time></trkpt><trkpt lat="42.58217" lon="-8.4190167"><ele>451.0</ele><time>2026-04-16T09:27:48.854Z</time></trkpt><trkpt lat="42.5821517" lon="-8.4191733"><ele>452.0</ele><time>2026-04-16T09:27:49.853Z</time></trkpt><trkpt lat="42.5837533" lon="-8.417155"><ele>452.5</ele><time>2026-04-16T09:27:19.853Z</time></trkpt><trkpt lat="42.5838517" lon="-8.4172367"><ele>453.0</ele><time>2026-04-16T09:27:20.853Z</time></trkpt><trkpt lat="42.583945" lon="-8.4173167"><ele>453.5</ele><time>2026-04-16T09:27:21.853Z</time></trkpt><trkpt lat="42.58402" lon="-8.4173917"><ele>454.0</ele><time>2026-04-16T09:27:22.854Z</time></trkpt><trkpt lat="42.5841383" lon="-8.4175017"><ele>454.0</ele><time>2026-04-16T09:27:23.853Z</time></trkpt><trkpt lat="42.58417" lon="-8.4176"><ele>454.00000000000006</ele><time>2026-04-16T09:27:24.853Z</time></trkpt><trkpt lat="42.5841817" lon="-8.417705"><ele>454.0</ele><time>2026-04-16T09:27:25.854Z</time></trkpt><trkpt lat="42.5841817" lon="-8.417805"><ele>454.0</ele><time>2026-04-16T09:27:26.853Z</time></trkpt><trkpt lat="42.5841517" lon="-8.417885"><ele>454.00000000000006</ele><time>2026-04-16T09:27:27.853Z</time></trkpt><trkpt lat="42.5841017" lon="-8.4179533"><ele>454.0</ele><time>2026-04-16T09:27:28.853Z</time></trkpt><trkpt lat="42.5840367" lon="-8.417995"><ele>454.0</ele><time>2026-04-16T09:27:29.854Z</time></trkpt><trkpt lat="42.5839567" lon="-8.4179867"><ele>454.0</ele><time>2026-04-16T09:27:30.853Z</time></trkpt><trkpt lat="42.5838583" lon="-8.4179483"><ele>454.0</ele><time>2026-04-16T09:27:31.853Z</time></trkpt><trkpt lat="42.5836967" lon="-8.417925"><ele>454.0</ele><time>2026-04-16T09:27:32.853Z</time></trkpt><trkpt lat="42.5835633" lon="-8.41792"><ele>454.0</ele><time>2026-04-16T09:27:33.854Z</time></trkpt><trkpt lat="42.583435" lon="-8.4179183"><ele>453.75</ele><time>2026-04-16T09:27:34.853Z</time></trkpt><trkpt lat="42.5833" lon="-8.4179217"><ele>453.5</ele><time>2026-04-16T09:27:35.854Z</time></trkpt><trkpt lat="42.5831733" lon="-8.417935"><ele>453.25</ele><time>2026-04-16T09:27:36.854Z</time></trkpt><trkpt lat="42.5830483" lon="-8.4179483"><ele>453.0</ele><time>2026-04-16T09:27:37.854Z</time></trkpt><trkpt lat="42.5829233" lon="-8.417965"><ele>452.25</ele><time>2026-04-16T09:27:38.853Z</time></trkpt><trkpt lat="42.582805" lon="-8.4179917"><ele>451.5</ele><time>2026-04-16T09:27:39.853Z</time></trkpt><trkpt lat="42.582685" lon="-8.41803"><ele>450.75</ele><time>2026-04-16T09:27:40.854Z</time></trkpt><trkpt lat="42.582575" lon="-8.41809"><ele>450.0</ele><time>2026-04-16T09:27:41.853Z</time></trkpt><trkpt lat="42.5824733" lon="-8.4181683"><ele>450.0</ele><time>2026-04-16T09:27:42.853Z</time></trkpt><trkpt lat="42.58237" lon="-8.4182717"><ele>450.0</ele><time>2026-04-16T09:27:43.853Z</time></trkpt><trkpt lat="42.5823" lon="-8.4184017"><ele>450.0</ele><time>2026-04-16T09:27:44.853Z</time></trkpt><trkpt lat="42.5822517" lon="-8.41854"><ele>450.0</ele><time>2026-04-16T09:27:45.853Z</time></trkpt><trkpt lat="42.582215" lon="-8.41869"><ele>450.5</ele><time>2026-04-16T09:27:46.853Z</time></trkpt><trkpt lat="42.5821933" lon="-8.4188483"><ele>451.0</ele><time>2026-04-16T09:27:47.854Z</time></trkpt><trkpt lat="42.58217" lon="-8.4190167"><ele>451.5</ele><time>2026-04-16T09:27:48.854Z</time></trkpt><trkpt lat="42.5821517" lon="-8.4191733"><ele>452.0</ele><time>2026-04-16T09:27:49.853Z</time></trkpt><trkpt lat="42.58212" lon="-8.419315"><ele>452.0</ele><time>2026-04-16T09:27:50.854Z</time></trkpt><trkpt lat="42.58207" lon="-8.419435"><ele>452.0</ele><time>2026-04-16T09:27:51.854Z</time></trkpt><trkpt lat="42.582005" lon="-8.41956"><ele>452.0</ele><time>2026-04-16T09:27:52.854Z</time></trkpt><trkpt lat="42.5819167" lon="-8.4196667"><ele>452.0</ele><time>2026-04-16T09:27:53.853Z</time></trkpt><trkpt lat="42.58183" lon="-8.4197833"><ele>449.6</ele><time>2026-04-16T09:27:54.854Z</time></trkpt><trkpt lat="42.5817567" lon="-8.41992"><ele>447.20000000000005</ele><time>2026-04-16T09:27:55.853Z</time></trkpt><trkpt lat="42.5816967" lon="-8.4200567"><ele>444.8</ele><time>2026-04-16T09:27:56.854Z</time></trkpt><trkpt lat="42.5816517" lon="-8.42019"><ele>442.4</ele><time>2026-04-16T09:27:57.854Z</time></trkpt><trkpt lat="42.5816333" lon="-8.42032"><ele>440.0</ele><time>2026-04-16T09:27:58.854Z</time></trkpt><trkpt lat="42.5816233" lon="-8.4204533"><ele>440.6</ele><time>2026-04-16T09:27:59.854Z</time></trkpt><trkpt lat="42.5816467" lon="-8.4205833"><ele>441.2</ele><time>2026-04-16T09:28:00.854Z</time></trkpt><trkpt lat="42.5816717" lon="-8.4207183"><ele>441.79999999999995</ele><time>2026-04-16T09:28:01.853Z</time></trkpt><trkpt lat="42.5816817" lon="-8.4208433"><ele>442.4</ele><time>2026-04-16T09:28:02.854Z</time></trkpt><trkpt lat="42.5816667" lon="-8.4209683"><ele>443.0</ele><time>2026-04-16T09:28:03.853Z</time></trkpt><trkpt lat="42.58163" lon="-8.42111"><ele>443.0</ele><time>2026-04-16T09:28:04.853Z</time></trkpt><trkpt lat="42.5815683" lon="-8.4212417"><ele>443.0</ele><time>2026-04-16T09:28:05.853Z</time></trkpt><trkpt lat="42.58149" lon="-8.4213783"><ele>443.0</ele><time>2026-04-16T09:28:06.853Z</time></trkpt><trkpt lat="42.5814017" lon="-8.421505"><ele>443.0</ele><time>2026-04-16T09:28:07.854Z</time></trkpt><trkpt lat="42.5813167" lon="-8.4216267"><ele>442.5</ele><time>2026-04-16T09:28:08.854Z</time></trkpt><trkpt lat="42.58123" lon="-8.421755"><ele>442.0</ele><time>2026-04-16T09:28:09.854Z</time></trkpt><trkpt lat="42.5811433" lon="-8.4218867"><ele>441.5</ele><time>2026-04-16T09:28:10.853Z</time></trkpt><trkpt lat="42.5810617" lon="-8.42202"><ele>441.0</ele><time>2026-04-16T09:28:11.853Z</time></trkpt><trkpt lat="42.5809833" lon="-8.4221483"><ele>438.0</ele><time>2026-04-16T09:28:12.853Z</time></trkpt><trkpt lat="42.580905" lon="-8.4222767"><ele>435.0</ele><time>2026-04-16T09:28:13.853Z</time></trkpt><trkpt lat="42.5808283" lon="-8.4224033"><ele>432.0</ele><time>2026-04-16T09:28:14.853Z</time></trkpt><trkpt lat="42.5807567" lon="-8.422525"><ele>429.0</ele><time>2026-04-16T09:28:15.854Z</time></trkpt><trkpt lat="42.580675" lon="-8.4225933"><ele>429.0</ele><time>2026-04-16T09:28:16.853Z</time></trkpt><trkpt lat="42.5806033" lon="-8.4226417"><ele>429.0</ele><time>2026-04-16T09:28:17.854Z</time></trkpt><trkpt lat="42.580545" lon="-8.4226983"><ele>429.0</ele><time>2026-04-16T09:28:18.854Z</time></trkpt><trkpt lat="42.5804833" lon="-8.42274"><ele>429.0</ele><time>2026-04-16T09:28:19.854Z</time></trkpt><trkpt lat="42.58041" lon="-8.42277"><ele>429.0</ele><time>2026-04-16T09:28:20.853Z</time></trkpt><trkpt lat="42.580315" lon="-8.4228017"><ele>429.0</ele><time>2026-04-16T09:28:21.853Z</time></trkpt><trkpt lat="42.5802083" lon="-8.4228067"><ele>427.6</ele><time>2026-04-16T09:28:22.854Z</time></trkpt><trkpt lat="42.58011" lon="-8.4228067"><ele>426.2</ele><time>2026-04-16T09:28:23.853Z</time></trkpt><trkpt lat="42.5800133" lon="-8.4228083"><ele>424.8</ele><time>2026-04-16T09:28:24.853Z</time></trkpt><trkpt lat="42.57991" lon="-8.422835"><ele>423.40000000000003</ele><time>2026-04-16T09:28:25.853Z</time></trkpt><trkpt lat="42.57981" lon="-8.4228817"><ele>422.0</ele><time>2026-04-16T09:28:26.855Z</time></trkpt><trkpt lat="42.57972" lon="-8.4229617"><ele>423.25</ele><time>2026-04-16T09:28:27.855Z</time></trkpt><trkpt lat="42.5796383" lon="-8.4230583"><ele>424.5</ele><time>2026-04-16T09:28:28.855Z</time></trkpt><trkpt lat="42.5795567" lon="-8.423175"><ele>425.75</ele><time>2026-04-16T09:28:29.855Z</time></trkpt><trkpt lat="42.57948" lon="-8.42329"><ele>427.0</ele><time>2026-04-16T09:28:30.855Z</time></trkpt><trkpt lat="42.5794033" lon="-8.4234033"><ele>425.0</ele><time>2026-04-16T09:28:31.855Z</time></trkpt><trkpt lat="42.57933" lon="-8.423515"><ele>423.00000000000006</ele><time>2026-04-16T09:28:32.855Z</time></trkpt><trkpt lat="42.5792583" lon="-8.4236183"><ele>421.0</ele><time>2026-04-16T09:28:33.854Z</time></trkpt><trkpt lat="42.579185" lon="-8.4237317"><ele>419.0</ele><time>2026-04-16T09:28:34.855Z</time></trkpt><trkpt lat="42.579115" lon="-8.4238583"><ele>417.0</ele><time>2026-04-16T09:28:35.854Z</time></trkpt><trkpt lat="42.57905" lon="-8.4239983"><ele>415.0</ele><time>2026-04-16T09:28:36.855Z</time></trkpt><trkpt lat="42.5789733" lon="-8.42414"><ele>413.0</ele><time>2026-04-16T09:28:37.854Z</time></trkpt><trkpt lat="42.5788917" lon="-8.4242617"><ele>411.0</ele><time>2026-04-16T09:28:38.854Z</time></trkpt><trkpt lat="42.5787917" lon="-8.4243483"><ele>409.0</ele><time>2026-04-16T09:28:39.854Z</time></trkpt><trkpt lat="42.57868" lon="-8.4244117"><ele>406.75</ele><time>2026-04-16T09:28:40.855Z</time></trkpt><trkpt lat="42.578555" lon="-8.424455"><ele>404.5</ele><time>2026-04-16T09:28:41.855Z</time></trkpt><trkpt lat="42.5784333" lon="-8.4244983"><ele>402.25</ele><time>2026-04-16T09:28:42.855Z</time></trkpt><trkpt lat="42.5783267" lon="-8.4245717"><ele>400.0</ele><time>2026-04-16T09:28:43.855Z</time></trkpt><trkpt lat="42.5782283" lon="-8.424665"><ele>400.0</ele><time>2026-04-16T09:28:44.854Z</time></trkpt><trkpt lat="42.5781333" lon="-8.4247817"><ele>400.0</ele><time>2026-04-16T09:28:45.855Z</time></trkpt><trkpt lat="42.5780467" lon="-8.4249067"><ele>400.0</ele><time>2026-04-16T09:28:46.854Z</time></trkpt><trkpt lat="42.5779567" lon="-8.4250217"><ele>400.0</ele><time>2026-04-16T09:28:47.855Z</time></trkpt><trkpt lat="42.5778683" lon="-8.4251383"><ele>397.2</ele><time>2026-04-16T09:28:48.854Z</time></trkpt><trkpt lat="42.57778" lon="-8.4252667"><ele>394.4</ele><time>2026-04-16T09:28:49.854Z</time></trkpt><trkpt lat="42.577695" lon="-8.4253567"><ele>391.6</ele><time>2026-04-16T09:28:50.854Z</time></trkpt><trkpt lat="42.5776017" lon="-8.4254183"><ele>388.8</ele><time>2026-04-16T09:28:51.854Z</time></trkpt><trkpt lat="42.5775" lon="-8.42546"><ele>386.0</ele><time>2026-04-16T09:28:52.855Z</time></trkpt><trkpt lat="42.57739" lon="-8.4254767"><ele>386.0</ele><time>2026-04-16T09:28:53.854Z</time></trkpt><trkpt lat="42.5772817" lon="-8.42546"><ele>386.0</ele><time>2026-04-16T09:28:54.854Z</time></trkpt><trkpt lat="42.5771717" lon="-8.425435"><ele>386.0</ele><time>2026-04-16T09:28:55.854Z</time></trkpt><trkpt lat="42.5770633" lon="-8.4253933"><ele>386.0</ele><time>2026-04-16T09:28:56.855Z</time></trkpt><trkpt lat="42.5769567" lon="-8.4253383"><ele>386.0</ele><time>2026-04-16T09:28:57.854Z</time></trkpt><trkpt lat="42.5768567" lon="-8.42528"><ele>384.66666666666663</ele><time>2026-04-16T09:28:58.854Z</time></trkpt><trkpt lat="42.57676" lon="-8.4252133"><ele>383.3333333333333</ele><time>2026-04-16T09:28:59.855Z</time></trkpt><trkpt lat="42.57667" lon="-8.4251767"><ele>382.0</ele><time>2026-04-16T09:29:00.855Z</time></trkpt><trkpt lat="42.5765833" lon="-8.4251733"><ele>380.66666666666663</ele><time>2026-04-16T09:29:01.854Z</time></trkpt><trkpt lat="42.5765133" lon="-8.4252117"><ele>379.3333333333333</ele><time>2026-04-16T09:29:02.854Z</time></trkpt><trkpt lat="42.5764617" lon="-8.42528"><ele>378.0</ele><time>2026-04-16T09:29:03.854Z</time></trkpt><trkpt lat="42.57643" lon="-8.4253617"><ele>378.0</ele><time>2026-04-16T09:29:04.854Z</time></trkpt><trkpt lat="42.5764633" lon="-8.4254583"><ele>378.0</ele><time>2026-04-16T09:29:05.854Z</time></trkpt><trkpt lat="42.576525" lon="-8.4255517"><ele>378.0</ele><time>2026-04-16T09:29:06.854Z</time></trkpt><trkpt lat="42.5766" lon="-8.4256683"><ele>378.0</ele><time>2026-04-16T09:29:07.855Z</time></trkpt><trkpt lat="42.576675" lon="-8.4257933"><ele>378.0</ele><time>2026-04-16T09:29:08.854Z</time></trkpt><trkpt lat="42.57675" lon="-8.42592"><ele>378.0</ele><time>2026-04-16T09:29:09.854Z</time></trkpt><trkpt lat="42.5768233" lon="-8.4260533"><ele>378.0</ele><time>2026-04-16T09:29:10.855Z</time></trkpt><trkpt lat="42.5768883" lon="-8.4261817"><ele>378.0</ele><time>2026-04-16T09:29:11.854Z</time></trkpt><trkpt lat="42.5769567" lon="-8.4263"><ele>378.0</ele><time>2026-04-16T09:29:12.854Z</time></trkpt><trkpt lat="42.5770217" lon="-8.426425"><ele>378.0</ele><time>2026-04-16T09:29:13.855Z</time></trkpt><trkpt lat="42.5770867" lon="-8.4265467"><ele>378.0</ele><time>2026-04-16T09:29:14.854Z</time></trkpt><trkpt lat="42.57715" lon="-8.4266867"><ele>378.0</ele><time>2026-04-16T09:29:15.855Z</time></trkpt><trkpt lat="42.5771967" lon="-8.4268283"><ele>378.0</ele><time>2026-04-16T09:29:16.855Z</time></trkpt><trkpt lat="42.57723" lon="-8.426975"><ele>400.0</ele><time>2026-04-16T09:29:17.854Z</time></trkpt><trkpt lat="42.5780467" lon="-8.4249067"><ele>400.0</ele><time>2026-04-16T09:28:46.854Z</time></trkpt><trkpt lat="42.5779567" lon="-8.4250217"><ele>400.0</ele><time>2026-04-16T09:28:47.855Z</time></trkpt><trkpt lat="42.5778683" lon="-8.4251383"><ele>400.0</ele><time>2026-04-16T09:28:48.854Z</time></trkpt><trkpt lat="42.57778" lon="-8.4252667"><ele>400.0</ele><time>2026-04-16T09:28:49.854Z</time></trkpt><trkpt lat="42.577695" lon="-8.4253567"><ele>397.2</ele><time>2026-04-16T09:28:50.854Z</time></trkpt><trkpt lat="42.5776017" lon="-8.4254183"><ele>394.4</ele><time>2026-04-16T09:28:51.854Z</time></trkpt><trkpt lat="42.5775" lon="-8.42546"><ele>391.6</ele><time>2026-04-16T09:28:52.855Z</time></trkpt><trkpt lat="42.57739" lon="-8.4254767"><ele>388.8</ele><time>2026-04-16T09:28:53.854Z</time></trkpt><trkpt lat="42.5772817" lon="-8.42546"><ele>386.0</ele><time>2026-04-16T09:28:54.854Z</time></trkpt><trkpt lat="42.5771717" lon="-8.425435"><ele>386.0</ele><time>2026-04-16T09:28:55.854Z</time></trkpt><trkpt lat="42.5770633" lon="-8.4253933"><ele>386.0</ele><time>2026-04-16T09:28:56.855Z</time></trkpt><trkpt lat="42.5769567" lon="-8.4253383"><ele>386.0</ele><time>2026-04-16T09:28:57.854Z</time></trkpt><trkpt lat="42.5768567" lon="-8.42528"><ele>386.0</ele><time>2026-04-16T09:28:58.854Z</time></trkpt><trkpt lat="42.57676" lon="-8.4252133"><ele>386.0</ele><time>2026-04-16T09:28:59.855Z</time></trkpt><trkpt lat="42.57667" lon="-8.4251767"><ele>384.66666666666663</ele><time>2026-04-16T09:29:00.855Z</time></trkpt><trkpt lat="42.5765833" lon="-8.4251733"><ele>383.3333333333333</ele><time>2026-04-16T09:29:01.854Z</time></trkpt><trkpt lat="42.5765133" lon="-8.4252117"><ele>382.0</ele><time>2026-04-16T09:29:02.854Z</time></trkpt><trkpt lat="42.5764617" lon="-8.42528"><ele>380.66666666666663</ele><time>2026-04-16T09:29:03.854Z</time></trkpt><trkpt lat="42.57643" lon="-8.4253617"><ele>379.3333333333333</ele><time>2026-04-16T09:29:04.854Z</time></trkpt><trkpt lat="42.5764633" lon="-8.4254583"><ele>378.0</ele><time>2026-04-16T09:29:05.854Z</time></trkpt><trkpt lat="42.576525" lon="-8.4255517"><ele>378.0</ele><time>2026-04-16T09:29:06.854Z</time></trkpt><trkpt lat="42.5766" lon="-8.4256683"><ele>378.0</ele><time>2026-04-16T09:29:07.855Z</time></trkpt><trkpt lat="42.576675" lon="-8.4257933"><ele>378.0</ele><time>2026-04-16T09:29:08.854Z</time></trkpt><trkpt lat="42.57675" lon="-8.42592"><ele>378.0</ele><time>2026-04-16T09:29:09.854Z</time></trkpt><trkpt lat="42.5768233" lon="-8.4260533"><ele>378.0</ele><time>2026-04-16T09:29:10.855Z</time></trkpt><trkpt lat="42.5768883" lon="-8.4261817"><ele>378.0</ele><time>2026-04-16T09:29:11.854Z</time></trkpt><trkpt lat="42.5769567" lon="-8.4263"><ele>378.0</ele><time>2026-04-16T09:29:12.854Z</time></trkpt><trkpt lat="42.5770217" lon="-8.426425"><ele>378.0</ele><time>2026-04-16T09:29:13.855Z</time></trkpt><trkpt lat="42.5770867" lon="-8.4265467"><ele>378.0</ele><time>2026-04-16T09:29:14.854Z</time></trkpt><trkpt lat="42.57715" lon="-8.4266867"><ele>378.0</ele><time>2026-04-16T09:29:15.855Z</time></trkpt><trkpt lat="42.5771967" lon="-8.4268283"><ele>378.0</ele><time>2026-04-16T09:29:16.855Z</time></trkpt><trkpt lat="42.57723" lon="-8.426975"><ele>378.0</ele><time>2026-04-16T09:29:17.854Z</time></trkpt><trkpt lat="42.577235" lon="-8.42713"><ele>378.0</ele><time>2026-04-16T09:29:18.855Z</time></trkpt><trkpt lat="42.5772267" lon="-8.4272867"><ele>377.2</ele><time>2026-04-16T09:29:19.855Z</time></trkpt><trkpt lat="42.577205" lon="-8.427425"><ele>376.4</ele><time>2026-04-16T09:29:20.854Z</time></trkpt><trkpt lat="42.5771567" lon="-8.427545"><ele>375.59999999999997</ele><time>2026-04-16T09:29:21.854Z</time></trkpt><trkpt lat="42.5770867" lon="-8.42764"><ele>374.79999999999995</ele><time>2026-04-16T09:29:22.854Z</time></trkpt><trkpt lat="42.5769967" lon="-8.42772"><ele>374.0</ele><time>2026-04-16T09:29:23.855Z</time></trkpt><trkpt lat="42.5768967" lon="-8.427795"><ele>371.5</ele><time>2026-04-16T09:29:24.854Z</time></trkpt><trkpt lat="42.5767833" lon="-8.4278567"><ele>369.0</ele><time>2026-04-16T09:29:25.855Z</time></trkpt><trkpt lat="42.5766667" lon="-8.4279117"><ele>366.5</ele><time>2026-04-16T09:29:26.854Z</time></trkpt><trkpt lat="42.5765517" lon="-8.42797"><ele>364.0</ele><time>2026-04-16T09:29:27.855Z</time></trkpt><trkpt lat="42.5764383" lon="-8.4280367"><ele>363.25</ele><time>2026-04-16T09:29:28.855Z</time></trkpt><trkpt lat="42.57632" lon="-8.428105"><ele>362.5</ele><time>2026-04-16T09:29:29.854Z</time></trkpt><trkpt lat="42.5762017" lon="-8.4281667"><ele>361.75</ele><time>2026-04-16T09:29:30.854Z</time></trkpt><trkpt lat="42.5760933" lon="-8.4282317"><ele>361.0</ele><time>2026-04-16T09:29:31.854Z</time></trkpt><trkpt lat="42.5759833" lon="-8.4282917"><ele>360.5</ele><time>2026-04-16T09:29:32.854Z</time></trkpt><trkpt lat="42.57587" lon="-8.4283567"><ele>360.0</ele><time>2026-04-16T09:29:33.854Z</time></trkpt><trkpt lat="42.5757517" lon="-8.42842"><ele>359.5</ele><time>2026-04-16T09:29:34.855Z</time></trkpt><trkpt lat="42.5756317" lon="-8.42848"><ele>359.0</ele><time>2026-04-16T09:29:35.854Z</time></trkpt><trkpt lat="42.57552" lon="-8.428545"><ele>359.0</ele><time>2026-04-16T09:29:36.855Z</time></trkpt><trkpt lat="42.5754083" lon="-8.428605"><ele>359.0</ele><time>2026-04-16T09:29:37.855Z</time></trkpt><trkpt lat="42.5753" lon="-8.4286667"><ele>359.0</ele><time>2026-04-16T09:29:38.854Z</time></trkpt><trkpt lat="42.5751933" lon="-8.4287217"><ele>359.0</ele><time>2026-04-16T09:29:39.854Z</time></trkpt><trkpt lat="42.5750867" lon="-8.4287817"><ele>360.0</ele><time>2026-04-16T09:29:40.855Z</time></trkpt><trkpt lat="42.5749833" lon="-8.4288417"><ele>361.0</ele><time>2026-04-16T09:29:41.855Z</time></trkpt><trkpt lat="42.5748817" lon="-8.4289017"><ele>362.0</ele><time>2026-04-16T09:29:42.855Z</time></trkpt><trkpt lat="42.5747717" lon="-8.42896"><ele>363.0</ele><time>2026-04-16T09:29:43.854Z</time></trkpt><trkpt lat="42.5746717" lon="-8.429035"><ele>363.0</ele><time>2026-04-16T09:29:44.854Z</time></trkpt><trkpt lat="42.5745617" lon="-8.4290883"><ele>363.0</ele><time>2026-04-16T09:29:45.855Z</time></trkpt><trkpt lat="42.57445" lon="-8.4291533"><ele>363.0</ele><time>2026-04-16T09:29:46.854Z</time></trkpt><trkpt lat="42.5743333" lon="-8.4292233"><ele>363.0</ele><time>2026-04-16T09:29:47.855Z</time></trkpt><trkpt lat="42.574215" lon="-8.4292933"><ele>362.75</ele><time>2026-04-16T09:29:48.854Z</time></trkpt><trkpt lat="42.574095" lon="-8.4293517"><ele>362.5</ele><time>2026-04-16T09:29:49.854Z</time></trkpt><trkpt lat="42.5739883" lon="-8.4294083"><ele>362.25</ele><time>2026-04-16T09:29:50.855Z</time></trkpt><trkpt lat="42.573885" lon="-8.429465"><ele>362.0</ele><time>2026-04-16T09:29:51.854Z</time></trkpt><trkpt lat="42.5737767" lon="-8.4295233"><ele>362.75</ele><time>2026-04-16T09:29:52.855Z</time></trkpt><trkpt lat="42.5736617" lon="-8.4295867"><ele>363.5</ele><time>2026-04-16T09:29:53.854Z</time></trkpt><trkpt lat="42.5735533" lon="-8.4296483"><ele>364.25</ele><time>2026-04-16T09:29:54.854Z</time></trkpt><trkpt lat="42.57344" lon="-8.4297083"><ele>365.0</ele><time>2026-04-16T09:29:55.855Z</time></trkpt><trkpt lat="42.5733183" lon="-8.4297683"><ele>365.0</ele><time>2026-04-16T09:29:56.855Z</time></trkpt><trkpt lat="42.573205" lon="-8.42983"><ele>365.0</ele><time>2026-04-16T09:29:57.855Z</time></trkpt><trkpt lat="42.5730917" lon="-8.42989"><ele>365.0</ele><time>2026-04-16T09:29:58.855Z</time></trkpt><trkpt lat="42.572985" lon="-8.42995"><ele>365.0</ele><time>2026-04-16T09:29:59.854Z</time></trkpt><trkpt lat="42.5728833" lon="-8.43002"><ele>366.0</ele><time>2026-04-16T09:30:00.854Z</time></trkpt><trkpt lat="42.5728033" lon="-8.4301167"><ele>367.0</ele><time>2026-04-16T09:30:01.855Z</time></trkpt><trkpt lat="42.57272" lon="-8.43024"><ele>368.0</ele><time>2026-04-16T09:30:02.854Z</time></trkpt><trkpt lat="42.5726617" lon="-8.4303883"><ele>369.0</ele><time>2026-04-16T09:30:03.854Z</time></trkpt><trkpt lat="42.5726033" lon="-8.43054"><ele>369.0</ele><time>2026-04-16T09:30:04.855Z</time></trkpt><trkpt lat="42.5725467" lon="-8.430685"><ele>369.0</ele><time>2026-04-16T09:30:05.854Z</time></trkpt><trkpt lat="42.572485" lon="-8.4308233"><ele>369.0</ele><time>2026-04-16T09:30:06.854Z</time></trkpt><trkpt lat="42.5724183" lon="-8.4309483"><ele>369.0</ele><time>2026-04-16T09:30:07.854Z</time></trkpt><trkpt lat="42.5723317" lon="-8.4310517"><ele>369.0</ele><time>2026-04-16T09:30:08.854Z</time></trkpt><trkpt lat="42.5722367" lon="-8.4311117"><ele>369.0</ele><time>2026-04-16T09:30:09.854Z</time></trkpt><trkpt lat="42.572125" lon="-8.431135"><ele>369.0</ele><time>2026-04-16T09:30:10.854Z</time></trkpt><trkpt lat="42.5720067" lon="-8.4311567"><ele>369.0</ele><time>2026-04-16T09:30:11.855Z</time></trkpt><trkpt lat="42.5718867" lon="-8.43117"><ele>368.0</ele><time>2026-04-16T09:30:12.855Z</time></trkpt><trkpt lat="42.571765" lon="-8.4311917"><ele>367.0</ele><time>2026-04-16T09:30:13.854Z</time></trkpt><trkpt lat="42.5716467" lon="-8.4312167"><ele>366.0</ele><time>2026-04-16T09:30:14.855Z</time></trkpt><trkpt lat="42.57153" lon="-8.4312467"><ele>365.0</ele><time>2026-04-16T09:30:15.854Z</time></trkpt><trkpt lat="42.5714117" lon="-8.4312817"><ele>366.5</ele><time>2026-04-16T09:30:16.854Z</time></trkpt><trkpt lat="42.5712983" lon="-8.4313233"><ele>368.0</ele><time>2026-04-16T09:30:17.855Z</time></trkpt><trkpt lat="42.5711917" lon="-8.4313783"><ele>369.5</ele><time>2026-04-16T09:30:18.854Z</time></trkpt><trkpt lat="42.57108" lon="-8.4314483"><ele>371.0</ele><time>2026-04-16T09:30:19.854Z</time></trkpt><trkpt lat="42.5709683" lon="-8.4315183"><ele>371.0</ele><time>2026-04-16T09:30:20.854Z</time></trkpt><trkpt lat="42.5708567" lon="-8.4315967"><ele>371.0</ele><time>2026-04-16T09:30:21.855Z</time></trkpt><trkpt lat="42.5707417" lon="-8.4316767"><ele>371.0</ele><time>2026-04-16T09:30:22.855Z</time></trkpt><trkpt lat="42.5706283" lon="-8.4317483"><ele>371.0</ele><time>2026-04-16T09:30:23.854Z</time></trkpt><trkpt lat="42.5705183" lon="-8.43181"><ele>371.0</ele><time>2026-04-16T09:30:24.854Z</time></trkpt><trkpt lat="42.5704083" lon="-8.4318783"><ele>371.0</ele><time>2026-04-16T09:30:25.855Z</time></trkpt><trkpt lat="42.5703017" lon="-8.4319467"><ele>371.0</ele><time>2026-04-16T09:30:26.855Z</time></trkpt><trkpt lat="42.5702033" lon="-8.432025"><ele>371.0</ele><time>2026-04-16T09:30:27.854Z</time></trkpt><trkpt lat="42.570105" lon="-8.4321167"><ele>372.25</ele><time>2026-04-16T09:30:28.854Z</time></trkpt><trkpt lat="42.5700167" lon="-8.4322333"><ele>373.5</ele><time>2026-04-16T09:30:29.855Z</time></trkpt><trkpt lat="42.569935" lon="-8.4323667"><ele>374.75</ele><time>2026-04-16T09:30:30.854Z</time></trkpt><trkpt lat="42.5698583" lon="-8.43252"><ele>376.0</ele><time>2026-04-16T09:30:31.854Z</time></trkpt><trkpt lat="42.5697867" lon="-8.432655"><ele>376.0</ele><time>2026-04-16T09:30:32.854Z</time></trkpt><trkpt lat="42.569715" lon="-8.4327783"><ele>376.0</ele><time>2026-04-16T09:30:33.855Z</time></trkpt><trkpt lat="42.5696267" lon="-8.4328833"><ele>376.0</ele><time>2026-04-16T09:30:34.854Z</time></trkpt><trkpt lat="42.569535" lon="-8.43297"><ele>376.0</ele><time>2026-04-16T09:30:35.854Z</time></trkpt><trkpt lat="42.5694417" lon="-8.433045"><ele>374.0</ele><time>2026-04-16T09:30:36.854Z</time></trkpt><trkpt lat="42.5693467" lon="-8.4331183"><ele>372.0</ele><time>2026-04-16T09:30:37.854Z</time></trkpt><trkpt lat="42.5692583" lon="-8.43321"><ele>370.0</ele><time>2026-04-16T09:30:38.854Z</time></trkpt><trkpt lat="42.5691867" lon="-8.4333333"><ele>368.0</ele><time>2026-04-16T09:30:39.854Z</time></trkpt><trkpt lat="42.569135" lon="-8.4334883"><ele>368.0</ele><time>2026-04-16T09:30:40.854Z</time></trkpt><trkpt lat="42.5690867" lon="-8.4336483"><ele>368.0</ele><time>2026-04-16T09:30:41.854Z</time></trkpt><trkpt lat="42.5690417" lon="-8.4337933"><ele>368.0</ele><time>2026-04-16T09:30:42.854Z</time></trkpt><trkpt lat="42.5689883" lon="-8.4339183"><ele>368.0</ele><time>2026-04-16T09:30:43.855Z</time></trkpt><trkpt lat="42.568915" lon="-8.4340283"><ele>366.5</ele><time>2026-04-16T09:30:44.854Z</time></trkpt><trkpt lat="42.5688217" lon="-8.4341117"><ele>365.0</ele><time>2026-04-16T09:30:45.855Z</time></trkpt><trkpt lat="42.5716467" lon="-8.4312167"><ele>365.0</ele><time>2026-04-16T09:30:14.855Z</time></trkpt><trkpt lat="42.57153" lon="-8.4312467"><ele>365.0</ele><time>2026-04-16T09:30:15.854Z</time></trkpt><trkpt lat="42.5714117" lon="-8.4312817"><ele>365.0</ele><time>2026-04-16T09:30:16.854Z</time></trkpt><trkpt lat="42.5712983" lon="-8.4313233"><ele>365.0</ele><time>2026-04-16T09:30:17.855Z</time></trkpt><trkpt lat="42.5711917" lon="-8.4313783"><ele>366.5</ele><time>2026-04-16T09:30:18.854Z</time></trkpt><trkpt lat="42.57108" lon="-8.4314483"><ele>368.0</ele><time>2026-04-16T09:30:19.854Z</time></trkpt><trkpt lat="42.5709683" lon="-8.4315183"><ele>369.5</ele><time>2026-04-16T09:30:20.854Z</time></trkpt><trkpt lat="42.5708567" lon="-8.4315967"><ele>371.0</ele><time>2026-04-16T09:30:21.855Z</time></trkpt><trkpt lat="42.5707417" lon="-8.4316767"><ele>371.0</ele><time>2026-04-16T09:30:22.855Z</time></trkpt><trkpt lat="42.5706283" lon="-8.4317483"><ele>371.0</ele><time>2026-04-16T09:30:23.854Z</time></trkpt><trkpt lat="42.5705183" lon="-8.43181"><ele>371.0</ele><time>2026-04-16T09:30:24.854Z</time></trkpt><trkpt lat="42.5704083" lon="-8.4318783"><ele>371.0</ele><time>2026-04-16T09:30:25.855Z</time></trkpt><trkpt lat="42.5703017" lon="-8.4319467"><ele>372.25</ele><time>2026-04-16T09:30:26.855Z</time></trkpt><trkpt lat="42.5702033" lon="-8.432025"><ele>373.5</ele><time>2026-04-16T09:30:27.854Z</time></trkpt><trkpt lat="42.570105" lon="-8.4321167"><ele>374.75</ele><time>2026-04-16T09:30:28.854Z</time></trkpt><trkpt lat="42.5700167" lon="-8.4322333"><ele>376.0</ele><time>2026-04-16T09:30:29.855Z</time></trkpt><trkpt lat="42.569935" lon="-8.4323667"><ele>376.0</ele><time>2026-04-16T09:30:30.854Z</time></trkpt><trkpt lat="42.5698583" lon="-8.43252"><ele>376.0</ele><time>2026-04-16T09:30:31.854Z</time></trkpt><trkpt lat="42.5697867" lon="-8.432655"><ele>376.0</ele><time>2026-04-16T09:30:32.854Z</time></trkpt><trkpt lat="42.569715" lon="-8.4327783"><ele>376.0</ele><time>2026-04-16T09:30:33.855Z</time></trkpt><trkpt lat="42.5696267" lon="-8.4328833"><ele>376.0</ele><time>2026-04-16T09:30:34.854Z</time></trkpt><trkpt lat="42.569535" lon="-8.43297"><ele>376.0</ele><time>2026-04-16T09:30:35.854Z</time></trkpt><trkpt lat="42.5694417" lon="-8.433045"><ele>376.0</ele><time>2026-04-16T09:30:36.854Z</time></trkpt><trkpt lat="42.5693467" lon="-8.4331183"><ele>376.0</ele><time>2026-04-16T09:30:37.854Z</time></trkpt><trkpt lat="42.5692583" lon="-8.43321"><ele>376.0</ele><time>2026-04-16T09:30:38.854Z</time></trkpt><trkpt lat="42.5691867" lon="-8.4333333"><ele>375.25</ele><time>2026-04-16T09:30:39.854Z</time></trkpt><trkpt lat="42.569135" lon="-8.4334883"><ele>374.5</ele><time>2026-04-16T09:30:40.854Z</time></trkpt><trkpt lat="42.5690867" lon="-8.4336483"><ele>373.75</ele><time>2026-04-16T09:30:41.854Z</time></trkpt><trkpt lat="42.5690417" lon="-8.4337933"><ele>373.0</ele><time>2026-04-16T09:30:42.854Z</time></trkpt><trkpt lat="42.5689883" lon="-8.4339183"><ele>373.0</ele><time>2026-04-16T09:30:43.855Z</time></trkpt><trkpt lat="42.568915" lon="-8.4340283"><ele>373.0</ele><time>2026-04-16T09:30:44.854Z</time></trkpt><trkpt lat="42.5688217" lon="-8.4341117"><ele>373.0</ele><time>2026-04-16T09:30:45.855Z</time></trkpt><trkpt lat="42.56873" lon="-8.434195"><ele>373.0</ele><time>2026-04-16T09:30:46.854Z</time></trkpt><trkpt lat="42.5686417" lon="-8.4342983"><ele>373.0</ele><time>2026-04-16T09:30:47.855Z</time></trkpt><trkpt lat="42.5685633" lon="-8.43441"><ele>372.79999999999995</ele><time>2026-04-16T09:30:48.854Z</time></trkpt><trkpt lat="42.5684867" lon="-8.4345317"><ele>372.6</ele><time>2026-04-16T09:30:49.855Z</time></trkpt><trkpt lat="42.5684083" lon="-8.43465"><ele>372.4</ele><time>2026-04-16T09:30:50.854Z</time></trkpt><trkpt lat="42.56835" lon="-8.434765"><ele>372.20000000000005</ele><time>2026-04-16T09:30:51.855Z</time></trkpt><trkpt lat="42.5683133" lon="-8.43487"><ele>372.0</ele><time>2026-04-16T09:30:52.854Z</time></trkpt><trkpt lat="42.5682833" lon="-8.4349667"><ele>372.0</ele><time>2026-04-16T09:30:53.855Z</time></trkpt><trkpt lat="42.5682483" lon="-8.4350767"><ele>372.0</ele><time>2026-04-16T09:30:54.854Z</time></trkpt><trkpt lat="42.5682117" lon="-8.4352067"><ele>372.0</ele><time>2026-04-16T09:30:55.855Z</time></trkpt><trkpt lat="42.5681767" lon="-8.4353483"><ele>372.0</ele><time>2026-04-16T09:30:56.855Z</time></trkpt><trkpt lat="42.5681433" lon="-8.4355067"><ele>372.0</ele><time>2026-04-16T09:30:57.854Z</time></trkpt><trkpt lat="42.5681217" lon="-8.4356717"><ele>372.0</ele><time>2026-04-16T09:30:58.855Z</time></trkpt><trkpt lat="42.56811" lon="-8.4358367"><ele>372.0</ele><time>2026-04-16T09:30:59.855Z</time></trkpt><trkpt lat="42.5681017" lon="-8.436005"><ele>372.0</ele><time>2026-04-16T09:31:00.854Z</time></trkpt><trkpt lat="42.568095" lon="-8.4361717"><ele>372.0</ele><time>2026-04-16T09:31:01.854Z</time></trkpt><trkpt lat="42.56809" lon="-8.43634"><ele>371.5</ele><time>2026-04-16T09:31:02.855Z</time></trkpt><trkpt lat="42.5680817" lon="-8.43651"><ele>371.0</ele><time>2026-04-16T09:31:03.854Z</time></trkpt><trkpt lat="42.5680617" lon="-8.436675"><ele>370.5</ele><time>2026-04-16T09:31:04.854Z</time></trkpt><trkpt lat="42.56803" lon="-8.4368317"><ele>370.0</ele><time>2026-04-16T09:31:05.854Z</time></trkpt><trkpt lat="42.567985" lon="-8.4369767"><ele>370.0</ele><time>2026-04-16T09:31:06.855Z</time></trkpt><trkpt lat="42.567935" lon="-8.4370983"><ele>370.0</ele><time>2026-04-16T09:31:07.854Z</time></trkpt><trkpt lat="42.567865" lon="-8.437175"><ele>370.0</ele><time>2026-04-16T09:31:08.854Z</time></trkpt><trkpt lat="42.5677783" lon="-8.4372067"><ele>370.0</ele><time>2026-04-16T09:31:09.854Z</time></trkpt><trkpt lat="42.567685" lon="-8.4372067"><ele>370.0</ele><time>2026-04-16T09:31:10.854Z</time></trkpt><trkpt lat="42.5675917" lon="-8.4371767"><ele>369.25</ele><time>2026-04-16T09:31:11.855Z</time></trkpt><trkpt lat="42.5674983" lon="-8.4371083"><ele>368.5</ele><time>2026-04-16T09:31:12.855Z</time></trkpt><trkpt lat="42.5673917" lon="-8.4370217"><ele>367.75</ele><time>2026-04-16T09:31:13.854Z</time></trkpt><trkpt lat="42.5672817" lon="-8.4369767"><ele>367.0</ele><time>2026-04-16T09:31:14.855Z</time></trkpt><trkpt lat="42.567175" lon="-8.4369683"><ele>367.0</ele><time>2026-04-16T09:31:15.854Z</time></trkpt><trkpt lat="42.56706" lon="-8.4369783"><ele>367.0</ele><time>2026-04-16T09:31:16.855Z</time></trkpt><trkpt lat="42.5669617" lon="-8.4370183"><ele>367.0</ele><time>2026-04-16T09:31:17.855Z</time></trkpt><trkpt lat="42.56687" lon="-8.4370933"><ele>367.0</ele><time>2026-04-16T09:31:18.854Z</time></trkpt><trkpt lat="42.56678" lon="-8.4371883"><ele>367.0</ele><time>2026-04-16T09:31:19.854Z</time></trkpt><trkpt lat="42.56669" lon="-8.437295"><ele>368.0</ele><time>2026-04-16T09:31:20.854Z</time></trkpt><trkpt lat="42.56658" lon="-8.437375"><ele>369.0</ele><time>2026-04-16T09:31:21.855Z</time></trkpt><trkpt lat="42.5664683" lon="-8.437445"><ele>370.0</ele><time>2026-04-16T09:31:22.854Z</time></trkpt><trkpt lat="42.5663583" lon="-8.4375033"><ele>371.0</ele><time>2026-04-16T09:31:23.854Z</time></trkpt><trkpt lat="42.5662367" lon="-8.4375617"><ele>370.25</ele><time>2026-04-16T09:31:24.855Z</time></trkpt><trkpt lat="42.5661217" lon="-8.4376267"><ele>369.5</ele><time>2026-04-16T09:31:25.855Z</time></trkpt><trkpt lat="42.5659967" lon="-8.4376567"><ele>368.75</ele><time>2026-04-16T09:31:26.854Z</time></trkpt><trkpt lat="42.5658683" lon="-8.43767"><ele>368.0</ele><time>2026-04-16T09:31:27.855Z</time></trkpt><trkpt lat="42.565745" lon="-8.4376567"><ele>368.0</ele><time>2026-04-16T09:31:28.854Z</time></trkpt><trkpt lat="42.565625" lon="-8.4376367"><ele>368.0</ele><time>2026-04-16T09:31:29.855Z</time></trkpt><trkpt lat="42.5655017" lon="-8.4376333"><ele>368.0</ele><time>2026-04-16T09:31:30.855Z</time></trkpt><trkpt lat="42.5653783" lon="-8.4376267"><ele>368.0</ele><time>2026-04-16T09:31:31.854Z</time></trkpt><trkpt lat="42.56526" lon="-8.4376283"><ele>367.0</ele><time>2026-04-16T09:31:32.855Z</time></trkpt><trkpt lat="42.5651367" lon="-8.4376233"><ele>366.0</ele><time>2026-04-16T09:31:33.854Z</time></trkpt><trkpt lat="42.5650133" lon="-8.4376217"><ele>365.0</ele><time>2026-04-16T09:31:34.854Z</time></trkpt><trkpt lat="42.5648833" lon="-8.4376133"><ele>364.0</ele><time>2026-04-16T09:31:35.854Z</time></trkpt><trkpt lat="42.5647567" lon="-8.4376167"><ele>364.0</ele><time>2026-04-16T09:31:36.854Z</time></trkpt><trkpt lat="42.5646333" lon="-8.4376383"><ele>364.0</ele><time>2026-04-16T09:31:37.855Z</time></trkpt><trkpt lat="42.56452" lon="-8.4376967"><ele>364.0</ele><time>2026-04-16T09:31:38.854Z</time></trkpt><trkpt lat="42.56442" lon="-8.4377833"><ele>364.0</ele><time>2026-04-16T09:31:39.854Z</time></trkpt><trkpt lat="42.5643283" lon="-8.4378983"><ele>362.25</ele><time>2026-04-16T09:31:40.855Z</time></trkpt><trkpt lat="42.5642433" lon="-8.4380217"><ele>360.5</ele><time>2026-04-16T09:31:41.854Z</time></trkpt><trkpt lat="42.564155" lon="-8.4381283"><ele>358.75</ele><time>2026-04-16T09:31:42.854Z</time></trkpt><trkpt lat="42.5640733" lon="-8.4382367"><ele>357.0</ele><time>2026-04-16T09:31:43.854Z</time></trkpt><trkpt lat="42.5639933" lon="-8.4383367"><ele>357.0</ele><time>2026-04-16T09:31:44.854Z</time></trkpt><trkpt lat="42.5639033" lon="-8.438435"><ele>357.0</ele><time>2026-04-16T09:31:45.855Z</time></trkpt><trkpt lat="42.5638083" lon="-8.4385183"><ele>357.0</ele><time>2026-04-16T09:31:46.854Z</time></trkpt><trkpt lat="42.5637" lon="-8.4385867"><ele>357.0</ele><time>2026-04-16T09:31:47.854Z</time></trkpt><trkpt lat="42.5635883" lon="-8.4386467"><ele>356.75</ele><time>2026-04-16T09:31:48.854Z</time></trkpt><trkpt lat="42.5634733" lon="-8.4386983"><ele>356.5</ele><time>2026-04-16T09:31:49.854Z</time></trkpt><trkpt lat="42.5633533" lon="-8.4387517"><ele>356.25</ele><time>2026-04-16T09:31:50.854Z</time></trkpt><trkpt lat="42.56324" lon="-8.43881"><ele>356.0</ele><time>2026-04-16T09:31:51.854Z</time></trkpt><trkpt lat="42.5631333" lon="-8.4388583"><ele>356.0</ele><time>2026-04-16T09:31:52.854Z</time></trkpt><trkpt lat="42.563025" lon="-8.4389067"><ele>356.0</ele><time>2026-04-16T09:31:53.854Z</time></trkpt><trkpt lat="42.562915" lon="-8.4389567"><ele>356.0</ele><time>2026-04-16T09:31:54.855Z</time></trkpt><trkpt lat="42.5628017" lon="-8.4390017"><ele>356.0</ele><time>2026-04-16T09:31:55.854Z</time></trkpt><trkpt lat="42.562685" lon="-8.4390467"><ele>355.25</ele><time>2026-04-16T09:31:56.855Z</time></trkpt><trkpt lat="42.5625667" lon="-8.43909"><ele>354.5</ele><time>2026-04-16T09:31:57.855Z</time></trkpt><trkpt lat="42.56245" lon="-8.4391183"><ele>353.75</ele><time>2026-04-16T09:31:58.855Z</time></trkpt><trkpt lat="42.5623317" lon="-8.439145"><ele>353.0</ele><time>2026-04-16T09:31:59.855Z</time></trkpt><trkpt lat="42.5622183" lon="-8.4391667"><ele>353.0</ele><time>2026-04-16T09:32:00.855Z</time></trkpt><trkpt lat="42.5621" lon="-8.439185"><ele>353.0</ele><time>2026-04-16T09:32:01.855Z</time></trkpt><trkpt lat="42.561995" lon="-8.4392183"><ele>353.0</ele><time>2026-04-16T09:32:02.854Z</time></trkpt><trkpt lat="42.5618867" lon="-8.4392717"><ele>353.0</ele><time>2026-04-16T09:32:03.855Z</time></trkpt><trkpt lat="42.5617983" lon="-8.4393467"><ele>353.0</ele><time>2026-04-16T09:32:04.854Z</time></trkpt><trkpt lat="42.5617017" lon="-8.43944"><ele>351.5</ele><time>2026-04-16T09:32:05.855Z</time></trkpt><trkpt lat="42.5615983" lon="-8.4395367"><ele>350.0</ele><time>2026-04-16T09:32:06.854Z</time></trkpt><trkpt lat="42.5615017" lon="-8.4396267"><ele>348.5</ele><time>2026-04-16T09:32:07.855Z</time></trkpt><trkpt lat="42.56141" lon="-8.4396967"><ele>347.0</ele><time>2026-04-16T09:32:08.855Z</time></trkpt><trkpt lat="42.5613083" lon="-8.43977"><ele>347.0</ele><time>2026-04-16T09:32:09.855Z</time></trkpt><trkpt lat="42.5612183" lon="-8.4398333"><ele>347.0</ele><time>2026-04-16T09:32:10.855Z</time></trkpt><trkpt lat="42.5611217" lon="-8.4398683"><ele>347.0</ele><time>2026-04-16T09:32:11.854Z</time></trkpt><trkpt lat="42.5610283" lon="-8.4398817"><ele>347.0</ele><time>2026-04-16T09:32:12.855Z</time></trkpt><trkpt lat="42.560955" lon="-8.439905"><ele>347.0</ele><time>2026-04-16T09:32:13.854Z</time></trkpt><trkpt lat="42.564155" lon="-8.4381283"><ele>349.5</ele><time>2026-04-16T09:31:42.854Z</time></trkpt><trkpt lat="42.5640733" lon="-8.4382367"><ele>352.0</ele><time>2026-04-16T09:31:43.854Z</time></trkpt><trkpt lat="42.5639933" lon="-8.4383367"><ele>354.5</ele><time>2026-04-16T09:31:44.854Z</time></trkpt><trkpt lat="42.5639033" lon="-8.438435"><ele>357.0</ele><time>2026-04-16T09:31:45.855Z</time></trkpt><trkpt lat="42.5638083" lon="-8.4385183"><ele>357.0</ele><time>2026-04-16T09:31:46.854Z</time></trkpt><trkpt lat="42.5637" lon="-8.4385867"><ele>357.0</ele><time>2026-04-16T09:31:47.854Z</time></trkpt><trkpt lat="42.5635883" lon="-8.4386467"><ele>357.0</ele><time>2026-04-16T09:31:48.854Z</time></trkpt><trkpt lat="42.5634733" lon="-8.4386983"><ele>357.0</ele><time>2026-04-16T09:31:49.854Z</time></trkpt><trkpt lat="42.5633533" lon="-8.4387517"><ele>356.75</ele><time>2026-04-16T09:31:50.854Z</time></trkpt><trkpt lat="42.56324" lon="-8.43881"><ele>356.5</ele><time>2026-04-16T09:31:51.854Z</time></trkpt><trkpt lat="42.5631333" lon="-8.4388583"><ele>356.25</ele><time>2026-04-16T09:31:52.854Z</time></trkpt><trkpt lat="42.563025" lon="-8.4389067"><ele>356.0</ele><time>2026-04-16T09:31:53.854Z</time></trkpt><trkpt lat="42.562915" lon="-8.4389567"><ele>355.25</ele><time>2026-04-16T09:31:54.855Z</time></trkpt><trkpt lat="42.5628017" lon="-8.4390017"><ele>354.5</ele><time>2026-04-16T09:31:55.854Z</time></trkpt><trkpt lat="42.562685" lon="-8.4390467"><ele>353.75</ele><time>2026-04-16T09:31:56.855Z</time></trkpt><trkpt lat="42.5625667" lon="-8.43909"><ele>353.0</ele><time>2026-04-16T09:31:57.855Z</time></trkpt><trkpt lat="42.56245" lon="-8.4391183"><ele>353.0</ele><time>2026-04-16T09:31:58.855Z</time></trkpt><trkpt lat="42.5623317" lon="-8.439145"><ele>353.0</ele><time>2026-04-16T09:31:59.855Z</time></trkpt><trkpt lat="42.5622183" lon="-8.4391667"><ele>353.0</ele><time>2026-04-16T09:32:00.855Z</time></trkpt><trkpt lat="42.5621" lon="-8.439185"><ele>353.0</ele><time>2026-04-16T09:32:01.855Z</time></trkpt><trkpt lat="42.561995" lon="-8.4392183"><ele>351.0</ele><time>2026-04-16T09:32:02.854Z</time></trkpt><trkpt lat="42.5618867" lon="-8.4392717"><ele>349.0</ele><time>2026-04-16T09:32:03.855Z</time></trkpt><trkpt lat="42.5617983" lon="-8.4393467"><ele>347.0</ele><time>2026-04-16T09:32:04.854Z</time></trkpt><trkpt lat="42.5617017" lon="-8.43944"><ele>345.0</ele><time>2026-04-16T09:32:05.855Z</time></trkpt><trkpt lat="42.5615983" lon="-8.4395367"><ele>345.0</ele><time>2026-04-16T09:32:06.854Z</time></trkpt><trkpt lat="42.5615017" lon="-8.4396267"><ele>345.0</ele><time>2026-04-16T09:32:07.855Z</time></trkpt><trkpt lat="42.56141" lon="-8.4396967"><ele>345.0</ele><time>2026-04-16T09:32:08.855Z</time></trkpt><trkpt lat="42.5613083" lon="-8.43977"><ele>345.0</ele><time>2026-04-16T09:32:09.855Z</time></trkpt><trkpt lat="42.5612183" lon="-8.4398333"><ele>345.0</ele><time>2026-04-16T09:32:10.855Z</time></trkpt><trkpt lat="42.5611217" lon="-8.4398683"><ele>344.6</ele><time>2026-04-16T09:32:11.854Z</time></trkpt><trkpt lat="42.5610283" lon="-8.4398817"><ele>344.2</ele><time>2026-04-16T09:32:12.855Z</time></trkpt><trkpt lat="42.560955" lon="-8.439905"><ele>343.79999999999995</ele><time>2026-04-16T09:32:13.854Z</time></trkpt><trkpt lat="42.560905" lon="-8.4399817"><ele>343.4</ele><time>2026-04-16T09:32:15.855Z</time></trkpt><trkpt lat="42.56095" lon="-8.44016"><ele>343.0</ele><time>2026-04-16T09:32:17.855Z</time></trkpt><trkpt lat="42.56099" lon="-8.4402983"><ele>343.0</ele><time>2026-04-16T09:32:18.854Z</time></trkpt><trkpt lat="42.5610267" lon="-8.440455"><ele>343.0</ele><time>2026-04-16T09:32:19.854Z</time></trkpt><trkpt lat="42.5610533" lon="-8.4406083"><ele>343.0</ele><time>2026-04-16T09:32:20.854Z</time></trkpt><trkpt lat="42.561085" lon="-8.4407667"><ele>343.0</ele><time>2026-04-16T09:32:21.855Z</time></trkpt><trkpt lat="42.5611183" lon="-8.4409233"><ele>343.0</ele><time>2026-04-16T09:32:22.855Z</time></trkpt><trkpt lat="42.5611433" lon="-8.4410717"><ele>343.0</ele><time>2026-04-16T09:32:23.854Z</time></trkpt><trkpt lat="42.5611717" lon="-8.4412217"><ele>343.0</ele><time>2026-04-16T09:32:24.854Z</time></trkpt><trkpt lat="42.5612" lon="-8.441375"><ele>343.0</ele><time>2026-04-16T09:32:25.855Z</time></trkpt><trkpt lat="42.5612383" lon="-8.4415017"><ele>343.0</ele><time>2026-04-16T09:32:26.854Z</time></trkpt><trkpt lat="42.5612733" lon="-8.4416167"><ele>343.0</ele><time>2026-04-16T09:32:27.855Z</time></trkpt><trkpt lat="42.5612983" lon="-8.4417333"><ele>343.0</ele><time>2026-04-16T09:32:28.854Z</time></trkpt><trkpt lat="42.5613117" lon="-8.4418467"><ele>343.0</ele><time>2026-04-16T09:32:29.855Z</time></trkpt><trkpt lat="42.5612933" lon="-8.4419583"><ele>343.0</ele><time>2026-04-16T09:32:30.855Z</time></trkpt><trkpt lat="42.5612517" lon="-8.4420783"><ele>343.0</ele><time>2026-04-16T09:32:31.854Z</time></trkpt><trkpt lat="42.5611917" lon="-8.44221"><ele>345.0</ele><time>2026-04-16T09:32:32.855Z</time></trkpt><trkpt lat="42.561105" lon="-8.4423367"><ele>347.0</ele><time>2026-04-16T09:32:33.855Z</time></trkpt><trkpt lat="42.5610133" lon="-8.4424567"><ele>349.0</ele><time>2026-04-16T09:32:34.854Z</time></trkpt><trkpt lat="42.5609267" lon="-8.44256"><ele>351.0</ele><time>2026-04-16T09:32:35.854Z</time></trkpt><trkpt lat="42.5608533" lon="-8.4426367"><ele>351.0</ele><time>2026-04-16T09:32:36.855Z</time></trkpt><trkpt lat="42.5607867" lon="-8.4427317"><ele>351.0</ele><time>2026-04-16T09:32:37.854Z</time></trkpt><trkpt lat="42.560725" lon="-8.44283"><ele>351.0</ele><time>2026-04-16T09:32:38.855Z</time></trkpt><trkpt lat="42.5606767" lon="-8.4429317"><ele>351.0</ele><time>2026-04-16T09:32:39.854Z</time></trkpt><trkpt lat="42.5606483" lon="-8.44303"><ele>351.0</ele><time>2026-04-16T09:32:40.854Z</time></trkpt><trkpt lat="42.5606317" lon="-8.44313"><ele>351.0</ele><time>2026-04-16T09:32:41.854Z</time></trkpt><trkpt lat="42.5606283" lon="-8.4432167"><ele>351.6</ele><time>2026-04-16T09:32:42.855Z</time></trkpt><trkpt lat="42.5606567" lon="-8.4432983"><ele>352.20000000000005</ele><time>2026-04-16T09:32:43.854Z</time></trkpt><trkpt lat="42.560705" lon="-8.44338"><ele>352.79999999999995</ele><time>2026-04-16T09:32:44.855Z</time></trkpt><trkpt lat="42.5607783" lon="-8.44345"><ele>353.4</ele><time>2026-04-16T09:32:45.855Z</time></trkpt><trkpt lat="42.5608733" lon="-8.4435117"><ele>354.0</ele><time>2026-04-16T09:32:46.854Z</time></trkpt><trkpt lat="42.5609833" lon="-8.44354"><ele>354.0</ele><time>2026-04-16T09:32:47.855Z</time></trkpt><trkpt lat="42.5611083" lon="-8.44356"><ele>354.0</ele><time>2026-04-16T09:32:48.855Z</time></trkpt><trkpt lat="42.561225" lon="-8.4435883"><ele>354.0</ele><time>2026-04-16T09:32:49.854Z</time></trkpt><trkpt lat="42.56133" lon="-8.4436383"><ele>354.0</ele><time>2026-04-16T09:32:50.854Z</time></trkpt><trkpt lat="42.56142" lon="-8.4437083"><ele>354.6</ele><time>2026-04-16T09:32:51.854Z</time></trkpt><trkpt lat="42.5615167" lon="-8.443755"><ele>355.2</ele><time>2026-04-16T09:32:52.855Z</time></trkpt><trkpt lat="42.5616217" lon="-8.4437833"><ele>355.8</ele><time>2026-04-16T09:32:53.854Z</time></trkpt><trkpt lat="42.5617267" lon="-8.4438217"><ele>356.40000000000003</ele><time>2026-04-16T09:32:54.855Z</time></trkpt><trkpt lat="42.5618333" lon="-8.4438667"><ele>357.0</ele><time>2026-04-16T09:32:55.854Z</time></trkpt><trkpt lat="42.561925" lon="-8.4439467"><ele>357.0</ele><time>2026-04-16T09:32:56.855Z</time></trkpt><trkpt lat="42.5620133" lon="-8.4440433"><ele>357.0</ele><time>2026-04-16T09:32:57.854Z</time></trkpt><trkpt lat="42.562085" lon="-8.4441583"><ele>357.0</ele><time>2026-04-16T09:32:58.854Z</time></trkpt><trkpt lat="42.5621583" lon="-8.4442883"><ele>357.0</ele><time>2026-04-16T09:32:59.855Z</time></trkpt><trkpt lat="42.5622283" lon="-8.444425"><ele>359.5</ele><time>2026-04-16T09:33:00.854Z</time></trkpt><trkpt lat="42.5622867" lon="-8.4445833"><ele>362.0</ele><time>2026-04-16T09:33:01.855Z</time></trkpt><trkpt lat="42.5623433" lon="-8.4447567"><ele>364.5</ele><time>2026-04-16T09:33:02.854Z</time></trkpt><trkpt lat="42.5623833" lon="-8.4449283"><ele>367.0</ele><time>2026-04-16T09:33:03.854Z</time></trkpt><trkpt lat="42.5624017" lon="-8.4451017"><ele>367.0</ele><time>2026-04-16T09:33:04.854Z</time></trkpt><trkpt lat="42.562395" lon="-8.445245"><ele>367.0</ele><time>2026-04-16T09:33:05.855Z</time></trkpt><trkpt lat="42.5624083" lon="-8.4453767"><ele>367.0</ele><time>2026-04-16T09:33:06.855Z</time></trkpt><trkpt lat="42.562435" lon="-8.4455017"><ele>367.0</ele><time>2026-04-16T09:33:07.854Z</time></trkpt><trkpt lat="42.56248" lon="-8.4456217"><ele>367.0</ele><time>2026-04-16T09:33:08.854Z</time></trkpt><trkpt lat="42.5625517" lon="-8.4457467"><ele>365.75</ele><time>2026-04-16T09:33:09.855Z</time></trkpt><trkpt lat="42.5626667" lon="-8.4458717"><ele>364.5</ele><time>2026-04-16T09:33:10.855Z</time></trkpt><trkpt lat="42.562765" lon="-8.4459883"><ele>363.25</ele><time>2026-04-16T09:33:11.854Z</time></trkpt><trkpt lat="42.5628417" lon="-8.4460833"><ele>362.0</ele><time>2026-04-16T09:33:12.855Z</time></trkpt><trkpt lat="42.562885" lon="-8.4461633"><ele>362.8</ele><time>2026-04-16T09:33:13.855Z</time></trkpt><trkpt lat="42.5628767" lon="-8.4462683"><ele>363.6</ele><time>2026-04-16T09:33:28.854Z</time></trkpt><trkpt lat="42.562805" lon="-8.446395"><ele>364.40000000000003</ele><time>2026-04-16T09:33:30.854Z</time></trkpt><trkpt lat="42.5627267" lon="-8.4464567"><ele>365.20000000000005</ele><time>2026-04-16T09:33:31.854Z</time></trkpt><trkpt lat="42.5626317" lon="-8.4465933"><ele>366.0</ele><time>2026-04-16T09:33:32.855Z</time></trkpt><trkpt lat="42.562575" lon="-8.44669"><ele>366.0</ele><time>2026-04-16T09:33:33.855Z</time></trkpt><trkpt lat="42.5624433" lon="-8.4468033"><ele>366.0</ele><time>2026-04-16T09:33:34.855Z</time></trkpt><trkpt lat="42.5623183" lon="-8.44691"><ele>366.0</ele><time>2026-04-16T09:33:35.855Z</time></trkpt><trkpt lat="42.5621833" lon="-8.4470583"><ele>367.5</ele><time>2026-04-16T09:33:36.855Z</time></trkpt><trkpt lat="42.5621217" lon="-8.4471917"><ele>369.0</ele><time>2026-04-16T09:33:37.854Z</time></trkpt><trkpt lat="42.5621033" lon="-8.4473183"><ele>370.5</ele><time>2026-04-16T09:33:38.855Z</time></trkpt><trkpt lat="42.5621333" lon="-8.4474733"><ele>372.0</ele><time>2026-04-16T09:33:39.854Z</time></trkpt><trkpt lat="42.56218" lon="-8.4476433"><ele>362.0</ele><time>2026-04-16T09:33:40.854Z</time></trkpt><trkpt lat="42.5626667" lon="-8.4458717"><ele>362.0</ele><time>2026-04-16T09:33:10.855Z</time></trkpt><trkpt lat="42.562765" lon="-8.4459883"><ele>362.0</ele><time>2026-04-16T09:33:11.854Z</time></trkpt><trkpt lat="42.5628417" lon="-8.4460833"><ele>362.0</ele><time>2026-04-16T09:33:12.855Z</time></trkpt><trkpt lat="42.562885" lon="-8.4461633"><ele>362.0</ele><time>2026-04-16T09:33:13.855Z</time></trkpt><trkpt lat="42.5628767" lon="-8.4462683"><ele>362.0</ele><time>2026-04-16T09:33:28.854Z</time></trkpt><trkpt lat="42.562805" lon="-8.446395"><ele>363.0</ele><time>2026-04-16T09:33:30.854Z</time></trkpt><trkpt lat="42.5627267" lon="-8.4464567"><ele>364.0</ele><time>2026-04-16T09:33:31.854Z</time></trkpt><trkpt lat="42.5626317" lon="-8.4465933"><ele>365.0</ele><time>2026-04-16T09:33:32.855Z</time></trkpt><trkpt lat="42.562575" lon="-8.44669"><ele>366.0</ele><time>2026-04-16T09:33:33.855Z</time></trkpt><trkpt lat="42.5624433" lon="-8.4468033"><ele>366.0</ele><time>2026-04-16T09:33:34.855Z</time></trkpt><trkpt lat="42.5623183" lon="-8.44691"><ele>366.0</ele><time>2026-04-16T09:33:35.855Z</time></trkpt><trkpt lat="42.5621833" lon="-8.4470583"><ele>366.0</ele><time>2026-04-16T09:33:36.855Z</time></trkpt><trkpt lat="42.5621217" lon="-8.4471917"><ele>366.0</ele><time>2026-04-16T09:33:37.854Z</time></trkpt><trkpt lat="42.5621033" lon="-8.4473183"><ele>367.5</ele><time>2026-04-16T09:33:38.855Z</time></trkpt><trkpt lat="42.5621333" lon="-8.4474733"><ele>369.0</ele><time>2026-04-16T09:33:39.854Z</time></trkpt><trkpt lat="42.56218" lon="-8.4476433"><ele>370.5</ele><time>2026-04-16T09:33:40.854Z</time></trkpt><trkpt lat="42.56225" lon="-8.4478"><ele>372.0</ele><time>2026-04-16T09:33:41.855Z</time></trkpt><trkpt lat="42.5623133" lon="-8.4479233"><ele>372.5</ele><time>2026-04-16T09:33:42.855Z</time></trkpt><trkpt lat="42.5623467" lon="-8.448035"><ele>373.0</ele><time>2026-04-16T09:33:43.855Z</time></trkpt><trkpt lat="42.5623533" lon="-8.4481383"><ele>373.5</ele><time>2026-04-16T09:33:44.854Z</time></trkpt><trkpt lat="42.56234" lon="-8.44825"><ele>374.0</ele><time>2026-04-16T09:33:45.854Z</time></trkpt><trkpt lat="42.562315" lon="-8.4483783"><ele>374.5</ele><time>2026-04-16T09:33:46.855Z</time></trkpt><trkpt lat="42.56231" lon="-8.448515"><ele>375.0</ele><time>2026-04-16T09:33:47.855Z</time></trkpt><trkpt lat="42.562325" lon="-8.4486317"><ele>375.0</ele><time>2026-04-16T09:33:48.854Z</time></trkpt><trkpt lat="42.5623517" lon="-8.4487483"><ele>375.0</ele><time>2026-04-16T09:33:49.854Z</time></trkpt><trkpt lat="42.562375" lon="-8.4488383"><ele>375.0</ele><time>2026-04-16T09:33:50.855Z</time></trkpt><trkpt lat="42.5623683" lon="-8.4489933"><ele>375.0</ele><time>2026-04-16T09:33:52.855Z</time></trkpt><trkpt lat="42.56233" lon="-8.4490817"><ele>375.0</ele><time>2026-04-16T09:33:53.855Z</time></trkpt><trkpt lat="42.5622583" lon="-8.4491967"><ele>375.25</ele><time>2026-04-16T09:33:54.854Z</time></trkpt><trkpt lat="42.56218" lon="-8.44933"><ele>375.5</ele><time>2026-04-16T09:33:55.855Z</time></trkpt><trkpt lat="42.5621083" lon="-8.4494717"><ele>375.75</ele><time>2026-04-16T09:33:56.855Z</time></trkpt><trkpt lat="42.5620483" lon="-8.4496083"><ele>376.0</ele><time>2026-04-16T09:33:57.854Z</time></trkpt><trkpt lat="42.5619983" lon="-8.4497533"><ele>375.6</ele><time>2026-04-16T09:33:58.854Z</time></trkpt><trkpt lat="42.56196" lon="-8.4498567"><ele>375.20000000000005</ele><time>2026-04-16T09:33:59.854Z</time></trkpt><trkpt lat="42.561935" lon="-8.45"><ele>374.79999999999995</ele><time>2026-04-16T09:34:01.854Z</time></trkpt><trkpt lat="42.5619567" lon="-8.4500983"><ele>374.4</ele><time>2026-04-16T09:34:02.855Z</time></trkpt><trkpt lat="42.5619833" lon="-8.45022"><ele>374.0</ele><time>2026-04-16T09:34:03.854Z</time></trkpt><trkpt lat="42.561995" lon="-8.4503367"><ele>374.0</ele><time>2026-04-16T09:34:04.854Z</time></trkpt><trkpt lat="42.5619917" lon="-8.45043"><ele>374.0</ele><time>2026-04-16T09:34:05.855Z</time></trkpt><trkpt lat="42.5619483" lon="-8.4505433"><ele>374.0</ele><time>2026-04-16T09:34:07.855Z</time></trkpt><trkpt lat="42.5618683" lon="-8.4505317"><ele>374.0</ele><time>2026-04-16T09:34:10.855Z</time></trkpt><trkpt lat="42.5618" lon="-8.4504567"><ele>374.0</ele><time>2026-04-16T09:34:12.854Z</time></trkpt><trkpt lat="42.56174" lon="-8.4503983"><ele>374.0</ele><time>2026-04-16T09:34:13.855Z</time></trkpt><trkpt lat="42.5616333" lon="-8.4503"><ele>374.0</ele><time>2026-04-16T09:34:14.854Z</time></trkpt><trkpt lat="42.56151" lon="-8.4501633"><ele>374.0</ele><time>2026-04-16T09:34:15.855Z</time></trkpt><trkpt lat="42.5613933" lon="-8.45002"><ele>374.0</ele><time>2026-04-16T09:34:16.854Z</time></trkpt><trkpt lat="42.561285" lon="-8.4498867"><ele>375.0</ele><time>2026-04-16T09:34:17.854Z</time></trkpt><trkpt lat="42.561185" lon="-8.4497983"><ele>376.0</ele><time>2026-04-16T09:34:18.855Z</time></trkpt><trkpt lat="42.5611083" lon="-8.4497533"><ele>377.0</ele><time>2026-04-16T09:34:19.855Z</time></trkpt><trkpt lat="42.5610383" lon="-8.4497333"><ele>378.0</ele><time>2026-04-16T09:34:20.854Z</time></trkpt><trkpt lat="42.560945" lon="-8.4497683"><ele>379.0</ele><time>2026-04-16T09:34:21.854Z</time></trkpt><trkpt lat="42.5608767" lon="-8.4498317"><ele>379.0</ele><time>2026-04-16T09:34:22.854Z</time></trkpt><trkpt lat="42.5608217" lon="-8.44992"><ele>379.0</ele><time>2026-04-16T09:34:23.855Z</time></trkpt><trkpt lat="42.5607483" lon="-8.45003"><ele>379.0</ele><time>2026-04-16T09:34:24.854Z</time></trkpt><trkpt lat="42.5606883" lon="-8.4501467"><ele>379.0</ele><time>2026-04-16T09:34:25.854Z</time></trkpt><trkpt lat="42.5606433" lon="-8.4502467"><ele>379.0</ele><time>2026-04-16T09:34:26.855Z</time></trkpt><trkpt lat="42.5605783" lon="-8.4503533"><ele>380.3333333333333</ele><time>2026-04-16T09:34:27.855Z</time></trkpt><trkpt lat="42.56053" lon="-8.4504717"><ele>381.66666666666663</ele><time>2026-04-16T09:34:28.854Z</time></trkpt><trkpt lat="42.5604867" lon="-8.4505833"><ele>383.0</ele><time>2026-04-16T09:34:29.855Z</time></trkpt><trkpt lat="42.5604717" lon="-8.4507"><ele>384.3333333333333</ele><time>2026-04-16T09:34:30.854Z</time></trkpt><trkpt lat="42.56047" lon="-8.4508067"><ele>385.6666666666667</ele><time>2026-04-16T09:34:31.854Z</time></trkpt><trkpt lat="42.5604867" lon="-8.450915"><ele>387.0</ele><time>2026-04-16T09:34:32.855Z</time></trkpt><trkpt lat="42.5605267" lon="-8.4510317"><ele>387.0</ele><time>2026-04-16T09:34:33.854Z</time></trkpt><trkpt lat="42.5605867" lon="-8.451145"><ele>387.0</ele><time>2026-04-16T09:34:34.854Z</time></trkpt><trkpt lat="42.5606883" lon="-8.4512617"><ele>387.0</ele><time>2026-04-16T09:34:35.854Z</time></trkpt><trkpt lat="42.5608467" lon="-8.4514017"><ele>387.0</ele><time>2026-04-16T09:34:36.855Z</time></trkpt><trkpt lat="42.5609717" lon="-8.45154"><ele>388.20000000000005</ele><time>2026-04-16T09:34:37.854Z</time></trkpt><trkpt lat="42.561075" lon="-8.4516417"><ele>389.4</ele><time>2026-04-16T09:34:38.855Z</time></trkpt><trkpt lat="42.5611433" lon="-8.45172"><ele>390.6</ele><time>2026-04-16T09:34:39.855Z</time></trkpt><trkpt lat="42.5612083" lon="-8.4517783"><ele>391.79999999999995</ele><time>2026-04-16T09:34:40.854Z</time></trkpt><trkpt lat="42.5612683" lon="-8.4518233"><ele>393.0</ele><time>2026-04-16T09:34:41.854Z</time></trkpt><trkpt lat="42.5613567" lon="-8.4519167"><ele>393.0</ele><time>2026-04-16T09:34:43.855Z</time></trkpt><trkpt lat="42.5613867" lon="-8.4520717"><ele>393.0</ele><time>2026-04-16T09:34:45.854Z</time></trkpt><trkpt lat="42.561395" lon="-8.4521767"><ele>393.0</ele><time>2026-04-16T09:34:46.854Z</time></trkpt><trkpt lat="42.5614033" lon="-8.4523017"><ele>393.0</ele><time>2026-04-16T09:34:47.855Z</time></trkpt><trkpt lat="42.561415" lon="-8.45242"><ele>393.0</ele><time>2026-04-16T09:34:48.854Z</time></trkpt><trkpt lat="42.5614367" lon="-8.4525283"><ele>397.0</ele><time>2026-04-16T09:34:49.855Z</time></trkpt><trkpt lat="42.5614667" lon="-8.45266"><ele>401.0</ele><time>2026-04-16T09:34:50.855Z</time></trkpt><trkpt lat="42.56149" lon="-8.4527933"><ele>405.0</ele><time>2026-04-16T09:34:51.855Z</time></trkpt><trkpt lat="42.5614983" lon="-8.4529783"><ele>409.0</ele><time>2026-04-16T09:34:52.854Z</time></trkpt><trkpt lat="42.5615033" lon="-8.4531917"><ele>411.0</ele><time>2026-04-16T09:34:53.855Z</time></trkpt><trkpt lat="42.5615083" lon="-8.45342"><ele>413.0</ele><time>2026-04-16T09:34:54.855Z</time></trkpt><trkpt lat="42.5615317" lon="-8.453645"><ele>415.0</ele><time>2026-04-16T09:34:55.855Z</time></trkpt><trkpt lat="42.5615467" lon="-8.4538667"><ele>416.0</ele><time>2026-04-16T09:34:56.854Z</time></trkpt><trkpt lat="42.561555" lon="-8.4540767"><ele>417.0</ele><time>2026-04-16T09:34:57.855Z</time></trkpt><trkpt lat="42.5615567" lon="-8.4542883"><ele>418.0</ele><time>2026-04-16T09:34:58.855Z</time></trkpt><trkpt lat="42.5615583" lon="-8.4545083"><ele>418.0</ele><time>2026-04-16T09:34:59.855Z</time></trkpt><trkpt lat="42.5615533" lon="-8.4547167"><ele>418.0</ele><time>2026-04-16T09:35:00.855Z</time></trkpt><trkpt lat="42.5615467" lon="-8.4548933"><ele>418.0</ele><time>2026-04-16T09:35:01.855Z</time></trkpt><trkpt lat="42.561535" lon="-8.45501"><ele>418.0</ele><time>2026-04-16T09:35:02.854Z</time></trkpt><trkpt lat="42.5615583" lon="-8.4551267"><ele>418.0</ele><time>2026-04-16T09:35:04.854Z</time></trkpt><trkpt lat="42.561615" lon="-8.4552067"><ele>418.0</ele><time>2026-04-16T09:35:06.855Z</time></trkpt><trkpt lat="42.56168" lon="-8.4552983"><ele>418.0</ele><time>2026-04-16T09:35:08.856Z</time></trkpt><trkpt lat="42.5609717" lon="-8.45154"><ele>413.0</ele><time>2026-04-16T09:34:37.854Z</time></trkpt><trkpt lat="42.561075" lon="-8.4516417"><ele>408.0</ele><time>2026-04-16T09:34:38.855Z</time></trkpt><trkpt lat="42.5611433" lon="-8.45172"><ele>403.0</ele><time>2026-04-16T09:34:39.855Z</time></trkpt><trkpt lat="42.5612083" lon="-8.4517783"><ele>398.0</ele><time>2026-04-16T09:34:40.854Z</time></trkpt><trkpt lat="42.5612683" lon="-8.4518233"><ele>393.0</ele><time>2026-04-16T09:34:41.854Z</time></trkpt><trkpt lat="42.5613567" lon="-8.4519167"><ele>393.0</ele><time>2026-04-16T09:34:43.855Z</time></trkpt><trkpt lat="42.5613867" lon="-8.4520717"><ele>393.0</ele><time>2026-04-16T09:34:45.854Z</time></trkpt><trkpt lat="42.561395" lon="-8.4521767"><ele>393.0</ele><time>2026-04-16T09:34:46.854Z</time></trkpt><trkpt lat="42.5614033" lon="-8.4523017"><ele>393.0</ele><time>2026-04-16T09:34:47.855Z</time></trkpt><trkpt lat="42.561415" lon="-8.45242"><ele>393.0</ele><time>2026-04-16T09:34:48.854Z</time></trkpt><trkpt lat="42.5614367" lon="-8.4525283"><ele>397.0</ele><time>2026-04-16T09:34:49.855Z</time></trkpt><trkpt lat="42.5614667" lon="-8.45266"><ele>401.0</ele><time>2026-04-16T09:34:50.855Z</time></trkpt><trkpt lat="42.56149" lon="-8.4527933"><ele>405.0</ele><time>2026-04-16T09:34:51.855Z</time></trkpt><trkpt lat="42.5614983" lon="-8.4529783"><ele>409.0</ele><time>2026-04-16T09:34:52.854Z</time></trkpt><trkpt lat="42.5615033" lon="-8.4531917"><ele>411.0</ele><time>2026-04-16T09:34:53.855Z</time></trkpt><trkpt lat="42.5615083" lon="-8.45342"><ele>413.0</ele><time>2026-04-16T09:34:54.855Z</time></trkpt><trkpt lat="42.5615317" lon="-8.453645"><ele>415.0</ele><time>2026-04-16T09:34:55.855Z</time></trkpt><trkpt lat="42.5615467" lon="-8.4538667"><ele>416.0</ele><time>2026-04-16T09:34:56.854Z</time></trkpt><trkpt lat="42.561555" lon="-8.4540767"><ele>417.0</ele><time>2026-04-16T09:34:57.855Z</time></trkpt><trkpt lat="42.5615567" lon="-8.4542883"><ele>418.0</ele><time>2026-04-16T09:34:58.855Z</time></trkpt><trkpt lat="42.5615583" lon="-8.4545083"><ele>418.0</ele><time>2026-04-16T09:34:59.855Z</time></trkpt><trkpt lat="42.5615533" lon="-8.4547167"><ele>418.0</ele><time>2026-04-16T09:35:00.855Z</time></trkpt><trkpt lat="42.5615467" lon="-8.4548933"><ele>418.0</ele><time>2026-04-16T09:35:01.855Z</time></trkpt><trkpt lat="42.561535" lon="-8.45501"><ele>418.0</ele><time>2026-04-16T09:35:02.854Z</time></trkpt><trkpt lat="42.5615583" lon="-8.4551267"><ele>418.00000000000006</ele><time>2026-04-16T09:35:04.854Z</time></trkpt><trkpt lat="42.561615" lon="-8.4552067"><ele>418.0</ele><time>2026-04-16T09:35:06.855Z</time></trkpt><trkpt lat="42.56168" lon="-8.4552983"><ele>418.0</ele><time>2026-04-16T09:35:08.856Z</time></trkpt><trkpt lat="42.5617533" lon="-8.4553567"><ele>418.0</ele><time>2026-04-16T09:35:10.855Z</time></trkpt><trkpt lat="42.561825" lon="-8.4553483"><ele>418.00000000000006</ele><time>2026-04-16T09:35:12.856Z</time></trkpt><trkpt lat="42.5618917" lon="-8.4552567"><ele>418.0</ele><time>2026-04-16T09:35:14.856Z</time></trkpt><trkpt lat="42.5619217" lon="-8.4551283"><ele>418.0</ele><time>2026-04-16T09:35:15.856Z</time></trkpt><trkpt lat="42.5619583" lon="-8.454925"><ele>418.0</ele><time>2026-04-16T09:35:16.855Z</time></trkpt><trkpt lat="42.562005" lon="-8.45469"><ele>418.0</ele><time>2026-04-16T09:35:17.856Z</time></trkpt><trkpt lat="42.56205" lon="-8.4544583"><ele>421.25</ele><time>2026-04-16T09:35:18.855Z</time></trkpt><trkpt lat="42.562095" lon="-8.45433"><ele>424.5</ele><time>2026-04-16T09:35:19.855Z</time></trkpt><trkpt lat="42.5621533" lon="-8.4542"><ele>427.75</ele><time>2026-04-16T09:35:20.856Z</time></trkpt><trkpt lat="42.5622417" lon="-8.4540633"><ele>431.0</ele><time>2026-04-16T09:35:21.856Z</time></trkpt><trkpt lat="42.56235" lon="-8.4539483"><ele>431.0</ele><time>2026-04-16T09:35:22.856Z</time></trkpt><trkpt lat="42.5624383" lon="-8.453865"><ele>431.0</ele><time>2026-04-16T09:35:23.856Z</time></trkpt><trkpt lat="42.5625167" lon="-8.4538183"><ele>431.0</ele><time>2026-04-16T09:35:24.855Z</time></trkpt><trkpt lat="42.5625817" lon="-8.4537917"><ele>431.0</ele><time>2026-04-16T09:35:25.855Z</time></trkpt><trkpt lat="42.5626467" lon="-8.4537817"><ele>431.0</ele><time>2026-04-16T09:35:26.855Z</time></trkpt><trkpt lat="42.562775" lon="-8.4538117"><ele>431.0</ele><time>2026-04-16T09:35:28.856Z</time></trkpt><trkpt lat="42.56284" lon="-8.4538617"><ele>431.0</ele><time>2026-04-16T09:35:29.856Z</time></trkpt><trkpt lat="42.56291" lon="-8.45395"><ele>431.0</ele><time>2026-04-16T09:35:30.855Z</time></trkpt><trkpt lat="42.5629933" lon="-8.4540783"><ele>431.0</ele><time>2026-04-16T09:35:31.856Z</time></trkpt><trkpt lat="42.5631" lon="-8.4542367"><ele>433.5</ele><time>2026-04-16T09:35:32.855Z</time></trkpt><trkpt lat="42.563205" lon="-8.454375"><ele>436.0</ele><time>2026-04-16T09:35:33.855Z</time></trkpt><trkpt lat="42.56332" lon="-8.454515"><ele>438.5</ele><time>2026-04-16T09:35:34.856Z</time></trkpt><trkpt lat="42.5634317" lon="-8.454635"><ele>441.0</ele><time>2026-04-16T09:35:35.855Z</time></trkpt><trkpt lat="42.5635283" lon="-8.4547583"><ele>441.1666666666667</ele><time>2026-04-16T09:35:36.855Z</time></trkpt><trkpt lat="42.5636033" lon="-8.454865"><ele>441.33333333333337</ele><time>2026-04-16T09:35:37.855Z</time></trkpt><trkpt lat="42.5636583" lon="-8.45493"><ele>441.5</ele><time>2026-04-16T09:35:38.856Z</time></trkpt><trkpt lat="42.5637183" lon="-8.4549767"><ele>441.6666666666667</ele><time>2026-04-16T09:35:39.856Z</time></trkpt><trkpt lat="42.5637783" lon="-8.4550167"><ele>441.83333333333337</ele><time>2026-04-16T09:35:40.855Z</time></trkpt><trkpt lat="42.5638467" lon="-8.4550667"><ele>442.0</ele><time>2026-04-16T09:35:41.856Z</time></trkpt><trkpt lat="42.563915" lon="-8.45513"><ele>445.8</ele><time>2026-04-16T09:35:42.856Z</time></trkpt><trkpt lat="42.563975" lon="-8.4552033"><ele>449.6</ele><time>2026-04-16T09:35:43.855Z</time></trkpt><trkpt lat="42.5640183" lon="-8.4552817"><ele>453.40000000000003</ele><time>2026-04-16T09:35:44.856Z</time></trkpt><trkpt lat="42.5640633" lon="-8.455425"><ele>457.20000000000005</ele><time>2026-04-16T09:35:46.855Z</time></trkpt><trkpt lat="42.5640317" lon="-8.4555217"><ele>461.0</ele><time>2026-04-16T09:35:48.855Z</time></trkpt><trkpt lat="42.5640067" lon="-8.4556817"><ele>462.25</ele><time>2026-04-16T09:35:50.856Z</time></trkpt><trkpt lat="42.564005" lon="-8.455815"><ele>463.5</ele><time>2026-04-16T09:35:51.855Z</time></trkpt><trkpt lat="42.5640333" lon="-8.4560167"><ele>464.75</ele><time>2026-04-16T09:35:52.855Z</time></trkpt><trkpt lat="42.56408" lon="-8.4562183"><ele>466.0</ele><time>2026-04-16T09:35:53.856Z</time></trkpt><trkpt lat="42.5641433" lon="-8.4564017"><ele>466.0</ele><time>2026-04-16T09:35:54.856Z</time></trkpt><trkpt lat="42.56421" lon="-8.4565933"><ele>466.0</ele><time>2026-04-16T09:35:55.855Z</time></trkpt><trkpt lat="42.564275" lon="-8.4567633"><ele>466.0</ele><time>2026-04-16T09:35:56.855Z</time></trkpt><trkpt lat="42.5643317" lon="-8.4569083"><ele>466.0</ele><time>2026-04-16T09:35:57.855Z</time></trkpt><trkpt lat="42.56438" lon="-8.457035"><ele>464.50000000000006</ele><time>2026-04-16T09:35:58.855Z</time></trkpt><trkpt lat="42.564415" lon="-8.4571517"><ele>463.0</ele><time>2026-04-16T09:35:59.855Z</time></trkpt><trkpt lat="42.5644567" lon="-8.4572383"><ele>461.5</ele><time>2026-04-16T09:36:00.855Z</time></trkpt><trkpt lat="42.5645067" lon="-8.4573133"><ele>460.0</ele><time>2026-04-16T09:36:01.856Z</time></trkpt><trkpt lat="42.5645633" lon="-8.4573667"><ele>458.50000000000006</ele><time>2026-04-16T09:36:02.855Z</time></trkpt><trkpt lat="42.564635" lon="-8.4574017"><ele>457.0</ele><time>2026-04-16T09:36:03.855Z</time></trkpt><trkpt lat="42.5647017" lon="-8.4574233"><ele>460.00000000000006</ele><time>2026-04-16T09:36:04.856Z</time></trkpt><trkpt lat="42.564775" lon="-8.4574383"><ele>463.0</ele><time>2026-04-16T09:36:05.856Z</time></trkpt><trkpt lat="42.5648483" lon="-8.45744"><ele>466.00000000000006</ele><time>2026-04-16T09:36:06.855Z</time></trkpt><trkpt lat="42.56492" lon="-8.4574267"><ele>469.00000000000006</ele><time>2026-04-16T09:36:07.855Z</time></trkpt><trkpt lat="42.5649933" lon="-8.45741"><ele>472.0</ele><time>2026-04-16T09:36:08.855Z</time></trkpt><trkpt lat="42.56506" lon="-8.4574267"><ele>475.00000000000006</ele><time>2026-04-16T09:36:09.856Z</time></trkpt><trkpt lat="42.5651317" lon="-8.4574533"><ele>478.00000000000006</ele><time>2026-04-16T09:36:10.856Z</time></trkpt><trkpt lat="42.5652417" lon="-8.457475"><ele>478.0</ele><time>2026-04-16T09:36:12.856Z</time></trkpt><trkpt lat="42.565305" lon="-8.457425"><ele>477.99999999999994</ele><time>2026-04-16T09:36:14.855Z</time></trkpt><trkpt lat="42.5653067" lon="-8.4573283"><ele>477.99999999999994</ele><time>2026-04-16T09:36:15.855Z</time></trkpt><trkpt lat="42.565305" lon="-8.4572317"><ele>478.0</ele><time>2026-04-16T09:36:16.855Z</time></trkpt><trkpt lat="42.5652767" lon="-8.4571067"><ele>478.0</ele><time>2026-04-16T09:36:18.856Z</time></trkpt><trkpt lat="42.5651483" lon="-8.4570383"><ele>480.0</ele><time>2026-04-16T09:36:20.856Z</time></trkpt><trkpt lat="42.5650333" lon="-8.4569867"><ele>481.99999999999994</ele><time>2026-04-16T09:36:21.856Z</time></trkpt><trkpt lat="42.564925" lon="-8.4569383"><ele>483.99999999999994</ele><time>2026-04-16T09:36:22.856Z</time></trkpt><trkpt lat="42.5648483" lon="-8.45687"><ele>486.0</ele><time>2026-04-16T09:36:23.856Z</time></trkpt><trkpt lat="42.5647867" lon="-8.4567833"><ele>488.0</ele><time>2026-04-16T09:36:24.856Z</time></trkpt><trkpt lat="42.564755" lon="-8.4566817"><ele>488.0</ele><time>2026-04-16T09:36:25.855Z</time></trkpt><trkpt lat="42.5647567" lon="-8.456555"><ele>487.99999999999994</ele><time>2026-04-16T09:36:26.855Z</time></trkpt><trkpt lat="42.5648" lon="-8.4564367"><ele>487.99999999999994</ele><time>2026-04-16T09:36:27.855Z</time></trkpt><trkpt lat="42.5648583" lon="-8.4563333"><ele>488.0</ele><time>2026-04-16T09:36:28.856Z</time></trkpt><trkpt lat="42.56496" lon="-8.4562367"><ele>488.0</ele><time>2026-04-16T09:36:29.856Z</time></trkpt><trkpt lat="42.5650733" lon="-8.456175"><ele>488.5</ele><time>2026-04-16T09:36:30.855Z</time></trkpt><trkpt lat="42.5651917" lon="-8.456145"><ele>489.0</ele><time>2026-04-16T09:36:31.856Z</time></trkpt><trkpt lat="42.565315" lon="-8.4561383"><ele>489.5</ele><time>2026-04-16T09:36:32.856Z</time></trkpt><trkpt lat="42.5654283" lon="-8.45617"><ele>490.0</ele><time>2026-04-16T09:36:33.855Z</time></trkpt><trkpt lat="42.56555" lon="-8.45619"><ele>487.0</ele><time>2026-04-16T09:36:34.856Z</time></trkpt><trkpt lat="42.565685" lon="-8.4561933"><ele>484.0</ele><time>2026-04-16T09:36:35.856Z</time></trkpt><trkpt lat="42.5658333" lon="-8.4561783"><ele>481.0</ele><time>2026-04-16T09:36:36.855Z</time></trkpt><trkpt lat="42.5659783" lon="-8.45616"><ele>478.0</ele><time>2026-04-16T09:36:37.855Z</time></trkpt><trkpt lat="42.564775" lon="-8.4574383"><ele>478.00000000000006</ele><time>2026-04-16T09:36:05.856Z</time></trkpt><trkpt lat="42.5648483" lon="-8.45744"><ele>478.0</ele><time>2026-04-16T09:36:06.855Z</time></trkpt><trkpt lat="42.56492" lon="-8.4574267"><ele>478.0</ele><time>2026-04-16T09:36:07.855Z</time></trkpt><trkpt lat="42.5649933" lon="-8.45741"><ele>478.0</ele><time>2026-04-16T09:36:08.855Z</time></trkpt><trkpt lat="42.56506" lon="-8.4574267"><ele>478.00000000000006</ele><time>2026-04-16T09:36:09.856Z</time></trkpt><trkpt lat="42.5651317" lon="-8.4574533"><ele>478.0</ele><time>2026-04-16T09:36:10.856Z</time></trkpt><trkpt lat="42.5652417" lon="-8.457475"><ele>478.0</ele><time>2026-04-16T09:36:12.856Z</time></trkpt><trkpt lat="42.565305" lon="-8.457425"><ele>477.99999999999994</ele><time>2026-04-16T09:36:14.855Z</time></trkpt><trkpt lat="42.5653067" lon="-8.4573283"><ele>477.99999999999994</ele><time>2026-04-16T09:36:15.855Z</time></trkpt><trkpt lat="42.565305" lon="-8.4572317"><ele>478.0</ele><time>2026-04-16T09:36:16.855Z</time></trkpt><trkpt lat="42.5652767" lon="-8.4571067"><ele>478.0</ele><time>2026-04-16T09:36:18.856Z</time></trkpt><trkpt lat="42.5651483" lon="-8.4570383"><ele>480.0</ele><time>2026-04-16T09:36:20.856Z</time></trkpt><trkpt lat="42.5650333" lon="-8.4569867"><ele>481.99999999999994</ele><time>2026-04-16T09:36:21.856Z</time></trkpt><trkpt lat="42.564925" lon="-8.4569383"><ele>483.99999999999994</ele><time>2026-04-16T09:36:22.856Z</time></trkpt><trkpt lat="42.5648483" lon="-8.45687"><ele>486.0</ele><time>2026-04-16T09:36:23.856Z</time></trkpt><trkpt lat="42.5647867" lon="-8.4567833"><ele>488.0</ele><time>2026-04-16T09:36:24.856Z</time></trkpt><trkpt lat="42.564755" lon="-8.4566817"><ele>488.0</ele><time>2026-04-16T09:36:25.855Z</time></trkpt><trkpt lat="42.5647567" lon="-8.456555"><ele>487.99999999999994</ele><time>2026-04-16T09:36:26.855Z</time></trkpt><trkpt lat="42.5648" lon="-8.4564367"><ele>487.99999999999994</ele><time>2026-04-16T09:36:27.855Z</time></trkpt><trkpt lat="42.5648583" lon="-8.4563333"><ele>488.0</ele><time>2026-04-16T09:36:28.856Z</time></trkpt><trkpt lat="42.56496" lon="-8.4562367"><ele>488.0</ele><time>2026-04-16T09:36:29.856Z</time></trkpt><trkpt lat="42.5650733" lon="-8.456175"><ele>488.5</ele><time>2026-04-16T09:36:30.855Z</time></trkpt><trkpt lat="42.5651917" lon="-8.456145"><ele>489.0</ele><time>2026-04-16T09:36:31.856Z</time></trkpt><trkpt lat="42.565315" lon="-8.4561383"><ele>489.5</ele><time>2026-04-16T09:36:32.856Z</time></trkpt><trkpt lat="42.5654283" lon="-8.45617"><ele>490.0</ele><time>2026-04-16T09:36:33.855Z</time></trkpt><trkpt lat="42.56555" lon="-8.45619"><ele>493.5</ele><time>2026-04-16T09:36:34.856Z</time></trkpt><trkpt lat="42.565685" lon="-8.4561933"><ele>497.0</ele><time>2026-04-16T09:36:35.856Z</time></trkpt><trkpt lat="42.5658333" lon="-8.4561783"><ele>500.5</ele><time>2026-04-16T09:36:36.855Z</time></trkpt><trkpt lat="42.5659783" lon="-8.45616"><ele>504.0</ele><time>2026-04-16T09:36:37.855Z</time></trkpt><trkpt lat="42.5661133" lon="-8.456135"><ele>504.0</ele><time>2026-04-16T09:36:38.855Z</time></trkpt><trkpt lat="42.56624" lon="-8.4561233"><ele>504.0</ele><time>2026-04-16T09:36:39.855Z</time></trkpt><trkpt lat="42.5663633" lon="-8.4561233"><ele>504.0</ele><time>2026-04-16T09:36:40.856Z</time></trkpt><trkpt lat="42.5664717" lon="-8.4561567"><ele>504.0</ele><time>2026-04-16T09:36:41.856Z</time></trkpt><trkpt lat="42.56658" lon="-8.45622"><ele>505.25</ele><time>2026-04-16T09:36:42.856Z</time></trkpt><trkpt lat="42.56669" lon="-8.4563433"><ele>506.5</ele><time>2026-04-16T09:36:43.855Z</time></trkpt><trkpt lat="42.5667933" lon="-8.45648"><ele>507.75</ele><time>2026-04-16T09:36:44.855Z</time></trkpt><trkpt lat="42.5669033" lon="-8.4566217"><ele>509.0</ele><time>2026-04-16T09:36:45.856Z</time></trkpt><trkpt lat="42.5670117" lon="-8.4567167"><ele>511.25</ele><time>2026-04-16T09:36:46.856Z</time></trkpt><trkpt lat="42.567135" lon="-8.4567767"><ele>513.5</ele><time>2026-04-16T09:36:47.855Z</time></trkpt><trkpt lat="42.5672767" lon="-8.45682"><ele>515.75</ele><time>2026-04-16T09:36:48.855Z</time></trkpt><trkpt lat="42.5674333" lon="-8.4568567"><ele>518.0</ele><time>2026-04-16T09:36:49.855Z</time></trkpt><trkpt lat="42.5676133" lon="-8.4568917"><ele>518.0</ele><time>2026-04-16T09:36:50.856Z</time></trkpt><trkpt lat="42.5678033" lon="-8.4569167"><ele>518.0</ele><time>2026-04-16T09:36:51.855Z</time></trkpt><trkpt lat="42.5679783" lon="-8.45694"><ele>518.0</ele><time>2026-04-16T09:36:52.856Z</time></trkpt><trkpt lat="42.568135" lon="-8.4569867"><ele>518.0</ele><time>2026-04-16T09:36:53.856Z</time></trkpt><trkpt lat="42.56828" lon="-8.45704"><ele>518.0</ele><time>2026-04-16T09:36:54.856Z</time></trkpt><trkpt lat="42.56841" lon="-8.4571317"><ele>518.0</ele><time>2026-04-16T09:36:55.856Z</time></trkpt><trkpt lat="42.5685217" lon="-8.45724"><ele>518.0</ele><time>2026-04-16T09:36:56.855Z</time></trkpt><trkpt lat="42.568635" lon="-8.4573317"><ele>520.5</ele><time>2026-04-16T09:36:57.856Z</time></trkpt><trkpt lat="42.5687317" lon="-8.4573983"><ele>523.0</ele><time>2026-04-16T09:36:58.855Z</time></trkpt><trkpt lat="42.56881" lon="-8.4574017"><ele>525.5</ele><time>2026-04-16T09:36:59.855Z</time></trkpt><trkpt lat="42.5688867" lon="-8.457365"><ele>528.0</ele><time>2026-04-16T09:37:00.856Z</time></trkpt><trkpt lat="42.568955" lon="-8.4573"><ele>530.5</ele><time>2026-04-16T09:37:01.856Z</time></trkpt><trkpt lat="42.5690117" lon="-8.4572233"><ele>533.0</ele><time>2026-04-16T09:37:02.856Z</time></trkpt><trkpt lat="42.5690417" lon="-8.457115"><ele>533.4</ele><time>2026-04-16T09:37:03.855Z</time></trkpt><trkpt lat="42.5690483" lon="-8.4570017"><ele>533.8</ele><time>2026-04-16T09:37:04.855Z</time></trkpt><trkpt lat="42.56903" lon="-8.4568767"><ele>534.2</ele><time>2026-04-16T09:37:05.855Z</time></trkpt><trkpt lat="42.5689583" lon="-8.456735"><ele>534.6</ele><time>2026-04-16T09:37:06.855Z</time></trkpt><trkpt lat="42.5688783" lon="-8.4565733"><ele>535.0</ele><time>2026-04-16T09:37:07.856Z</time></trkpt><trkpt lat="42.5688267" lon="-8.4564133"><ele>535.75</ele><time>2026-04-16T09:37:08.856Z</time></trkpt><trkpt lat="42.5687917" lon="-8.4562367"><ele>536.5</ele><time>2026-04-16T09:37:09.855Z</time></trkpt><trkpt lat="42.568765" lon="-8.45603"><ele>537.25</ele><time>2026-04-16T09:37:10.855Z</time></trkpt><trkpt lat="42.5687567" lon="-8.4558233"><ele>538.0</ele><time>2026-04-16T09:37:11.855Z</time></trkpt><trkpt lat="42.5687667" lon="-8.4556517"><ele>538.0</ele><time>2026-04-16T09:37:12.855Z</time></trkpt><trkpt lat="42.5687983" lon="-8.45553"><ele>538.0</ele><time>2026-04-16T09:37:13.855Z</time></trkpt><trkpt lat="42.568855" lon="-8.4554417"><ele>538.0</ele><time>2026-04-16T09:37:14.856Z</time></trkpt><trkpt lat="42.5689367" lon="-8.455375"><ele>538.0</ele><time>2026-04-16T09:37:15.855Z</time></trkpt><trkpt lat="42.5690517" lon="-8.4553417"><ele>538.0</ele><time>2026-04-16T09:37:16.855Z</time></trkpt><trkpt lat="42.5691867" lon="-8.4553317"><ele>538.0</ele><time>2026-04-16T09:37:17.856Z</time></trkpt><trkpt lat="42.56934" lon="-8.4553517"><ele>538.0</ele><time>2026-04-16T09:37:18.855Z</time></trkpt><trkpt lat="42.56952" lon="-8.455395"><ele>538.0</ele><time>2026-04-16T09:37:19.856Z</time></trkpt><trkpt lat="42.5696883" lon="-8.4554517"><ele>542.0</ele><time>2026-04-16T09:37:20.855Z</time></trkpt><trkpt lat="42.5698517" lon="-8.4555133"><ele>546.0</ele><time>2026-04-16T09:37:21.856Z</time></trkpt><trkpt lat="42.5700133" lon="-8.455595"><ele>550.0</ele><time>2026-04-16T09:37:22.855Z</time></trkpt><trkpt lat="42.5701933" lon="-8.4556867"><ele>551.3333333333334</ele><time>2026-04-16T09:37:23.855Z</time></trkpt><trkpt lat="42.57038" lon="-8.4557833"><ele>552.6666666666666</ele><time>2026-04-16T09:37:24.855Z</time></trkpt><trkpt lat="42.5705733" lon="-8.45588"><ele>554.0</ele><time>2026-04-16T09:37:25.856Z</time></trkpt><trkpt lat="42.5707617" lon="-8.4559733"><ele>554.0</ele><time>2026-04-16T09:37:26.855Z</time></trkpt><trkpt lat="42.570925" lon="-8.4560617"><ele>554.0</ele><time>2026-04-16T09:37:27.856Z</time></trkpt><trkpt lat="42.5710667" lon="-8.456125"><ele>554.0</ele><time>2026-04-16T09:37:28.856Z</time></trkpt><trkpt lat="42.571185" lon="-8.4561567"><ele>554.0</ele><time>2026-04-16T09:37:29.855Z</time></trkpt><trkpt lat="42.5712733" lon="-8.4561767"><ele>558.5</ele><time>2026-04-16T09:37:30.856Z</time></trkpt><trkpt lat="42.5713633" lon="-8.4561417"><ele>563.0</ele><time>2026-04-16T09:37:31.856Z</time></trkpt><trkpt lat="42.571415" lon="-8.45603"><ele>567.5</ele><time>2026-04-16T09:37:32.856Z</time></trkpt><trkpt lat="42.57144" lon="-8.45586"><ele>572.0</ele><time>2026-04-16T09:37:33.855Z</time></trkpt><trkpt lat="42.57145" lon="-8.4556483"><ele>571.3333333333333</ele><time>2026-04-16T09:37:34.856Z</time></trkpt><trkpt lat="42.5714567" lon="-8.4554333"><ele>570.6666666666666</ele><time>2026-04-16T09:37:35.856Z</time></trkpt><trkpt lat="42.5714517" lon="-8.4552033"><ele>570.0</ele><time>2026-04-16T09:37:36.856Z</time></trkpt><trkpt lat="42.5714483" lon="-8.4549667"><ele>570.0</ele><time>2026-04-16T09:37:37.856Z</time></trkpt><trkpt lat="42.57144" lon="-8.4547617"><ele>570.0</ele><time>2026-04-16T09:37:38.856Z</time></trkpt><trkpt lat="42.5714383" lon="-8.45459"><ele>570.0</ele><time>2026-04-16T09:37:39.856Z</time></trkpt><trkpt lat="42.57147" lon="-8.45442"><ele>570.0</ele><time>2026-04-16T09:37:40.855Z</time></trkpt><trkpt lat="42.5715283" lon="-8.4542483"><ele>569.3333333333334</ele><time>2026-04-16T09:37:41.855Z</time></trkpt><trkpt lat="42.571605" lon="-8.45408"><ele>568.6666666666667</ele><time>2026-04-16T09:37:42.856Z</time></trkpt><trkpt lat="42.57171" lon="-8.45392"><ele>568.0</ele><time>2026-04-16T09:37:43.855Z</time></trkpt><trkpt lat="42.5718383" lon="-8.453765"><ele>568.3333333333334</ele><time>2026-04-16T09:37:44.856Z</time></trkpt><trkpt lat="42.5719817" lon="-8.453595"><ele>568.6666666666666</ele><time>2026-04-16T09:37:45.856Z</time></trkpt><trkpt lat="42.5721217" lon="-8.45346"><ele>569.0</ele><time>2026-04-16T09:37:46.856Z</time></trkpt><trkpt lat="42.5722467" lon="-8.4533717"><ele>569.0</ele><time>2026-04-16T09:37:47.855Z</time></trkpt><trkpt lat="42.5723433" lon="-8.453335"><ele>569.0</ele><time>2026-04-16T09:37:48.856Z</time></trkpt><trkpt lat="42.5724117" lon="-8.453335"><ele>569.0</ele><time>2026-04-16T09:37:49.856Z</time></trkpt><trkpt lat="42.5725133" lon="-8.4534683"><ele>569.0</ele><time>2026-04-16T09:37:51.855Z</time></trkpt><trkpt lat="42.5725783" lon="-8.4535983"><ele>569.0</ele><time>2026-04-16T09:37:52.855Z</time></trkpt><trkpt lat="42.5726717" lon="-8.4537367"><ele>573.0</ele><time>2026-04-16T09:37:53.855Z</time></trkpt><trkpt lat="42.572795" lon="-8.4538517"><ele>577.0</ele><time>2026-04-16T09:37:54.856Z</time></trkpt><trkpt lat="42.5729333" lon="-8.453905"><ele>581.0</ele><time>2026-04-16T09:37:55.855Z</time></trkpt><trkpt lat="42.5730767" lon="-8.45395"><ele>585.0</ele><time>2026-04-16T09:37:56.856Z</time></trkpt><trkpt lat="42.5732183" lon="-8.4539983"><ele>586.25</ele><time>2026-04-16T09:37:57.856Z</time></trkpt><trkpt lat="42.5733633" lon="-8.4540733"><ele>587.5</ele><time>2026-04-16T09:37:58.856Z</time></trkpt><trkpt lat="42.5735117" lon="-8.454145"><ele>588.75</ele><time>2026-04-16T09:37:59.856Z</time></trkpt><trkpt lat="42.573645" lon="-8.4541867"><ele>590.0</ele><time>2026-04-16T09:38:00.855Z</time></trkpt><trkpt lat="42.5737517" lon="-8.4541817"><ele>591.5</ele><time>2026-04-16T09:38:01.855Z</time></trkpt><trkpt lat="42.5738383" lon="-8.4541467"><ele>593.0</ele><time>2026-04-16T09:38:02.856Z</time></trkpt><trkpt lat="42.5739133" lon="-8.4540767"><ele>594.5</ele><time>2026-04-16T09:38:03.855Z</time></trkpt><trkpt lat="42.57398" lon="-8.45398"><ele>596.0</ele><time>2026-04-16T09:38:04.855Z</time></trkpt><trkpt lat="42.57145" lon="-8.4556483"><ele>587.3333333333333</ele><time>2026-04-16T09:37:34.856Z</time></trkpt><trkpt lat="42.5714567" lon="-8.4554333"><ele>578.6666666666666</ele><time>2026-04-16T09:37:35.856Z</time></trkpt><trkpt lat="42.5714517" lon="-8.4552033"><ele>570.0</ele><time>2026-04-16T09:37:36.856Z</time></trkpt><trkpt lat="42.5714483" lon="-8.4549667"><ele>570.0</ele><time>2026-04-16T09:37:37.856Z</time></trkpt><trkpt lat="42.57144" lon="-8.4547617"><ele>570.0</ele><time>2026-04-16T09:37:38.856Z</time></trkpt><trkpt lat="42.5714383" lon="-8.45459"><ele>570.0</ele><time>2026-04-16T09:37:39.856Z</time></trkpt><trkpt lat="42.57147" lon="-8.45442"><ele>570.0</ele><time>2026-04-16T09:37:40.855Z</time></trkpt><trkpt lat="42.5715283" lon="-8.4542483"><ele>569.3333333333334</ele><time>2026-04-16T09:37:41.855Z</time></trkpt><trkpt lat="42.571605" lon="-8.45408"><ele>568.6666666666667</ele><time>2026-04-16T09:37:42.856Z</time></trkpt><trkpt lat="42.57171" lon="-8.45392"><ele>568.0</ele><time>2026-04-16T09:37:43.855Z</time></trkpt><trkpt lat="42.5718383" lon="-8.453765"><ele>568.3333333333334</ele><time>2026-04-16T09:37:44.856Z</time></trkpt><trkpt lat="42.5719817" lon="-8.453595"><ele>568.6666666666666</ele><time>2026-04-16T09:37:45.856Z</time></trkpt><trkpt lat="42.5721217" lon="-8.45346"><ele>569.0</ele><time>2026-04-16T09:37:46.856Z</time></trkpt><trkpt lat="42.5722467" lon="-8.4533717"><ele>569.0</ele><time>2026-04-16T09:37:47.855Z</time></trkpt><trkpt lat="42.5723433" lon="-8.453335"><ele>569.0</ele><time>2026-04-16T09:37:48.856Z</time></trkpt><trkpt lat="42.5724117" lon="-8.453335"><ele>569.0</ele><time>2026-04-16T09:37:49.856Z</time></trkpt><trkpt lat="42.5725133" lon="-8.4534683"><ele>569.0</ele><time>2026-04-16T09:37:51.855Z</time></trkpt><trkpt lat="42.5725783" lon="-8.4535983"><ele>569.0</ele><time>2026-04-16T09:37:52.855Z</time></trkpt><trkpt lat="42.5726717" lon="-8.4537367"><ele>573.0</ele><time>2026-04-16T09:37:53.855Z</time></trkpt><trkpt lat="42.572795" lon="-8.4538517"><ele>577.0</ele><time>2026-04-16T09:37:54.856Z</time></trkpt><trkpt lat="42.5729333" lon="-8.453905"><ele>581.0</ele><time>2026-04-16T09:37:55.855Z</time></trkpt><trkpt lat="42.5730767" lon="-8.45395"><ele>585.0</ele><time>2026-04-16T09:37:56.856Z</time></trkpt><trkpt lat="42.5732183" lon="-8.4539983"><ele>586.25</ele><time>2026-04-16T09:37:57.856Z</time></trkpt><trkpt lat="42.5733633" lon="-8.4540733"><ele>587.5</ele><time>2026-04-16T09:37:58.856Z</time></trkpt><trkpt lat="42.5735117" lon="-8.454145"><ele>588.75</ele><time>2026-04-16T09:37:59.856Z</time></trkpt><trkpt lat="42.573645" lon="-8.4541867"><ele>590.0</ele><time>2026-04-16T09:38:00.855Z</time></trkpt><trkpt lat="42.5737517" lon="-8.4541817"><ele>590.6</ele><time>2026-04-16T09:38:01.855Z</time></trkpt><trkpt lat="42.5738383" lon="-8.4541467"><ele>591.2</ele><time>2026-04-16T09:38:02.856Z</time></trkpt><trkpt lat="42.5739133" lon="-8.4540767"><ele>591.8</ele><time>2026-04-16T09:38:03.855Z</time></trkpt><trkpt lat="42.57398" lon="-8.45398"><ele>592.4</ele><time>2026-04-16T09:38:04.855Z</time></trkpt><trkpt lat="42.5740367" lon="-8.4538167"><ele>593.0</ele><time>2026-04-16T09:38:05.855Z</time></trkpt><trkpt lat="42.5740783" lon="-8.453565"><ele>593.0</ele><time>2026-04-16T09:38:06.855Z</time></trkpt><trkpt lat="42.5741183" lon="-8.4533067"><ele>593.0</ele><time>2026-04-16T09:38:07.855Z</time></trkpt><trkpt lat="42.5741517" lon="-8.453075"><ele>593.0</ele><time>2026-04-16T09:38:08.855Z</time></trkpt><trkpt lat="42.5741933" lon="-8.4528933"><ele>592.25</ele><time>2026-04-16T09:38:09.856Z</time></trkpt><trkpt lat="42.5742567" lon="-8.4527333"><ele>591.5</ele><time>2026-04-16T09:38:10.855Z</time></trkpt><trkpt lat="42.574345" lon="-8.4525883"><ele>590.75</ele><time>2026-04-16T09:38:11.855Z</time></trkpt><trkpt lat="42.574445" lon="-8.4524467"><ele>590.0</ele><time>2026-04-16T09:38:12.856Z</time></trkpt><trkpt lat="42.5745467" lon="-8.452295"><ele>592.75</ele><time>2026-04-16T09:38:13.855Z</time></trkpt><trkpt lat="42.5746267" lon="-8.4521233"><ele>595.5</ele><time>2026-04-16T09:38:14.855Z</time></trkpt><trkpt lat="42.5746967" lon="-8.45195"><ele>598.25</ele><time>2026-04-16T09:38:15.856Z</time></trkpt><trkpt lat="42.5747783" lon="-8.4517883"><ele>601.0</ele><time>2026-04-16T09:38:16.855Z</time></trkpt><trkpt lat="42.5748783" lon="-8.451615"><ele>601.0</ele><time>2026-04-16T09:38:17.856Z</time></trkpt><trkpt lat="42.5750117" lon="-8.4514567"><ele>601.0</ele><time>2026-04-16T09:38:18.856Z</time></trkpt><trkpt lat="42.5751433" lon="-8.4513183"><ele>601.0</ele><time>2026-04-16T09:38:19.855Z</time></trkpt><trkpt lat="42.575255" lon="-8.4512233"><ele>598.5</ele><time>2026-04-16T09:38:20.855Z</time></trkpt><trkpt lat="42.57535" lon="-8.4511733"><ele>596.0</ele><time>2026-04-16T09:38:21.855Z</time></trkpt><trkpt lat="42.57545" lon="-8.4511417"><ele>593.5</ele><time>2026-04-16T09:38:22.856Z</time></trkpt><trkpt lat="42.575565" lon="-8.4511317"><ele>591.0</ele><time>2026-04-16T09:38:23.855Z</time></trkpt><trkpt lat="42.5757033" lon="-8.45115"><ele>591.0</ele><time>2026-04-16T09:38:24.855Z</time></trkpt><trkpt lat="42.5758733" lon="-8.4511533"><ele>591.0</ele><time>2026-04-16T09:38:25.855Z</time></trkpt><trkpt lat="42.5760633" lon="-8.4511317"><ele>591.0</ele><time>2026-04-16T09:38:26.855Z</time></trkpt><trkpt lat="42.576265" lon="-8.4511217"><ele>592.0</ele><time>2026-04-16T09:38:27.856Z</time></trkpt><trkpt lat="42.5764733" lon="-8.45112"><ele>593.0</ele><time>2026-04-16T09:38:28.855Z</time></trkpt><trkpt lat="42.5766733" lon="-8.45113"><ele>594.0</ele><time>2026-04-16T09:38:29.856Z</time></trkpt><trkpt lat="42.5768583" lon="-8.45114"><ele>595.3333333333334</ele><time>2026-04-16T09:38:30.855Z</time></trkpt><trkpt lat="42.577035" lon="-8.4511283"><ele>596.6666666666667</ele><time>2026-04-16T09:38:31.855Z</time></trkpt><trkpt lat="42.5771967" lon="-8.4511117"><ele>598.0</ele><time>2026-04-16T09:38:32.856Z</time></trkpt><trkpt lat="42.5773383" lon="-8.4511067"><ele>598.0</ele><time>2026-04-16T09:38:33.856Z</time></trkpt><trkpt lat="42.5774383" lon="-8.4511267"><ele>598.0</ele><time>2026-04-16T09:38:34.856Z</time></trkpt><trkpt lat="42.5775067" lon="-8.4511733"><ele>598.0</ele><time>2026-04-16T09:38:35.856Z</time></trkpt><trkpt lat="42.57756" lon="-8.4512533"><ele>598.0</ele><time>2026-04-16T09:38:36.855Z</time></trkpt><trkpt lat="42.5776133" lon="-8.4513683"><ele>598.0</ele><time>2026-04-16T09:38:37.855Z</time></trkpt><trkpt lat="42.5776733" lon="-8.4514767"><ele>601.0</ele><time>2026-04-16T09:38:38.856Z</time></trkpt><trkpt lat="42.577745" lon="-8.4515417"><ele>604.0</ele><time>2026-04-16T09:38:39.856Z</time></trkpt><trkpt lat="42.577825" lon="-8.4515317"><ele>607.0</ele><time>2026-04-16T09:38:40.856Z</time></trkpt><trkpt lat="42.5779183" lon="-8.4514817"><ele>610.0</ele><time>2026-04-16T09:38:41.855Z</time></trkpt><trkpt lat="42.5780183" lon="-8.4513733"><ele>613.0</ele><time>2026-04-16T09:38:42.855Z</time></trkpt><trkpt lat="42.578115" lon="-8.4512167"><ele>613.0</ele><time>2026-04-16T09:38:43.855Z</time></trkpt><trkpt lat="42.5782267" lon="-8.45103"><ele>613.0</ele><time>2026-04-16T09:38:44.855Z</time></trkpt><trkpt lat="42.57834" lon="-8.4509083"><ele>613.0</ele><time>2026-04-16T09:38:45.855Z</time></trkpt><trkpt lat="42.5784617" lon="-8.4508067"><ele>613.0</ele><time>2026-04-16T09:38:46.856Z</time></trkpt><trkpt lat="42.5785833" lon="-8.4507417"><ele>613.0</ele><time>2026-04-16T09:38:47.855Z</time></trkpt><trkpt lat="42.5787217" lon="-8.4507083"><ele>613.0</ele><time>2026-04-16T09:38:48.855Z</time></trkpt><trkpt lat="42.5788867" lon="-8.450705"><ele>613.0</ele><time>2026-04-16T09:38:49.855Z</time></trkpt><trkpt lat="42.579045" lon="-8.4506817"><ele>615.75</ele><time>2026-04-16T09:38:50.856Z</time></trkpt><trkpt lat="42.5791767" lon="-8.4506467"><ele>618.5</ele><time>2026-04-16T09:38:51.855Z</time></trkpt><trkpt lat="42.579265" lon="-8.4505633"><ele>621.25</ele><time>2026-04-16T09:38:52.855Z</time></trkpt><trkpt lat="42.5793767" lon="-8.45045"><ele>624.0</ele><time>2026-04-16T09:38:53.856Z</time></trkpt><trkpt lat="42.579515" lon="-8.4503117"><ele>622.6666666666666</ele><time>2026-04-16T09:38:54.855Z</time></trkpt><trkpt lat="42.5796867" lon="-8.4501817"><ele>621.3333333333333</ele><time>2026-04-16T09:38:55.856Z</time></trkpt><trkpt lat="42.5798383" lon="-8.4500517"><ele>620.0</ele><time>2026-04-16T09:38:56.856Z</time></trkpt><trkpt lat="42.5799467" lon="-8.44989"><ele>620.0</ele><time>2026-04-16T09:38:57.855Z</time></trkpt><trkpt lat="42.58003" lon="-8.4496917"><ele>620.0</ele><time>2026-04-16T09:38:58.855Z</time></trkpt><trkpt lat="42.5800983" lon="-8.44946"><ele>620.0</ele><time>2026-04-16T09:38:59.855Z</time></trkpt><trkpt lat="42.58014" lon="-8.4492233"><ele>618.0</ele><time>2026-04-16T09:39:00.855Z</time></trkpt><trkpt lat="42.5801467" lon="-8.4490033"><ele>616.0</ele><time>2026-04-16T09:39:01.855Z</time></trkpt><trkpt lat="42.5801283" lon="-8.4487833"><ele>614.0</ele><time>2026-04-16T09:39:02.856Z</time></trkpt><trkpt lat="42.5801017" lon="-8.4485833"><ele>614.0</ele><time>2026-04-16T09:39:03.855Z</time></trkpt><trkpt lat="42.580085" lon="-8.4483983"><ele>614.0</ele><time>2026-04-16T09:39:04.855Z</time></trkpt><trkpt lat="42.5801017" lon="-8.4482483"><ele>614.0</ele><time>2026-04-16T09:39:05.855Z</time></trkpt><trkpt lat="42.5801367" lon="-8.448145"><ele>614.0</ele><time>2026-04-16T09:39:06.856Z</time></trkpt><trkpt lat="42.5801917" lon="-8.448065"><ele>614.0</ele><time>2026-04-16T09:39:07.855Z</time></trkpt><trkpt lat="42.58028" lon="-8.4480017"><ele>615.25</ele><time>2026-04-16T09:39:08.856Z</time></trkpt><trkpt lat="42.5804" lon="-8.4479583"><ele>616.5</ele><time>2026-04-16T09:39:09.855Z</time></trkpt><trkpt lat="42.5805383" lon="-8.4479233"><ele>617.75</ele><time>2026-04-16T09:39:10.855Z</time></trkpt><trkpt lat="42.5806833" lon="-8.44788"><ele>619.0</ele><time>2026-04-16T09:39:11.855Z</time></trkpt><trkpt lat="42.5808083" lon="-8.4478183"><ele>619.0</ele><time>2026-04-16T09:39:12.856Z</time></trkpt><trkpt lat="42.5808967" lon="-8.44776"><ele>619.0</ele><time>2026-04-16T09:39:13.855Z</time></trkpt><trkpt lat="42.5809583" lon="-8.4476967"><ele>619.0</ele><time>2026-04-16T09:39:14.856Z</time></trkpt><trkpt lat="42.5809917" lon="-8.4476217"><ele>619.0</ele><time>2026-04-16T09:39:15.856Z</time></trkpt><trkpt lat="42.5809717" lon="-8.447525"><ele>619.0</ele><time>2026-04-16T09:39:16.855Z</time></trkpt><trkpt lat="42.5809217" lon="-8.4473883"><ele>619.0</ele><time>2026-04-16T09:39:17.855Z</time></trkpt><trkpt lat="42.58088" lon="-8.4472233"><ele>618.5</ele><time>2026-04-16T09:39:18.855Z</time></trkpt><trkpt lat="42.580835" lon="-8.4470367"><ele>618.0</ele><time>2026-04-16T09:39:19.855Z</time></trkpt><trkpt lat="42.580785" lon="-8.4468317"><ele>617.5</ele><time>2026-04-16T09:39:20.856Z</time></trkpt><trkpt lat="42.580745" lon="-8.4466517"><ele>617.0</ele><time>2026-04-16T09:39:21.856Z</time></trkpt><trkpt lat="42.58071" lon="-8.4464767"><ele>617.0</ele><time>2026-04-16T09:39:22.855Z</time></trkpt><trkpt lat="42.58069" lon="-8.446315"><ele>617.0</ele><time>2026-04-16T09:39:23.855Z</time></trkpt><trkpt lat="42.5806867" lon="-8.4461417"><ele>617.0</ele><time>2026-04-16T09:39:24.856Z</time></trkpt><trkpt lat="42.5806917" lon="-8.4459483"><ele>617.0</ele><time>2026-04-16T09:39:25.855Z</time></trkpt><trkpt lat="42.5807083" lon="-8.44572"><ele>616.0</ele><time>2026-04-16T09:39:26.855Z</time></trkpt><trkpt lat="42.5807317" lon="-8.44547"><ele>615.0</ele><time>2026-04-16T09:39:27.856Z</time></trkpt><trkpt lat="42.5807433" lon="-8.4452083"><ele>614.0</ele><time>2026-04-16T09:39:28.855Z</time></trkpt><trkpt lat="42.5807467" lon="-8.4449467"><ele>614.0</ele><time>2026-04-16T09:39:29.856Z</time></trkpt><trkpt lat="42.580755" lon="-8.4447183"><ele>614.0</ele><time>2026-04-16T09:39:30.856Z</time></trkpt><trkpt lat="42.5807667" lon="-8.4445117"><ele>614.0</ele><time>2026-04-16T09:39:31.855Z</time></trkpt><trkpt lat="42.5801467" lon="-8.4490033"><ele>614.0</ele><time>2026-04-16T09:39:01.855Z</time></trkpt><trkpt lat="42.5801283" lon="-8.4487833"><ele>614.0</ele><time>2026-04-16T09:39:02.856Z</time></trkpt><trkpt lat="42.5801017" lon="-8.4485833"><ele>614.0</ele><time>2026-04-16T09:39:03.855Z</time></trkpt><trkpt lat="42.580085" lon="-8.4483983"><ele>614.0</ele><time>2026-04-16T09:39:04.855Z</time></trkpt><trkpt lat="42.5801017" lon="-8.4482483"><ele>614.0</ele><time>2026-04-16T09:39:05.855Z</time></trkpt><trkpt lat="42.5801367" lon="-8.448145"><ele>614.0</ele><time>2026-04-16T09:39:06.856Z</time></trkpt><trkpt lat="42.5801917" lon="-8.448065"><ele>614.0</ele><time>2026-04-16T09:39:07.855Z</time></trkpt><trkpt lat="42.58028" lon="-8.4480017"><ele>614.0</ele><time>2026-04-16T09:39:08.856Z</time></trkpt><trkpt lat="42.5804" lon="-8.4479583"><ele>615.25</ele><time>2026-04-16T09:39:09.855Z</time></trkpt><trkpt lat="42.5805383" lon="-8.4479233"><ele>616.5</ele><time>2026-04-16T09:39:10.855Z</time></trkpt><trkpt lat="42.5806833" lon="-8.44788"><ele>617.75</ele><time>2026-04-16T09:39:11.855Z</time></trkpt><trkpt lat="42.5808083" lon="-8.4478183"><ele>619.0</ele><time>2026-04-16T09:39:12.856Z</time></trkpt><trkpt lat="42.5808967" lon="-8.44776"><ele>619.0</ele><time>2026-04-16T09:39:13.855Z</time></trkpt><trkpt lat="42.5809583" lon="-8.4476967"><ele>619.0</ele><time>2026-04-16T09:39:14.856Z</time></trkpt><trkpt lat="42.5809917" lon="-8.4476217"><ele>619.0</ele><time>2026-04-16T09:39:15.856Z</time></trkpt><trkpt lat="42.5809717" lon="-8.447525"><ele>619.0</ele><time>2026-04-16T09:39:16.855Z</time></trkpt><trkpt lat="42.5809217" lon="-8.4473883"><ele>619.0</ele><time>2026-04-16T09:39:17.855Z</time></trkpt><trkpt lat="42.58088" lon="-8.4472233"><ele>618.5</ele><time>2026-04-16T09:39:18.855Z</time></trkpt><trkpt lat="42.580835" lon="-8.4470367"><ele>618.0</ele><time>2026-04-16T09:39:19.855Z</time></trkpt><trkpt lat="42.580785" lon="-8.4468317"><ele>617.5</ele><time>2026-04-16T09:39:20.856Z</time></trkpt><trkpt lat="42.580745" lon="-8.4466517"><ele>617.0</ele><time>2026-04-16T09:39:21.856Z</time></trkpt><trkpt lat="42.58071" lon="-8.4464767"><ele>617.0</ele><time>2026-04-16T09:39:22.855Z</time></trkpt><trkpt lat="42.58069" lon="-8.446315"><ele>617.0</ele><time>2026-04-16T09:39:23.855Z</time></trkpt><trkpt lat="42.5806867" lon="-8.4461417"><ele>617.0</ele><time>2026-04-16T09:39:24.856Z</time></trkpt><trkpt lat="42.5806917" lon="-8.4459483"><ele>617.0</ele><time>2026-04-16T09:39:25.855Z</time></trkpt><trkpt lat="42.5807083" lon="-8.44572"><ele>616.0</ele><time>2026-04-16T09:39:26.855Z</time></trkpt><trkpt lat="42.5807317" lon="-8.44547"><ele>615.0</ele><time>2026-04-16T09:39:27.856Z</time></trkpt><trkpt lat="42.5807433" lon="-8.4452083"><ele>614.0</ele><time>2026-04-16T09:39:28.855Z</time></trkpt><trkpt lat="42.5807467" lon="-8.4449467"><ele>612.0</ele><time>2026-04-16T09:39:29.856Z</time></trkpt><trkpt lat="42.580755" lon="-8.4447183"><ele>610.0</ele><time>2026-04-16T09:39:30.856Z</time></trkpt><trkpt lat="42.5807667" lon="-8.4445117"><ele>608.0</ele><time>2026-04-16T09:39:31.855Z</time></trkpt><trkpt lat="42.5807867" lon="-8.4443333"><ele>607.0</ele><time>2026-04-16T09:39:32.856Z</time></trkpt><trkpt lat="42.5808183" lon="-8.4441733"><ele>606.0</ele><time>2026-04-16T09:39:33.855Z</time></trkpt><trkpt lat="42.580865" lon="-8.4440283"><ele>605.0</ele><time>2026-04-16T09:39:34.855Z</time></trkpt><trkpt lat="42.5809367" lon="-8.443895"><ele>604.0</ele><time>2026-04-16T09:39:35.855Z</time></trkpt><trkpt lat="42.581035" lon="-8.44378"><ele>602.25</ele><time>2026-04-16T09:39:36.855Z</time></trkpt><trkpt lat="42.5811583" lon="-8.4436733"><ele>600.5</ele><time>2026-04-16T09:39:37.855Z</time></trkpt><trkpt lat="42.58129" lon="-8.44359"><ele>598.75</ele><time>2026-04-16T09:39:38.856Z</time></trkpt><trkpt lat="42.5814067" lon="-8.4435517"><ele>597.0</ele><time>2026-04-16T09:39:39.855Z</time></trkpt><trkpt lat="42.5815033" lon="-8.4435567"><ele>597.0</ele><time>2026-04-16T09:39:40.855Z</time></trkpt><trkpt lat="42.5815917" lon="-8.44361"><ele>597.0</ele><time>2026-04-16T09:39:41.855Z</time></trkpt><trkpt lat="42.5816717" lon="-8.4437067"><ele>597.0</ele><time>2026-04-16T09:39:42.856Z</time></trkpt><trkpt lat="42.581755" lon="-8.4438033"><ele>597.0</ele><time>2026-04-16T09:39:43.856Z</time></trkpt><trkpt lat="42.581845" lon="-8.443855"><ele>597.0</ele><time>2026-04-16T09:39:44.856Z</time></trkpt><trkpt lat="42.5819317" lon="-8.4438633"><ele>598.0</ele><time>2026-04-16T09:39:45.855Z</time></trkpt><trkpt lat="42.5820067" lon="-8.4437983"><ele>599.0</ele><time>2026-04-16T09:39:46.856Z</time></trkpt><trkpt lat="42.5820733" lon="-8.443685"><ele>600.0</ele><time>2026-04-16T09:39:47.856Z</time></trkpt><trkpt lat="42.5821417" lon="-8.4435333"><ele>601.0</ele><time>2026-04-16T09:39:48.855Z</time></trkpt><trkpt lat="42.5822233" lon="-8.443395"><ele>601.0</ele><time>2026-04-16T09:39:49.855Z</time></trkpt><trkpt lat="42.5823233" lon="-8.443305"><ele>601.0</ele><time>2026-04-16T09:39:50.855Z</time></trkpt><trkpt lat="42.5824417" lon="-8.4432517"><ele>601.0</ele><time>2026-04-16T09:39:51.856Z</time></trkpt><trkpt lat="42.58258" lon="-8.4432283"><ele>601.0</ele><time>2026-04-16T09:39:52.855Z</time></trkpt><trkpt lat="42.58273" lon="-8.443215"><ele>600.25</ele><time>2026-04-16T09:39:53.855Z</time></trkpt><trkpt lat="42.5828817" lon="-8.4431833"><ele>599.5</ele><time>2026-04-16T09:39:54.855Z</time></trkpt><trkpt lat="42.5829867" lon="-8.4431283"><ele>598.75</ele><time>2026-04-16T09:39:55.855Z</time></trkpt><trkpt lat="42.583055" lon="-8.44304"><ele>598.0</ele><time>2026-04-16T09:39:56.855Z</time></trkpt><trkpt lat="42.5830983" lon="-8.4429033"><ele>598.0</ele><time>2026-04-16T09:39:57.856Z</time></trkpt><trkpt lat="42.5831517" lon="-8.4427533"><ele>598.0</ele><time>2026-04-16T09:39:58.855Z</time></trkpt><trkpt lat="42.58323" lon="-8.4426133"><ele>598.0</ele><time>2026-04-16T09:39:59.855Z</time></trkpt><trkpt lat="42.5833367" lon="-8.4425"><ele>598.0</ele><time>2026-04-16T09:40:00.856Z</time></trkpt><trkpt lat="42.5834767" lon="-8.4424117"><ele>598.0</ele><time>2026-04-16T09:40:01.855Z</time></trkpt><trkpt lat="42.58361" lon="-8.4423533"><ele>598.0</ele><time>2026-04-16T09:40:02.856Z</time></trkpt><trkpt lat="42.58373" lon="-8.4422917"><ele>598.0</ele><time>2026-04-16T09:40:03.855Z</time></trkpt><trkpt lat="42.5838317" lon="-8.4421933"><ele>598.0</ele><time>2026-04-16T09:40:04.855Z</time></trkpt><trkpt lat="42.58392" lon="-8.44204"><ele>598.3333333333334</ele><time>2026-04-16T09:40:05.855Z</time></trkpt><trkpt lat="42.5840017" lon="-8.4418533"><ele>598.6666666666666</ele><time>2026-04-16T09:40:06.855Z</time></trkpt><trkpt lat="42.5840867" lon="-8.44165"><ele>599.0</ele><time>2026-04-16T09:40:07.856Z</time></trkpt><trkpt lat="42.5841733" lon="-8.4414533"><ele>595.25</ele><time>2026-04-16T09:40:08.856Z</time></trkpt><trkpt lat="42.5842617" lon="-8.441275"><ele>591.5</ele><time>2026-04-16T09:40:09.855Z</time></trkpt><trkpt lat="42.5843483" lon="-8.4411217"><ele>587.75</ele><time>2026-04-16T09:40:10.856Z</time></trkpt><trkpt lat="42.5844167" lon="-8.4409767"><ele>584.0</ele><time>2026-04-16T09:40:11.856Z</time></trkpt><trkpt lat="42.58445" lon="-8.4408433"><ele>584.0</ele><time>2026-04-16T09:40:12.855Z</time></trkpt><trkpt lat="42.584455" lon="-8.4407117"><ele>584.0</ele><time>2026-04-16T09:40:13.855Z</time></trkpt><trkpt lat="42.5844283" lon="-8.4405683"><ele>584.0</ele><time>2026-04-16T09:40:14.855Z</time></trkpt><trkpt lat="42.5843667" lon="-8.4403867"><ele>584.0</ele><time>2026-04-16T09:40:15.855Z</time></trkpt><trkpt lat="42.5842917" lon="-8.4401767"><ele>583.6666666666666</ele><time>2026-04-16T09:40:16.855Z</time></trkpt><trkpt lat="42.5842233" lon="-8.439965"><ele>583.3333333333334</ele><time>2026-04-16T09:40:17.855Z</time></trkpt><trkpt lat="42.5841583" lon="-8.43977"><ele>583.0</ele><time>2026-04-16T09:40:18.856Z</time></trkpt><trkpt lat="42.5841033" lon="-8.4395917"><ele>582.75</ele><time>2026-04-16T09:40:19.856Z</time></trkpt><trkpt lat="42.5840683" lon="-8.4394317"><ele>582.5</ele><time>2026-04-16T09:40:20.855Z</time></trkpt><trkpt lat="42.5840583" lon="-8.4392767"><ele>582.25</ele><time>2026-04-16T09:40:21.855Z</time></trkpt><trkpt lat="42.5840833" lon="-8.4391317"><ele>582.0</ele><time>2026-04-16T09:40:22.856Z</time></trkpt><trkpt lat="42.5841267" lon="-8.4389717"><ele>576.6666666666666</ele><time>2026-04-16T09:40:23.855Z</time></trkpt><trkpt lat="42.5842083" lon="-8.4388"><ele>571.3333333333333</ele><time>2026-04-16T09:40:24.856Z</time></trkpt><trkpt lat="42.5843083" lon="-8.43863"><ele>566.0</ele><time>2026-04-16T09:40:25.856Z</time></trkpt><trkpt lat="42.584425" lon="-8.4384783"><ele>572.3333333333333</ele><time>2026-04-16T09:40:26.855Z</time></trkpt><trkpt lat="42.5845483" lon="-8.4383433"><ele>578.6666666666666</ele><time>2026-04-16T09:40:27.855Z</time></trkpt><trkpt lat="42.584675" lon="-8.4382267"><ele>585.0</ele><time>2026-04-16T09:40:28.855Z</time></trkpt><trkpt lat="42.5848083" lon="-8.4381233"><ele>585.0</ele><time>2026-04-16T09:40:29.855Z</time></trkpt><trkpt lat="42.5849367" lon="-8.4380267"><ele>585.0</ele><time>2026-04-16T09:40:30.855Z</time></trkpt><trkpt lat="42.5850767" lon="-8.4379417"><ele>585.0</ele><time>2026-04-16T09:40:31.856Z</time></trkpt><trkpt lat="42.58524" lon="-8.4378783"><ele>577.3333333333334</ele><time>2026-04-16T09:40:32.855Z</time></trkpt><trkpt lat="42.5854267" lon="-8.4378283"><ele>569.6666666666667</ele><time>2026-04-16T09:40:33.855Z</time></trkpt><trkpt lat="42.5856317" lon="-8.437785"><ele>562.0</ele><time>2026-04-16T09:40:34.856Z</time></trkpt><trkpt lat="42.58583" lon="-8.4377317"><ele>562.0</ele><time>2026-04-16T09:40:35.855Z</time></trkpt><trkpt lat="42.5860233" lon="-8.4376817"><ele>562.0</ele><time>2026-04-16T09:40:36.855Z</time></trkpt><trkpt lat="42.5862083" lon="-8.4376367"><ele>562.0</ele><time>2026-04-16T09:40:37.855Z</time></trkpt><trkpt lat="42.5863733" lon="-8.4375967"><ele>565.0</ele><time>2026-04-16T09:40:38.856Z</time></trkpt><trkpt lat="42.5865067" lon="-8.43755"><ele>568.0</ele><time>2026-04-16T09:40:39.855Z</time></trkpt><trkpt lat="42.5866017" lon="-8.437495"><ele>571.0</ele><time>2026-04-16T09:40:40.855Z</time></trkpt><trkpt lat="42.5866717" lon="-8.4373883"><ele>574.0</ele><time>2026-04-16T09:40:41.855Z</time></trkpt><trkpt lat="42.5867233" lon="-8.43722"><ele>568.0</ele><time>2026-04-16T09:40:42.855Z</time></trkpt><trkpt lat="42.58676" lon="-8.437"><ele>562.0</ele><time>2026-04-16T09:40:43.855Z</time></trkpt><trkpt lat="42.58681" lon="-8.4367967"><ele>556.0</ele><time>2026-04-16T09:40:44.855Z</time></trkpt><trkpt lat="42.58689" lon="-8.436625"><ele>556.0</ele><time>2026-04-16T09:40:45.856Z</time></trkpt><trkpt lat="42.5869867" lon="-8.43647"><ele>556.0</ele><time>2026-04-16T09:40:46.856Z</time></trkpt><trkpt lat="42.5871083" lon="-8.4363217"><ele>556.0</ele><time>2026-04-16T09:40:47.856Z</time></trkpt><trkpt lat="42.5872533" lon="-8.43617"><ele>556.6666666666667</ele><time>2026-04-16T09:40:48.855Z</time></trkpt><trkpt lat="42.5874117" lon="-8.43602"><ele>557.3333333333334</ele><time>2026-04-16T09:40:49.856Z</time></trkpt><trkpt lat="42.587595" lon="-8.435865"><ele>558.0</ele><time>2026-04-16T09:40:50.855Z</time></trkpt><trkpt lat="42.5877783" lon="-8.4357133"><ele>556.6666666666666</ele><time>2026-04-16T09:40:51.856Z</time></trkpt><trkpt lat="42.5879333" lon="-8.4355667"><ele>555.3333333333333</ele><time>2026-04-16T09:40:52.855Z</time></trkpt><trkpt lat="42.5880867" lon="-8.4354317"><ele>554.0</ele><time>2026-04-16T09:40:53.855Z</time></trkpt><trkpt lat="42.5882317" lon="-8.4352933"><ele>554.0</ele><time>2026-04-16T09:40:54.855Z</time></trkpt><trkpt lat="42.5883717" lon="-8.4351883"><ele>554.0</ele><time>2026-04-16T09:40:55.855Z</time></trkpt><trkpt lat="42.58852" lon="-8.43509"><ele>554.0</ele><time>2026-04-16T09:40:56.855Z</time></trkpt><trkpt lat="42.5886733" lon="-8.4350267"><ele>559.0</ele><time>2026-04-16T09:40:57.856Z</time></trkpt><trkpt lat="42.588825" lon="-8.4349833"><ele>564.0</ele><time>2026-04-16T09:40:58.855Z</time></trkpt><trkpt lat="42.584675" lon="-8.4382267"><ele>560.6666666666666</ele><time>2026-04-16T09:40:28.855Z</time></trkpt><trkpt lat="42.5848083" lon="-8.4381233"><ele>557.3333333333333</ele><time>2026-04-16T09:40:29.855Z</time></trkpt><trkpt lat="42.5849367" lon="-8.4380267"><ele>554.0</ele><time>2026-04-16T09:40:30.855Z</time></trkpt><trkpt lat="42.5850767" lon="-8.4379417"><ele>554.0</ele><time>2026-04-16T09:40:31.856Z</time></trkpt><trkpt lat="42.58524" lon="-8.4378783"><ele>554.0</ele><time>2026-04-16T09:40:32.855Z</time></trkpt><trkpt lat="42.5854267" lon="-8.4378283"><ele>554.0</ele><time>2026-04-16T09:40:33.855Z</time></trkpt><trkpt lat="42.5856317" lon="-8.437785"><ele>556.6666666666666</ele><time>2026-04-16T09:40:34.856Z</time></trkpt><trkpt lat="42.58583" lon="-8.4377317"><ele>559.3333333333334</ele><time>2026-04-16T09:40:35.855Z</time></trkpt><trkpt lat="42.5860233" lon="-8.4376817"><ele>562.0</ele><time>2026-04-16T09:40:36.855Z</time></trkpt><trkpt lat="42.5862083" lon="-8.4376367"><ele>565.0</ele><time>2026-04-16T09:40:37.855Z</time></trkpt><trkpt lat="42.5863733" lon="-8.4375967"><ele>568.0</ele><time>2026-04-16T09:40:38.856Z</time></trkpt><trkpt lat="42.5865067" lon="-8.43755"><ele>571.0</ele><time>2026-04-16T09:40:39.855Z</time></trkpt><trkpt lat="42.5866017" lon="-8.437495"><ele>574.0</ele><time>2026-04-16T09:40:40.855Z</time></trkpt><trkpt lat="42.5866717" lon="-8.4373883"><ele>574.0</ele><time>2026-04-16T09:40:41.855Z</time></trkpt><trkpt lat="42.5867233" lon="-8.43722"><ele>574.0</ele><time>2026-04-16T09:40:42.855Z</time></trkpt><trkpt lat="42.58676" lon="-8.437"><ele>574.0</ele><time>2026-04-16T09:40:43.855Z</time></trkpt><trkpt lat="42.58681" lon="-8.4367967"><ele>575.0</ele><time>2026-04-16T09:40:44.855Z</time></trkpt><trkpt lat="42.58689" lon="-8.436625"><ele>576.0</ele><time>2026-04-16T09:40:45.856Z</time></trkpt><trkpt lat="42.5869867" lon="-8.43647"><ele>577.0</ele><time>2026-04-16T09:40:46.856Z</time></trkpt><trkpt lat="42.5871083" lon="-8.4363217"><ele>570.6666666666667</ele><time>2026-04-16T09:40:47.856Z</time></trkpt><trkpt lat="42.5872533" lon="-8.43617"><ele>564.3333333333334</ele><time>2026-04-16T09:40:48.855Z</time></trkpt><trkpt lat="42.5874117" lon="-8.43602"><ele>558.0</ele><time>2026-04-16T09:40:49.856Z</time></trkpt><trkpt lat="42.587595" lon="-8.435865"><ele>558.0</ele><time>2026-04-16T09:40:50.855Z</time></trkpt><trkpt lat="42.5877783" lon="-8.4357133"><ele>558.0</ele><time>2026-04-16T09:40:51.856Z</time></trkpt><trkpt lat="42.5879333" lon="-8.4355667"><ele>558.0</ele><time>2026-04-16T09:40:52.855Z</time></trkpt><trkpt lat="42.5880867" lon="-8.4354317"><ele>556.6666666666666</ele><time>2026-04-16T09:40:53.855Z</time></trkpt><trkpt lat="42.5882317" lon="-8.4352933"><ele>555.3333333333333</ele><time>2026-04-16T09:40:54.855Z</time></trkpt><trkpt lat="42.5883717" lon="-8.4351883"><ele>554.0</ele><time>2026-04-16T09:40:55.855Z</time></trkpt><trkpt lat="42.58852" lon="-8.43509"><ele>554.0</ele><time>2026-04-16T09:40:56.855Z</time></trkpt><trkpt lat="42.5886733" lon="-8.4350267"><ele>554.0</ele><time>2026-04-16T09:40:57.856Z</time></trkpt><trkpt lat="42.588825" lon="-8.4349833"><ele>554.0</ele><time>2026-04-16T09:40:58.855Z</time></trkpt><trkpt lat="42.5889883" lon="-8.4349583"><ele>556.5</ele><time>2026-04-16T09:40:59.855Z</time></trkpt><trkpt lat="42.589125" lon="-8.43495"><ele>559.0</ele><time>2026-04-16T09:41:00.856Z</time></trkpt><trkpt lat="42.589225" lon="-8.43493"><ele>561.5</ele><time>2026-04-16T09:41:01.856Z</time></trkpt><trkpt lat="42.5893317" lon="-8.4348583"><ele>564.0</ele><time>2026-04-16T09:41:03.856Z</time></trkpt><trkpt lat="42.589365" lon="-8.4346817"><ele>562.0</ele><time>2026-04-16T09:41:05.855Z</time></trkpt><trkpt lat="42.5893483" lon="-8.43454"><ele>560.0</ele><time>2026-04-16T09:41:06.856Z</time></trkpt><trkpt lat="42.58931" lon="-8.4343517"><ele>558.0</ele><time>2026-04-16T09:41:07.856Z</time></trkpt><trkpt lat="42.589245" lon="-8.4341417"><ele>556.0</ele><time>2026-04-16T09:41:08.856Z</time></trkpt><trkpt lat="42.58917" lon="-8.43396"><ele>555.6</ele><time>2026-04-16T09:41:09.855Z</time></trkpt><trkpt lat="42.5891167" lon="-8.4338033"><ele>555.2</ele><time>2026-04-16T09:41:10.855Z</time></trkpt><trkpt lat="42.5890533" lon="-8.4336917"><ele>554.8</ele><time>2026-04-16T09:41:11.856Z</time></trkpt><trkpt lat="42.58899" lon="-8.4336033"><ele>554.4</ele><time>2026-04-16T09:41:12.855Z</time></trkpt><trkpt lat="42.58892" lon="-8.433545"><ele>554.0</ele><time>2026-04-16T09:41:14.856Z</time></trkpt><trkpt lat="42.5889433" lon="-8.433455"><ele>554.0</ele><time>2026-04-16T09:41:17.855Z</time></trkpt><trkpt lat="42.5889883" lon="-8.4333883"><ele>554.0</ele><time>2026-04-16T09:41:18.855Z</time></trkpt><trkpt lat="42.58905" lon="-8.4333233"><ele>554.0</ele><time>2026-04-16T09:41:19.856Z</time></trkpt><trkpt lat="42.5891233" lon="-8.4332617"><ele>554.0</ele><time>2026-04-16T09:41:20.856Z</time></trkpt><trkpt lat="42.589215" lon="-8.4332133"><ele>554.0</ele><time>2026-04-16T09:41:21.856Z</time></trkpt><trkpt lat="42.58932" lon="-8.4331683"><ele>554.0</ele><time>2026-04-16T09:41:22.855Z</time></trkpt><trkpt lat="42.5894433" lon="-8.4331267"><ele>556.0</ele><time>2026-04-16T09:41:23.856Z</time></trkpt><trkpt lat="42.589575" lon="-8.4330717"><ele>558.0</ele><time>2026-04-16T09:41:24.856Z</time></trkpt><trkpt lat="42.589705" lon="-8.4329933"><ele>560.0</ele><time>2026-04-16T09:41:25.855Z</time></trkpt><trkpt lat="42.589825" lon="-8.432905"><ele>562.0</ele><time>2026-04-16T09:41:26.856Z</time></trkpt><trkpt lat="42.5899483" lon="-8.4328133"><ele>562.0</ele><time>2026-04-16T09:41:27.855Z</time></trkpt><trkpt lat="42.5900567" lon="-8.432735"><ele>562.0</ele><time>2026-04-16T09:41:28.856Z</time></trkpt><trkpt lat="42.5901567" lon="-8.4326683"><ele>562.0</ele><time>2026-04-16T09:41:29.855Z</time></trkpt><trkpt lat="42.5902517" lon="-8.4326133"><ele>562.0</ele><time>2026-04-16T09:41:30.855Z</time></trkpt><trkpt lat="42.5903483" lon="-8.4325567"><ele>562.0</ele><time>2026-04-16T09:41:31.855Z</time></trkpt><trkpt lat="42.5904517" lon="-8.4325083"><ele>565.0</ele><time>2026-04-16T09:41:32.855Z</time></trkpt><trkpt lat="42.5905517" lon="-8.4324683"><ele>568.0</ele><time>2026-04-16T09:41:33.855Z</time></trkpt><trkpt lat="42.5906467" lon="-8.4324567"><ele>571.0</ele><time>2026-04-16T09:41:34.856Z</time></trkpt><trkpt lat="42.5907417" lon="-8.4324483"><ele>574.0</ele><time>2026-04-16T09:41:35.855Z</time></trkpt><trkpt lat="42.5908433" lon="-8.4324367"><ele>577.0</ele><time>2026-04-16T09:41:36.855Z</time></trkpt><trkpt lat="42.590945" lon="-8.4324383"><ele>577.0</ele><time>2026-04-16T09:41:37.856Z</time></trkpt><trkpt lat="42.591015" lon="-8.4324767"><ele>577.0</ele><time>2026-04-16T09:41:38.856Z</time></trkpt><trkpt lat="42.591065" lon="-8.43255"><ele>577.0</ele><time>2026-04-16T09:41:39.856Z</time></trkpt><trkpt lat="42.5910983" lon="-8.4326517"><ele>577.0</ele><time>2026-04-16T09:41:40.856Z</time></trkpt><trkpt lat="42.5910983" lon="-8.4327817"><ele>577.0</ele><time>2026-04-16T09:41:41.856Z</time></trkpt><trkpt lat="42.5910817" lon="-8.432935"><ele>577.0</ele><time>2026-04-16T09:41:42.856Z</time></trkpt><trkpt lat="42.5910683" lon="-8.4330767"><ele>577.3333333333334</ele><time>2026-04-16T09:41:43.856Z</time></trkpt><trkpt lat="42.5910617" lon="-8.4331933"><ele>577.6666666666667</ele><time>2026-04-16T09:41:44.856Z</time></trkpt><trkpt lat="42.5910717" lon="-8.4332933"><ele>578.0</ele><time>2026-04-16T09:41:45.857Z</time></trkpt><trkpt lat="42.5910933" lon="-8.43338"><ele>578.3333333333334</ele><time>2026-04-16T09:41:46.856Z</time></trkpt><trkpt lat="42.5911783" lon="-8.4335017"><ele>578.6666666666666</ele><time>2026-04-16T09:41:48.856Z</time></trkpt><trkpt lat="42.5912433" lon="-8.4335617"><ele>579.0</ele><time>2026-04-16T09:41:49.857Z</time></trkpt><trkpt lat="42.5913183" lon="-8.4336367"><ele>579.0</ele><time>2026-04-16T09:41:50.857Z</time></trkpt><trkpt lat="42.591405" lon="-8.4337383"><ele>579.0</ele><time>2026-04-16T09:41:51.857Z</time></trkpt><trkpt lat="42.5914983" lon="-8.4338483"><ele>579.0</ele><time>2026-04-16T09:41:52.857Z</time></trkpt><trkpt lat="42.5915917" lon="-8.43395"><ele>579.0</ele><time>2026-04-16T09:41:53.856Z</time></trkpt><trkpt lat="42.591675" lon="-8.4340417"><ele>579.6</ele><time>2026-04-16T09:41:54.857Z</time></trkpt><trkpt lat="42.591755" lon="-8.4341117"><ele>580.2</ele><time>2026-04-16T09:41:55.856Z</time></trkpt><trkpt lat="42.5918433" lon="-8.434155"><ele>580.8000000000001</ele><time>2026-04-16T09:41:56.856Z</time></trkpt><trkpt lat="42.5919517" lon="-8.4341883"><ele>581.4</ele><time>2026-04-16T09:41:57.857Z</time></trkpt><trkpt lat="42.592065" lon="-8.4342217"><ele>582.0</ele><time>2026-04-16T09:41:58.857Z</time></trkpt><trkpt lat="42.592185" lon="-8.4342517"><ele>580.6</ele><time>2026-04-16T09:41:59.857Z</time></trkpt><trkpt lat="42.5923" lon="-8.4342883"><ele>579.2</ele><time>2026-04-16T09:42:00.857Z</time></trkpt><trkpt lat="42.592415" lon="-8.4343233"><ele>577.8</ele><time>2026-04-16T09:42:01.856Z</time></trkpt><trkpt lat="42.5925283" lon="-8.4343417"><ele>576.4</ele><time>2026-04-16T09:42:02.856Z</time></trkpt><trkpt lat="42.5926217" lon="-8.4343767"><ele>575.0</ele><time>2026-04-16T09:42:03.856Z</time></trkpt><trkpt lat="42.5927117" lon="-8.4344517"><ele>575.0</ele><time>2026-04-16T09:42:04.857Z</time></trkpt><trkpt lat="42.59281" lon="-8.4345617"><ele>575.0</ele><time>2026-04-16T09:42:05.856Z</time></trkpt><trkpt lat="42.59291" lon="-8.434695"><ele>575.0</ele><time>2026-04-16T09:42:06.857Z</time></trkpt><trkpt lat="42.59301" lon="-8.43482"><ele>575.0</ele><time>2026-04-16T09:42:07.857Z</time></trkpt><trkpt lat="42.59311" lon="-8.4349417"><ele>574.0</ele><time>2026-04-16T09:42:08.857Z</time></trkpt><trkpt lat="42.5931933" lon="-8.4350617"><ele>573.0</ele><time>2026-04-16T09:42:09.857Z</time></trkpt><trkpt lat="42.593265" lon="-8.4352"><ele>572.0</ele><time>2026-04-16T09:42:10.856Z</time></trkpt><trkpt lat="42.5933167" lon="-8.43535"><ele>571.0</ele><time>2026-04-16T09:42:11.857Z</time></trkpt><trkpt lat="42.5933683" lon="-8.4354983"><ele>573.0</ele><time>2026-04-16T09:42:12.857Z</time></trkpt><trkpt lat="42.5934117" lon="-8.4356617"><ele>575.0</ele><time>2026-04-16T09:42:13.856Z</time></trkpt><trkpt lat="42.5934517" lon="-8.4358033"><ele>577.0</ele><time>2026-04-16T09:42:14.857Z</time></trkpt><trkpt lat="42.593505" lon="-8.4359267"><ele>579.0</ele><time>2026-04-16T09:42:15.856Z</time></trkpt><trkpt lat="42.5935583" lon="-8.4360133"><ele>581.0</ele><time>2026-04-16T09:42:16.856Z</time></trkpt><trkpt lat="42.593625" lon="-8.43609"><ele>579.0</ele><time>2026-04-16T09:42:17.856Z</time></trkpt><trkpt lat="42.5937017" lon="-8.4361383"><ele>577.0</ele><time>2026-04-16T09:42:18.857Z</time></trkpt><trkpt lat="42.593795" lon="-8.436175"><ele>575.0</ele><time>2026-04-16T09:42:19.856Z</time></trkpt><trkpt lat="42.593895" lon="-8.4361983"><ele>573.0</ele><time>2026-04-16T09:42:20.857Z</time></trkpt><trkpt lat="42.5939867" lon="-8.43623"><ele>571.0</ele><time>2026-04-16T09:42:21.857Z</time></trkpt><trkpt lat="42.59408" lon="-8.43627"><ele>571.75</ele><time>2026-04-16T09:42:22.857Z</time></trkpt><trkpt lat="42.5941767" lon="-8.4363267"><ele>572.5</ele><time>2026-04-16T09:42:23.857Z</time></trkpt><trkpt lat="42.5942817" lon="-8.4363917"><ele>573.25</ele><time>2026-04-16T09:42:24.856Z</time></trkpt><trkpt lat="42.5944033" lon="-8.4364567"><ele>574.0</ele><time>2026-04-16T09:42:25.856Z</time></trkpt><trkpt lat="42.5945217" lon="-8.4365267"><ele>582.0</ele><time>2026-04-16T09:42:26.857Z</time></trkpt><trkpt lat="42.591755" lon="-8.4341117"><ele>582.0</ele><time>2026-04-16T09:41:55.856Z</time></trkpt><trkpt lat="42.5918433" lon="-8.434155"><ele>582.0</ele><time>2026-04-16T09:41:56.856Z</time></trkpt><trkpt lat="42.5919517" lon="-8.4341883"><ele>582.0</ele><time>2026-04-16T09:41:57.857Z</time></trkpt><trkpt lat="42.592065" lon="-8.4342217"><ele>582.0</ele><time>2026-04-16T09:41:58.857Z</time></trkpt><trkpt lat="42.592185" lon="-8.4342517"><ele>582.0</ele><time>2026-04-16T09:41:59.857Z</time></trkpt><trkpt lat="42.5923" lon="-8.4342883"><ele>580.6</ele><time>2026-04-16T09:42:00.857Z</time></trkpt><trkpt lat="42.592415" lon="-8.4343233"><ele>579.2</ele><time>2026-04-16T09:42:01.856Z</time></trkpt><trkpt lat="42.5925283" lon="-8.4343417"><ele>577.8</ele><time>2026-04-16T09:42:02.856Z</time></trkpt><trkpt lat="42.5926217" lon="-8.4343767"><ele>576.4</ele><time>2026-04-16T09:42:03.856Z</time></trkpt><trkpt lat="42.5927117" lon="-8.4344517"><ele>575.0</ele><time>2026-04-16T09:42:04.857Z</time></trkpt><trkpt lat="42.59281" lon="-8.4345617"><ele>574.0</ele><time>2026-04-16T09:42:05.856Z</time></trkpt><trkpt lat="42.59291" lon="-8.434695"><ele>573.0</ele><time>2026-04-16T09:42:06.857Z</time></trkpt><trkpt lat="42.59301" lon="-8.43482"><ele>572.0</ele><time>2026-04-16T09:42:07.857Z</time></trkpt><trkpt lat="42.59311" lon="-8.4349417"><ele>571.0</ele><time>2026-04-16T09:42:08.857Z</time></trkpt><trkpt lat="42.5931933" lon="-8.4350617"><ele>571.0</ele><time>2026-04-16T09:42:09.857Z</time></trkpt><trkpt lat="42.593265" lon="-8.4352"><ele>571.0</ele><time>2026-04-16T09:42:10.856Z</time></trkpt><trkpt lat="42.5933167" lon="-8.43535"><ele>571.0</ele><time>2026-04-16T09:42:11.857Z</time></trkpt><trkpt lat="42.5933683" lon="-8.4354983"><ele>571.0</ele><time>2026-04-16T09:42:12.857Z</time></trkpt><trkpt lat="42.5934117" lon="-8.4356617"><ele>571.0</ele><time>2026-04-16T09:42:13.856Z</time></trkpt><trkpt lat="42.5934517" lon="-8.4358033"><ele>571.0</ele><time>2026-04-16T09:42:14.857Z</time></trkpt><trkpt lat="42.593505" lon="-8.4359267"><ele>571.0</ele><time>2026-04-16T09:42:15.856Z</time></trkpt><trkpt lat="42.5935583" lon="-8.4360133"><ele>571.0</ele><time>2026-04-16T09:42:16.856Z</time></trkpt><trkpt lat="42.593625" lon="-8.43609"><ele>571.0</ele><time>2026-04-16T09:42:17.856Z</time></trkpt><trkpt lat="42.5937017" lon="-8.4361383"><ele>571.0</ele><time>2026-04-16T09:42:18.857Z</time></trkpt><trkpt lat="42.593795" lon="-8.436175"><ele>571.0</ele><time>2026-04-16T09:42:19.856Z</time></trkpt><trkpt lat="42.593895" lon="-8.4361983"><ele>571.0</ele><time>2026-04-16T09:42:20.857Z</time></trkpt><trkpt lat="42.5939867" lon="-8.43623"><ele>571.0</ele><time>2026-04-16T09:42:21.857Z</time></trkpt><trkpt lat="42.59408" lon="-8.43627"><ele>571.0</ele><time>2026-04-16T09:42:22.857Z</time></trkpt><trkpt lat="42.5941767" lon="-8.4363267"><ele>571.75</ele><time>2026-04-16T09:42:23.857Z</time></trkpt><trkpt lat="42.5942817" lon="-8.4363917"><ele>572.5</ele><time>2026-04-16T09:42:24.856Z</time></trkpt><trkpt lat="42.5944033" lon="-8.4364567"><ele>573.25</ele><time>2026-04-16T09:42:25.856Z</time></trkpt><trkpt lat="42.5945217" lon="-8.4365267"><ele>574.0</ele><time>2026-04-16T09:42:26.857Z</time></trkpt><trkpt lat="42.594625" lon="-8.4366167"><ele>571.6</ele><time>2026-04-16T09:42:27.857Z</time></trkpt><trkpt lat="42.5947033" lon="-8.4366983"><ele>569.2</ele><time>2026-04-16T09:42:28.856Z</time></trkpt><trkpt lat="42.594775" lon="-8.4368067"><ele>566.8000000000001</ele><time>2026-04-16T09:42:29.857Z</time></trkpt><trkpt lat="42.5948267" lon="-8.4369033"><ele>564.4</ele><time>2026-04-16T09:42:30.857Z</time></trkpt><trkpt lat="42.5948567" lon="-8.437005"><ele>562.0</ele><time>2026-04-16T09:42:31.856Z</time></trkpt><trkpt lat="42.5948633" lon="-8.4371283"><ele>562.8000000000001</ele><time>2026-04-16T09:42:32.857Z</time></trkpt><trkpt lat="42.5948683" lon="-8.4372567"><ele>563.6</ele><time>2026-04-16T09:42:33.856Z</time></trkpt><trkpt lat="42.594845" lon="-8.4373617"><ele>564.4000000000001</ele><time>2026-04-16T09:42:34.857Z</time></trkpt><trkpt lat="42.5948367" lon="-8.4374533"><ele>565.2</ele><time>2026-04-16T09:42:35.856Z</time></trkpt><trkpt lat="42.5948867" lon="-8.4375183"><ele>566.0</ele><time>2026-04-16T09:42:40.856Z</time></trkpt><trkpt lat="42.5950183" lon="-8.4374417"><ele>566.0</ele><time>2026-04-16T09:42:42.856Z</time></trkpt><trkpt lat="42.5951133" lon="-8.4373583"><ele>566.0</ele><time>2026-04-16T09:42:43.857Z</time></trkpt><trkpt lat="42.595215" lon="-8.4372817"><ele>566.0</ele><time>2026-04-16T09:42:44.856Z</time></trkpt><trkpt lat="42.5953233" lon="-8.4371983"><ele>566.0</ele><time>2026-04-16T09:42:45.856Z</time></trkpt><trkpt lat="42.595445" lon="-8.437105"><ele>564.0</ele><time>2026-04-16T09:42:46.857Z</time></trkpt><trkpt lat="42.5955733" lon="-8.4370033"><ele>562.0</ele><time>2026-04-16T09:42:47.857Z</time></trkpt><trkpt lat="42.595705" lon="-8.4368983"><ele>560.0</ele><time>2026-04-16T09:42:48.857Z</time></trkpt><trkpt lat="42.5958333" lon="-8.4367767"><ele>560.0</ele><time>2026-04-16T09:42:49.856Z</time></trkpt><trkpt lat="42.5959617" lon="-8.4366617"><ele>560.0</ele><time>2026-04-16T09:42:50.856Z</time></trkpt><trkpt lat="42.59608" lon="-8.4365667"><ele>560.0</ele><time>2026-04-16T09:42:51.856Z</time></trkpt><trkpt lat="42.59619" lon="-8.4365"><ele>560.0</ele><time>2026-04-16T09:42:52.857Z</time></trkpt><trkpt lat="42.5963083" lon="-8.4364583"><ele>560.4</ele><time>2026-04-16T09:42:53.856Z</time></trkpt><trkpt lat="42.5964033" lon="-8.436455"><ele>560.8</ele><time>2026-04-16T09:42:54.856Z</time></trkpt><trkpt lat="42.5965" lon="-8.4365117"><ele>561.2</ele><time>2026-04-16T09:42:55.857Z</time></trkpt><trkpt lat="42.596585" lon="-8.436585"><ele>561.6</ele><time>2026-04-16T09:42:56.857Z</time></trkpt><trkpt lat="42.59668" lon="-8.436675"><ele>562.0</ele><time>2026-04-16T09:42:57.857Z</time></trkpt><trkpt lat="42.5967883" lon="-8.43678"><ele>562.0</ele><time>2026-04-16T09:42:58.856Z</time></trkpt><trkpt lat="42.59691" lon="-8.436885"><ele>562.0</ele><time>2026-04-16T09:42:59.856Z</time></trkpt><trkpt lat="42.59702" lon="-8.4369683"><ele>562.0</ele><time>2026-04-16T09:43:00.857Z</time></trkpt><trkpt lat="42.5971233" lon="-8.4370433"><ele>562.0</ele><time>2026-04-16T09:43:01.856Z</time></trkpt><trkpt lat="42.5972067" lon="-8.43707"><ele>562.6666666666667</ele><time>2026-04-16T09:43:02.856Z</time></trkpt><trkpt lat="42.597285" lon="-8.4370817"><ele>563.3333333333334</ele><time>2026-04-16T09:43:03.856Z</time></trkpt><trkpt lat="42.597365" lon="-8.4370883"><ele>564.0</ele><time>2026-04-16T09:43:04.857Z</time></trkpt><trkpt lat="42.5974433" lon="-8.4370917"><ele>564.6666666666666</ele><time>2026-04-16T09:43:05.856Z</time></trkpt><trkpt lat="42.5975267" lon="-8.4371217"><ele>565.3333333333333</ele><time>2026-04-16T09:43:06.857Z</time></trkpt><trkpt lat="42.597605" lon="-8.43717"><ele>566.0</ele><time>2026-04-16T09:43:07.856Z</time></trkpt><trkpt lat="42.5976717" lon="-8.4372167"><ele>566.0</ele><time>2026-04-16T09:43:08.857Z</time></trkpt><trkpt lat="42.59774" lon="-8.4372533"><ele>566.0</ele><time>2026-04-16T09:43:09.856Z</time></trkpt><trkpt lat="42.5978133" lon="-8.437265"><ele>566.0</ele><time>2026-04-16T09:43:10.856Z</time></trkpt><trkpt lat="42.5978933" lon="-8.4372483"><ele>566.0</ele><time>2026-04-16T09:43:11.857Z</time></trkpt><trkpt lat="42.5979717" lon="-8.43721"><ele>566.0</ele><time>2026-04-16T09:43:12.857Z</time></trkpt><trkpt lat="42.598065" lon="-8.437175"><ele>566.0</ele><time>2026-04-16T09:43:13.856Z</time></trkpt><trkpt lat="42.5981633" lon="-8.43711"><ele>563.0</ele><time>2026-04-16T09:43:14.856Z</time></trkpt><trkpt lat="42.5982517" lon="-8.437025"><ele>560.0</ele><time>2026-04-16T09:43:15.856Z</time></trkpt><trkpt lat="42.5983283" lon="-8.43695"><ele>557.0</ele><time>2026-04-16T09:43:16.857Z</time></trkpt><trkpt lat="42.5984033" lon="-8.43686"><ele>554.0</ele><time>2026-04-16T09:43:17.856Z</time></trkpt><trkpt lat="42.598475" lon="-8.4367783"><ele>551.0</ele><time>2026-04-16T09:43:18.856Z</time></trkpt><trkpt lat="42.598555" lon="-8.436675"><ele>551.0</ele><time>2026-04-16T09:43:19.856Z</time></trkpt><trkpt lat="42.5986433" lon="-8.43657"><ele>551.0</ele><time>2026-04-16T09:43:20.856Z</time></trkpt><trkpt lat="42.5987233" lon="-8.436495"><ele>551.0</ele><time>2026-04-16T09:43:21.857Z</time></trkpt><trkpt lat="42.5987933" lon="-8.4364433"><ele>551.0</ele><time>2026-04-16T09:43:22.856Z</time></trkpt><trkpt lat="42.5988533" lon="-8.4363983"><ele>551.0</ele><time>2026-04-16T09:43:23.856Z</time></trkpt><trkpt lat="42.5989117" lon="-8.436355"><ele>551.0</ele><time>2026-04-16T09:43:24.856Z</time></trkpt><trkpt lat="42.5989817" lon="-8.436315"><ele>550.0</ele><time>2026-04-16T09:43:25.856Z</time></trkpt><trkpt lat="42.59907" lon="-8.4362717"><ele>549.0</ele><time>2026-04-16T09:43:26.857Z</time></trkpt><trkpt lat="42.5991717" lon="-8.4362233"><ele>548.0</ele><time>2026-04-16T09:43:27.856Z</time></trkpt><trkpt lat="42.5993067" lon="-8.436205"><ele>547.0</ele><time>2026-04-16T09:43:28.857Z</time></trkpt><trkpt lat="42.5994417" lon="-8.4361833"><ele>549.6666666666667</ele><time>2026-04-16T09:43:29.856Z</time></trkpt><trkpt lat="42.599595" lon="-8.43616"><ele>552.3333333333334</ele><time>2026-04-16T09:43:30.856Z</time></trkpt><trkpt lat="42.5997683" lon="-8.4361383"><ele>555.0</ele><time>2026-04-16T09:43:31.856Z</time></trkpt><trkpt lat="42.5999583" lon="-8.436115"><ele>555.0</ele><time>2026-04-16T09:43:32.856Z</time></trkpt><trkpt lat="42.60015" lon="-8.43609"><ele>555.0</ele><time>2026-04-16T09:43:33.856Z</time></trkpt><trkpt lat="42.6003433" lon="-8.436065"><ele>555.0</ele><time>2026-04-16T09:43:34.856Z</time></trkpt><trkpt lat="42.6005217" lon="-8.4360383"><ele>555.0</ele><time>2026-04-16T09:43:35.856Z</time></trkpt><trkpt lat="42.60068" lon="-8.4360083"><ele>555.0</ele><time>2026-04-16T09:43:36.856Z</time></trkpt><trkpt lat="42.6008167" lon="-8.435985"><ele>555.0</ele><time>2026-04-16T09:43:37.856Z</time></trkpt><trkpt lat="42.60093" lon="-8.4359733"><ele>555.0</ele><time>2026-04-16T09:43:38.856Z</time></trkpt><trkpt lat="42.6010567" lon="-8.435995"><ele>554.6666666666666</ele><time>2026-04-16T09:43:39.856Z</time></trkpt><trkpt lat="42.6011983" lon="-8.4360383"><ele>554.3333333333333</ele><time>2026-04-16T09:43:40.856Z</time></trkpt><trkpt lat="42.6013517" lon="-8.4361017"><ele>554.0</ele><time>2026-04-16T09:43:41.856Z</time></trkpt><trkpt lat="42.6014867" lon="-8.4361733"><ele>554.0</ele><time>2026-04-16T09:43:42.856Z</time></trkpt><trkpt lat="42.6016033" lon="-8.43622"><ele>554.0</ele><time>2026-04-16T09:43:43.856Z</time></trkpt><trkpt lat="42.6016983" lon="-8.436225"><ele>554.0</ele><time>2026-04-16T09:43:44.856Z</time></trkpt><trkpt lat="42.6018" lon="-8.43623"><ele>554.0</ele><time>2026-04-16T09:43:45.856Z</time></trkpt><trkpt lat="42.60191" lon="-8.4362383"><ele>554.0</ele><time>2026-04-16T09:43:46.856Z</time></trkpt><trkpt lat="42.6020283" lon="-8.43622"><ele>551.75</ele><time>2026-04-16T09:43:47.856Z</time></trkpt><trkpt lat="42.602145" lon="-8.436205"><ele>549.5</ele><time>2026-04-16T09:43:48.856Z</time></trkpt><trkpt lat="42.6022567" lon="-8.436215"><ele>547.25</ele><time>2026-04-16T09:43:49.856Z</time></trkpt><trkpt lat="42.6023667" lon="-8.4362517"><ele>545.0</ele><time>2026-04-16T09:43:50.857Z</time></trkpt><trkpt lat="42.6025" lon="-8.4362933"><ele>548.6666666666666</ele><time>2026-04-16T09:43:51.857Z</time></trkpt><trkpt lat="42.6026467" lon="-8.4363233"><ele>552.3333333333334</ele><time>2026-04-16T09:43:52.856Z</time></trkpt><trkpt lat="42.6028117" lon="-8.4363617"><ele>556.0</ele><time>2026-04-16T09:43:53.857Z</time></trkpt><trkpt lat="42.6029717" lon="-8.4364167"><ele>556.0</ele><time>2026-04-16T09:43:54.857Z</time></trkpt><trkpt lat="42.6031233" lon="-8.4364967"><ele>556.0</ele><time>2026-04-16T09:43:55.856Z</time></trkpt><trkpt lat="42.603275" lon="-8.43661"><ele>556.0</ele><time>2026-04-16T09:43:56.856Z</time></trkpt><trkpt lat="42.6034167" lon="-8.4367083"><ele>556.0</ele><time>2026-04-16T09:43:57.856Z</time></trkpt><trkpt lat="42.603565" lon="-8.4367967"><ele>556.0</ele><time>2026-04-16T09:43:58.856Z</time></trkpt><trkpt lat="42.603725" lon="-8.436875"><ele>556.0</ele><time>2026-04-16T09:43:59.856Z</time></trkpt><trkpt lat="42.6038933" lon="-8.4369583"><ele>553.6666666666667</ele><time>2026-04-16T09:44:00.856Z</time></trkpt><trkpt lat="42.6040583" lon="-8.4370483"><ele>551.3333333333334</ele><time>2026-04-16T09:44:01.857Z</time></trkpt><trkpt lat="42.604205" lon="-8.437125"><ele>549.0</ele><time>2026-04-16T09:44:02.857Z</time></trkpt><trkpt lat="42.6043283" lon="-8.4372083"><ele>549.0</ele><time>2026-04-16T09:44:03.857Z</time></trkpt><trkpt lat="42.6044117" lon="-8.4372967"><ele>549.0</ele><time>2026-04-16T09:44:04.857Z</time></trkpt><trkpt lat="42.604485" lon="-8.4373983"><ele>549.0</ele><time>2026-04-16T09:44:05.856Z</time></trkpt><trkpt lat="42.6045583" lon="-8.43753"><ele>549.0</ele><time>2026-04-16T09:44:06.857Z</time></trkpt><trkpt lat="42.60466" lon="-8.4376733"><ele>545.5</ele><time>2026-04-16T09:44:07.857Z</time></trkpt><trkpt lat="42.6047783" lon="-8.4377983"><ele>542.0</ele><time>2026-04-16T09:44:08.856Z</time></trkpt><trkpt lat="42.60491" lon="-8.4379017"><ele>538.5</ele><time>2026-04-16T09:44:09.857Z</time></trkpt><trkpt lat="42.6050333" lon="-8.437985"><ele>535.0</ele><time>2026-04-16T09:44:10.857Z</time></trkpt><trkpt lat="42.605145" lon="-8.4380567"><ele>535.0</ele><time>2026-04-16T09:44:11.856Z</time></trkpt><trkpt lat="42.60525" lon="-8.4381033"><ele>535.0</ele><time>2026-04-16T09:44:12.857Z</time></trkpt><trkpt lat="42.6053583" lon="-8.4381183"><ele>535.0</ele><time>2026-04-16T09:44:13.856Z</time></trkpt><trkpt lat="42.6054733" lon="-8.4381083"><ele>535.0</ele><time>2026-04-16T09:44:14.857Z</time></trkpt><trkpt lat="42.6055917" lon="-8.4381"><ele>531.2</ele><time>2026-04-16T09:44:15.856Z</time></trkpt><trkpt lat="42.6056983" lon="-8.4381067"><ele>527.4</ele><time>2026-04-16T09:44:16.856Z</time></trkpt><trkpt lat="42.6058" lon="-8.4381267"><ele>523.6</ele><time>2026-04-16T09:44:17.857Z</time></trkpt><trkpt lat="42.6059" lon="-8.438165"><ele>519.8</ele><time>2026-04-16T09:44:18.857Z</time></trkpt><trkpt lat="42.6059883" lon="-8.4382267"><ele>516.0</ele><time>2026-04-16T09:44:19.857Z</time></trkpt><trkpt lat="42.6060867" lon="-8.4383167"><ele>511.25</ele><time>2026-04-16T09:44:20.856Z</time></trkpt><trkpt lat="42.6061833" lon="-8.438425"><ele>506.5</ele><time>2026-04-16T09:44:21.856Z</time></trkpt><trkpt lat="42.60628" lon="-8.4385433"><ele>501.75</ele><time>2026-04-16T09:44:22.856Z</time></trkpt><trkpt lat="42.6063533" lon="-8.4386617"><ele>497.0</ele><time>2026-04-16T09:44:23.857Z</time></trkpt><trkpt lat="42.606405" lon="-8.4387717"><ele>497.0</ele><time>2026-04-16T09:44:24.857Z</time></trkpt><trkpt lat="42.6064467" lon="-8.43889"><ele>497.0</ele><time>2026-04-16T09:44:25.857Z</time></trkpt><trkpt lat="42.60649" lon="-8.4390317"><ele>497.0</ele><time>2026-04-16T09:44:26.856Z</time></trkpt><trkpt lat="42.60654" lon="-8.4392067"><ele>497.0</ele><time>2026-04-16T09:44:27.856Z</time></trkpt><trkpt lat="42.606585" lon="-8.43936"><ele>496.99999999999994</ele><time>2026-04-16T09:44:28.857Z</time></trkpt><trkpt lat="42.606615" lon="-8.4394533"><ele>497.0</ele><time>2026-04-16T09:44:29.856Z</time></trkpt><trkpt lat="42.6066467" lon="-8.4395467"><ele>497.0</ele><time>2026-04-16T09:44:31.856Z</time></trkpt><trkpt lat="42.6065483" lon="-8.4396017"><ele>497.0</ele><time>2026-04-16T09:44:34.856Z</time></trkpt><trkpt lat="42.6064733" lon="-8.4396433"><ele>496.99999999999994</ele><time>2026-04-16T09:44:35.856Z</time></trkpt><trkpt lat="42.6064" lon="-8.439695"><ele>497.0</ele><time>2026-04-16T09:44:36.856Z</time></trkpt><trkpt lat="42.6063467" lon="-8.4397567"><ele>496.0</ele><time>2026-04-16T09:44:37.857Z</time></trkpt><trkpt lat="42.6063133" lon="-8.43991"><ele>495.0</ele><time>2026-04-16T09:44:39.857Z</time></trkpt><trkpt lat="42.6062467" lon="-8.4400417"><ele>494.0</ele><time>2026-04-16T09:44:41.856Z</time></trkpt><trkpt lat="42.606125" lon="-8.4400883"><ele>493.0</ele><time>2026-04-16T09:44:43.857Z</time></trkpt><trkpt lat="42.6060233" lon="-8.440075"><ele>496.75</ele><time>2026-04-16T09:44:44.856Z</time></trkpt><trkpt lat="42.6059067" lon="-8.4400317"><ele>500.5</ele><time>2026-04-16T09:44:45.856Z</time></trkpt><trkpt lat="42.6057733" lon="-8.4399783"><ele>504.25</ele><time>2026-04-16T09:44:46.856Z</time></trkpt><trkpt lat="42.6056433" lon="-8.439935"><ele>508.0</ele><time>2026-04-16T09:44:47.856Z</time></trkpt><trkpt lat="42.6055233" lon="-8.439905"><ele>508.0</ele><time>2026-04-16T09:44:48.856Z</time></trkpt><trkpt lat="42.60542" lon="-8.4398917"><ele>507.99999999999994</ele><time>2026-04-16T09:44:49.856Z</time></trkpt><trkpt lat="42.605335" lon="-8.4399033"><ele>507.99999999999994</ele><time>2026-04-16T09:44:50.857Z</time></trkpt><trkpt lat="42.6052517" lon="-8.439945"><ele>508.0</ele><time>2026-04-16T09:44:51.857Z</time></trkpt><trkpt lat="42.6051717" lon="-8.4400283"><ele>508.0</ele><time>2026-04-16T09:44:52.857Z</time></trkpt><trkpt lat="42.605085" lon="-8.4401383"><ele>512.25</ele><time>2026-04-16T09:44:53.857Z</time></trkpt><trkpt lat="42.6050067" lon="-8.4402683"><ele>516.5</ele><time>2026-04-16T09:44:54.856Z</time></trkpt><trkpt lat="42.6049383" lon="-8.4404117"><ele>520.75</ele><time>2026-04-16T09:44:55.856Z</time></trkpt><trkpt lat="42.604875" lon="-8.44057"><ele>525.0</ele><time>2026-04-16T09:44:56.857Z</time></trkpt><trkpt lat="42.604815" lon="-8.4407383"><ele>525.0</ele><time>2026-04-16T09:44:57.857Z</time></trkpt><trkpt lat="42.604755" lon="-8.4408933"><ele>525.0</ele><time>2026-04-16T09:44:58.856Z</time></trkpt><trkpt lat="42.604695" lon="-8.4410317"><ele>525.0</ele><time>2026-04-16T09:44:59.856Z</time></trkpt><trkpt lat="42.6046267" lon="-8.441125"><ele>525.0</ele><time>2026-04-16T09:45:00.857Z</time></trkpt><trkpt lat="42.6045483" lon="-8.4411817"><ele>525.0</ele><time>2026-04-16T09:45:01.857Z</time></trkpt><trkpt lat="42.604465" lon="-8.4412033"><ele>527.6</ele><time>2026-04-16T09:45:02.857Z</time></trkpt><trkpt lat="42.6043817" lon="-8.44122"><ele>530.2</ele><time>2026-04-16T09:45:03.857Z</time></trkpt><trkpt lat="42.6042783" lon="-8.4412317"><ele>532.8</ele><time>2026-04-16T09:45:04.857Z</time></trkpt><trkpt lat="42.60416" lon="-8.4412567"><ele>535.4</ele><time>2026-04-16T09:45:05.856Z</time></trkpt><trkpt lat="42.60404" lon="-8.4412983"><ele>538.0</ele><time>2026-04-16T09:45:06.857Z</time></trkpt><trkpt lat="42.60391" lon="-8.44135"><ele>538.0</ele><time>2026-04-16T09:45:07.856Z</time></trkpt><trkpt lat="42.6037817" lon="-8.4413967"><ele>538.0</ele><time>2026-04-16T09:45:08.857Z</time></trkpt><trkpt lat="42.60368" lon="-8.4414267"><ele>538.0</ele><time>2026-04-16T09:45:09.856Z</time></trkpt><trkpt lat="42.6036133" lon="-8.4414317"><ele>538.0</ele><time>2026-04-16T09:45:10.856Z</time></trkpt><trkpt lat="42.603505" lon="-8.4413767"><ele>538.0</ele><time>2026-04-16T09:45:12.856Z</time></trkpt><trkpt lat="42.6034433" lon="-8.4413267"><ele>540.75</ele><time>2026-04-16T09:45:13.857Z</time></trkpt><trkpt lat="42.6033717" lon="-8.4412883"><ele>543.5</ele><time>2026-04-16T09:45:14.856Z</time></trkpt><trkpt lat="42.6032833" lon="-8.4413"><ele>546.25</ele><time>2026-04-16T09:45:15.857Z</time></trkpt><trkpt lat="42.6031717" lon="-8.4413483"><ele>549.0</ele><time>2026-04-16T09:45:16.857Z</time></trkpt><trkpt lat="42.6030067" lon="-8.44146"><ele>551.0</ele><time>2026-04-16T09:45:17.856Z</time></trkpt><trkpt lat="42.6028283" lon="-8.44156"><ele>553.0</ele><time>2026-04-16T09:45:18.856Z</time></trkpt><trkpt lat="42.6026783" lon="-8.4416533"><ele>555.0</ele><time>2026-04-16T09:45:19.856Z</time></trkpt><trkpt lat="42.6025817" lon="-8.4417483"><ele>555.0</ele><time>2026-04-16T09:45:20.857Z</time></trkpt><trkpt lat="42.6024933" lon="-8.4418467"><ele>555.0</ele><time>2026-04-16T09:45:21.856Z</time></trkpt><trkpt lat="42.6024283" lon="-8.4419817"><ele>555.0</ele><time>2026-04-16T09:45:22.856Z</time></trkpt><trkpt lat="42.60236" lon="-8.4421333"><ele>555.0</ele><time>2026-04-16T09:45:23.857Z</time></trkpt><trkpt lat="42.6022767" lon="-8.4423117"><ele>556.0</ele><time>2026-04-16T09:45:24.856Z</time></trkpt><trkpt lat="42.6021867" lon="-8.442455"><ele>557.0</ele><time>2026-04-16T09:45:25.856Z</time></trkpt><trkpt lat="42.602065" lon="-8.44258"><ele>558.0</ele><time>2026-04-16T09:45:26.856Z</time></trkpt><trkpt lat="42.6019383" lon="-8.4426867"><ele>559.0</ele><time>2026-04-16T09:45:27.856Z</time></trkpt><trkpt lat="42.6017917" lon="-8.442775"><ele>559.0</ele><time>2026-04-16T09:45:28.856Z</time></trkpt><trkpt lat="42.601635" lon="-8.442845"><ele>559.0</ele><time>2026-04-16T09:45:29.856Z</time></trkpt><trkpt lat="42.6014633" lon="-8.44293"><ele>559.0</ele><time>2026-04-16T09:45:30.856Z</time></trkpt><trkpt lat="42.6012933" lon="-8.4429833"><ele>559.3333333333334</ele><time>2026-04-16T09:45:31.856Z</time></trkpt><trkpt lat="42.6011383" lon="-8.443015"><ele>559.6666666666666</ele><time>2026-04-16T09:45:32.856Z</time></trkpt><trkpt lat="42.6009733" lon="-8.4430167"><ele>560.0</ele><time>2026-04-16T09:45:33.857Z</time></trkpt><trkpt lat="42.6007983" lon="-8.443015"><ele>560.0</ele><time>2026-04-16T09:45:34.857Z</time></trkpt><trkpt lat="42.6006083" lon="-8.44302"><ele>560.0</ele><time>2026-04-16T09:45:35.856Z</time></trkpt><trkpt lat="42.600425" lon="-8.44303"><ele>560.0</ele><time>2026-04-16T09:45:36.856Z</time></trkpt><trkpt lat="42.6002417" lon="-8.443055"><ele>561.25</ele><time>2026-04-16T09:45:37.856Z</time></trkpt><trkpt lat="42.60009" lon="-8.443085"><ele>562.5</ele><time>2026-04-16T09:45:38.856Z</time></trkpt><trkpt lat="42.5999617" lon="-8.4430983"><ele>563.75</ele><time>2026-04-16T09:45:39.857Z</time></trkpt><trkpt lat="42.5998617" lon="-8.4430983"><ele>565.0</ele><time>2026-04-16T09:45:40.857Z</time></trkpt><trkpt lat="42.5997783" lon="-8.4430717"><ele>565.0</ele><time>2026-04-16T09:45:41.857Z</time></trkpt><trkpt lat="42.5997" lon="-8.4430117"><ele>565.0</ele><time>2026-04-16T09:45:42.856Z</time></trkpt><trkpt lat="42.5996183" lon="-8.4429417"><ele>565.0</ele><time>2026-04-16T09:45:43.856Z</time></trkpt><trkpt lat="42.599515" lon="-8.4428917"><ele>565.0</ele><time>2026-04-16T09:45:44.856Z</time></trkpt><trkpt lat="42.59939" lon="-8.4428583"><ele>565.0</ele><time>2026-04-16T09:45:45.856Z</time></trkpt><trkpt lat="42.5992567" lon="-8.4428333"><ele>570.75</ele><time>2026-04-16T09:45:46.856Z</time></trkpt><trkpt lat="42.5991117" lon="-8.44281"><ele>576.5</ele><time>2026-04-16T09:45:47.857Z</time></trkpt><trkpt lat="42.59897" lon="-8.4428117"><ele>582.25</ele><time>2026-04-16T09:45:48.856Z</time></trkpt><trkpt lat="42.59883" lon="-8.4428117"><ele>588.0</ele><time>2026-04-16T09:45:49.856Z</time></trkpt><trkpt lat="42.5987017" lon="-8.4427867"><ele>589.75</ele><time>2026-04-16T09:45:50.856Z</time></trkpt><trkpt lat="42.5985633" lon="-8.4427717"><ele>591.5</ele><time>2026-04-16T09:45:51.856Z</time></trkpt><trkpt lat="42.5984167" lon="-8.442765"><ele>593.25</ele><time>2026-04-16T09:45:52.856Z</time></trkpt><trkpt lat="42.5982667" lon="-8.4427817"><ele>595.0</ele><time>2026-04-16T09:45:53.856Z</time></trkpt><trkpt lat="42.5981283" lon="-8.4428067"><ele>595.0</ele><time>2026-04-16T09:45:54.856Z</time></trkpt><trkpt lat="42.5979933" lon="-8.442825"><ele>595.0</ele><time>2026-04-16T09:45:55.856Z</time></trkpt><trkpt lat="42.5978383" lon="-8.4427933"><ele>595.0</ele><time>2026-04-16T09:45:56.856Z</time></trkpt><trkpt lat="42.59767" lon="-8.4427567"><ele>596.6666666666667</ele><time>2026-04-16T09:45:57.856Z</time></trkpt><trkpt lat="42.5974933" lon="-8.4427"><ele>598.3333333333334</ele><time>2026-04-16T09:45:58.856Z</time></trkpt><trkpt lat="42.5973283" lon="-8.442655"><ele>600.0</ele><time>2026-04-16T09:45:59.856Z</time></trkpt><trkpt lat="42.5971767" lon="-8.442615"><ele>600.0</ele><time>2026-04-16T09:46:00.856Z</time></trkpt><trkpt lat="42.5970383" lon="-8.44259"><ele>600.0</ele><time>2026-04-16T09:46:01.857Z</time></trkpt><trkpt lat="42.5969067" lon="-8.4425767"><ele>600.0</ele><time>2026-04-16T09:46:02.856Z</time></trkpt><trkpt lat="42.5967917" lon="-8.44256"><ele>600.0</ele><time>2026-04-16T09:46:03.857Z</time></trkpt><trkpt lat="42.59673" lon="-8.44254"><ele>600.4</ele><time>2026-04-16T09:46:04.856Z</time></trkpt><trkpt lat="42.5966517" lon="-8.4424317"><ele>600.8</ele><time>2026-04-16T09:46:06.856Z</time></trkpt><trkpt lat="42.596605" lon="-8.44233"><ele>601.2</ele><time>2026-04-16T09:46:07.856Z</time></trkpt><trkpt lat="42.5965433" lon="-8.4422117"><ele>601.6</ele><time>2026-04-16T09:46:08.857Z</time></trkpt><trkpt lat="42.5964567" lon="-8.4420967"><ele>602.0</ele><time>2026-04-16T09:46:09.857Z</time></trkpt><trkpt lat="42.596365" lon="-8.442015"><ele>605.25</ele><time>2026-04-16T09:46:10.856Z</time></trkpt><trkpt lat="42.5962617" lon="-8.44194"><ele>608.5</ele><time>2026-04-16T09:46:11.856Z</time></trkpt><trkpt lat="42.596145" lon="-8.4418717"><ele>611.75</ele><time>2026-04-16T09:46:12.856Z</time></trkpt><trkpt lat="42.5960367" lon="-8.4418133"><ele>615.0</ele><time>2026-04-16T09:46:13.856Z</time></trkpt><trkpt lat="42.5959333" lon="-8.441785"><ele>615.0</ele><time>2026-04-16T09:46:14.857Z</time></trkpt><trkpt lat="42.5958117" lon="-8.4417833"><ele>615.0</ele><time>2026-04-16T09:46:15.857Z</time></trkpt><trkpt lat="42.5956817" lon="-8.4418017"><ele>615.0</ele><time>2026-04-16T09:46:16.857Z</time></trkpt><trkpt lat="42.595565" lon="-8.4418283"><ele>615.0</ele><time>2026-04-16T09:46:17.856Z</time></trkpt><trkpt lat="42.5954617" lon="-8.441885"><ele>615.0</ele><time>2026-04-16T09:46:18.857Z</time></trkpt><trkpt lat="42.59535" lon="-8.44194"><ele>615.0</ele><time>2026-04-16T09:46:19.857Z</time></trkpt><trkpt lat="42.5952383" lon="-8.4419667"><ele>615.0</ele><time>2026-04-16T09:46:20.857Z</time></trkpt><trkpt lat="42.5951017" lon="-8.4419683"><ele>615.0</ele><time>2026-04-16T09:46:21.857Z</time></trkpt><trkpt lat="42.5949417" lon="-8.4419367"><ele>615.25</ele><time>2026-04-16T09:46:22.856Z</time></trkpt><trkpt lat="42.594765" lon="-8.441875"><ele>615.5</ele><time>2026-04-16T09:46:23.857Z</time></trkpt><trkpt lat="42.5946233" lon="-8.4418183"><ele>615.75</ele><time>2026-04-16T09:46:24.856Z</time></trkpt><trkpt lat="42.59452" lon="-8.4417867"><ele>616.0</ele><time>2026-04-16T09:46:25.856Z</time></trkpt><trkpt lat="42.59444" lon="-8.441775"><ele>616.0</ele><time>2026-04-16T09:46:26.857Z</time></trkpt><trkpt lat="42.5943683" lon="-8.4417883"><ele>616.0</ele><time>2026-04-16T09:46:27.856Z</time></trkpt><trkpt lat="42.5942933" lon="-8.441845"><ele>616.0</ele><time>2026-04-16T09:46:28.857Z</time></trkpt><trkpt lat="42.5942017" lon="-8.441945"><ele>616.0</ele><time>2026-04-16T09:46:29.857Z</time></trkpt><trkpt lat="42.5940767" lon="-8.4420567"><ele>616.0</ele><time>2026-04-16T09:46:30.857Z</time></trkpt><trkpt lat="42.5939333" lon="-8.4421517"><ele>616.0</ele><time>2026-04-16T09:46:31.857Z</time></trkpt><trkpt lat="42.5937967" lon="-8.4422433"><ele>616.0</ele><time>2026-04-16T09:46:32.857Z</time></trkpt><trkpt lat="42.5936567" lon="-8.44235"><ele>616.0</ele><time>2026-04-16T09:46:33.857Z</time></trkpt><trkpt lat="42.5935333" lon="-8.442475"><ele>617.2</ele><time>2026-04-16T09:46:34.856Z</time></trkpt><trkpt lat="42.5934267" lon="-8.442585"><ele>618.4000000000001</ele><time>2026-04-16T09:46:35.856Z</time></trkpt><trkpt lat="42.5933467" lon="-8.4426933"><ele>619.6</ele><time>2026-04-16T09:46:36.856Z</time></trkpt><trkpt lat="42.5932717" lon="-8.4427617"><ele>620.8000000000001</ele><time>2026-04-16T09:46:37.857Z</time></trkpt><trkpt lat="42.5931867" lon="-8.4427883"><ele>622.0</ele><time>2026-04-16T09:46:38.857Z</time></trkpt><trkpt lat="42.5930817" lon="-8.4427533"><ele>622.0</ele><time>2026-04-16T09:46:39.857Z</time></trkpt><trkpt lat="42.5929633" lon="-8.4426983"><ele>622.0</ele><time>2026-04-16T09:46:40.856Z</time></trkpt><trkpt lat="42.59284" lon="-8.44265"><ele>622.0</ele><time>2026-04-16T09:46:41.856Z</time></trkpt><trkpt lat="42.5927217" lon="-8.442625"><ele>622.0</ele><time>2026-04-16T09:46:42.856Z</time></trkpt><trkpt lat="42.59261" lon="-8.44263"><ele>622.25</ele><time>2026-04-16T09:46:43.857Z</time></trkpt><trkpt lat="42.59248" lon="-8.44266"><ele>622.5</ele><time>2026-04-16T09:46:44.857Z</time></trkpt><trkpt lat="42.592345" lon="-8.44272"><ele>622.75</ele><time>2026-04-16T09:46:45.856Z</time></trkpt><trkpt lat="42.5922233" lon="-8.4427917"><ele>623.0</ele><time>2026-04-16T09:46:46.856Z</time></trkpt><trkpt lat="42.592135" lon="-8.4428783"><ele>623.1999999999999</ele><time>2026-04-16T09:46:47.857Z</time></trkpt><trkpt lat="42.592075" lon="-8.4429717"><ele>623.4</ele><time>2026-04-16T09:46:48.856Z</time></trkpt><trkpt lat="42.5920333" lon="-8.4431017"><ele>623.5999999999999</ele><time>2026-04-16T09:46:49.856Z</time></trkpt><trkpt lat="42.5919967" lon="-8.4432517"><ele>623.8</ele><time>2026-04-16T09:46:50.857Z</time></trkpt><trkpt lat="42.591945" lon="-8.443395"><ele>624.0</ele><time>2026-04-16T09:46:51.856Z</time></trkpt><trkpt lat="42.5918833" lon="-8.443525"><ele>624.0</ele><time>2026-04-16T09:46:52.857Z</time></trkpt><trkpt lat="42.5918117" lon="-8.4436367"><ele>624.0</ele><time>2026-04-16T09:46:53.856Z</time></trkpt><trkpt lat="42.5917033" lon="-8.443725"><ele>624.0</ele><time>2026-04-16T09:46:54.856Z</time></trkpt><trkpt lat="42.5915783" lon="-8.4438083"><ele>624.0</ele><time>2026-04-16T09:46:55.856Z</time></trkpt><trkpt lat="42.59143" lon="-8.4439"><ele>624.3333333333334</ele><time>2026-04-16T09:46:56.856Z</time></trkpt><trkpt lat="42.591265" lon="-8.4440117"><ele>624.6666666666667</ele><time>2026-04-16T09:46:57.856Z</time></trkpt><trkpt lat="42.5911017" lon="-8.4441167"><ele>625.0</ele><time>2026-04-16T09:46:58.856Z</time></trkpt><trkpt lat="42.590945" lon="-8.44419"><ele>625.0</ele><time>2026-04-16T09:46:59.856Z</time></trkpt><trkpt lat="42.59078" lon="-8.4442317"><ele>625.0</ele><time>2026-04-16T09:47:00.857Z</time></trkpt><trkpt lat="42.5906033" lon="-8.4442567"><ele>625.0</ele><time>2026-04-16T09:47:01.857Z</time></trkpt><trkpt lat="42.5904167" lon="-8.4442833"><ele>625.6666666666667</ele><time>2026-04-16T09:47:02.856Z</time></trkpt><trkpt lat="42.5902333" lon="-8.4443017"><ele>626.3333333333334</ele><time>2026-04-16T09:47:03.856Z</time></trkpt><trkpt lat="42.5900717" lon="-8.444345"><ele>627.0</ele><time>2026-04-16T09:47:04.857Z</time></trkpt><trkpt lat="42.5899367" lon="-8.4444083"><ele>627.0</ele><time>2026-04-16T09:47:05.857Z</time></trkpt><trkpt lat="42.5898267" lon="-8.4445017"><ele>627.0</ele><time>2026-04-16T09:47:06.857Z</time></trkpt><trkpt lat="42.589725" lon="-8.4446317"><ele>627.0</ele><time>2026-04-16T09:47:07.857Z</time></trkpt><trkpt lat="42.589635" lon="-8.4447833"><ele>627.0</ele><time>2026-04-16T09:47:08.857Z</time></trkpt><trkpt lat="42.5895517" lon="-8.4449467"><ele>633.6666666666666</ele><time>2026-04-16T09:47:09.856Z</time></trkpt><trkpt lat="42.5894717" lon="-8.4451233"><ele>640.3333333333333</ele><time>2026-04-16T09:47:10.857Z</time></trkpt><trkpt lat="42.5893833" lon="-8.445315"><ele>647.0</ele><time>2026-04-16T09:47:11.856Z</time></trkpt><trkpt lat="42.5892967" lon="-8.4455133"><ele>648.0</ele><time>2026-04-16T09:47:12.856Z</time></trkpt><trkpt lat="42.5892017" lon="-8.4457133"><ele>649.0</ele><time>2026-04-16T09:47:13.857Z</time></trkpt><trkpt lat="42.5891033" lon="-8.4459117"><ele>650.0</ele><time>2026-04-16T09:47:14.857Z</time></trkpt><trkpt lat="42.5890033" lon="-8.4461"><ele>650.0</ele><time>2026-04-16T09:47:15.857Z</time></trkpt><trkpt lat="42.5889083" lon="-8.4462633"><ele>650.0</ele><time>2026-04-16T09:47:16.856Z</time></trkpt><trkpt lat="42.5888167" lon="-8.4463817"><ele>650.0</ele><time>2026-04-16T09:47:17.857Z</time></trkpt><trkpt lat="42.5887183" lon="-8.4464717"><ele>650.0</ele><time>2026-04-16T09:47:18.856Z</time></trkpt><trkpt lat="42.58859" lon="-8.446545"><ele>652.3333333333333</ele><time>2026-04-16T09:47:19.857Z</time></trkpt><trkpt lat="42.58844" lon="-8.4466217"><ele>654.6666666666666</ele><time>2026-04-16T09:47:20.856Z</time></trkpt><trkpt lat="42.58827" lon="-8.4466733"><ele>657.0</ele><time>2026-04-16T09:47:21.857Z</time></trkpt><trkpt lat="42.588095" lon="-8.4466967"><ele>657.0</ele><time>2026-04-16T09:47:22.857Z</time></trkpt><trkpt lat="42.5879133" lon="-8.4466917"><ele>657.0</ele><time>2026-04-16T09:47:23.856Z</time></trkpt><trkpt lat="42.587735" lon="-8.4466583"><ele>657.0</ele><time>2026-04-16T09:47:24.856Z</time></trkpt><trkpt lat="42.587575" lon="-8.4466367"><ele>657.75</ele><time>2026-04-16T09:47:25.856Z</time></trkpt><trkpt lat="42.58743" lon="-8.4466083"><ele>658.5</ele><time>2026-04-16T09:47:26.856Z</time></trkpt><trkpt lat="42.5873233" lon="-8.446575"><ele>659.25</ele><time>2026-04-16T09:47:27.856Z</time></trkpt><trkpt lat="42.5872133" lon="-8.4465033"><ele>660.0</ele><time>2026-04-16T09:47:28.857Z</time></trkpt><trkpt lat="42.5870917" lon="-8.4464233"><ele>659.8</ele><time>2026-04-16T09:47:29.857Z</time></trkpt><trkpt lat="42.5869717" lon="-8.4463617"><ele>659.6</ele><time>2026-04-16T09:47:30.857Z</time></trkpt><trkpt lat="42.5868667" lon="-8.446325"><ele>659.4000000000001</ele><time>2026-04-16T09:47:31.857Z</time></trkpt><trkpt lat="42.5867783" lon="-8.4463133"><ele>659.2</ele><time>2026-04-16T09:47:32.856Z</time></trkpt><trkpt lat="42.5867033" lon="-8.4463117"><ele>659.0</ele><time>2026-04-16T09:47:33.856Z</time></trkpt><trkpt lat="42.5866283" lon="-8.4462783"><ele>659.0</ele><time>2026-04-16T09:47:35.856Z</time></trkpt><trkpt lat="42.5866783" lon="-8.4461983"><ele>659.0</ele><time>2026-04-16T09:47:38.856Z</time></trkpt><trkpt lat="42.5867417" lon="-8.44621"><ele>659.0</ele><time>2026-04-16T09:47:39.856Z</time></trkpt><trkpt lat="42.5868383" lon="-8.4462533"><ele>659.0</ele><time>2026-04-16T09:47:40.856Z</time></trkpt><trkpt lat="42.5869433" lon="-8.4462967"><ele>659.0</ele><time>2026-04-16T09:47:41.857Z</time></trkpt><trkpt lat="42.5870383" lon="-8.44635"><ele>659.2</ele><time>2026-04-16T09:47:42.856Z</time></trkpt><trkpt lat="42.5870983" lon="-8.4464117"><ele>659.4000000000001</ele><time>2026-04-16T09:47:43.857Z</time></trkpt><trkpt lat="42.587125" lon="-8.4465467"><ele>659.6</ele><time>2026-04-16T09:47:45.857Z</time></trkpt><trkpt lat="42.587095" lon="-8.446645"><ele>659.8</ele><time>2026-04-16T09:47:46.857Z</time></trkpt><trkpt lat="42.5870383" lon="-8.4467617"><ele>660.0</ele><time>2026-04-16T09:47:47.857Z</time></trkpt><trkpt lat="42.5869583" lon="-8.4469"><ele>659.5</ele><time>2026-04-16T09:47:48.856Z</time></trkpt><trkpt lat="42.586875" lon="-8.4470433"><ele>659.0</ele><time>2026-04-16T09:47:49.856Z</time></trkpt><trkpt lat="42.5868" lon="-8.4471867"><ele>658.5</ele><time>2026-04-16T09:47:50.856Z</time></trkpt><trkpt lat="42.5867267" lon="-8.4473167"><ele>658.0</ele><time>2026-04-16T09:47:51.856Z</time></trkpt><trkpt lat="42.5866533" lon="-8.4474367"><ele>657.0</ele><time>2026-04-16T09:47:52.856Z</time></trkpt><trkpt lat="42.5865883" lon="-8.4475417"><ele>656.0</ele><time>2026-04-16T09:47:53.857Z</time></trkpt><trkpt lat="42.58653" lon="-8.4476417"><ele>655.0</ele><time>2026-04-16T09:47:54.856Z</time></trkpt><trkpt lat="42.5864717" lon="-8.447725"><ele>654.0</ele><time>2026-04-16T09:47:55.856Z</time></trkpt><trkpt lat="42.586415" lon="-8.4478083"><ele>653.0</ele><time>2026-04-16T09:47:56.856Z</time></trkpt><trkpt lat="42.586365" lon="-8.447915"><ele>652.0</ele><time>2026-04-16T09:47:57.857Z</time></trkpt><trkpt lat="42.586315" lon="-8.4480383"><ele>651.0</ele><time>2026-04-16T09:47:58.857Z</time></trkpt><trkpt lat="42.5862583" lon="-8.4481683"><ele>650.0</ele><time>2026-04-16T09:47:59.856Z</time></trkpt><trkpt lat="42.5861883" lon="-8.4483017"><ele>649.0</ele><time>2026-04-16T09:48:00.857Z</time></trkpt><trkpt lat="42.5861133" lon="-8.4484467"><ele>652.6666666666667</ele><time>2026-04-16T09:48:01.857Z</time></trkpt><trkpt lat="42.5860317" lon="-8.4486067"><ele>656.3333333333334</ele><time>2026-04-16T09:48:02.857Z</time></trkpt><trkpt lat="42.5859317" lon="-8.4487867"><ele>660.0</ele><time>2026-04-16T09:48:03.857Z</time></trkpt><trkpt lat="42.585825" lon="-8.4489783"><ele>662.0</ele><time>2026-04-16T09:48:04.856Z</time></trkpt><trkpt lat="42.5857217" lon="-8.4491767"><ele>664.0</ele><time>2026-04-16T09:48:05.856Z</time></trkpt><trkpt lat="42.585635" lon="-8.4493717"><ele>666.0</ele><time>2026-04-16T09:48:06.856Z</time></trkpt><trkpt lat="42.5855633" lon="-8.4495433"><ele>666.5</ele><time>2026-04-16T09:48:07.856Z</time></trkpt><trkpt lat="42.5855017" lon="-8.4496917"><ele>667.0</ele><time>2026-04-16T09:48:08.856Z</time></trkpt><trkpt lat="42.5854317" lon="-8.4498433"><ele>667.5</ele><time>2026-04-16T09:48:09.857Z</time></trkpt><trkpt lat="42.5853583" lon="-8.4499967"><ele>668.0</ele><time>2026-04-16T09:48:10.857Z</time></trkpt><trkpt lat="42.585275" lon="-8.4501767"><ele>669.0</ele><time>2026-04-16T09:48:11.856Z</time></trkpt><trkpt lat="42.5851883" lon="-8.450395"><ele>670.0</ele><time>2026-04-16T09:48:12.856Z</time></trkpt><trkpt lat="42.5850917" lon="-8.450645"><ele>671.0</ele><time>2026-04-16T09:48:13.857Z</time></trkpt><trkpt lat="42.5849933" lon="-8.4508967"><ele>671.0</ele><time>2026-04-16T09:48:14.856Z</time></trkpt><trkpt lat="42.5849033" lon="-8.4511383"><ele>671.0</ele><time>2026-04-16T09:48:15.856Z</time></trkpt><trkpt lat="42.5848217" lon="-8.4513617"><ele>671.0</ele><time>2026-04-16T09:48:16.857Z</time></trkpt><trkpt lat="42.58474" lon="-8.4515833"><ele>669.0</ele><time>2026-04-16T09:48:17.857Z</time></trkpt><trkpt lat="42.584665" lon="-8.4517933"><ele>667.0</ele><time>2026-04-16T09:48:18.857Z</time></trkpt><trkpt lat="42.584585" lon="-8.4519883"><ele>665.0</ele><time>2026-04-16T09:48:19.856Z</time></trkpt><trkpt lat="42.5845083" lon="-8.4521817"><ele>665.0</ele><time>2026-04-16T09:48:20.857Z</time></trkpt><trkpt lat="42.5844333" lon="-8.4523817"><ele>665.0</ele><time>2026-04-16T09:48:21.857Z</time></trkpt><trkpt lat="42.5843567" lon="-8.4525867"><ele>665.0</ele><time>2026-04-16T09:48:22.857Z</time></trkpt><trkpt lat="42.5842817" lon="-8.4527883"><ele>664.0</ele><time>2026-04-16T09:48:23.857Z</time></trkpt><trkpt lat="42.5842083" lon="-8.452975"><ele>663.0</ele><time>2026-04-16T09:48:24.856Z</time></trkpt><trkpt lat="42.58414" lon="-8.4531383"><ele>662.0</ele><time>2026-04-16T09:48:25.857Z</time></trkpt><trkpt lat="42.584075" lon="-8.4532883"><ele>661.0</ele><time>2026-04-16T09:48:26.857Z</time></trkpt><trkpt lat="42.5840233" lon="-8.4534383"><ele>661.0</ele><time>2026-04-16T09:48:27.857Z</time></trkpt><trkpt lat="42.5839667" lon="-8.45358"><ele>661.0</ele><time>2026-04-16T09:48:28.857Z</time></trkpt><trkpt lat="42.5839067" lon="-8.4537267"><ele>661.0</ele><time>2026-04-16T09:48:29.857Z</time></trkpt><trkpt lat="42.58384" lon="-8.4538817"><ele>661.0</ele><time>2026-04-16T09:48:30.857Z</time></trkpt><trkpt lat="42.58377" lon="-8.4540283"><ele>659.5</ele><time>2026-04-16T09:48:31.857Z</time></trkpt><trkpt lat="42.58371" lon="-8.454175"><ele>658.0</ele><time>2026-04-16T09:48:32.857Z</time></trkpt><trkpt lat="42.5836467" lon="-8.4543117"><ele>656.5</ele><time>2026-04-16T09:48:33.858Z</time></trkpt><trkpt lat="42.5835983" lon="-8.4544567"><ele>655.0</ele><time>2026-04-16T09:48:34.858Z</time></trkpt><trkpt lat="42.58354" lon="-8.4545967"><ele>654.4</ele><time>2026-04-16T09:48:35.857Z</time></trkpt><trkpt lat="42.5834767" lon="-8.4547417"><ele>653.8</ele><time>2026-04-16T09:48:36.858Z</time></trkpt><trkpt lat="42.583415" lon="-8.45488"><ele>653.2</ele><time>2026-04-16T09:48:37.858Z</time></trkpt><trkpt lat="42.583355" lon="-8.4550017"><ele>652.6</ele><time>2026-04-16T09:48:38.857Z</time></trkpt><trkpt lat="42.58332" lon="-8.4550983"><ele>652.0</ele><time>2026-04-16T09:48:39.857Z</time></trkpt><trkpt lat="42.5832917" lon="-8.4552083"><ele>652.0</ele><time>2026-04-16T09:48:41.857Z</time></trkpt><trkpt lat="42.583325" lon="-8.455105"><ele>652.0</ele><time>2026-04-16T09:49:03.858Z</time></trkpt><trkpt lat="42.583375" lon="-8.4549917"><ele>652.0</ele><time>2026-04-16T09:49:04.857Z</time></trkpt><trkpt lat="42.5834267" lon="-8.4548583"><ele>652.0</ele><time>2026-04-16T09:49:05.857Z</time></trkpt><trkpt lat="42.583485" lon="-8.4547083"><ele>652.0</ele><time>2026-04-16T09:49:06.858Z</time></trkpt><trkpt lat="42.5835483" lon="-8.4545517"><ele>651.6666666666667</ele><time>2026-04-16T09:49:07.857Z</time></trkpt><trkpt lat="42.58362" lon="-8.4543767"><ele>651.3333333333334</ele><time>2026-04-16T09:49:08.857Z</time></trkpt><trkpt lat="42.5836983" lon="-8.4542033"><ele>651.0</ele><time>2026-04-16T09:49:09.858Z</time></trkpt><trkpt lat="42.58379" lon="-8.45402"><ele>651.0</ele><time>2026-04-16T09:49:10.858Z</time></trkpt><trkpt lat="42.58387" lon="-8.4538283"><ele>651.0</ele><time>2026-04-16T09:49:11.857Z</time></trkpt><trkpt lat="42.5839517" lon="-8.4536483"><ele>651.0</ele><time>2026-04-16T09:49:12.857Z</time></trkpt><trkpt lat="42.584015" lon="-8.453485"><ele>654.3333333333334</ele><time>2026-04-16T09:49:13.858Z</time></trkpt><trkpt lat="42.58408" lon="-8.4533133"><ele>657.6666666666667</ele><time>2026-04-16T09:49:14.857Z</time></trkpt><trkpt lat="42.584155" lon="-8.4531217"><ele>661.0</ele><time>2026-04-16T09:49:15.857Z</time></trkpt><trkpt lat="42.5842433" lon="-8.4529117"><ele>662.3333333333334</ele><time>2026-04-16T09:49:16.857Z</time></trkpt><trkpt lat="42.5843333" lon="-8.452685"><ele>663.6666666666666</ele><time>2026-04-16T09:49:17.857Z</time></trkpt><trkpt lat="42.5844233" lon="-8.45246"><ele>665.0</ele><time>2026-04-16T09:49:18.857Z</time></trkpt><trkpt lat="42.5845117" lon="-8.45224"><ele>665.0</ele><time>2026-04-16T09:49:19.858Z</time></trkpt><trkpt lat="42.5846" lon="-8.452005"><ele>665.0</ele><time>2026-04-16T09:49:20.857Z</time></trkpt><trkpt lat="42.58469" lon="-8.451775"><ele>665.0</ele><time>2026-04-16T09:49:21.857Z</time></trkpt><trkpt lat="42.5847717" lon="-8.45154"><ele>665.0</ele><time>2026-04-16T09:49:22.857Z</time></trkpt><trkpt lat="42.5848633" lon="-8.4512967"><ele>665.0</ele><time>2026-04-16T09:49:23.858Z</time></trkpt><trkpt lat="42.58496" lon="-8.45103"><ele>665.0</ele><time>2026-04-16T09:49:24.858Z</time></trkpt><trkpt lat="42.5850567" lon="-8.4507733"><ele>667.0</ele><time>2026-04-16T09:49:25.858Z</time></trkpt><trkpt lat="42.585155" lon="-8.4505117"><ele>669.0</ele><time>2026-04-16T09:49:26.857Z</time></trkpt><trkpt lat="42.5852467" lon="-8.4502717"><ele>671.0</ele><time>2026-04-16T09:49:27.857Z</time></trkpt><trkpt lat="42.5853383" lon="-8.450055"><ele>670.25</ele><time>2026-04-16T09:49:28.857Z</time></trkpt><trkpt lat="42.5854183" lon="-8.4498683"><ele>669.5</ele><time>2026-04-16T09:49:29.858Z</time></trkpt><trkpt lat="42.585485" lon="-8.4497133"><ele>668.75</ele><time>2026-04-16T09:49:30.857Z</time></trkpt><trkpt lat="42.5855667" lon="-8.4495583"><ele>668.0</ele><time>2026-04-16T09:49:31.858Z</time></trkpt><trkpt lat="42.5856583" lon="-8.4493867"><ele>667.3333333333333</ele><time>2026-04-16T09:49:32.858Z</time></trkpt><trkpt lat="42.5857533" lon="-8.4491833"><ele>666.6666666666666</ele><time>2026-04-16T09:49:33.857Z</time></trkpt><trkpt lat="42.5858617" lon="-8.4489633"><ele>666.0</ele><time>2026-04-16T09:49:34.857Z</time></trkpt><trkpt lat="42.5859767" lon="-8.4487333"><ele>664.0</ele><time>2026-04-16T09:49:35.858Z</time></trkpt><trkpt lat="42.5861017" lon="-8.4485067"><ele>662.0</ele><time>2026-04-16T09:49:36.858Z</time></trkpt><trkpt lat="42.5862067" lon="-8.4482933"><ele>660.0</ele><time>2026-04-16T09:49:37.858Z</time></trkpt><trkpt lat="42.5863017" lon="-8.4481033"><ele>658.25</ele><time>2026-04-16T09:49:38.858Z</time></trkpt><trkpt lat="42.586385" lon="-8.44793"><ele>656.5</ele><time>2026-04-16T09:49:39.857Z</time></trkpt><trkpt lat="42.586455" lon="-8.4477983"><ele>654.75</ele><time>2026-04-16T09:49:40.858Z</time></trkpt><trkpt lat="42.58652" lon="-8.4476867"><ele>653.0</ele><time>2026-04-16T09:49:41.858Z</time></trkpt><trkpt lat="42.5865767" lon="-8.4476033"><ele>653.0</ele><time>2026-04-16T09:49:42.857Z</time></trkpt><trkpt lat="42.586655" lon="-8.4474833"><ele>653.0</ele><time>2026-04-16T09:49:44.857Z</time></trkpt><trkpt lat="42.5867" lon="-8.4473967"><ele>653.0</ele><time>2026-04-16T09:49:45.858Z</time></trkpt><trkpt lat="42.586755" lon="-8.4472867"><ele>653.0</ele><time>2026-04-16T09:49:46.857Z</time></trkpt><trkpt lat="42.5868383" lon="-8.4471317"><ele>653.0</ele><time>2026-04-16T09:49:47.858Z</time></trkpt><trkpt lat="42.5869433" lon="-8.4469383"><ele>654.75</ele><time>2026-04-16T09:49:48.857Z</time></trkpt><trkpt lat="42.58705" lon="-8.4467633"><ele>656.5</ele><time>2026-04-16T09:49:49.857Z</time></trkpt><trkpt lat="42.5871083" lon="-8.44661"><ele>658.25</ele><time>2026-04-16T09:49:50.858Z</time></trkpt><trkpt lat="42.5871167" lon="-8.4464833"><ele>660.0</ele><time>2026-04-16T09:49:51.858Z</time></trkpt><trkpt lat="42.587095" lon="-8.4463867"><ele>659.8333333333334</ele><time>2026-04-16T09:49:52.858Z</time></trkpt><trkpt lat="42.587005" lon="-8.4463"><ele>659.6666666666666</ele><time>2026-04-16T09:49:54.858Z</time></trkpt><trkpt lat="42.5869417" lon="-8.4462867"><ele>659.5</ele><time>2026-04-16T09:49:55.857Z</time></trkpt><trkpt lat="42.586865" lon="-8.4462767"><ele>659.3333333333333</ele><time>2026-04-16T09:49:56.858Z</time></trkpt><trkpt lat="42.58679" lon="-8.446275"><ele>659.1666666666666</ele><time>2026-04-16T09:49:57.858Z</time></trkpt><trkpt lat="42.5867183" lon="-8.4462817"><ele>659.0</ele><time>2026-04-16T09:49:58.858Z</time></trkpt><trkpt lat="42.5866383" lon="-8.446285"><ele>659.0</ele><time>2026-04-16T09:49:59.857Z</time></trkpt><trkpt lat="42.58654" lon="-8.4462833"><ele>659.0</ele><time>2026-04-16T09:50:00.857Z</time></trkpt><trkpt lat="42.586425" lon="-8.4462717"><ele>659.0</ele><time>2026-04-16T09:50:01.857Z</time></trkpt><trkpt lat="42.58629" lon="-8.4462717"><ele>659.0</ele><time>2026-04-16T09:50:02.857Z</time></trkpt><trkpt lat="42.5861617" lon="-8.44626"><ele>658.5</ele><time>2026-04-16T09:50:03.857Z</time></trkpt><trkpt lat="42.586025" lon="-8.44624"><ele>658.0</ele><time>2026-04-16T09:50:04.857Z</time></trkpt><trkpt lat="42.5858783" lon="-8.4462267"><ele>657.5</ele><time>2026-04-16T09:50:05.858Z</time></trkpt><trkpt lat="42.585725" lon="-8.4462083"><ele>657.0</ele><time>2026-04-16T09:50:06.858Z</time></trkpt><trkpt lat="42.5855883" lon="-8.4461867"><ele>657.0</ele><time>2026-04-16T09:50:07.857Z</time></trkpt><trkpt lat="42.5854567" lon="-8.4461767"><ele>657.0</ele><time>2026-04-16T09:50:08.857Z</time></trkpt><trkpt lat="42.5853217" lon="-8.4461683"><ele>657.0</ele><time>2026-04-16T09:50:09.857Z</time></trkpt><trkpt lat="42.5851767" lon="-8.44618"><ele>657.0</ele><time>2026-04-16T09:50:10.857Z</time></trkpt><trkpt lat="42.5850233" lon="-8.4462117"><ele>656.0</ele><time>2026-04-16T09:50:11.858Z</time></trkpt><trkpt lat="42.58487" lon="-8.44624"><ele>655.0</ele><time>2026-04-16T09:50:12.857Z</time></trkpt><trkpt lat="42.584735" lon="-8.4462733"><ele>654.0</ele><time>2026-04-16T09:50:13.857Z</time></trkpt><trkpt lat="42.584615" lon="-8.4462917"><ele>653.0</ele><time>2026-04-16T09:50:14.858Z</time></trkpt><trkpt lat="42.5845167" lon="-8.4462933"><ele>652.8333333333333</ele><time>2026-04-16T09:50:15.858Z</time></trkpt><trkpt lat="42.5844283" lon="-8.4462717"><ele>652.6666666666666</ele><time>2026-04-16T09:50:16.857Z</time></trkpt><trkpt lat="42.58436" lon="-8.44624"><ele>652.5</ele><time>2026-04-16T09:50:17.858Z</time></trkpt><trkpt lat="42.5843267" lon="-8.4463133"><ele>652.3333333333334</ele><time>2026-04-16T09:50:37.858Z</time></trkpt><trkpt lat="42.5843667" lon="-8.44648"><ele>652.1666666666667</ele><time>2026-04-16T09:50:39.857Z</time></trkpt><trkpt lat="42.5843633" lon="-8.4465883"><ele>652.0</ele><time>2026-04-16T09:50:40.857Z</time></trkpt><trkpt lat="42.5843383" lon="-8.446695"><ele>652.0</ele><time>2026-04-16T09:50:41.857Z</time></trkpt><trkpt lat="42.5842933" lon="-8.4468033"><ele>652.0</ele><time>2026-04-16T09:50:42.858Z</time></trkpt><trkpt lat="42.58424" lon="-8.446925"><ele>652.0</ele><time>2026-04-16T09:50:43.857Z</time></trkpt><trkpt lat="42.5841783" lon="-8.4470533"><ele>652.0</ele><time>2026-04-16T09:50:44.858Z</time></trkpt><trkpt lat="42.584105" lon="-8.4471783"><ele>652.0</ele><time>2026-04-16T09:50:45.858Z</time></trkpt><trkpt lat="42.5840167" lon="-8.4472983"><ele>653.5</ele><time>2026-04-16T09:50:46.857Z</time></trkpt><trkpt lat="42.583915" lon="-8.4473783"><ele>655.0</ele><time>2026-04-16T09:50:47.857Z</time></trkpt><trkpt lat="42.5837933" lon="-8.4474433"><ele>656.5</ele><time>2026-04-16T09:50:48.858Z</time></trkpt><trkpt lat="42.5836767" lon="-8.4475233"><ele>658.0</ele><time>2026-04-16T09:50:49.857Z</time></trkpt><trkpt lat="42.5835667" lon="-8.4476367"><ele>658.0</ele><time>2026-04-16T09:50:50.858Z</time></trkpt><trkpt lat="42.583455" lon="-8.4477667"><ele>658.0</ele><time>2026-04-16T09:50:51.857Z</time></trkpt><trkpt lat="42.5833483" lon="-8.4479217"><ele>658.0</ele><time>2026-04-16T09:50:52.857Z</time></trkpt><trkpt lat="42.5832467" lon="-8.44808"><ele>660.75</ele><time>2026-04-16T09:50:53.858Z</time></trkpt><trkpt lat="42.5831533" lon="-8.4482317"><ele>663.5</ele><time>2026-04-16T09:50:54.857Z</time></trkpt><trkpt lat="42.5830767" lon="-8.4483833"><ele>666.25</ele><time>2026-04-16T09:50:55.857Z</time></trkpt><trkpt lat="42.583025" lon="-8.4485167"><ele>669.0</ele><time>2026-04-16T09:50:56.858Z</time></trkpt><trkpt lat="42.58298" lon="-8.4486533"><ele>668.25</ele><time>2026-04-16T09:50:57.857Z</time></trkpt><trkpt lat="42.5829467" lon="-8.4487983"><ele>667.5</ele><time>2026-04-16T09:50:58.858Z</time></trkpt><trkpt lat="42.5829117" lon="-8.4489583"><ele>666.75</ele><time>2026-04-16T09:50:59.858Z</time></trkpt><trkpt lat="42.5828717" lon="-8.4491033"><ele>666.0</ele><time>2026-04-16T09:51:00.858Z</time></trkpt><trkpt lat="42.582835" lon="-8.4492467"><ele>666.0</ele><time>2026-04-16T09:51:01.857Z</time></trkpt><trkpt lat="42.58281" lon="-8.4493917"><ele>666.0</ele><time>2026-04-16T09:51:02.858Z</time></trkpt><trkpt lat="42.582785" lon="-8.4495417"><ele>666.0</ele><time>2026-04-16T09:51:03.858Z</time></trkpt><trkpt lat="42.58278" lon="-8.449705"><ele>666.0</ele><time>2026-04-16T09:51:04.857Z</time></trkpt><trkpt lat="42.5827783" lon="-8.4498717"><ele>666.75</ele><time>2026-04-16T09:51:05.858Z</time></trkpt><trkpt lat="42.5827717" lon="-8.4500583"><ele>667.5</ele><time>2026-04-16T09:51:06.857Z</time></trkpt><trkpt lat="42.5827483" lon="-8.450245"><ele>668.25</ele><time>2026-04-16T09:51:07.857Z</time></trkpt><trkpt lat="42.5826883" lon="-8.4504383"><ele>669.0</ele><time>2026-04-16T09:51:08.857Z</time></trkpt><trkpt lat="42.5826083" lon="-8.4506217"><ele>670.0</ele><time>2026-04-16T09:51:09.858Z</time></trkpt><trkpt lat="42.58252" lon="-8.45081"><ele>671.0</ele><time>2026-04-16T09:51:10.857Z</time></trkpt><trkpt lat="42.58242" lon="-8.4509767"><ele>672.0</ele><time>2026-04-16T09:51:11.857Z</time></trkpt><trkpt lat="42.5823083" lon="-8.4511517"><ele>671.0</ele><time>2026-04-16T09:51:12.857Z</time></trkpt><trkpt lat="42.58218" lon="-8.4513167"><ele>670.0</ele><time>2026-04-16T09:51:13.858Z</time></trkpt><trkpt lat="42.5820417" lon="-8.4514817"><ele>669.0</ele><time>2026-04-16T09:51:14.857Z</time></trkpt><trkpt lat="42.5819133" lon="-8.45163"><ele>669.0</ele><time>2026-04-16T09:51:15.857Z</time></trkpt><trkpt lat="42.5817933" lon="-8.451785"><ele>669.0</ele><time>2026-04-16T09:51:16.858Z</time></trkpt><trkpt lat="42.5816767" lon="-8.4519583"><ele>669.0</ele><time>2026-04-16T09:51:17.858Z</time></trkpt><trkpt lat="42.58156" lon="-8.4521533"><ele>668.0</ele><time>2026-04-16T09:51:18.857Z</time></trkpt><trkpt lat="42.5814467" lon="-8.4523517"><ele>667.0</ele><time>2026-04-16T09:51:19.857Z</time></trkpt><trkpt lat="42.5813433" lon="-8.45257"><ele>666.0</ele><time>2026-04-16T09:51:20.857Z</time></trkpt><trkpt lat="42.581245" lon="-8.452815"><ele>666.0</ele><time>2026-04-16T09:51:21.858Z</time></trkpt><trkpt lat="42.5811383" lon="-8.4530683"><ele>666.0</ele><time>2026-04-16T09:51:22.858Z</time></trkpt><trkpt lat="42.5810367" lon="-8.4532917"><ele>666.0</ele><time>2026-04-16T09:51:23.857Z</time></trkpt><trkpt lat="42.5809433" lon="-8.4534767"><ele>666.0</ele><time>2026-04-16T09:51:24.857Z</time></trkpt><trkpt lat="42.58087" lon="-8.453625"><ele>666.0</ele><time>2026-04-16T09:51:25.857Z</time></trkpt><trkpt lat="42.5808067" lon="-8.4537467"><ele>666.0</ele><time>2026-04-16T09:51:26.857Z</time></trkpt><trkpt lat="42.5807333" lon="-8.4539017"><ele>666.0</ele><time>2026-04-16T09:51:27.858Z</time></trkpt><trkpt lat="42.580655" lon="-8.4540817"><ele>667.5</ele><time>2026-04-16T09:51:28.858Z</time></trkpt><trkpt lat="42.58058" lon="-8.45427"><ele>669.0</ele><time>2026-04-16T09:51:29.857Z</time></trkpt><trkpt lat="42.5805217" lon="-8.454435"><ele>670.5</ele><time>2026-04-16T09:51:30.858Z</time></trkpt><trkpt lat="42.58047" lon="-8.454565"><ele>672.0</ele><time>2026-04-16T09:51:31.857Z</time></trkpt><trkpt lat="42.5804233" lon="-8.4546783"><ele>672.6</ele><time>2026-04-16T09:51:32.858Z</time></trkpt><trkpt lat="42.5803683" lon="-8.4547633"><ele>673.2</ele><time>2026-04-16T09:51:33.858Z</time></trkpt><trkpt lat="42.5803017" lon="-8.45483"><ele>673.8</ele><time>2026-04-16T09:51:34.858Z</time></trkpt><trkpt lat="42.5802433" lon="-8.4549017"><ele>674.4</ele><time>2026-04-16T09:51:35.858Z</time></trkpt><trkpt lat="42.5801867" lon="-8.4550033"><ele>675.0</ele><time>2026-04-16T09:51:36.858Z</time></trkpt><trkpt lat="42.5801167" lon="-8.4551383"><ele>677.6666666666666</ele><time>2026-04-16T09:51:37.858Z</time></trkpt><trkpt lat="42.5800417" lon="-8.4553133"><ele>680.3333333333333</ele><time>2026-04-16T09:51:38.857Z</time></trkpt><trkpt lat="42.579965" lon="-8.4555117"><ele>683.0</ele><time>2026-04-16T09:51:39.858Z</time></trkpt><trkpt lat="42.5798933" lon="-8.4557117"><ele>683.5</ele><time>2026-04-16T09:51:40.858Z</time></trkpt><trkpt lat="42.5798183" lon="-8.45589"><ele>684.0</ele><time>2026-04-16T09:51:41.858Z</time></trkpt><trkpt lat="42.5797417" lon="-8.456035"><ele>684.5</ele><time>2026-04-16T09:51:42.858Z</time></trkpt><trkpt lat="42.5796667" lon="-8.4561683"><ele>685.0</ele><time>2026-04-16T09:51:43.857Z</time></trkpt><trkpt lat="42.579585" lon="-8.4562733"><ele>683.75</ele><time>2026-04-16T09:51:44.858Z</time></trkpt><trkpt lat="42.5795033" lon="-8.4563833"><ele>682.5</ele><time>2026-04-16T09:51:45.858Z</time></trkpt><trkpt lat="42.579415" lon="-8.4565017"><ele>681.25</ele><time>2026-04-16T09:51:46.858Z</time></trkpt><trkpt lat="42.5793117" lon="-8.4566383"><ele>680.0</ele><time>2026-04-16T09:51:47.857Z</time></trkpt><trkpt lat="42.5792267" lon="-8.456775"><ele>680.0</ele><time>2026-04-16T09:51:48.857Z</time></trkpt><trkpt lat="42.5791467" lon="-8.4569067"><ele>680.0</ele><time>2026-04-16T09:51:49.857Z</time></trkpt><trkpt lat="42.57908" lon="-8.457035"><ele>680.0</ele><time>2026-04-16T09:51:50.857Z</time></trkpt><trkpt lat="42.5790183" lon="-8.4571733"><ele>680.0</ele><time>2026-04-16T09:51:51.857Z</time></trkpt><trkpt lat="42.5789483" lon="-8.4573233"><ele>680.5</ele><time>2026-04-16T09:51:52.858Z</time></trkpt><trkpt lat="42.578865" lon="-8.4574633"><ele>681.0</ele><time>2026-04-16T09:51:53.857Z</time></trkpt><trkpt lat="42.578785" lon="-8.4576067"><ele>681.5</ele><time>2026-04-16T09:51:54.858Z</time></trkpt><trkpt lat="42.5787083" lon="-8.457755"><ele>682.0</ele><time>2026-04-16T09:51:55.857Z</time></trkpt><trkpt lat="42.5786283" lon="-8.4579167"><ele>682.25</ele><time>2026-04-16T09:51:56.858Z</time></trkpt><trkpt lat="42.57854" lon="-8.4580733"><ele>682.5</ele><time>2026-04-16T09:51:57.858Z</time></trkpt><trkpt lat="42.5784483" lon="-8.4582117"><ele>682.75</ele><time>2026-04-16T09:51:58.858Z</time></trkpt><trkpt lat="42.578355" lon="-8.4583183"><ele>683.0</ele><time>2026-04-16T09:51:59.857Z</time></trkpt><trkpt lat="42.578255" lon="-8.4584133"><ele>683.0</ele><time>2026-04-16T09:52:00.858Z</time></trkpt><trkpt lat="42.578145" lon="-8.458495"><ele>683.0</ele><time>2026-04-16T09:52:01.858Z</time></trkpt><trkpt lat="42.5780333" lon="-8.4585767"><ele>683.0</ele><time>2026-04-16T09:52:02.857Z</time></trkpt><trkpt lat="42.5779117" lon="-8.4586483"><ele>683.0</ele><time>2026-04-16T09:52:03.858Z</time></trkpt><trkpt lat="42.5777867" lon="-8.4587"><ele>682.5</ele><time>2026-04-16T09:52:04.858Z</time></trkpt><trkpt lat="42.577665" lon="-8.4587383"><ele>682.0</ele><time>2026-04-16T09:52:05.857Z</time></trkpt><trkpt lat="42.5775483" lon="-8.4587767"><ele>681.5</ele><time>2026-04-16T09:52:06.858Z</time></trkpt><trkpt lat="42.57744" lon="-8.4588067"><ele>681.0</ele><time>2026-04-16T09:52:07.857Z</time></trkpt><trkpt lat="42.57733" lon="-8.4588367"><ele>682.8</ele><time>2026-04-16T09:52:08.857Z</time></trkpt><trkpt lat="42.5772383" lon="-8.4588567"><ele>684.5999999999999</ele><time>2026-04-16T09:52:09.858Z</time></trkpt><trkpt lat="42.5771367" lon="-8.458875"><ele>686.4</ele><time>2026-04-16T09:52:10.858Z</time></trkpt><trkpt lat="42.5770367" lon="-8.4589067"><ele>688.2</ele><time>2026-04-16T09:52:11.858Z</time></trkpt><trkpt lat="42.5769367" lon="-8.4589517"><ele>690.0</ele><time>2026-04-16T09:52:12.857Z</time></trkpt><trkpt lat="42.57685" lon="-8.4590067"><ele>690.0</ele><time>2026-04-16T09:52:13.857Z</time></trkpt><trkpt lat="42.5767983" lon="-8.4590717"><ele>690.0</ele><time>2026-04-16T09:52:14.858Z</time></trkpt><trkpt lat="42.5768" lon="-8.4592167"><ele>690.0</ele><time>2026-04-16T09:52:16.858Z</time></trkpt><trkpt lat="42.5768733" lon="-8.45935"><ele>690.0</ele><time>2026-04-16T09:52:17.858Z</time></trkpt><trkpt lat="42.5769583" lon="-8.4595067"><ele>690.0</ele><time>2026-04-16T09:52:18.857Z</time></trkpt><trkpt lat="42.577035" lon="-8.4596917"><ele>691.3333333333334</ele><time>2026-04-16T09:52:19.857Z</time></trkpt><trkpt lat="42.577105" lon="-8.4598967"><ele>692.6666666666667</ele><time>2026-04-16T09:52:20.857Z</time></trkpt><trkpt lat="42.5771667" lon="-8.4601167"><ele>694.0</ele><time>2026-04-16T09:52:21.857Z</time></trkpt><trkpt lat="42.5772133" lon="-8.46033"><ele>693.25</ele><time>2026-04-16T09:52:22.857Z</time></trkpt><trkpt lat="42.577255" lon="-8.46053"><ele>692.5</ele><time>2026-04-16T09:52:23.858Z</time></trkpt><trkpt lat="42.5772883" lon="-8.4607283"><ele>691.75</ele><time>2026-04-16T09:52:24.858Z</time></trkpt><trkpt lat="42.577315" lon="-8.4609167"><ele>691.0</ele><time>2026-04-16T09:52:25.857Z</time></trkpt><trkpt lat="42.5773267" lon="-8.4610817"><ele>691.0</ele><time>2026-04-16T09:52:26.857Z</time></trkpt><trkpt lat="42.57733" lon="-8.4612233"><ele>691.0</ele><time>2026-04-16T09:52:27.858Z</time></trkpt><trkpt lat="42.5773267" lon="-8.4613583"><ele>691.0</ele><time>2026-04-16T09:52:28.857Z</time></trkpt><trkpt lat="42.5773233" lon="-8.4614867"><ele>691.0</ele><time>2026-04-16T09:52:29.857Z</time></trkpt><trkpt lat="42.5773183" lon="-8.4615917"><ele>691.0</ele><time>2026-04-16T09:52:30.858Z</time></trkpt><trkpt lat="42.57726" lon="-8.4616883"><ele>690.8</ele><time>2026-04-16T09:52:32.857Z</time></trkpt><trkpt lat="42.5771717" lon="-8.4617833"><ele>690.5999999999999</ele><time>2026-04-16T09:52:34.857Z</time></trkpt><trkpt lat="42.5770917" lon="-8.461905"><ele>690.4</ele><time>2026-04-16T09:52:36.857Z</time></trkpt><trkpt lat="42.5769883" lon="-8.461985"><ele>690.2</ele><time>2026-04-16T09:52:38.857Z</time></trkpt><trkpt lat="42.576925" lon="-8.4620133"><ele>690.0</ele><time>2026-04-16T09:52:39.858Z</time></trkpt><trkpt lat="42.5768617" lon="-8.4620367"><ele>690.0</ele><time>2026-04-16T09:52:40.857Z</time></trkpt><trkpt lat="42.5768" lon="-8.4620567"><ele>690.0</ele><time>2026-04-16T09:52:41.857Z</time></trkpt><trkpt lat="42.5767367" lon="-8.4620767"><ele>690.0</ele><time>2026-04-16T09:52:42.858Z</time></trkpt><trkpt lat="42.5766633" lon="-8.462085"><ele>690.0</ele><time>2026-04-16T09:52:43.858Z</time></trkpt><trkpt lat="42.576575" lon="-8.46208"><ele>690.0</ele><time>2026-04-16T09:52:44.857Z</time></trkpt><trkpt lat="42.57647" lon="-8.462065"><ele>690.0</ele><time>2026-04-16T09:52:45.857Z</time></trkpt><trkpt lat="42.5763667" lon="-8.4620517"><ele>690.0</ele><time>2026-04-16T09:52:46.858Z</time></trkpt><trkpt lat="42.5762617" lon="-8.4620333"><ele>690.0</ele><time>2026-04-16T09:52:47.858Z</time></trkpt><trkpt lat="42.57616" lon="-8.4619983"><ele>690.0</ele><time>2026-04-16T09:52:48.858Z</time></trkpt><trkpt lat="42.5760583" lon="-8.46195"><ele>690.0</ele><time>2026-04-16T09:52:49.857Z</time></trkpt><trkpt lat="42.57596" lon="-8.4619167"><ele>690.0</ele><time>2026-04-16T09:52:50.857Z</time></trkpt><trkpt lat="42.575865" lon="-8.4618883"><ele>691.5</ele><time>2026-04-16T09:52:51.858Z</time></trkpt><trkpt lat="42.5757817" lon="-8.4618683"><ele>693.0</ele><time>2026-04-16T09:52:52.857Z</time></trkpt><trkpt lat="42.575705" lon="-8.4618633"><ele>694.5</ele><time>2026-04-16T09:52:53.858Z</time></trkpt><trkpt lat="42.5756283" lon="-8.461855"><ele>696.0</ele><time>2026-04-16T09:52:54.857Z</time></trkpt><trkpt lat="42.57555" lon="-8.461845"><ele>697.5</ele><time>2026-04-16T09:52:55.857Z</time></trkpt><trkpt lat="42.5754533" lon="-8.4618433"><ele>699.0</ele><time>2026-04-16T09:52:56.857Z</time></trkpt><trkpt lat="42.5753483" lon="-8.4618417"><ele>699.0</ele><time>2026-04-16T09:52:57.858Z</time></trkpt><trkpt lat="42.5752383" lon="-8.4618467"><ele>699.0</ele><time>2026-04-16T09:52:58.858Z</time></trkpt><trkpt lat="42.5751183" lon="-8.4618683"><ele>699.0</ele><time>2026-04-16T09:52:59.857Z</time></trkpt><trkpt lat="42.575005" lon="-8.4618933"><ele>699.0</ele><time>2026-04-16T09:53:00.858Z</time></trkpt><trkpt lat="42.574905" lon="-8.461915"><ele>699.0</ele><time>2026-04-16T09:53:01.857Z</time></trkpt><trkpt lat="42.5748033" lon="-8.4619433"><ele>699.0</ele><time>2026-04-16T09:53:02.858Z</time></trkpt><trkpt lat="42.5746933" lon="-8.4619967"><ele>699.0</ele><time>2026-04-16T09:53:03.857Z</time></trkpt><trkpt lat="42.57458" lon="-8.462075"><ele>699.0</ele><time>2026-04-16T09:53:04.857Z</time></trkpt><trkpt lat="42.5744833" lon="-8.462145"><ele>699.0</ele><time>2026-04-16T09:53:05.857Z</time></trkpt><trkpt lat="42.5744083" lon="-8.4622367"><ele>698.8000000000001</ele><time>2026-04-16T09:53:06.858Z</time></trkpt><trkpt lat="42.57435" lon="-8.462335"><ele>698.6</ele><time>2026-04-16T09:53:07.857Z</time></trkpt><trkpt lat="42.57431" lon="-8.4624417"><ele>698.4</ele><time>2026-04-16T09:53:08.858Z</time></trkpt><trkpt lat="42.574285" lon="-8.46256"><ele>698.2</ele><time>2026-04-16T09:53:09.857Z</time></trkpt><trkpt lat="42.5742617" lon="-8.4626833"><ele>698.0</ele><time>2026-04-16T09:53:10.857Z</time></trkpt><trkpt lat="42.5742333" lon="-8.4628067"><ele>698.0</ele><time>2026-04-16T09:53:11.857Z</time></trkpt><trkpt lat="42.5741983" lon="-8.4629167"><ele>698.0</ele><time>2026-04-16T09:53:12.857Z</time></trkpt><trkpt lat="42.5741633" lon="-8.4630267"><ele>698.0</ele><time>2026-04-16T09:53:13.858Z</time></trkpt><trkpt lat="42.57413" lon="-8.4631417"><ele>698.0</ele><time>2026-04-16T09:53:14.857Z</time></trkpt><trkpt lat="42.57409" lon="-8.46326"><ele>698.0</ele><time>2026-04-16T09:53:15.858Z</time></trkpt><trkpt lat="42.574055" lon="-8.4633817"><ele>700.0</ele><time>2026-04-16T09:53:16.857Z</time></trkpt><trkpt lat="42.5740233" lon="-8.4635183"><ele>702.0</ele><time>2026-04-16T09:53:17.858Z</time></trkpt><trkpt lat="42.573995" lon="-8.46366"><ele>704.0</ele><time>2026-04-16T09:53:18.858Z</time></trkpt><trkpt lat="42.5739667" lon="-8.4637983"><ele>706.0</ele><time>2026-04-16T09:53:19.857Z</time></trkpt><trkpt lat="42.5739467" lon="-8.4639317"><ele>708.0</ele><time>2026-04-16T09:53:20.857Z</time></trkpt><trkpt lat="42.5739383" lon="-8.4640733"><ele>709.3333333333334</ele><time>2026-04-16T09:53:21.858Z</time></trkpt><trkpt lat="42.5739417" lon="-8.464205"><ele>710.6666666666666</ele><time>2026-04-16T09:53:22.857Z</time></trkpt><trkpt lat="42.5739417" lon="-8.4643283"><ele>712.0</ele><time>2026-04-16T09:53:23.857Z</time></trkpt><trkpt lat="42.573925" lon="-8.46443"><ele>713.3333333333333</ele><time>2026-04-16T09:53:24.858Z</time></trkpt><trkpt lat="42.5738933" lon="-8.4645283"><ele>714.6666666666666</ele><time>2026-04-16T09:53:25.857Z</time></trkpt><trkpt lat="42.5738467" lon="-8.4646417"><ele>716.0</ele><time>2026-04-16T09:53:26.858Z</time></trkpt><trkpt lat="42.5737967" lon="-8.46478"><ele>716.5</ele><time>2026-04-16T09:53:27.857Z</time></trkpt><trkpt lat="42.5737467" lon="-8.4649317"><ele>717.0</ele><time>2026-04-16T09:53:28.857Z</time></trkpt><trkpt lat="42.57369" lon="-8.4650883"><ele>717.5</ele><time>2026-04-16T09:53:29.857Z</time></trkpt><trkpt lat="42.5736417" lon="-8.465225"><ele>718.0</ele><time>2026-04-16T09:53:30.858Z</time></trkpt><trkpt lat="42.5736" lon="-8.4653633"><ele>715.4</ele><time>2026-04-16T09:53:31.857Z</time></trkpt><trkpt lat="42.5735617" lon="-8.4654983"><ele>712.8</ele><time>2026-04-16T09:53:32.858Z</time></trkpt><trkpt lat="42.5735383" lon="-8.4656233"><ele>710.2</ele><time>2026-04-16T09:53:33.858Z</time></trkpt><trkpt lat="42.5735283" lon="-8.4657467"><ele>707.6</ele><time>2026-04-16T09:53:34.858Z</time></trkpt><trkpt lat="42.5735217" lon="-8.465865"><ele>705.0</ele><time>2026-04-16T09:53:35.858Z</time></trkpt><trkpt lat="42.5735267" lon="-8.4659917"><ele>705.0</ele><time>2026-04-16T09:53:36.857Z</time></trkpt><trkpt lat="42.5735483" lon="-8.4661233"><ele>705.0</ele><time>2026-04-16T09:53:37.857Z</time></trkpt><trkpt lat="42.5735883" lon="-8.46624"><ele>705.0</ele><time>2026-04-16T09:53:38.858Z</time></trkpt><trkpt lat="42.57365" lon="-8.466355"><ele>705.0</ele><time>2026-04-16T09:53:39.858Z</time></trkpt><trkpt lat="42.57373" lon="-8.4664733"><ele>705.0</ele><time>2026-04-16T09:53:40.858Z</time></trkpt><trkpt lat="42.5738167" lon="-8.4665933"><ele>706.75</ele><time>2026-04-16T09:53:41.858Z</time></trkpt><trkpt lat="42.573905" lon="-8.4667017"><ele>708.5</ele><time>2026-04-16T09:53:42.857Z</time></trkpt><trkpt lat="42.573995" lon="-8.4668233"><ele>710.25</ele><time>2026-04-16T09:53:43.857Z</time></trkpt><trkpt lat="42.57409" lon="-8.4669433"><ele>712.0</ele><time>2026-04-16T09:53:44.858Z</time></trkpt><trkpt lat="42.5741817" lon="-8.4670483"><ele>711.6</ele><time>2026-04-16T09:53:45.857Z</time></trkpt><trkpt lat="42.574265" lon="-8.4671317"><ele>711.2</ele><time>2026-04-16T09:53:46.857Z</time></trkpt><trkpt lat="42.5743533" lon="-8.467215"><ele>710.8</ele><time>2026-04-16T09:53:47.858Z</time></trkpt><trkpt lat="42.57445" lon="-8.4672917"><ele>710.4</ele><time>2026-04-16T09:53:48.857Z</time></trkpt><trkpt lat="42.5745483" lon="-8.4673667"><ele>710.0</ele><time>2026-04-16T09:53:49.858Z</time></trkpt><trkpt lat="42.5746383" lon="-8.4674367"><ele>712.5</ele><time>2026-04-16T09:53:50.857Z</time></trkpt><trkpt lat="42.57471" lon="-8.4674933"><ele>715.0</ele><time>2026-04-16T09:53:51.858Z</time></trkpt><trkpt lat="42.574765" lon="-8.4675417"><ele>717.5</ele><time>2026-04-16T09:53:52.857Z</time></trkpt><trkpt lat="42.5748233" lon="-8.4675883"><ele>720.0</ele><time>2026-04-16T09:53:53.857Z</time></trkpt><trkpt lat="42.5749117" lon="-8.4677"><ele>722.5</ele><time>2026-04-16T09:53:55.858Z</time></trkpt><trkpt lat="42.57495" lon="-8.4677983"><ele>725.0</ele><time>2026-04-16T09:53:56.857Z</time></trkpt><trkpt lat="42.5749833" lon="-8.46793"><ele>723.5</ele><time>2026-04-16T09:53:57.858Z</time></trkpt><trkpt lat="42.5750133" lon="-8.4680633"><ele>722.0</ele><time>2026-04-16T09:53:58.857Z</time></trkpt><trkpt lat="42.5750433" lon="-8.4682117"><ele>720.5</ele><time>2026-04-16T09:53:59.857Z</time></trkpt><trkpt lat="42.57508" lon="-8.4683667"><ele>719.0</ele><time>2026-04-16T09:54:00.857Z</time></trkpt><trkpt lat="42.575115" lon="-8.4685467"><ele>719.0</ele><time>2026-04-16T09:54:01.857Z</time></trkpt><trkpt lat="42.57515" lon="-8.46873"><ele>719.0</ele><time>2026-04-16T09:54:02.857Z</time></trkpt><trkpt lat="42.5751783" lon="-8.4689133"><ele>719.0</ele><time>2026-04-16T09:54:03.858Z</time></trkpt><trkpt lat="42.5752133" lon="-8.4691067"><ele>719.0</ele><time>2026-04-16T09:54:04.858Z</time></trkpt><trkpt lat="42.5752467" lon="-8.4693067"><ele>720.0</ele><time>2026-04-16T09:54:05.857Z</time></trkpt><trkpt lat="42.5752833" lon="-8.4695167"><ele>721.0</ele><time>2026-04-16T09:54:06.857Z</time></trkpt><trkpt lat="42.5753217" lon="-8.4697283"><ele>722.0</ele><time>2026-04-16T09:54:07.858Z</time></trkpt><trkpt lat="42.57536" lon="-8.4699333"><ele>722.0</ele><time>2026-04-16T09:54:08.858Z</time></trkpt><trkpt lat="42.5753833" lon="-8.4700967"><ele>722.0</ele><time>2026-04-16T09:54:09.858Z</time></trkpt><trkpt lat="42.57541" lon="-8.4702367"><ele>722.0</ele><time>2026-04-16T09:54:10.858Z</time></trkpt><trkpt lat="42.57543" lon="-8.4703683"><ele>722.0</ele><time>2026-04-16T09:54:11.858Z</time></trkpt><trkpt lat="42.5754467" lon="-8.4704883"><ele>722.0</ele><time>2026-04-16T09:54:12.857Z</time></trkpt><trkpt lat="42.57546" lon="-8.4705867"><ele>721.6</ele><time>2026-04-16T09:54:13.857Z</time></trkpt><trkpt lat="42.5754617" lon="-8.470675"><ele>721.2</ele><time>2026-04-16T09:54:14.857Z</time></trkpt><trkpt lat="42.57538" lon="-8.47081"><ele>720.8</ele><time>2026-04-16T09:54:16.857Z</time></trkpt><trkpt lat="42.5752983" lon="-8.4708733"><ele>720.4</ele><time>2026-04-16T09:54:17.858Z</time></trkpt><trkpt lat="42.5751967" lon="-8.4709567"><ele>720.0</ele><time>2026-04-16T09:54:18.857Z</time></trkpt><trkpt lat="42.575075" lon="-8.471065"><ele>720.0</ele><time>2026-04-16T09:54:19.858Z</time></trkpt><trkpt lat="42.574955" lon="-8.4711917"><ele>720.0</ele><time>2026-04-16T09:54:20.858Z</time></trkpt><trkpt lat="42.57483" lon="-8.4713317"><ele>720.0</ele><time>2026-04-16T09:54:21.858Z</time></trkpt><trkpt lat="42.5746967" lon="-8.4714867"><ele>722.0</ele><time>2026-04-16T09:54:22.858Z</time></trkpt><trkpt lat="42.5745583" lon="-8.471645"><ele>724.0</ele><time>2026-04-16T09:54:23.857Z</time></trkpt><trkpt lat="42.574425" lon="-8.4717967"><ele>726.0</ele><time>2026-04-16T09:54:24.857Z</time></trkpt><trkpt lat="42.5742983" lon="-8.471935"><ele>728.6666666666666</ele><time>2026-04-16T09:54:25.857Z</time></trkpt><trkpt lat="42.5741717" lon="-8.4720617"><ele>731.3333333333333</ele><time>2026-04-16T09:54:26.857Z</time></trkpt><trkpt lat="42.5740483" lon="-8.4721917"><ele>734.0</ele><time>2026-04-16T09:54:27.857Z</time></trkpt><trkpt lat="42.57394" lon="-8.4723117"><ele>734.5</ele><time>2026-04-16T09:54:28.857Z</time></trkpt><trkpt lat="42.5738433" lon="-8.47242"><ele>735.0</ele><time>2026-04-16T09:54:29.857Z</time></trkpt><trkpt lat="42.5737467" lon="-8.4725333"><ele>735.5</ele><time>2026-04-16T09:54:30.858Z</time></trkpt><trkpt lat="42.57364" lon="-8.4726517"><ele>736.0</ele><time>2026-04-16T09:54:31.858Z</time></trkpt><trkpt lat="42.5735317" lon="-8.47277"><ele>736.0</ele><time>2026-04-16T09:54:32.857Z</time></trkpt><trkpt lat="42.573425" lon="-8.4728733"><ele>736.0</ele><time>2026-04-16T09:54:33.857Z</time></trkpt><trkpt lat="42.5733267" lon="-8.4729767"><ele>736.0</ele><time>2026-04-16T09:54:34.857Z</time></trkpt><trkpt lat="42.5732317" lon="-8.4730633"><ele>736.0</ele><time>2026-04-16T09:54:35.857Z</time></trkpt><trkpt lat="42.573145" lon="-8.4731267"><ele>736.1999999999999</ele><time>2026-04-16T09:54:36.858Z</time></trkpt><trkpt lat="42.5730583" lon="-8.473155"><ele>736.4</ele><time>2026-04-16T09:54:37.857Z</time></trkpt><trkpt lat="42.572955" lon="-8.4731333"><ele>736.6</ele><time>2026-04-16T09:54:38.858Z</time></trkpt><trkpt lat="42.5728433" lon="-8.4730767"><ele>736.8</ele><time>2026-04-16T09:54:39.858Z</time></trkpt><trkpt lat="42.5727333" lon="-8.4729967"><ele>737.0</ele><time>2026-04-16T09:54:40.857Z</time></trkpt><trkpt lat="42.572625" lon="-8.4729167"><ele>735.4000000000001</ele><time>2026-04-16T09:54:41.858Z</time></trkpt><trkpt lat="42.572515" lon="-8.472845"><ele>733.8000000000001</ele><time>2026-04-16T09:54:42.858Z</time></trkpt><trkpt lat="42.5724183" lon="-8.47277"><ele>732.2</ele><time>2026-04-16T09:54:43.857Z</time></trkpt><trkpt lat="42.5723267" lon="-8.4726817"><ele>730.6</ele><time>2026-04-16T09:54:44.857Z</time></trkpt><trkpt lat="42.5722617" lon="-8.4725783"><ele>729.0</ele><time>2026-04-16T09:54:45.857Z</time></trkpt><trkpt lat="42.5722183" lon="-8.47246"><ele>729.0</ele><time>2026-04-16T09:54:46.857Z</time></trkpt><trkpt lat="42.5721783" lon="-8.47234"><ele>729.0</ele><time>2026-04-16T09:54:47.857Z</time></trkpt><trkpt lat="42.5721417" lon="-8.4722267"><ele>729.0</ele><time>2026-04-16T09:54:48.857Z</time></trkpt><trkpt lat="42.5721033" lon="-8.4721133"><ele>729.0</ele><time>2026-04-16T09:54:49.858Z</time></trkpt><trkpt lat="42.5720667" lon="-8.471995"><ele>729.0</ele><time>2026-04-16T09:54:50.857Z</time></trkpt><trkpt lat="42.5720317" lon="-8.4718667"><ele>727.0</ele><time>2026-04-16T09:54:51.858Z</time></trkpt><trkpt lat="42.5719983" lon="-8.47173"><ele>725.0</ele><time>2026-04-16T09:54:52.857Z</time></trkpt><trkpt lat="42.57197" lon="-8.4715883"><ele>723.0</ele><time>2026-04-16T09:54:53.858Z</time></trkpt><trkpt lat="42.571925" lon="-8.4714383"><ele>721.0</ele><time>2026-04-16T09:54:54.857Z</time></trkpt><trkpt lat="42.5718767" lon="-8.4712933"><ele>719.5</ele><time>2026-04-16T09:54:55.857Z</time></trkpt><trkpt lat="42.571815" lon="-8.4711633"><ele>718.0</ele><time>2026-04-16T09:54:56.857Z</time></trkpt><trkpt lat="42.57175" lon="-8.471035"><ele>716.5</ele><time>2026-04-16T09:54:57.857Z</time></trkpt><trkpt lat="42.5716967" lon="-8.4708867"><ele>715.0</ele><time>2026-04-16T09:54:58.858Z</time></trkpt><trkpt lat="42.5716433" lon="-8.47071"><ele>715.0</ele><time>2026-04-16T09:54:59.858Z</time></trkpt><trkpt lat="42.5715933" lon="-8.47053"><ele>715.0</ele><time>2026-04-16T09:55:00.858Z</time></trkpt><trkpt lat="42.5715467" lon="-8.4703617"><ele>715.0</ele><time>2026-04-16T09:55:01.857Z</time></trkpt><trkpt lat="42.57149" lon="-8.470215"><ele>715.0</ele><time>2026-04-16T09:55:02.858Z</time></trkpt><trkpt lat="42.57142" lon="-8.4701"><ele>714.5</ele><time>2026-04-16T09:55:03.857Z</time></trkpt><trkpt lat="42.5713383" lon="-8.4700017"><ele>714.0</ele><time>2026-04-16T09:55:04.858Z</time></trkpt><trkpt lat="42.57124" lon="-8.469905"><ele>713.5</ele><time>2026-04-16T09:55:05.858Z</time></trkpt><trkpt lat="42.57113" lon="-8.4698167"><ele>713.0</ele><time>2026-04-16T09:55:06.858Z</time></trkpt><trkpt lat="42.5710117" lon="-8.4697367"><ele>711.25</ele><time>2026-04-16T09:55:07.859Z</time></trkpt><trkpt lat="42.5709017" lon="-8.4696467"><ele>709.5</ele><time>2026-04-16T09:55:08.859Z</time></trkpt><trkpt lat="42.570795" lon="-8.4695417"><ele>707.75</ele><time>2026-04-16T09:55:09.859Z</time></trkpt><trkpt lat="42.570685" lon="-8.4694367"><ele>706.0</ele><time>2026-04-16T09:55:10.858Z</time></trkpt><trkpt lat="42.5705583" lon="-8.469345"><ele>705.5</ele><time>2026-04-16T09:55:11.858Z</time></trkpt><trkpt lat="42.5704283" lon="-8.4692667"><ele>705.0</ele><time>2026-04-16T09:55:12.858Z</time></trkpt><trkpt lat="42.5702983" lon="-8.4691983"><ele>704.5</ele><time>2026-04-16T09:55:13.858Z</time></trkpt><trkpt lat="42.5701583" lon="-8.469145"><ele>704.0</ele><time>2026-04-16T09:55:14.858Z</time></trkpt><trkpt lat="42.570005" lon="-8.4690883"><ele>703.0</ele><time>2026-04-16T09:55:15.859Z</time></trkpt><trkpt lat="42.5698667" lon="-8.4690517"><ele>702.0</ele><time>2026-04-16T09:55:16.858Z</time></trkpt><trkpt lat="42.569735" lon="-8.4690183"><ele>701.0</ele><time>2026-04-16T09:55:17.859Z</time></trkpt><trkpt lat="42.569615" lon="-8.4689967"><ele>700.0</ele><time>2026-04-16T09:55:18.859Z</time></trkpt><trkpt lat="42.56951" lon="-8.4690117"><ele>698.6</ele><time>2026-04-16T09:55:19.858Z</time></trkpt><trkpt lat="42.5694" lon="-8.4690533"><ele>697.2</ele><time>2026-04-16T09:55:20.859Z</time></trkpt><trkpt lat="42.5692867" lon="-8.4690983"><ele>695.8</ele><time>2026-04-16T09:55:21.859Z</time></trkpt><trkpt lat="42.569185" lon="-8.4691267"><ele>694.4</ele><time>2026-04-16T09:55:22.859Z</time></trkpt><trkpt lat="42.5690933" lon="-8.469155"><ele>693.0</ele><time>2026-04-16T09:55:23.859Z</time></trkpt><trkpt lat="42.5690067" lon="-8.46917"><ele>693.0</ele><time>2026-04-16T09:55:24.859Z</time></trkpt><trkpt lat="42.568935" lon="-8.4691867"><ele>693.0</ele><time>2026-04-16T09:55:25.858Z</time></trkpt><trkpt lat="42.5688617" lon="-8.4692233"><ele>693.0</ele><time>2026-04-16T09:55:27.858Z</time></trkpt><trkpt lat="42.5687983" lon="-8.4692583"><ele>693.0</ele><time>2026-04-16T09:55:30.859Z</time></trkpt><trkpt lat="42.5687133" lon="-8.4693317"><ele>693.0</ele><time>2026-04-16T09:55:33.858Z</time></trkpt><trkpt lat="42.5686217" lon="-8.46938"><ele>693.0</ele><time>2026-04-16T09:55:35.859Z</time></trkpt><trkpt lat="42.568485" lon="-8.469345"><ele>690.5</ele><time>2026-04-16T09:55:37.859Z</time></trkpt><trkpt lat="42.568375" lon="-8.469305"><ele>688.0</ele><time>2026-04-16T09:55:38.858Z</time></trkpt><trkpt lat="42.5682567" lon="-8.4692533"><ele>685.5</ele><time>2026-04-16T09:55:39.858Z</time></trkpt><trkpt lat="42.5681483" lon="-8.469185"><ele>683.0</ele><time>2026-04-16T09:55:40.859Z</time></trkpt><trkpt lat="42.5680533" lon="-8.4691133"><ele>683.0</ele><time>2026-04-16T09:55:41.859Z</time></trkpt><trkpt lat="42.5679817" lon="-8.469045"><ele>683.0</ele><time>2026-04-16T09:55:42.858Z</time></trkpt><trkpt lat="42.5679317" lon="-8.4689717"><ele>683.0</ele><time>2026-04-16T09:55:43.858Z</time></trkpt><trkpt lat="42.5679033" lon="-8.46889"><ele>683.0</ele><time>2026-04-16T09:55:44.859Z</time></trkpt><trkpt lat="42.5679317" lon="-8.46873"><ele>683.0</ele><time>2026-04-16T09:55:46.859Z</time></trkpt><trkpt lat="42.5679817" lon="-8.4686617"><ele>683.0</ele><time>2026-04-16T09:55:47.859Z</time></trkpt><trkpt lat="42.56802" lon="-8.4685467"><ele>681.5999999999999</ele><time>2026-04-16T09:55:49.858Z</time></trkpt><trkpt lat="42.5679767" lon="-8.4684267"><ele>680.1999999999999</ele><time>2026-04-16T09:55:52.859Z</time></trkpt><trkpt lat="42.5679233" lon="-8.4683"><ele>678.8</ele><time>2026-04-16T09:55:54.858Z</time></trkpt><trkpt lat="42.56786" lon="-8.4682217"><ele>677.4</ele><time>2026-04-16T09:55:55.859Z</time></trkpt><trkpt lat="42.5677833" lon="-8.4681433"><ele>676.0</ele><time>2026-04-16T09:55:56.859Z</time></trkpt><trkpt lat="42.5677" lon="-8.4680633"><ele>674.5999999999999</ele><time>2026-04-16T09:55:57.859Z</time></trkpt><trkpt lat="42.5676117" lon="-8.46799"><ele>673.2</ele><time>2026-04-16T09:55:58.858Z</time></trkpt><trkpt lat="42.5675233" lon="-8.4679217"><ele>671.8</ele><time>2026-04-16T09:55:59.859Z</time></trkpt><trkpt lat="42.5674367" lon="-8.4678633"><ele>670.4000000000001</ele><time>2026-04-16T09:56:00.858Z</time></trkpt><trkpt lat="42.56736" lon="-8.4678233"><ele>669.0</ele><time>2026-04-16T09:56:01.859Z</time></trkpt><trkpt lat="42.5672717" lon="-8.4677783"><ele>668.1666666666666</ele><time>2026-04-16T09:56:03.858Z</time></trkpt><trkpt lat="42.5671933" lon="-8.467745"><ele>667.3333333333334</ele><time>2026-04-16T09:56:06.858Z</time></trkpt><trkpt lat="42.5671283" lon="-8.4677267"><ele>666.5</ele><time>2026-04-16T09:56:09.858Z</time></trkpt><trkpt lat="42.56706" lon="-8.46772"><ele>665.6666666666667</ele><time>2026-04-16T09:56:11.858Z</time></trkpt><trkpt lat="42.5669333" lon="-8.467735"><ele>664.8333333333334</ele><time>2026-04-16T09:56:13.859Z</time></trkpt><trkpt lat="42.566845" lon="-8.4677567"><ele>664.0</ele><time>2026-04-16T09:56:14.858Z</time></trkpt><trkpt lat="42.566745" lon="-8.4677767"><ele>662.4000000000001</ele><time>2026-04-16T09:56:15.859Z</time></trkpt><trkpt lat="42.566645" lon="-8.4678067"><ele>660.8</ele><time>2026-04-16T09:56:16.858Z</time></trkpt><trkpt lat="42.5665483" lon="-8.4678183"><ele>659.2</ele><time>2026-04-16T09:56:17.858Z</time></trkpt><trkpt lat="42.5664617" lon="-8.4678333"><ele>657.5999999999999</ele><time>2026-04-16T09:56:18.859Z</time></trkpt><trkpt lat="42.56637" lon="-8.467845"><ele>656.0</ele><time>2026-04-16T09:56:19.858Z</time></trkpt><trkpt lat="42.5662817" lon="-8.467855"><ele>656.0</ele><time>2026-04-16T09:56:20.858Z</time></trkpt><trkpt lat="42.5661967" lon="-8.4678617"><ele>656.0</ele><time>2026-04-16T09:56:21.858Z</time></trkpt><trkpt lat="42.5661067" lon="-8.4678717"><ele>656.0</ele><time>2026-04-16T09:56:22.859Z</time></trkpt><trkpt lat="42.5660117" lon="-8.4678883"><ele>656.0</ele><time>2026-04-16T09:56:23.858Z</time></trkpt><trkpt lat="42.5659233" lon="-8.467905"><ele>656.0</ele><time>2026-04-16T09:56:24.858Z</time></trkpt><trkpt lat="42.56584" lon="-8.4679233"><ele>656.0</ele><time>2026-04-16T09:56:25.859Z</time></trkpt><trkpt lat="42.56576" lon="-8.4679417"><ele>653.6666666666666</ele><time>2026-04-16T09:56:26.859Z</time></trkpt><trkpt lat="42.5656783" lon="-8.4679517"><ele>651.3333333333333</ele><time>2026-04-16T09:56:27.859Z</time></trkpt><trkpt lat="42.5656083" lon="-8.4679517"><ele>649.0</ele><time>2026-04-16T09:56:28.858Z</time></trkpt><trkpt lat="42.5655417" lon="-8.467945"><ele>646.6666666666666</ele><time>2026-04-16T09:56:29.859Z</time></trkpt><trkpt lat="42.565475" lon="-8.467925"><ele>644.3333333333334</ele><time>2026-04-16T09:56:30.858Z</time></trkpt><trkpt lat="42.565405" lon="-8.467865"><ele>642.0</ele><time>2026-04-16T09:56:31.858Z</time></trkpt><trkpt lat="42.5653333" lon="-8.4677917"><ele>638.8571428571428</ele><time>2026-04-16T09:56:32.859Z</time></trkpt><trkpt lat="42.5652817" lon="-8.4677033"><ele>635.7142857142857</ele><time>2026-04-16T09:56:33.859Z</time></trkpt><trkpt lat="42.5652367" lon="-8.4676267"><ele>632.5714285714286</ele><time>2026-04-16T09:56:34.859Z</time></trkpt><trkpt lat="42.5651883" lon="-8.46757"><ele>629.4285714285713</ele><time>2026-04-16T09:56:35.858Z</time></trkpt><trkpt lat="42.5651333" lon="-8.467515"><ele>626.2857142857142</ele><time>2026-04-16T09:56:36.859Z</time></trkpt><trkpt lat="42.565085" lon="-8.4674533"><ele>623.1428571428571</ele><time>2026-04-16T09:56:37.859Z</time></trkpt><trkpt lat="42.5650433" lon="-8.4673817"><ele>620.0</ele><time>2026-04-16T09:56:38.858Z</time></trkpt><trkpt lat="42.56501" lon="-8.4672917"><ele>620.0</ele><time>2026-04-16T09:56:39.858Z</time></trkpt><trkpt lat="42.5649767" lon="-8.4671717"><ele>620.0</ele><time>2026-04-16T09:56:40.858Z</time></trkpt><trkpt lat="42.5649417" lon="-8.467035"><ele>620.0</ele><time>2026-04-16T09:56:41.858Z</time></trkpt><trkpt lat="42.5648967" lon="-8.4669017"><ele>620.0</ele><time>2026-04-16T09:56:42.858Z</time></trkpt><trkpt lat="42.5648467" lon="-8.4667733"><ele>620.0</ele><time>2026-04-16T09:56:43.858Z</time></trkpt><trkpt lat="42.56479" lon="-8.4666567"><ele>620.6</ele><time>2026-04-16T09:56:44.858Z</time></trkpt><trkpt lat="42.5647283" lon="-8.4665533"><ele>621.2</ele><time>2026-04-16T09:56:45.859Z</time></trkpt><trkpt lat="42.564665" lon="-8.466455"><ele>621.8</ele><time>2026-04-16T09:56:46.858Z</time></trkpt><trkpt lat="42.5646067" lon="-8.4663583"><ele>622.4</ele><time>2026-04-16T09:56:47.858Z</time></trkpt><trkpt lat="42.5645483" lon="-8.4662567"><ele>623.0</ele><time>2026-04-16T09:56:48.859Z</time></trkpt><trkpt lat="42.564485" lon="-8.4661467"><ele>618.0</ele><time>2026-04-16T09:56:49.858Z</time></trkpt><trkpt lat="42.56441" lon="-8.4660133"><ele>613.0</ele><time>2026-04-16T09:56:50.858Z</time></trkpt><trkpt lat="42.56434" lon="-8.465885"><ele>608.0</ele><time>2026-04-16T09:56:51.858Z</time></trkpt><trkpt lat="42.564255" lon="-8.46576"><ele>603.0</ele><time>2026-04-16T09:56:52.859Z</time></trkpt><trkpt lat="42.56417" lon="-8.4656433"><ele>603.0</ele><time>2026-04-16T09:56:53.859Z</time></trkpt><trkpt lat="42.5640883" lon="-8.4655383"><ele>603.0</ele><time>2026-04-16T09:56:54.859Z</time></trkpt><trkpt lat="42.56401" lon="-8.4654483"><ele>603.0</ele><time>2026-04-16T09:56:55.858Z</time></trkpt><trkpt lat="42.5639367" lon="-8.4653567"><ele>603.0</ele><time>2026-04-16T09:56:56.858Z</time></trkpt><trkpt lat="42.5638583" lon="-8.4652733"><ele>603.0</ele><time>2026-04-16T09:56:57.858Z</time></trkpt><trkpt lat="42.5637683" lon="-8.4651817"><ele>599.4</ele><time>2026-04-16T09:56:58.859Z</time></trkpt><trkpt lat="42.5636833" lon="-8.46511"><ele>595.8</ele><time>2026-04-16T09:56:59.858Z</time></trkpt><trkpt lat="42.5635933" lon="-8.4650417"><ele>592.2</ele><time>2026-04-16T09:57:00.859Z</time></trkpt><trkpt lat="42.5635117" lon="-8.46498"><ele>588.6</ele><time>2026-04-16T09:57:01.859Z</time></trkpt><trkpt lat="42.5634367" lon="-8.4649233"><ele>585.0</ele><time>2026-04-16T09:57:02.859Z</time></trkpt><trkpt lat="42.56337" lon="-8.4648733"><ele>585.0</ele><time>2026-04-16T09:57:03.858Z</time></trkpt><trkpt lat="42.5633033" lon="-8.4648367"><ele>585.0</ele><time>2026-04-16T09:57:04.859Z</time></trkpt><trkpt lat="42.56322" lon="-8.4648183"><ele>585.0</ele><time>2026-04-16T09:57:05.858Z</time></trkpt><trkpt lat="42.5631317" lon="-8.4648167"><ele>585.0</ele><time>2026-04-16T09:57:06.859Z</time></trkpt><trkpt lat="42.563055" lon="-8.4648383"><ele>585.0</ele><time>2026-04-16T09:57:07.858Z</time></trkpt><trkpt lat="42.56298" lon="-8.4648767"><ele>585.0</ele><time>2026-04-16T09:57:08.858Z</time></trkpt><trkpt lat="42.562905" lon="-8.4649267"><ele>582.0</ele><time>2026-04-16T09:57:09.858Z</time></trkpt><trkpt lat="42.5628283" lon="-8.465"><ele>579.0</ele><time>2026-04-16T09:57:10.859Z</time></trkpt><trkpt lat="42.5627633" lon="-8.4650917"><ele>576.0</ele><time>2026-04-16T09:57:11.859Z</time></trkpt><trkpt lat="42.562695" lon="-8.4651683"><ele>573.0</ele><time>2026-04-16T09:57:12.858Z</time></trkpt><trkpt lat="42.5626333" lon="-8.4652217"><ele>570.0</ele><time>2026-04-16T09:57:13.858Z</time></trkpt><trkpt lat="42.5625133" lon="-8.4652083"><ele>570.0</ele><time>2026-04-16T09:57:15.858Z</time></trkpt><trkpt lat="42.562435" lon="-8.4651583"><ele>570.0</ele><time>2026-04-16T09:57:16.858Z</time></trkpt><trkpt lat="42.5623567" lon="-8.465105"><ele>570.0</ele><time>2026-04-16T09:57:17.858Z</time></trkpt><trkpt lat="42.5622817" lon="-8.465065"><ele>570.0</ele><time>2026-04-16T09:57:18.859Z</time></trkpt><trkpt lat="42.5622083" lon="-8.4650267"><ele>570.0</ele><time>2026-04-16T09:57:19.858Z</time></trkpt><trkpt lat="42.5621467" lon="-8.4649917"><ele>570.0</ele><time>2026-04-16T09:57:20.859Z</time></trkpt><trkpt lat="42.562035" lon="-8.4649167"><ele>568.0</ele><time>2026-04-16T09:57:22.859Z</time></trkpt><trkpt lat="42.5619767" lon="-8.4648533"><ele>566.0</ele><time>2026-04-16T09:57:23.859Z</time></trkpt><trkpt lat="42.5619133" lon="-8.4647917"><ele>564.0</ele><time>2026-04-16T09:57:24.859Z</time></trkpt><trkpt lat="42.5618467" lon="-8.4647367"><ele>562.0</ele><time>2026-04-16T09:57:25.858Z</time></trkpt><trkpt lat="42.5617783" lon="-8.4646883"><ele>560.0</ele><time>2026-04-16T09:57:26.858Z</time></trkpt><trkpt lat="42.5617133" lon="-8.4646567"><ele>558.0</ele><time>2026-04-16T09:57:27.858Z</time></trkpt><trkpt lat="42.5616433" lon="-8.4646383"><ele>556.0</ele><time>2026-04-16T09:57:28.859Z</time></trkpt><trkpt lat="42.5615217" lon="-8.46466"><ele>556.0</ele><time>2026-04-16T09:57:30.859Z</time></trkpt><trkpt lat="42.56148" lon="-8.46476"><ele>556.0</ele><time>2026-04-16T09:57:32.859Z</time></trkpt><trkpt lat="42.5614717" lon="-8.46487"><ele>556.0</ele><time>2026-04-16T09:57:33.859Z</time></trkpt><trkpt lat="42.561475" lon="-8.46501"><ele>556.0</ele><time>2026-04-16T09:57:34.858Z</time></trkpt><trkpt lat="42.56148" lon="-8.4651633"><ele>556.0</ele><time>2026-04-16T09:57:35.858Z</time></trkpt><trkpt lat="42.561485" lon="-8.4653133"><ele>556.0</ele><time>2026-04-16T09:57:36.859Z</time></trkpt><trkpt lat="42.5614983" lon="-8.4654533"><ele>556.0</ele><time>2026-04-16T09:57:37.858Z</time></trkpt><trkpt lat="42.5615133" lon="-8.46559"><ele>556.0</ele><time>2026-04-16T09:57:38.858Z</time></trkpt><trkpt lat="42.5615167" lon="-8.465725"><ele>556.0</ele><time>2026-04-16T09:57:39.858Z</time></trkpt><trkpt lat="42.5615133" lon="-8.46585"><ele>556.0</ele><time>2026-04-16T09:57:40.859Z</time></trkpt><trkpt lat="42.561495" lon="-8.4659617"><ele>556.0</ele><time>2026-04-16T09:57:41.859Z</time></trkpt><trkpt lat="42.5614617" lon="-8.4660617"><ele>556.0</ele><time>2026-04-16T09:57:42.859Z</time></trkpt><trkpt lat="42.561405" lon="-8.4661517"><ele>556.0</ele><time>2026-04-16T09:57:43.858Z</time></trkpt><trkpt lat="42.5613433" lon="-8.4662483"><ele>556.0</ele><time>2026-04-16T09:57:44.858Z</time></trkpt><trkpt lat="42.561295" lon="-8.46636"><ele>556.0</ele><time>2026-04-16T09:57:45.858Z</time></trkpt><trkpt lat="42.56126" lon="-8.4664717"><ele>556.0</ele><time>2026-04-16T09:57:46.858Z</time></trkpt><trkpt lat="42.5612383" lon="-8.4666033"><ele>557.5</ele><time>2026-04-16T09:57:47.859Z</time></trkpt><trkpt lat="42.5612317" lon="-8.46677"><ele>559.0</ele><time>2026-04-16T09:57:48.858Z</time></trkpt><trkpt lat="42.5612267" lon="-8.46695"><ele>560.5</ele><time>2026-04-16T09:57:49.858Z</time></trkpt><trkpt lat="42.5612333" lon="-8.46712"><ele>562.0</ele><time>2026-04-16T09:57:50.859Z</time></trkpt><trkpt lat="42.5612517" lon="-8.467275"><ele>562.4</ele><time>2026-04-16T09:57:51.858Z</time></trkpt><trkpt lat="42.56128" lon="-8.4674033"><ele>562.8000000000001</ele><time>2026-04-16T09:57:52.859Z</time></trkpt><trkpt lat="42.5613233" lon="-8.4675267"><ele>563.2</ele><time>2026-04-16T09:57:53.858Z</time></trkpt><trkpt lat="42.5613817" lon="-8.4676367"><ele>563.6</ele><time>2026-04-16T09:57:54.858Z</time></trkpt><trkpt lat="42.5614233" lon="-8.4677333"><ele>564.0</ele><time>2026-04-16T09:57:55.859Z</time></trkpt><trkpt lat="42.5614133" lon="-8.4678917"><ele>564.75</ele><time>2026-04-16T09:57:57.858Z</time></trkpt><trkpt lat="42.56136" lon="-8.4679767"><ele>565.5</ele><time>2026-04-16T09:57:58.859Z</time></trkpt><trkpt lat="42.561285" lon="-8.4680817"><ele>566.25</ele><time>2026-04-16T09:57:59.858Z</time></trkpt><trkpt lat="42.561175" lon="-8.4682067"><ele>567.0</ele><time>2026-04-16T09:58:00.858Z</time></trkpt><trkpt lat="42.5610767" lon="-8.4683317"><ele>565.0</ele><time>2026-04-16T09:58:01.858Z</time></trkpt><trkpt lat="42.56101" lon="-8.46844"><ele>563.0</ele><time>2026-04-16T09:58:02.858Z</time></trkpt><trkpt lat="42.5609833" lon="-8.468545"><ele>561.0</ele><time>2026-04-16T09:58:03.859Z</time></trkpt><trkpt lat="42.5609917" lon="-8.468635"><ele>559.0</ele><time>2026-04-16T09:58:04.859Z</time></trkpt><trkpt lat="42.5610367" lon="-8.4687233"><ele>557.0</ele><time>2026-04-16T09:58:05.858Z</time></trkpt><trkpt lat="42.5611067" lon="-8.4688383"><ele>555.0</ele><time>2026-04-16T09:58:06.858Z</time></trkpt><trkpt lat="42.5611833" lon="-8.4690117"><ele>559.6666666666666</ele><time>2026-04-16T09:58:07.859Z</time></trkpt><trkpt lat="42.56125" lon="-8.469205"><ele>564.3333333333333</ele><time>2026-04-16T09:58:08.858Z</time></trkpt><trkpt lat="42.5613067" lon="-8.4693933"><ele>569.0</ele><time>2026-04-16T09:58:09.859Z</time></trkpt><trkpt lat="42.5613717" lon="-8.46957"><ele>569.5</ele><time>2026-04-16T09:58:10.858Z</time></trkpt><trkpt lat="42.56144" lon="-8.469755"><ele>570.0</ele><time>2026-04-16T09:58:11.859Z</time></trkpt><trkpt lat="42.561505" lon="-8.46991"><ele>570.5</ele><time>2026-04-16T09:58:12.859Z</time></trkpt><trkpt lat="42.5615367" lon="-8.4700433"><ele>571.0</ele><time>2026-04-16T09:58:13.859Z</time></trkpt><trkpt lat="42.5615333" lon="-8.470155"><ele>571.0</ele><time>2026-04-16T09:58:14.859Z</time></trkpt><trkpt lat="42.5615033" lon="-8.4702667"><ele>571.0</ele><time>2026-04-16T09:58:15.858Z</time></trkpt><trkpt lat="42.5614517" lon="-8.4703817"><ele>571.0</ele><time>2026-04-16T09:58:16.859Z</time></trkpt><trkpt lat="42.5613867" lon="-8.47051"><ele>571.0</ele><time>2026-04-16T09:58:17.859Z</time></trkpt><trkpt lat="42.561305" lon="-8.4706433"><ele>571.0</ele><time>2026-04-16T09:58:18.859Z</time></trkpt><trkpt lat="42.5612" lon="-8.4707733"><ele>567.4</ele><time>2026-04-16T09:58:19.858Z</time></trkpt><trkpt lat="42.5611117" lon="-8.470895"><ele>563.8</ele><time>2026-04-16T09:58:20.858Z</time></trkpt><trkpt lat="42.5610483" lon="-8.470985"><ele>560.1999999999999</ele><time>2026-04-16T09:58:21.858Z</time></trkpt><trkpt lat="42.56102" lon="-8.4710833"><ele>556.6</ele><time>2026-04-16T09:58:22.859Z</time></trkpt><trkpt lat="42.561025" lon="-8.4711917"><ele>553.0</ele><time>2026-04-16T09:58:23.858Z</time></trkpt><trkpt lat="42.5610567" lon="-8.471325"><ele>553.0</ele><time>2026-04-16T09:58:24.858Z</time></trkpt><trkpt lat="42.56111" lon="-8.47148"><ele>553.0</ele><time>2026-04-16T09:58:25.859Z</time></trkpt><trkpt lat="42.5611767" lon="-8.4716717"><ele>553.0</ele><time>2026-04-16T09:58:26.859Z</time></trkpt><trkpt lat="42.5612417" lon="-8.4718883"><ele>557.4</ele><time>2026-04-16T09:58:27.859Z</time></trkpt><trkpt lat="42.56129" lon="-8.472075"><ele>561.8</ele><time>2026-04-16T09:58:28.858Z</time></trkpt><trkpt lat="42.5613233" lon="-8.4722183"><ele>566.2</ele><time>2026-04-16T09:58:29.859Z</time></trkpt><trkpt lat="42.5613317" lon="-8.4723167"><ele>570.6</ele><time>2026-04-16T09:58:30.858Z</time></trkpt><trkpt lat="42.5612767" lon="-8.47246"><ele>575.0</ele><time>2026-04-16T09:58:32.858Z</time></trkpt><trkpt lat="42.5612083" lon="-8.47252"><ele>572.0</ele><time>2026-04-16T09:58:33.858Z</time></trkpt><trkpt lat="42.5611133" lon="-8.47256"><ele>569.0</ele><time>2026-04-16T09:58:34.859Z</time></trkpt><trkpt lat="42.5610217" lon="-8.47259"><ele>566.0</ele><time>2026-04-16T09:58:35.858Z</time></trkpt><trkpt lat="42.5609117" lon="-8.4725933"><ele>563.0</ele><time>2026-04-16T09:58:36.858Z</time></trkpt><trkpt lat="42.56082" lon="-8.472625"><ele>560.0</ele><time>2026-04-16T09:58:37.858Z</time></trkpt><trkpt lat="42.5607283" lon="-8.472685"><ele>560.0</ele><time>2026-04-16T09:58:38.859Z</time></trkpt><trkpt lat="42.560645" lon="-8.4727933"><ele>560.0</ele><time>2026-04-16T09:58:39.859Z</time></trkpt><trkpt lat="42.5605533" lon="-8.4729517"><ele>560.0</ele><time>2026-04-16T09:58:40.858Z</time></trkpt><trkpt lat="42.5604467" lon="-8.4731467"><ele>560.0</ele><time>2026-04-16T09:58:41.859Z</time></trkpt><trkpt lat="42.5603583" lon="-8.473315"><ele>558.8</ele><time>2026-04-16T09:58:42.858Z</time></trkpt><trkpt lat="42.5602783" lon="-8.4734667"><ele>557.6</ele><time>2026-04-16T09:58:43.858Z</time></trkpt><trkpt lat="42.5601917" lon="-8.4735667"><ele>556.4</ele><time>2026-04-16T09:58:44.858Z</time></trkpt><trkpt lat="42.5601167" lon="-8.473615"><ele>555.2</ele><time>2026-04-16T09:58:45.859Z</time></trkpt><trkpt lat="42.5600117" lon="-8.47359"><ele>554.0</ele><time>2026-04-16T09:58:47.858Z</time></trkpt><trkpt lat="42.5599383" lon="-8.4734583"><ele>554.0</ele><time>2026-04-16T09:58:49.859Z</time></trkpt><trkpt lat="42.5598933" lon="-8.47333"><ele>554.0</ele><time>2026-04-16T09:58:50.859Z</time></trkpt><trkpt lat="42.55984" lon="-8.4731583"><ele>554.0</ele><time>2026-04-16T09:58:51.858Z</time></trkpt><trkpt lat="42.559775" lon="-8.4729833"><ele>554.0</ele><time>2026-04-16T09:58:52.859Z</time></trkpt><trkpt lat="42.5597217" lon="-8.472835"><ele>552.0</ele><time>2026-04-16T09:58:53.859Z</time></trkpt><trkpt lat="42.55965" lon="-8.4727133"><ele>550.0</ele><time>2026-04-16T09:58:54.859Z</time></trkpt><trkpt lat="42.559575" lon="-8.4726317"><ele>548.0</ele><time>2026-04-16T09:58:55.859Z</time></trkpt><trkpt lat="42.55949" lon="-8.47259"><ele>546.0</ele><time>2026-04-16T09:58:56.858Z</time></trkpt><trkpt lat="42.559385" lon="-8.4725967"><ele>544.0</ele><time>2026-04-16T09:58:57.858Z</time></trkpt><trkpt lat="42.5592683" lon="-8.472645"><ele>544.25</ele><time>2026-04-16T09:58:58.859Z</time></trkpt><trkpt lat="42.5591433" lon="-8.4727483"><ele>544.5</ele><time>2026-04-16T09:58:59.859Z</time></trkpt><trkpt lat="42.559025" lon="-8.472845"><ele>544.75</ele><time>2026-04-16T09:59:00.858Z</time></trkpt><trkpt lat="42.558925" lon="-8.4729433"><ele>545.0</ele><time>2026-04-16T09:59:01.858Z</time></trkpt><trkpt lat="42.5588533" lon="-8.47307"><ele>545.0</ele><time>2026-04-16T09:59:02.859Z</time></trkpt><trkpt lat="42.558785" lon="-8.47322"><ele>545.0</ele><time>2026-04-16T09:59:03.858Z</time></trkpt><trkpt lat="42.5587217" lon="-8.4733817"><ele>545.0</ele><time>2026-04-16T09:59:04.859Z</time></trkpt><trkpt lat="42.5586683" lon="-8.473515"><ele>545.0</ele><time>2026-04-16T09:59:05.858Z</time></trkpt><trkpt lat="42.5586133" lon="-8.4736017"><ele>543.4</ele><time>2026-04-16T09:59:06.858Z</time></trkpt><trkpt lat="42.5585533" lon="-8.473635"><ele>541.8</ele><time>2026-04-16T09:59:07.859Z</time></trkpt><trkpt lat="42.558445" lon="-8.47356"><ele>540.2</ele><time>2026-04-16T09:59:09.859Z</time></trkpt><trkpt lat="42.558395" lon="-8.4734417"><ele>538.6</ele><time>2026-04-16T09:59:10.858Z</time></trkpt><trkpt lat="42.5583417" lon="-8.473285"><ele>537.0</ele><time>2026-04-16T09:59:11.858Z</time></trkpt><trkpt lat="42.55829" lon="-8.4731233"><ele>536.0</ele><time>2026-04-16T09:59:12.858Z</time></trkpt><trkpt lat="42.5582317" lon="-8.472935"><ele>535.0</ele><time>2026-04-16T09:59:13.859Z</time></trkpt><trkpt lat="42.5581817" lon="-8.4727783"><ele>534.0</ele><time>2026-04-16T09:59:14.859Z</time></trkpt><trkpt lat="42.5581233" lon="-8.4726583"><ele>533.0</ele><time>2026-04-16T09:59:15.859Z</time></trkpt><trkpt lat="42.5580617" lon="-8.4725833"><ele>533.0</ele><time>2026-04-16T09:59:16.858Z</time></trkpt><trkpt lat="42.5579867" lon="-8.4725417"><ele>533.0</ele><time>2026-04-16T09:59:17.858Z</time></trkpt><trkpt lat="42.5578933" lon="-8.47253"><ele>533.0</ele><time>2026-04-16T09:59:18.858Z</time></trkpt><trkpt lat="42.5577817" lon="-8.4725433"><ele>533.0</ele><time>2026-04-16T09:59:19.859Z</time></trkpt><trkpt lat="42.5576567" lon="-8.4726067"><ele>533.0</ele><time>2026-04-16T09:59:20.858Z</time></trkpt><trkpt lat="42.5575317" lon="-8.4726983"><ele>532.0</ele><time>2026-04-16T09:59:21.858Z</time></trkpt><trkpt lat="42.5574283" lon="-8.4728033"><ele>531.0</ele><time>2026-04-16T09:59:22.859Z</time></trkpt><trkpt lat="42.5573333" lon="-8.4729283"><ele>530.0</ele><time>2026-04-16T09:59:23.858Z</time></trkpt><trkpt lat="42.5572433" lon="-8.4730467"><ele>529.0</ele><time>2026-04-16T09:59:24.859Z</time></trkpt><trkpt lat="42.5571567" lon="-8.4731517"><ele>529.0</ele><time>2026-04-16T09:59:25.858Z</time></trkpt><trkpt lat="42.557065" lon="-8.47323"><ele>529.0</ele><time>2026-04-16T09:59:26.858Z</time></trkpt><trkpt lat="42.5569767" lon="-8.4732817"><ele>529.0</ele><time>2026-04-16T09:59:27.858Z</time></trkpt><trkpt lat="42.55689" lon="-8.4733017"><ele>529.0</ele><time>2026-04-16T09:59:28.858Z</time></trkpt><trkpt lat="42.5568167" lon="-8.4732833"><ele>529.0</ele><time>2026-04-16T09:59:29.859Z</time></trkpt><trkpt lat="42.55676" lon="-8.4732417"><ele>529.0</ele><time>2026-04-16T09:59:30.858Z</time></trkpt><trkpt lat="42.5566917" lon="-8.4730917"><ele>528.8</ele><time>2026-04-16T09:59:32.858Z</time></trkpt><trkpt lat="42.5566683" lon="-8.473"><ele>528.5999999999999</ele><time>2026-04-16T09:59:33.859Z</time></trkpt><trkpt lat="42.55665" lon="-8.4728883"><ele>528.4</ele><time>2026-04-16T09:59:34.858Z</time></trkpt><trkpt lat="42.5566317" lon="-8.47275"><ele>528.1999999999999</ele><time>2026-04-16T09:59:35.858Z</time></trkpt><trkpt lat="42.5566317" lon="-8.4725583"><ele>528.0</ele><time>2026-04-16T09:59:36.859Z</time></trkpt><trkpt lat="42.5566417" lon="-8.4723233"><ele>526.0</ele><time>2026-04-16T09:59:37.858Z</time></trkpt><trkpt lat="42.55667" lon="-8.4720133"><ele>524.0</ele><time>2026-04-16T09:59:38.859Z</time></trkpt><trkpt lat="42.5566817" lon="-8.471765"><ele>522.0</ele><time>2026-04-16T09:59:39.858Z</time></trkpt><trkpt lat="42.5566883" lon="-8.4715167"><ele>520.6666666666666</ele><time>2026-04-16T09:59:40.858Z</time></trkpt><trkpt lat="42.5567183" lon="-8.47126"><ele>519.3333333333333</ele><time>2026-04-16T09:59:41.858Z</time></trkpt><trkpt lat="42.5567483" lon="-8.47103"><ele>518.0</ele><time>2026-04-16T09:59:42.859Z</time></trkpt><trkpt lat="42.5567817" lon="-8.4708117"><ele>518.0</ele><time>2026-04-16T09:59:43.858Z</time></trkpt><trkpt lat="42.5568233" lon="-8.4706183"><ele>518.0</ele><time>2026-04-16T09:59:44.859Z</time></trkpt><trkpt lat="42.5568733" lon="-8.47044"><ele>518.0</ele><time>2026-04-16T09:59:45.859Z</time></trkpt><trkpt lat="42.5568983" lon="-8.4702867"><ele>518.0</ele><time>2026-04-16T09:59:46.858Z</time></trkpt><trkpt lat="42.556905" lon="-8.4701233"><ele>517.25</ele><time>2026-04-16T09:59:47.858Z</time></trkpt><trkpt lat="42.55689" lon="-8.469955"><ele>516.5</ele><time>2026-04-16T09:59:48.859Z</time></trkpt><trkpt lat="42.5568583" lon="-8.4697717"><ele>515.75</ele><time>2026-04-16T09:59:49.859Z</time></trkpt><trkpt lat="42.5568317" lon="-8.46958"><ele>515.0</ele><time>2026-04-16T09:59:50.858Z</time></trkpt><trkpt lat="42.5567933" lon="-8.4694233"><ele>512.8333333333333</ele><time>2026-04-16T09:59:51.859Z</time></trkpt><trkpt lat="42.5567533" lon="-8.4692917"><ele>510.66666666666663</ele><time>2026-04-16T09:59:52.858Z</time></trkpt><trkpt lat="42.5567083" lon="-8.4692117"><ele>508.5</ele><time>2026-04-16T09:59:53.858Z</time></trkpt><trkpt lat="42.5566533" lon="-8.4691517"><ele>506.33333333333337</ele><time>2026-04-16T09:59:54.858Z</time></trkpt><trkpt lat="42.556585" lon="-8.4691133"><ele>504.1666666666667</ele><time>2026-04-16T09:59:55.859Z</time></trkpt><trkpt lat="42.55651" lon="-8.4690683"><ele>502.0</ele><time>2026-04-16T09:59:56.859Z</time></trkpt><trkpt lat="42.5563967" lon="-8.4690217"><ele>502.0</ele><time>2026-04-16T09:59:57.858Z</time></trkpt><trkpt lat="42.5562683" lon="-8.4689667"><ele>502.00000000000006</ele><time>2026-04-16T09:59:58.859Z</time></trkpt><trkpt lat="42.556145" lon="-8.4689033"><ele>502.00000000000006</ele><time>2026-04-16T09:59:59.858Z</time></trkpt><trkpt lat="42.5560717" lon="-8.468845"><ele>502.0</ele><time>2026-04-16T10:00:00.858Z</time></trkpt><trkpt lat="42.5560217" lon="-8.4687767"><ele>502.0</ele><time>2026-04-16T10:00:01.858Z</time></trkpt><trkpt lat="42.555985" lon="-8.4687017"><ele>502.0</ele><time>2026-04-16T10:00:02.859Z</time></trkpt><trkpt lat="42.5559767" lon="-8.468595"><ele>502.0</ele><time>2026-04-16T10:00:03.859Z</time></trkpt><trkpt lat="42.55598" lon="-8.46845"><ele>502.0</ele><time>2026-04-16T10:00:04.858Z</time></trkpt><trkpt lat="42.556005" lon="-8.46823"><ele>502.0</ele><time>2026-04-16T10:00:05.859Z</time></trkpt><trkpt lat="42.5560117" lon="-8.4679667"><ele>502.75</ele><time>2026-04-16T10:00:06.859Z</time></trkpt><trkpt lat="42.555995" lon="-8.467755"><ele>503.5</ele><time>2026-04-16T10:00:07.859Z</time></trkpt><trkpt lat="42.55597" lon="-8.467565"><ele>504.25</ele><time>2026-04-16T10:00:08.859Z</time></trkpt><trkpt lat="42.55592" lon="-8.4673867"><ele>505.0</ele><time>2026-04-16T10:00:09.859Z</time></trkpt><trkpt lat="42.55586" lon="-8.46721"><ele>505.2</ele><time>2026-04-16T10:00:10.858Z</time></trkpt><trkpt lat="42.5558133" lon="-8.467045"><ele>505.4</ele><time>2026-04-16T10:00:11.858Z</time></trkpt><trkpt lat="42.5557883" lon="-8.4669083"><ele>505.6</ele><time>2026-04-16T10:00:12.859Z</time></trkpt><trkpt lat="42.555805" lon="-8.4668167"><ele>505.8</ele><time>2026-04-16T10:00:13.858Z</time></trkpt><trkpt lat="42.555935" lon="-8.4667467"><ele>506.0</ele><time>2026-04-16T10:00:15.858Z</time></trkpt><trkpt lat="42.5560383" lon="-8.4667483"><ele>506.0</ele><time>2026-04-16T10:00:16.858Z</time></trkpt><trkpt lat="42.5561567" lon="-8.4667667"><ele>506.0</ele><time>2026-04-16T10:00:17.858Z</time></trkpt><trkpt lat="42.55628" lon="-8.4667783"><ele>506.0</ele><time>2026-04-16T10:00:18.858Z</time></trkpt><trkpt lat="42.5563833" lon="-8.4667683"><ele>506.0</ele><time>2026-04-16T10:00:19.858Z</time></trkpt><trkpt lat="42.5564467" lon="-8.46673"><ele>506.0</ele><time>2026-04-16T10:00:20.858Z</time></trkpt><trkpt lat="42.5564917" lon="-8.4666517"><ele>504.6</ele><time>2026-04-16T10:00:21.858Z</time></trkpt><trkpt lat="42.5565117" lon="-8.4665583"><ele>503.20000000000005</ele><time>2026-04-16T10:00:22.859Z</time></trkpt><trkpt lat="42.5565217" lon="-8.466445"><ele>501.79999999999995</ele><time>2026-04-16T10:00:23.859Z</time></trkpt><trkpt lat="42.55654" lon="-8.4662983"><ele>500.4</ele><time>2026-04-16T10:00:24.859Z</time></trkpt><trkpt lat="42.5565167" lon="-8.4660867"><ele>499.0</ele><time>2026-04-16T10:00:25.859Z</time></trkpt><trkpt lat="42.5564717" lon="-8.4658167"><ele>499.0</ele><time>2026-04-16T10:00:26.859Z</time></trkpt><trkpt lat="42.5564217" lon="-8.465615"><ele>499.0</ele><time>2026-04-16T10:00:27.859Z</time></trkpt><trkpt lat="42.5563817" lon="-8.465425"><ele>499.0</ele><time>2026-04-16T10:00:28.859Z</time></trkpt><trkpt lat="42.5563167" lon="-8.465235"><ele>495.0</ele><time>2026-04-16T10:00:29.858Z</time></trkpt><trkpt lat="42.5562333" lon="-8.46506"><ele>491.0</ele><time>2026-04-16T10:00:30.858Z</time></trkpt><trkpt lat="42.55615" lon="-8.4648633"><ele>487.0</ele><time>2026-04-16T10:00:31.859Z</time></trkpt><trkpt lat="42.5560617" lon="-8.4646483"><ele>492.6666666666667</ele><time>2026-04-16T10:00:32.859Z</time></trkpt><trkpt lat="42.5559683" lon="-8.4644367"><ele>498.33333333333337</ele><time>2026-04-16T10:00:33.858Z</time></trkpt><trkpt lat="42.5558717" lon="-8.4642517"><ele>504.0</ele><time>2026-04-16T10:00:34.858Z</time></trkpt><trkpt lat="42.555765" lon="-8.4640867"><ele>504.0</ele><time>2026-04-16T10:00:35.858Z</time></trkpt><trkpt lat="42.5556433" lon="-8.4639433"><ele>504.0</ele><time>2026-04-16T10:00:36.858Z</time></trkpt><trkpt lat="42.5555267" lon="-8.4638217"><ele>504.0</ele><time>2026-04-16T10:00:37.859Z</time></trkpt><trkpt lat="42.555435" lon="-8.4637183"><ele>504.0</ele><time>2026-04-16T10:00:38.858Z</time></trkpt><trkpt lat="42.5553633" lon="-8.46362"><ele>502.5</ele><time>2026-04-16T10:00:39.859Z</time></trkpt><trkpt lat="42.5553233" lon="-8.4635067"><ele>501.0</ele><time>2026-04-16T10:00:40.859Z</time></trkpt><trkpt lat="42.5553167" lon="-8.4633633"><ele>499.5</ele><time>2026-04-16T10:00:41.858Z</time></trkpt><trkpt lat="42.5553583" lon="-8.46319"><ele>498.0</ele><time>2026-04-16T10:00:42.859Z</time></trkpt><trkpt lat="42.5554217" lon="-8.4629933"><ele>498.0</ele><time>2026-04-16T10:00:43.859Z</time></trkpt><trkpt lat="42.55551" lon="-8.4627967"><ele>498.0</ele><time>2026-04-16T10:00:44.859Z</time></trkpt><trkpt lat="42.555595" lon="-8.4625983"><ele>498.0</ele><time>2026-04-16T10:00:45.858Z</time></trkpt><trkpt lat="42.5556717" lon="-8.4624067"><ele>498.0</ele><time>2026-04-16T10:00:46.858Z</time></trkpt><trkpt lat="42.555715" lon="-8.4622383"><ele>497.99999999999994</ele><time>2026-04-16T10:00:47.859Z</time></trkpt><trkpt lat="42.5557317" lon="-8.462105"><ele>497.99999999999994</ele><time>2026-04-16T10:00:48.859Z</time></trkpt><trkpt lat="42.55572" lon="-8.4619783"><ele>498.0</ele><time>2026-04-16T10:00:49.858Z</time></trkpt><trkpt lat="42.5556767" lon="-8.4618433"><ele>498.0</ele><time>2026-04-16T10:00:50.859Z</time></trkpt><trkpt lat="42.555605" lon="-8.4617033"><ele>497.5</ele><time>2026-04-16T10:00:51.858Z</time></trkpt><trkpt lat="42.5555183" lon="-8.4615617"><ele>497.0</ele><time>2026-04-16T10:00:52.858Z</time></trkpt><trkpt lat="42.555435" lon="-8.461435"><ele>496.5</ele><time>2026-04-16T10:00:53.859Z</time></trkpt><trkpt lat="42.555375" lon="-8.4613067"><ele>496.0</ele><time>2026-04-16T10:00:54.858Z</time></trkpt><trkpt lat="42.5553367" lon="-8.4611783"><ele>495.0</ele><time>2026-04-16T10:00:55.859Z</time></trkpt><trkpt lat="42.5553217" lon="-8.4610267"><ele>494.0</ele><time>2026-04-16T10:00:56.858Z</time></trkpt><trkpt lat="42.5553183" lon="-8.460855"><ele>493.0</ele><time>2026-04-16T10:00:57.858Z</time></trkpt><trkpt lat="42.555315" lon="-8.4606783"><ele>492.0</ele><time>2026-04-16T10:00:58.859Z</time></trkpt><trkpt lat="42.5553117" lon="-8.4605083"><ele>489.5</ele><time>2026-04-16T10:00:59.858Z</time></trkpt><trkpt lat="42.5553" lon="-8.46036"><ele>487.0</ele><time>2026-04-16T10:01:00.858Z</time></trkpt><trkpt lat="42.55527" lon="-8.4602317"><ele>484.5</ele><time>2026-04-16T10:01:01.859Z</time></trkpt><trkpt lat="42.555215" lon="-8.4601483"><ele>482.0</ele><time>2026-04-16T10:01:02.858Z</time></trkpt><trkpt lat="42.55515" lon="-8.46011"><ele>479.5</ele><time>2026-04-16T10:01:03.859Z</time></trkpt><trkpt lat="42.5550783" lon="-8.4600967"><ele>477.0</ele><time>2026-04-16T10:01:04.858Z</time></trkpt><trkpt lat="42.5549933" lon="-8.460095"><ele>477.0</ele><time>2026-04-16T10:01:05.859Z</time></trkpt><trkpt lat="42.5548833" lon="-8.4601033"><ele>477.0</ele><time>2026-04-16T10:01:06.858Z</time></trkpt><trkpt lat="42.554765" lon="-8.4600867"><ele>477.0</ele><time>2026-04-16T10:01:07.859Z</time></trkpt><trkpt lat="42.5546317" lon="-8.4600633"><ele>477.0</ele><time>2026-04-16T10:01:08.858Z</time></trkpt><trkpt lat="42.554505" lon="-8.4600383"><ele>476.1666666666667</ele><time>2026-04-16T10:01:09.859Z</time></trkpt><trkpt lat="42.5544067" lon="-8.46001"><ele>475.33333333333337</ele><time>2026-04-16T10:01:10.858Z</time></trkpt><trkpt lat="42.5543267" lon="-8.4599917"><ele>474.5</ele><time>2026-04-16T10:01:11.858Z</time></trkpt><trkpt lat="42.55426" lon="-8.4600117"><ele>473.6666666666667</ele><time>2026-04-16T10:01:12.859Z</time></trkpt><trkpt lat="42.5542" lon="-8.460045"><ele>472.83333333333337</ele><time>2026-04-16T10:01:13.858Z</time></trkpt><trkpt lat="42.5541367" lon="-8.460115"><ele>472.0</ele><time>2026-04-16T10:01:14.859Z</time></trkpt><trkpt lat="42.5540667" lon="-8.4601867"><ele>472.00000000000006</ele><time>2026-04-16T10:01:15.859Z</time></trkpt><trkpt lat="42.5539833" lon="-8.460245"><ele>472.0</ele><time>2026-04-16T10:01:16.858Z</time></trkpt><trkpt lat="42.553915" lon="-8.4602767"><ele>472.0</ele><time>2026-04-16T10:01:17.858Z</time></trkpt><trkpt lat="42.55385" lon="-8.4602633"><ele>472.0</ele><time>2026-04-16T10:01:18.859Z</time></trkpt><trkpt lat="42.5537883" lon="-8.4602117"><ele>472.00000000000006</ele><time>2026-04-16T10:01:19.858Z</time></trkpt><trkpt lat="42.55373" lon="-8.4601333"><ele>472.0</ele><time>2026-04-16T10:01:20.858Z</time></trkpt><trkpt lat="42.55368" lon="-8.4600483"><ele>470.6666666666667</ele><time>2026-04-16T10:01:21.858Z</time></trkpt><trkpt lat="42.5535867" lon="-8.46004"><ele>469.33333333333337</ele><time>2026-04-16T10:01:23.859Z</time></trkpt><trkpt lat="42.5535283" lon="-8.460095"><ele>468.0</ele><time>2026-04-16T10:01:24.859Z</time></trkpt><trkpt lat="42.5534533" lon="-8.4601833"><ele>466.66666666666663</ele><time>2026-04-16T10:01:25.859Z</time></trkpt><trkpt lat="42.553385" lon="-8.46023"><ele>465.3333333333333</ele><time>2026-04-16T10:01:26.859Z</time></trkpt><trkpt lat="42.5533183" lon="-8.460225"><ele>464.0</ele><time>2026-04-16T10:01:27.858Z</time></trkpt><trkpt lat="42.5532583" lon="-8.4601883"><ele>463.99999999999994</ele><time>2026-04-16T10:01:28.859Z</time></trkpt><trkpt lat="42.5531967" lon="-8.4601417"><ele>464.0</ele><time>2026-04-16T10:01:29.858Z</time></trkpt><trkpt lat="42.5531367" lon="-8.4600817"><ele>464.0</ele><time>2026-04-16T10:01:30.858Z</time></trkpt><trkpt lat="42.5530817" lon="-8.4600067"><ele>464.0</ele><time>2026-04-16T10:01:31.858Z</time></trkpt><trkpt lat="42.55302" lon="-8.45994"><ele>463.99999999999994</ele><time>2026-04-16T10:01:32.858Z</time></trkpt><trkpt lat="42.552965" lon="-8.4598833"><ele>464.0</ele><time>2026-04-16T10:01:33.858Z</time></trkpt><trkpt lat="42.552845" lon="-8.4598233"><ele>464.16666666666663</ele><time>2026-04-16T10:01:35.859Z</time></trkpt><trkpt lat="42.55277" lon="-8.459825"><ele>464.3333333333333</ele><time>2026-04-16T10:01:36.859Z</time></trkpt><trkpt lat="42.552685" lon="-8.4598467"><ele>464.5</ele><time>2026-04-16T10:01:37.858Z</time></trkpt><trkpt lat="42.5526067" lon="-8.45988"><ele>464.66666666666663</ele><time>2026-04-16T10:01:38.859Z</time></trkpt><trkpt lat="42.5525233" lon="-8.4598933"><ele>464.8333333333333</ele><time>2026-04-16T10:01:39.858Z</time></trkpt><trkpt lat="42.55244" lon="-8.4598967"><ele>465.0</ele><time>2026-04-16T10:01:40.859Z</time></trkpt><trkpt lat="42.5523567" lon="-8.45991"><ele>465.0</ele><time>2026-04-16T10:01:41.858Z</time></trkpt><trkpt lat="42.5522867" lon="-8.45995"><ele>465.0</ele><time>2026-04-16T10:01:42.859Z</time></trkpt><trkpt lat="42.5521867" lon="-8.46"><ele>465.0</ele><time>2026-04-16T10:01:44.859Z</time></trkpt><trkpt lat="42.5521233" lon="-8.4600017"><ele>465.0</ele><time>2026-04-16T10:01:46.859Z</time></trkpt><trkpt lat="42.5521933" lon="-8.4599683"><ele>465.0</ele><time>2026-04-16T10:01:49.859Z</time></trkpt><trkpt lat="42.5523483" lon="-8.4599467"><ele>465.0</ele><time>2026-04-16T10:01:51.859Z</time></trkpt><trkpt lat="42.55247" lon="-8.45993"><ele>465.0</ele><time>2026-04-16T10:01:52.86Z</time></trkpt><trkpt lat="42.5525933" lon="-8.4598967"><ele>465.0</ele><time>2026-04-16T10:01:53.859Z</time></trkpt><trkpt lat="42.5527017" lon="-8.4598367"><ele>465.0</ele><time>2026-04-16T10:01:54.859Z</time></trkpt><trkpt lat="42.55279" lon="-8.45978"><ele>464.8333333333333</ele><time>2026-04-16T10:01:55.86Z</time></trkpt><trkpt lat="42.5528767" lon="-8.4597517"><ele>464.66666666666663</ele><time>2026-04-16T10:01:56.86Z</time></trkpt><trkpt lat="42.5529517" lon="-8.4597583"><ele>464.5</ele><time>2026-04-16T10:01:57.859Z</time></trkpt><trkpt lat="42.5530233" lon="-8.4598"><ele>464.3333333333333</ele><time>2026-04-16T10:01:58.86Z</time></trkpt><trkpt lat="42.55309" lon="-8.4598717"><ele>464.16666666666663</ele><time>2026-04-16T10:01:59.86Z</time></trkpt><trkpt lat="42.5531583" lon="-8.4599533"><ele>464.0</ele><time>2026-04-16T10:02:00.859Z</time></trkpt><trkpt lat="42.5532267" lon="-8.460055"><ele>464.0</ele><time>2026-04-16T10:02:01.86Z</time></trkpt><trkpt lat="42.5532933" lon="-8.4601417"><ele>464.0</ele><time>2026-04-16T10:02:02.859Z</time></trkpt><trkpt lat="42.5533567" lon="-8.4601983"><ele>464.0</ele><time>2026-04-16T10:02:03.86Z</time></trkpt><trkpt lat="42.5534783" lon="-8.4601767"><ele>464.0</ele><time>2026-04-16T10:02:05.86Z</time></trkpt><trkpt lat="42.5535383" lon="-8.4601083"><ele>464.0</ele><time>2026-04-16T10:02:06.86Z</time></trkpt><trkpt lat="42.5536117" lon="-8.4600267"><ele>464.0</ele><time>2026-04-16T10:02:07.859Z</time></trkpt><trkpt lat="42.553685" lon="-8.4599633"><ele>464.0</ele><time>2026-04-16T10:02:08.859Z</time></trkpt><trkpt lat="42.5537567" lon="-8.4598867"><ele>464.0</ele><time>2026-04-16T10:02:09.86Z</time></trkpt><trkpt lat="42.5538317" lon="-8.45979"><ele>464.0</ele><time>2026-04-16T10:02:10.859Z</time></trkpt><trkpt lat="42.5538967" lon="-8.45967"><ele>464.0</ele><time>2026-04-16T10:02:11.86Z</time></trkpt><trkpt lat="42.5539533" lon="-8.459555"><ele>462.66666666666663</ele><time>2026-04-16T10:02:12.86Z</time></trkpt><trkpt lat="42.5540067" lon="-8.4594583"><ele>461.3333333333333</ele><time>2026-04-16T10:02:13.86Z</time></trkpt><trkpt lat="42.5540683" lon="-8.4593717"><ele>460.0</ele><time>2026-04-16T10:02:14.86Z</time></trkpt><trkpt lat="42.55413" lon="-8.4593183"><ele>458.66666666666663</ele><time>2026-04-16T10:02:15.859Z</time></trkpt><trkpt lat="42.5541917" lon="-8.45929"><ele>457.3333333333333</ele><time>2026-04-16T10:02:16.859Z</time></trkpt><trkpt lat="42.5542567" lon="-8.4592683"><ele>456.0</ele><time>2026-04-16T10:02:17.859Z</time></trkpt><trkpt lat="42.5543233" lon="-8.4592517"><ele>456.0</ele><time>2026-04-16T10:02:18.86Z</time></trkpt><trkpt lat="42.554395" lon="-8.4592533"><ele>456.0</ele><time>2026-04-16T10:02:19.859Z</time></trkpt><trkpt lat="42.554475" lon="-8.459255"><ele>456.0</ele><time>2026-04-16T10:02:20.859Z</time></trkpt><trkpt lat="42.55456" lon="-8.4592633"><ele>456.0</ele><time>2026-04-16T10:02:21.859Z</time></trkpt><trkpt lat="42.55465" lon="-8.4592833"><ele>456.0</ele><time>2026-04-16T10:02:22.86Z</time></trkpt><trkpt lat="42.5547317" lon="-8.4593117"><ele>456.0</ele><time>2026-04-16T10:02:23.86Z</time></trkpt><trkpt lat="42.554805" lon="-8.4593283"><ele>456.0</ele><time>2026-04-16T10:02:24.859Z</time></trkpt><trkpt lat="42.55489" lon="-8.4593183"><ele>456.0</ele><time>2026-04-16T10:02:25.859Z</time></trkpt><trkpt lat="42.5549867" lon="-8.459295"><ele>456.0</ele><time>2026-04-16T10:02:26.859Z</time></trkpt><trkpt lat="42.5551033" lon="-8.459295"><ele>456.0</ele><time>2026-04-16T10:02:27.859Z</time></trkpt><trkpt lat="42.55523" lon="-8.4593117"><ele>456.0</ele><time>2026-04-16T10:02:28.859Z</time></trkpt><trkpt lat="42.555355" lon="-8.4593233"><ele>456.75</ele><time>2026-04-16T10:02:29.86Z</time></trkpt><trkpt lat="42.5554933" lon="-8.45933"><ele>457.5</ele><time>2026-04-16T10:02:30.859Z</time></trkpt><trkpt lat="42.5556217" lon="-8.45934"><ele>458.25</ele><time>2026-04-16T10:02:31.86Z</time></trkpt><trkpt lat="42.5557317" lon="-8.4593417"><ele>459.0</ele><time>2026-04-16T10:02:32.859Z</time></trkpt><trkpt lat="42.5558217" lon="-8.4593083"><ele>459.0</ele><time>2026-04-16T10:02:33.859Z</time></trkpt><trkpt lat="42.555925" lon="-8.45924"><ele>459.0</ele><time>2026-04-16T10:02:34.859Z</time></trkpt><trkpt lat="42.5560367" lon="-8.4591483"><ele>459.0</ele><time>2026-04-16T10:02:35.86Z</time></trkpt><trkpt lat="42.5561417" lon="-8.4590467"><ele>459.0</ele><time>2026-04-16T10:02:36.859Z</time></trkpt><trkpt lat="42.55625" lon="-8.45893"><ele>459.0</ele><time>2026-04-16T10:02:37.86Z</time></trkpt><trkpt lat="42.5563583" lon="-8.4587883"><ele>459.0</ele><time>2026-04-16T10:02:38.86Z</time></trkpt><trkpt lat="42.5564717" lon="-8.45867"><ele>459.0</ele><time>2026-04-16T10:02:39.86Z</time></trkpt><trkpt lat="42.5565867" lon="-8.4585617"><ele>459.0</ele><time>2026-04-16T10:02:40.86Z</time></trkpt><trkpt lat="42.5567133" lon="-8.4584883"><ele>457.79999999999995</ele><time>2026-04-16T10:02:41.859Z</time></trkpt><trkpt lat="42.5568333" lon="-8.4584333"><ele>456.59999999999997</ele><time>2026-04-16T10:02:42.86Z</time></trkpt><trkpt lat="42.556935" lon="-8.458405"><ele>455.4</ele><time>2026-04-16T10:02:43.86Z</time></trkpt><trkpt lat="42.5570067" lon="-8.4583583"><ele>454.2</ele><time>2026-04-16T10:02:44.86Z</time></trkpt><trkpt lat="42.5570633" lon="-8.4582583"><ele>453.0</ele><time>2026-04-16T10:02:45.86Z</time></trkpt><trkpt lat="42.5571233" lon="-8.4581217"><ele>452.2</ele><time>2026-04-16T10:02:46.859Z</time></trkpt><trkpt lat="42.5571933" lon="-8.45798"><ele>451.4</ele><time>2026-04-16T10:02:47.859Z</time></trkpt><trkpt lat="42.557265" lon="-8.4578667"><ele>450.59999999999997</ele><time>2026-04-16T10:02:48.859Z</time></trkpt><trkpt lat="42.5573433" lon="-8.4577783"><ele>449.79999999999995</ele><time>2026-04-16T10:02:49.859Z</time></trkpt><trkpt lat="42.557425" lon="-8.4577033"><ele>449.0</ele><time>2026-04-16T10:02:50.86Z</time></trkpt><trkpt lat="42.5574967" lon="-8.4576417"><ele>448.8333333333333</ele><time>2026-04-16T10:02:51.859Z</time></trkpt><trkpt lat="42.5575667" lon="-8.4575767"><ele>448.66666666666663</ele><time>2026-04-16T10:02:52.86Z</time></trkpt><trkpt lat="42.5576283" lon="-8.4575383"><ele>448.5</ele><time>2026-04-16T10:02:53.86Z</time></trkpt><trkpt lat="42.557675" lon="-8.4574167"><ele>448.33333333333337</ele><time>2026-04-16T10:02:55.859Z</time></trkpt><trkpt lat="42.5576717" lon="-8.4572433"><ele>448.1666666666667</ele><time>2026-04-16T10:02:57.859Z</time></trkpt><trkpt lat="42.5576517" lon="-8.4571567"><ele>448.0</ele><time>2026-04-16T10:02:58.859Z</time></trkpt><trkpt lat="42.5575917" lon="-8.4570067"><ele>445.0</ele><time>2026-04-16T10:03:00.86Z</time></trkpt><trkpt lat="42.5575567" lon="-8.4569183"><ele>441.99999999999994</ele><time>2026-04-16T10:03:01.86Z</time></trkpt><trkpt lat="42.55749" lon="-8.45687"><ele>438.99999999999994</ele><time>2026-04-16T10:03:02.86Z</time></trkpt><trkpt lat="42.5574133" lon="-8.4568433"><ele>436.0</ele><time>2026-04-16T10:03:03.859Z</time></trkpt><trkpt lat="42.5573117" lon="-8.4568383"><ele>433.0</ele><time>2026-04-16T10:03:04.859Z</time></trkpt><trkpt lat="42.5571883" lon="-8.4568567"><ele>433.0</ele><time>2026-04-16T10:03:05.859Z</time></trkpt><trkpt lat="42.55705" lon="-8.4568817"><ele>433.0</ele><time>2026-04-16T10:03:06.86Z</time></trkpt><trkpt lat="42.5569267" lon="-8.4569067"><ele>433.0</ele><time>2026-04-16T10:03:07.859Z</time></trkpt><trkpt lat="42.556815" lon="-8.4569267"><ele>433.0</ele><time>2026-04-16T10:03:08.859Z</time></trkpt><trkpt lat="42.5567133" lon="-8.4569333"><ele>431.1666666666667</ele><time>2026-04-16T10:03:09.86Z</time></trkpt><trkpt lat="42.5566233" lon="-8.45694"><ele>429.33333333333337</ele><time>2026-04-16T10:03:10.859Z</time></trkpt><trkpt lat="42.5565467" lon="-8.456945"><ele>427.5</ele><time>2026-04-16T10:03:11.859Z</time></trkpt><trkpt lat="42.556475" lon="-8.4569417"><ele>425.66666666666663</ele><time>2026-04-16T10:03:12.859Z</time></trkpt><trkpt lat="42.556405" lon="-8.456925"><ele>423.8333333333333</ele><time>2026-04-16T10:03:13.86Z</time></trkpt><trkpt lat="42.5563283" lon="-8.4568883"><ele>422.0</ele><time>2026-04-16T10:03:14.859Z</time></trkpt><trkpt lat="42.5562367" lon="-8.4568267"><ele>421.5</ele><time>2026-04-16T10:03:15.859Z</time></trkpt><trkpt lat="42.5561417" lon="-8.45672"><ele>421.0</ele><time>2026-04-16T10:03:16.86Z</time></trkpt><trkpt lat="42.5560367" lon="-8.4566067"><ele>420.5</ele><time>2026-04-16T10:03:17.86Z</time></trkpt><trkpt lat="42.5559417" lon="-8.4565033"><ele>420.0</ele><time>2026-04-16T10:03:18.86Z</time></trkpt><trkpt lat="42.5558617" lon="-8.4564083"><ele>420.0</ele><time>2026-04-16T10:03:19.859Z</time></trkpt><trkpt lat="42.555785" lon="-8.456325"><ele>420.0</ele><time>2026-04-16T10:03:20.859Z</time></trkpt><trkpt lat="42.5557183" lon="-8.4562533"><ele>420.0</ele><time>2026-04-16T10:03:21.86Z</time></trkpt><trkpt lat="42.55566" lon="-8.4561917"><ele>420.0</ele><time>2026-04-16T10:03:22.859Z</time></trkpt><trkpt lat="42.5555967" lon="-8.4561417"><ele>420.0</ele><time>2026-04-16T10:03:23.86Z</time></trkpt><trkpt lat="42.5555033" lon="-8.4561167"><ele>420.0</ele><time>2026-04-16T10:03:24.86Z</time></trkpt><trkpt lat="42.5553917" lon="-8.4561083"><ele>416.6</ele><time>2026-04-16T10:03:25.859Z</time></trkpt><trkpt lat="42.55526" lon="-8.4561083"><ele>413.2</ele><time>2026-04-16T10:03:26.859Z</time></trkpt><trkpt lat="42.5551433" lon="-8.456095"><ele>409.79999999999995</ele><time>2026-04-16T10:03:27.859Z</time></trkpt><trkpt lat="42.5550567" lon="-8.4560667"><ele>406.4</ele><time>2026-04-16T10:03:28.86Z</time></trkpt><trkpt lat="42.5549867" lon="-8.4560317"><ele>403.0</ele><time>2026-04-16T10:03:29.859Z</time></trkpt><trkpt lat="42.5549317" lon="-8.455985"><ele>403.00000000000006</ele><time>2026-04-16T10:03:30.86Z</time></trkpt><trkpt lat="42.5548783" lon="-8.4559167"><ele>403.0</ele><time>2026-04-16T10:03:31.859Z</time></trkpt><trkpt lat="42.5548217" lon="-8.455845"><ele>403.0</ele><time>2026-04-16T10:03:32.859Z</time></trkpt><trkpt lat="42.55476" lon="-8.4557733"><ele>403.0</ele><time>2026-04-16T10:03:33.86Z</time></trkpt><trkpt lat="42.5546867" lon="-8.4557417"><ele>403.00000000000006</ele><time>2026-04-16T10:03:34.86Z</time></trkpt><trkpt lat="42.554605" lon="-8.4557267"><ele>403.0</ele><time>2026-04-16T10:03:35.859Z</time></trkpt><trkpt lat="42.55453" lon="-8.455725"><ele>403.2</ele><time>2026-04-16T10:03:36.859Z</time></trkpt><trkpt lat="42.5544483" lon="-8.455705"><ele>403.4</ele><time>2026-04-16T10:03:37.859Z</time></trkpt><trkpt lat="42.554355" lon="-8.455605"><ele>403.59999999999997</ele><time>2026-04-16T10:03:39.86Z</time></trkpt><trkpt lat="42.554315" lon="-8.4555067"><ele>403.79999999999995</ele><time>2026-04-16T10:03:40.86Z</time></trkpt><trkpt lat="42.5542833" lon="-8.4553667"><ele>404.0</ele><time>2026-04-16T10:03:41.859Z</time></trkpt><trkpt lat="42.5542483" lon="-8.4552217"><ele>403.4</ele><time>2026-04-16T10:03:42.859Z</time></trkpt><trkpt lat="42.5542133" lon="-8.455095"><ele>402.79999999999995</ele><time>2026-04-16T10:03:43.859Z</time></trkpt><trkpt lat="42.5541783" lon="-8.454975"><ele>402.20000000000005</ele><time>2026-04-16T10:03:44.859Z</time></trkpt><trkpt lat="42.55415" lon="-8.45486"><ele>401.6</ele><time>2026-04-16T10:03:45.86Z</time></trkpt><trkpt lat="42.5541267" lon="-8.454735"><ele>401.0</ele><time>2026-04-16T10:03:46.86Z</time></trkpt><trkpt lat="42.554105" lon="-8.4545983"><ele>400.8</ele><time>2026-04-16T10:03:47.859Z</time></trkpt><trkpt lat="42.5540833" lon="-8.4544667"><ele>400.6</ele><time>2026-04-16T10:03:48.86Z</time></trkpt><trkpt lat="42.55405" lon="-8.454345"><ele>400.4</ele><time>2026-04-16T10:03:49.86Z</time></trkpt><trkpt lat="42.5540133" lon="-8.4542283"><ele>400.2</ele><time>2026-04-16T10:03:50.86Z</time></trkpt><trkpt lat="42.55396" lon="-8.4541233"><ele>400.0</ele><time>2026-04-16T10:03:51.859Z</time></trkpt><trkpt lat="42.553905" lon="-8.45402"><ele>400.00000000000006</ele><time>2026-04-16T10:03:52.859Z</time></trkpt><trkpt lat="42.5538617" lon="-8.453915"><ele>400.0</ele><time>2026-04-16T10:03:53.86Z</time></trkpt><trkpt lat="42.553835" lon="-8.45381"><ele>400.0</ele><time>2026-04-16T10:03:54.859Z</time></trkpt><trkpt lat="42.5538283" lon="-8.4537017"><ele>400.0</ele><time>2026-04-16T10:03:55.859Z</time></trkpt><trkpt lat="42.55383" lon="-8.4535967"><ele>400.00000000000006</ele><time>2026-04-16T10:03:56.859Z</time></trkpt><trkpt lat="42.5538283" lon="-8.4534933"><ele>400.0</ele><time>2026-04-16T10:03:57.859Z</time></trkpt><trkpt lat="42.553825" lon="-8.4534"><ele>399.50000000000006</ele><time>2026-04-16T10:03:58.86Z</time></trkpt><trkpt lat="42.5537983" lon="-8.4533"><ele>399.0</ele><time>2026-04-16T10:03:59.86Z</time></trkpt><trkpt lat="42.5537567" lon="-8.4531883"><ele>398.5</ele><time>2026-04-16T10:04:00.86Z</time></trkpt><trkpt lat="42.5537117" lon="-8.4530817"><ele>398.0</ele><time>2026-04-16T10:04:01.859Z</time></trkpt><trkpt lat="42.5536683" lon="-8.452985"><ele>397.50000000000006</ele><time>2026-04-16T10:04:02.859Z</time></trkpt><trkpt lat="42.5536317" lon="-8.4528867"><ele>397.0</ele><time>2026-04-16T10:04:03.86Z</time></trkpt><trkpt lat="42.55361" lon="-8.45278"><ele>396.00000000000006</ele><time>2026-04-16T10:04:04.859Z</time></trkpt><trkpt lat="42.5536017" lon="-8.45267"><ele>395.0</ele><time>2026-04-16T10:04:05.859Z</time></trkpt><trkpt lat="42.5536" lon="-8.4525633"><ele>394.0</ele><time>2026-04-16T10:04:06.859Z</time></trkpt><trkpt lat="42.5535817" lon="-8.4524617"><ele>393.0</ele><time>2026-04-16T10:04:08.86Z</time></trkpt><trkpt lat="42.55352" lon="-8.4525267"><ele>392.00000000000006</ele><time>2026-04-16T10:04:10.859Z</time></trkpt><trkpt lat="42.5534733" lon="-8.45262"><ele>391.0</ele><time>2026-04-16T10:04:11.859Z</time></trkpt><trkpt lat="42.5534" lon="-8.4527683"><ele>391.0</ele><time>2026-04-16T10:04:12.86Z</time></trkpt><trkpt lat="42.5533383" lon="-8.4528883"><ele>391.0</ele><time>2026-04-16T10:04:13.859Z</time></trkpt><trkpt lat="42.5532817" lon="-8.4529967"><ele>391.0</ele><time>2026-04-16T10:04:14.86Z</time></trkpt><trkpt lat="42.5532317" lon="-8.4531067"><ele>391.0</ele><time>2026-04-16T10:04:15.86Z</time></trkpt><trkpt lat="42.5531883" lon="-8.4532117"><ele>391.0</ele><time>2026-04-16T10:04:16.859Z</time></trkpt><trkpt lat="42.55315" lon="-8.45332"><ele>391.00000000000006</ele><time>2026-04-16T10:04:17.86Z</time></trkpt><trkpt lat="42.5531133" lon="-8.4534167"><ele>391.0</ele><time>2026-04-16T10:04:18.86Z</time></trkpt><trkpt lat="42.5530617" lon="-8.45349"><ele>391.0</ele><time>2026-04-16T10:04:19.86Z</time></trkpt><trkpt lat="42.5530017" lon="-8.45357"><ele>391.0</ele><time>2026-04-16T10:04:20.859Z</time></trkpt><trkpt lat="42.552935" lon="-8.4536517"><ele>391.00000000000006</ele><time>2026-04-16T10:04:21.86Z</time></trkpt><trkpt lat="42.5528717" lon="-8.4537333"><ele>391.0</ele><time>2026-04-16T10:04:22.86Z</time></trkpt><trkpt lat="42.5528067" lon="-8.4538133"><ele>393.33333333333337</ele><time>2026-04-16T10:04:23.86Z</time></trkpt><trkpt lat="42.552735" lon="-8.4538833"><ele>395.6666666666667</ele><time>2026-04-16T10:04:24.859Z</time></trkpt><trkpt lat="42.55266" lon="-8.4539417"><ele>398.0</ele><time>2026-04-16T10:04:25.859Z</time></trkpt><trkpt lat="42.552585" lon="-8.45398"><ele>400.33333333333337</ele><time>2026-04-16T10:04:26.859Z</time></trkpt><trkpt lat="42.5525083" lon="-8.453995"><ele>402.6666666666667</ele><time>2026-04-16T10:04:27.859Z</time></trkpt><trkpt lat="42.552425" lon="-8.4539967"><ele>405.0</ele><time>2026-04-16T10:04:28.859Z</time></trkpt><trkpt lat="42.552335" lon="-8.4539767"><ele>405.0</ele><time>2026-04-16T10:04:29.859Z</time></trkpt><trkpt lat="42.5522417" lon="-8.4539517"><ele>405.0</ele><time>2026-04-16T10:04:30.86Z</time></trkpt><trkpt lat="42.552145" lon="-8.4539383"><ele>405.0</ele><time>2026-04-16T10:04:31.859Z</time></trkpt><trkpt lat="42.55205" lon="-8.4539517"><ele>405.0</ele><time>2026-04-16T10:04:32.859Z</time></trkpt><trkpt lat="42.5519667" lon="-8.4539867"><ele>405.0</ele><time>2026-04-16T10:04:33.859Z</time></trkpt><trkpt lat="42.5518967" lon="-8.4540517"><ele>405.2</ele><time>2026-04-16T10:04:34.86Z</time></trkpt><trkpt lat="42.5518383" lon="-8.4541283"><ele>405.4</ele><time>2026-04-16T10:04:35.859Z</time></trkpt><trkpt lat="42.551795" lon="-8.4542267"><ele>405.6</ele><time>2026-04-16T10:04:36.86Z</time></trkpt><trkpt lat="42.5517517" lon="-8.454335"><ele>405.8</ele><time>2026-04-16T10:04:37.86Z</time></trkpt><trkpt lat="42.5516983" lon="-8.454455"><ele>406.0</ele><time>2026-04-16T10:04:38.86Z</time></trkpt><trkpt lat="42.5516433" lon="-8.45458"><ele>408.6</ele><time>2026-04-16T10:04:39.86Z</time></trkpt><trkpt lat="42.551595" lon="-8.4547"><ele>411.20000000000005</ele><time>2026-04-16T10:04:40.859Z</time></trkpt><trkpt lat="42.5515567" lon="-8.4548183"><ele>413.79999999999995</ele><time>2026-04-16T10:04:41.859Z</time></trkpt><trkpt lat="42.5515167" lon="-8.4549317"><ele>416.4</ele><time>2026-04-16T10:04:42.86Z</time></trkpt><trkpt lat="42.551475" lon="-8.455045"><ele>419.0</ele><time>2026-04-16T10:04:43.859Z</time></trkpt><trkpt lat="42.5514317" lon="-8.4551517"><ele>418.99999999999994</ele><time>2026-04-16T10:04:44.86Z</time></trkpt><trkpt lat="42.551385" lon="-8.4552517"><ele>419.0</ele><time>2026-04-16T10:04:45.859Z</time></trkpt><trkpt lat="42.5513383" lon="-8.455355"><ele>419.0</ele><time>2026-04-16T10:04:46.86Z</time></trkpt><trkpt lat="42.5512917" lon="-8.45546"><ele>419.0</ele><time>2026-04-16T10:04:47.859Z</time></trkpt><trkpt lat="42.5512433" lon="-8.455565"><ele>418.99999999999994</ele><time>2026-04-16T10:04:48.859Z</time></trkpt><trkpt lat="42.551195" lon="-8.4556683"><ele>419.0</ele><time>2026-04-16T10:04:49.86Z</time></trkpt><trkpt lat="42.551145" lon="-8.4557717"><ele>418.99999999999994</ele><time>2026-04-16T10:04:50.86Z</time></trkpt><trkpt lat="42.551095" lon="-8.4558733"><ele>419.0</ele><time>2026-04-16T10:04:51.859Z</time></trkpt><trkpt lat="42.5510533" lon="-8.4559783"><ele>419.0</ele><time>2026-04-16T10:04:52.859Z</time></trkpt><trkpt lat="42.55102" lon="-8.4560883"><ele>419.0</ele><time>2026-04-16T10:04:53.859Z</time></trkpt><trkpt lat="42.551" lon="-8.4561967"><ele>418.99999999999994</ele><time>2026-04-16T10:04:54.859Z</time></trkpt><trkpt lat="42.5509917" lon="-8.456325"><ele>419.0</ele><time>2026-04-16T10:04:55.86Z</time></trkpt><trkpt lat="42.5509983" lon="-8.4564483"><ele>419.0</ele><time>2026-04-16T10:04:56.859Z</time></trkpt><trkpt lat="42.5510167" lon="-8.4565783"><ele>419.0</ele><time>2026-04-16T10:04:57.859Z</time></trkpt><trkpt lat="42.5510267" lon="-8.456705"><ele>419.0</ele><time>2026-04-16T10:04:58.859Z</time></trkpt><trkpt lat="42.5510333" lon="-8.4568333"><ele>419.0</ele><time>2026-04-16T10:04:59.86Z</time></trkpt><trkpt lat="42.551035" lon="-8.4569683"><ele>419.0</ele><time>2026-04-16T10:05:00.86Z</time></trkpt><trkpt lat="42.5510333" lon="-8.457095"><ele>419.79999999999995</ele><time>2026-04-16T10:05:01.86Z</time></trkpt><trkpt lat="42.55102" lon="-8.4572283"><ele>420.59999999999997</ele><time>2026-04-16T10:05:02.86Z</time></trkpt><trkpt lat="42.5509917" lon="-8.4573567"><ele>421.4</ele><time>2026-04-16T10:05:03.86Z</time></trkpt><trkpt lat="42.5509483" lon="-8.45747"><ele>422.2</ele><time>2026-04-16T10:05:04.86Z</time></trkpt><trkpt lat="42.5508867" lon="-8.4575667"><ele>423.0</ele><time>2026-04-16T10:05:05.859Z</time></trkpt><trkpt lat="42.5508183" lon="-8.4576483"><ele>423.0</ele><time>2026-04-16T10:05:06.859Z</time></trkpt><trkpt lat="42.5507467" lon="-8.4577217"><ele>423.0</ele><time>2026-04-16T10:05:07.859Z</time></trkpt><trkpt lat="42.5506683" lon="-8.4578"><ele>423.0</ele><time>2026-04-16T10:05:08.859Z</time></trkpt><trkpt lat="42.5505967" lon="-8.4578683"><ele>423.0</ele><time>2026-04-16T10:05:09.86Z</time></trkpt><trkpt lat="42.550525" lon="-8.4579383"><ele>423.0</ele><time>2026-04-16T10:05:10.859Z</time></trkpt><trkpt lat="42.550455" lon="-8.458025"><ele>424.0</ele><time>2026-04-16T10:05:11.86Z</time></trkpt><trkpt lat="42.5503883" lon="-8.4581183"><ele>425.0</ele><time>2026-04-16T10:05:12.86Z</time></trkpt><trkpt lat="42.5503317" lon="-8.4582167"><ele>425.99999999999994</ele><time>2026-04-16T10:05:13.859Z</time></trkpt><trkpt lat="42.5502767" lon="-8.45832"><ele>427.0</ele><time>2026-04-16T10:05:14.86Z</time></trkpt><trkpt lat="42.5502267" lon="-8.45843"><ele>428.0</ele><time>2026-04-16T10:05:15.86Z</time></trkpt><trkpt lat="42.5501933" lon="-8.45854"><ele>427.99999999999994</ele><time>2026-04-16T10:05:16.859Z</time></trkpt><trkpt lat="42.5501867" lon="-8.45865"><ele>428.0</ele><time>2026-04-16T10:05:17.859Z</time></trkpt><trkpt lat="42.5501783" lon="-8.4587767"><ele>428.0</ele><time>2026-04-16T10:05:18.86Z</time></trkpt><trkpt lat="42.5501783" lon="-8.4589067"><ele>428.0</ele><time>2026-04-16T10:05:19.859Z</time></trkpt><trkpt lat="42.55019" lon="-8.4590217"><ele>427.99999999999994</ele><time>2026-04-16T10:05:20.859Z</time></trkpt><trkpt lat="42.550225" lon="-8.45913"><ele>428.0</ele><time>2026-04-16T10:05:21.859Z</time></trkpt><trkpt lat="42.550285" lon="-8.4592317"><ele>429.3333333333333</ele><time>2026-04-16T10:05:22.86Z</time></trkpt><trkpt lat="42.5503417" lon="-8.4593217"><ele>430.66666666666663</ele><time>2026-04-16T10:05:23.86Z</time></trkpt><trkpt lat="42.550385" lon="-8.4594"><ele>432.0</ele><time>2026-04-16T10:05:24.86Z</time></trkpt><trkpt lat="42.55042" lon="-8.4594783"><ele>433.33333333333337</ele><time>2026-04-16T10:05:25.86Z</time></trkpt><trkpt lat="42.5504517" lon="-8.4595617"><ele>434.6666666666667</ele><time>2026-04-16T10:05:26.86Z</time></trkpt><trkpt lat="42.550475" lon="-8.4596683"><ele>436.0</ele><time>2026-04-16T10:05:27.859Z</time></trkpt><trkpt lat="42.5504867" lon="-8.45979"><ele>438.00000000000006</ele><time>2026-04-16T10:05:28.859Z</time></trkpt><trkpt lat="42.5504983" lon="-8.4599067"><ele>440.0</ele><time>2026-04-16T10:05:29.86Z</time></trkpt><trkpt lat="42.5505117" lon="-8.4600267"><ele>442.0</ele><time>2026-04-16T10:05:30.86Z</time></trkpt><trkpt lat="42.5505067" lon="-8.46014"><ele>444.0</ele><time>2026-04-16T10:05:31.859Z</time></trkpt><trkpt lat="42.5504883" lon="-8.4602567"><ele>446.00000000000006</ele><time>2026-04-16T10:05:32.859Z</time></trkpt><trkpt lat="42.550445" lon="-8.4603633"><ele>448.0</ele><time>2026-04-16T10:05:33.86Z</time></trkpt><trkpt lat="42.55039" lon="-8.46045"><ele>446.79999999999995</ele><time>2026-04-16T10:05:34.859Z</time></trkpt><trkpt lat="42.5503133" lon="-8.460485"><ele>445.59999999999997</ele><time>2026-04-16T10:05:35.859Z</time></trkpt><trkpt lat="42.5502283" lon="-8.4604933"><ele>444.40000000000003</ele><time>2026-04-16T10:05:36.859Z</time></trkpt><trkpt lat="42.5501217" lon="-8.4604533"><ele>443.20000000000005</ele><time>2026-04-16T10:05:37.859Z</time></trkpt><trkpt lat="42.55001" lon="-8.4604067"><ele>442.0</ele><time>2026-04-16T10:05:38.86Z</time></trkpt><trkpt lat="42.5499" lon="-8.46039"><ele>442.0</ele><time>2026-04-16T10:05:39.86Z</time></trkpt><trkpt lat="42.5497933" lon="-8.4603817"><ele>442.00000000000006</ele><time>2026-04-16T10:05:40.859Z</time></trkpt><trkpt lat="42.5496917" lon="-8.4603817"><ele>442.00000000000006</ele><time>2026-04-16T10:05:41.86Z</time></trkpt><trkpt lat="42.5495867" lon="-8.46038"><ele>442.0</ele><time>2026-04-16T10:05:42.86Z</time></trkpt><trkpt lat="42.54948" lon="-8.4603767"><ele>442.0</ele><time>2026-04-16T10:05:43.86Z</time></trkpt><trkpt lat="42.549375" lon="-8.46037"><ele>441.8</ele><time>2026-04-16T10:05:44.86Z</time></trkpt><trkpt lat="42.54928" lon="-8.46035"><ele>441.6</ele><time>2026-04-16T10:05:45.86Z</time></trkpt><trkpt lat="42.54918" lon="-8.4603233"><ele>441.40000000000003</ele><time>2026-04-16T10:05:46.859Z</time></trkpt><trkpt lat="42.549085" lon="-8.46029"><ele>441.20000000000005</ele><time>2026-04-16T10:05:47.86Z</time></trkpt><trkpt lat="42.5489917" lon="-8.460255"><ele>441.0</ele><time>2026-04-16T10:05:48.86Z</time></trkpt><trkpt lat="42.5488983" lon="-8.46022"><ele>441.0</ele><time>2026-04-16T10:05:49.859Z</time></trkpt><trkpt lat="42.548805" lon="-8.4602017"><ele>441.0</ele><time>2026-04-16T10:05:50.859Z</time></trkpt><trkpt lat="42.5487083" lon="-8.4601917"><ele>441.0</ele><time>2026-04-16T10:05:51.859Z</time></trkpt><trkpt lat="42.5486133" lon="-8.4601917"><ele>441.0</ele><time>2026-04-16T10:05:52.86Z</time></trkpt><trkpt lat="42.5485183" lon="-8.4602067"><ele>441.0</ele><time>2026-04-16T10:05:53.86Z</time></trkpt><trkpt lat="42.54842" lon="-8.460245"><ele>441.6</ele><time>2026-04-16T10:05:54.859Z</time></trkpt><trkpt lat="42.5483267" lon="-8.4602933"><ele>442.20000000000005</ele><time>2026-04-16T10:05:55.86Z</time></trkpt><trkpt lat="42.5482383" lon="-8.4603533"><ele>442.79999999999995</ele><time>2026-04-16T10:05:56.859Z</time></trkpt><trkpt lat="42.5481533" lon="-8.46042"><ele>443.4</ele><time>2026-04-16T10:05:57.86Z</time></trkpt><trkpt lat="42.5480717" lon="-8.4604883"><ele>444.0</ele><time>2026-04-16T10:05:58.86Z</time></trkpt><trkpt lat="42.5479767" lon="-8.460535"><ele>446.0</ele><time>2026-04-16T10:05:59.86Z</time></trkpt><trkpt lat="42.54789" lon="-8.4606"><ele>448.0</ele><time>2026-04-16T10:06:00.859Z</time></trkpt><trkpt lat="42.5478" lon="-8.4606633"><ele>450.0</ele><time>2026-04-16T10:06:01.859Z</time></trkpt><trkpt lat="42.5477083" lon="-8.460735"><ele>452.0</ele><time>2026-04-16T10:06:02.859Z</time></trkpt><trkpt lat="42.547625" lon="-8.4608033"><ele>454.0</ele><time>2026-04-16T10:06:03.859Z</time></trkpt><trkpt lat="42.5475483" lon="-8.4608883"><ele>454.0</ele><time>2026-04-16T10:06:04.859Z</time></trkpt><trkpt lat="42.5474817" lon="-8.4609717"><ele>454.0</ele><time>2026-04-16T10:06:05.86Z</time></trkpt><trkpt lat="42.54741" lon="-8.461055"><ele>454.0</ele><time>2026-04-16T10:06:06.859Z</time></trkpt><trkpt lat="42.5473383" lon="-8.4611483"><ele>454.0</ele><time>2026-04-16T10:06:07.859Z</time></trkpt><trkpt lat="42.5472667" lon="-8.4612517"><ele>454.0</ele><time>2026-04-16T10:06:08.86Z</time></trkpt><trkpt lat="42.5472017" lon="-8.4613567"><ele>453.4</ele><time>2026-04-16T10:06:09.859Z</time></trkpt><trkpt lat="42.54714" lon="-8.4614667"><ele>452.79999999999995</ele><time>2026-04-16T10:06:10.86Z</time></trkpt><trkpt lat="42.5470833" lon="-8.4615733"><ele>452.20000000000005</ele><time>2026-04-16T10:06:11.859Z</time></trkpt><trkpt lat="42.5470283" lon="-8.4616783"><ele>451.6</ele><time>2026-04-16T10:06:12.86Z</time></trkpt><trkpt lat="42.5469767" lon="-8.4617833"><ele>451.0</ele><time>2026-04-16T10:06:13.859Z</time></trkpt><trkpt lat="42.5469383" lon="-8.4618883"><ele>451.0</ele><time>2026-04-16T10:06:14.859Z</time></trkpt><trkpt lat="42.546905" lon="-8.4620033"><ele>451.0</ele><time>2026-04-16T10:06:15.859Z</time></trkpt><trkpt lat="42.5468883" lon="-8.4621233"><ele>451.0</ele><time>2026-04-16T10:06:16.86Z</time></trkpt><trkpt lat="42.546865" lon="-8.4622533"><ele>451.0</ele><time>2026-04-16T10:06:17.859Z</time></trkpt><trkpt lat="42.5468483" lon="-8.4623733"><ele>451.0</ele><time>2026-04-16T10:06:18.859Z</time></trkpt><trkpt lat="42.546825" lon="-8.4625017"><ele>452.0</ele><time>2026-04-16T10:06:19.859Z</time></trkpt><trkpt lat="42.5467967" lon="-8.46263"><ele>453.0</ele><time>2026-04-16T10:06:20.859Z</time></trkpt><trkpt lat="42.5467667" lon="-8.4627717"><ele>454.0</ele><time>2026-04-16T10:06:21.859Z</time></trkpt><trkpt lat="42.54674" lon="-8.4629217"><ele>455.0</ele><time>2026-04-16T10:06:22.86Z</time></trkpt><trkpt lat="42.5467033" lon="-8.463055"><ele>456.0</ele><time>2026-04-16T10:06:23.859Z</time></trkpt><trkpt lat="42.5466683" lon="-8.46318"><ele>458.0</ele><time>2026-04-16T10:06:24.859Z</time></trkpt><trkpt lat="42.54663" lon="-8.4632933"><ele>460.0</ele><time>2026-04-16T10:06:25.859Z</time></trkpt><trkpt lat="42.5465917" lon="-8.4634117"><ele>462.0</ele><time>2026-04-16T10:06:26.859Z</time></trkpt><trkpt lat="42.5465533" lon="-8.463525"><ele>464.0</ele><time>2026-04-16T10:06:27.859Z</time></trkpt><trkpt lat="42.5464983" lon="-8.46363"><ele>466.0</ele><time>2026-04-16T10:06:28.859Z</time></trkpt><trkpt lat="42.5464367" lon="-8.46373"><ele>468.6</ele><time>2026-04-16T10:06:29.859Z</time></trkpt><trkpt lat="42.5463617" lon="-8.4638017"><ele>471.20000000000005</ele><time>2026-04-16T10:06:30.86Z</time></trkpt><trkpt lat="42.546275" lon="-8.463845"><ele>473.79999999999995</ele><time>2026-04-16T10:06:31.859Z</time></trkpt><trkpt lat="42.5461717" lon="-8.4638483"><ele>476.4</ele><time>2026-04-16T10:06:32.86Z</time></trkpt><trkpt lat="42.54607" lon="-8.4638383"><ele>479.0</ele><time>2026-04-16T10:06:33.859Z</time></trkpt><trkpt lat="42.545965" lon="-8.4638217"><ele>479.0</ele><time>2026-04-16T10:06:34.859Z</time></trkpt><trkpt lat="42.545865" lon="-8.4638067"><ele>479.0</ele><time>2026-04-16T10:06:35.86Z</time></trkpt><trkpt lat="42.5457717" lon="-8.4638"><ele>479.0</ele><time>2026-04-16T10:06:36.859Z</time></trkpt><trkpt lat="42.545675" lon="-8.4637917"><ele>479.0</ele><time>2026-04-16T10:06:37.859Z</time></trkpt><trkpt lat="42.54558" lon="-8.4637883"><ele>479.0</ele><time>2026-04-16T10:06:38.86Z</time></trkpt><trkpt lat="42.545485" lon="-8.4637883"><ele>479.0</ele><time>2026-04-16T10:06:39.859Z</time></trkpt><trkpt lat="42.545385" lon="-8.463785"><ele>479.0</ele><time>2026-04-16T10:06:40.86Z</time></trkpt><trkpt lat="42.545285" lon="-8.4637883"><ele>479.0</ele><time>2026-04-16T10:06:41.86Z</time></trkpt><trkpt lat="42.5451867" lon="-8.4637933"><ele>479.0</ele><time>2026-04-16T10:06:42.859Z</time></trkpt><trkpt lat="42.5450983" lon="-8.46382"><ele>479.0</ele><time>2026-04-16T10:06:43.86Z</time></trkpt><trkpt lat="42.5450133" lon="-8.46387"><ele>477.79999999999995</ele><time>2026-04-16T10:06:44.859Z</time></trkpt><trkpt lat="42.54493" lon="-8.463935"><ele>476.59999999999997</ele><time>2026-04-16T10:06:45.859Z</time></trkpt><trkpt lat="42.544855" lon="-8.4640133"><ele>475.4</ele><time>2026-04-16T10:06:46.859Z</time></trkpt><trkpt lat="42.544785" lon="-8.4641017"><ele>474.2</ele><time>2026-04-16T10:06:47.859Z</time></trkpt><trkpt lat="42.5447167" lon="-8.4641817"><ele>473.0</ele><time>2026-04-16T10:06:48.86Z</time></trkpt><trkpt lat="42.544635" lon="-8.46426"><ele>473.0</ele><time>2026-04-16T10:06:49.859Z</time></trkpt><trkpt lat="42.5445483" lon="-8.4643467"><ele>472.99999999999994</ele><time>2026-04-16T10:06:50.859Z</time></trkpt><trkpt lat="42.54446" lon="-8.4644267"><ele>472.99999999999994</ele><time>2026-04-16T10:06:51.86Z</time></trkpt><trkpt lat="42.5443733" lon="-8.4645017"><ele>473.0</ele><time>2026-04-16T10:06:52.86Z</time></trkpt><trkpt lat="42.544285" lon="-8.4645683"><ele>473.0</ele><time>2026-04-16T10:06:53.859Z</time></trkpt><trkpt lat="42.5442" lon="-8.46463"><ele>475.0</ele><time>2026-04-16T10:06:54.859Z</time></trkpt><trkpt lat="42.5441133" lon="-8.464685"><ele>476.99999999999994</ele><time>2026-04-16T10:06:55.86Z</time></trkpt><trkpt lat="42.5440283" lon="-8.464735"><ele>478.99999999999994</ele><time>2026-04-16T10:06:56.859Z</time></trkpt><trkpt lat="42.54394" lon="-8.464765"><ele>481.0</ele><time>2026-04-16T10:06:57.859Z</time></trkpt><trkpt lat="42.5438417" lon="-8.4647817"><ele>483.0</ele><time>2026-04-16T10:06:58.859Z</time></trkpt><trkpt lat="42.5437467" lon="-8.4647933"><ele>482.4</ele><time>2026-04-16T10:06:59.859Z</time></trkpt><trkpt lat="42.5436467" lon="-8.4648067"><ele>481.79999999999995</ele><time>2026-04-16T10:07:00.86Z</time></trkpt><trkpt lat="42.5435433" lon="-8.46483"><ele>481.2</ele><time>2026-04-16T10:07:01.86Z</time></trkpt><trkpt lat="42.54344" lon="-8.464855"><ele>480.6</ele><time>2026-04-16T10:07:02.86Z</time></trkpt><trkpt lat="42.5433367" lon="-8.4648767"><ele>480.0</ele><time>2026-04-16T10:07:03.859Z</time></trkpt><trkpt lat="42.5432333" lon="-8.4648883"><ele>480.0</ele><time>2026-04-16T10:07:04.859Z</time></trkpt><trkpt lat="42.543125" lon="-8.46489"><ele>480.0</ele><time>2026-04-16T10:07:05.86Z</time></trkpt><trkpt lat="42.5430033" lon="-8.4648867"><ele>480.0</ele><time>2026-04-16T10:07:06.859Z</time></trkpt><trkpt lat="42.54287" lon="-8.4648883"><ele>480.0</ele><time>2026-04-16T10:07:07.86Z</time></trkpt><trkpt lat="42.54275" lon="-8.464915"><ele>480.0</ele><time>2026-04-16T10:07:08.86Z</time></trkpt><trkpt lat="42.5426567" lon="-8.4649733"><ele>480.0</ele><time>2026-04-16T10:07:09.859Z</time></trkpt><trkpt lat="42.5425933" lon="-8.465045"><ele>480.0</ele><time>2026-04-16T10:07:10.859Z</time></trkpt><trkpt lat="42.5425483" lon="-8.4651483"><ele>480.0</ele><time>2026-04-16T10:07:11.859Z</time></trkpt><trkpt lat="42.5425167" lon="-8.4652767"><ele>480.0</ele><time>2026-04-16T10:07:12.859Z</time></trkpt><trkpt lat="42.54249" lon="-8.4654517"><ele>480.0</ele><time>2026-04-16T10:07:13.859Z</time></trkpt><trkpt lat="42.5424617" lon="-8.4656533"><ele>480.0</ele><time>2026-04-16T10:07:14.859Z</time></trkpt><trkpt lat="42.5424433" lon="-8.4658467"><ele>480.0</ele><time>2026-04-16T10:07:15.859Z</time></trkpt><trkpt lat="42.5424317" lon="-8.4660233"><ele>480.0</ele><time>2026-04-16T10:07:16.86Z</time></trkpt><trkpt lat="42.54244" lon="-8.466205"><ele>482.25</ele><time>2026-04-16T10:07:17.859Z</time></trkpt><trkpt lat="42.542445" lon="-8.4664017"><ele>484.5</ele><time>2026-04-16T10:07:18.86Z</time></trkpt><trkpt lat="42.5424417" lon="-8.4665917"><ele>486.75</ele><time>2026-04-16T10:07:19.859Z</time></trkpt><trkpt lat="42.5424217" lon="-8.4667617"><ele>489.0</ele><time>2026-04-16T10:07:20.86Z</time></trkpt><trkpt lat="42.5423633" lon="-8.466915"><ele>489.0</ele><time>2026-04-16T10:07:21.859Z</time></trkpt><trkpt lat="42.542285" lon="-8.46709"><ele>489.0</ele><time>2026-04-16T10:07:22.859Z</time></trkpt><trkpt lat="42.5422083" lon="-8.4672417"><ele>489.0</ele><time>2026-04-16T10:07:23.859Z</time></trkpt><trkpt lat="42.5421283" lon="-8.467405"><ele>489.0</ele><time>2026-04-16T10:07:24.859Z</time></trkpt><trkpt lat="42.54205" lon="-8.4675867"><ele>488.75</ele><time>2026-04-16T10:07:25.859Z</time></trkpt><trkpt lat="42.541975" lon="-8.4677733"><ele>488.5</ele><time>2026-04-16T10:07:26.86Z</time></trkpt><trkpt lat="42.5419083" lon="-8.4679383"><ele>488.25</ele><time>2026-04-16T10:07:27.86Z</time></trkpt><trkpt lat="42.5418767" lon="-8.4680983"><ele>488.0</ele><time>2026-04-16T10:07:28.86Z</time></trkpt><trkpt lat="42.541845" lon="-8.4682733"><ele>488.0</ele><time>2026-04-16T10:07:29.86Z</time></trkpt><trkpt lat="42.541815" lon="-8.468465"><ele>488.0</ele><time>2026-04-16T10:07:30.859Z</time></trkpt><trkpt lat="42.5417783" lon="-8.4686483"><ele>488.0</ele><time>2026-04-16T10:07:31.859Z</time></trkpt><trkpt lat="42.5417183" lon="-8.4687917"><ele>488.0</ele><time>2026-04-16T10:07:32.859Z</time></trkpt><trkpt lat="42.54162" lon="-8.46892"><ele>487.66666666666663</ele><time>2026-04-16T10:07:33.86Z</time></trkpt><trkpt lat="42.5414883" lon="-8.4690183"><ele>487.33333333333337</ele><time>2026-04-16T10:07:34.86Z</time></trkpt><trkpt lat="42.541335" lon="-8.4690917"><ele>487.0</ele><time>2026-04-16T10:07:35.86Z</time></trkpt><trkpt lat="42.541205" lon="-8.4691633"><ele>487.0</ele><time>2026-04-16T10:07:36.86Z</time></trkpt><trkpt lat="42.5411017" lon="-8.46924"><ele>487.0</ele><time>2026-04-16T10:07:37.859Z</time></trkpt><trkpt lat="42.5410133" lon="-8.4693417"><ele>487.0</ele><time>2026-04-16T10:07:38.859Z</time></trkpt><trkpt lat="42.54093" lon="-8.4694617"><ele>487.0</ele><time>2026-04-16T10:07:39.859Z</time></trkpt><trkpt lat="42.540845" lon="-8.4696"><ele>491.0</ele><time>2026-04-16T10:07:40.86Z</time></trkpt><trkpt lat="42.5407617" lon="-8.4697717"><ele>495.0</ele><time>2026-04-16T10:07:41.86Z</time></trkpt><trkpt lat="42.540685" lon="-8.469955"><ele>499.0</ele><time>2026-04-16T10:07:42.859Z</time></trkpt><trkpt lat="42.5406283" lon="-8.47012"><ele>503.0</ele><time>2026-04-16T10:07:43.859Z</time></trkpt><trkpt lat="42.54058" lon="-8.4702667"><ele>503.0</ele><time>2026-04-16T10:07:44.86Z</time></trkpt><trkpt lat="42.5405367" lon="-8.470415"><ele>503.0</ele><time>2026-04-16T10:07:45.86Z</time></trkpt><trkpt lat="42.5404917" lon="-8.470595"><ele>503.0</ele><time>2026-04-16T10:07:46.86Z</time></trkpt><trkpt lat="42.5404533" lon="-8.4708117"><ele>503.0</ele><time>2026-04-16T10:07:47.86Z</time></trkpt><trkpt lat="42.5404317" lon="-8.4710333"><ele>506.3333333333333</ele><time>2026-04-16T10:07:48.86Z</time></trkpt><trkpt lat="42.5404167" lon="-8.4712667"><ele>509.66666666666663</ele><time>2026-04-16T10:07:49.86Z</time></trkpt><trkpt lat="42.5404117" lon="-8.4714717"><ele>513.0</ele><time>2026-04-16T10:07:50.859Z</time></trkpt><trkpt lat="42.540415" lon="-8.4716517"><ele>513.25</ele><time>2026-04-16T10:07:51.859Z</time></trkpt><trkpt lat="42.54044" lon="-8.4718233"><ele>513.5</ele><time>2026-04-16T10:07:52.859Z</time></trkpt><trkpt lat="42.54048" lon="-8.4719917"><ele>513.75</ele><time>2026-04-16T10:07:53.859Z</time></trkpt><trkpt lat="42.540525" lon="-8.4721267"><ele>514.0</ele><time>2026-04-16T10:07:54.86Z</time></trkpt><trkpt lat="42.5405817" lon="-8.472215"><ele>511.5</ele><time>2026-04-16T10:07:55.86Z</time></trkpt><trkpt lat="42.5406683" lon="-8.4722683"><ele>509.0</ele><time>2026-04-16T10:07:56.86Z</time></trkpt><trkpt lat="42.5407883" lon="-8.472295"><ele>506.5</ele><time>2026-04-16T10:07:57.86Z</time></trkpt><trkpt lat="42.5409383" lon="-8.4722967"><ele>504.0</ele><time>2026-04-16T10:07:58.859Z</time></trkpt><trkpt lat="42.5411083" lon="-8.4722717"><ele>502.33333333333337</ele><time>2026-04-16T10:07:59.86Z</time></trkpt><trkpt lat="42.5412817" lon="-8.4722117"><ele>500.6666666666667</ele><time>2026-04-16T10:08:00.86Z</time></trkpt><trkpt lat="42.541455" lon="-8.4721283"><ele>499.0</ele><time>2026-04-16T10:08:01.86Z</time></trkpt><trkpt lat="42.5416233" lon="-8.4720283"><ele>502.0</ele><time>2026-04-16T10:08:02.859Z</time></trkpt><trkpt lat="42.5417917" lon="-8.4719017"><ele>505.0</ele><time>2026-04-16T10:08:03.859Z</time></trkpt><trkpt lat="42.5419583" lon="-8.4717733"><ele>508.0</ele><time>2026-04-16T10:08:04.859Z</time></trkpt><trkpt lat="42.5421217" lon="-8.47165"><ele>508.0</ele><time>2026-04-16T10:08:05.86Z</time></trkpt><trkpt lat="42.54228" lon="-8.47154"><ele>508.0</ele><time>2026-04-16T10:08:06.86Z</time></trkpt><trkpt lat="42.5424533" lon="-8.47145"><ele>508.0</ele><time>2026-04-16T10:08:07.859Z</time></trkpt><trkpt lat="42.5426433" lon="-8.4713667"><ele>508.0</ele><time>2026-04-16T10:08:08.86Z</time></trkpt><trkpt lat="42.5428533" lon="-8.471285"><ele>508.0</ele><time>2026-04-16T10:08:09.86Z</time></trkpt><trkpt lat="42.5430767" lon="-8.4712167"><ele>508.0</ele><time>2026-04-16T10:08:10.859Z</time></trkpt><trkpt lat="42.543305" lon="-8.4711667"><ele>513.0</ele><time>2026-04-16T10:08:11.859Z</time></trkpt><trkpt lat="42.543515" lon="-8.4711267"><ele>518.0</ele><time>2026-04-16T10:08:12.859Z</time></trkpt><trkpt lat="42.5436967" lon="-8.4710783"><ele>523.0</ele><time>2026-04-16T10:08:13.859Z</time></trkpt><trkpt lat="42.5438633" lon="-8.471015"><ele>523.0</ele><time>2026-04-16T10:08:14.859Z</time></trkpt><trkpt lat="42.5440283" lon="-8.4709333"><ele>523.0</ele><time>2026-04-16T10:08:15.859Z</time></trkpt><trkpt lat="42.544205" lon="-8.4708267"><ele>523.0</ele><time>2026-04-16T10:08:16.859Z</time></trkpt><trkpt lat="42.5443833" lon="-8.4706983"><ele>520.6666666666667</ele><time>2026-04-16T10:08:17.86Z</time></trkpt><trkpt lat="42.5445667" lon="-8.4705733"><ele>518.3333333333334</ele><time>2026-04-16T10:08:18.859Z</time></trkpt><trkpt lat="42.5447367" lon="-8.4704617"><ele>516.0</ele><time>2026-04-16T10:08:19.859Z</time></trkpt><trkpt lat="42.5448867" lon="-8.4703417"><ele>520.5</ele><time>2026-04-16T10:08:20.859Z</time></trkpt><trkpt lat="42.545025" lon="-8.4702467"><ele>525.0</ele><time>2026-04-16T10:08:21.861Z</time></trkpt><trkpt lat="42.54514" lon="-8.4701867"><ele>529.5</ele><time>2026-04-16T10:08:22.86Z</time></trkpt><trkpt lat="42.5452517" lon="-8.470145"><ele>534.0</ele><time>2026-04-16T10:08:23.861Z</time></trkpt><trkpt lat="42.5453617" lon="-8.4701167"><ele>534.5</ele><time>2026-04-16T10:08:24.86Z</time></trkpt><trkpt lat="42.5454817" lon="-8.47011"><ele>535.0</ele><time>2026-04-16T10:08:25.86Z</time></trkpt><trkpt lat="42.545615" lon="-8.4701267"><ele>535.5</ele><time>2026-04-16T10:08:26.861Z</time></trkpt><trkpt lat="42.545755" lon="-8.4701667"><ele>536.0</ele><time>2026-04-16T10:08:27.861Z</time></trkpt><trkpt lat="42.5459017" lon="-8.47023"><ele>536.0</ele><time>2026-04-16T10:08:28.86Z</time></trkpt><trkpt lat="42.5460633" lon="-8.4702883"><ele>536.0</ele><time>2026-04-16T10:08:29.861Z</time></trkpt><trkpt lat="42.54622" lon="-8.4703283"><ele>536.0</ele><time>2026-04-16T10:08:30.86Z</time></trkpt><trkpt lat="42.5463783" lon="-8.4703817"><ele>534.3333333333333</ele><time>2026-04-16T10:08:31.861Z</time></trkpt><trkpt lat="42.546525" lon="-8.470425"><ele>532.6666666666666</ele><time>2026-04-16T10:08:32.861Z</time></trkpt><trkpt lat="42.5466917" lon="-8.47047"><ele>531.0</ele><time>2026-04-16T10:08:33.86Z</time></trkpt><trkpt lat="42.5468467" lon="-8.4705133"><ele>531.0</ele><time>2026-04-16T10:08:34.861Z</time></trkpt><trkpt lat="42.54698" lon="-8.4705533"><ele>531.0</ele><time>2026-04-16T10:08:35.861Z</time></trkpt><trkpt lat="42.5470933" lon="-8.4706"><ele>531.0</ele><time>2026-04-16T10:08:36.86Z</time></trkpt><trkpt lat="42.5471833" lon="-8.4706633"><ele>531.0</ele><time>2026-04-16T10:08:37.86Z</time></trkpt><trkpt lat="42.5472483" lon="-8.4707617"><ele>535.0</ele><time>2026-04-16T10:08:38.861Z</time></trkpt><trkpt lat="42.5472883" lon="-8.4708817"><ele>539.0</ele><time>2026-04-16T10:08:39.86Z</time></trkpt><trkpt lat="42.547305" lon="-8.4710183"><ele>543.0</ele><time>2026-04-16T10:08:40.861Z</time></trkpt><trkpt lat="42.547305" lon="-8.47119"><ele>547.0</ele><time>2026-04-16T10:08:41.86Z</time></trkpt><trkpt lat="42.5472967" lon="-8.471395"><ele>547.25</ele><time>2026-04-16T10:08:42.861Z</time></trkpt><trkpt lat="42.547285" lon="-8.4715933"><ele>547.5</ele><time>2026-04-16T10:08:43.86Z</time></trkpt><trkpt lat="42.5472617" lon="-8.471785"><ele>547.75</ele><time>2026-04-16T10:08:44.86Z</time></trkpt><trkpt lat="42.5472233" lon="-8.4719783"><ele>548.0</ele><time>2026-04-16T10:08:45.861Z</time></trkpt><trkpt lat="42.5471817" lon="-8.4721867"><ele>550.0</ele><time>2026-04-16T10:08:46.861Z</time></trkpt><trkpt lat="42.547155" lon="-8.472405"><ele>552.0</ele><time>2026-04-16T10:08:47.861Z</time></trkpt><trkpt lat="42.547145" lon="-8.472625"><ele>554.0</ele><time>2026-04-16T10:08:48.86Z</time></trkpt><trkpt lat="42.5471417" lon="-8.472855"><ele>555.75</ele><time>2026-04-16T10:08:49.86Z</time></trkpt><trkpt lat="42.547125" lon="-8.4730567"><ele>557.5</ele><time>2026-04-16T10:08:50.86Z</time></trkpt><trkpt lat="42.54708" lon="-8.4732367"><ele>559.25</ele><time>2026-04-16T10:08:51.861Z</time></trkpt><trkpt lat="42.5470067" lon="-8.473425"><ele>561.0</ele><time>2026-04-16T10:08:52.86Z</time></trkpt><trkpt lat="42.54691" lon="-8.47362"><ele>554.3333333333334</ele><time>2026-04-16T10:08:53.86Z</time></trkpt><trkpt lat="42.546825" lon="-8.473815"><ele>547.6666666666667</ele><time>2026-04-16T10:08:54.86Z</time></trkpt><trkpt lat="42.54676" lon="-8.4740067"><ele>541.0</ele><time>2026-04-16T10:08:55.86Z</time></trkpt><trkpt lat="42.54671" lon="-8.4741917"><ele>541.0</ele><time>2026-04-16T10:08:56.86Z</time></trkpt><trkpt lat="42.546665" lon="-8.4743817"><ele>541.0</ele><time>2026-04-16T10:08:57.86Z</time></trkpt><trkpt lat="42.54662" lon="-8.4745767"><ele>541.0</ele><time>2026-04-16T10:08:58.86Z</time></trkpt><trkpt lat="42.546555" lon="-8.4747633"><ele>543.75</ele><time>2026-04-16T10:08:59.86Z</time></trkpt><trkpt lat="42.5464883" lon="-8.4749467"><ele>546.5</ele><time>2026-04-16T10:09:00.861Z</time></trkpt><trkpt lat="42.54641" lon="-8.4751167"><ele>549.25</ele><time>2026-04-16T10:09:01.86Z</time></trkpt><trkpt lat="42.5463233" lon="-8.4752817"><ele>552.0</ele><time>2026-04-16T10:09:02.861Z</time></trkpt><trkpt lat="42.5462167" lon="-8.4754417"><ele>547.0</ele><time>2026-04-16T10:09:03.86Z</time></trkpt><trkpt lat="42.5460983" lon="-8.4756117"><ele>542.0</ele><time>2026-04-16T10:09:04.861Z</time></trkpt><trkpt lat="42.5459817" lon="-8.4757967"><ele>537.0</ele><time>2026-04-16T10:09:05.86Z</time></trkpt><trkpt lat="42.5458667" lon="-8.4759883"><ele>537.0</ele><time>2026-04-16T10:09:06.861Z</time></trkpt><trkpt lat="42.545755" lon="-8.4761767"><ele>537.0</ele><time>2026-04-16T10:09:07.86Z</time></trkpt><trkpt lat="42.5456367" lon="-8.4763567"><ele>537.0</ele><time>2026-04-16T10:09:08.861Z</time></trkpt><trkpt lat="42.5455183" lon="-8.47653"><ele>538.3333333333334</ele><time>2026-04-16T10:09:09.86Z</time></trkpt><trkpt lat="42.5453833" lon="-8.47671"><ele>539.6666666666667</ele><time>2026-04-16T10:09:10.86Z</time></trkpt><trkpt lat="42.5452417" lon="-8.4769017"><ele>541.0</ele><time>2026-04-16T10:09:11.86Z</time></trkpt><trkpt lat="42.5450967" lon="-8.4771067"><ele>541.0</ele><time>2026-04-16T10:09:12.861Z</time></trkpt><trkpt lat="42.544955" lon="-8.4773117"><ele>541.0</ele><time>2026-04-16T10:09:13.861Z</time></trkpt><trkpt lat="42.5448267" lon="-8.477515"><ele>541.0</ele><time>2026-04-16T10:09:14.86Z</time></trkpt><trkpt lat="42.54472" lon="-8.47773"><ele>544.6666666666667</ele><time>2026-04-16T10:09:15.86Z</time></trkpt><trkpt lat="42.544635" lon="-8.477975"><ele>548.3333333333334</ele><time>2026-04-16T10:09:16.86Z</time></trkpt><trkpt lat="42.5445567" lon="-8.4782033"><ele>552.0</ele><time>2026-04-16T10:09:17.861Z</time></trkpt><trkpt lat="42.5444933" lon="-8.478445"><ele>544.3333333333334</ele><time>2026-04-16T10:09:18.861Z</time></trkpt><trkpt lat="42.5444333" lon="-8.4787117"><ele>536.6666666666667</ele><time>2026-04-16T10:09:19.86Z</time></trkpt><trkpt lat="42.544385" lon="-8.4789917"><ele>529.0</ele><time>2026-04-16T10:09:20.861Z</time></trkpt><trkpt lat="42.5443533" lon="-8.4792917"><ele>529.0</ele><time>2026-04-16T10:09:21.86Z</time></trkpt><trkpt lat="42.5443233" lon="-8.4795767"><ele>529.0</ele><time>2026-04-16T10:09:22.86Z</time></trkpt><trkpt lat="42.5442783" lon="-8.4798733"><ele>529.0</ele><time>2026-04-16T10:09:23.86Z</time></trkpt><trkpt lat="42.5442267" lon="-8.4801783"><ele>532.6666666666667</ele><time>2026-04-16T10:09:24.86Z</time></trkpt><trkpt lat="42.54418" lon="-8.4804617"><ele>536.3333333333334</ele><time>2026-04-16T10:09:25.86Z</time></trkpt><trkpt lat="42.544125" lon="-8.48074"><ele>540.0</ele><time>2026-04-16T10:09:26.861Z</time></trkpt><trkpt lat="42.5440817" lon="-8.4810117"><ele>542.0</ele><time>2026-04-16T10:09:27.861Z</time></trkpt><trkpt lat="42.544045" lon="-8.4812983"><ele>544.0</ele><time>2026-04-16T10:09:28.86Z</time></trkpt><trkpt lat="42.544005" lon="-8.4816017"><ele>546.0</ele><time>2026-04-16T10:09:29.861Z</time></trkpt><trkpt lat="42.5439517" lon="-8.4819083"><ele>548.5</ele><time>2026-04-16T10:09:30.861Z</time></trkpt><trkpt lat="42.5438833" lon="-8.48223"><ele>551.0</ele><time>2026-04-16T10:09:31.861Z</time></trkpt><trkpt lat="42.5438167" lon="-8.4825433"><ele>551.0</ele><time>2026-04-16T10:09:32.861Z</time></trkpt><trkpt lat="42.5437583" lon="-8.4828517"><ele>551.0</ele><time>2026-04-16T10:09:33.86Z</time></trkpt><trkpt lat="42.5437" lon="-8.4831483"><ele>541.5</ele><time>2026-04-16T10:09:34.86Z</time></trkpt><trkpt lat="42.5436367" lon="-8.4834533"><ele>532.0</ele><time>2026-04-16T10:09:35.861Z</time></trkpt><trkpt lat="42.5435717" lon="-8.48374"><ele>533.6666666666667</ele><time>2026-04-16T10:09:36.86Z</time></trkpt><trkpt lat="42.54351" lon="-8.4840067"><ele>535.3333333333334</ele><time>2026-04-16T10:09:37.86Z</time></trkpt><trkpt lat="42.5434533" lon="-8.4842667"><ele>537.0</ele><time>2026-04-16T10:09:38.86Z</time></trkpt><trkpt lat="42.5433967" lon="-8.4845383"><ele>538.0</ele><time>2026-04-16T10:09:39.86Z</time></trkpt><trkpt lat="42.5433483" lon="-8.484815"><ele>539.0</ele><time>2026-04-16T10:09:40.86Z</time></trkpt><trkpt lat="42.54331" lon="-8.485095"><ele>540.0</ele><time>2026-04-16T10:09:41.86Z</time></trkpt><trkpt lat="42.5432717" lon="-8.4853667"><ele>541.3333333333334</ele><time>2026-04-16T10:09:42.86Z</time></trkpt><trkpt lat="42.5432317" lon="-8.4856483"><ele>542.6666666666667</ele><time>2026-04-16T10:09:43.86Z</time></trkpt><trkpt lat="42.5431917" lon="-8.485935"><ele>544.0</ele><time>2026-04-16T10:09:44.86Z</time></trkpt><trkpt lat="42.5431567" lon="-8.486195"><ele>544.6666666666667</ele><time>2026-04-16T10:09:45.86Z</time></trkpt><trkpt lat="42.543135" lon="-8.4864433"><ele>545.3333333333334</ele><time>2026-04-16T10:09:46.86Z</time></trkpt><trkpt lat="42.5431283" lon="-8.486705"><ele>546.0</ele><time>2026-04-16T10:09:47.86Z</time></trkpt><trkpt lat="42.5431333" lon="-8.4869783"><ele>545.3333333333334</ele><time>2026-04-16T10:09:48.861Z</time></trkpt><trkpt lat="42.5431417" lon="-8.487265"><ele>544.6666666666667</ele><time>2026-04-16T10:09:49.861Z</time></trkpt><trkpt lat="42.5431533" lon="-8.48753"><ele>544.0</ele><time>2026-04-16T10:09:50.861Z</time></trkpt><trkpt lat="42.54316" lon="-8.4877517"><ele>543.0</ele><time>2026-04-16T10:09:51.86Z</time></trkpt><trkpt lat="42.5431817" lon="-8.487945"><ele>542.0</ele><time>2026-04-16T10:09:52.861Z</time></trkpt><trkpt lat="42.5432383" lon="-8.4881133"><ele>541.0</ele><time>2026-04-16T10:09:53.86Z</time></trkpt><trkpt lat="42.54333" lon="-8.488275"><ele>540.0</ele><time>2026-04-16T10:09:54.86Z</time></trkpt><trkpt lat="42.5434383" lon="-8.4884267"><ele>540.0</ele><time>2026-04-16T10:09:55.86Z</time></trkpt><trkpt lat="42.5435583" lon="-8.48859"><ele>540.0</ele><time>2026-04-16T10:09:56.86Z</time></trkpt><trkpt lat="42.5436883" lon="-8.4887717"><ele>540.0</ele><time>2026-04-16T10:09:57.86Z</time></trkpt><trkpt lat="42.5438167" lon="-8.488975"><ele>542.25</ele><time>2026-04-16T10:09:58.861Z</time></trkpt><trkpt lat="42.543925" lon="-8.4891533"><ele>544.5</ele><time>2026-04-16T10:09:59.86Z</time></trkpt><trkpt lat="42.5440267" lon="-8.4892883"><ele>546.75</ele><time>2026-04-16T10:10:00.86Z</time></trkpt><trkpt lat="42.5441217" lon="-8.48937"><ele>549.0</ele><time>2026-04-16T10:10:01.86Z</time></trkpt><trkpt lat="42.5442017" lon="-8.4894"><ele>549.0</ele><time>2026-04-16T10:10:02.861Z</time></trkpt><trkpt lat="42.5442733" lon="-8.4893717"><ele>549.0</ele><time>2026-04-16T10:10:03.861Z</time></trkpt><trkpt lat="42.544345" lon="-8.4892833"><ele>549.0</ele><time>2026-04-16T10:10:04.86Z</time></trkpt><trkpt lat="42.5444333" lon="-8.4891417"><ele>549.0</ele><time>2026-04-16T10:10:05.86Z</time></trkpt><trkpt lat="42.5445383" lon="-8.4889717"><ele>547.3333333333334</ele><time>2026-04-16T10:10:06.86Z</time></trkpt><trkpt lat="42.5446683" lon="-8.48878"><ele>545.6666666666667</ele><time>2026-04-16T10:10:07.861Z</time></trkpt><trkpt lat="42.5448033" lon="-8.488615"><ele>544.0</ele><time>2026-04-16T10:10:08.86Z</time></trkpt><trkpt lat="42.5449283" lon="-8.4884933"><ele>546.3333333333334</ele><time>2026-04-16T10:10:09.86Z</time></trkpt><trkpt lat="42.5450567" lon="-8.488415"><ele>548.6666666666666</ele><time>2026-04-16T10:10:10.86Z</time></trkpt><trkpt lat="42.5452083" lon="-8.488365"><ele>551.0</ele><time>2026-04-16T10:10:11.86Z</time></trkpt><trkpt lat="42.5453817" lon="-8.48835"><ele>551.0</ele><time>2026-04-16T10:10:12.86Z</time></trkpt><trkpt lat="42.5455683" lon="-8.4883283"><ele>551.0</ele><time>2026-04-16T10:10:13.861Z</time></trkpt><trkpt lat="42.545755" lon="-8.4882833"><ele>551.0</ele><time>2026-04-16T10:10:14.861Z</time></trkpt><trkpt lat="42.5459383" lon="-8.4882067"><ele>551.0</ele><time>2026-04-16T10:10:15.86Z</time></trkpt><trkpt lat="42.5461183" lon="-8.4880967"><ele>551.0</ele><time>2026-04-16T10:10:16.86Z</time></trkpt><trkpt lat="42.5463083" lon="-8.4879767"><ele>551.0</ele><time>2026-04-16T10:10:17.861Z</time></trkpt><trkpt lat="42.5464967" lon="-8.487845"><ele>551.0</ele><time>2026-04-16T10:10:18.861Z</time></trkpt><trkpt lat="42.5466717" lon="-8.48771"><ele>551.0</ele><time>2026-04-16T10:10:19.86Z</time></trkpt><trkpt lat="42.5468217" lon="-8.487575"><ele>551.0</ele><time>2026-04-16T10:10:20.86Z</time></trkpt><trkpt lat="42.5469567" lon="-8.4874317"><ele>551.3333333333333</ele><time>2026-04-16T10:10:21.86Z</time></trkpt><trkpt lat="42.547075" lon="-8.4872583"><ele>551.6666666666666</ele><time>2026-04-16T10:10:22.86Z</time></trkpt><trkpt lat="42.5471917" lon="-8.4871017"><ele>552.0</ele><time>2026-04-16T10:10:23.86Z</time></trkpt><trkpt lat="42.5472867" lon="-8.4869483"><ele>552.0</ele><time>2026-04-16T10:10:24.86Z</time></trkpt><trkpt lat="42.5473733" lon="-8.4868267"><ele>552.0</ele><time>2026-04-16T10:10:25.86Z</time></trkpt><trkpt lat="42.5474583" lon="-8.4867533"><ele>552.0</ele><time>2026-04-16T10:10:26.86Z</time></trkpt><trkpt lat="42.5475517" lon="-8.4867283"><ele>552.0</ele><time>2026-04-16T10:10:27.86Z</time></trkpt><trkpt lat="42.547655" lon="-8.4867433"><ele>552.0</ele><time>2026-04-16T10:10:28.86Z</time></trkpt><trkpt lat="42.547775" lon="-8.486795"><ele>550.0</ele><time>2026-04-16T10:10:29.861Z</time></trkpt><trkpt lat="42.547925" lon="-8.48685"><ele>548.0</ele><time>2026-04-16T10:10:30.86Z</time></trkpt><trkpt lat="42.5481033" lon="-8.4869233"><ele>546.0</ele><time>2026-04-16T10:10:31.86Z</time></trkpt><trkpt lat="42.5482783" lon="-8.4869967"><ele>546.0</ele><time>2026-04-16T10:10:32.861Z</time></trkpt><trkpt lat="42.54846" lon="-8.48706"><ele>546.0</ele><time>2026-04-16T10:10:33.86Z</time></trkpt><trkpt lat="42.54865" lon="-8.4871183"><ele>546.0</ele><time>2026-04-16T10:10:34.86Z</time></trkpt><trkpt lat="42.54885" lon="-8.4871517"><ele>544.0</ele><time>2026-04-16T10:10:35.861Z</time></trkpt><trkpt lat="42.5490433" lon="-8.48715"><ele>542.0</ele><time>2026-04-16T10:10:36.86Z</time></trkpt><trkpt lat="42.5492333" lon="-8.4871267"><ele>540.0</ele><time>2026-04-16T10:10:37.861Z</time></trkpt><trkpt lat="42.5494217" lon="-8.48711"><ele>542.0</ele><time>2026-04-16T10:10:38.86Z</time></trkpt><trkpt lat="42.5496083" lon="-8.487085"><ele>544.0</ele><time>2026-04-16T10:10:39.86Z</time></trkpt><trkpt lat="42.5497983" lon="-8.4870633"><ele>546.0</ele><time>2026-04-16T10:10:40.861Z</time></trkpt><trkpt lat="42.54998" lon="-8.4870367"><ele>546.0</ele><time>2026-04-16T10:10:41.861Z</time></trkpt><trkpt lat="42.5501533" lon="-8.487015"><ele>546.0</ele><time>2026-04-16T10:10:42.86Z</time></trkpt><trkpt lat="42.550315" lon="-8.4869867"><ele>546.0</ele><time>2026-04-16T10:10:43.86Z</time></trkpt><trkpt lat="42.5504667" lon="-8.4869467"><ele>543.25</ele><time>2026-04-16T10:10:44.86Z</time></trkpt><trkpt lat="42.550605" lon="-8.4868767"><ele>540.5</ele><time>2026-04-16T10:10:45.861Z</time></trkpt><trkpt lat="42.55073" lon="-8.4867817"><ele>537.75</ele><time>2026-04-16T10:10:46.861Z</time></trkpt><trkpt lat="42.550855" lon="-8.4866683"><ele>535.0</ele><time>2026-04-16T10:10:47.86Z</time></trkpt><trkpt lat="42.5509767" lon="-8.48653"><ele>535.0</ele><time>2026-04-16T10:10:48.861Z</time></trkpt><trkpt lat="42.551085" lon="-8.486365"><ele>535.0</ele><time>2026-04-16T10:10:49.861Z</time></trkpt><trkpt lat="42.5512" lon="-8.4861883"><ele>535.0</ele><time>2026-04-16T10:10:50.86Z</time></trkpt><trkpt lat="42.5513067" lon="-8.485985"><ele>534.0</ele><time>2026-04-16T10:10:51.861Z</time></trkpt><trkpt lat="42.5514133" lon="-8.485775"><ele>533.0</ele><time>2026-04-16T10:10:52.86Z</time></trkpt><trkpt lat="42.5515267" lon="-8.485565"><ele>532.0</ele><time>2026-04-16T10:10:53.861Z</time></trkpt><trkpt lat="42.55163" lon="-8.48539"><ele>536.0</ele><time>2026-04-16T10:10:54.861Z</time></trkpt><trkpt lat="42.5517433" lon="-8.4852517"><ele>540.0</ele><time>2026-04-16T10:10:55.86Z</time></trkpt><trkpt lat="42.5518617" lon="-8.4851467"><ele>544.0</ele><time>2026-04-16T10:10:56.861Z</time></trkpt><trkpt lat="42.5520017" lon="-8.48505"><ele>540.75</ele><time>2026-04-16T10:10:57.861Z</time></trkpt><trkpt lat="42.55213" lon="-8.484955"><ele>537.5</ele><time>2026-04-16T10:10:58.861Z</time></trkpt><trkpt lat="42.5522383" lon="-8.4848417"><ele>534.25</ele><time>2026-04-16T10:10:59.861Z</time></trkpt><trkpt lat="42.552345" lon="-8.484705"><ele>531.0</ele><time>2026-04-16T10:11:00.861Z</time></trkpt><trkpt lat="42.55243" lon="-8.4845617"><ele>531.0</ele><time>2026-04-16T10:11:01.861Z</time></trkpt><trkpt lat="42.5524783" lon="-8.4844367"><ele>531.0</ele><time>2026-04-16T10:11:02.861Z</time></trkpt><trkpt lat="42.5524917" lon="-8.4843017"><ele>531.0</ele><time>2026-04-16T10:11:03.861Z</time></trkpt><trkpt lat="42.5524783" lon="-8.4841617"><ele>531.0</ele><time>2026-04-16T10:11:04.86Z</time></trkpt><trkpt lat="42.552445" lon="-8.4839917"><ele>531.0</ele><time>2026-04-16T10:11:05.861Z</time></trkpt><trkpt lat="42.552395" lon="-8.4837933"><ele>531.0</ele><time>2026-04-16T10:11:06.861Z</time></trkpt><trkpt lat="42.552345" lon="-8.4835667"><ele>531.0</ele><time>2026-04-16T10:11:07.861Z</time></trkpt><trkpt lat="42.5522917" lon="-8.48332"><ele>531.0</ele><time>2026-04-16T10:11:08.861Z</time></trkpt><trkpt lat="42.5522317" lon="-8.4830833"><ele>529.5</ele><time>2026-04-16T10:11:09.861Z</time></trkpt><trkpt lat="42.5521717" lon="-8.48288"><ele>528.0</ele><time>2026-04-16T10:11:10.86Z</time></trkpt><trkpt lat="42.5521117" lon="-8.4827133"><ele>526.5</ele><time>2026-04-16T10:11:11.861Z</time></trkpt><trkpt lat="42.5520333" lon="-8.48256"><ele>525.0</ele><time>2026-04-16T10:11:12.86Z</time></trkpt><trkpt lat="42.5519267" lon="-8.4824067"><ele>530.8</ele><time>2026-04-16T10:11:13.86Z</time></trkpt><trkpt lat="42.5518317" lon="-8.4822683"><ele>536.6</ele><time>2026-04-16T10:11:14.86Z</time></trkpt><trkpt lat="42.55178" lon="-8.4821483"><ele>542.4</ele><time>2026-04-16T10:11:15.861Z</time></trkpt><trkpt lat="42.551765" lon="-8.48204"><ele>548.2</ele><time>2026-04-16T10:11:16.86Z</time></trkpt><trkpt lat="42.5517733" lon="-8.4819417"><ele>554.0</ele><time>2026-04-16T10:11:17.861Z</time></trkpt><trkpt lat="42.5518117" lon="-8.48183"><ele>554.0</ele><time>2026-04-16T10:11:18.86Z</time></trkpt><trkpt lat="42.5518783" lon="-8.4816983"><ele>554.0</ele><time>2026-04-16T10:11:19.86Z</time></trkpt><trkpt lat="42.551975" lon="-8.4815433"><ele>554.0</ele><time>2026-04-16T10:11:20.861Z</time></trkpt><trkpt lat="42.552095" lon="-8.481365"><ele>554.0</ele><time>2026-04-16T10:11:21.861Z</time></trkpt><trkpt lat="42.5522267" lon="-8.481175"><ele>550.0</ele><time>2026-04-16T10:11:22.86Z</time></trkpt><trkpt lat="42.5523583" lon="-8.4809783"><ele>546.0</ele><time>2026-04-16T10:11:23.86Z</time></trkpt><trkpt lat="42.5525" lon="-8.4807933"><ele>542.0</ele><time>2026-04-16T10:11:24.861Z</time></trkpt><trkpt lat="42.5526633" lon="-8.4806117"><ele>542.0</ele><time>2026-04-16T10:11:25.861Z</time></trkpt><trkpt lat="42.5528317" lon="-8.4804333"><ele>542.0</ele><time>2026-04-16T10:11:26.86Z</time></trkpt><trkpt lat="42.55302" lon="-8.48026"><ele>542.0</ele><time>2026-04-16T10:11:27.86Z</time></trkpt><trkpt lat="42.553195" lon="-8.480075"><ele>541.0</ele><time>2026-04-16T10:11:28.861Z</time></trkpt><trkpt lat="42.5533617" lon="-8.4799033"><ele>540.0</ele><time>2026-04-16T10:11:29.86Z</time></trkpt><trkpt lat="42.5535317" lon="-8.479745"><ele>539.0</ele><time>2026-04-16T10:11:30.86Z</time></trkpt><trkpt lat="42.5536917" lon="-8.4795833"><ele>538.3333333333333</ele><time>2026-04-16T10:11:31.861Z</time></trkpt><trkpt lat="42.553825" lon="-8.4794217"><ele>537.6666666666666</ele><time>2026-04-16T10:11:32.86Z</time></trkpt><trkpt lat="42.5539367" lon="-8.47923"><ele>537.0</ele><time>2026-04-16T10:11:33.86Z</time></trkpt><trkpt lat="42.5540217" lon="-8.4790567"><ele>537.0</ele><time>2026-04-16T10:11:34.86Z</time></trkpt><trkpt lat="42.5540883" lon="-8.4788883"><ele>537.0</ele><time>2026-04-16T10:11:35.86Z</time></trkpt><trkpt lat="42.5541267" lon="-8.4787133"><ele>537.0</ele><time>2026-04-16T10:11:36.86Z</time></trkpt><trkpt lat="42.5541467" lon="-8.47854"><ele>537.0</ele><time>2026-04-16T10:11:37.861Z</time></trkpt><trkpt lat="42.5541367" lon="-8.47837"><ele>539.0</ele><time>2026-04-16T10:11:38.86Z</time></trkpt><trkpt lat="42.5540967" lon="-8.4782033"><ele>541.0</ele><time>2026-04-16T10:11:39.86Z</time></trkpt><trkpt lat="42.55405" lon="-8.478045"><ele>543.0</ele><time>2026-04-16T10:11:40.86Z</time></trkpt><trkpt lat="42.5540117" lon="-8.4778917"><ele>545.0</ele><time>2026-04-16T10:11:41.86Z</time></trkpt><trkpt lat="42.5540067" lon="-8.4777417"><ele>545.0</ele><time>2026-04-16T10:11:42.86Z</time></trkpt><trkpt lat="42.5540367" lon="-8.4775833"><ele>545.0</ele><time>2026-04-16T10:11:43.86Z</time></trkpt><trkpt lat="42.55408" lon="-8.4774083"><ele>545.0</ele><time>2026-04-16T10:11:44.861Z</time></trkpt><trkpt lat="42.5541117" lon="-8.4772067"><ele>545.0</ele><time>2026-04-16T10:11:45.861Z</time></trkpt><trkpt lat="42.55412" lon="-8.4770167"><ele>544.4</ele><time>2026-04-16T10:11:46.86Z</time></trkpt><trkpt lat="42.55411" lon="-8.47685"><ele>543.8</ele><time>2026-04-16T10:11:47.86Z</time></trkpt><trkpt lat="42.5541067" lon="-8.476685"><ele>543.2</ele><time>2026-04-16T10:11:48.861Z</time></trkpt><trkpt lat="42.554115" lon="-8.4765633"><ele>542.6</ele><time>2026-04-16T10:11:49.86Z</time></trkpt><trkpt lat="42.5541383" lon="-8.4764683"><ele>542.0</ele><time>2026-04-16T10:11:50.86Z</time></trkpt><trkpt lat="42.5541883" lon="-8.4764"><ele>542.0</ele><time>2026-04-16T10:11:51.861Z</time></trkpt><trkpt lat="42.5542533" lon="-8.4763533"><ele>542.0</ele><time>2026-04-16T10:11:52.861Z</time></trkpt><trkpt lat="42.5543467" lon="-8.4763483"><ele>542.0</ele><time>2026-04-16T10:11:53.861Z</time></trkpt><trkpt lat="42.5544633" lon="-8.4763583"><ele>542.0</ele><time>2026-04-16T10:11:54.861Z</time></trkpt><trkpt lat="42.5545667" lon="-8.4763717"><ele>542.0</ele><time>2026-04-16T10:11:55.861Z</time></trkpt><trkpt lat="42.554665" lon="-8.47638"><ele>539.75</ele><time>2026-04-16T10:11:56.86Z</time></trkpt><trkpt lat="42.5547833" lon="-8.476375"><ele>537.5</ele><time>2026-04-16T10:11:57.861Z</time></trkpt><trkpt lat="42.5549217" lon="-8.47636"><ele>535.25</ele><time>2026-04-16T10:11:58.861Z</time></trkpt><trkpt lat="42.555065" lon="-8.4763233"><ele>533.0</ele><time>2026-04-16T10:11:59.861Z</time></trkpt><trkpt lat="42.555205" lon="-8.4762983"><ele>530.75</ele><time>2026-04-16T10:12:00.86Z</time></trkpt><trkpt lat="42.5553417" lon="-8.47626"><ele>528.5</ele><time>2026-04-16T10:12:01.861Z</time></trkpt><trkpt lat="42.55548" lon="-8.4762233"><ele>526.25</ele><time>2026-04-16T10:12:02.861Z</time></trkpt><trkpt lat="42.5556033" lon="-8.4761933"><ele>524.0</ele><time>2026-04-16T10:12:03.86Z</time></trkpt><trkpt lat="42.5557167" lon="-8.4761583"><ele>522.0</ele><time>2026-04-16T10:12:04.86Z</time></trkpt><trkpt lat="42.5558333" lon="-8.476125"><ele>520.0</ele><time>2026-04-16T10:12:05.86Z</time></trkpt><trkpt lat="42.5559583" lon="-8.4760917"><ele>518.0</ele><time>2026-04-16T10:12:06.861Z</time></trkpt><trkpt lat="42.5560817" lon="-8.4760717"><ele>516.0</ele><time>2026-04-16T10:12:07.861Z</time></trkpt><trkpt lat="42.5561933" lon="-8.476045"><ele>516.2</ele><time>2026-04-16T10:12:08.861Z</time></trkpt><trkpt lat="42.5563033" lon="-8.4760267"><ele>516.4000000000001</ele><time>2026-04-16T10:12:09.861Z</time></trkpt><trkpt lat="42.5563967" lon="-8.4760233"><ele>516.6</ele><time>2026-04-16T10:12:10.86Z</time></trkpt><trkpt lat="42.5564733" lon="-8.4760283"><ele>516.8000000000001</ele><time>2026-04-16T10:12:11.861Z</time></trkpt><trkpt lat="42.5565483" lon="-8.4760567"><ele>517.0</ele><time>2026-04-16T10:12:12.861Z</time></trkpt><trkpt lat="42.5566367" lon="-8.4761067"><ele>517.0</ele><time>2026-04-16T10:12:13.861Z</time></trkpt><trkpt lat="42.556715" lon="-8.4761567"><ele>517.0</ele><time>2026-04-16T10:12:14.86Z</time></trkpt><trkpt lat="42.5568" lon="-8.4761867"><ele>517.0</ele><time>2026-04-16T10:12:15.861Z</time></trkpt><trkpt lat="42.556885" lon="-8.4761917"><ele>517.0</ele><time>2026-04-16T10:12:16.86Z</time></trkpt><trkpt lat="42.5569767" lon="-8.476215"><ele>517.0</ele><time>2026-04-16T10:12:18.861Z</time></trkpt><trkpt lat="42.5569" lon="-8.47624"><ele>517.0</ele><time>2026-04-16T10:12:21.861Z</time></trkpt><trkpt lat="42.556835" lon="-8.4762433"><ele>517.8000000000001</ele><time>2026-04-16T10:12:22.86Z</time></trkpt><trkpt lat="42.556765" lon="-8.47633"><ele>518.6</ele><time>2026-04-16T10:12:24.861Z</time></trkpt><trkpt lat="42.5567583" lon="-8.4764533"><ele>519.4000000000001</ele><time>2026-04-16T10:12:25.86Z</time></trkpt><trkpt lat="42.5567583" lon="-8.4765983"><ele>520.2</ele><time>2026-04-16T10:12:26.86Z</time></trkpt><trkpt lat="42.5567667" lon="-8.476795"><ele>521.0</ele><time>2026-04-16T10:12:27.861Z</time></trkpt><trkpt lat="42.5567867" lon="-8.4770083"><ele>520.3333333333333</ele><time>2026-04-16T10:12:28.861Z</time></trkpt><trkpt lat="42.55682" lon="-8.4772433"><ele>519.6666666666666</ele><time>2026-04-16T10:12:29.86Z</time></trkpt><trkpt lat="42.556845" lon="-8.4774817"><ele>519.0</ele><time>2026-04-16T10:12:30.86Z</time></trkpt><trkpt lat="42.5568633" lon="-8.4777133"><ele>516.6666666666666</ele><time>2026-04-16T10:12:31.86Z</time></trkpt><trkpt lat="42.556885" lon="-8.4779383"><ele>514.3333333333333</ele><time>2026-04-16T10:12:32.86Z</time></trkpt><trkpt lat="42.5569183" lon="-8.4781467"><ele>512.0</ele><time>2026-04-16T10:12:33.86Z</time></trkpt><trkpt lat="42.5569533" lon="-8.47832"><ele>512.0</ele><time>2026-04-16T10:12:34.86Z</time></trkpt><trkpt lat="42.5569767" lon="-8.478455"><ele>512.0</ele><time>2026-04-16T10:12:35.86Z</time></trkpt><trkpt lat="42.5569867" lon="-8.4785667"><ele>512.0</ele><time>2026-04-16T10:12:36.861Z</time></trkpt><trkpt lat="42.556975" lon="-8.47868"><ele>512.0</ele><time>2026-04-16T10:12:37.861Z</time></trkpt><trkpt lat="42.5569533" lon="-8.478805"><ele>512.0</ele><time>2026-04-16T10:12:38.86Z</time></trkpt><trkpt lat="42.5569367" lon="-8.4789517"><ele>512.0</ele><time>2026-04-16T10:12:39.86Z</time></trkpt><trkpt lat="42.5569267" lon="-8.4791283"><ele>512.0</ele><time>2026-04-16T10:12:40.861Z</time></trkpt><trkpt lat="42.5569033" lon="-8.47931"><ele>512.0</ele><time>2026-04-16T10:12:41.86Z</time></trkpt><trkpt lat="42.5568683" lon="-8.4794717"><ele>512.0</ele><time>2026-04-16T10:12:42.86Z</time></trkpt><trkpt lat="42.5568367" lon="-8.4796283"><ele>512.6</ele><time>2026-04-16T10:12:43.861Z</time></trkpt><trkpt lat="42.55681" lon="-8.4797783"><ele>513.2</ele><time>2026-04-16T10:12:44.861Z</time></trkpt><trkpt lat="42.5567867" lon="-8.4799167"><ele>513.8</ele><time>2026-04-16T10:12:45.861Z</time></trkpt><trkpt lat="42.55677" lon="-8.4800483"><ele>514.4</ele><time>2026-04-16T10:12:46.86Z</time></trkpt><trkpt lat="42.5567683" lon="-8.4801767"><ele>515.0</ele><time>2026-04-16T10:12:47.86Z</time></trkpt><trkpt lat="42.5567683" lon="-8.48031"><ele>516.4</ele><time>2026-04-16T10:12:48.861Z</time></trkpt><trkpt lat="42.5567767" lon="-8.48046"><ele>517.8</ele><time>2026-04-16T10:12:49.86Z</time></trkpt><trkpt lat="42.5567767" lon="-8.4806017"><ele>519.2</ele><time>2026-04-16T10:12:50.86Z</time></trkpt><trkpt lat="42.55676" lon="-8.4807133"><ele>520.6</ele><time>2026-04-16T10:12:51.861Z</time></trkpt><trkpt lat="42.5566883" lon="-8.4808317"><ele>522.0</ele><time>2026-04-16T10:12:53.861Z</time></trkpt><trkpt lat="42.55666" lon="-8.48091"><ele>522.0</ele><time>2026-04-16T10:12:54.861Z</time></trkpt><trkpt lat="42.55663" lon="-8.4810167"><ele>522.0</ele><time>2026-04-16T10:12:55.861Z</time></trkpt><trkpt lat="42.5566117" lon="-8.48116"><ele>522.0</ele><time>2026-04-16T10:12:56.86Z</time></trkpt><trkpt lat="42.5566067" lon="-8.481325"><ele>522.0</ele><time>2026-04-16T10:12:57.86Z</time></trkpt><trkpt lat="42.5566167" lon="-8.48148"><ele>522.0</ele><time>2026-04-16T10:12:58.861Z</time></trkpt><trkpt lat="42.5566283" lon="-8.4815783"><ele>522.0</ele><time>2026-04-16T10:12:59.861Z</time></trkpt><trkpt lat="42.5566733" lon="-8.4814617"><ele>522.0</ele><time>2026-04-16T10:13:04.86Z</time></trkpt><trkpt lat="42.5566783" lon="-8.4813633"><ele>522.0</ele><time>2026-04-16T10:13:05.86Z</time></trkpt><trkpt lat="42.5567033" lon="-8.4812533"><ele>522.0</ele><time>2026-04-16T10:13:06.861Z</time></trkpt><trkpt lat="42.5567517" lon="-8.4811567"><ele>522.0</ele><time>2026-04-16T10:13:07.861Z</time></trkpt><trkpt lat="42.5568167" lon="-8.4810683"><ele>522.0</ele><time>2026-04-16T10:13:08.86Z</time></trkpt><trkpt lat="42.556895" lon="-8.480975"><ele>522.0</ele><time>2026-04-16T10:13:09.86Z</time></trkpt><trkpt lat="42.5569817" lon="-8.480875"><ele>522.0</ele><time>2026-04-16T10:13:10.861Z</time></trkpt><trkpt lat="42.5570683" lon="-8.4807767"><ele>522.0</ele><time>2026-04-16T10:13:11.861Z</time></trkpt><trkpt lat="42.5571367" lon="-8.4806833"><ele>522.0</ele><time>2026-04-16T10:13:12.86Z</time></trkpt><trkpt lat="42.5571933" lon="-8.4806083"><ele>522.0</ele><time>2026-04-16T10:13:13.86Z</time></trkpt><trkpt lat="42.5572267" lon="-8.480535"><ele>525.0</ele><time>2026-04-16T10:13:14.861Z</time></trkpt><trkpt lat="42.5572483" lon="-8.4804517"><ele>528.0</ele><time>2026-04-16T10:13:15.86Z</time></trkpt><trkpt lat="42.55727" lon="-8.480345"><ele>531.0</ele><time>2026-04-16T10:13:16.86Z</time></trkpt><trkpt lat="42.557295" lon="-8.4802183"><ele>534.0</ele><time>2026-04-16T10:13:17.86Z</time></trkpt><trkpt lat="42.55733" lon="-8.4800683"><ele>537.0</ele><time>2026-04-16T10:13:18.86Z</time></trkpt><trkpt lat="42.557385" lon="-8.4799233"><ele>537.0</ele><time>2026-04-16T10:13:19.86Z</time></trkpt><trkpt lat="42.55743" lon="-8.47981"><ele>537.0</ele><time>2026-04-16T10:13:20.86Z</time></trkpt><trkpt lat="42.5574717" lon="-8.4797317"><ele>537.0</ele><time>2026-04-16T10:13:21.86Z</time></trkpt><trkpt lat="42.55755" lon="-8.4796867"><ele>537.0</ele><time>2026-04-16T10:13:23.861Z</time></trkpt><trkpt lat="42.5575783" lon="-8.4797933"><ele>537.0</ele><time>2026-04-16T10:13:26.86Z</time></trkpt><trkpt lat="42.5575617" lon="-8.4798767"><ele>537.0</ele><time>2026-04-16T10:13:27.861Z</time></trkpt><trkpt lat="42.5575433" lon="-8.4800033"><ele>537.0</ele><time>2026-04-16T10:13:28.861Z</time></trkpt><trkpt lat="42.5575467" lon="-8.480165"><ele>537.0</ele><time>2026-04-16T10:13:29.86Z</time></trkpt><trkpt lat="42.5575817" lon="-8.48033"><ele>537.0</ele><time>2026-04-16T10:13:30.86Z</time></trkpt><trkpt lat="42.557625" lon="-8.4804883"><ele>537.0</ele><time>2026-04-16T10:13:31.86Z</time></trkpt><trkpt lat="42.55767" lon="-8.48065"><ele>537.0</ele><time>2026-04-16T10:13:32.86Z</time></trkpt><trkpt lat="42.5577067" lon="-8.4808033"><ele>537.0</ele><time>2026-04-16T10:13:33.861Z</time></trkpt><trkpt lat="42.557725" lon="-8.4809483"><ele>537.0</ele><time>2026-04-16T10:13:34.861Z</time></trkpt><trkpt lat="42.5577283" lon="-8.4810917"><ele>537.0</ele><time>2026-04-16T10:13:35.861Z</time></trkpt><trkpt lat="42.5577133" lon="-8.481265"><ele>539.0</ele><time>2026-04-16T10:13:36.86Z</time></trkpt><trkpt lat="42.557685" lon="-8.4814617"><ele>541.0</ele><time>2026-04-16T10:13:37.861Z</time></trkpt><trkpt lat="42.5576483" lon="-8.4816583"><ele>543.0</ele><time>2026-04-16T10:13:38.861Z</time></trkpt><trkpt lat="42.5575833" lon="-8.4818233"><ele>545.0</ele><time>2026-04-16T10:13:39.861Z</time></trkpt><trkpt lat="42.557495" lon="-8.4819883"><ele>547.0</ele><time>2026-04-16T10:13:40.86Z</time></trkpt><trkpt lat="42.5574067" lon="-8.48216"><ele>549.0</ele><time>2026-04-16T10:13:41.861Z</time></trkpt><trkpt lat="42.5573317" lon="-8.482335"><ele>551.0</ele><time>2026-04-16T10:13:42.861Z</time></trkpt><trkpt lat="42.55728" lon="-8.482525"><ele>551.0</ele><time>2026-04-16T10:13:43.861Z</time></trkpt><trkpt lat="42.55725" lon="-8.4827317"><ele>551.0</ele><time>2026-04-16T10:13:44.86Z</time></trkpt><trkpt lat="42.557245" lon="-8.4829367"><ele>551.0</ele><time>2026-04-16T10:13:45.861Z</time></trkpt><trkpt lat="42.5572667" lon="-8.4831383"><ele>551.0</ele><time>2026-04-16T10:13:46.861Z</time></trkpt><trkpt lat="42.5573133" lon="-8.4833267"><ele>551.0</ele><time>2026-04-16T10:13:47.86Z</time></trkpt><trkpt lat="42.5573767" lon="-8.483465"><ele>551.0</ele><time>2026-04-16T10:13:48.861Z</time></trkpt><trkpt lat="42.5574683" lon="-8.4836017"><ele>551.0</ele><time>2026-04-16T10:13:49.86Z</time></trkpt><trkpt lat="42.557565" lon="-8.48376"><ele>548.3333333333333</ele><time>2026-04-16T10:13:50.861Z</time></trkpt><trkpt lat="42.5576617" lon="-8.48392"><ele>545.6666666666666</ele><time>2026-04-16T10:13:51.86Z</time></trkpt><trkpt lat="42.5577617" lon="-8.484085"><ele>543.0</ele><time>2026-04-16T10:13:52.861Z</time></trkpt><trkpt lat="42.557875" lon="-8.48426"><ele>547.3333333333334</ele><time>2026-04-16T10:13:53.86Z</time></trkpt><trkpt lat="42.5580017" lon="-8.4844717"><ele>551.6666666666667</ele><time>2026-04-16T10:13:54.861Z</time></trkpt><trkpt lat="42.5581267" lon="-8.48471"><ele>556.0</ele><time>2026-04-16T10:13:55.861Z</time></trkpt><trkpt lat="42.55824" lon="-8.484945"><ele>556.0</ele><time>2026-04-16T10:13:56.86Z</time></trkpt><trkpt lat="42.5583417" lon="-8.4851783"><ele>556.0</ele><time>2026-04-16T10:13:57.86Z</time></trkpt><trkpt lat="42.5584367" lon="-8.4854133"><ele>556.0</ele><time>2026-04-16T10:13:58.86Z</time></trkpt><trkpt lat="42.55853" lon="-8.4856633"><ele>558.0</ele><time>2026-04-16T10:13:59.86Z</time></trkpt><trkpt lat="42.5586267" lon="-8.4859167"><ele>560.0</ele><time>2026-04-16T10:14:00.861Z</time></trkpt><trkpt lat="42.5587317" lon="-8.486175"><ele>562.0</ele><time>2026-04-16T10:14:01.86Z</time></trkpt><trkpt lat="42.55883" lon="-8.48642"><ele>562.0</ele><time>2026-04-16T10:14:02.86Z</time></trkpt><trkpt lat="42.5589133" lon="-8.48665"><ele>562.0</ele><time>2026-04-16T10:14:03.861Z</time></trkpt><trkpt lat="42.5589833" lon="-8.4868467"><ele>562.0</ele><time>2026-04-16T10:14:04.86Z</time></trkpt><trkpt lat="42.55905" lon="-8.4870183"><ele>558.25</ele><time>2026-04-16T10:14:05.861Z</time></trkpt><trkpt lat="42.559135" lon="-8.4871483"><ele>554.5</ele><time>2026-04-16T10:14:06.861Z</time></trkpt><trkpt lat="42.559225" lon="-8.48723"><ele>550.75</ele><time>2026-04-16T10:14:07.861Z</time></trkpt><trkpt lat="42.5593467" lon="-8.4872783"><ele>547.0</ele><time>2026-04-16T10:14:08.86Z</time></trkpt><trkpt lat="42.5594883" lon="-8.4873117"><ele>547.0</ele><time>2026-04-16T10:14:09.861Z</time></trkpt><trkpt lat="42.559645" lon="-8.4873183"><ele>547.0</ele><time>2026-04-16T10:14:10.86Z</time></trkpt><trkpt lat="42.5598117" lon="-8.4872967"><ele>547.0</ele><time>2026-04-16T10:14:11.861Z</time></trkpt><trkpt lat="42.55998" lon="-8.487245"><ele>547.0</ele><time>2026-04-16T10:14:12.86Z</time></trkpt><trkpt lat="42.5601533" lon="-8.487155"><ele>547.0</ele><time>2026-04-16T10:14:13.86Z</time></trkpt><trkpt lat="42.5603183" lon="-8.4870333"><ele>547.0</ele><time>2026-04-16T10:14:14.86Z</time></trkpt><trkpt lat="42.5604833" lon="-8.4868983"><ele>551.0</ele><time>2026-04-16T10:14:15.861Z</time></trkpt><trkpt lat="42.56064" lon="-8.4867383"><ele>555.0</ele><time>2026-04-16T10:14:16.86Z</time></trkpt><trkpt lat="42.5607867" lon="-8.4865633"><ele>559.0</ele><time>2026-04-16T10:14:17.861Z</time></trkpt><trkpt lat="42.56092" lon="-8.4864"><ele>561.3333333333334</ele><time>2026-04-16T10:14:18.861Z</time></trkpt><trkpt lat="42.56104" lon="-8.4862367"><ele>563.6666666666666</ele><time>2026-04-16T10:14:19.86Z</time></trkpt><trkpt lat="42.56115" lon="-8.4860867"><ele>566.0</ele><time>2026-04-16T10:14:20.861Z</time></trkpt><trkpt lat="42.56125" lon="-8.4859383"><ele>566.0</ele><time>2026-04-16T10:14:21.86Z</time></trkpt><trkpt lat="42.5613633" lon="-8.4857983"><ele>566.0</ele><time>2026-04-16T10:14:22.86Z</time></trkpt><trkpt lat="42.5614783" lon="-8.4856717"><ele>566.0</ele><time>2026-04-16T10:14:23.86Z</time></trkpt><trkpt lat="42.5615867" lon="-8.4855867"><ele>566.0</ele><time>2026-04-16T10:14:24.86Z</time></trkpt><trkpt lat="42.56168" lon="-8.48554"><ele>566.0</ele><time>2026-04-16T10:14:25.861Z</time></trkpt><trkpt lat="42.5617733" lon="-8.48551"><ele>566.0</ele><time>2026-04-16T10:14:26.861Z</time></trkpt><trkpt lat="42.5618733" lon="-8.485535"><ele>566.0</ele><time>2026-04-16T10:14:27.86Z</time></trkpt><trkpt lat="42.5619783" lon="-8.4856067"><ele>566.0</ele><time>2026-04-16T10:14:28.86Z</time></trkpt><trkpt lat="42.5621067" lon="-8.4857333"><ele>570.3333333333333</ele><time>2026-04-16T10:14:29.86Z</time></trkpt><trkpt lat="42.5622367" lon="-8.48589"><ele>574.6666666666666</ele><time>2026-04-16T10:14:30.861Z</time></trkpt><trkpt lat="42.562345" lon="-8.486055"><ele>579.0</ele><time>2026-04-16T10:14:31.86Z</time></trkpt><trkpt lat="42.5624383" lon="-8.4862317"><ele>576.0</ele><time>2026-04-16T10:14:32.86Z</time></trkpt><trkpt lat="42.5625067" lon="-8.4864333"><ele>573.0</ele><time>2026-04-16T10:14:33.86Z</time></trkpt><trkpt lat="42.5625533" lon="-8.4866233"><ele>570.0</ele><time>2026-04-16T10:14:34.86Z</time></trkpt><trkpt lat="42.5625967" lon="-8.48676"><ele>567.0</ele><time>2026-04-16T10:14:35.86Z</time></trkpt><trkpt lat="42.5626583" lon="-8.486835"><ele>567.0</ele><time>2026-04-16T10:14:36.86Z</time></trkpt><trkpt lat="42.5627517" lon="-8.4868633"><ele>567.0</ele><time>2026-04-16T10:14:37.861Z</time></trkpt><trkpt lat="42.562865" lon="-8.486825"><ele>567.0</ele><time>2026-04-16T10:14:38.86Z</time></trkpt><trkpt lat="42.5629967" lon="-8.48674"><ele>567.0</ele><time>2026-04-16T10:14:39.86Z</time></trkpt><trkpt lat="42.5631517" lon="-8.4866283"><ele>567.3333333333334</ele><time>2026-04-16T10:14:40.86Z</time></trkpt><trkpt lat="42.5633183" lon="-8.4865"><ele>567.6666666666667</ele><time>2026-04-16T10:14:41.86Z</time></trkpt><trkpt lat="42.5635033" lon="-8.4863583"><ele>568.0</ele><time>2026-04-16T10:14:42.861Z</time></trkpt><trkpt lat="42.5636983" lon="-8.4862117"><ele>569.6666666666667</ele><time>2026-04-16T10:14:43.861Z</time></trkpt><trkpt lat="42.563875" lon="-8.4860683"><ele>571.3333333333334</ele><time>2026-04-16T10:14:44.86Z</time></trkpt><trkpt lat="42.5640233" lon="-8.4859083"><ele>573.0</ele><time>2026-04-16T10:14:45.86Z</time></trkpt><trkpt lat="42.5641533" lon="-8.485765"><ele>573.0</ele><time>2026-04-16T10:14:46.86Z</time></trkpt><trkpt lat="42.5642283" lon="-8.48563"><ele>573.0</ele><time>2026-04-16T10:14:47.86Z</time></trkpt><trkpt lat="42.564265" lon="-8.4855383"><ele>573.0</ele><time>2026-04-16T10:14:48.861Z</time></trkpt><trkpt lat="42.5642633" lon="-8.4854517"><ele>573.0</ele><time>2026-04-16T10:14:49.861Z</time></trkpt><trkpt lat="42.5642333" lon="-8.48533"><ele>573.0</ele><time>2026-04-16T10:14:50.861Z</time></trkpt><trkpt lat="42.5642217" lon="-8.4851667"><ele>575.5</ele><time>2026-04-16T10:14:51.861Z</time></trkpt><trkpt lat="42.5642317" lon="-8.4849733"><ele>578.0</ele><time>2026-04-16T10:14:52.861Z</time></trkpt><trkpt lat="42.56427" lon="-8.4847617"><ele>580.5</ele><time>2026-04-16T10:14:53.86Z</time></trkpt><trkpt lat="42.56433" lon="-8.4845817"><ele>583.0</ele><time>2026-04-16T10:14:54.861Z</time></trkpt><trkpt lat="42.5644" lon="-8.4844383"><ele>585.0</ele><time>2026-04-16T10:14:55.86Z</time></trkpt><trkpt lat="42.56448" lon="-8.4843383"><ele>587.0</ele><time>2026-04-16T10:14:56.861Z</time></trkpt><trkpt lat="42.5645567" lon="-8.4842883"><ele>589.0</ele><time>2026-04-16T10:14:57.86Z</time></trkpt><trkpt lat="42.564645" lon="-8.4842833"><ele>591.0</ele><time>2026-04-16T10:14:58.861Z</time></trkpt><trkpt lat="42.5647567" lon="-8.484315"><ele>593.0</ele><time>2026-04-16T10:14:59.861Z</time></trkpt><trkpt lat="42.5648933" lon="-8.4843683"><ele>593.0</ele><time>2026-04-16T10:15:00.86Z</time></trkpt><trkpt lat="42.5650533" lon="-8.4844283"><ele>593.0</ele><time>2026-04-16T10:15:01.86Z</time></trkpt><trkpt lat="42.5652383" lon="-8.4844883"><ele>593.0</ele><time>2026-04-16T10:15:02.86Z</time></trkpt><trkpt lat="42.5654483" lon="-8.484555"><ele>587.0</ele><time>2026-04-16T10:15:03.86Z</time></trkpt><trkpt lat="42.5656433" lon="-8.4846267"><ele>581.0</ele><time>2026-04-16T10:15:04.86Z</time></trkpt><trkpt lat="42.5658317" lon="-8.4846917"><ele>575.0</ele><time>2026-04-16T10:15:05.86Z</time></trkpt><trkpt lat="42.5660233" lon="-8.484725"><ele>576.0</ele><time>2026-04-16T10:15:06.861Z</time></trkpt><trkpt lat="42.5662117" lon="-8.4847383"><ele>577.0</ele><time>2026-04-16T10:15:07.861Z</time></trkpt><trkpt lat="42.5663917" lon="-8.48471"><ele>578.0</ele><time>2026-04-16T10:15:08.861Z</time></trkpt><trkpt lat="42.5665467" lon="-8.48465"><ele>582.75</ele><time>2026-04-16T10:15:09.86Z</time></trkpt><trkpt lat="42.56668" lon="-8.4845583"><ele>587.5</ele><time>2026-04-16T10:15:10.861Z</time></trkpt><trkpt lat="42.5667967" lon="-8.4844533"><ele>592.25</ele><time>2026-04-16T10:15:11.861Z</time></trkpt><trkpt lat="42.56691" lon="-8.484375"><ele>597.0</ele><time>2026-04-16T10:15:12.86Z</time></trkpt><trkpt lat="42.5670333" lon="-8.4843367"><ele>597.0</ele><time>2026-04-16T10:15:13.86Z</time></trkpt><trkpt lat="42.5671817" lon="-8.4843333"><ele>597.0</ele><time>2026-04-16T10:15:14.86Z</time></trkpt><trkpt lat="42.5673517" lon="-8.4843667"><ele>597.0</ele><time>2026-04-16T10:15:15.861Z</time></trkpt><trkpt lat="42.5675233" lon="-8.4843933"><ele>597.0</ele><time>2026-04-16T10:15:16.86Z</time></trkpt><trkpt lat="42.5676733" lon="-8.4843767"><ele>597.0</ele><time>2026-04-16T10:15:17.86Z</time></trkpt><trkpt lat="42.5678083" lon="-8.484325"><ele>597.0</ele><time>2026-04-16T10:15:18.86Z</time></trkpt><trkpt lat="42.5679367" lon="-8.4842133"><ele>597.0</ele><time>2026-04-16T10:15:19.861Z</time></trkpt><trkpt lat="42.5680633" lon="-8.4840617"><ele>599.0</ele><time>2026-04-16T10:15:20.86Z</time></trkpt><trkpt lat="42.5681717" lon="-8.4838817"><ele>601.0</ele><time>2026-04-16T10:15:21.86Z</time></trkpt><trkpt lat="42.5682483" lon="-8.4837117"><ele>603.0</ele><time>2026-04-16T10:15:22.86Z</time></trkpt><trkpt lat="42.5683167" lon="-8.483575"><ele>605.0</ele><time>2026-04-16T10:15:23.862Z</time></trkpt><trkpt lat="42.5683833" lon="-8.4834817"><ele>605.0</ele><time>2026-04-16T10:15:24.861Z</time></trkpt><trkpt lat="42.5684583" lon="-8.48343"><ele>605.0</ele><time>2026-04-16T10:15:25.861Z</time></trkpt><trkpt lat="42.5685583" lon="-8.4834117"><ele>605.0</ele><time>2026-04-16T10:15:26.862Z</time></trkpt><trkpt lat="42.5686883" lon="-8.4834267"><ele>605.0</ele><time>2026-04-16T10:15:27.862Z</time></trkpt><trkpt lat="42.56885" lon="-8.48347"><ele>603.6666666666666</ele><time>2026-04-16T10:15:28.861Z</time></trkpt><trkpt lat="42.5690317" lon="-8.483505"><ele>602.3333333333334</ele><time>2026-04-16T10:15:29.861Z</time></trkpt><trkpt lat="42.56921" lon="-8.483505"><ele>601.0</ele><time>2026-04-16T10:15:30.861Z</time></trkpt><trkpt lat="42.5693833" lon="-8.4834733"><ele>599.0</ele><time>2026-04-16T10:15:31.862Z</time></trkpt><trkpt lat="42.5695267" lon="-8.483405"><ele>597.0</ele><time>2026-04-16T10:15:32.861Z</time></trkpt><trkpt lat="42.569645" lon="-8.4833083"><ele>595.0</ele><time>2026-04-16T10:15:33.862Z</time></trkpt><trkpt lat="42.56976" lon="-8.4831617"><ele>593.0</ele><time>2026-04-16T10:15:34.861Z</time></trkpt><trkpt lat="42.569885" lon="-8.4829933"><ele>593.6666666666666</ele><time>2026-04-16T10:15:35.862Z</time></trkpt><trkpt lat="42.5700333" lon="-8.482825"><ele>594.3333333333334</ele><time>2026-04-16T10:15:36.862Z</time></trkpt><trkpt lat="42.5702017" lon="-8.48265"><ele>595.0</ele><time>2026-04-16T10:15:37.861Z</time></trkpt><trkpt lat="42.5703817" lon="-8.4824733"><ele>595.0</ele><time>2026-04-16T10:15:38.862Z</time></trkpt><trkpt lat="42.5705767" lon="-8.4822967"><ele>595.0</ele><time>2026-04-16T10:15:39.862Z</time></trkpt><trkpt lat="42.570745" lon="-8.4821333"><ele>595.0</ele><time>2026-04-16T10:15:40.861Z</time></trkpt><trkpt lat="42.5708867" lon="-8.48199"><ele>599.0</ele><time>2026-04-16T10:15:41.862Z</time></trkpt><trkpt lat="42.5710033" lon="-8.481865"><ele>603.0</ele><time>2026-04-16T10:15:42.862Z</time></trkpt><trkpt lat="42.5710933" lon="-8.481745"><ele>607.0</ele><time>2026-04-16T10:15:43.861Z</time></trkpt><trkpt lat="42.571145" lon="-8.48162"><ele>611.0</ele><time>2026-04-16T10:15:44.861Z</time></trkpt><trkpt lat="42.5711683" lon="-8.481455"><ele>614.3333333333333</ele><time>2026-04-16T10:15:45.862Z</time></trkpt><trkpt lat="42.57118" lon="-8.4812417"><ele>617.6666666666666</ele><time>2026-04-16T10:15:46.861Z</time></trkpt><trkpt lat="42.571175" lon="-8.4809967"><ele>621.0</ele><time>2026-04-16T10:15:47.861Z</time></trkpt><trkpt lat="42.5711567" lon="-8.4807233"><ele>621.3333333333334</ele><time>2026-04-16T10:15:48.861Z</time></trkpt><trkpt lat="42.5711317" lon="-8.48043"><ele>621.6666666666667</ele><time>2026-04-16T10:15:49.861Z</time></trkpt><trkpt lat="42.5711317" lon="-8.480175"><ele>622.0</ele><time>2026-04-16T10:15:50.862Z</time></trkpt><trkpt lat="42.5711417" lon="-8.4799533"><ele>622.0</ele><time>2026-04-16T10:15:51.861Z</time></trkpt><trkpt lat="42.5711433" lon="-8.479765"><ele>622.0</ele><time>2026-04-16T10:15:52.861Z</time></trkpt><trkpt lat="42.5711683" lon="-8.4796167"><ele>622.0</ele><time>2026-04-16T10:15:53.861Z</time></trkpt><trkpt lat="42.57121" lon="-8.479515"><ele>622.0</ele><time>2026-04-16T10:15:54.862Z</time></trkpt><trkpt lat="42.5712717" lon="-8.47945"><ele>622.0</ele><time>2026-04-16T10:15:55.861Z</time></trkpt><trkpt lat="42.5713433" lon="-8.4794167"><ele>621.0</ele><time>2026-04-16T10:15:56.862Z</time></trkpt><trkpt lat="42.571425" lon="-8.4794017"><ele>620.0</ele><time>2026-04-16T10:15:57.861Z</time></trkpt><trkpt lat="42.5715267" lon="-8.4794567"><ele>619.0</ele><time>2026-04-16T10:15:58.862Z</time></trkpt><trkpt lat="42.5716317" lon="-8.47956"><ele>618.0</ele><time>2026-04-16T10:15:59.862Z</time></trkpt><trkpt lat="42.571765" lon="-8.4797533"><ele>615.0</ele><time>2026-04-16T10:16:00.862Z</time></trkpt><trkpt lat="42.57193" lon="-8.4799517"><ele>612.0</ele><time>2026-04-16T10:16:01.861Z</time></trkpt><trkpt lat="42.5721183" lon="-8.48016"><ele>612.0</ele><time>2026-04-16T10:16:02.862Z</time></trkpt><trkpt lat="42.5723167" lon="-8.480375"><ele>612.0</ele><time>2026-04-16T10:16:03.862Z</time></trkpt><trkpt lat="42.5725133" lon="-8.4805883"><ele>608.0</ele><time>2026-04-16T10:16:04.862Z</time></trkpt><trkpt lat="42.5727" lon="-8.480785"><ele>604.0</ele><time>2026-04-16T10:16:05.862Z</time></trkpt><trkpt lat="42.5728867" lon="-8.4809667"><ele>604.0</ele><time>2026-04-16T10:16:06.862Z</time></trkpt><trkpt lat="42.5730783" lon="-8.48114"><ele>604.0</ele><time>2026-04-16T10:16:07.862Z</time></trkpt><trkpt lat="42.57328" lon="-8.4812767"><ele>596.5</ele><time>2026-04-16T10:16:08.861Z</time></trkpt><trkpt lat="42.5734867" lon="-8.48139"><ele>589.0</ele><time>2026-04-16T10:16:09.861Z</time></trkpt><trkpt lat="42.5737083" lon="-8.4814683"><ele>589.0</ele><time>2026-04-16T10:16:10.861Z</time></trkpt><trkpt lat="42.5739433" lon="-8.4815333"><ele>589.0</ele><time>2026-04-16T10:16:11.861Z</time></trkpt><trkpt lat="42.5741917" lon="-8.481585"><ele>589.0</ele><time>2026-04-16T10:16:12.862Z</time></trkpt><trkpt lat="42.574445" lon="-8.4816467"><ele>589.0</ele><time>2026-04-16T10:16:13.861Z</time></trkpt><trkpt lat="42.5747" lon="-8.48173"><ele>592.5</ele><time>2026-04-16T10:16:14.861Z</time></trkpt><trkpt lat="42.5749483" lon="-8.4818183"><ele>596.0</ele><time>2026-04-16T10:16:15.862Z</time></trkpt><trkpt lat="42.57519" lon="-8.4819"><ele>597.0</ele><time>2026-04-16T10:16:16.862Z</time></trkpt><trkpt lat="42.5754167" lon="-8.48197"><ele>598.0</ele><time>2026-04-16T10:16:17.861Z</time></trkpt><trkpt lat="42.575625" lon="-8.4820117"><ele>599.0</ele><time>2026-04-16T10:16:18.862Z</time></trkpt><trkpt lat="42.5758317" lon="-8.4820367"><ele>599.0</ele><time>2026-04-16T10:16:19.861Z</time></trkpt><trkpt lat="42.576035" lon="-8.4820317"><ele>599.0</ele><time>2026-04-16T10:16:20.862Z</time></trkpt><trkpt lat="42.5762083" lon="-8.4820017"><ele>599.0</ele><time>2026-04-16T10:16:21.861Z</time></trkpt><trkpt lat="42.5763883" lon="-8.4819533"><ele>598.3333333333333</ele><time>2026-04-16T10:16:22.861Z</time></trkpt><trkpt lat="42.5765833" lon="-8.4819033"><ele>597.6666666666666</ele><time>2026-04-16T10:16:23.862Z</time></trkpt><trkpt lat="42.5767883" lon="-8.4818367"><ele>597.0</ele><time>2026-04-16T10:16:24.861Z</time></trkpt><trkpt lat="42.5769933" lon="-8.4817517"><ele>596.0</ele><time>2026-04-16T10:16:25.861Z</time></trkpt><trkpt lat="42.5771867" lon="-8.4816667"><ele>595.0</ele><time>2026-04-16T10:16:26.861Z</time></trkpt><trkpt lat="42.5773633" lon="-8.4815983"><ele>594.0</ele><time>2026-04-16T10:16:27.862Z</time></trkpt><trkpt lat="42.5775233" lon="-8.481535"><ele>594.0</ele><time>2026-04-16T10:16:28.862Z</time></trkpt><trkpt lat="42.577645" lon="-8.4814867"><ele>594.0</ele><time>2026-04-16T10:16:29.862Z</time></trkpt><trkpt lat="42.5777317" lon="-8.48146"><ele>594.0</ele><time>2026-04-16T10:16:30.861Z</time></trkpt><trkpt lat="42.5777967" lon="-8.481455"><ele>594.0</ele><time>2026-04-16T10:16:31.861Z</time></trkpt><trkpt lat="42.5778583" lon="-8.48154"><ele>594.0</ele><time>2026-04-16T10:16:33.861Z</time></trkpt><trkpt lat="42.57786" lon="-8.4816533"><ele>594.0</ele><time>2026-04-16T10:16:34.861Z</time></trkpt><trkpt lat="42.5778583" lon="-8.481815"><ele>594.0</ele><time>2026-04-16T10:16:35.862Z</time></trkpt><trkpt lat="42.5778517" lon="-8.4820117"><ele>594.0</ele><time>2026-04-16T10:16:36.862Z</time></trkpt><trkpt lat="42.57783" lon="-8.4822233"><ele>594.0</ele><time>2026-04-16T10:16:37.862Z</time></trkpt><trkpt lat="42.5778117" lon="-8.4824117"><ele>593.0</ele><time>2026-04-16T10:16:38.862Z</time></trkpt><trkpt lat="42.57778" lon="-8.48256"><ele>592.0</ele><time>2026-04-16T10:16:39.862Z</time></trkpt><trkpt lat="42.5777367" lon="-8.4826683"><ele>591.0</ele><time>2026-04-16T10:16:40.862Z</time></trkpt><trkpt lat="42.5776667" lon="-8.4827467"><ele>590.0</ele><time>2026-04-16T10:16:41.861Z</time></trkpt><trkpt lat="42.5775717" lon="-8.48281"><ele>589.0</ele><time>2026-04-16T10:16:42.862Z</time></trkpt><trkpt lat="42.577455" lon="-8.4828783"><ele>590.0</ele><time>2026-04-16T10:16:43.862Z</time></trkpt><trkpt lat="42.5773633" lon="-8.4829567"><ele>591.0</ele><time>2026-04-16T10:16:44.862Z</time></trkpt><trkpt lat="42.5773117" lon="-8.483045"><ele>592.0</ele><time>2026-04-16T10:16:45.862Z</time></trkpt><trkpt lat="42.577285" lon="-8.483145"><ele>593.0</ele><time>2026-04-16T10:16:46.862Z</time></trkpt><trkpt lat="42.5772867" lon="-8.483285"><ele>594.0</ele><time>2026-04-16T10:16:47.861Z</time></trkpt><trkpt lat="42.577295" lon="-8.483465"><ele>594.0</ele><time>2026-04-16T10:16:48.861Z</time></trkpt><trkpt lat="42.5772683" lon="-8.48366"><ele>594.0</ele><time>2026-04-16T10:16:49.861Z</time></trkpt><trkpt lat="42.5772133" lon="-8.4838683"><ele>594.0</ele><time>2026-04-16T10:16:50.861Z</time></trkpt><trkpt lat="42.5771533" lon="-8.4840867"><ele>595.0</ele><time>2026-04-16T10:16:51.862Z</time></trkpt><trkpt lat="42.57711" lon="-8.4843417"><ele>596.0</ele><time>2026-04-16T10:16:52.862Z</time></trkpt><trkpt lat="42.57708" lon="-8.4846117"><ele>597.0</ele><time>2026-04-16T10:16:53.862Z</time></trkpt><trkpt lat="42.5770433" lon="-8.4848933"><ele>593.6666666666666</ele><time>2026-04-16T10:16:54.861Z</time></trkpt><trkpt lat="42.5770033" lon="-8.4851667"><ele>590.3333333333333</ele><time>2026-04-16T10:16:55.861Z</time></trkpt><trkpt lat="42.5769633" lon="-8.4854417"><ele>587.0</ele><time>2026-04-16T10:16:56.862Z</time></trkpt><trkpt lat="42.5769217" lon="-8.485725"><ele>587.0</ele><time>2026-04-16T10:16:57.862Z</time></trkpt><trkpt lat="42.5768767" lon="-8.4859783"><ele>587.0</ele><time>2026-04-16T10:16:58.862Z</time></trkpt><trkpt lat="42.5768283" lon="-8.4862033"><ele>587.0</ele><time>2026-04-16T10:16:59.861Z</time></trkpt><trkpt lat="42.576795" lon="-8.4864183"><ele>589.0</ele><time>2026-04-16T10:17:00.862Z</time></trkpt><trkpt lat="42.576765" lon="-8.4866183"><ele>591.0</ele><time>2026-04-16T10:17:01.861Z</time></trkpt><trkpt lat="42.57673" lon="-8.48677"><ele>593.0</ele><time>2026-04-16T10:17:02.861Z</time></trkpt><trkpt lat="42.57669" lon="-8.4868617"><ele>595.0</ele><time>2026-04-16T10:17:03.862Z</time></trkpt><trkpt lat="42.5765833" lon="-8.4869233"><ele>595.0</ele><time>2026-04-16T10:17:05.862Z</time></trkpt><trkpt lat="42.5764983" lon="-8.4868917"><ele>595.0</ele><time>2026-04-16T10:17:06.861Z</time></trkpt><trkpt lat="42.5763867" lon="-8.48683"><ele>595.0</ele><time>2026-04-16T10:17:07.861Z</time></trkpt><trkpt lat="42.5762483" lon="-8.4867533"><ele>595.0</ele><time>2026-04-16T10:17:08.862Z</time></trkpt><trkpt lat="42.5761183" lon="-8.486715"><ele>594.0</ele><time>2026-04-16T10:17:09.861Z</time></trkpt><trkpt lat="42.575995" lon="-8.486725"><ele>593.0</ele><time>2026-04-16T10:17:10.861Z</time></trkpt><trkpt lat="42.5758667" lon="-8.4867733"><ele>592.0</ele><time>2026-04-16T10:17:11.862Z</time></trkpt><trkpt lat="42.5757267" lon="-8.4868567"><ele>591.0</ele><time>2026-04-16T10:17:12.861Z</time></trkpt><trkpt lat="42.575585" lon="-8.4869717"><ele>592.3333333333334</ele><time>2026-04-16T10:17:13.862Z</time></trkpt><trkpt lat="42.5754517" lon="-8.4871283"><ele>593.6666666666667</ele><time>2026-04-16T10:17:14.861Z</time></trkpt><trkpt lat="42.5752983" lon="-8.4873217"><ele>595.0</ele><time>2026-04-16T10:17:15.862Z</time></trkpt><trkpt lat="42.57515" lon="-8.4875283"><ele>595.0</ele><time>2026-04-16T10:17:16.862Z</time></trkpt><trkpt lat="42.5749967" lon="-8.4877133"><ele>595.0</ele><time>2026-04-16T10:17:17.861Z</time></trkpt><trkpt lat="42.5748567" lon="-8.4878967"><ele>595.0</ele><time>2026-04-16T10:17:18.862Z</time></trkpt><trkpt lat="42.5747083" lon="-8.4880917"><ele>593.3333333333334</ele><time>2026-04-16T10:17:19.861Z</time></trkpt><trkpt lat="42.5745783" lon="-8.4882983"><ele>591.6666666666666</ele><time>2026-04-16T10:17:20.862Z</time></trkpt><trkpt lat="42.5744567" lon="-8.4884933"><ele>590.0</ele><time>2026-04-16T10:17:21.861Z</time></trkpt><trkpt lat="42.5743583" lon="-8.4887017"><ele>594.0</ele><time>2026-04-16T10:17:22.861Z</time></trkpt><trkpt lat="42.57428" lon="-8.48892"><ele>598.0</ele><time>2026-04-16T10:17:23.861Z</time></trkpt><trkpt lat="42.5742117" lon="-8.489115"><ele>602.0</ele><time>2026-04-16T10:17:24.861Z</time></trkpt><trkpt lat="42.57417" lon="-8.4892283"><ele>606.0</ele><time>2026-04-16T10:17:25.862Z</time></trkpt><trkpt lat="42.574065" lon="-8.4892217"><ele>606.0</ele><time>2026-04-16T10:17:28.861Z</time></trkpt><trkpt lat="42.5740067" lon="-8.48917"><ele>606.0</ele><time>2026-04-16T10:17:29.861Z</time></trkpt><trkpt lat="42.573915" lon="-8.4891033"><ele>606.0</ele><time>2026-04-16T10:17:30.861Z</time></trkpt><trkpt lat="42.5738067" lon="-8.48906"><ele>606.0</ele><time>2026-04-16T10:17:31.862Z</time></trkpt><trkpt lat="42.57368" lon="-8.4890683"><ele>606.0</ele><time>2026-04-16T10:17:32.862Z</time></trkpt><trkpt lat="42.5735617" lon="-8.4891367"><ele>608.0</ele><time>2026-04-16T10:17:33.861Z</time></trkpt><trkpt lat="42.5734567" lon="-8.4892633"><ele>610.0</ele><time>2026-04-16T10:17:34.861Z</time></trkpt><trkpt lat="42.5733417" lon="-8.4894333"><ele>612.0</ele><time>2026-04-16T10:17:35.861Z</time></trkpt><trkpt lat="42.5732267" lon="-8.4896167"><ele>612.0</ele><time>2026-04-16T10:17:36.861Z</time></trkpt><trkpt lat="42.57311" lon="-8.4898083"><ele>612.0</ele><time>2026-04-16T10:17:37.862Z</time></trkpt><trkpt lat="42.5730017" lon="-8.4900233"><ele>612.0</ele><time>2026-04-16T10:17:38.862Z</time></trkpt><trkpt lat="42.57292" lon="-8.4902267"><ele>614.6666666666666</ele><time>2026-04-16T10:17:39.862Z</time></trkpt><trkpt lat="42.5728583" lon="-8.4904417"><ele>617.3333333333333</ele><time>2026-04-16T10:17:40.861Z</time></trkpt><trkpt lat="42.5728117" lon="-8.4906683"><ele>620.0</ele><time>2026-04-16T10:17:41.861Z</time></trkpt><trkpt lat="42.57278" lon="-8.4909117"><ele>613.6666666666666</ele><time>2026-04-16T10:17:42.861Z</time></trkpt><trkpt lat="42.572765" lon="-8.4911617"><ele>607.3333333333334</ele><time>2026-04-16T10:17:43.862Z</time></trkpt><trkpt lat="42.5727667" lon="-8.4913983"><ele>601.0</ele><time>2026-04-16T10:17:44.862Z</time></trkpt><trkpt lat="42.5727933" lon="-8.491645"><ele>600.3333333333334</ele><time>2026-04-16T10:17:45.861Z</time></trkpt><trkpt lat="42.5728317" lon="-8.4919183"><ele>599.6666666666666</ele><time>2026-04-16T10:17:46.862Z</time></trkpt><trkpt lat="42.5728917" lon="-8.4922083"><ele>599.0</ele><time>2026-04-16T10:17:47.861Z</time></trkpt><trkpt lat="42.572935" lon="-8.4924983"><ele>604.0</ele><time>2026-04-16T10:17:48.862Z</time></trkpt><trkpt lat="42.5729983" lon="-8.492785"><ele>609.0</ele><time>2026-04-16T10:17:49.861Z</time></trkpt><trkpt lat="42.5730617" lon="-8.49307"><ele>614.0</ele><time>2026-04-16T10:17:50.861Z</time></trkpt><trkpt lat="42.5731367" lon="-8.493365"><ele>614.0</ele><time>2026-04-16T10:17:51.861Z</time></trkpt><trkpt lat="42.5732133" lon="-8.4936483"><ele>614.0</ele><time>2026-04-16T10:17:52.861Z</time></trkpt><trkpt lat="42.57328" lon="-8.4939033"><ele>614.0</ele><time>2026-04-16T10:17:53.861Z</time></trkpt><trkpt lat="42.5733167" lon="-8.49415"><ele>613.0</ele><time>2026-04-16T10:17:54.861Z</time></trkpt><trkpt lat="42.5733467" lon="-8.494365"><ele>612.0</ele><time>2026-04-16T10:17:55.861Z</time></trkpt><trkpt lat="42.5733533" lon="-8.4945417"><ele>611.0</ele><time>2026-04-16T10:17:56.862Z</time></trkpt><trkpt lat="42.5733267" lon="-8.4946867"><ele>610.0</ele><time>2026-04-16T10:17:57.861Z</time></trkpt><trkpt lat="42.5732717" lon="-8.494815"><ele>610.0</ele><time>2026-04-16T10:17:58.861Z</time></trkpt><trkpt lat="42.5731883" lon="-8.4949433"><ele>610.0</ele><time>2026-04-16T10:17:59.862Z</time></trkpt><trkpt lat="42.573105" lon="-8.4951017"><ele>610.0</ele><time>2026-04-16T10:18:00.861Z</time></trkpt><trkpt lat="42.5730417" lon="-8.4952783"><ele>610.0</ele><time>2026-04-16T10:18:01.861Z</time></trkpt><trkpt lat="42.573015" lon="-8.495445"><ele>610.25</ele><time>2026-04-16T10:18:02.861Z</time></trkpt><trkpt lat="42.57302" lon="-8.4955917"><ele>610.5</ele><time>2026-04-16T10:18:03.861Z</time></trkpt><trkpt lat="42.5730683" lon="-8.49575"><ele>610.75</ele><time>2026-04-16T10:18:04.861Z</time></trkpt><trkpt lat="42.57314" lon="-8.4959083"><ele>611.0</ele><time>2026-04-16T10:18:05.861Z</time></trkpt><trkpt lat="42.57323" lon="-8.4960667"><ele>611.0</ele><time>2026-04-16T10:18:06.861Z</time></trkpt><trkpt lat="42.5733317" lon="-8.4961933"><ele>611.0</ele><time>2026-04-16T10:18:07.862Z</time></trkpt><trkpt lat="42.573425" lon="-8.4962867"><ele>611.0</ele><time>2026-04-16T10:18:08.861Z</time></trkpt><trkpt lat="42.5734833" lon="-8.496365"><ele>611.0</ele><time>2026-04-16T10:18:09.862Z</time></trkpt><trkpt lat="42.5734917" lon="-8.49652"><ele>612.5</ele><time>2026-04-16T10:18:11.861Z</time></trkpt><trkpt lat="42.5734417" lon="-8.496595"><ele>614.0</ele><time>2026-04-16T10:18:12.862Z</time></trkpt><trkpt lat="42.5733567" lon="-8.496665"><ele>615.5</ele><time>2026-04-16T10:18:13.861Z</time></trkpt><trkpt lat="42.57324" lon="-8.4967267"><ele>617.0</ele><time>2026-04-16T10:18:14.862Z</time></trkpt><trkpt lat="42.57307" lon="-8.4967683"><ele>617.0</ele><time>2026-04-16T10:18:15.862Z</time></trkpt><trkpt lat="42.57287" lon="-8.496785"><ele>617.0</ele><time>2026-04-16T10:18:16.862Z</time></trkpt><trkpt lat="42.57268" lon="-8.4968167"><ele>617.0</ele><time>2026-04-16T10:18:17.861Z</time></trkpt><trkpt lat="42.5724967" lon="-8.4969"><ele>615.3333333333333</ele><time>2026-04-16T10:18:18.862Z</time></trkpt><trkpt lat="42.5723183" lon="-8.4970133"><ele>613.6666666666666</ele><time>2026-04-16T10:18:19.861Z</time></trkpt><trkpt lat="42.5721283" lon="-8.4971317"><ele>612.0</ele><time>2026-04-16T10:18:20.862Z</time></trkpt><trkpt lat="42.5719417" lon="-8.4972317"><ele>612.0</ele><time>2026-04-16T10:18:21.862Z</time></trkpt><trkpt lat="42.5717717" lon="-8.4973283"><ele>612.0</ele><time>2026-04-16T10:18:22.861Z</time></trkpt><trkpt lat="42.5716083" lon="-8.49744"><ele>612.0</ele><time>2026-04-16T10:18:23.861Z</time></trkpt><trkpt lat="42.5714683" lon="-8.4975683"><ele>612.0</ele><time>2026-04-16T10:18:24.862Z</time></trkpt><trkpt lat="42.5713417" lon="-8.497715"><ele>612.0</ele><time>2026-04-16T10:18:25.861Z</time></trkpt><trkpt lat="42.5712183" lon="-8.497895"><ele>612.0</ele><time>2026-04-16T10:18:26.862Z</time></trkpt><trkpt lat="42.571105" lon="-8.4980917"><ele>611.0</ele><time>2026-04-16T10:18:27.862Z</time></trkpt><trkpt lat="42.57099" lon="-8.4983033"><ele>610.0</ele><time>2026-04-16T10:18:28.861Z</time></trkpt><trkpt lat="42.57087" lon="-8.498515"><ele>609.0</ele><time>2026-04-16T10:18:29.861Z</time></trkpt><trkpt lat="42.5707683" lon="-8.4987033"><ele>614.3333333333334</ele><time>2026-04-16T10:18:30.861Z</time></trkpt><trkpt lat="42.5706883" lon="-8.4989267"><ele>619.6666666666667</ele><time>2026-04-16T10:18:31.862Z</time></trkpt><trkpt lat="42.57062" lon="-8.49917"><ele>625.0</ele><time>2026-04-16T10:18:32.861Z</time></trkpt><trkpt lat="42.5705767" lon="-8.4994"><ele>626.3333333333334</ele><time>2026-04-16T10:18:33.861Z</time></trkpt><trkpt lat="42.5705467" lon="-8.4996133"><ele>627.6666666666666</ele><time>2026-04-16T10:18:34.861Z</time></trkpt><trkpt lat="42.5705433" lon="-8.4998433"><ele>629.0</ele><time>2026-04-16T10:18:35.862Z</time></trkpt><trkpt lat="42.5705567" lon="-8.5000983"><ele>629.0</ele><time>2026-04-16T10:18:36.861Z</time></trkpt><trkpt lat="42.5705683" lon="-8.5003717"><ele>629.0</ele><time>2026-04-16T10:18:37.862Z</time></trkpt><trkpt lat="42.570575" lon="-8.5006367"><ele>629.0</ele><time>2026-04-16T10:18:38.861Z</time></trkpt><trkpt lat="42.570565" lon="-8.5008583"><ele>630.4</ele><time>2026-04-16T10:18:39.861Z</time></trkpt><trkpt lat="42.5705433" lon="-8.50102"><ele>631.8</ele><time>2026-04-16T10:18:40.861Z</time></trkpt><trkpt lat="42.57051" lon="-8.5011333"><ele>633.2</ele><time>2026-04-16T10:18:41.861Z</time></trkpt><trkpt lat="42.5704433" lon="-8.5012033"><ele>634.6</ele><time>2026-04-16T10:18:42.861Z</time></trkpt><trkpt lat="42.570355" lon="-8.5012717"><ele>636.0</ele><time>2026-04-16T10:18:43.861Z</time></trkpt><trkpt lat="42.5702567" lon="-8.5013667"><ele>631.3333333333334</ele><time>2026-04-16T10:18:44.862Z</time></trkpt><trkpt lat="42.5701783" lon="-8.5015267"><ele>626.6666666666667</ele><time>2026-04-16T10:18:45.862Z</time></trkpt><trkpt lat="42.57012" lon="-8.5017317"><ele>622.0</ele><time>2026-04-16T10:18:46.861Z</time></trkpt><trkpt lat="42.570075" lon="-8.5019467"><ele>625.0</ele><time>2026-04-16T10:18:47.861Z</time></trkpt><trkpt lat="42.5700367" lon="-8.5021767"><ele>628.0</ele><time>2026-04-16T10:18:48.861Z</time></trkpt><trkpt lat="42.570005" lon="-8.5024133"><ele>631.0</ele><time>2026-04-16T10:18:49.862Z</time></trkpt><trkpt lat="42.5699833" lon="-8.5026183"><ele>631.0</ele><time>2026-04-16T10:18:50.861Z</time></trkpt><trkpt lat="42.5699833" lon="-8.5028067"><ele>631.0</ele><time>2026-04-16T10:18:51.861Z</time></trkpt><trkpt lat="42.570005" lon="-8.502995"><ele>631.0</ele><time>2026-04-16T10:18:52.861Z</time></trkpt><trkpt lat="42.5700383" lon="-8.5031817"><ele>631.0</ele><time>2026-04-16T10:18:53.861Z</time></trkpt><trkpt lat="42.57009" lon="-8.5033817"><ele>631.3333333333334</ele><time>2026-04-16T10:18:54.862Z</time></trkpt><trkpt lat="42.5701617" lon="-8.5035867"><ele>631.6666666666666</ele><time>2026-04-16T10:18:55.862Z</time></trkpt><trkpt lat="42.570235" lon="-8.5037817"><ele>632.0</ele><time>2026-04-16T10:18:56.862Z</time></trkpt><trkpt lat="42.5703117" lon="-8.5039883"><ele>633.6666666666666</ele><time>2026-04-16T10:18:57.861Z</time></trkpt><trkpt lat="42.5703867" lon="-8.504195"><ele>635.3333333333334</ele><time>2026-04-16T10:18:58.861Z</time></trkpt><trkpt lat="42.57047" lon="-8.504405"><ele>637.0</ele><time>2026-04-16T10:18:59.861Z</time></trkpt><trkpt lat="42.57055" lon="-8.5046067"><ele>637.0</ele><time>2026-04-16T10:19:00.861Z</time></trkpt><trkpt lat="42.5706383" lon="-8.5047867"><ele>637.0</ele><time>2026-04-16T10:19:01.861Z</time></trkpt><trkpt lat="42.570735" lon="-8.5049317"><ele>637.0</ele><time>2026-04-16T10:19:02.861Z</time></trkpt><trkpt lat="42.5708417" lon="-8.505055"><ele>637.0</ele><time>2026-04-16T10:19:03.862Z</time></trkpt><trkpt lat="42.5709667" lon="-8.5051683"><ele>637.0</ele><time>2026-04-16T10:19:04.861Z</time></trkpt><trkpt lat="42.5710833" lon="-8.5052717"><ele>637.0</ele><time>2026-04-16T10:19:05.861Z</time></trkpt><trkpt lat="42.571175" lon="-8.5053683"><ele>637.0</ele><time>2026-04-16T10:19:06.861Z</time></trkpt><trkpt lat="42.571265" lon="-8.5054633"><ele>637.0</ele><time>2026-04-16T10:19:07.862Z</time></trkpt><trkpt lat="42.5713633" lon="-8.50557"><ele>637.5</ele><time>2026-04-16T10:19:08.861Z</time></trkpt><trkpt lat="42.5714583" lon="-8.5056833"><ele>638.0</ele><time>2026-04-16T10:19:09.861Z</time></trkpt><trkpt lat="42.571555" lon="-8.5058233"><ele>638.5</ele><time>2026-04-16T10:19:10.862Z</time></trkpt><trkpt lat="42.571655" lon="-8.50597"><ele>639.0</ele><time>2026-04-16T10:19:11.861Z</time></trkpt><trkpt lat="42.5717417" lon="-8.5061433"><ele>635.6666666666666</ele><time>2026-04-16T10:19:12.862Z</time></trkpt><trkpt lat="42.57183" lon="-8.506325"><ele>632.3333333333333</ele><time>2026-04-16T10:19:13.862Z</time></trkpt><trkpt lat="42.5719017" lon="-8.50651"><ele>629.0</ele><time>2026-04-16T10:19:14.862Z</time></trkpt><trkpt lat="42.57196" lon="-8.5066933"><ele>629.0</ele><time>2026-04-16T10:19:15.861Z</time></trkpt><trkpt lat="42.5720233" lon="-8.5068567"><ele>629.0</ele><time>2026-04-16T10:19:16.861Z</time></trkpt><trkpt lat="42.5721" lon="-8.5069867"><ele>629.0</ele><time>2026-04-16T10:19:17.862Z</time></trkpt><trkpt lat="42.572195" lon="-8.50708"><ele>629.0</ele><time>2026-04-16T10:19:18.862Z</time></trkpt><trkpt lat="42.5723267" lon="-8.5071317"><ele>629.0</ele><time>2026-04-16T10:19:19.861Z</time></trkpt><trkpt lat="42.5724717" lon="-8.507185"><ele>629.0</ele><time>2026-04-16T10:19:20.862Z</time></trkpt><trkpt lat="42.5726283" lon="-8.5072733"><ele>629.0</ele><time>2026-04-16T10:19:21.861Z</time></trkpt><trkpt lat="42.5727817" lon="-8.5074017"><ele>635.6666666666666</ele><time>2026-04-16T10:19:22.861Z</time></trkpt><trkpt lat="42.5729433" lon="-8.507555"><ele>642.3333333333334</ele><time>2026-04-16T10:19:23.862Z</time></trkpt><trkpt lat="42.57309" lon="-8.507725"><ele>649.0</ele><time>2026-04-16T10:19:24.861Z</time></trkpt><trkpt lat="42.57323" lon="-8.507905"><ele>641.0</ele><time>2026-04-16T10:19:25.861Z</time></trkpt><trkpt lat="42.5733667" lon="-8.50805"><ele>633.0</ele><time>2026-04-16T10:19:26.861Z</time></trkpt><trkpt lat="42.573505" lon="-8.50819"><ele>625.0</ele><time>2026-04-16T10:19:27.862Z</time></trkpt><trkpt lat="42.5736333" lon="-8.5083283"><ele>630.6666666666667</ele><time>2026-04-16T10:19:28.861Z</time></trkpt><trkpt lat="42.5737583" lon="-8.5084433"><ele>636.3333333333334</ele><time>2026-04-16T10:19:29.862Z</time></trkpt><trkpt lat="42.57389" lon="-8.5085367"><ele>642.0</ele><time>2026-04-16T10:19:30.862Z</time></trkpt><trkpt lat="42.5740367" lon="-8.5086333"><ele>642.0</ele><time>2026-04-16T10:19:31.861Z</time></trkpt><trkpt lat="42.574205" lon="-8.5087183"><ele>642.0</ele><time>2026-04-16T10:19:32.861Z</time></trkpt><trkpt lat="42.57439" lon="-8.5088"><ele>642.0</ele><time>2026-04-16T10:19:33.861Z</time></trkpt><trkpt lat="42.5745583" lon="-8.508885"><ele>639.5</ele><time>2026-04-16T10:19:34.861Z</time></trkpt><trkpt lat="42.574715" lon="-8.50896"><ele>637.0</ele><time>2026-04-16T10:19:35.862Z</time></trkpt><trkpt lat="42.574845" lon="-8.50904"><ele>634.5</ele><time>2026-04-16T10:19:36.862Z</time></trkpt><trkpt lat="42.574955" lon="-8.509105"><ele>632.0</ele><time>2026-04-16T10:19:37.861Z</time></trkpt><trkpt lat="42.5750367" lon="-8.5091983"><ele>632.0</ele><time>2026-04-16T10:19:38.862Z</time></trkpt><trkpt lat="42.5750967" lon="-8.5093267"><ele>632.0</ele><time>2026-04-16T10:19:39.862Z</time></trkpt><trkpt lat="42.575145" lon="-8.5094867"><ele>632.0</ele><time>2026-04-16T10:19:40.862Z</time></trkpt><trkpt lat="42.5751817" lon="-8.5096683"><ele>632.0</ele><time>2026-04-16T10:19:41.862Z</time></trkpt><trkpt lat="42.5752167" lon="-8.509835"><ele>630.5</ele><time>2026-04-16T10:19:42.862Z</time></trkpt><trkpt lat="42.5752517" lon="-8.5100067"><ele>629.0</ele><time>2026-04-16T10:19:43.862Z</time></trkpt><trkpt lat="42.5752967" lon="-8.5101783"><ele>627.5</ele><time>2026-04-16T10:19:44.861Z</time></trkpt><trkpt lat="42.5753483" lon="-8.5103483"><ele>626.0</ele><time>2026-04-16T10:19:45.862Z</time></trkpt><trkpt lat="42.5754183" lon="-8.51052"><ele>626.0</ele><time>2026-04-16T10:19:46.862Z</time></trkpt><trkpt lat="42.57551" lon="-8.5106917"><ele>626.0</ele><time>2026-04-16T10:19:47.862Z</time></trkpt><trkpt lat="42.575595" lon="-8.5108383"><ele>626.0</ele><time>2026-04-16T10:19:48.861Z</time></trkpt><trkpt lat="42.575685" lon="-8.5109433"><ele>626.0</ele><time>2026-04-16T10:19:49.862Z</time></trkpt><trkpt lat="42.5757817" lon="-8.511"><ele>626.0</ele><time>2026-04-16T10:19:50.861Z</time></trkpt><trkpt lat="42.5759067" lon="-8.5110233"><ele>626.0</ele><time>2026-04-16T10:19:51.862Z</time></trkpt><trkpt lat="42.57604" lon="-8.51107"><ele>626.0</ele><time>2026-04-16T10:19:52.861Z</time></trkpt><trkpt lat="42.576165" lon="-8.5111517"><ele>626.0</ele><time>2026-04-16T10:19:53.861Z</time></trkpt><trkpt lat="42.5762833" lon="-8.5112767"><ele>624.4</ele><time>2026-04-16T10:19:54.861Z</time></trkpt><trkpt lat="42.576385" lon="-8.5113917"><ele>622.8</ele><time>2026-04-16T10:19:55.862Z</time></trkpt><trkpt lat="42.5764717" lon="-8.5114833"><ele>621.1999999999999</ele><time>2026-04-16T10:19:56.861Z</time></trkpt><trkpt lat="42.5765417" lon="-8.5115167"><ele>619.6</ele><time>2026-04-16T10:19:57.861Z</time></trkpt><trkpt lat="42.5766167" lon="-8.5115"><ele>618.0</ele><time>2026-04-16T10:19:58.862Z</time></trkpt><trkpt lat="42.5767017" lon="-8.51143"><ele>618.0</ele><time>2026-04-16T10:19:59.862Z</time></trkpt><trkpt lat="42.5768133" lon="-8.5112983"><ele>618.0</ele><time>2026-04-16T10:20:00.862Z</time></trkpt><trkpt lat="42.5769317" lon="-8.5111517"><ele>618.0</ele><time>2026-04-16T10:20:01.861Z</time></trkpt><trkpt lat="42.5770567" lon="-8.5110383"><ele>620.0</ele><time>2026-04-16T10:20:02.861Z</time></trkpt><trkpt lat="42.5771933" lon="-8.5109483"><ele>622.0</ele><time>2026-04-16T10:20:03.862Z</time></trkpt><trkpt lat="42.5772983" lon="-8.5108617"><ele>624.0</ele><time>2026-04-16T10:20:04.861Z</time></trkpt><trkpt lat="42.5773633" lon="-8.5107567"><ele>626.0</ele><time>2026-04-16T10:20:05.861Z</time></trkpt><trkpt lat="42.5774017" lon="-8.5106533"><ele>626.0</ele><time>2026-04-16T10:20:06.861Z</time></trkpt><trkpt lat="42.577445" lon="-8.5105783"><ele>626.0</ele><time>2026-04-16T10:20:07.862Z</time></trkpt><trkpt lat="42.577545" lon="-8.5105367"><ele>626.0</ele><time>2026-04-16T10:20:09.861Z</time></trkpt><trkpt lat="42.5776317" lon="-8.5106317"><ele>626.0</ele><time>2026-04-16T10:20:10.861Z</time></trkpt><trkpt lat="42.5777417" lon="-8.5107533"><ele>626.0</ele><time>2026-04-16T10:20:11.862Z</time></trkpt><trkpt lat="42.5778733" lon="-8.5108933"><ele>627.3333333333333</ele><time>2026-04-16T10:20:12.862Z</time></trkpt><trkpt lat="42.5780217" lon="-8.5110517"><ele>628.6666666666666</ele><time>2026-04-16T10:20:13.862Z</time></trkpt><trkpt lat="42.5781767" lon="-8.5112"><ele>630.0</ele><time>2026-04-16T10:20:14.861Z</time></trkpt><trkpt lat="42.5783167" lon="-8.5113317"><ele>626.25</ele><time>2026-04-16T10:20:15.862Z</time></trkpt><trkpt lat="42.57843" lon="-8.51142"><ele>622.5</ele><time>2026-04-16T10:20:16.862Z</time></trkpt><trkpt lat="42.5785467" lon="-8.5114567"><ele>618.75</ele><time>2026-04-16T10:20:17.861Z</time></trkpt><trkpt lat="42.5786617" lon="-8.5114367"><ele>615.0</ele><time>2026-04-16T10:20:18.861Z</time></trkpt><trkpt lat="42.578785" lon="-8.511365"><ele>613.6666666666666</ele><time>2026-04-16T10:20:19.861Z</time></trkpt><trkpt lat="42.5789217" lon="-8.5112583"><ele>612.3333333333333</ele><time>2026-04-16T10:20:20.861Z</time></trkpt><trkpt lat="42.57908" lon="-8.5111333"><ele>611.0</ele><time>2026-04-16T10:20:21.861Z</time></trkpt><trkpt lat="42.57924" lon="-8.5110083"><ele>610.75</ele><time>2026-04-16T10:20:22.861Z</time></trkpt><trkpt lat="42.5793717" lon="-8.5108883"><ele>610.5</ele><time>2026-04-16T10:20:23.862Z</time></trkpt><trkpt lat="42.5794683" lon="-8.5107367"><ele>610.25</ele><time>2026-04-16T10:20:24.861Z</time></trkpt><trkpt lat="42.57953" lon="-8.5105617"><ele>610.0</ele><time>2026-04-16T10:20:25.862Z</time></trkpt><trkpt lat="42.5795483" lon="-8.510385"><ele>612.0</ele><time>2026-04-16T10:20:26.861Z</time></trkpt><trkpt lat="42.5795417" lon="-8.5102367"><ele>614.0</ele><time>2026-04-16T10:20:27.861Z</time></trkpt><trkpt lat="42.5795" lon="-8.5101317"><ele>616.0</ele><time>2026-04-16T10:20:28.861Z</time></trkpt><trkpt lat="42.57944" lon="-8.5100383"><ele>618.0</ele><time>2026-04-16T10:20:29.862Z</time></trkpt><trkpt lat="42.5793883" lon="-8.5099483"><ele>620.0</ele><time>2026-04-16T10:20:30.862Z</time></trkpt><trkpt lat="42.5793633" lon="-8.5098667"><ele>622.0</ele><time>2026-04-16T10:20:31.862Z</time></trkpt><trkpt lat="42.57946" lon="-8.5097417"><ele>622.0</ele><time>2026-04-16T10:20:33.861Z</time></trkpt><trkpt lat="42.579575" lon="-8.509675"><ele>622.0</ele><time>2026-04-16T10:20:34.861Z</time></trkpt><trkpt lat="42.5797133" lon="-8.509595"><ele>622.0</ele><time>2026-04-16T10:20:35.861Z</time></trkpt><trkpt lat="42.5798783" lon="-8.5095283"><ele>622.0</ele><time>2026-04-16T10:20:36.862Z</time></trkpt><trkpt lat="42.5800483" lon="-8.5094833"><ele>626.0</ele><time>2026-04-16T10:20:37.862Z</time></trkpt><trkpt lat="42.5802267" lon="-8.509465"><ele>630.0</ele><time>2026-04-16T10:20:38.862Z</time></trkpt><trkpt lat="42.5804167" lon="-8.5094483"><ele>634.0</ele><time>2026-04-16T10:20:39.862Z</time></trkpt><trkpt lat="42.5806017" lon="-8.5094283"><ele>634.0</ele><time>2026-04-16T10:20:40.862Z</time></trkpt><trkpt lat="42.5807483" lon="-8.5093883"><ele>634.0</ele><time>2026-04-16T10:20:41.861Z</time></trkpt><trkpt lat="42.5808667" lon="-8.5093367"><ele>634.0</ele><time>2026-04-16T10:20:42.861Z</time></trkpt><trkpt lat="42.5809583" lon="-8.5092383"><ele>634.0</ele><time>2026-04-16T10:20:43.861Z</time></trkpt><trkpt lat="42.5810467" lon="-8.509125"><ele>634.0</ele><time>2026-04-16T10:20:44.862Z</time></trkpt><trkpt lat="42.5811317" lon="-8.5090433"><ele>634.0</ele><time>2026-04-16T10:20:45.861Z</time></trkpt><trkpt lat="42.5812117" lon="-8.509"><ele>634.0</ele><time>2026-04-16T10:20:46.862Z</time></trkpt><trkpt lat="42.581315" lon="-8.5089917"><ele>634.0</ele><time>2026-04-16T10:20:47.861Z</time></trkpt><trkpt lat="42.5814367" lon="-8.50902"><ele>634.0</ele><time>2026-04-16T10:20:48.862Z</time></trkpt><trkpt lat="42.5815867" lon="-8.5090833"><ele>634.6666666666667</ele><time>2026-04-16T10:20:49.862Z</time></trkpt><trkpt lat="42.5817683" lon="-8.5091733"><ele>635.3333333333334</ele><time>2026-04-16T10:20:50.861Z</time></trkpt><trkpt lat="42.581955" lon="-8.509255"><ele>636.0</ele><time>2026-04-16T10:20:51.861Z</time></trkpt><trkpt lat="42.58212" lon="-8.5093267"><ele>636.0</ele><time>2026-04-16T10:20:52.862Z</time></trkpt><trkpt lat="42.582255" lon="-8.509385"><ele>636.0</ele><time>2026-04-16T10:20:53.861Z</time></trkpt><trkpt lat="42.58236" lon="-8.5094467"><ele>636.0</ele><time>2026-04-16T10:20:54.862Z</time></trkpt><trkpt lat="42.58242" lon="-8.5095017"><ele>636.0</ele><time>2026-04-16T10:20:55.862Z</time></trkpt><trkpt lat="42.582445" lon="-8.509615"><ele>636.0</ele><time>2026-04-16T10:20:57.862Z</time></trkpt><trkpt lat="42.5824133" lon="-8.5097017"><ele>634.8333333333334</ele><time>2026-04-16T10:20:59.861Z</time></trkpt><trkpt lat="42.5823217" lon="-8.50979"><ele>633.6666666666666</ele><time>2026-04-16T10:21:01.861Z</time></trkpt><trkpt lat="42.5822667" lon="-8.5098433"><ele>632.5</ele><time>2026-04-16T10:21:02.861Z</time></trkpt><trkpt lat="42.5822117" lon="-8.5099167"><ele>631.3333333333333</ele><time>2026-04-16T10:21:03.861Z</time></trkpt><trkpt lat="42.5821717" lon="-8.51001"><ele>630.1666666666666</ele><time>2026-04-16T10:21:04.861Z</time></trkpt><trkpt lat="42.5821317" lon="-8.51013"><ele>629.0</ele><time>2026-04-16T10:21:05.862Z</time></trkpt><trkpt lat="42.5820667" lon="-8.5102783"><ele>624.75</ele><time>2026-04-16T10:21:06.861Z</time></trkpt><trkpt lat="42.5819933" lon="-8.510445"><ele>620.5</ele><time>2026-04-16T10:21:07.861Z</time></trkpt><trkpt lat="42.581915" lon="-8.5106267"><ele>616.25</ele><time>2026-04-16T10:21:08.862Z</time></trkpt><trkpt lat="42.58185" lon="-8.5108067"><ele>612.0</ele><time>2026-04-16T10:21:09.862Z</time></trkpt><trkpt lat="42.581795" lon="-8.510965"><ele>612.0</ele><time>2026-04-16T10:21:10.861Z</time></trkpt><trkpt lat="42.5817367" lon="-8.5111133"><ele>612.0</ele><time>2026-04-16T10:21:11.861Z</time></trkpt><trkpt lat="42.5816667" lon="-8.511275"><ele>612.0</ele><time>2026-04-16T10:21:12.862Z</time></trkpt><trkpt lat="42.5815917" lon="-8.511445"><ele>612.0</ele><time>2026-04-16T10:21:13.862Z</time></trkpt><trkpt lat="42.5815283" lon="-8.5116167"><ele>612.5</ele><time>2026-04-16T10:21:14.862Z</time></trkpt><trkpt lat="42.58148" lon="-8.5117767"><ele>613.0</ele><time>2026-04-16T10:21:15.861Z</time></trkpt><trkpt lat="42.5814467" lon="-8.51193"><ele>613.5</ele><time>2026-04-16T10:21:16.862Z</time></trkpt><trkpt lat="42.5814133" lon="-8.5121017"><ele>614.0</ele><time>2026-04-16T10:21:17.861Z</time></trkpt><trkpt lat="42.5813817" lon="-8.5122933"><ele>614.6666666666666</ele><time>2026-04-16T10:21:18.862Z</time></trkpt><trkpt lat="42.58135" lon="-8.512495"><ele>615.3333333333334</ele><time>2026-04-16T10:21:19.862Z</time></trkpt><trkpt lat="42.581325" lon="-8.5127067"><ele>616.0</ele><time>2026-04-16T10:21:20.861Z</time></trkpt><trkpt lat="42.58131" lon="-8.5129317"><ele>616.0</ele><time>2026-04-16T10:21:21.861Z</time></trkpt><trkpt lat="42.5812967" lon="-8.5131483"><ele>616.0</ele><time>2026-04-16T10:21:22.862Z</time></trkpt><trkpt lat="42.5812733" lon="-8.5133517"><ele>616.0</ele><time>2026-04-16T10:21:23.862Z</time></trkpt><trkpt lat="42.5812517" lon="-8.513535"><ele>616.0</ele><time>2026-04-16T10:21:24.862Z</time></trkpt><trkpt lat="42.5812117" lon="-8.5136783"><ele>611.2</ele><time>2026-04-16T10:21:25.862Z</time></trkpt><trkpt lat="42.5811583" lon="-8.5137817"><ele>606.4000000000001</ele><time>2026-04-16T10:21:26.862Z</time></trkpt><trkpt lat="42.5810783" lon="-8.5138483"><ele>601.6</ele><time>2026-04-16T10:21:27.861Z</time></trkpt><trkpt lat="42.580975" lon="-8.5138917"><ele>596.8000000000001</ele><time>2026-04-16T10:21:28.861Z</time></trkpt><trkpt lat="42.5808667" lon="-8.5139483"><ele>592.0</ele><time>2026-04-16T10:21:29.861Z</time></trkpt><trkpt lat="42.580755" lon="-8.5140167"><ele>592.0</ele><time>2026-04-16T10:21:30.861Z</time></trkpt><trkpt lat="42.5806267" lon="-8.51412"><ele>592.0</ele><time>2026-04-16T10:21:31.862Z</time></trkpt><trkpt lat="42.5805033" lon="-8.5142383"><ele>592.0</ele><time>2026-04-16T10:21:32.861Z</time></trkpt><trkpt lat="42.5803817" lon="-8.5143617"><ele>587.75</ele><time>2026-04-16T10:21:33.861Z</time></trkpt><trkpt lat="42.5802717" lon="-8.514485"><ele>583.5</ele><time>2026-04-16T10:21:34.862Z</time></trkpt><trkpt lat="42.58018" lon="-8.5146183"><ele>579.25</ele><time>2026-04-16T10:21:35.862Z</time></trkpt><trkpt lat="42.5801117" lon="-8.5147517"><ele>575.0</ele><time>2026-04-16T10:21:36.862Z</time></trkpt><trkpt lat="42.5800633" lon="-8.51489"><ele>574.8</ele><time>2026-04-16T10:21:37.861Z</time></trkpt><trkpt lat="42.58004" lon="-8.5150317"><ele>574.6</ele><time>2026-04-16T10:21:38.862Z</time></trkpt><trkpt lat="42.5800433" lon="-8.5151683"><ele>574.4</ele><time>2026-04-16T10:21:39.862Z</time></trkpt><trkpt lat="42.5800817" lon="-8.5153033"><ele>574.2</ele><time>2026-04-16T10:21:40.861Z</time></trkpt><trkpt lat="42.58015" lon="-8.51543"><ele>574.0</ele><time>2026-04-16T10:21:41.861Z</time></trkpt><trkpt lat="42.5802333" lon="-8.5155483"><ele>573.5</ele><time>2026-04-16T10:21:42.862Z</time></trkpt><trkpt lat="42.580335" lon="-8.51565"><ele>573.0</ele><time>2026-04-16T10:21:43.862Z</time></trkpt><trkpt lat="42.5804517" lon="-8.51572"><ele>572.5</ele><time>2026-04-16T10:21:44.861Z</time></trkpt><trkpt lat="42.5805817" lon="-8.5157733"><ele>572.0</ele><time>2026-04-16T10:21:45.861Z</time></trkpt><trkpt lat="42.5807233" lon="-8.515815"><ele>572.0</ele><time>2026-04-16T10:21:46.861Z</time></trkpt><trkpt lat="42.5808783" lon="-8.5158567"><ele>572.0</ele><time>2026-04-16T10:21:47.861Z</time></trkpt><trkpt lat="42.5810317" lon="-8.5158933"><ele>572.0</ele><time>2026-04-16T10:21:48.861Z</time></trkpt><trkpt lat="42.581165" lon="-8.5159233"><ele>572.0</ele><time>2026-04-16T10:21:49.861Z</time></trkpt><trkpt lat="42.581285" lon="-8.5159567"><ele>572.6</ele><time>2026-04-16T10:21:50.861Z</time></trkpt><trkpt lat="42.5813733" lon="-8.5159917"><ele>573.2</ele><time>2026-04-16T10:21:51.861Z</time></trkpt><trkpt lat="42.5814483" lon="-8.5160383"><ele>573.8</ele><time>2026-04-16T10:21:52.861Z</time></trkpt><trkpt lat="42.58151" lon="-8.5161033"><ele>574.4</ele><time>2026-04-16T10:21:53.861Z</time></trkpt><trkpt lat="42.5815733" lon="-8.5162083"><ele>575.0</ele><time>2026-04-16T10:21:54.861Z</time></trkpt><trkpt lat="42.58163" lon="-8.5163617"><ele>570.0</ele><time>2026-04-16T10:21:55.862Z</time></trkpt><trkpt lat="42.5816933" lon="-8.5165183"><ele>565.0</ele><time>2026-04-16T10:21:56.861Z</time></trkpt><trkpt lat="42.5817733" lon="-8.5166583"><ele>560.0</ele><time>2026-04-16T10:21:57.861Z</time></trkpt><trkpt lat="42.5818783" lon="-8.5168033"><ele>555.0</ele><time>2026-04-16T10:21:58.862Z</time></trkpt><trkpt lat="42.5820033" lon="-8.5169333"><ele>557.3333333333334</ele><time>2026-04-16T10:21:59.861Z</time></trkpt><trkpt lat="42.582145" lon="-8.5170417"><ele>559.6666666666667</ele><time>2026-04-16T10:22:00.861Z</time></trkpt><trkpt lat="42.58229" lon="-8.51716"><ele>562.0</ele><time>2026-04-16T10:22:01.861Z</time></trkpt><trkpt lat="42.5824267" lon="-8.517285"><ele>554.6666666666667</ele><time>2026-04-16T10:22:02.861Z</time></trkpt><trkpt lat="42.5825667" lon="-8.5174067"><ele>547.3333333333334</ele><time>2026-04-16T10:22:03.861Z</time></trkpt><trkpt lat="42.5827183" lon="-8.5175117"><ele>540.0</ele><time>2026-04-16T10:22:04.861Z</time></trkpt><trkpt lat="42.582865" lon="-8.5176133"><ele>540.0</ele><time>2026-04-16T10:22:05.862Z</time></trkpt><trkpt lat="42.5830033" lon="-8.517705"><ele>540.0</ele><time>2026-04-16T10:22:06.861Z</time></trkpt><trkpt lat="42.5831567" lon="-8.517815"><ele>540.0</ele><time>2026-04-16T10:22:07.861Z</time></trkpt><trkpt lat="42.5833" lon="-8.5179167"><ele>533.3333333333334</ele><time>2026-04-16T10:22:08.861Z</time></trkpt><trkpt lat="42.5834333" lon="-8.518015"><ele>526.6666666666667</ele><time>2026-04-16T10:22:09.862Z</time></trkpt><trkpt lat="42.58358" lon="-8.5181117"><ele>520.0</ele><time>2026-04-16T10:22:10.861Z</time></trkpt><trkpt lat="42.583735" lon="-8.5182167"><ele>520.0</ele><time>2026-04-16T10:22:11.861Z</time></trkpt><trkpt lat="42.58389" lon="-8.5183317"><ele>520.0</ele><time>2026-04-16T10:22:12.862Z</time></trkpt><trkpt lat="42.5840333" lon="-8.518435"><ele>520.0</ele><time>2026-04-16T10:22:13.861Z</time></trkpt><trkpt lat="42.5841783" lon="-8.5185417"><ele>520.0</ele><time>2026-04-16T10:22:14.862Z</time></trkpt><trkpt lat="42.5843033" lon="-8.518645"><ele>520.0</ele><time>2026-04-16T10:22:15.862Z</time></trkpt><trkpt lat="42.5844167" lon="-8.5187133"><ele>520.0</ele><time>2026-04-16T10:22:16.862Z</time></trkpt><trkpt lat="42.5845283" lon="-8.5187567"><ele>520.0</ele><time>2026-04-16T10:22:17.861Z</time></trkpt><trkpt lat="42.5846517" lon="-8.5187867"><ele>514.0</ele><time>2026-04-16T10:22:18.861Z</time></trkpt><trkpt lat="42.5847983" lon="-8.5188167"><ele>508.0</ele><time>2026-04-16T10:22:19.861Z</time></trkpt><trkpt lat="42.58496" lon="-8.5188483"><ele>502.0</ele><time>2026-04-16T10:22:20.861Z</time></trkpt><trkpt lat="42.5851267" lon="-8.5188667"><ele>502.0</ele><time>2026-04-16T10:22:21.861Z</time></trkpt><trkpt lat="42.585285" lon="-8.51888"><ele>502.0</ele><time>2026-04-16T10:22:22.861Z</time></trkpt><trkpt lat="42.585425" lon="-8.5188933"><ele>502.0</ele><time>2026-04-16T10:22:23.862Z</time></trkpt><trkpt lat="42.5855383" lon="-8.5188967"><ele>502.0</ele><time>2026-04-16T10:22:24.862Z</time></trkpt><trkpt lat="42.5856433" lon="-8.5188917"><ele>501.0</ele><time>2026-04-16T10:22:25.863Z</time></trkpt><trkpt lat="42.5857417" lon="-8.5188833"><ele>500.00000000000006</ele><time>2026-04-16T10:22:26.862Z</time></trkpt><trkpt lat="42.5858217" lon="-8.5189"><ele>499.00000000000006</ele><time>2026-04-16T10:22:27.862Z</time></trkpt><trkpt lat="42.585915" lon="-8.518995"><ele>498.0</ele><time>2026-04-16T10:22:29.863Z</time></trkpt><trkpt lat="42.5859133" lon="-8.51916"><ele>497.0</ele><time>2026-04-16T10:22:31.863Z</time></trkpt><trkpt lat="42.5858717" lon="-8.51924"><ele>497.0</ele><time>2026-04-16T10:22:32.862Z</time></trkpt><trkpt lat="42.585805" lon="-8.51933"><ele>497.0</ele><time>2026-04-16T10:22:33.862Z</time></trkpt><trkpt lat="42.5857267" lon="-8.5194367"><ele>497.0</ele><time>2026-04-16T10:22:34.863Z</time></trkpt><trkpt lat="42.5856367" lon="-8.5195617"><ele>497.0</ele><time>2026-04-16T10:22:35.862Z</time></trkpt><trkpt lat="42.5855367" lon="-8.5196917"><ele>494.75</ele><time>2026-04-16T10:22:36.862Z</time></trkpt><trkpt lat="42.5854417" lon="-8.5198033"><ele>492.5</ele><time>2026-04-16T10:22:37.863Z</time></trkpt><trkpt lat="42.585335" lon="-8.5198983"><ele>490.25</ele><time>2026-04-16T10:22:38.862Z</time></trkpt><trkpt lat="42.5852183" lon="-8.5199533"><ele>488.0</ele><time>2026-04-16T10:22:39.862Z</time></trkpt><trkpt lat="42.5850817" lon="-8.51999"><ele>488.0</ele><time>2026-04-16T10:22:40.862Z</time></trkpt><trkpt lat="42.584925" lon="-8.5200217"><ele>488.0</ele><time>2026-04-16T10:22:41.862Z</time></trkpt><trkpt lat="42.58476" lon="-8.5200833"><ele>488.0</ele><time>2026-04-16T10:22:42.863Z</time></trkpt><trkpt lat="42.58459" lon="-8.520175"><ele>489.66666666666663</ele><time>2026-04-16T10:22:43.863Z</time></trkpt><trkpt lat="42.5844383" lon="-8.520285"><ele>491.33333333333337</ele><time>2026-04-16T10:22:44.863Z</time></trkpt><trkpt lat="42.5842967" lon="-8.5204"><ele>493.0</ele><time>2026-04-16T10:22:45.863Z</time></trkpt><trkpt lat="42.5841567" lon="-8.5205217"><ele>487.6666666666667</ele><time>2026-04-16T10:22:46.863Z</time></trkpt><trkpt lat="42.5840317" lon="-8.5206517"><ele>482.33333333333337</ele><time>2026-04-16T10:22:47.862Z</time></trkpt><trkpt lat="42.5839183" lon="-8.5207833"><ele>477.0</ele><time>2026-04-16T10:22:48.862Z</time></trkpt><trkpt lat="42.5838217" lon="-8.5209267"><ele>477.0</ele><time>2026-04-16T10:22:49.862Z</time></trkpt><trkpt lat="42.58374" lon="-8.5210883"><ele>477.0</ele><time>2026-04-16T10:22:50.863Z</time></trkpt><trkpt lat="42.58369" lon="-8.52128"><ele>477.0</ele><time>2026-04-16T10:22:51.863Z</time></trkpt><trkpt lat="42.5836833" lon="-8.52149"><ele>477.0</ele><time>2026-04-16T10:22:52.863Z</time></trkpt><trkpt lat="42.5836867" lon="-8.5217017"><ele>473.75</ele><time>2026-04-16T10:22:53.863Z</time></trkpt><trkpt lat="42.5837117" lon="-8.52191"><ele>470.5</ele><time>2026-04-16T10:22:54.862Z</time></trkpt><trkpt lat="42.5837633" lon="-8.5221"><ele>467.25</ele><time>2026-04-16T10:22:55.863Z</time></trkpt><trkpt lat="42.5838217" lon="-8.5222683"><ele>464.0</ele><time>2026-04-16T10:22:56.862Z</time></trkpt><trkpt lat="42.5838983" lon="-8.522415"><ele>463.66666666666663</ele><time>2026-04-16T10:22:57.863Z</time></trkpt><trkpt lat="42.583995" lon="-8.522565"><ele>463.33333333333337</ele><time>2026-04-16T10:22:58.863Z</time></trkpt><trkpt lat="42.5841133" lon="-8.52271"><ele>463.0</ele><time>2026-04-16T10:22:59.863Z</time></trkpt><trkpt lat="42.5842483" lon="-8.5228317"><ele>462.33333333333337</ele><time>2026-04-16T10:23:00.863Z</time></trkpt><trkpt lat="42.5843833" lon="-8.5229633"><ele>461.66666666666663</ele><time>2026-04-16T10:23:01.862Z</time></trkpt><trkpt lat="42.5845033" lon="-8.523085"><ele>461.0</ele><time>2026-04-16T10:23:02.863Z</time></trkpt><trkpt lat="42.584625" lon="-8.523205"><ele>460.75</ele><time>2026-04-16T10:23:03.862Z</time></trkpt><trkpt lat="42.584735" lon="-8.5233367"><ele>460.5</ele><time>2026-04-16T10:23:04.862Z</time></trkpt><trkpt lat="42.5848467" lon="-8.5234683"><ele>460.25</ele><time>2026-04-16T10:23:05.862Z</time></trkpt><trkpt lat="42.584935" lon="-8.5236017"><ele>460.0</ele><time>2026-04-16T10:23:06.862Z</time></trkpt><trkpt lat="42.5849867" lon="-8.52373"><ele>458.83333333333337</ele><time>2026-04-16T10:23:07.863Z</time></trkpt><trkpt lat="42.5849983" lon="-8.5238483"><ele>457.6666666666667</ele><time>2026-04-16T10:23:08.862Z</time></trkpt><trkpt lat="42.5849617" lon="-8.5239533"><ele>456.5</ele><time>2026-04-16T10:23:09.862Z</time></trkpt><trkpt lat="42.5849083" lon="-8.5240333"><ele>455.33333333333337</ele><time>2026-04-16T10:23:10.863Z</time></trkpt><trkpt lat="42.5848367" lon="-8.5241017"><ele>454.1666666666667</ele><time>2026-04-16T10:23:11.863Z</time></trkpt><trkpt lat="42.5847417" lon="-8.5241617"><ele>453.0</ele><time>2026-04-16T10:23:12.863Z</time></trkpt><trkpt lat="42.584615" lon="-8.5242017"><ele>453.0</ele><time>2026-04-16T10:23:13.862Z</time></trkpt><trkpt lat="42.5844917" lon="-8.5242517"><ele>452.99999999999994</ele><time>2026-04-16T10:23:14.863Z</time></trkpt><trkpt lat="42.5843817" lon="-8.524305"><ele>452.99999999999994</ele><time>2026-04-16T10:23:15.862Z</time></trkpt><trkpt lat="42.5843" lon="-8.5243733"><ele>453.0</ele><time>2026-04-16T10:23:16.863Z</time></trkpt><trkpt lat="42.5842517" lon="-8.5244567"><ele>453.0</ele><time>2026-04-16T10:23:17.862Z</time></trkpt><trkpt lat="42.5842783" lon="-8.5246283"><ele>451.25</ele><time>2026-04-16T10:23:19.862Z</time></trkpt><trkpt lat="42.5843517" lon="-8.524745"><ele>449.5</ele><time>2026-04-16T10:23:20.863Z</time></trkpt><trkpt lat="42.5844433" lon="-8.5248467"><ele>447.75</ele><time>2026-04-16T10:23:21.863Z</time></trkpt><trkpt lat="42.5845383" lon="-8.524915"><ele>446.0</ele><time>2026-04-16T10:23:22.862Z</time></trkpt><trkpt lat="42.5846517" lon="-8.5249667"><ele>446.0</ele><time>2026-04-16T10:23:23.862Z</time></trkpt><trkpt lat="42.5848117" lon="-8.5250067"><ele>446.0</ele><time>2026-04-16T10:23:24.863Z</time></trkpt><trkpt lat="42.584995" lon="-8.525055"><ele>446.0</ele><time>2026-04-16T10:23:25.862Z</time></trkpt><trkpt lat="42.5851867" lon="-8.5251033"><ele>443.0</ele><time>2026-04-16T10:23:26.862Z</time></trkpt><trkpt lat="42.5853983" lon="-8.5251717"><ele>440.0</ele><time>2026-04-16T10:23:27.862Z</time></trkpt><trkpt lat="42.5856133" lon="-8.525225"><ele>437.0</ele><time>2026-04-16T10:23:28.862Z</time></trkpt><trkpt lat="42.5858183" lon="-8.5252833"><ele>437.0</ele><time>2026-04-16T10:23:29.862Z</time></trkpt><trkpt lat="42.5860183" lon="-8.525335"><ele>437.0</ele><time>2026-04-16T10:23:30.862Z</time></trkpt><trkpt lat="42.5862017" lon="-8.52539"><ele>437.0</ele><time>2026-04-16T10:23:31.862Z</time></trkpt><trkpt lat="42.58638" lon="-8.525445"><ele>434.3333333333333</ele><time>2026-04-16T10:23:32.862Z</time></trkpt><trkpt lat="42.5865533" lon="-8.5255"><ele>431.66666666666663</ele><time>2026-04-16T10:23:33.862Z</time></trkpt><trkpt lat="42.586705" lon="-8.5255733"><ele>429.0</ele><time>2026-04-16T10:23:34.862Z</time></trkpt><trkpt lat="42.5868583" lon="-8.5256633"><ele>427.0</ele><time>2026-04-16T10:23:35.862Z</time></trkpt><trkpt lat="42.5870167" lon="-8.5257833"><ele>425.0</ele><time>2026-04-16T10:23:36.862Z</time></trkpt><trkpt lat="42.587185" lon="-8.5259017"><ele>423.0</ele><time>2026-04-16T10:23:37.863Z</time></trkpt><trkpt lat="42.5873517" lon="-8.5260083"><ele>423.0</ele><time>2026-04-16T10:23:38.862Z</time></trkpt><trkpt lat="42.5875033" lon="-8.5260883"><ele>423.0</ele><time>2026-04-16T10:23:39.862Z</time></trkpt><trkpt lat="42.58765" lon="-8.526135"><ele>423.0</ele><time>2026-04-16T10:23:40.862Z</time></trkpt><trkpt lat="42.5877983" lon="-8.52616"><ele>421.33333333333337</ele><time>2026-04-16T10:23:41.863Z</time></trkpt><trkpt lat="42.58796" lon="-8.5261583"><ele>419.6666666666667</ele><time>2026-04-16T10:23:42.862Z</time></trkpt><trkpt lat="42.58813" lon="-8.52614"><ele>418.0</ele><time>2026-04-16T10:23:43.863Z</time></trkpt><trkpt lat="42.5883133" lon="-8.5261317"><ele>418.0</ele><time>2026-04-16T10:23:44.862Z</time></trkpt><trkpt lat="42.5885067" lon="-8.5261167"><ele>418.0</ele><time>2026-04-16T10:23:45.863Z</time></trkpt><trkpt lat="42.5886883" lon="-8.5260967"><ele>418.0</ele><time>2026-04-16T10:23:46.863Z</time></trkpt><trkpt lat="42.5888683" lon="-8.5260733"><ele>417.0</ele><time>2026-04-16T10:23:47.862Z</time></trkpt><trkpt lat="42.58904" lon="-8.52607"><ele>416.0</ele><time>2026-04-16T10:23:48.862Z</time></trkpt><trkpt lat="42.58919" lon="-8.5260667"><ele>415.0</ele><time>2026-04-16T10:23:49.862Z</time></trkpt><trkpt lat="42.5893183" lon="-8.5260967"><ele>415.0</ele><time>2026-04-16T10:23:50.863Z</time></trkpt><trkpt lat="42.5894417" lon="-8.5261683"><ele>415.0</ele><time>2026-04-16T10:23:51.862Z</time></trkpt><trkpt lat="42.589555" lon="-8.5262733"><ele>415.0</ele><time>2026-04-16T10:23:52.862Z</time></trkpt><trkpt lat="42.5896467" lon="-8.5263967"><ele>415.0</ele><time>2026-04-16T10:23:53.863Z</time></trkpt><trkpt lat="42.58973" lon="-8.5265367"><ele>413.5</ele><time>2026-04-16T10:23:54.862Z</time></trkpt><trkpt lat="42.5898" lon="-8.52669"><ele>412.0</ele><time>2026-04-16T10:23:55.862Z</time></trkpt><trkpt lat="42.5898583" lon="-8.5268567"><ele>410.5</ele><time>2026-04-16T10:23:56.863Z</time></trkpt><trkpt lat="42.5899017" lon="-8.5270083"><ele>409.0</ele><time>2026-04-16T10:23:57.863Z</time></trkpt><trkpt lat="42.5899383" lon="-8.5271483"><ele>409.0</ele><time>2026-04-16T10:23:58.863Z</time></trkpt><trkpt lat="42.589985" lon="-8.5272733"><ele>409.0</ele><time>2026-04-16T10:23:59.862Z</time></trkpt><trkpt lat="42.5900467" lon="-8.52737"><ele>409.0</ele><time>2026-04-16T10:24:00.862Z</time></trkpt><trkpt lat="42.5901433" lon="-8.527435"><ele>409.0</ele><time>2026-04-16T10:24:01.862Z</time></trkpt><trkpt lat="42.5902817" lon="-8.5274733"><ele>409.0</ele><time>2026-04-16T10:24:02.862Z</time></trkpt><trkpt lat="42.59045" lon="-8.5274967"><ele>407.33333333333337</ele><time>2026-04-16T10:24:03.862Z</time></trkpt><trkpt lat="42.59063" lon="-8.5275183"><ele>405.66666666666663</ele><time>2026-04-16T10:24:04.863Z</time></trkpt><trkpt lat="42.5908167" lon="-8.5275333"><ele>404.0</ele><time>2026-04-16T10:24:05.862Z</time></trkpt><trkpt lat="42.5909867" lon="-8.5275433"><ele>404.0</ele><time>2026-04-16T10:24:06.862Z</time></trkpt><trkpt lat="42.591145" lon="-8.5275417"><ele>404.0</ele><time>2026-04-16T10:24:07.863Z</time></trkpt><trkpt lat="42.591305" lon="-8.5275217"><ele>404.0</ele><time>2026-04-16T10:24:08.862Z</time></trkpt><trkpt lat="42.5914667" lon="-8.5274867"><ele>402.25</ele><time>2026-04-16T10:24:09.862Z</time></trkpt><trkpt lat="42.5916167" lon="-8.52744"><ele>400.5</ele><time>2026-04-16T10:24:10.863Z</time></trkpt><trkpt lat="42.5917517" lon="-8.5274083"><ele>398.75</ele><time>2026-04-16T10:24:11.862Z</time></trkpt><trkpt lat="42.5918683" lon="-8.5274117"><ele>397.0</ele><time>2026-04-16T10:24:12.862Z</time></trkpt><trkpt lat="42.591965" lon="-8.527455"><ele>395.0</ele><time>2026-04-16T10:24:13.862Z</time></trkpt><trkpt lat="42.5920533" lon="-8.5275483"><ele>393.0</ele><time>2026-04-16T10:24:14.863Z</time></trkpt><trkpt lat="42.5921367" lon="-8.52768"><ele>391.0</ele><time>2026-04-16T10:24:15.863Z</time></trkpt><trkpt lat="42.5922167" lon="-8.5278433"><ele>389.0</ele><time>2026-04-16T10:24:16.862Z</time></trkpt><trkpt lat="42.592305" lon="-8.52801"><ele>389.0</ele><time>2026-04-16T10:24:17.862Z</time></trkpt><trkpt lat="42.5923867" lon="-8.5281817"><ele>389.0</ele><time>2026-04-16T10:24:18.863Z</time></trkpt><trkpt lat="42.5924583" lon="-8.52835"><ele>389.0</ele><time>2026-04-16T10:24:19.862Z</time></trkpt><trkpt lat="42.5925267" lon="-8.528525"><ele>389.0</ele><time>2026-04-16T10:24:20.863Z</time></trkpt><trkpt lat="42.5925867" lon="-8.5287133"><ele>388.75</ele><time>2026-04-16T10:24:21.862Z</time></trkpt><trkpt lat="42.592635" lon="-8.52888"><ele>388.5</ele><time>2026-04-16T10:24:22.863Z</time></trkpt><trkpt lat="42.59269" lon="-8.5290183"><ele>388.25</ele><time>2026-04-16T10:24:23.863Z</time></trkpt><trkpt lat="42.5927633" lon="-8.529125"><ele>388.0</ele><time>2026-04-16T10:24:24.862Z</time></trkpt><trkpt lat="42.5928533" lon="-8.5291917"><ele>385.25</ele><time>2026-04-16T10:24:25.862Z</time></trkpt><trkpt lat="42.5929717" lon="-8.5292333"><ele>382.5</ele><time>2026-04-16T10:24:26.862Z</time></trkpt><trkpt lat="42.5931" lon="-8.5292483"><ele>379.75</ele><time>2026-04-16T10:24:27.862Z</time></trkpt><trkpt lat="42.5932367" lon="-8.5292333"><ele>377.0</ele><time>2026-04-16T10:24:28.862Z</time></trkpt><trkpt lat="42.5933783" lon="-8.5292117"><ele>377.0</ele><time>2026-04-16T10:24:29.863Z</time></trkpt><trkpt lat="42.5935133" lon="-8.5291617"><ele>377.0</ele><time>2026-04-16T10:24:30.863Z</time></trkpt><trkpt lat="42.5936433" lon="-8.5290933"><ele>377.0</ele><time>2026-04-16T10:24:31.863Z</time></trkpt><trkpt lat="42.5937683" lon="-8.52901"><ele>377.0</ele><time>2026-04-16T10:24:32.863Z</time></trkpt><trkpt lat="42.5938767" lon="-8.5289267"><ele>375.25</ele><time>2026-04-16T10:24:33.863Z</time></trkpt><trkpt lat="42.5939683" lon="-8.5288217"><ele>373.5</ele><time>2026-04-16T10:24:34.862Z</time></trkpt><trkpt lat="42.5940383" lon="-8.5287117"><ele>371.75</ele><time>2026-04-16T10:24:35.862Z</time></trkpt><trkpt lat="42.59409" lon="-8.5285683"><ele>370.0</ele><time>2026-04-16T10:24:36.862Z</time></trkpt><trkpt lat="42.5941267" lon="-8.5283867"><ele>370.0</ele><time>2026-04-16T10:24:37.862Z</time></trkpt><trkpt lat="42.5941433" lon="-8.528185"><ele>370.0</ele><time>2026-04-16T10:24:38.863Z</time></trkpt><trkpt lat="42.5941683" lon="-8.5279917"><ele>370.0</ele><time>2026-04-16T10:24:39.863Z</time></trkpt><trkpt lat="42.5942133" lon="-8.5278083"><ele>370.0</ele><time>2026-04-16T10:24:40.863Z</time></trkpt><trkpt lat="42.5942767" lon="-8.5276333"><ele>369.75</ele><time>2026-04-16T10:24:41.862Z</time></trkpt><trkpt lat="42.59436" lon="-8.5274717"><ele>369.5</ele><time>2026-04-16T10:24:42.863Z</time></trkpt><trkpt lat="42.5944417" lon="-8.5273283"><ele>369.25</ele><time>2026-04-16T10:24:43.862Z</time></trkpt><trkpt lat="42.5945267" lon="-8.5272183"><ele>369.0</ele><time>2026-04-16T10:24:44.863Z</time></trkpt><trkpt lat="42.5946083" lon="-8.5271417"><ele>368.4</ele><time>2026-04-16T10:24:45.863Z</time></trkpt><trkpt lat="42.5946833" lon="-8.52709"><ele>367.79999999999995</ele><time>2026-04-16T10:24:46.862Z</time></trkpt><trkpt lat="42.59477" lon="-8.527075"><ele>367.20000000000005</ele><time>2026-04-16T10:24:47.862Z</time></trkpt><trkpt lat="42.5948633" lon="-8.5270933"><ele>366.6</ele><time>2026-04-16T10:24:48.863Z</time></trkpt><trkpt lat="42.59496" lon="-8.5271267"><ele>366.0</ele><time>2026-04-16T10:24:49.863Z</time></trkpt><trkpt lat="42.595085" lon="-8.5271883"><ele>366.0</ele><time>2026-04-16T10:24:50.862Z</time></trkpt><trkpt lat="42.59522" lon="-8.527235"><ele>366.0</ele><time>2026-04-16T10:24:51.862Z</time></trkpt><trkpt lat="42.5953733" lon="-8.5272467"><ele>366.0</ele><time>2026-04-16T10:24:52.862Z</time></trkpt><trkpt lat="42.5955267" lon="-8.527245"><ele>366.0</ele><time>2026-04-16T10:24:53.863Z</time></trkpt><trkpt lat="42.5956533" lon="-8.5272583"><ele>363.5</ele><time>2026-04-16T10:24:54.862Z</time></trkpt><trkpt lat="42.5957633" lon="-8.527285"><ele>361.0</ele><time>2026-04-16T10:24:55.862Z</time></trkpt><trkpt lat="42.5958667" lon="-8.5273467"><ele>358.5</ele><time>2026-04-16T10:24:56.862Z</time></trkpt><trkpt lat="42.595955" lon="-8.52745"><ele>356.0</ele><time>2026-04-16T10:24:57.862Z</time></trkpt><trkpt lat="42.5960233" lon="-8.52757"><ele>356.0</ele><time>2026-04-16T10:24:58.863Z</time></trkpt><trkpt lat="42.5960617" lon="-8.5277"><ele>356.0</ele><time>2026-04-16T10:24:59.862Z</time></trkpt><trkpt lat="42.5960867" lon="-8.52783"><ele>356.0</ele><time>2026-04-16T10:25:00.863Z</time></trkpt><trkpt lat="42.5960867" lon="-8.52796"><ele>356.0</ele><time>2026-04-16T10:25:01.862Z</time></trkpt><trkpt lat="42.5960617" lon="-8.5281033"><ele>356.0</ele><time>2026-04-16T10:25:02.862Z</time></trkpt><trkpt lat="42.596025" lon="-8.5282433"><ele>356.20000000000005</ele><time>2026-04-16T10:25:03.863Z</time></trkpt><trkpt lat="42.5960033" lon="-8.5283833"><ele>356.40000000000003</ele><time>2026-04-16T10:25:04.863Z</time></trkpt><trkpt lat="42.59598" lon="-8.528525"><ele>356.6</ele><time>2026-04-16T10:25:05.862Z</time></trkpt><trkpt lat="42.5959633" lon="-8.528675"><ele>356.8</ele><time>2026-04-16T10:25:06.863Z</time></trkpt><trkpt lat="42.595925" lon="-8.5288333"><ele>357.0</ele><time>2026-04-16T10:25:07.863Z</time></trkpt><trkpt lat="42.5958717" lon="-8.5289867"><ele>354.75</ele><time>2026-04-16T10:25:08.862Z</time></trkpt><trkpt lat="42.595815" lon="-8.5291317"><ele>352.5</ele><time>2026-04-16T10:25:09.863Z</time></trkpt><trkpt lat="42.5957567" lon="-8.5292733"><ele>350.25</ele><time>2026-04-16T10:25:10.863Z</time></trkpt><trkpt lat="42.59571" lon="-8.5294133"><ele>348.0</ele><time>2026-04-16T10:25:11.863Z</time></trkpt><trkpt lat="42.5956583" lon="-8.5295517"><ele>346.0</ele><time>2026-04-16T10:25:12.863Z</time></trkpt><trkpt lat="42.5956133" lon="-8.5296967"><ele>344.0</ele><time>2026-04-16T10:25:13.863Z</time></trkpt><trkpt lat="42.59556" lon="-8.529835"><ele>342.0</ele><time>2026-04-16T10:25:14.863Z</time></trkpt><trkpt lat="42.5955067" lon="-8.52997"><ele>340.0</ele><time>2026-04-16T10:25:15.862Z</time></trkpt><trkpt lat="42.595455" lon="-8.530105"><ele>340.0</ele><time>2026-04-16T10:25:16.863Z</time></trkpt><trkpt lat="42.5954067" lon="-8.53024"><ele>340.0</ele><time>2026-04-16T10:25:17.863Z</time></trkpt><trkpt lat="42.595355" lon="-8.530375"><ele>340.0</ele><time>2026-04-16T10:25:18.862Z</time></trkpt><trkpt lat="42.5952983" lon="-8.5305183"><ele>340.0</ele><time>2026-04-16T10:25:19.862Z</time></trkpt><trkpt lat="42.5952483" lon="-8.53066"><ele>341.75</ele><time>2026-04-16T10:25:20.863Z</time></trkpt><trkpt lat="42.5951967" lon="-8.530805"><ele>343.5</ele><time>2026-04-16T10:25:21.862Z</time></trkpt><trkpt lat="42.5951483" lon="-8.5309483"><ele>345.25</ele><time>2026-04-16T10:25:22.863Z</time></trkpt><trkpt lat="42.595095" lon="-8.53109"><ele>347.0</ele><time>2026-04-16T10:25:23.863Z</time></trkpt><trkpt lat="42.5950417" lon="-8.5312167"><ele>344.0</ele><time>2026-04-16T10:25:24.863Z</time></trkpt><trkpt lat="42.5949817" lon="-8.5313483"><ele>341.0</ele><time>2026-04-16T10:25:25.862Z</time></trkpt><trkpt lat="42.594915" lon="-8.5314683"><ele>338.0</ele><time>2026-04-16T10:25:26.863Z</time></trkpt><trkpt lat="42.594835" lon="-8.531585"><ele>335.0</ele><time>2026-04-16T10:25:27.862Z</time></trkpt><trkpt lat="42.5947533" lon="-8.5316967"><ele>335.0</ele><time>2026-04-16T10:25:28.863Z</time></trkpt><trkpt lat="42.5946667" lon="-8.5317833"><ele>335.0</ele><time>2026-04-16T10:25:29.863Z</time></trkpt><trkpt lat="42.594595" lon="-8.5318783"><ele>335.0</ele><time>2026-04-16T10:25:30.863Z</time></trkpt><trkpt lat="42.5945367" lon="-8.531965"><ele>335.0</ele><time>2026-04-16T10:25:31.862Z</time></trkpt><trkpt lat="42.594485" lon="-8.5320517"><ele>335.0</ele><time>2026-04-16T10:25:32.862Z</time></trkpt><trkpt lat="42.59445" lon="-8.532165"><ele>335.0</ele><time>2026-04-16T10:25:34.863Z</time></trkpt><trkpt lat="42.5945483" lon="-8.5321883"><ele>335.0</ele><time>2026-04-16T10:25:37.862Z</time></trkpt><trkpt lat="42.594635" lon="-8.532155"><ele>335.0</ele><time>2026-04-16T10:25:38.862Z</time></trkpt><trkpt lat="42.5947517" lon="-8.5320683"><ele>335.0</ele><time>2026-04-16T10:25:39.862Z</time></trkpt><trkpt lat="42.59487" lon="-8.5319683"><ele>335.0</ele><time>2026-04-16T10:25:40.863Z</time></trkpt><trkpt lat="42.5949683" lon="-8.5318633"><ele>335.0</ele><time>2026-04-16T10:25:41.863Z</time></trkpt><trkpt lat="42.5950517" lon="-8.531755"><ele>335.0</ele><time>2026-04-16T10:25:42.862Z</time></trkpt><trkpt lat="42.5951367" lon="-8.5316467"><ele>335.0</ele><time>2026-04-16T10:25:43.863Z</time></trkpt><trkpt lat="42.5952183" lon="-8.53155"><ele>335.0</ele><time>2026-04-16T10:25:44.862Z</time></trkpt><trkpt lat="42.5952967" lon="-8.5314367"><ele>335.0</ele><time>2026-04-16T10:25:45.863Z</time></trkpt><trkpt lat="42.5953667" lon="-8.5313217"><ele>335.0</ele><time>2026-04-16T10:25:46.863Z</time></trkpt><trkpt lat="42.595435" lon="-8.5312067"><ele>335.0</ele><time>2026-04-16T10:25:47.863Z</time></trkpt><trkpt lat="42.5955083" lon="-8.5310883"><ele>335.0</ele><time>2026-04-16T10:25:48.863Z</time></trkpt><trkpt lat="42.5955983" lon="-8.53099"><ele>334.0</ele><time>2026-04-16T10:25:49.863Z</time></trkpt><trkpt lat="42.5957033" lon="-8.5309433"><ele>333.0</ele><time>2026-04-16T10:25:50.862Z</time></trkpt><trkpt lat="42.5958133" lon="-8.5309283"><ele>332.0</ele><time>2026-04-16T10:25:51.862Z</time></trkpt><trkpt lat="42.59593" lon="-8.5309517"><ele>331.0</ele><time>2026-04-16T10:25:52.863Z</time></trkpt><trkpt lat="42.5960433" lon="-8.53101"><ele>331.0</ele><time>2026-04-16T10:25:53.862Z</time></trkpt><trkpt lat="42.5961533" lon="-8.531085"><ele>331.0</ele><time>2026-04-16T10:25:54.862Z</time></trkpt><trkpt lat="42.596255" lon="-8.5311533"><ele>331.0</ele><time>2026-04-16T10:25:55.862Z</time></trkpt><trkpt lat="42.5963533" lon="-8.5311967"><ele>331.0</ele><time>2026-04-16T10:25:56.862Z</time></trkpt><trkpt lat="42.59646" lon="-8.5312233"><ele>331.0</ele><time>2026-04-16T10:25:57.863Z</time></trkpt><trkpt lat="42.596565" lon="-8.5312533"><ele>329.0</ele><time>2026-04-16T10:25:58.863Z</time></trkpt><trkpt lat="42.5966633" lon="-8.5312883"><ele>327.0</ele><time>2026-04-16T10:25:59.862Z</time></trkpt><trkpt lat="42.5967617" lon="-8.5313417"><ele>325.0</ele><time>2026-04-16T10:26:00.863Z</time></trkpt><trkpt lat="42.5968617" lon="-8.5314017"><ele>323.0</ele><time>2026-04-16T10:26:01.862Z</time></trkpt><trkpt lat="42.5969633" lon="-8.5314383"><ele>321.0</ele><time>2026-04-16T10:26:02.862Z</time></trkpt><trkpt lat="42.5970733" lon="-8.5314417"><ele>320.6</ele><time>2026-04-16T10:26:03.862Z</time></trkpt><trkpt lat="42.59718" lon="-8.531405"><ele>320.20000000000005</ele><time>2026-04-16T10:26:04.862Z</time></trkpt><trkpt lat="42.597275" lon="-8.531325"><ele>319.79999999999995</ele><time>2026-04-16T10:26:05.863Z</time></trkpt><trkpt lat="42.5973483" lon="-8.5312167"><ele>319.4</ele><time>2026-04-16T10:26:06.863Z</time></trkpt><trkpt lat="42.5974083" lon="-8.53109"><ele>319.0</ele><time>2026-04-16T10:26:07.862Z</time></trkpt><trkpt lat="42.5974733" lon="-8.530945"><ele>320.75</ele><time>2026-04-16T10:26:08.862Z</time></trkpt><trkpt lat="42.597535" lon="-8.5308017"><ele>322.5</ele><time>2026-04-16T10:26:09.863Z</time></trkpt><trkpt lat="42.597605" lon="-8.53066"><ele>324.25</ele><time>2026-04-16T10:26:10.862Z</time></trkpt><trkpt lat="42.5976733" lon="-8.530525"><ele>326.0</ele><time>2026-04-16T10:26:11.862Z</time></trkpt><trkpt lat="42.5977283" lon="-8.53038"><ele>326.25</ele><time>2026-04-16T10:26:12.862Z</time></trkpt><trkpt lat="42.597795" lon="-8.5302367"><ele>326.5</ele><time>2026-04-16T10:26:13.862Z</time></trkpt><trkpt lat="42.5978583" lon="-8.5301017"><ele>326.75</ele><time>2026-04-16T10:26:14.862Z</time></trkpt><trkpt lat="42.597925" lon="-8.52996"><ele>327.0</ele><time>2026-04-16T10:26:15.862Z</time></trkpt><trkpt lat="42.59799" lon="-8.5298217"><ele>327.0</ele><time>2026-04-16T10:26:16.862Z</time></trkpt><trkpt lat="42.5980533" lon="-8.5296817"><ele>327.0</ele><time>2026-04-16T10:26:17.863Z</time></trkpt><trkpt lat="42.5981133" lon="-8.5295583"><ele>327.0</ele><time>2026-04-16T10:26:18.863Z</time></trkpt><trkpt lat="42.5981733" lon="-8.5294267"><ele>327.0</ele><time>2026-04-16T10:26:19.862Z</time></trkpt><trkpt lat="42.5982333" lon="-8.5292967"><ele>326.25</ele><time>2026-04-16T10:26:20.862Z</time></trkpt><trkpt lat="42.5982933" lon="-8.5291633"><ele>325.5</ele><time>2026-04-16T10:26:21.862Z</time></trkpt><trkpt lat="42.5983483" lon="-8.5290217"><ele>324.75</ele><time>2026-04-16T10:26:22.862Z</time></trkpt><trkpt lat="42.5983983" lon="-8.528885"><ele>324.0</ele><time>2026-04-16T10:26:23.862Z</time></trkpt><trkpt lat="42.5984417" lon="-8.5287483"><ele>324.0</ele><time>2026-04-16T10:26:24.863Z</time></trkpt><trkpt lat="42.59848" lon="-8.5286017"><ele>324.0</ele><time>2026-04-16T10:26:25.863Z</time></trkpt><trkpt lat="42.59852" lon="-8.5284583"><ele>324.0</ele><time>2026-04-16T10:26:26.862Z</time></trkpt><trkpt lat="42.5985667" lon="-8.528325"><ele>324.0</ele><time>2026-04-16T10:26:27.862Z</time></trkpt><trkpt lat="42.5986283" lon="-8.5282067"><ele>324.0</ele><time>2026-04-16T10:26:28.862Z</time></trkpt><trkpt lat="42.5986933" lon="-8.52809"><ele>320.8</ele><time>2026-04-16T10:26:29.863Z</time></trkpt><trkpt lat="42.5987483" lon="-8.5279733"><ele>317.59999999999997</ele><time>2026-04-16T10:26:30.862Z</time></trkpt><trkpt lat="42.598775" lon="-8.5278417"><ele>314.4</ele><time>2026-04-16T10:26:31.863Z</time></trkpt><trkpt lat="42.598775" lon="-8.5277067"><ele>311.2</ele><time>2026-04-16T10:26:32.862Z</time></trkpt><trkpt lat="42.5987417" lon="-8.5275667"><ele>308.0</ele><time>2026-04-16T10:26:33.862Z</time></trkpt><trkpt lat="42.598685" lon="-8.52742"><ele>310.0</ele><time>2026-04-16T10:26:34.862Z</time></trkpt><trkpt lat="42.5986183" lon="-8.527275"><ele>312.0</ele><time>2026-04-16T10:26:35.862Z</time></trkpt><trkpt lat="42.5985433" lon="-8.527145"><ele>314.0</ele><time>2026-04-16T10:26:36.863Z</time></trkpt><trkpt lat="42.5984583" lon="-8.52703"><ele>316.0</ele><time>2026-04-16T10:26:37.862Z</time></trkpt><trkpt lat="42.5983733" lon="-8.5269233"><ele>316.0</ele><time>2026-04-16T10:26:38.863Z</time></trkpt><trkpt lat="42.598285" lon="-8.5268233"><ele>316.0</ele><time>2026-04-16T10:26:39.862Z</time></trkpt><trkpt lat="42.5982017" lon="-8.5267133"><ele>316.0</ele><time>2026-04-16T10:26:40.862Z</time></trkpt><trkpt lat="42.5981217" lon="-8.5266017"><ele>316.0</ele><time>2026-04-16T10:26:41.863Z</time></trkpt><trkpt lat="42.59806" lon="-8.52648"><ele>316.0</ele><time>2026-04-16T10:26:42.862Z</time></trkpt><trkpt lat="42.5980183" lon="-8.52635"><ele>316.0</ele><time>2026-04-16T10:26:43.862Z</time></trkpt><trkpt lat="42.5980067" lon="-8.5262167"><ele>316.0</ele><time>2026-04-16T10:26:44.862Z</time></trkpt><trkpt lat="42.5980267" lon="-8.5260733"><ele>316.0</ele><time>2026-04-16T10:26:45.863Z</time></trkpt><trkpt lat="42.5980733" lon="-8.5259267"><ele>316.0</ele><time>2026-04-16T10:26:46.862Z</time></trkpt><trkpt lat="42.5981467" lon="-8.525795"><ele>315.5</ele><time>2026-04-16T10:26:47.862Z</time></trkpt><trkpt lat="42.5982283" lon="-8.5256783"><ele>315.0</ele><time>2026-04-16T10:26:48.862Z</time></trkpt><trkpt lat="42.5983167" lon="-8.5255667"><ele>314.5</ele><time>2026-04-16T10:26:49.863Z</time></trkpt><trkpt lat="42.598405" lon="-8.5254533"><ele>314.0</ele><time>2026-04-16T10:26:50.863Z</time></trkpt><trkpt lat="42.5984883" lon="-8.525355"><ele>314.0</ele><time>2026-04-16T10:26:51.863Z</time></trkpt><trkpt lat="42.598575" lon="-8.5252567"><ele>314.0</ele><time>2026-04-16T10:26:52.863Z</time></trkpt><trkpt lat="42.5986617" lon="-8.52517"><ele>314.0</ele><time>2026-04-16T10:26:53.862Z</time></trkpt><trkpt lat="42.5987333" lon="-8.525115"><ele>314.0</ele><time>2026-04-16T10:26:54.863Z</time></trkpt><trkpt lat="42.5988133" lon="-8.5250467"><ele>314.0</ele><time>2026-04-16T10:26:55.863Z</time></trkpt><trkpt lat="42.598895" lon="-8.524975"><ele>311.4</ele><time>2026-04-16T10:26:56.862Z</time></trkpt><trkpt lat="42.59898" lon="-8.5249083"><ele>308.79999999999995</ele><time>2026-04-16T10:26:57.863Z</time></trkpt><trkpt lat="42.5990717" lon="-8.5248483"><ele>306.20000000000005</ele><time>2026-04-16T10:26:58.863Z</time></trkpt><trkpt lat="42.599175" lon="-8.524825"><ele>303.6</ele><time>2026-04-16T10:26:59.862Z</time></trkpt><trkpt lat="42.5992733" lon="-8.5248667"><ele>301.0</ele><time>2026-04-16T10:27:00.862Z</time></trkpt><trkpt lat="42.5993783" lon="-8.52493"><ele>301.0</ele><time>2026-04-16T10:27:01.863Z</time></trkpt><trkpt lat="42.5994683" lon="-8.5250217"><ele>301.0</ele><time>2026-04-16T10:27:02.862Z</time></trkpt><trkpt lat="42.59953" lon="-8.5251667"><ele>301.0</ele><time>2026-04-16T10:27:03.863Z</time></trkpt><trkpt lat="42.5995633" lon="-8.5253283"><ele>301.0</ele><time>2026-04-16T10:27:04.863Z</time></trkpt><trkpt lat="42.5996" lon="-8.5254817"><ele>298.6</ele><time>2026-04-16T10:27:05.863Z</time></trkpt><trkpt lat="42.5996517" lon="-8.5256083"><ele>296.20000000000005</ele><time>2026-04-16T10:27:06.863Z</time></trkpt><trkpt lat="42.599705" lon="-8.5257133"><ele>293.79999999999995</ele><time>2026-04-16T10:27:07.862Z</time></trkpt><trkpt lat="42.599775" lon="-8.525795"><ele>291.4</ele><time>2026-04-16T10:27:08.863Z</time></trkpt><trkpt lat="42.5998483" lon="-8.5258533"><ele>289.0</ele><time>2026-04-16T10:27:09.862Z</time></trkpt><trkpt lat="42.5999233" lon="-8.5258917"><ele>289.0</ele><time>2026-04-16T10:27:10.862Z</time></trkpt><trkpt lat="42.6000033" lon="-8.5258983"><ele>289.0</ele><time>2026-04-16T10:27:11.863Z</time></trkpt><trkpt lat="42.60007" lon="-8.5258733"><ele>289.0</ele><time>2026-04-16T10:27:12.863Z</time></trkpt><trkpt lat="42.600145" lon="-8.5257667"><ele>289.0</ele><time>2026-04-16T10:27:14.863Z</time></trkpt><trkpt lat="42.60014" lon="-8.5256317"><ele>289.0</ele><time>2026-04-16T10:27:15.863Z</time></trkpt><trkpt lat="42.6001333" lon="-8.5255"><ele>289.25</ele><time>2026-04-16T10:27:16.862Z</time></trkpt><trkpt lat="42.6001067" lon="-8.5253417"><ele>289.5</ele><time>2026-04-16T10:27:17.863Z</time></trkpt><trkpt lat="42.6000433" lon="-8.5251467"><ele>289.75</ele><time>2026-04-16T10:27:18.862Z</time></trkpt><trkpt lat="42.5999933" lon="-8.524955"><ele>290.0</ele><time>2026-04-16T10:27:19.863Z</time></trkpt><trkpt lat="42.5999367" lon="-8.52471"><ele>291.0</ele><time>2026-04-16T10:27:20.862Z</time></trkpt><trkpt lat="42.5999217" lon="-8.52454"><ele>292.0</ele><time>2026-04-16T10:27:21.863Z</time></trkpt><trkpt lat="42.599915" lon="-8.5243667"><ele>293.0</ele><time>2026-04-16T10:27:22.863Z</time></trkpt><trkpt lat="42.5999083" lon="-8.5241983"><ele>294.0</ele><time>2026-04-16T10:27:23.862Z</time></trkpt><trkpt lat="42.599925" lon="-8.5240467"><ele>294.0</ele><time>2026-04-16T10:27:24.863Z</time></trkpt><trkpt lat="42.5999567" lon="-8.5239117"><ele>294.0</ele><time>2026-04-16T10:27:25.862Z</time></trkpt><trkpt lat="42.6000117" lon="-8.523795"><ele>294.0</ele><time>2026-04-16T10:27:26.862Z</time></trkpt><trkpt lat="42.60009" lon="-8.5236883"><ele>294.0</ele><time>2026-04-16T10:27:27.862Z</time></trkpt><trkpt lat="42.6001883" lon="-8.523635"><ele>294.0</ele><time>2026-04-16T10:27:28.862Z</time></trkpt><trkpt lat="42.6002883" lon="-8.5236083"><ele>288.4</ele><time>2026-04-16T10:27:29.862Z</time></trkpt><trkpt lat="42.60036" lon="-8.5236433"><ele>282.79999999999995</ele><time>2026-04-16T10:27:30.862Z</time></trkpt><trkpt lat="42.6004083" lon="-8.5237"><ele>277.20000000000005</ele><time>2026-04-16T10:27:31.862Z</time></trkpt><trkpt lat="42.600425" lon="-8.523885"><ele>271.6</ele><time>2026-04-16T10:27:33.862Z</time></trkpt><trkpt lat="42.6004133" lon="-8.5240517"><ele>266.0</ele><time>2026-04-16T10:27:34.863Z</time></trkpt><trkpt lat="42.6004" lon="-8.5242317"><ele>266.0</ele><time>2026-04-16T10:27:35.862Z</time></trkpt><trkpt lat="42.6004167" lon="-8.52439"><ele>266.0</ele><time>2026-04-16T10:27:36.862Z</time></trkpt><trkpt lat="42.6004467" lon="-8.524545"><ele>266.0</ele><time>2026-04-16T10:27:37.863Z</time></trkpt><trkpt lat="42.6004833" lon="-8.5246933"><ele>266.0</ele><time>2026-04-16T10:27:38.862Z</time></trkpt><trkpt lat="42.600535" lon="-8.52483"><ele>267.0</ele><time>2026-04-16T10:27:39.862Z</time></trkpt><trkpt lat="42.6005867" lon="-8.524955"><ele>268.0</ele><time>2026-04-16T10:27:40.862Z</time></trkpt><trkpt lat="42.600645" lon="-8.5250967"><ele>269.0</ele><time>2026-04-16T10:27:41.863Z</time></trkpt><trkpt lat="42.6007067" lon="-8.5252383"><ele>270.0</ele><time>2026-04-16T10:27:42.863Z</time></trkpt><trkpt lat="42.600775" lon="-8.5253733"><ele>272.5</ele><time>2026-04-16T10:27:43.862Z</time></trkpt><trkpt lat="42.6008533" lon="-8.5254917"><ele>275.0</ele><time>2026-04-16T10:27:44.863Z</time></trkpt><trkpt lat="42.6009317" lon="-8.52559"><ele>277.5</ele><time>2026-04-16T10:27:45.863Z</time></trkpt><trkpt lat="42.6010167" lon="-8.5256933"><ele>280.0</ele><time>2026-04-16T10:27:46.862Z</time></trkpt><trkpt lat="42.6011" lon="-8.5258083"><ele>273.0</ele><time>2026-04-16T10:27:47.863Z</time></trkpt><trkpt lat="42.60117" lon="-8.5259433"><ele>266.0</ele><time>2026-04-16T10:27:48.863Z</time></trkpt><trkpt lat="42.60124" lon="-8.526095"><ele>259.0</ele><time>2026-04-16T10:27:49.863Z</time></trkpt><trkpt lat="42.6013" lon="-8.52627"><ele>252.0</ele><time>2026-04-16T10:27:50.863Z</time></trkpt><trkpt lat="42.6013367" lon="-8.5264367"><ele>252.0</ele><time>2026-04-16T10:27:51.863Z</time></trkpt><trkpt lat="42.6013567" lon="-8.5265983"><ele>252.0</ele><time>2026-04-16T10:27:52.862Z</time></trkpt><trkpt lat="42.601365" lon="-8.52675"><ele>252.0</ele><time>2026-04-16T10:27:53.863Z</time></trkpt><trkpt lat="42.6013767" lon="-8.5269"><ele>252.0</ele><time>2026-04-16T10:27:54.863Z</time></trkpt><trkpt lat="42.6013983" lon="-8.52704"><ele>252.0</ele><time>2026-04-16T10:27:55.862Z</time></trkpt><trkpt lat="42.6014467" lon="-8.5271617"><ele>253.5</ele><time>2026-04-16T10:27:56.863Z</time></trkpt><trkpt lat="42.60152" lon="-8.5272817"><ele>255.0</ele><time>2026-04-16T10:27:57.863Z</time></trkpt><trkpt lat="42.6015867" lon="-8.5274033"><ele>256.5</ele><time>2026-04-16T10:27:58.863Z</time></trkpt><trkpt lat="42.60164" lon="-8.5275383"><ele>258.0</ele><time>2026-04-16T10:27:59.862Z</time></trkpt><trkpt lat="42.6016733" lon="-8.5276817"><ele>258.0</ele><time>2026-04-16T10:28:00.862Z</time></trkpt><trkpt lat="42.6016817" lon="-8.52782"><ele>258.0</ele><time>2026-04-16T10:28:01.863Z</time></trkpt><trkpt lat="42.601695" lon="-8.5279583"><ele>258.0</ele><time>2026-04-16T10:28:02.862Z</time></trkpt><trkpt lat="42.6017217" lon="-8.5280783"><ele>258.0</ele><time>2026-04-16T10:28:03.862Z</time></trkpt><trkpt lat="42.6017817" lon="-8.5281817"><ele>258.0</ele><time>2026-04-16T10:28:04.862Z</time></trkpt><trkpt lat="42.6018733" lon="-8.52827"><ele>256.75</ele><time>2026-04-16T10:28:05.862Z</time></trkpt><trkpt lat="42.6020033" lon="-8.5283217"><ele>255.5</ele><time>2026-04-16T10:28:06.862Z</time></trkpt><trkpt lat="42.6021333" lon="-8.5283583"><ele>254.25</ele><time>2026-04-16T10:28:07.862Z</time></trkpt><trkpt lat="42.6022683" lon="-8.5283683"><ele>253.0</ele><time>2026-04-16T10:28:08.862Z</time></trkpt><trkpt lat="42.6023933" lon="-8.52837"><ele>253.0</ele><time>2026-04-16T10:28:09.863Z</time></trkpt><trkpt lat="42.602515" lon="-8.52837"><ele>253.0</ele><time>2026-04-16T10:28:10.863Z</time></trkpt><trkpt lat="42.6026333" lon="-8.52837"><ele>253.0</ele><time>2026-04-16T10:28:11.863Z</time></trkpt><trkpt lat="42.602745" lon="-8.528365"><ele>253.0</ele><time>2026-04-16T10:28:12.862Z</time></trkpt><trkpt lat="42.6028467" lon="-8.5283517"><ele>251.8</ele><time>2026-04-16T10:28:13.863Z</time></trkpt><trkpt lat="42.6029233" lon="-8.5283017"><ele>250.60000000000002</ele><time>2026-04-16T10:28:14.863Z</time></trkpt><trkpt lat="42.60298" lon="-8.5282117"><ele>249.39999999999998</ele><time>2026-04-16T10:28:15.863Z</time></trkpt><trkpt lat="42.6030283" lon="-8.5280817"><ele>248.2</ele><time>2026-04-16T10:28:16.863Z</time></trkpt><trkpt lat="42.603085" lon="-8.5279717"><ele>247.0</ele><time>2026-04-16T10:28:17.862Z</time></trkpt><trkpt lat="42.6031617" lon="-8.5278983"><ele>249.25</ele><time>2026-04-16T10:28:18.862Z</time></trkpt><trkpt lat="42.60326" lon="-8.52786"><ele>251.5</ele><time>2026-04-16T10:28:19.862Z</time></trkpt><trkpt lat="42.603375" lon="-8.527845"><ele>253.75</ele><time>2026-04-16T10:28:20.863Z</time></trkpt><trkpt lat="42.6035" lon="-8.5278533"><ele>256.0</ele><time>2026-04-16T10:28:21.863Z</time></trkpt><trkpt lat="42.60363" lon="-8.5278583"><ele>256.8</ele><time>2026-04-16T10:28:22.862Z</time></trkpt><trkpt lat="42.603755" lon="-8.5278567"><ele>257.6</ele><time>2026-04-16T10:28:23.862Z</time></trkpt><trkpt lat="42.6038483" lon="-8.5278717"><ele>258.4</ele><time>2026-04-16T10:28:24.863Z</time></trkpt><trkpt lat="42.603965" lon="-8.5278633"><ele>259.2</ele><time>2026-04-16T10:28:25.862Z</time></trkpt><trkpt lat="42.60406" lon="-8.527875"><ele>260.0</ele><time>2026-04-16T10:28:26.862Z</time></trkpt><trkpt lat="42.604165" lon="-8.5278783"><ele>257.5</ele><time>2026-04-16T10:28:27.863Z</time></trkpt><trkpt lat="42.60426" lon="-8.5279067"><ele>255.0</ele><time>2026-04-16T10:28:28.862Z</time></trkpt><trkpt lat="42.6043767" lon="-8.527935"><ele>252.5</ele><time>2026-04-16T10:28:29.863Z</time></trkpt><trkpt lat="42.604495" lon="-8.5279683"><ele>250.0</ele><time>2026-04-16T10:28:30.863Z</time></trkpt><trkpt lat="42.6046183" lon="-8.5279967"><ele>250.0</ele><time>2026-04-16T10:28:31.863Z</time></trkpt><trkpt lat="42.604745" lon="-8.5280233"><ele>250.0</ele><time>2026-04-16T10:28:32.863Z</time></trkpt><trkpt lat="42.604865" lon="-8.5280683"><ele>250.0</ele><time>2026-04-16T10:28:33.863Z</time></trkpt><trkpt lat="42.6049883" lon="-8.52812"><ele>250.0</ele><time>2026-04-16T10:28:34.863Z</time></trkpt><trkpt lat="42.6050933" lon="-8.5281917"><ele>250.0</ele><time>2026-04-16T10:28:35.862Z</time></trkpt><trkpt lat="42.605205" lon="-8.528265"><ele>250.0</ele><time>2026-04-16T10:28:36.862Z</time></trkpt><trkpt lat="42.6053067" lon="-8.5283483"><ele>250.0</ele><time>2026-04-16T10:28:37.862Z</time></trkpt><trkpt lat="42.6054167" lon="-8.5284117"><ele>250.0</ele><time>2026-04-16T10:28:38.862Z</time></trkpt><trkpt lat="42.605535" lon="-8.52846"><ele>255.0</ele><time>2026-04-16T10:28:39.863Z</time></trkpt><trkpt lat="42.6056567" lon="-8.5285117"><ele>260.0</ele><time>2026-04-16T10:28:40.862Z</time></trkpt><trkpt lat="42.6057683" lon="-8.5285583"><ele>265.0</ele><time>2026-04-16T10:28:41.863Z</time></trkpt><trkpt lat="42.60588" lon="-8.528605"><ele>270.0</ele><time>2026-04-16T10:28:42.862Z</time></trkpt><trkpt lat="42.6059767" lon="-8.5286533"><ele>270.0</ele><time>2026-04-16T10:28:43.862Z</time></trkpt><trkpt lat="42.6060933" lon="-8.5287033"><ele>270.0</ele><time>2026-04-16T10:28:44.862Z</time></trkpt><trkpt lat="42.6062083" lon="-8.5287333"><ele>270.0</ele><time>2026-04-16T10:28:45.862Z</time></trkpt><trkpt lat="42.6063167" lon="-8.528765"><ele>270.0</ele><time>2026-04-16T10:28:46.862Z</time></trkpt><trkpt lat="42.6064267" lon="-8.528795"><ele>268.8</ele><time>2026-04-16T10:28:47.862Z</time></trkpt><trkpt lat="42.6065333" lon="-8.528815"><ele>267.6</ele><time>2026-04-16T10:28:48.863Z</time></trkpt><trkpt lat="42.60664" lon="-8.5288383"><ele>266.4</ele><time>2026-04-16T10:28:49.862Z</time></trkpt><trkpt lat="42.606755" lon="-8.528845"><ele>265.2</ele><time>2026-04-16T10:28:50.863Z</time></trkpt><trkpt lat="42.60687" lon="-8.5288367"><ele>264.0</ele><time>2026-04-16T10:28:51.863Z</time></trkpt><trkpt lat="42.6069867" lon="-8.5288067"><ele>264.75</ele><time>2026-04-16T10:28:52.863Z</time></trkpt><trkpt lat="42.6071017" lon="-8.5287483"><ele>265.5</ele><time>2026-04-16T10:28:53.862Z</time></trkpt><trkpt lat="42.6072083" lon="-8.528665"><ele>266.25</ele><time>2026-04-16T10:28:54.862Z</time></trkpt><trkpt lat="42.60731" lon="-8.5285517"><ele>267.0</ele><time>2026-04-16T10:28:55.862Z</time></trkpt><trkpt lat="42.6074" lon="-8.5284267"><ele>268.0</ele><time>2026-04-16T10:28:56.863Z</time></trkpt><trkpt lat="42.6074717" lon="-8.5282883"><ele>269.0</ele><time>2026-04-16T10:28:57.863Z</time></trkpt><trkpt lat="42.6075317" lon="-8.5281433"><ele>270.0</ele><time>2026-04-16T10:28:58.862Z</time></trkpt><trkpt lat="42.607585" lon="-8.52799"><ele>271.0</ele><time>2026-04-16T10:28:59.863Z</time></trkpt><trkpt lat="42.60763" lon="-8.5278333"><ele>272.0</ele><time>2026-04-16T10:29:00.863Z</time></trkpt><trkpt lat="42.6076733" lon="-8.5276833"><ele>273.0</ele><time>2026-04-16T10:29:01.862Z</time></trkpt><trkpt lat="42.6077283" lon="-8.527555"><ele>274.0</ele><time>2026-04-16T10:29:02.862Z</time></trkpt><trkpt lat="42.6077933" lon="-8.5274583"><ele>275.0</ele><time>2026-04-16T10:29:03.862Z</time></trkpt><trkpt lat="42.6078683" lon="-8.5274033"><ele>276.0</ele><time>2026-04-16T10:29:04.862Z</time></trkpt><trkpt lat="42.6079533" lon="-8.5273667"><ele>276.2</ele><time>2026-04-16T10:29:05.862Z</time></trkpt><trkpt lat="42.6080483" lon="-8.5273217"><ele>276.40000000000003</ele><time>2026-04-16T10:29:07.862Z</time></trkpt><trkpt lat="42.60807" lon="-8.5271767"><ele>276.6</ele><time>2026-04-16T10:29:09.862Z</time></trkpt><trkpt lat="42.608085" lon="-8.5270483"><ele>276.8</ele><time>2026-04-16T10:29:10.863Z</time></trkpt><trkpt lat="42.60812" lon="-8.5269033"><ele>277.0</ele><time>2026-04-16T10:29:11.862Z</time></trkpt><trkpt lat="42.6081717" lon="-8.5267683"><ele>277.3333333333333</ele><time>2026-04-16T10:29:12.862Z</time></trkpt><trkpt lat="42.6082233" lon="-8.526645"><ele>277.66666666666663</ele><time>2026-04-16T10:29:13.862Z</time></trkpt><trkpt lat="42.6082617" lon="-8.526525"><ele>278.0</ele><time>2026-04-16T10:29:14.863Z</time></trkpt><trkpt lat="42.6082717" lon="-8.5264067"><ele>278.3333333333333</ele><time>2026-04-16T10:29:15.863Z</time></trkpt><trkpt lat="42.608245" lon="-8.526315"><ele>278.6666666666667</ele><time>2026-04-16T10:29:16.862Z</time></trkpt><trkpt lat="42.6081833" lon="-8.5262367"><ele>279.0</ele><time>2026-04-16T10:29:17.862Z</time></trkpt><trkpt lat="42.60809" lon="-8.5261817"><ele>277.75</ele><time>2026-04-16T10:29:18.863Z</time></trkpt><trkpt lat="42.6079767" lon="-8.52613"><ele>276.5</ele><time>2026-04-16T10:29:19.863Z</time></trkpt><trkpt lat="42.6078467" lon="-8.5260917"><ele>275.25</ele><time>2026-04-16T10:29:20.862Z</time></trkpt><trkpt lat="42.60772" lon="-8.5260583"><ele>274.0</ele><time>2026-04-16T10:29:21.863Z</time></trkpt><trkpt lat="42.607595" lon="-8.5260433"><ele>273.0</ele><time>2026-04-16T10:29:22.862Z</time></trkpt><trkpt lat="42.607485" lon="-8.5260283"><ele>272.0</ele><time>2026-04-16T10:29:23.862Z</time></trkpt><trkpt lat="42.6073933" lon="-8.5259917"><ele>271.0</ele><time>2026-04-16T10:29:24.862Z</time></trkpt><trkpt lat="42.60731" lon="-8.5259167"><ele>270.0</ele><time>2026-04-16T10:29:25.863Z</time></trkpt><trkpt lat="42.6072517" lon="-8.5258083"><ele>269.0</ele><time>2026-04-16T10:29:26.862Z</time></trkpt><trkpt lat="42.6072083" lon="-8.5256767"><ele>269.0</ele><time>2026-04-16T10:29:27.863Z</time></trkpt><trkpt lat="42.6071583" lon="-8.52554"><ele>269.0</ele><time>2026-04-16T10:29:28.863Z</time></trkpt><trkpt lat="42.6071233" lon="-8.5253983"><ele>269.0</ele><time>2026-04-16T10:29:29.864Z</time></trkpt><trkpt lat="42.6070967" lon="-8.5252583"><ele>269.0</ele><time>2026-04-16T10:29:30.864Z</time></trkpt><trkpt lat="42.60707" lon="-8.5251167"><ele>269.0</ele><time>2026-04-16T10:29:31.864Z</time></trkpt><trkpt lat="42.6070467" lon="-8.5249683"><ele>268.5</ele><time>2026-04-16T10:29:32.863Z</time></trkpt><trkpt lat="42.6070183" lon="-8.5248167"><ele>268.0</ele><time>2026-04-16T10:29:33.864Z</time></trkpt><trkpt lat="42.606985" lon="-8.5246667"><ele>267.5</ele><time>2026-04-16T10:29:34.863Z</time></trkpt><trkpt lat="42.6069483" lon="-8.524525"><ele>267.0</ele><time>2026-04-16T10:29:35.864Z</time></trkpt><trkpt lat="42.6069283" lon="-8.5243767"><ele>268.0</ele><time>2026-04-16T10:29:36.864Z</time></trkpt><trkpt lat="42.60694" lon="-8.5242117"><ele>269.0</ele><time>2026-04-16T10:29:37.864Z</time></trkpt><trkpt lat="42.6069817" lon="-8.5240517"><ele>270.0</ele><time>2026-04-16T10:29:38.864Z</time></trkpt><trkpt lat="42.607035" lon="-8.5239017"><ele>271.0</ele><time>2026-04-16T10:29:39.864Z</time></trkpt><trkpt lat="42.6070833" lon="-8.52375"><ele>274.75</ele><time>2026-04-16T10:29:40.864Z</time></trkpt><trkpt lat="42.6071233" lon="-8.5235883"><ele>278.5</ele><time>2026-04-16T10:29:41.863Z</time></trkpt><trkpt lat="42.6071467" lon="-8.52343"><ele>282.25</ele><time>2026-04-16T10:29:42.863Z</time></trkpt><trkpt lat="42.6071517" lon="-8.523265"><ele>286.0</ele><time>2026-04-16T10:29:43.863Z</time></trkpt><trkpt lat="42.6071333" lon="-8.523095"><ele>286.0</ele><time>2026-04-16T10:29:44.864Z</time></trkpt><trkpt lat="42.607095" lon="-8.5229283"><ele>286.0</ele><time>2026-04-16T10:29:45.863Z</time></trkpt><trkpt lat="42.607055" lon="-8.5227817"><ele>286.0</ele><time>2026-04-16T10:29:46.863Z</time></trkpt><trkpt lat="42.6070167" lon="-8.5226383"><ele>286.0</ele><time>2026-04-16T10:29:47.863Z</time></trkpt><trkpt lat="42.6069883" lon="-8.5224933"><ele>285.3333333333333</ele><time>2026-04-16T10:29:48.864Z</time></trkpt><trkpt lat="42.6069783" lon="-8.5223483"><ele>284.66666666666663</ele><time>2026-04-16T10:29:49.864Z</time></trkpt><trkpt lat="42.607" lon="-8.522225"><ele>284.0</ele><time>2026-04-16T10:29:50.863Z</time></trkpt><trkpt lat="42.6070467" lon="-8.5221367"><ele>283.3333333333333</ele><time>2026-04-16T10:29:51.863Z</time></trkpt><trkpt lat="42.6071017" lon="-8.5220567"><ele>282.6666666666667</ele><time>2026-04-16T10:29:52.864Z</time></trkpt><trkpt lat="42.6071717" lon="-8.5219967"><ele>282.0</ele><time>2026-04-16T10:29:53.864Z</time></trkpt><trkpt lat="42.60725" lon="-8.5219467"><ele>284.5</ele><time>2026-04-16T10:29:54.864Z</time></trkpt><trkpt lat="42.607355" lon="-8.52196"><ele>287.0</ele><time>2026-04-16T10:29:55.863Z</time></trkpt><trkpt lat="42.6074833" lon="-8.522005"><ele>289.5</ele><time>2026-04-16T10:29:56.864Z</time></trkpt><trkpt lat="42.60761" lon="-8.522085"><ele>292.0</ele><time>2026-04-16T10:29:57.863Z</time></trkpt><trkpt lat="42.6077433" lon="-8.5221517"><ele>294.5</ele><time>2026-04-16T10:29:58.863Z</time></trkpt><trkpt lat="42.6078633" lon="-8.522225"><ele>297.0</ele><time>2026-04-16T10:29:59.864Z</time></trkpt><trkpt lat="42.6079817" lon="-8.5223017"><ele>299.5</ele><time>2026-04-16T10:30:00.863Z</time></trkpt><trkpt lat="42.6080983" lon="-8.522375"><ele>302.0</ele><time>2026-04-16T10:30:01.863Z</time></trkpt><trkpt lat="42.60821" lon="-8.5224383"><ele>302.0</ele><time>2026-04-16T10:30:02.864Z</time></trkpt><trkpt lat="42.6083217" lon="-8.5224983"><ele>302.0</ele><time>2026-04-16T10:30:03.863Z</time></trkpt><trkpt lat="42.60843" lon="-8.5225583"><ele>302.0</ele><time>2026-04-16T10:30:04.864Z</time></trkpt><trkpt lat="42.6085433" lon="-8.5226133"><ele>302.0</ele><time>2026-04-16T10:30:05.864Z</time></trkpt><trkpt lat="42.6086617" lon="-8.5226517"><ele>304.0</ele><time>2026-04-16T10:30:06.863Z</time></trkpt><trkpt lat="42.608785" lon="-8.5226717"><ele>306.0</ele><time>2026-04-16T10:30:07.863Z</time></trkpt><trkpt lat="42.608905" lon="-8.5226817"><ele>308.0</ele><time>2026-04-16T10:30:08.863Z</time></trkpt><trkpt lat="42.6090267" lon="-8.5226783"><ele>310.0</ele><time>2026-04-16T10:30:09.863Z</time></trkpt><trkpt lat="42.60915" lon="-8.5226733"><ele>310.0</ele><time>2026-04-16T10:30:10.863Z</time></trkpt><trkpt lat="42.6092667" lon="-8.52267"><ele>310.0</ele><time>2026-04-16T10:30:11.863Z</time></trkpt><trkpt lat="42.6093833" lon="-8.5226683"><ele>310.0</ele><time>2026-04-16T10:30:12.863Z</time></trkpt><trkpt lat="42.6094917" lon="-8.52269"><ele>310.0</ele><time>2026-04-16T10:30:13.864Z</time></trkpt><trkpt lat="42.6095967" lon="-8.5227317"><ele>309.75</ele><time>2026-04-16T10:30:14.864Z</time></trkpt><trkpt lat="42.6096967" lon="-8.5228083"><ele>309.5</ele><time>2026-04-16T10:30:15.863Z</time></trkpt><trkpt lat="42.6097967" lon="-8.5228933"><ele>309.25</ele><time>2026-04-16T10:30:16.864Z</time></trkpt><trkpt lat="42.6098983" lon="-8.5229733"><ele>309.0</ele><time>2026-04-16T10:30:17.864Z</time></trkpt><trkpt lat="42.6100067" lon="-8.5230417"><ele>309.0</ele><time>2026-04-16T10:30:18.863Z</time></trkpt><trkpt lat="42.6101117" lon="-8.5230867"><ele>309.0</ele><time>2026-04-16T10:30:19.863Z</time></trkpt><trkpt lat="42.61022" lon="-8.5230917"><ele>309.0</ele><time>2026-04-16T10:30:20.863Z</time></trkpt><trkpt lat="42.61034" lon="-8.5230767"><ele>309.0</ele><time>2026-04-16T10:30:21.863Z</time></trkpt><trkpt lat="42.6104667" lon="-8.5230417"><ele>310.0</ele><time>2026-04-16T10:30:22.864Z</time></trkpt><trkpt lat="42.6105917" lon="-8.5230067"><ele>311.0</ele><time>2026-04-16T10:30:23.864Z</time></trkpt><trkpt lat="42.6107183" lon="-8.5229583"><ele>312.0</ele><time>2026-04-16T10:30:24.863Z</time></trkpt><trkpt lat="42.6108383" lon="-8.5229133"><ele>313.0</ele><time>2026-04-16T10:30:25.864Z</time></trkpt><trkpt lat="42.6109567" lon="-8.5228833"><ele>317.75</ele><time>2026-04-16T10:30:26.864Z</time></trkpt><trkpt lat="42.6110767" lon="-8.5228483"><ele>322.5</ele><time>2026-04-16T10:30:27.863Z</time></trkpt><trkpt lat="42.611195" lon="-8.52281"><ele>327.25</ele><time>2026-04-16T10:30:28.863Z</time></trkpt><trkpt lat="42.6113183" lon="-8.52278"><ele>332.0</ele><time>2026-04-16T10:30:29.863Z</time></trkpt><trkpt lat="42.61144" lon="-8.522745"><ele>332.75</ele><time>2026-04-16T10:30:30.864Z</time></trkpt><trkpt lat="42.61156" lon="-8.522705"><ele>333.5</ele><time>2026-04-16T10:30:31.864Z</time></trkpt><trkpt lat="42.6116817" lon="-8.5226733"><ele>334.25</ele><time>2026-04-16T10:30:32.863Z</time></trkpt><trkpt lat="42.6118033" lon="-8.5226317"><ele>335.0</ele><time>2026-04-16T10:30:33.864Z</time></trkpt><trkpt lat="42.6119217" lon="-8.5226033"><ele>334.25</ele><time>2026-04-16T10:30:34.863Z</time></trkpt><trkpt lat="42.6120383" lon="-8.522565"><ele>333.5</ele><time>2026-04-16T10:30:35.864Z</time></trkpt><trkpt lat="42.6121517" lon="-8.522505"><ele>332.75</ele><time>2026-04-16T10:30:36.863Z</time></trkpt><trkpt lat="42.6122483" lon="-8.52242"><ele>332.0</ele><time>2026-04-16T10:30:37.863Z</time></trkpt><trkpt lat="42.61234" lon="-8.5223133"><ele>332.0</ele><time>2026-04-16T10:30:38.863Z</time></trkpt><trkpt lat="42.61242" lon="-8.5221867"><ele>332.0</ele><time>2026-04-16T10:30:39.864Z</time></trkpt><trkpt lat="42.612485" lon="-8.5220583"><ele>332.0</ele><time>2026-04-16T10:30:40.863Z</time></trkpt><trkpt lat="42.61254" lon="-8.5219217"><ele>332.0</ele><time>2026-04-16T10:30:41.864Z</time></trkpt><trkpt lat="42.612585" lon="-8.521775"><ele>333.40000000000003</ele><time>2026-04-16T10:30:42.863Z</time></trkpt><trkpt lat="42.6126317" lon="-8.5216283"><ele>334.8</ele><time>2026-04-16T10:30:43.863Z</time></trkpt><trkpt lat="42.6126833" lon="-8.5214833"><ele>336.2</ele><time>2026-04-16T10:30:44.863Z</time></trkpt><trkpt lat="42.61273" lon="-8.5213567"><ele>337.6</ele><time>2026-04-16T10:30:45.863Z</time></trkpt><trkpt lat="42.612775" lon="-8.5212317"><ele>339.0</ele><time>2026-04-16T10:30:46.863Z</time></trkpt><trkpt lat="42.6128183" lon="-8.521115"><ele>339.0</ele><time>2026-04-16T10:30:47.863Z</time></trkpt><trkpt lat="42.6128667" lon="-8.5210133"><ele>339.0</ele><time>2026-04-16T10:30:48.864Z</time></trkpt><trkpt lat="42.612935" lon="-8.5209417"><ele>339.0</ele><time>2026-04-16T10:30:49.864Z</time></trkpt><trkpt lat="42.6130083" lon="-8.52088"><ele>339.0</ele><time>2026-04-16T10:30:50.864Z</time></trkpt><trkpt lat="42.6130983" lon="-8.520825"><ele>339.0</ele><time>2026-04-16T10:30:51.863Z</time></trkpt><trkpt lat="42.613195" lon="-8.5207783"><ele>339.0</ele><time>2026-04-16T10:30:52.864Z</time></trkpt><trkpt lat="42.6132917" lon="-8.5207183"><ele>339.0</ele><time>2026-04-16T10:30:53.863Z</time></trkpt><trkpt lat="42.6133817" lon="-8.5206883"><ele>339.0</ele><time>2026-04-16T10:30:54.863Z</time></trkpt><trkpt lat="42.613465" lon="-8.520685"><ele>339.0</ele><time>2026-04-16T10:30:55.863Z</time></trkpt><trkpt lat="42.61353" lon="-8.52073"><ele>339.0</ele><time>2026-04-16T10:30:56.863Z</time></trkpt><trkpt lat="42.6135733" lon="-8.52083"><ele>339.0</ele><time>2026-04-16T10:30:57.863Z</time></trkpt><trkpt lat="42.6136133" lon="-8.5209667"><ele>339.4</ele><time>2026-04-16T10:30:58.864Z</time></trkpt><trkpt lat="42.6136583" lon="-8.5211383"><ele>339.79999999999995</ele><time>2026-04-16T10:30:59.863Z</time></trkpt><trkpt lat="42.6136983" lon="-8.52128"><ele>340.20000000000005</ele><time>2026-04-16T10:31:00.864Z</time></trkpt><trkpt lat="42.6137483" lon="-8.5213717"><ele>340.6</ele><time>2026-04-16T10:31:01.863Z</time></trkpt><trkpt lat="42.6138017" lon="-8.5214483"><ele>341.0</ele><time>2026-04-16T10:31:02.863Z</time></trkpt><trkpt lat="42.6138667" lon="-8.5215283"><ele>341.20000000000005</ele><time>2026-04-16T10:31:03.863Z</time></trkpt><trkpt lat="42.6139417" lon="-8.5215967"><ele>341.40000000000003</ele><time>2026-04-16T10:31:04.864Z</time></trkpt><trkpt lat="42.614015" lon="-8.5216367"><ele>341.6</ele><time>2026-04-16T10:31:05.864Z</time></trkpt><trkpt lat="42.6141283" lon="-8.5215717"><ele>341.8</ele><time>2026-04-16T10:31:07.863Z</time></trkpt><trkpt lat="42.6141883" lon="-8.5215033"><ele>342.0</ele><time>2026-04-16T10:31:08.864Z</time></trkpt><trkpt lat="42.6142767" lon="-8.5213967"><ele>342.0</ele><time>2026-04-16T10:31:09.864Z</time></trkpt><trkpt lat="42.61437" lon="-8.5212983"><ele>342.0</ele><time>2026-04-16T10:31:10.864Z</time></trkpt><trkpt lat="42.6144667" lon="-8.5212267"><ele>342.0</ele><time>2026-04-16T10:31:11.864Z</time></trkpt><trkpt lat="42.614565" lon="-8.5211867"><ele>342.0</ele><time>2026-04-16T10:31:12.863Z</time></trkpt><trkpt lat="42.6146717" lon="-8.521165"><ele>342.0</ele><time>2026-04-16T10:31:13.864Z</time></trkpt><trkpt lat="42.614785" lon="-8.5211517"><ele>343.8</ele><time>2026-04-16T10:31:14.863Z</time></trkpt><trkpt lat="42.6148983" lon="-8.52114"><ele>345.6</ele><time>2026-04-16T10:31:15.864Z</time></trkpt><trkpt lat="42.6149933" lon="-8.5211283"><ele>347.40000000000003</ele><time>2026-04-16T10:31:16.864Z</time></trkpt><trkpt lat="42.615075" lon="-8.5210867"><ele>349.20000000000005</ele><time>2026-04-16T10:31:17.863Z</time></trkpt><trkpt lat="42.615155" lon="-8.52102"><ele>351.0</ele><time>2026-04-16T10:31:18.863Z</time></trkpt><trkpt lat="42.6152367" lon="-8.520945"><ele>353.25</ele><time>2026-04-16T10:31:19.863Z</time></trkpt><trkpt lat="42.6153383" lon="-8.5208917"><ele>355.5</ele><time>2026-04-16T10:31:20.863Z</time></trkpt><trkpt lat="42.61546" lon="-8.5208367"><ele>357.75</ele><time>2026-04-16T10:31:21.863Z</time></trkpt><trkpt lat="42.615585" lon="-8.5207867"><ele>360.0</ele><time>2026-04-16T10:31:22.863Z</time></trkpt><trkpt lat="42.6157017" lon="-8.5207217"><ele>360.0</ele><time>2026-04-16T10:31:23.864Z</time></trkpt><trkpt lat="42.615815" lon="-8.52062"><ele>360.0</ele><time>2026-04-16T10:31:24.863Z</time></trkpt><trkpt lat="42.6159383" lon="-8.5204867"><ele>360.0</ele><time>2026-04-16T10:31:25.864Z</time></trkpt><trkpt lat="42.61606" lon="-8.5203433"><ele>363.6666666666667</ele><time>2026-04-16T10:31:26.863Z</time></trkpt><trkpt lat="42.6161817" lon="-8.520195"><ele>367.33333333333337</ele><time>2026-04-16T10:31:27.863Z</time></trkpt><trkpt lat="42.6162967" lon="-8.5200583"><ele>371.0</ele><time>2026-04-16T10:31:28.863Z</time></trkpt><trkpt lat="42.616415" lon="-8.519945"><ele>371.0</ele><time>2026-04-16T10:31:29.864Z</time></trkpt><trkpt lat="42.61652" lon="-8.5198317"><ele>371.0</ele><time>2026-04-16T10:31:30.863Z</time></trkpt><trkpt lat="42.6166017" lon="-8.5197483"><ele>371.0</ele><time>2026-04-16T10:31:31.863Z</time></trkpt><trkpt lat="42.61669" lon="-8.519675"><ele>371.0</ele><time>2026-04-16T10:31:32.863Z</time></trkpt><trkpt lat="42.6168" lon="-8.5196167"><ele>371.0</ele><time>2026-04-16T10:31:33.863Z</time></trkpt><trkpt lat="42.6169233" lon="-8.5195883"><ele>371.0</ele><time>2026-04-16T10:31:34.864Z</time></trkpt><trkpt lat="42.6170517" lon="-8.5195667"><ele>371.0</ele><time>2026-04-16T10:31:35.864Z</time></trkpt><trkpt lat="42.6171917" lon="-8.5195733"><ele>371.0</ele><time>2026-04-16T10:31:36.864Z</time></trkpt><trkpt lat="42.6173183" lon="-8.5195983"><ele>374.25</ele><time>2026-04-16T10:31:37.863Z</time></trkpt><trkpt lat="42.6174333" lon="-8.5196183"><ele>377.5</ele><time>2026-04-16T10:31:38.863Z</time></trkpt><trkpt lat="42.6175333" lon="-8.51966"><ele>380.75</ele><time>2026-04-16T10:31:39.864Z</time></trkpt><trkpt lat="42.6176333" lon="-8.5197217"><ele>384.0</ele><time>2026-04-16T10:31:40.864Z</time></trkpt><trkpt lat="42.617735" lon="-8.5198083"><ele>385.79999999999995</ele><time>2026-04-16T10:31:41.864Z</time></trkpt><trkpt lat="42.6178283" lon="-8.5198933"><ele>387.59999999999997</ele><time>2026-04-16T10:31:42.863Z</time></trkpt><trkpt lat="42.6179233" lon="-8.5199683"><ele>389.4</ele><time>2026-04-16T10:31:43.863Z</time></trkpt><trkpt lat="42.6180083" lon="-8.5200017"><ele>391.2</ele><time>2026-04-16T10:31:44.864Z</time></trkpt><trkpt lat="42.6180867" lon="-8.5200017"><ele>393.0</ele><time>2026-04-16T10:31:45.863Z</time></trkpt><trkpt lat="42.618165" lon="-8.51996"><ele>393.0</ele><time>2026-04-16T10:31:46.864Z</time></trkpt><trkpt lat="42.61824" lon="-8.5199217"><ele>393.0</ele><time>2026-04-16T10:31:47.863Z</time></trkpt><trkpt lat="42.6183233" lon="-8.5199117"><ele>393.0</ele><time>2026-04-16T10:31:48.864Z</time></trkpt><trkpt lat="42.6184183" lon="-8.5199083"><ele>393.0</ele><time>2026-04-16T10:31:49.864Z</time></trkpt><trkpt lat="42.618515" lon="-8.5198983"><ele>393.0</ele><time>2026-04-16T10:31:50.864Z</time></trkpt><trkpt lat="42.61863" lon="-8.519865"><ele>395.25</ele><time>2026-04-16T10:31:51.864Z</time></trkpt><trkpt lat="42.6187517" lon="-8.5198067"><ele>397.5</ele><time>2026-04-16T10:31:52.863Z</time></trkpt><trkpt lat="42.6188867" lon="-8.5197233"><ele>399.75</ele><time>2026-04-16T10:31:53.863Z</time></trkpt><trkpt lat="42.6190133" lon="-8.51965"><ele>402.0</ele><time>2026-04-16T10:31:54.864Z</time></trkpt><trkpt lat="42.6191233" lon="-8.519565"><ele>402.0</ele><time>2026-04-16T10:31:55.864Z</time></trkpt><trkpt lat="42.619195" lon="-8.519475"><ele>402.0</ele><time>2026-04-16T10:31:56.863Z</time></trkpt><trkpt lat="42.6192317" lon="-8.5193767"><ele>402.0</ele><time>2026-04-16T10:31:57.864Z</time></trkpt><trkpt lat="42.6192633" lon="-8.5192683"><ele>402.0</ele><time>2026-04-16T10:31:58.863Z</time></trkpt><trkpt lat="42.6193017" lon="-8.51916"><ele>402.0</ele><time>2026-04-16T10:31:59.863Z</time></trkpt><trkpt lat="42.619385" lon="-8.5190733"><ele>404.75</ele><time>2026-04-16T10:32:00.863Z</time></trkpt><trkpt lat="42.6195033" lon="-8.5190033"><ele>407.5</ele><time>2026-04-16T10:32:01.864Z</time></trkpt><trkpt lat="42.619625" lon="-8.51896"><ele>410.25</ele><time>2026-04-16T10:32:02.864Z</time></trkpt><trkpt lat="42.619735" lon="-8.5189283"><ele>413.0</ele><time>2026-04-16T10:32:03.863Z</time></trkpt><trkpt lat="42.6198367" lon="-8.5188983"><ele>413.0</ele><time>2026-04-16T10:32:04.863Z</time></trkpt><trkpt lat="42.61995" lon="-8.5188583"><ele>413.0</ele><time>2026-04-16T10:32:05.863Z</time></trkpt><trkpt lat="42.6200567" lon="-8.5188067"><ele>413.0</ele><time>2026-04-16T10:32:06.863Z</time></trkpt><trkpt lat="42.620135" lon="-8.518745"><ele>413.0</ele><time>2026-04-16T10:32:07.863Z</time></trkpt><trkpt lat="42.6201717" lon="-8.5186667"><ele>413.0</ele><time>2026-04-16T10:32:08.863Z</time></trkpt><trkpt lat="42.620185" lon="-8.5185783"><ele>411.59999999999997</ele><time>2026-04-16T10:32:09.864Z</time></trkpt><trkpt lat="42.6201917" lon="-8.518465"><ele>410.2</ele><time>2026-04-16T10:32:10.863Z</time></trkpt><trkpt lat="42.620215" lon="-8.518345"><ele>408.8</ele><time>2026-04-16T10:32:11.863Z</time></trkpt><trkpt lat="42.62026" lon="-8.5181983"><ele>407.4</ele><time>2026-04-16T10:32:12.863Z</time></trkpt><trkpt lat="42.620315" lon="-8.51806"><ele>406.0</ele><time>2026-04-16T10:32:13.864Z</time></trkpt><trkpt lat="42.6203467" lon="-8.5179183"><ele>409.6</ele><time>2026-04-16T10:32:14.864Z</time></trkpt><trkpt lat="42.6203667" lon="-8.517765"><ele>413.20000000000005</ele><time>2026-04-16T10:32:15.863Z</time></trkpt><trkpt lat="42.6203733" lon="-8.5176267"><ele>416.79999999999995</ele><time>2026-04-16T10:32:16.864Z</time></trkpt><trkpt lat="42.6203967" lon="-8.5174783"><ele>420.4</ele><time>2026-04-16T10:32:17.863Z</time></trkpt><trkpt lat="42.620445" lon="-8.5173383"><ele>424.0</ele><time>2026-04-16T10:32:18.864Z</time></trkpt><trkpt lat="42.6205283" lon="-8.517225"><ele>424.0</ele><time>2026-04-16T10:32:19.863Z</time></trkpt><trkpt lat="42.6206367" lon="-8.5171267"><ele>424.0</ele><time>2026-04-16T10:32:20.864Z</time></trkpt><trkpt lat="42.620775" lon="-8.5170333"><ele>424.0</ele><time>2026-04-16T10:32:21.864Z</time></trkpt><trkpt lat="42.62093" lon="-8.516925"><ele>426.0</ele><time>2026-04-16T10:32:22.863Z</time></trkpt><trkpt lat="42.62108" lon="-8.51682"><ele>428.0</ele><time>2026-04-16T10:32:23.864Z</time></trkpt><trkpt lat="42.62122" lon="-8.516725"><ele>430.0</ele><time>2026-04-16T10:32:24.863Z</time></trkpt><trkpt lat="42.621355" lon="-8.51667"><ele>430.0</ele><time>2026-04-16T10:32:25.863Z</time></trkpt><trkpt lat="42.621485" lon="-8.516635"><ele>430.0</ele><time>2026-04-16T10:32:26.863Z</time></trkpt><trkpt lat="42.6216033" lon="-8.5165933"><ele>430.0</ele><time>2026-04-16T10:32:27.863Z</time></trkpt><trkpt lat="42.62171" lon="-8.51654"><ele>430.0</ele><time>2026-04-16T10:32:28.863Z</time></trkpt><trkpt lat="42.6218083" lon="-8.5164517"><ele>430.0</ele><time>2026-04-16T10:32:29.863Z</time></trkpt><trkpt lat="42.621905" lon="-8.5163267"><ele>430.0</ele><time>2026-04-16T10:32:30.863Z</time></trkpt><trkpt lat="42.6220067" lon="-8.51618"><ele>430.0</ele><time>2026-04-16T10:32:31.864Z</time></trkpt><trkpt lat="42.6221167" lon="-8.51603"><ele>430.0</ele><time>2026-04-16T10:32:32.864Z</time></trkpt><trkpt lat="42.6222367" lon="-8.51587"><ele>431.0</ele><time>2026-04-16T10:32:33.863Z</time></trkpt><trkpt lat="42.6223583" lon="-8.515725"><ele>432.0</ele><time>2026-04-16T10:32:34.864Z</time></trkpt><trkpt lat="42.62247" lon="-8.5156167"><ele>433.0</ele><time>2026-04-16T10:32:35.864Z</time></trkpt><trkpt lat="42.6225767" lon="-8.515545"><ele>434.0</ele><time>2026-04-16T10:32:36.864Z</time></trkpt><trkpt lat="42.6226833" lon="-8.5155267"><ele>434.0</ele><time>2026-04-16T10:32:37.863Z</time></trkpt><trkpt lat="42.6227817" lon="-8.5155467"><ele>434.0</ele><time>2026-04-16T10:32:38.864Z</time></trkpt><trkpt lat="42.622855" lon="-8.5156083"><ele>434.0</ele><time>2026-04-16T10:32:39.864Z</time></trkpt><trkpt lat="42.6229217" lon="-8.5157017"><ele>434.0</ele><time>2026-04-16T10:32:40.863Z</time></trkpt><trkpt lat="42.6229833" lon="-8.5158333"><ele>434.0</ele><time>2026-04-16T10:32:41.863Z</time></trkpt><trkpt lat="42.6230533" lon="-8.515975"><ele>436.2</ele><time>2026-04-16T10:32:42.863Z</time></trkpt><trkpt lat="42.6231317" lon="-8.51609"><ele>438.4</ele><time>2026-04-16T10:32:43.863Z</time></trkpt><trkpt lat="42.6232317" lon="-8.516155"><ele>440.6</ele><time>2026-04-16T10:32:44.863Z</time></trkpt><trkpt lat="42.62333" lon="-8.5161933"><ele>442.8</ele><time>2026-04-16T10:32:45.863Z</time></trkpt><trkpt lat="42.6234067" lon="-8.5162033"><ele>445.0</ele><time>2026-04-16T10:32:46.864Z</time></trkpt><trkpt lat="42.623465" lon="-8.5161417"><ele>445.0</ele><time>2026-04-16T10:32:48.863Z</time></trkpt><trkpt lat="42.623445" lon="-8.5160017"><ele>445.0</ele><time>2026-04-16T10:32:50.863Z</time></trkpt><trkpt lat="42.6234283" lon="-8.5159067"><ele>445.0</ele><time>2026-04-16T10:32:51.863Z</time></trkpt><trkpt lat="42.6234017" lon="-8.5157783"><ele>445.0</ele><time>2026-04-16T10:32:52.864Z</time></trkpt><trkpt lat="42.6233933" lon="-8.5156217"><ele>445.0</ele><time>2026-04-16T10:32:53.864Z</time></trkpt><trkpt lat="42.623425" lon="-8.51545"><ele>443.5</ele><time>2026-04-16T10:32:54.864Z</time></trkpt><trkpt lat="42.6234767" lon="-8.5152867"><ele>442.0</ele><time>2026-04-16T10:32:55.864Z</time></trkpt><trkpt lat="42.623545" lon="-8.5151583"><ele>440.5</ele><time>2026-04-16T10:32:56.863Z</time></trkpt><trkpt lat="42.6236333" lon="-8.5150367"><ele>439.0</ele><time>2026-04-16T10:32:57.863Z</time></trkpt><trkpt lat="42.623745" lon="-8.5149233"><ele>447.33333333333337</ele><time>2026-04-16T10:32:58.863Z</time></trkpt><trkpt lat="42.6238683" lon="-8.5148167"><ele>455.66666666666663</ele><time>2026-04-16T10:32:59.863Z</time></trkpt><trkpt lat="42.6240067" lon="-8.5147033"><ele>464.0</ele><time>2026-04-16T10:33:00.863Z</time></trkpt><trkpt lat="42.62414" lon="-8.5145983"><ele>461.75</ele><time>2026-04-16T10:33:01.863Z</time></trkpt><trkpt lat="42.6242733" lon="-8.51449"><ele>459.5</ele><time>2026-04-16T10:33:02.863Z</time></trkpt><trkpt lat="42.6244067" lon="-8.514395"><ele>457.25</ele><time>2026-04-16T10:33:03.863Z</time></trkpt><trkpt lat="42.6245317" lon="-8.5143033"><ele>455.0</ele><time>2026-04-16T10:33:04.863Z</time></trkpt><trkpt lat="42.6246483" lon="-8.5142033"><ele>460.5</ele><time>2026-04-16T10:33:05.864Z</time></trkpt><trkpt lat="42.6247467" lon="-8.514105"><ele>466.0</ele><time>2026-04-16T10:33:06.864Z</time></trkpt><trkpt lat="42.6248367" lon="-8.5140183"><ele>471.5</ele><time>2026-04-16T10:33:07.863Z</time></trkpt><trkpt lat="42.624945" lon="-8.5139383"><ele>477.0</ele><time>2026-04-16T10:33:08.864Z</time></trkpt><trkpt lat="42.6250683" lon="-8.5138633"><ele>477.0</ele><time>2026-04-16T10:33:09.864Z</time></trkpt><trkpt lat="42.62518" lon="-8.51378"><ele>477.0</ele><time>2026-04-16T10:33:10.863Z</time></trkpt><trkpt lat="42.6252983" lon="-8.5136633"><ele>477.0</ele><time>2026-04-16T10:33:11.864Z</time></trkpt><trkpt lat="42.6254" lon="-8.5135483"><ele>477.0</ele><time>2026-04-16T10:33:12.864Z</time></trkpt><trkpt lat="42.6254933" lon="-8.5134483"><ele>479.40000000000003</ele><time>2026-04-16T10:33:13.864Z</time></trkpt><trkpt lat="42.6255717" lon="-8.51339"><ele>481.80000000000007</ele><time>2026-04-16T10:33:14.864Z</time></trkpt><trkpt lat="42.62566" lon="-8.51337"><ele>484.2</ele><time>2026-04-16T10:33:15.863Z</time></trkpt><trkpt lat="42.625755" lon="-8.5133933"><ele>486.6</ele><time>2026-04-16T10:33:16.863Z</time></trkpt><trkpt lat="42.62586" lon="-8.513425"><ele>489.0</ele><time>2026-04-16T10:33:17.864Z</time></trkpt><trkpt lat="42.6259717" lon="-8.5134533"><ele>489.0</ele><time>2026-04-16T10:33:18.864Z</time></trkpt><trkpt lat="42.62609" lon="-8.5134983"><ele>489.0</ele><time>2026-04-16T10:33:19.864Z</time></trkpt><trkpt lat="42.62622" lon="-8.5135483"><ele>489.0</ele><time>2026-04-16T10:33:20.864Z</time></trkpt><trkpt lat="42.6263517" lon="-8.5136"><ele>489.0</ele><time>2026-04-16T10:33:21.863Z</time></trkpt><trkpt lat="42.62648" lon="-8.5136517"><ele>491.0</ele><time>2026-04-16T10:33:22.864Z</time></trkpt><trkpt lat="42.626595" lon="-8.5137183"><ele>493.0</ele><time>2026-04-16T10:33:23.864Z</time></trkpt><trkpt lat="42.6266867" lon="-8.5137717"><ele>495.0</ele><time>2026-04-16T10:33:24.864Z</time></trkpt><trkpt lat="42.6267983" lon="-8.5137717"><ele>497.0</ele><time>2026-04-16T10:33:25.864Z</time></trkpt><trkpt lat="42.6269267" lon="-8.513775"><ele>500.5</ele><time>2026-04-16T10:33:26.863Z</time></trkpt><trkpt lat="42.62707" lon="-8.513805"><ele>504.0</ele><time>2026-04-16T10:33:27.864Z</time></trkpt><trkpt lat="42.62721" lon="-8.5138417"><ele>507.5</ele><time>2026-04-16T10:33:28.863Z</time></trkpt><trkpt lat="42.627345" lon="-8.5138717"><ele>511.0</ele><time>2026-04-16T10:33:29.863Z</time></trkpt><trkpt lat="42.62749" lon="-8.51391"><ele>511.0</ele><time>2026-04-16T10:33:30.864Z</time></trkpt><trkpt lat="42.6276383" lon="-8.5139467"><ele>511.0</ele><time>2026-04-16T10:33:31.863Z</time></trkpt><trkpt lat="42.6277933" lon="-8.5140133"><ele>511.0</ele><time>2026-04-16T10:33:32.864Z</time></trkpt><trkpt lat="42.6279467" lon="-8.5140817"><ele>511.0</ele><time>2026-04-16T10:33:33.864Z</time></trkpt><trkpt lat="42.628105" lon="-8.5141517"><ele>511.0</ele><time>2026-04-16T10:33:34.864Z</time></trkpt><trkpt lat="42.6282483" lon="-8.5142067"><ele>511.0</ele><time>2026-04-16T10:33:35.863Z</time></trkpt><trkpt lat="42.6283717" lon="-8.514245"><ele>511.0</ele><time>2026-04-16T10:33:36.863Z</time></trkpt><trkpt lat="42.6284783" lon="-8.5142883"><ele>511.0</ele><time>2026-04-16T10:33:37.864Z</time></trkpt><trkpt lat="42.62857" lon="-8.5143533"><ele>511.0</ele><time>2026-04-16T10:33:38.863Z</time></trkpt><trkpt lat="42.628625" lon="-8.5144567"><ele>511.0</ele><time>2026-04-16T10:33:39.863Z</time></trkpt><trkpt lat="42.628645" lon="-8.5145917"><ele>511.0</ele><time>2026-04-16T10:33:40.864Z</time></trkpt><trkpt lat="42.6286483" lon="-8.5147683"><ele>511.0</ele><time>2026-04-16T10:33:41.863Z</time></trkpt><trkpt lat="42.6286217" lon="-8.51498"><ele>511.6666666666667</ele><time>2026-04-16T10:33:42.864Z</time></trkpt><trkpt lat="42.6285783" lon="-8.5152283"><ele>512.3333333333334</ele><time>2026-04-16T10:33:43.863Z</time></trkpt><trkpt lat="42.6285567" lon="-8.5155017"><ele>513.0</ele><time>2026-04-16T10:33:44.863Z</time></trkpt><trkpt lat="42.62855" lon="-8.5157683"><ele>513.0</ele><time>2026-04-16T10:33:45.864Z</time></trkpt><trkpt lat="42.6285467" lon="-8.51602"><ele>513.0</ele><time>2026-04-16T10:33:46.864Z</time></trkpt><trkpt lat="42.6285383" lon="-8.5162333"><ele>513.0</ele><time>2026-04-16T10:33:47.863Z</time></trkpt><trkpt lat="42.6285233" lon="-8.5164333"><ele>511.2</ele><time>2026-04-16T10:33:48.863Z</time></trkpt><trkpt lat="42.6284883" lon="-8.5165883"><ele>509.4</ele><time>2026-04-16T10:33:49.863Z</time></trkpt><trkpt lat="42.6284417" lon="-8.5167133"><ele>507.59999999999997</ele><time>2026-04-16T10:33:50.864Z</time></trkpt><trkpt lat="42.6283733" lon="-8.5168033"><ele>505.79999999999995</ele><time>2026-04-16T10:33:51.863Z</time></trkpt><trkpt lat="42.6282767" lon="-8.5168733"><ele>504.0</ele><time>2026-04-16T10:33:52.863Z</time></trkpt><trkpt lat="42.62815" lon="-8.516925"><ele>504.0</ele><time>2026-04-16T10:33:53.864Z</time></trkpt><trkpt lat="42.6280033" lon="-8.5169733"><ele>504.0</ele><time>2026-04-16T10:33:54.864Z</time></trkpt><trkpt lat="42.6278367" lon="-8.51703"><ele>504.0</ele><time>2026-04-16T10:33:55.864Z</time></trkpt><trkpt lat="42.62766" lon="-8.5170883"><ele>501.66666666666663</ele><time>2026-04-16T10:33:56.863Z</time></trkpt><trkpt lat="42.6274717" lon="-8.5171467"><ele>499.3333333333333</ele><time>2026-04-16T10:33:57.863Z</time></trkpt><trkpt lat="42.627275" lon="-8.5172083"><ele>497.0</ele><time>2026-04-16T10:33:58.863Z</time></trkpt><trkpt lat="42.6270967" lon="-8.5172567"><ele>497.0</ele><time>2026-04-16T10:33:59.863Z</time></trkpt><trkpt lat="42.6269383" lon="-8.51729"><ele>497.0</ele><time>2026-04-16T10:34:00.863Z</time></trkpt><trkpt lat="42.6267983" lon="-8.5172983"><ele>497.0</ele><time>2026-04-16T10:34:01.864Z</time></trkpt><trkpt lat="42.6266633" lon="-8.5172817"><ele>497.0</ele><time>2026-04-16T10:34:02.864Z</time></trkpt><trkpt lat="42.6265167" lon="-8.51724"><ele>497.0</ele><time>2026-04-16T10:34:03.863Z</time></trkpt><trkpt lat="42.6263633" lon="-8.5171933"><ele>497.0</ele><time>2026-04-16T10:34:04.863Z</time></trkpt><trkpt lat="42.6262233" lon="-8.5171383"><ele>497.0</ele><time>2026-04-16T10:34:05.864Z</time></trkpt><trkpt lat="42.6260867" lon="-8.5170733"><ele>497.0</ele><time>2026-04-16T10:34:06.863Z</time></trkpt><trkpt lat="42.6259667" lon="-8.5170167"><ele>496.8</ele><time>2026-04-16T10:34:07.864Z</time></trkpt><trkpt lat="42.625875" lon="-8.5169983"><ele>496.6</ele><time>2026-04-16T10:34:08.864Z</time></trkpt><trkpt lat="42.6257983" lon="-8.5170283"><ele>496.40000000000003</ele><time>2026-04-16T10:34:09.864Z</time></trkpt><trkpt lat="42.6257467" lon="-8.5171217"><ele>496.20000000000005</ele><time>2026-04-16T10:34:10.863Z</time></trkpt><trkpt lat="42.6257217" lon="-8.5172733"><ele>496.0</ele><time>2026-04-16T10:34:11.863Z</time></trkpt><trkpt lat="42.6257117" lon="-8.517445"><ele>496.0</ele><time>2026-04-16T10:34:12.863Z</time></trkpt><trkpt lat="42.6257167" lon="-8.5176467"><ele>496.0</ele><time>2026-04-16T10:34:13.863Z</time></trkpt><trkpt lat="42.62573" lon="-8.5178767"><ele>496.0</ele><time>2026-04-16T10:34:14.863Z</time></trkpt><trkpt lat="42.6257333" lon="-8.51812"><ele>496.5</ele><time>2026-04-16T10:34:15.863Z</time></trkpt><trkpt lat="42.6257217" lon="-8.51834"><ele>497.0</ele><time>2026-04-16T10:34:16.864Z</time></trkpt><trkpt lat="42.6257017" lon="-8.5184917"><ele>497.5</ele><time>2026-04-16T10:34:17.864Z</time></trkpt><trkpt lat="42.625675" lon="-8.51857"><ele>498.0</ele><time>2026-04-16T10:34:18.863Z</time></trkpt><trkpt lat="42.625565" lon="-8.5186583"><ele>498.0</ele><time>2026-04-16T10:34:20.864Z</time></trkpt><trkpt lat="42.625485" lon="-8.5187217"><ele>498.0</ele><time>2026-04-16T10:34:21.863Z</time></trkpt><trkpt lat="42.6253883" lon="-8.5188267"><ele>498.0</ele><time>2026-04-16T10:34:22.863Z</time></trkpt><trkpt lat="42.625285" lon="-8.51899"><ele>498.0</ele><time>2026-04-16T10:34:23.864Z</time></trkpt><trkpt lat="42.6251867" lon="-8.51916"><ele>497.66666666666663</ele><time>2026-04-16T10:34:24.864Z</time></trkpt><trkpt lat="42.6250983" lon="-8.5193567"><ele>497.3333333333333</ele><time>2026-04-16T10:34:25.863Z</time></trkpt><trkpt lat="42.6250233" lon="-8.519575"><ele>497.0</ele><time>2026-04-16T10:34:26.863Z</time></trkpt><trkpt lat="42.62497" lon="-8.5198083"><ele>497.0</ele><time>2026-04-16T10:34:27.863Z</time></trkpt><trkpt lat="42.62494" lon="-8.52005"><ele>497.0</ele><time>2026-04-16T10:34:28.864Z</time></trkpt><trkpt lat="42.624905" lon="-8.520275"><ele>497.0</ele><time>2026-04-16T10:34:29.864Z</time></trkpt><trkpt lat="42.624855" lon="-8.5204933"><ele>498.0</ele><time>2026-04-16T10:34:30.863Z</time></trkpt><trkpt lat="42.6247967" lon="-8.5206867"><ele>499.0</ele><time>2026-04-16T10:34:31.863Z</time></trkpt><trkpt lat="42.6247333" lon="-8.52086"><ele>500.0</ele><time>2026-04-16T10:34:32.863Z</time></trkpt><trkpt lat="42.62466" lon="-8.5210067"><ele>501.0</ele><time>2026-04-16T10:34:33.863Z</time></trkpt><trkpt lat="42.624555" lon="-8.5211483"><ele>498.66666666666663</ele><time>2026-04-16T10:34:34.863Z</time></trkpt><trkpt lat="42.624435" lon="-8.5212667"><ele>496.3333333333333</ele><time>2026-04-16T10:34:35.863Z</time></trkpt><trkpt lat="42.6243083" lon="-8.5214"><ele>494.0</ele><time>2026-04-16T10:34:36.863Z</time></trkpt><trkpt lat="42.6242083" lon="-8.5215417"><ele>494.0</ele><time>2026-04-16T10:34:37.864Z</time></trkpt><trkpt lat="42.6241367" lon="-8.5216967"><ele>494.0</ele><time>2026-04-16T10:34:38.863Z</time></trkpt><trkpt lat="42.62409" lon="-8.521875"><ele>494.0</ele><time>2026-04-16T10:34:39.864Z</time></trkpt><trkpt lat="42.62406" lon="-8.5220833"><ele>494.0</ele><time>2026-04-16T10:34:40.863Z</time></trkpt><trkpt lat="42.6240333" lon="-8.522315"><ele>494.3333333333333</ele><time>2026-04-16T10:34:41.864Z</time></trkpt><trkpt lat="42.6240083" lon="-8.5225733"><ele>494.66666666666663</ele><time>2026-04-16T10:34:42.864Z</time></trkpt><trkpt lat="42.6239683" lon="-8.5228367"><ele>495.0</ele><time>2026-04-16T10:34:43.864Z</time></trkpt><trkpt lat="42.623905" lon="-8.5231333"><ele>495.5</ele><time>2026-04-16T10:34:44.864Z</time></trkpt><trkpt lat="42.6238267" lon="-8.5234317"><ele>496.0</ele><time>2026-04-16T10:34:45.863Z</time></trkpt><trkpt lat="42.6237417" lon="-8.5237033"><ele>495.6666666666667</ele><time>2026-04-16T10:34:46.863Z</time></trkpt><trkpt lat="42.6236717" lon="-8.5239433"><ele>495.33333333333337</ele><time>2026-04-16T10:34:47.864Z</time></trkpt><trkpt lat="42.623625" lon="-8.5241617"><ele>495.0</ele><time>2026-04-16T10:34:48.863Z</time></trkpt><trkpt lat="42.6236033" lon="-8.5243783"><ele>494.33333333333337</ele><time>2026-04-16T10:34:49.864Z</time></trkpt><trkpt lat="42.623575" lon="-8.52461"><ele>493.6666666666667</ele><time>2026-04-16T10:34:50.863Z</time></trkpt><trkpt lat="42.6235217" lon="-8.5248467"><ele>493.0</ele><time>2026-04-16T10:34:51.864Z</time></trkpt><trkpt lat="42.6234383" lon="-8.5250933"><ele>493.0</ele><time>2026-04-16T10:34:52.864Z</time></trkpt><trkpt lat="42.6233533" lon="-8.5253383"><ele>493.0</ele><time>2026-04-16T10:34:53.863Z</time></trkpt><trkpt lat="42.6232617" lon="-8.5255633"><ele>493.0</ele><time>2026-04-16T10:34:54.863Z</time></trkpt><trkpt lat="42.62318" lon="-8.525795"><ele>492.6666666666667</ele><time>2026-04-16T10:34:55.863Z</time></trkpt><trkpt lat="42.6231133" lon="-8.5260667"><ele>492.33333333333337</ele><time>2026-04-16T10:34:56.863Z</time></trkpt><trkpt lat="42.623055" lon="-8.5263633"><ele>492.0</ele><time>2026-04-16T10:34:57.864Z</time></trkpt><trkpt lat="42.623" lon="-8.5266617"><ele>492.0</ele><time>2026-04-16T10:34:58.863Z</time></trkpt><trkpt lat="42.6229417" lon="-8.52693"><ele>492.0</ele><time>2026-04-16T10:34:59.863Z</time></trkpt><trkpt lat="42.6229067" lon="-8.5271867"><ele>492.0</ele><time>2026-04-16T10:35:00.864Z</time></trkpt><trkpt lat="42.6228817" lon="-8.5274217"><ele>492.0</ele><time>2026-04-16T10:35:01.864Z</time></trkpt><trkpt lat="42.62287" lon="-8.527655"><ele>492.0</ele><time>2026-04-16T10:35:02.863Z</time></trkpt><trkpt lat="42.6228683" lon="-8.5278867"><ele>492.0</ele><time>2026-04-16T10:35:03.863Z</time></trkpt><trkpt lat="42.6228633" lon="-8.5280933"><ele>492.0</ele><time>2026-04-16T10:35:04.863Z</time></trkpt><trkpt lat="42.6228333" lon="-8.5282767"><ele>492.0</ele><time>2026-04-16T10:35:05.863Z</time></trkpt><trkpt lat="42.622775" lon="-8.5284417"><ele>492.0</ele><time>2026-04-16T10:35:06.864Z</time></trkpt><trkpt lat="42.6226917" lon="-8.5286083"><ele>492.0</ele><time>2026-04-16T10:35:07.863Z</time></trkpt><trkpt lat="42.622595" lon="-8.5287833"><ele>492.0</ele><time>2026-04-16T10:35:08.864Z</time></trkpt><trkpt lat="42.6225067" lon="-8.528995"><ele>492.0</ele><time>2026-04-16T10:35:09.863Z</time></trkpt><trkpt lat="42.622425" lon="-8.529225"><ele>492.0</ele><time>2026-04-16T10:35:10.863Z</time></trkpt><trkpt lat="42.6223467" lon="-8.529475"><ele>492.0</ele><time>2026-04-16T10:35:11.864Z</time></trkpt><trkpt lat="42.6222617" lon="-8.5297133"><ele>492.0</ele><time>2026-04-16T10:35:12.863Z</time></trkpt><trkpt lat="42.62217" lon="-8.5299383"><ele>492.0</ele><time>2026-04-16T10:35:13.864Z</time></trkpt><trkpt lat="42.6220833" lon="-8.5301367"><ele>492.0</ele><time>2026-04-16T10:35:14.864Z</time></trkpt><trkpt lat="42.62201" lon="-8.5302967"><ele>492.0</ele><time>2026-04-16T10:35:15.863Z</time></trkpt><trkpt lat="42.6219517" lon="-8.5304383"><ele>492.0</ele><time>2026-04-16T10:35:16.863Z</time></trkpt><trkpt lat="42.6218933" lon="-8.53059"><ele>492.0</ele><time>2026-04-16T10:35:17.864Z</time></trkpt><trkpt lat="42.621855" lon="-8.5307283"><ele>492.0</ele><time>2026-04-16T10:35:18.864Z</time></trkpt><trkpt lat="42.6218367" lon="-8.5308417"><ele>492.00000000000006</ele><time>2026-04-16T10:35:19.864Z</time></trkpt><trkpt lat="42.62186" lon="-8.5309767"><ele>492.00000000000006</ele><time>2026-04-16T10:35:21.864Z</time></trkpt><trkpt lat="42.6219633" lon="-8.5310367"><ele>492.0</ele><time>2026-04-16T10:35:23.863Z</time></trkpt><trkpt lat="42.6220567" lon="-8.5310667"><ele>492.0</ele><time>2026-04-16T10:35:24.864Z</time></trkpt><trkpt lat="42.62218" lon="-8.5310867"><ele>492.0</ele><time>2026-04-16T10:35:25.864Z</time></trkpt><trkpt lat="42.6223383" lon="-8.5311083"><ele>492.0</ele><time>2026-04-16T10:35:26.864Z</time></trkpt><trkpt lat="42.6225383" lon="-8.5311183"><ele>492.0</ele><time>2026-04-16T10:35:27.864Z</time></trkpt><trkpt lat="42.622705" lon="-8.531145"><ele>491.75</ele><time>2026-04-16T10:35:28.863Z</time></trkpt><trkpt lat="42.622835" lon="-8.5311917"><ele>491.5</ele><time>2026-04-16T10:35:29.864Z</time></trkpt><trkpt lat="42.6229333" lon="-8.5312617"><ele>491.25</ele><time>2026-04-16T10:35:30.863Z</time></trkpt><trkpt lat="42.622995" lon="-8.53137"><ele>491.0</ele><time>2026-04-16T10:35:31.864Z</time></trkpt><trkpt lat="42.623015" lon="-8.5315117"><ele>490.25</ele><time>2026-04-16T10:35:32.863Z</time></trkpt><trkpt lat="42.623005" lon="-8.5316833"><ele>489.5</ele><time>2026-04-16T10:35:33.864Z</time></trkpt><trkpt lat="42.6229683" lon="-8.53188"><ele>488.75</ele><time>2026-04-16T10:35:34.864Z</time></trkpt><trkpt lat="42.6229083" lon="-8.5320667"><ele>488.0</ele><time>2026-04-16T10:35:35.863Z</time></trkpt><trkpt lat="42.6228383" lon="-8.5322133"><ele>487.25</ele><time>2026-04-16T10:35:36.864Z</time></trkpt><trkpt lat="42.6227433" lon="-8.5323717"><ele>486.5</ele><time>2026-04-16T10:35:37.863Z</time></trkpt><trkpt lat="42.6226383" lon="-8.53252"><ele>485.75</ele><time>2026-04-16T10:35:38.864Z</time></trkpt><trkpt lat="42.6225583" lon="-8.5326767"><ele>485.0</ele><time>2026-04-16T10:35:39.864Z</time></trkpt><trkpt lat="42.6225167" lon="-8.5328233"><ele>484.3333333333333</ele><time>2026-04-16T10:35:40.864Z</time></trkpt><trkpt lat="42.6225133" lon="-8.5329317"><ele>483.66666666666663</ele><time>2026-04-16T10:35:41.864Z</time></trkpt><trkpt lat="42.62252" lon="-8.5330583"><ele>483.0</ele><time>2026-04-16T10:35:43.863Z</time></trkpt><trkpt lat="42.62257" lon="-8.5329933"><ele>482.33333333333337</ele><time>2026-04-16T10:36:05.863Z</time></trkpt><trkpt lat="42.6226617" lon="-8.53309"><ele>481.6666666666667</ele><time>2026-04-16T10:36:08.863Z</time></trkpt><trkpt lat="42.622715" lon="-8.5331617"><ele>481.0</ele><time>2026-04-16T10:36:09.863Z</time></trkpt><trkpt lat="42.62279" lon="-8.5332833"><ele>478.6666666666667</ele><time>2026-04-16T10:36:10.863Z</time></trkpt><trkpt lat="42.6228783" lon="-8.5334517"><ele>476.33333333333337</ele><time>2026-04-16T10:36:11.863Z</time></trkpt><trkpt lat="42.6229767" lon="-8.5336483"><ele>474.0</ele><time>2026-04-16T10:36:12.863Z</time></trkpt><trkpt lat="42.6230767" lon="-8.5338583"><ele>474.0</ele><time>2026-04-16T10:36:13.863Z</time></trkpt><trkpt lat="42.6231717" lon="-8.5340883"><ele>474.0</ele><time>2026-04-16T10:36:14.863Z</time></trkpt><trkpt lat="42.62328" lon="-8.5343217"><ele>474.0</ele><time>2026-04-16T10:36:15.863Z</time></trkpt><trkpt lat="42.6233883" lon="-8.5345267"><ele>474.0</ele><time>2026-04-16T10:36:16.864Z</time></trkpt><trkpt lat="42.6234833" lon="-8.5347033"><ele>474.0</ele><time>2026-04-16T10:36:17.864Z</time></trkpt><trkpt lat="42.62355" lon="-8.5348567"><ele>474.0</ele><time>2026-04-16T10:36:18.864Z</time></trkpt><trkpt lat="42.62358" lon="-8.5349983"><ele>474.0</ele><time>2026-04-16T10:36:19.863Z</time></trkpt><trkpt lat="42.6235767" lon="-8.5351317"><ele>474.0</ele><time>2026-04-16T10:36:20.863Z</time></trkpt><trkpt lat="42.62355" lon="-8.5352783"><ele>474.0</ele><time>2026-04-16T10:36:21.864Z</time></trkpt><trkpt lat="42.62352" lon="-8.5354283"><ele>474.0</ele><time>2026-04-16T10:36:22.863Z</time></trkpt><trkpt lat="42.6234817" lon="-8.535565"><ele>474.0</ele><time>2026-04-16T10:36:23.864Z</time></trkpt><trkpt lat="42.6234733" lon="-8.535725"><ele>474.66666666666663</ele><time>2026-04-16T10:36:24.863Z</time></trkpt><trkpt lat="42.62347" lon="-8.5359317"><ele>475.3333333333333</ele><time>2026-04-16T10:36:25.863Z</time></trkpt><trkpt lat="42.6234533" lon="-8.5361533"><ele>476.0</ele><time>2026-04-16T10:36:26.863Z</time></trkpt><trkpt lat="42.6234217" lon="-8.5363483"><ele>476.25</ele><time>2026-04-16T10:36:27.864Z</time></trkpt><trkpt lat="42.6233933" lon="-8.5365383"><ele>476.5</ele><time>2026-04-16T10:36:28.864Z</time></trkpt><trkpt lat="42.623385" lon="-8.536735"><ele>476.75</ele><time>2026-04-16T10:36:29.863Z</time></trkpt><trkpt lat="42.623375" lon="-8.5369517"><ele>477.0</ele><time>2026-04-16T10:36:30.863Z</time></trkpt><trkpt lat="42.6233383" lon="-8.53718"><ele>477.0</ele><time>2026-04-16T10:36:31.863Z</time></trkpt><trkpt lat="42.6232717" lon="-8.5374283"><ele>477.0</ele><time>2026-04-16T10:36:32.864Z</time></trkpt><trkpt lat="42.6232033" lon="-8.5376733"><ele>477.0</ele><time>2026-04-16T10:36:33.863Z</time></trkpt><trkpt lat="42.623135" lon="-8.5379017"><ele>476.33333333333337</ele><time>2026-04-16T10:36:34.864Z</time></trkpt><trkpt lat="42.623065" lon="-8.53814"><ele>475.6666666666667</ele><time>2026-04-16T10:36:35.863Z</time></trkpt><trkpt lat="42.6229967" lon="-8.538395"><ele>475.0</ele><time>2026-04-16T10:36:36.863Z</time></trkpt><trkpt lat="42.62293" lon="-8.5386617"><ele>472.6666666666667</ele><time>2026-04-16T10:36:37.863Z</time></trkpt><trkpt lat="42.6228867" lon="-8.5389267"><ele>470.33333333333337</ele><time>2026-04-16T10:36:38.864Z</time></trkpt><trkpt lat="42.62285" lon="-8.5391717"><ele>468.0</ele><time>2026-04-16T10:36:39.863Z</time></trkpt><trkpt lat="42.6228283" lon="-8.5394017"><ele>467.0</ele><time>2026-04-16T10:36:40.863Z</time></trkpt><trkpt lat="42.6228233" lon="-8.53961"><ele>465.99999999999994</ele><time>2026-04-16T10:36:41.863Z</time></trkpt><trkpt lat="42.622815" lon="-8.53978"><ele>464.99999999999994</ele><time>2026-04-16T10:36:42.864Z</time></trkpt><trkpt lat="42.6227967" lon="-8.5399"><ele>464.0</ele><time>2026-04-16T10:36:43.863Z</time></trkpt><trkpt lat="42.62274" lon="-8.539965"><ele>463.0</ele><time>2026-04-16T10:36:44.864Z</time></trkpt><trkpt lat="42.622645" lon="-8.540005"><ele>464.83333333333337</ele><time>2026-04-16T10:36:45.863Z</time></trkpt><trkpt lat="42.622535" lon="-8.540055"><ele>466.6666666666667</ele><time>2026-04-16T10:36:46.864Z</time></trkpt><trkpt lat="42.622455" lon="-8.5400967"><ele>468.5</ele><time>2026-04-16T10:36:47.864Z</time></trkpt><trkpt lat="42.6223783" lon="-8.54013"><ele>470.33333333333337</ele><time>2026-04-16T10:36:49.864Z</time></trkpt><trkpt lat="42.6224133" lon="-8.5400433"><ele>472.1666666666667</ele><time>2026-04-16T10:37:12.864Z</time></trkpt><trkpt lat="42.622465" lon="-8.5401383"><ele>474.0</ele><time>2026-04-16T10:37:15.865Z</time></trkpt><trkpt lat="42.62242" lon="-8.5403117"><ele>471.8333333333333</ele><time>2026-04-16T10:37:17.865Z</time></trkpt><trkpt lat="42.6223883" lon="-8.5404083"><ele>469.66666666666663</ele><time>2026-04-16T10:37:18.864Z</time></trkpt><trkpt lat="42.6223483" lon="-8.5404983"><ele>467.5</ele><time>2026-04-16T10:37:19.865Z</time></trkpt><trkpt lat="42.6223033" lon="-8.5405883"><ele>465.3333333333333</ele><time>2026-04-16T10:37:20.864Z</time></trkpt><trkpt lat="42.622255" lon="-8.5406817"><ele>463.16666666666663</ele><time>2026-04-16T10:37:21.864Z</time></trkpt><trkpt lat="42.6222067" lon="-8.540775"><ele>461.0</ele><time>2026-04-16T10:37:22.864Z</time></trkpt><trkpt lat="42.6221583" lon="-8.5408567"><ele>461.0</ele><time>2026-04-16T10:37:23.865Z</time></trkpt><trkpt lat="42.6221" lon="-8.540925"><ele>461.0</ele><time>2026-04-16T10:37:24.864Z</time></trkpt><trkpt lat="42.6220267" lon="-8.54096"><ele>461.0</ele><time>2026-04-16T10:37:25.865Z</time></trkpt><trkpt lat="42.6219333" lon="-8.540965"><ele>461.0</ele><time>2026-04-16T10:37:26.865Z</time></trkpt><trkpt lat="42.62182" lon="-8.54095"><ele>461.0</ele><time>2026-04-16T10:37:27.864Z</time></trkpt><trkpt lat="42.6217067" lon="-8.5409383"><ele>462.20000000000005</ele><time>2026-04-16T10:37:28.864Z</time></trkpt><trkpt lat="42.621595" lon="-8.540935"><ele>463.40000000000003</ele><time>2026-04-16T10:37:29.864Z</time></trkpt><trkpt lat="42.6214967" lon="-8.54096"><ele>464.6</ele><time>2026-04-16T10:37:30.865Z</time></trkpt><trkpt lat="42.6213983" lon="-8.54103"><ele>465.8</ele><time>2026-04-16T10:37:31.865Z</time></trkpt><trkpt lat="42.6213033" lon="-8.5411283"><ele>467.0</ele><time>2026-04-16T10:37:32.865Z</time></trkpt><trkpt lat="42.6211883" lon="-8.5412317"><ele>465.75</ele><time>2026-04-16T10:37:33.864Z</time></trkpt><trkpt lat="42.6210683" lon="-8.541345"><ele>464.5</ele><time>2026-04-16T10:37:34.865Z</time></trkpt><trkpt lat="42.62095" lon="-8.54146"><ele>463.25</ele><time>2026-04-16T10:37:35.864Z</time></trkpt><trkpt lat="42.6208283" lon="-8.541555"><ele>462.0</ele><time>2026-04-16T10:37:36.864Z</time></trkpt><trkpt lat="42.6207133" lon="-8.5416117"><ele>462.0</ele><time>2026-04-16T10:37:37.865Z</time></trkpt><trkpt lat="42.620605" lon="-8.5416283"><ele>462.0</ele><time>2026-04-16T10:37:38.865Z</time></trkpt><trkpt lat="42.620505" lon="-8.541605"><ele>462.0</ele><time>2026-04-16T10:37:39.865Z</time></trkpt><trkpt lat="42.6203883" lon="-8.5415533"><ele>462.0</ele><time>2026-04-16T10:37:40.865Z</time></trkpt><trkpt lat="42.62028" lon="-8.54148"><ele>460.75</ele><time>2026-04-16T10:37:41.864Z</time></trkpt><trkpt lat="42.62018" lon="-8.5413833"><ele>459.5</ele><time>2026-04-16T10:37:42.865Z</time></trkpt><trkpt lat="42.6200867" lon="-8.54127"><ele>458.25</ele><time>2026-04-16T10:37:43.864Z</time></trkpt><trkpt lat="42.6199933" lon="-8.5411417"><ele>457.0</ele><time>2026-04-16T10:37:44.864Z</time></trkpt><trkpt lat="42.6199" lon="-8.5409883"><ele>459.40000000000003</ele><time>2026-04-16T10:37:45.865Z</time></trkpt><trkpt lat="42.619815" lon="-8.5408383"><ele>461.80000000000007</ele><time>2026-04-16T10:37:46.864Z</time></trkpt><trkpt lat="42.6197367" lon="-8.5407367"><ele>464.2</ele><time>2026-04-16T10:37:47.864Z</time></trkpt><trkpt lat="42.6196467" lon="-8.540695"><ele>466.6</ele><time>2026-04-16T10:37:48.864Z</time></trkpt><trkpt lat="42.6195733" lon="-8.5407233"><ele>469.0</ele><time>2026-04-16T10:37:49.864Z</time></trkpt><trkpt lat="42.6194783" lon="-8.540795"><ele>469.0</ele><time>2026-04-16T10:37:51.865Z</time></trkpt><trkpt lat="42.6194" lon="-8.5408083"><ele>469.0</ele><time>2026-04-16T10:37:53.864Z</time></trkpt><trkpt lat="42.6192833" lon="-8.5408083"><ele>469.0</ele><time>2026-04-16T10:37:55.865Z</time></trkpt><trkpt lat="42.6191983" lon="-8.5408167"><ele>469.0</ele><time>2026-04-16T10:37:56.865Z</time></trkpt><trkpt lat="42.6191017" lon="-8.5408267"><ele>469.0</ele><time>2026-04-16T10:37:57.865Z</time></trkpt><trkpt lat="42.618995" lon="-8.54084"><ele>469.0</ele><time>2026-04-16T10:37:58.864Z</time></trkpt><trkpt lat="42.6188833" lon="-8.5408383"><ele>469.0</ele><time>2026-04-16T10:37:59.864Z</time></trkpt><trkpt lat="42.6187683" lon="-8.54082"><ele>469.0</ele><time>2026-04-16T10:38:00.865Z</time></trkpt><trkpt lat="42.6186567" lon="-8.5408033"><ele>469.0</ele><time>2026-04-16T10:38:01.865Z</time></trkpt><trkpt lat="42.6185533" lon="-8.5408017"><ele>469.0</ele><time>2026-04-16T10:38:02.864Z</time></trkpt><trkpt lat="42.6184533" lon="-8.5408167"><ele>468.5</ele><time>2026-04-16T10:38:03.865Z</time></trkpt><trkpt lat="42.618345" lon="-8.5408383"><ele>468.0</ele><time>2026-04-16T10:38:04.865Z</time></trkpt><trkpt lat="42.6182267" lon="-8.5408583"><ele>467.5</ele><time>2026-04-16T10:38:05.864Z</time></trkpt><trkpt lat="42.6181033" lon="-8.5408617"><ele>467.0</ele><time>2026-04-16T10:38:06.864Z</time></trkpt><trkpt lat="42.6179683" lon="-8.5408433"><ele>467.0</ele><time>2026-04-16T10:38:07.865Z</time></trkpt><trkpt lat="42.617845" lon="-8.540845"><ele>467.0</ele><time>2026-04-16T10:38:08.865Z</time></trkpt><trkpt lat="42.61773" lon="-8.5408917"><ele>467.0</ele><time>2026-04-16T10:38:09.864Z</time></trkpt><trkpt lat="42.6176217" lon="-8.540975"><ele>467.0</ele><time>2026-04-16T10:38:10.864Z</time></trkpt><trkpt lat="42.617515" lon="-8.5410833"><ele>465.75</ele><time>2026-04-16T10:38:11.865Z</time></trkpt><trkpt lat="42.6174117" lon="-8.5411733"><ele>464.5</ele><time>2026-04-16T10:38:12.865Z</time></trkpt><trkpt lat="42.6173067" lon="-8.541245"><ele>463.25</ele><time>2026-04-16T10:38:13.865Z</time></trkpt><trkpt lat="42.6171917" lon="-8.541295"><ele>462.0</ele><time>2026-04-16T10:38:14.864Z</time></trkpt><trkpt lat="42.6170733" lon="-8.5413217"><ele>458.6</ele><time>2026-04-16T10:38:15.864Z</time></trkpt><trkpt lat="42.6169533" lon="-8.541335"><ele>455.20000000000005</ele><time>2026-04-16T10:38:16.864Z</time></trkpt><trkpt lat="42.6168533" lon="-8.5413533"><ele>451.8</ele><time>2026-04-16T10:38:17.864Z</time></trkpt><trkpt lat="42.6167867" lon="-8.5413667"><ele>448.4</ele><time>2026-04-16T10:38:18.865Z</time></trkpt><trkpt lat="42.616765" lon="-8.5414683"><ele>445.0</ele><time>2026-04-16T10:38:22.864Z</time></trkpt><trkpt lat="42.61687" lon="-8.5415817"><ele>445.00000000000006</ele><time>2026-04-16T10:38:24.865Z</time></trkpt><trkpt lat="42.61694" lon="-8.5416533"><ele>445.0</ele><time>2026-04-16T10:38:25.865Z</time></trkpt><trkpt lat="42.6170233" lon="-8.5417117"><ele>445.0</ele><time>2026-04-16T10:38:26.864Z</time></trkpt><trkpt lat="42.6171017" lon="-8.5417433"><ele>445.0</ele><time>2026-04-16T10:38:27.864Z</time></trkpt><trkpt lat="42.61718" lon="-8.5417533"><ele>445.00000000000006</ele><time>2026-04-16T10:38:28.865Z</time></trkpt><trkpt lat="42.617265" lon="-8.5417317"><ele>445.0</ele><time>2026-04-16T10:38:29.865Z</time></trkpt><trkpt lat="42.6173517" lon="-8.5417283"><ele>445.8</ele><time>2026-04-16T10:38:30.864Z</time></trkpt><trkpt lat="42.6174367" lon="-8.5417417"><ele>446.6</ele><time>2026-04-16T10:38:31.865Z</time></trkpt><trkpt lat="42.6175267" lon="-8.5417767"><ele>447.4</ele><time>2026-04-16T10:38:32.864Z</time></trkpt><trkpt lat="42.61762" lon="-8.5418317"><ele>448.2</ele><time>2026-04-16T10:38:33.865Z</time></trkpt><trkpt lat="42.6177167" lon="-8.54193"><ele>449.0</ele><time>2026-04-16T10:38:34.865Z</time></trkpt><trkpt lat="42.6178067" lon="-8.5420583"><ele>448.6</ele><time>2026-04-16T10:38:35.865Z</time></trkpt><trkpt lat="42.6178817" lon="-8.5421883"><ele>448.2</ele><time>2026-04-16T10:38:36.864Z</time></trkpt><trkpt lat="42.61793" lon="-8.5422833"><ele>447.80000000000007</ele><time>2026-04-16T10:38:37.864Z</time></trkpt><trkpt lat="42.6179667" lon="-8.542355"><ele>447.40000000000003</ele><time>2026-04-16T10:38:38.864Z</time></trkpt><trkpt lat="42.618005" lon="-8.5425217"><ele>447.0</ele><time>2026-04-16T10:38:40.865Z</time></trkpt><trkpt lat="42.61803" lon="-8.542605"><ele>447.0</ele><time>2026-04-16T10:38:41.864Z</time></trkpt><trkpt lat="42.61807" lon="-8.5426917"><ele>447.00000000000006</ele><time>2026-04-16T10:38:43.865Z</time></trkpt><trkpt lat="42.618205" lon="-8.54271"><ele>447.00000000000006</ele><time>2026-04-16T10:39:28.865Z</time></trkpt><trkpt lat="42.6183067" lon="-8.5427367"><ele>447.0</ele><time>2026-04-16T10:39:29.864Z</time></trkpt><trkpt lat="42.61843" lon="-8.54276"><ele>447.0</ele><time>2026-04-16T10:39:30.865Z</time></trkpt><trkpt lat="42.6185717" lon="-8.54278"><ele>447.75</ele><time>2026-04-16T10:39:31.864Z</time></trkpt><trkpt lat="42.6187083" lon="-8.542805"><ele>448.5</ele><time>2026-04-16T10:39:32.865Z</time></trkpt><trkpt lat="42.6188367" lon="-8.5428217"><ele>449.25</ele><time>2026-04-16T10:39:33.865Z</time></trkpt><trkpt lat="42.6189717" lon="-8.5428383"><ele>450.0</ele><time>2026-04-16T10:39:34.865Z</time></trkpt><trkpt lat="42.6190983" lon="-8.5428433"><ele>450.0</ele><time>2026-04-16T10:39:35.864Z</time></trkpt><trkpt lat="42.619215" lon="-8.5428517"><ele>450.0</ele><time>2026-04-16T10:39:36.864Z</time></trkpt><trkpt lat="42.6193417" lon="-8.5428467"><ele>450.0</ele><time>2026-04-16T10:39:37.865Z</time></trkpt><trkpt lat="42.6194567" lon="-8.54283"><ele>450.0</ele><time>2026-04-16T10:39:38.864Z</time></trkpt><trkpt lat="42.6195617" lon="-8.5427983"><ele>448.8333333333333</ele><time>2026-04-16T10:39:39.864Z</time></trkpt><trkpt lat="42.619655" lon="-8.54275"><ele>447.66666666666663</ele><time>2026-04-16T10:39:40.864Z</time></trkpt><trkpt lat="42.61972" lon="-8.5427083"><ele>446.5</ele><time>2026-04-16T10:39:41.864Z</time></trkpt><trkpt lat="42.6197967" lon="-8.5426733"><ele>445.3333333333333</ele><time>2026-04-16T10:39:43.864Z</time></trkpt><trkpt lat="42.6198" lon="-8.5427633"><ele>444.16666666666663</ele><time>2026-04-16T10:39:46.865Z</time></trkpt><trkpt lat="42.6197433" lon="-8.5428217"><ele>443.0</ele><time>2026-04-16T10:39:47.864Z</time></trkpt><trkpt lat="42.619685" lon="-8.5428867"><ele>439.5</ele><time>2026-04-16T10:39:48.864Z</time></trkpt><trkpt lat="42.619605" lon="-8.542995"><ele>436.0</ele><time>2026-04-16T10:39:49.865Z</time></trkpt><trkpt lat="42.6195217" lon="-8.5431183"><ele>432.5</ele><time>2026-04-16T10:39:50.865Z</time></trkpt><trkpt lat="42.6194233" lon="-8.543245"><ele>429.0</ele><time>2026-04-16T10:39:51.864Z</time></trkpt><trkpt lat="42.6193167" lon="-8.5433617"><ele>429.0</ele><time>2026-04-16T10:39:52.864Z</time></trkpt><trkpt lat="42.6192233" lon="-8.5434467"><ele>429.0</ele><time>2026-04-16T10:39:53.865Z</time></trkpt><trkpt lat="42.6191517" lon="-8.5435133"><ele>429.0</ele><time>2026-04-16T10:39:54.864Z</time></trkpt><trkpt lat="42.6190933" lon="-8.543615"><ele>429.0</ele><time>2026-04-16T10:39:56.864Z</time></trkpt><trkpt lat="42.6191317" lon="-8.5437317"><ele>429.0</ele><time>2026-04-16T10:39:58.864Z</time></trkpt><trkpt lat="42.6191933" lon="-8.543795"><ele>426.0</ele><time>2026-04-16T10:39:59.865Z</time></trkpt><trkpt lat="42.619265" lon="-8.5438417"><ele>423.0</ele><time>2026-04-16T10:40:00.864Z</time></trkpt><trkpt lat="42.6193467" lon="-8.54387"><ele>420.0</ele><time>2026-04-16T10:40:01.864Z</time></trkpt><trkpt lat="42.61943" lon="-8.54386"><ele>417.0</ele><time>2026-04-16T10:40:02.865Z</time></trkpt><trkpt lat="42.619505" lon="-8.5438417"><ele>414.0</ele><time>2026-04-16T10:40:03.865Z</time></trkpt><trkpt lat="42.6196217" lon="-8.543855"><ele>411.0</ele><time>2026-04-16T10:40:05.865Z</time></trkpt><trkpt lat="42.61968" lon="-8.543925"><ele>411.0</ele><time>2026-04-16T10:40:06.865Z</time></trkpt><trkpt lat="42.6197417" lon="-8.5440433"><ele>411.0</ele><time>2026-04-16T10:40:07.864Z</time></trkpt><trkpt lat="42.6198033" lon="-8.5441817"><ele>411.0</ele><time>2026-04-16T10:40:08.864Z</time></trkpt><trkpt lat="42.61985" lon="-8.5443283"><ele>411.0</ele><time>2026-04-16T10:40:09.864Z</time></trkpt><trkpt lat="42.61988" lon="-8.5444617"><ele>411.0</ele><time>2026-04-16T10:40:10.865Z</time></trkpt><trkpt lat="42.6199017" lon="-8.5445933"><ele>408.0</ele><time>2026-04-16T10:40:11.865Z</time></trkpt><trkpt lat="42.61992" lon="-8.5447333"><ele>405.0</ele><time>2026-04-16T10:40:12.865Z</time></trkpt><trkpt lat="42.6199333" lon="-8.544865"><ele>402.0</ele><time>2026-04-16T10:40:13.865Z</time></trkpt><trkpt lat="42.6199583" lon="-8.54499"><ele>399.0</ele><time>2026-04-16T10:40:14.864Z</time></trkpt><trkpt lat="42.62" lon="-8.54511"><ele>396.0</ele><time>2026-04-16T10:40:15.864Z</time></trkpt><trkpt lat="42.620055" lon="-8.545225"><ele>396.0</ele><time>2026-04-16T10:40:16.864Z</time></trkpt><trkpt lat="42.6201067" lon="-8.54533"><ele>396.0</ele><time>2026-04-16T10:40:17.865Z</time></trkpt><trkpt lat="42.6201567" lon="-8.5454133"><ele>396.0</ele><time>2026-04-16T10:40:18.864Z</time></trkpt><trkpt lat="42.620195" lon="-8.5455033"><ele>396.0</ele><time>2026-04-16T10:40:19.865Z</time></trkpt><trkpt lat="42.6202067" lon="-8.545605"><ele>396.0</ele><time>2026-04-16T10:40:20.864Z</time></trkpt><trkpt lat="42.6202067" lon="-8.5457017"><ele>396.0</ele><time>2026-04-16T10:40:21.865Z</time></trkpt><trkpt lat="42.620165" lon="-8.54583"><ele>393.6</ele><time>2026-04-16T10:40:23.864Z</time></trkpt><trkpt lat="42.6200483" lon="-8.5458483"><ele>391.20000000000005</ele><time>2026-04-16T10:40:25.865Z</time></trkpt><trkpt lat="42.61996" lon="-8.54581"><ele>388.79999999999995</ele><time>2026-04-16T10:40:26.864Z</time></trkpt><trkpt lat="42.6198483" lon="-8.545755"><ele>386.4</ele><time>2026-04-16T10:40:27.865Z</time></trkpt><trkpt lat="42.6197367" lon="-8.5457"><ele>384.0</ele><time>2026-04-16T10:40:28.865Z</time></trkpt><trkpt lat="42.6196367" lon="-8.54566"><ele>384.0</ele><time>2026-04-16T10:40:29.864Z</time></trkpt><trkpt lat="42.6195433" lon="-8.5456417"><ele>384.0</ele><time>2026-04-16T10:40:30.864Z</time></trkpt><trkpt lat="42.6194383" lon="-8.54564"><ele>384.0</ele><time>2026-04-16T10:40:31.865Z</time></trkpt><trkpt lat="42.6193317" lon="-8.545645"><ele>384.0</ele><time>2026-04-16T10:40:32.864Z</time></trkpt><trkpt lat="42.6192283" lon="-8.54565"><ele>384.0</ele><time>2026-04-16T10:40:33.864Z</time></trkpt><trkpt lat="42.61913" lon="-8.545655"><ele>382.3333333333333</ele><time>2026-04-16T10:40:34.864Z</time></trkpt><trkpt lat="42.6190417" lon="-8.5456533"><ele>380.6666666666667</ele><time>2026-04-16T10:40:35.865Z</time></trkpt><trkpt lat="42.618955" lon="-8.54565"><ele>379.0</ele><time>2026-04-16T10:40:36.865Z</time></trkpt><trkpt lat="42.618865" lon="-8.545655"><ele>377.33333333333337</ele><time>2026-04-16T10:40:37.864Z</time></trkpt><trkpt lat="42.6187817" lon="-8.5456767"><ele>375.6666666666667</ele><time>2026-04-16T10:40:38.864Z</time></trkpt><trkpt lat="42.6186983" lon="-8.5457267"><ele>374.0</ele><time>2026-04-16T10:40:39.865Z</time></trkpt><trkpt lat="42.6186067" lon="-8.54578"><ele>371.6</ele><time>2026-04-16T10:40:40.865Z</time></trkpt><trkpt lat="42.6185167" lon="-8.5458233"><ele>369.2</ele><time>2026-04-16T10:40:41.864Z</time></trkpt><trkpt lat="42.6184233" lon="-8.5458617"><ele>366.8</ele><time>2026-04-16T10:40:42.864Z</time></trkpt><trkpt lat="42.6183217" lon="-8.545885"><ele>364.40000000000003</ele><time>2026-04-16T10:40:43.864Z</time></trkpt><trkpt lat="42.6182267" lon="-8.5459183"><ele>362.0</ele><time>2026-04-16T10:40:44.864Z</time></trkpt><trkpt lat="42.6181267" lon="-8.5459483"><ele>362.0</ele><time>2026-04-16T10:40:45.864Z</time></trkpt><trkpt lat="42.618035" lon="-8.5459733"><ele>362.0</ele><time>2026-04-16T10:40:46.864Z</time></trkpt><trkpt lat="42.61795" lon="-8.5460033"><ele>362.0</ele><time>2026-04-16T10:40:47.865Z</time></trkpt><trkpt lat="42.617885" lon="-8.5460233"><ele>362.0</ele><time>2026-04-16T10:40:48.864Z</time></trkpt><trkpt lat="42.6178117" lon="-8.5460867"><ele>362.0</ele><time>2026-04-16T10:40:50.865Z</time></trkpt><trkpt lat="42.6178483" lon="-8.5461767"><ele>362.0</ele><time>2026-04-16T10:40:53.864Z</time></trkpt><trkpt lat="42.6179067" lon="-8.5462183"><ele>359.6</ele><time>2026-04-16T10:40:54.864Z</time></trkpt><trkpt lat="42.6179883" lon="-8.5462783"><ele>357.20000000000005</ele><time>2026-04-16T10:40:55.864Z</time></trkpt><trkpt lat="42.61807" lon="-8.54637"><ele>354.8</ele><time>2026-04-16T10:40:56.865Z</time></trkpt><trkpt lat="42.618115" lon="-8.54648"><ele>352.4</ele><time>2026-04-16T10:40:57.865Z</time></trkpt><trkpt lat="42.6181433" lon="-8.5466083"><ele>350.0</ele><time>2026-04-16T10:40:58.865Z</time></trkpt><trkpt lat="42.6181583" lon="-8.5467367"><ele>350.0</ele><time>2026-04-16T10:40:59.864Z</time></trkpt><trkpt lat="42.6181783" lon="-8.546865"><ele>350.0</ele><time>2026-04-16T10:41:00.865Z</time></trkpt><trkpt lat="42.6181983" lon="-8.5469717"><ele>350.0</ele><time>2026-04-16T10:41:01.865Z</time></trkpt><trkpt lat="42.618215" lon="-8.5470633"><ele>350.0</ele><time>2026-04-16T10:41:02.865Z</time></trkpt><trkpt lat="42.6182533" lon="-8.5472117"><ele>350.0</ele><time>2026-04-16T10:41:04.865Z</time></trkpt><trkpt lat="42.6182883" lon="-8.5473633"><ele>346.25</ele><time>2026-04-16T10:41:06.865Z</time></trkpt><trkpt lat="42.61836" lon="-8.5475133"><ele>342.5</ele><time>2026-04-16T10:41:08.864Z</time></trkpt><trkpt lat="42.6184217" lon="-8.5475867"><ele>338.75</ele><time>2026-04-16T10:41:09.864Z</time></trkpt><trkpt lat="42.6185117" lon="-8.5476667"><ele>335.0</ele><time>2026-04-16T10:41:10.865Z</time></trkpt><trkpt lat="42.61863" lon="-8.54775"><ele>336.25</ele><time>2026-04-16T10:41:11.865Z</time></trkpt><trkpt lat="42.6187667" lon="-8.54784"><ele>337.5</ele><time>2026-04-16T10:41:12.865Z</time></trkpt><trkpt lat="42.6188867" lon="-8.5479183"><ele>338.75</ele><time>2026-04-16T10:41:13.864Z</time></trkpt><trkpt lat="42.6190067" lon="-8.5479983"><ele>340.0</ele><time>2026-04-16T10:41:14.865Z</time></trkpt><trkpt lat="42.61912" lon="-8.5480667"><ele>337.6</ele><time>2026-04-16T10:41:15.865Z</time></trkpt><trkpt lat="42.6192083" lon="-8.5481417"><ele>335.2</ele><time>2026-04-16T10:41:16.864Z</time></trkpt><trkpt lat="42.619295" lon="-8.5482017"><ele>332.79999999999995</ele><time>2026-04-16T10:41:17.864Z</time></trkpt><trkpt lat="42.6193717" lon="-8.5482667"><ele>330.4</ele><time>2026-04-16T10:41:18.864Z</time></trkpt><trkpt lat="42.619435" lon="-8.5483117"><ele>328.0</ele><time>2026-04-16T10:41:19.865Z</time></trkpt><trkpt lat="42.6195183" lon="-8.54836"><ele>328.0</ele><time>2026-04-16T10:41:21.864Z</time></trkpt><trkpt lat="42.6195017" lon="-8.54845"><ele>328.0</ele><time>2026-04-16T10:41:25.865Z</time></trkpt><trkpt lat="42.619335" lon="-8.5484033"><ele>328.0</ele><time>2026-04-16T10:41:27.864Z</time></trkpt><trkpt lat="42.6192183" lon="-8.5483983"><ele>328.0</ele><time>2026-04-16T10:41:28.865Z</time></trkpt><trkpt lat="42.6191083" lon="-8.5484117"><ele>326.3333333333333</ele><time>2026-04-16T10:41:29.865Z</time></trkpt><trkpt lat="42.6190033" lon="-8.5484167"><ele>324.66666666666663</ele><time>2026-04-16T10:41:30.865Z</time></trkpt><trkpt lat="42.6189167" lon="-8.5484333"><ele>323.0</ele><time>2026-04-16T10:41:31.864Z</time></trkpt><trkpt lat="42.6188383" lon="-8.548455"><ele>321.3333333333333</ele><time>2026-04-16T10:41:32.864Z</time></trkpt><trkpt lat="42.6187633" lon="-8.5485"><ele>319.6666666666667</ele><time>2026-04-16T10:41:33.865Z</time></trkpt><trkpt lat="42.6186967" lon="-8.5485733"><ele>318.0</ele><time>2026-04-16T10:41:34.864Z</time></trkpt><trkpt lat="42.6186267" lon="-8.5486583"><ele>313.75</ele><time>2026-04-16T10:41:35.864Z</time></trkpt><trkpt lat="42.61854" lon="-8.5487283"><ele>309.5</ele><time>2026-04-16T10:41:36.864Z</time></trkpt><trkpt lat="42.6184383" lon="-8.5488133"><ele>305.25</ele><time>2026-04-16T10:41:37.865Z</time></trkpt><trkpt lat="42.61834" lon="-8.548905"><ele>301.0</ele><time>2026-04-16T10:41:38.864Z</time></trkpt><trkpt lat="42.6182467" lon="-8.54903"><ele>301.0</ele><time>2026-04-16T10:41:39.865Z</time></trkpt><trkpt lat="42.6181733" lon="-8.5491333"><ele>301.0</ele><time>2026-04-16T10:41:40.865Z</time></trkpt><trkpt lat="42.61812" lon="-8.54923"><ele>301.0</ele><time>2026-04-16T10:41:41.864Z</time></trkpt><trkpt lat="42.6180933" lon="-8.5493233"><ele>301.0</ele><time>2026-04-16T10:41:42.865Z</time></trkpt><trkpt lat="42.618095" lon="-8.5494267"><ele>301.0</ele><time>2026-04-16T10:41:43.864Z</time></trkpt><trkpt lat="42.61813" lon="-8.5495383"><ele>301.0</ele><time>2026-04-16T10:41:44.865Z</time></trkpt><trkpt lat="42.6181967" lon="-8.5496467"><ele>300.3333333333333</ele><time>2026-04-16T10:41:45.865Z</time></trkpt><trkpt lat="42.6182933" lon="-8.5497667"><ele>299.6666666666667</ele><time>2026-04-16T10:41:46.865Z</time></trkpt><trkpt lat="42.6183883" lon="-8.5499367"><ele>299.0</ele><time>2026-04-16T10:41:47.864Z</time></trkpt><trkpt lat="42.6184667" lon="-8.5501333"><ele>299.0</ele><time>2026-04-16T10:41:48.865Z</time></trkpt><trkpt lat="42.6185217" lon="-8.5503333"><ele>299.0</ele><time>2026-04-16T10:41:49.865Z</time></trkpt><trkpt lat="42.61856" lon="-8.5505233"><ele>299.0</ele><time>2026-04-16T10:41:50.865Z</time></trkpt><trkpt lat="42.6185883" lon="-8.5506883"><ele>299.0</ele><time>2026-04-16T10:41:51.865Z</time></trkpt><trkpt lat="42.6186083" lon="-8.5508283"><ele>298.59999999999997</ele><time>2026-04-16T10:41:52.864Z</time></trkpt><trkpt lat="42.6186283" lon="-8.5509567"><ele>298.2</ele><time>2026-04-16T10:41:53.865Z</time></trkpt><trkpt lat="42.6186617" lon="-8.5510783"><ele>297.79999999999995</ele><time>2026-04-16T10:41:54.864Z</time></trkpt><trkpt lat="42.6187017" lon="-8.5511983"><ele>297.4</ele><time>2026-04-16T10:41:55.864Z</time></trkpt><trkpt lat="42.6187467" lon="-8.55131"><ele>297.0</ele><time>2026-04-16T10:41:56.865Z</time></trkpt><trkpt lat="42.6187917" lon="-8.551415"><ele>294.1666666666667</ele><time>2026-04-16T10:41:57.865Z</time></trkpt><trkpt lat="42.6188267" lon="-8.5515133"><ele>291.3333333333333</ele><time>2026-04-16T10:41:58.864Z</time></trkpt><trkpt lat="42.6188583" lon="-8.5516017"><ele>288.5</ele><time>2026-04-16T10:41:59.865Z</time></trkpt><trkpt lat="42.6189117" lon="-8.55172"><ele>285.66666666666663</ele><time>2026-04-16T10:42:01.864Z</time></trkpt><trkpt lat="42.6188517" lon="-8.5517467"><ele>282.8333333333333</ele><time>2026-04-16T10:42:11.864Z</time></trkpt><trkpt lat="42.6187783" lon="-8.5518"><ele>280.0</ele><time>2026-04-16T10:42:13.865Z</time></trkpt><trkpt lat="42.6187417" lon="-8.5518933"><ele>280.0</ele><time>2026-04-16T10:42:14.865Z</time></trkpt><trkpt lat="42.618695" lon="-8.5520017"><ele>280.0</ele><time>2026-04-16T10:42:15.864Z</time></trkpt><trkpt lat="42.6186417" lon="-8.5521083"><ele>280.0</ele><time>2026-04-16T10:42:16.864Z</time></trkpt><trkpt lat="42.6185817" lon="-8.5522117"><ele>280.0</ele><time>2026-04-16T10:42:17.865Z</time></trkpt><trkpt lat="42.6185167" lon="-8.55231"><ele>280.0</ele><time>2026-04-16T10:42:18.864Z</time></trkpt><trkpt lat="42.6184517" lon="-8.55239"><ele>278.3333333333333</ele><time>2026-04-16T10:42:19.865Z</time></trkpt><trkpt lat="42.618385" lon="-8.5524667"><ele>276.66666666666663</ele><time>2026-04-16T10:42:20.865Z</time></trkpt><trkpt lat="42.6183117" lon="-8.5525333"><ele>275.0</ele><time>2026-04-16T10:42:21.865Z</time></trkpt><trkpt lat="42.6182483" lon="-8.5525883"><ele>273.3333333333333</ele><time>2026-04-16T10:42:22.865Z</time></trkpt><trkpt lat="42.6181917" lon="-8.55263"><ele>271.6666666666667</ele><time>2026-04-16T10:42:23.865Z</time></trkpt><trkpt lat="42.6181217" lon="-8.5526917"><ele>270.0</ele><time>2026-04-16T10:42:25.864Z</time></trkpt><trkpt lat="42.6180667" lon="-8.5527817"><ele>270.0</ele><time>2026-04-16T10:46:13.866Z</time></trkpt><trkpt lat="42.618" lon="-8.5528133"><ele>270.0</ele><time>2026-04-16T10:46:14.866Z</time></trkpt><trkpt lat="42.617925" lon="-8.5528533"><ele>270.0</ele><time>2026-04-16T10:46:15.865Z</time></trkpt><trkpt lat="42.61784" lon="-8.5529133"><ele>270.0</ele><time>2026-04-16T10:46:16.865Z</time></trkpt><trkpt lat="42.61776" lon="-8.5529817"><ele>270.0</ele><time>2026-04-16T10:46:17.866Z</time></trkpt><trkpt lat="42.6176733" lon="-8.553045"><ele>270.0</ele><time>2026-04-16T10:46:18.866Z</time></trkpt><trkpt lat="42.617585" lon="-8.5531"><ele>267.1666666666667</ele><time>2026-04-16T10:46:19.865Z</time></trkpt><trkpt lat="42.61751" lon="-8.5531433"><ele>264.3333333333333</ele><time>2026-04-16T10:46:20.866Z</time></trkpt><trkpt lat="42.61745" lon="-8.5531767"><ele>261.5</ele><time>2026-04-16T10:46:21.866Z</time></trkpt><trkpt lat="42.6173817" lon="-8.5531933"><ele>258.66666666666663</ele><time>2026-04-16T10:46:23.865Z</time></trkpt><trkpt lat="42.6174933" lon="-8.55317"><ele>255.83333333333331</ele><time>2026-04-16T10:46:30.865Z</time></trkpt><trkpt lat="42.6175633" lon="-8.553165"><ele>253.0</ele><time>2026-04-16T10:46:31.866Z</time></trkpt><trkpt lat="42.6176583" lon="-8.5531517"><ele>253.0</ele><time>2026-04-16T10:46:32.865Z</time></trkpt><trkpt lat="42.6177683" lon="-8.5531133"><ele>253.0</ele><time>2026-04-16T10:46:33.866Z</time></trkpt><trkpt lat="42.617885" lon="-8.55306"><ele>253.0</ele><time>2026-04-16T10:46:34.865Z</time></trkpt><trkpt lat="42.618005" lon="-8.5530067"><ele>253.0</ele><time>2026-04-16T10:46:35.866Z</time></trkpt><trkpt lat="42.6181217" lon="-8.5529617"><ele>255.25</ele><time>2026-04-16T10:46:36.865Z</time></trkpt><trkpt lat="42.6182467" lon="-8.5529267"><ele>257.5</ele><time>2026-04-16T10:46:37.865Z</time></trkpt><trkpt lat="42.61837" lon="-8.5529083"><ele>259.75</ele><time>2026-04-16T10:46:38.865Z</time></trkpt><trkpt lat="42.6184783" lon="-8.552915"><ele>262.0</ele><time>2026-04-16T10:46:39.865Z</time></trkpt><trkpt lat="42.618585" lon="-8.5529367"><ele>261.2</ele><time>2026-04-16T10:46:40.865Z</time></trkpt><trkpt lat="42.618685" lon="-8.5529833"><ele>260.4</ele><time>2026-04-16T10:46:41.866Z</time></trkpt><trkpt lat="42.6187817" lon="-8.553035"><ele>259.6</ele><time>2026-04-16T10:46:42.866Z</time></trkpt><trkpt lat="42.6188683" lon="-8.55309"><ele>258.8</ele><time>2026-04-16T10:46:43.865Z</time></trkpt><trkpt lat="42.6189517" lon="-8.5531317"><ele>258.0</ele><time>2026-04-16T10:46:44.865Z</time></trkpt><trkpt lat="42.6190433" lon="-8.553165"><ele>258.0</ele><time>2026-04-16T10:46:45.865Z</time></trkpt><trkpt lat="42.6191333" lon="-8.5531967"><ele>258.0</ele><time>2026-04-16T10:46:46.866Z</time></trkpt><trkpt lat="42.619225" lon="-8.55322"><ele>258.0</ele><time>2026-04-16T10:46:47.865Z</time></trkpt><trkpt lat="42.619305" lon="-8.5532367"><ele>258.0</ele><time>2026-04-16T10:46:48.866Z</time></trkpt><trkpt lat="42.619385" lon="-8.5532283"><ele>258.0</ele><time>2026-04-16T10:46:49.866Z</time></trkpt><trkpt lat="42.6194817" lon="-8.5531983"><ele>258.0</ele><time>2026-04-16T10:46:50.866Z</time></trkpt><trkpt lat="42.6195917" lon="-8.553135"><ele>257.5</ele><time>2026-04-16T10:46:51.865Z</time></trkpt><trkpt lat="42.6197" lon="-8.5530717"><ele>257.0</ele><time>2026-04-16T10:46:52.866Z</time></trkpt><trkpt lat="42.6198" lon="-8.55299"><ele>256.5</ele><time>2026-04-16T10:46:53.866Z</time></trkpt><trkpt lat="42.6199117" lon="-8.5528883"><ele>256.0</ele><time>2026-04-16T10:46:54.865Z</time></trkpt><trkpt lat="42.620015" lon="-8.5528083"><ele>257.0</ele><time>2026-04-16T10:46:55.866Z</time></trkpt><trkpt lat="42.6201033" lon="-8.55275"><ele>258.0</ele><time>2026-04-16T10:46:56.865Z</time></trkpt><trkpt lat="42.620185" lon="-8.5527033"><ele>259.0</ele><time>2026-04-16T10:46:57.865Z</time></trkpt><trkpt lat="42.620255" lon="-8.5526867"><ele>260.0</ele><time>2026-04-16T10:46:58.866Z</time></trkpt><trkpt lat="42.6203333" lon="-8.5526867"><ele>261.0</ele><time>2026-04-16T10:46:59.865Z</time></trkpt><trkpt lat="42.6204167" lon="-8.552725"><ele>262.0</ele><time>2026-04-16T10:47:00.866Z</time></trkpt><trkpt lat="42.6205067" lon="-8.5528117"><ele>259.2</ele><time>2026-04-16T10:47:01.865Z</time></trkpt><trkpt lat="42.6205933" lon="-8.5529017"><ele>256.4</ele><time>2026-04-16T10:47:02.865Z</time></trkpt><trkpt lat="42.62068" lon="-8.5529883"><ele>253.60000000000002</ele><time>2026-04-16T10:47:03.866Z</time></trkpt><trkpt lat="42.62076" lon="-8.55305"><ele>250.8</ele><time>2026-04-16T10:47:04.865Z</time></trkpt><trkpt lat="42.6208583" lon="-8.5530933"><ele>248.0</ele><time>2026-04-16T10:47:05.866Z</time></trkpt><trkpt lat="42.6209683" lon="-8.55311"><ele>248.0</ele><time>2026-04-16T10:47:06.866Z</time></trkpt><trkpt lat="42.6210767" lon="-8.553095"><ele>248.0</ele><time>2026-04-16T10:47:07.866Z</time></trkpt><trkpt lat="42.6211917" lon="-8.5530433"><ele>248.0</ele><time>2026-04-16T10:47:08.865Z</time></trkpt><trkpt lat="42.6213117" lon="-8.552985"><ele>248.0</ele><time>2026-04-16T10:47:09.865Z</time></trkpt><trkpt lat="42.6214483" lon="-8.5529133"><ele>250.33333333333334</ele><time>2026-04-16T10:47:10.865Z</time></trkpt><trkpt lat="42.6216" lon="-8.55284"><ele>252.66666666666669</ele><time>2026-04-16T10:47:11.866Z</time></trkpt><trkpt lat="42.6217483" lon="-8.55278"><ele>255.0</ele><time>2026-04-16T10:47:12.865Z</time></trkpt><trkpt lat="42.6218833" lon="-8.5527183"><ele>254.5</ele><time>2026-04-16T10:47:13.865Z</time></trkpt><trkpt lat="42.6220183" lon="-8.5526533"><ele>254.0</ele><time>2026-04-16T10:47:14.865Z</time></trkpt><trkpt lat="42.6221433" lon="-8.5525983"><ele>253.5</ele><time>2026-04-16T10:47:15.866Z</time></trkpt><trkpt lat="42.6222467" lon="-8.5525467"><ele>253.0</ele><time>2026-04-16T10:47:16.866Z</time></trkpt><trkpt lat="42.6223483" lon="-8.5524567"><ele>253.0</ele><time>2026-04-16T10:47:17.865Z</time></trkpt><trkpt lat="42.6224333" lon="-8.5523483"><ele>253.0</ele><time>2026-04-16T10:47:18.865Z</time></trkpt><trkpt lat="42.6225117" lon="-8.552255"><ele>253.0</ele><time>2026-04-16T10:47:19.866Z</time></trkpt><trkpt lat="42.6225867" lon="-8.5521833"><ele>253.0</ele><time>2026-04-16T10:47:20.866Z</time></trkpt><trkpt lat="42.6226717" lon="-8.5521333"><ele>253.0</ele><time>2026-04-16T10:47:21.866Z</time></trkpt><trkpt lat="42.6227633" lon="-8.5521117"><ele>252.0</ele><time>2026-04-16T10:47:22.866Z</time></trkpt><trkpt lat="42.62287" lon="-8.5521183"><ele>251.0</ele><time>2026-04-16T10:47:23.866Z</time></trkpt><trkpt lat="42.6229617" lon="-8.5521583"><ele>250.0</ele><time>2026-04-16T10:47:24.865Z</time></trkpt><trkpt lat="42.6230367" lon="-8.552215"><ele>249.0</ele><time>2026-04-16T10:47:25.866Z</time></trkpt><trkpt lat="42.623105" lon="-8.5522717"><ele>248.0</ele><time>2026-04-16T10:47:26.865Z</time></trkpt><trkpt lat="42.6231783" lon="-8.5523217"><ele>248.00000000000003</ele><time>2026-04-16T10:47:27.866Z</time></trkpt><trkpt lat="42.6232433" lon="-8.5523633"><ele>248.0</ele><time>2026-04-16T10:47:28.865Z</time></trkpt><trkpt lat="42.623305" lon="-8.5523917"><ele>248.0</ele><time>2026-04-16T10:47:29.865Z</time></trkpt><trkpt lat="42.6234033" lon="-8.5524517"><ele>248.0</ele><time>2026-04-16T10:47:31.865Z</time></trkpt><trkpt lat="42.6234467" lon="-8.552515"><ele>248.00000000000003</ele><time>2026-04-16T10:47:32.865Z</time></trkpt><trkpt lat="42.6235133" lon="-8.552645"><ele>248.0</ele><time>2026-04-16T10:47:34.865Z</time></trkpt><trkpt lat="42.6236067" lon="-8.5526983"><ele>245.0</ele><time>2026-04-16T10:47:36.865Z</time></trkpt><trkpt lat="42.6236733" lon="-8.55271"><ele>242.0</ele><time>2026-04-16T10:47:37.866Z</time></trkpt><trkpt lat="42.62377" lon="-8.552705"><ele>239.0</ele><time>2026-04-16T10:47:38.865Z</time></trkpt><trkpt lat="42.6238833" lon="-8.55266"><ele>236.0</ele><time>2026-04-16T10:47:39.866Z</time></trkpt><trkpt lat="42.6240183" lon="-8.5525933"><ele>233.0</ele><time>2026-04-16T10:47:40.865Z</time></trkpt><trkpt lat="42.6241383" lon="-8.552485"><ele>233.0</ele><time>2026-04-16T10:47:41.865Z</time></trkpt><trkpt lat="42.624245" lon="-8.552315"><ele>233.0</ele><time>2026-04-16T10:47:42.866Z</time></trkpt><trkpt lat="42.6243333" lon="-8.5521117"><ele>233.0</ele><time>2026-04-16T10:47:43.866Z</time></trkpt><trkpt lat="42.6244017" lon="-8.5519667"><ele>232.0</ele><time>2026-04-16T10:47:44.865Z</time></trkpt><trkpt lat="42.624465" lon="-8.5518617"><ele>231.0</ele><time>2026-04-16T10:47:45.865Z</time></trkpt><trkpt lat="42.6245333" lon="-8.55179"><ele>230.0</ele><time>2026-04-16T10:47:46.865Z</time></trkpt><trkpt lat="42.6246017" lon="-8.5517317"><ele>229.0</ele><time>2026-04-16T10:47:47.866Z</time></trkpt><trkpt lat="42.6246633" lon="-8.551705"><ele>228.0</ele><time>2026-04-16T10:47:48.866Z</time></trkpt><trkpt lat="42.6247733" lon="-8.5517633"><ele>228.0</ele><time>2026-04-16T10:47:50.865Z</time></trkpt><trkpt lat="42.6248333" lon="-8.5518433"><ele>228.0</ele><time>2026-04-16T10:47:51.866Z</time></trkpt><trkpt lat="42.6249017" lon="-8.5519433"><ele>228.0</ele><time>2026-04-16T10:47:52.865Z</time></trkpt><trkpt lat="42.6249633" lon="-8.55208"><ele>228.0</ele><time>2026-04-16T10:47:53.866Z</time></trkpt><trkpt lat="42.62505" lon="-8.55221"><ele>228.0</ele><time>2026-04-16T10:47:54.865Z</time></trkpt><trkpt lat="42.6251567" lon="-8.5523683"><ele>225.75</ele><time>2026-04-16T10:47:55.865Z</time></trkpt><trkpt lat="42.62527" lon="-8.5524983"><ele>223.5</ele><time>2026-04-16T10:47:56.865Z</time></trkpt><trkpt lat="42.6253883" lon="-8.5525633"><ele>221.25</ele><time>2026-04-16T10:47:57.866Z</time></trkpt><trkpt lat="42.6255267" lon="-8.5525817"><ele>219.0</ele><time>2026-04-16T10:47:58.866Z</time></trkpt><trkpt lat="42.625665" lon="-8.5525917"><ele>219.0</ele><time>2026-04-16T10:47:59.865Z</time></trkpt><trkpt lat="42.6258" lon="-8.5526117"><ele>219.0</ele><time>2026-04-16T10:48:00.866Z</time></trkpt><trkpt lat="42.625925" lon="-8.5526467"><ele>219.0</ele><time>2026-04-16T10:48:01.865Z</time></trkpt><trkpt lat="42.626025" lon="-8.55272"><ele>219.0</ele><time>2026-04-16T10:48:02.866Z</time></trkpt><trkpt lat="42.6261033" lon="-8.552825"><ele>217.33333333333334</ele><time>2026-04-16T10:48:03.865Z</time></trkpt><trkpt lat="42.626185" lon="-8.552925"><ele>215.66666666666669</ele><time>2026-04-16T10:48:04.865Z</time></trkpt><trkpt lat="42.62626" lon="-8.5530067"><ele>214.0</ele><time>2026-04-16T10:48:05.865Z</time></trkpt><trkpt lat="42.6263217" lon="-8.55305"><ele>212.33333333333334</ele><time>2026-04-16T10:48:06.865Z</time></trkpt><trkpt lat="42.6264083" lon="-8.5530317"><ele>210.66666666666669</ele><time>2026-04-16T10:48:08.866Z</time></trkpt><trkpt lat="42.6264617" lon="-8.5529783"><ele>209.0</ele><time>2026-04-16T10:48:09.866Z</time></trkpt><trkpt lat="42.6265383" lon="-8.55293"><ele>209.00000000000003</ele><time>2026-04-16T10:48:10.866Z</time></trkpt><trkpt lat="42.62662" lon="-8.5528967"><ele>209.0</ele><time>2026-04-16T10:48:11.865Z</time></trkpt><trkpt lat="42.6266983" lon="-8.5529"><ele>209.0</ele><time>2026-04-16T10:48:12.866Z</time></trkpt><trkpt lat="42.626765" lon="-8.5529367"><ele>209.0</ele><time>2026-04-16T10:48:13.865Z</time></trkpt><trkpt lat="42.626805" lon="-8.5530067"><ele>209.00000000000003</ele><time>2026-04-16T10:48:14.865Z</time></trkpt><trkpt lat="42.6268233" lon="-8.5530917"><ele>209.0</ele><time>2026-04-16T10:48:15.865Z</time></trkpt><trkpt lat="42.6268017" lon="-8.5532567"><ele>209.0</ele><time>2026-04-16T10:48:17.865Z</time></trkpt><trkpt lat="42.6267433" lon="-8.55343"><ele>209.0</ele><time>2026-04-16T10:48:19.865Z</time></trkpt><trkpt lat="42.6267183" lon="-8.5535417"><ele>209.0</ele><time>2026-04-16T10:48:20.866Z</time></trkpt><trkpt lat="42.6266867" lon="-8.553655"><ele>209.0</ele><time>2026-04-16T10:48:21.866Z</time></trkpt><trkpt lat="42.626655" lon="-8.553775"><ele>209.0</ele><time>2026-04-16T10:48:22.865Z</time></trkpt><trkpt lat="42.626625" lon="-8.5538883"><ele>207.66666666666669</ele><time>2026-04-16T10:48:23.866Z</time></trkpt><trkpt lat="42.6265917" lon="-8.5540017"><ele>206.33333333333334</ele><time>2026-04-16T10:48:24.865Z</time></trkpt><trkpt lat="42.6265733" lon="-8.554115"><ele>205.0</ele><time>2026-04-16T10:48:25.865Z</time></trkpt><trkpt lat="42.6265667" lon="-8.5542217"><ele>203.66666666666669</ele><time>2026-04-16T10:48:26.865Z</time></trkpt><trkpt lat="42.6265733" lon="-8.554335"><ele>202.33333333333334</ele><time>2026-04-16T10:48:27.866Z</time></trkpt><trkpt lat="42.6266167" lon="-8.5544533"><ele>201.0</ele><time>2026-04-16T10:48:28.865Z</time></trkpt><trkpt lat="42.6266817" lon="-8.5545617"><ele>199.75</ele><time>2026-04-16T10:48:29.865Z</time></trkpt><trkpt lat="42.6267533" lon="-8.5546817"><ele>198.5</ele><time>2026-04-16T10:48:30.865Z</time></trkpt><trkpt lat="42.6268233" lon="-8.5548167"><ele>197.25</ele><time>2026-04-16T10:48:31.865Z</time></trkpt><trkpt lat="42.6269017" lon="-8.554945"><ele>196.0</ele><time>2026-04-16T10:48:32.866Z</time></trkpt><trkpt lat="42.6269767" lon="-8.5550833"><ele>196.4</ele><time>2026-04-16T10:48:33.865Z</time></trkpt><trkpt lat="42.6270467" lon="-8.555205"><ele>196.8</ele><time>2026-04-16T10:48:34.865Z</time></trkpt><trkpt lat="42.627115" lon="-8.5553217"><ele>197.20000000000002</ele><time>2026-04-16T10:48:35.866Z</time></trkpt><trkpt lat="42.62718" lon="-8.5554333"><ele>197.60000000000002</ele><time>2026-04-16T10:48:36.865Z</time></trkpt><trkpt lat="42.6272383" lon="-8.55554"><ele>198.0</ele><time>2026-04-16T10:48:37.866Z</time></trkpt><trkpt lat="42.6272983" lon="-8.555635"><ele>197.0</ele><time>2026-04-16T10:48:38.866Z</time></trkpt><trkpt lat="42.6273583" lon="-8.5557267"><ele>196.0</ele><time>2026-04-16T10:48:39.866Z</time></trkpt><trkpt lat="42.62742" lon="-8.5558133"><ele>195.0</ele><time>2026-04-16T10:48:40.865Z</time></trkpt><trkpt lat="42.6274783" lon="-8.5559083"><ele>194.0</ele><time>2026-04-16T10:48:41.865Z</time></trkpt><trkpt lat="42.6275333" lon="-8.556015"><ele>193.0</ele><time>2026-04-16T10:48:42.865Z</time></trkpt><trkpt lat="42.62759" lon="-8.5561133"><ele>192.66666666666666</ele><time>2026-04-16T10:48:43.865Z</time></trkpt><trkpt lat="42.62764" lon="-8.5562067"><ele>192.33333333333331</ele><time>2026-04-16T10:48:44.865Z</time></trkpt><trkpt lat="42.6276883" lon="-8.556295"><ele>192.0</ele><time>2026-04-16T10:48:45.865Z</time></trkpt><trkpt lat="42.6277267" lon="-8.5563667"><ele>191.66666666666666</ele><time>2026-04-16T10:48:46.866Z</time></trkpt><trkpt lat="42.6277733" lon="-8.55647"><ele>191.33333333333331</ele><time>2026-04-16T11:04:59.867Z</time></trkpt><trkpt lat="42.6278133" lon="-8.5565383"><ele>191.0</ele><time>2026-04-16T11:05:00.867Z</time></trkpt><trkpt lat="42.6278667" lon="-8.5566133"><ele>190.60000000000002</ele><time>2026-04-16T11:05:01.867Z</time></trkpt><trkpt lat="42.6279233" lon="-8.5567067"><ele>190.2</ele><time>2026-04-16T11:05:02.867Z</time></trkpt><trkpt lat="42.6279867" lon="-8.556825"><ele>189.8</ele><time>2026-04-16T11:05:03.868Z</time></trkpt><trkpt lat="42.6280567" lon="-8.556955"><ele>189.39999999999998</ele><time>2026-04-16T11:05:04.868Z</time></trkpt><trkpt lat="42.62813" lon="-8.55709"><ele>189.0</ele><time>2026-04-16T11:05:05.868Z</time></trkpt><trkpt lat="42.6282" lon="-8.5572233"><ele>188.25</ele><time>2026-04-16T11:05:06.868Z</time></trkpt><trkpt lat="42.6282733" lon="-8.5573533"><ele>187.5</ele><time>2026-04-16T11:05:07.867Z</time></trkpt><trkpt lat="42.6283317" lon="-8.55747"><ele>186.75</ele><time>2026-04-16T11:05:08.868Z</time></trkpt><trkpt lat="42.6284" lon="-8.557585"><ele>186.0</ele><time>2026-04-16T11:05:09.867Z</time></trkpt><trkpt lat="42.628475" lon="-8.55771"><ele>186.0</ele><time>2026-04-16T11:05:10.868Z</time></trkpt><trkpt lat="42.6285467" lon="-8.5578383"><ele>186.0</ele><time>2026-04-16T11:05:11.868Z</time></trkpt><trkpt lat="42.62863" lon="-8.557985"><ele>186.0</ele><time>2026-04-16T11:05:12.867Z</time></trkpt><trkpt lat="42.6287067" lon="-8.55812"><ele>186.0</ele><time>2026-04-16T11:05:13.868Z</time></trkpt><trkpt lat="42.6287817" lon="-8.5582533"><ele>185.20000000000002</ele><time>2026-04-16T11:05:14.867Z</time></trkpt><trkpt lat="42.6288433" lon="-8.5583633"><ele>184.4</ele><time>2026-04-16T11:05:15.868Z</time></trkpt><trkpt lat="42.6289033" lon="-8.5584667"><ele>183.6</ele><time>2026-04-16T11:05:16.868Z</time></trkpt><trkpt lat="42.62895" lon="-8.5585583"><ele>182.8</ele><time>2026-04-16T11:05:17.868Z</time></trkpt><trkpt lat="42.6290033" lon="-8.5586333"><ele>182.0</ele><time>2026-04-16T11:05:18.867Z</time></trkpt><trkpt lat="42.62911" lon="-8.5586933"><ele>182.0</ele><time>2026-04-16T11:05:20.868Z</time></trkpt><trkpt lat="42.6291783" lon="-8.5586733"><ele>182.0</ele><time>2026-04-16T11:05:21.867Z</time></trkpt><trkpt lat="42.62925" lon="-8.5586217"><ele>182.0</ele><time>2026-04-16T11:05:22.868Z</time></trkpt><trkpt lat="42.6293283" lon="-8.55857"><ele>182.0</ele><time>2026-04-16T11:05:23.867Z</time></trkpt><trkpt lat="42.62942" lon="-8.558505"><ele>182.0</ele><time>2026-04-16T11:05:24.867Z</time></trkpt><trkpt lat="42.6295133" lon="-8.5584433"><ele>182.0</ele><time>2026-04-16T11:05:25.868Z</time></trkpt><trkpt lat="42.6295967" lon="-8.5584017"><ele>182.16666666666666</ele><time>2026-04-16T11:05:26.867Z</time></trkpt><trkpt lat="42.62967" lon="-8.5583667"><ele>182.33333333333331</ele><time>2026-04-16T11:05:27.868Z</time></trkpt><trkpt lat="42.6297917" lon="-8.55835"><ele>182.5</ele><time>2026-04-16T11:05:29.867Z</time></trkpt><trkpt lat="42.62986" lon="-8.55836"><ele>182.66666666666666</ele><time>2026-04-16T11:05:30.867Z</time></trkpt><trkpt lat="42.62993" lon="-8.558375"><ele>182.83333333333334</ele><time>2026-04-16T11:05:31.868Z</time></trkpt><trkpt lat="42.6299967" lon="-8.5584033"><ele>183.0</ele><time>2026-04-16T11:05:32.867Z</time></trkpt><trkpt lat="42.6300683" lon="-8.5584183"><ele>183.0</ele><time>2026-04-16T11:05:33.868Z</time></trkpt><trkpt lat="42.6301467" lon="-8.5584283"><ele>183.0</ele><time>2026-04-16T11:05:34.868Z</time></trkpt><trkpt lat="42.6302183" lon="-8.558445"><ele>183.0</ele><time>2026-04-16T11:05:35.868Z</time></trkpt><trkpt lat="42.6302867" lon="-8.5584617"><ele>183.0</ele><time>2026-04-16T11:05:36.867Z</time></trkpt><trkpt lat="42.6303517" lon="-8.5584833"><ele>183.0</ele><time>2026-04-16T11:05:37.868Z</time></trkpt><trkpt lat="42.6304167" lon="-8.55851"><ele>183.0</ele><time>2026-04-16T11:05:38.868Z</time></trkpt><trkpt lat="42.6304833" lon="-8.55854"><ele>183.0</ele><time>2026-04-16T11:05:39.868Z</time></trkpt><trkpt lat="42.6305467" lon="-8.5585733"><ele>182.42857142857144</ele><time>2026-04-16T11:05:40.868Z</time></trkpt><trkpt lat="42.63061" lon="-8.558605"><ele>181.85714285714286</ele><time>2026-04-16T11:05:41.867Z</time></trkpt><trkpt lat="42.6306783" lon="-8.55862"><ele>181.28571428571428</ele><time>2026-04-16T11:05:42.867Z</time></trkpt><trkpt lat="42.630755" lon="-8.5586183"><ele>180.71428571428572</ele><time>2026-04-16T11:05:43.868Z</time></trkpt><trkpt lat="42.63083" lon="-8.55859"><ele>180.14285714285714</ele><time>2026-04-16T11:05:44.867Z</time></trkpt><trkpt lat="42.6308983" lon="-8.55856"><ele>179.57142857142858</ele><time>2026-04-16T11:05:45.867Z</time></trkpt><trkpt lat="42.6309617" lon="-8.5585033"><ele>179.0</ele><time>2026-04-16T11:05:46.868Z</time></trkpt><trkpt lat="42.63103" lon="-8.5584383"><ele>179.0</ele><time>2026-04-16T11:05:47.868Z</time></trkpt><trkpt lat="42.6310883" lon="-8.558375"><ele>179.0</ele><time>2026-04-16T11:05:48.868Z</time></trkpt><trkpt lat="42.6311483" lon="-8.5583167"><ele>179.0</ele><time>2026-04-16T11:05:49.867Z</time></trkpt><trkpt lat="42.6312117" lon="-8.55826"><ele>179.0</ele><time>2026-04-16T11:05:50.868Z</time></trkpt><trkpt lat="42.631285" lon="-8.55821"><ele>179.0</ele><time>2026-04-16T11:05:51.867Z</time></trkpt><trkpt lat="42.63135" lon="-8.5581783"><ele>179.0</ele><time>2026-04-16T11:05:52.868Z</time></trkpt><trkpt lat="42.6314633" lon="-8.5581183"><ele>177.71428571428572</ele><time>2026-04-16T11:05:54.867Z</time></trkpt><trkpt lat="42.6315217" lon="-8.5580833"><ele>176.42857142857144</ele><time>2026-04-16T11:05:55.867Z</time></trkpt><trkpt lat="42.6315833" lon="-8.5580517"><ele>175.14285714285717</ele><time>2026-04-16T11:05:56.867Z</time></trkpt><trkpt lat="42.6316467" lon="-8.5580267"><ele>173.85714285714286</ele><time>2026-04-16T11:05:57.868Z</time></trkpt><trkpt lat="42.6317117" lon="-8.5579983"><ele>172.57142857142856</ele><time>2026-04-16T11:05:58.868Z</time></trkpt><trkpt lat="42.6317733" lon="-8.55796"><ele>171.2857142857143</ele><time>2026-04-16T11:05:59.868Z</time></trkpt><trkpt lat="42.6318383" lon="-8.55792"><ele>170.0</ele><time>2026-04-16T11:06:00.867Z</time></trkpt><trkpt lat="42.6319017" lon="-8.557875"><ele>169.8</ele><time>2026-04-16T11:06:01.868Z</time></trkpt><trkpt lat="42.63197" lon="-8.5578533"><ele>169.6</ele><time>2026-04-16T11:06:02.868Z</time></trkpt><trkpt lat="42.6320917" lon="-8.5578683"><ele>169.39999999999998</ele><time>2026-04-16T11:06:04.867Z</time></trkpt><trkpt lat="42.6322" lon="-8.5579333"><ele>169.2</ele><time>2026-04-16T11:06:06.867Z</time></trkpt><trkpt lat="42.6323133" lon="-8.557995"><ele>169.0</ele><time>2026-04-16T11:06:08.868Z</time></trkpt><trkpt lat="42.632375" lon="-8.558035"><ele>168.85714285714286</ele><time>2026-04-16T11:06:09.868Z</time></trkpt><trkpt lat="42.632435" lon="-8.5580867"><ele>168.71428571428572</ele><time>2026-04-16T11:06:10.868Z</time></trkpt><trkpt lat="42.632475" lon="-8.5581567"><ele>168.57142857142856</ele><time>2026-04-16T11:06:11.868Z</time></trkpt><trkpt lat="42.6324983" lon="-8.5582417"><ele>168.42857142857144</ele><time>2026-04-16T11:06:12.868Z</time></trkpt><trkpt lat="42.6325067" lon="-8.5583417"><ele>168.28571428571428</ele><time>2026-04-16T11:06:13.867Z</time></trkpt><trkpt lat="42.6325083" lon="-8.558445"><ele>168.14285714285714</ele><time>2026-04-16T11:06:14.868Z</time></trkpt><trkpt lat="42.6325083" lon="-8.558555"><ele>168.0</ele><time>2026-04-16T11:06:15.868Z</time></trkpt><trkpt lat="42.6325" lon="-8.5586767"><ele>168.0</ele><time>2026-04-16T11:06:16.867Z</time></trkpt><trkpt lat="42.63249" lon="-8.5588"><ele>168.0</ele><time>2026-04-16T11:06:17.867Z</time></trkpt><trkpt lat="42.6324917" lon="-8.5588917"><ele>168.0</ele><time>2026-04-16T11:06:18.868Z</time></trkpt><trkpt lat="42.6325117" lon="-8.5590583"><ele>168.0</ele><time>2026-04-16T11:06:20.868Z</time></trkpt><trkpt lat="42.6325267" lon="-8.5591467"><ele>168.0</ele><time>2026-04-16T11:06:21.868Z</time></trkpt><trkpt lat="42.6325467" lon="-8.5592383"><ele>168.0</ele><time>2026-04-16T11:06:22.868Z</time></trkpt><trkpt lat="42.632575" lon="-8.5593317"><ele>168.0</ele><time>2026-04-16T11:06:23.867Z</time></trkpt><trkpt lat="42.6326067" lon="-8.559415"><ele>168.0</ele><time>2026-04-16T11:06:24.867Z</time></trkpt><trkpt lat="42.632635" lon="-8.5594917"><ele>168.0</ele><time>2026-04-16T11:06:25.868Z</time></trkpt><trkpt lat="42.632665" lon="-8.5595717"><ele>168.0</ele><time>2026-04-16T11:06:26.868Z</time></trkpt><trkpt lat="42.6327033" lon="-8.559655"><ele>168.0</ele><time>2026-04-16T11:06:27.867Z</time></trkpt><trkpt lat="42.6327367" lon="-8.5597417"><ele>168.0</ele><time>2026-04-16T11:06:28.868Z</time></trkpt><trkpt lat="42.6327767" lon="-8.559835"><ele>168.0</ele><time>2026-04-16T11:06:29.867Z</time></trkpt><trkpt lat="42.6328217" lon="-8.559925"><ele>168.0</ele><time>2026-04-16T11:06:30.867Z</time></trkpt><trkpt lat="42.6328567" lon="-8.5600067"><ele>168.0</ele><time>2026-04-16T11:06:31.868Z</time></trkpt><trkpt lat="42.63289" lon="-8.5600817"><ele>168.0</ele><time>2026-04-16T11:06:32.867Z</time></trkpt><trkpt lat="42.632915" lon="-8.5601683"><ele>168.0</ele><time>2026-04-16T11:06:33.868Z</time></trkpt><trkpt lat="42.6329467" lon="-8.5602517"><ele>168.0</ele><time>2026-04-16T11:06:34.867Z</time></trkpt><trkpt lat="42.6330067" lon="-8.5604083"><ele>168.0</ele><time>2026-04-16T11:06:36.867Z</time></trkpt><trkpt lat="42.6330367" lon="-8.560495"><ele>167.71428571428572</ele><time>2026-04-16T11:06:37.867Z</time></trkpt><trkpt lat="42.6330617" lon="-8.56058"><ele>167.42857142857144</ele><time>2026-04-16T11:06:38.868Z</time></trkpt><trkpt lat="42.6330967" lon="-8.5606617"><ele>167.14285714285714</ele><time>2026-04-16T11:06:39.867Z</time></trkpt><trkpt lat="42.6331267" lon="-8.56076"><ele>166.85714285714286</ele><time>2026-04-16T11:06:40.868Z</time></trkpt><trkpt lat="42.6331583" lon="-8.5608467"><ele>166.57142857142858</ele><time>2026-04-16T11:06:41.868Z</time></trkpt><trkpt lat="42.6331933" lon="-8.560935"><ele>166.28571428571428</ele><time>2026-04-16T11:06:42.868Z</time></trkpt><trkpt lat="42.6332233" lon="-8.5610267"><ele>166.0</ele><time>2026-04-16T11:06:43.867Z</time></trkpt><trkpt lat="42.6332533" lon="-8.56112"><ele>166.0</ele><time>2026-04-16T11:06:44.868Z</time></trkpt><trkpt lat="42.6332883" lon="-8.5612083"><ele>166.0</ele><time>2026-04-16T11:06:45.868Z</time></trkpt><trkpt lat="42.6333267" lon="-8.56129"><ele>166.0</ele><time>2026-04-16T11:06:46.868Z</time></trkpt><trkpt lat="42.6333567" lon="-8.56137"><ele>166.0</ele><time>2026-04-16T11:06:47.868Z</time></trkpt><trkpt lat="42.63342" lon="-8.5615"><ele>166.0</ele><time>2026-04-16T11:06:49.867Z</time></trkpt><trkpt lat="42.63347" lon="-8.5616367"><ele>166.0</ele><time>2026-04-16T11:08:21.868Z</time></trkpt><trkpt lat="42.63349" lon="-8.5617417"><ele>166.0</ele><time>2026-04-16T11:08:22.869Z</time></trkpt><trkpt lat="42.63348" lon="-8.5618533"><ele>166.0</ele><time>2026-04-16T11:08:23.869Z</time></trkpt><trkpt lat="42.6334467" lon="-8.56194"><ele>166.0</ele><time>2026-04-16T11:08:24.868Z</time></trkpt><trkpt lat="42.6333917" lon="-8.5620117"><ele>166.0</ele><time>2026-04-16T11:08:25.869Z</time></trkpt><trkpt lat="42.633325" lon="-8.5620817"><ele>166.0</ele><time>2026-04-16T11:08:26.868Z</time></trkpt><trkpt lat="42.6332467" lon="-8.5621433"><ele>166.0</ele><time>2026-04-16T11:08:27.868Z</time></trkpt><trkpt lat="42.6331683" lon="-8.5621983"><ele>166.0</ele><time>2026-04-16T11:08:28.869Z</time></trkpt><trkpt lat="42.6330967" lon="-8.5622517"><ele>166.0</ele><time>2026-04-16T11:08:29.868Z</time></trkpt><trkpt lat="42.6330283" lon="-8.5622967"><ele>166.0</ele><time>2026-04-16T11:08:30.868Z</time></trkpt><trkpt lat="42.63296" lon="-8.56234"><ele>166.0</ele><time>2026-04-16T11:08:31.869Z</time></trkpt><trkpt lat="42.6328933" lon="-8.562395"><ele>166.0</ele><time>2026-04-16T11:08:32.868Z</time></trkpt><trkpt lat="42.6328217" lon="-8.56245"><ele>166.0</ele><time>2026-04-16T11:08:33.869Z</time></trkpt><trkpt lat="42.632755" lon="-8.5625083"><ele>165.33333333333334</ele><time>2026-04-16T11:08:34.868Z</time></trkpt><trkpt lat="42.632695" lon="-8.562565"><ele>164.66666666666669</ele><time>2026-04-16T11:08:35.868Z</time></trkpt><trkpt lat="42.6326383" lon="-8.5626117"><ele>164.0</ele><time>2026-04-16T11:08:36.869Z</time></trkpt><trkpt lat="42.6325833" lon="-8.5626767"><ele>163.33333333333334</ele><time>2026-04-16T11:08:37.868Z</time></trkpt><trkpt lat="42.6325283" lon="-8.56274"><ele>162.66666666666666</ele><time>2026-04-16T11:08:38.868Z</time></trkpt><trkpt lat="42.632485" lon="-8.56281"><ele>162.0</ele><time>2026-04-16T11:08:39.868Z</time></trkpt><trkpt lat="42.6324267" lon="-8.56294"><ele>161.6</ele><time>2026-04-16T11:08:41.869Z</time></trkpt><trkpt lat="42.6324167" lon="-8.563075"><ele>161.2</ele><time>2026-04-16T11:08:43.868Z</time></trkpt><trkpt lat="42.63244" lon="-8.5631717"><ele>160.8</ele><time>2026-04-16T11:11:14.868Z</time></trkpt><trkpt lat="42.632395" lon="-8.5632867"><ele>160.4</ele><time>2026-04-16T11:11:17.868Z</time></trkpt><trkpt lat="42.6323217" lon="-8.5633967"><ele>160.0</ele><time>2026-04-16T11:11:19.869Z</time></trkpt><trkpt lat="42.6322267" lon="-8.5635433"><ele>160.0</ele><time>2026-04-16T11:11:21.869Z</time></trkpt><trkpt lat="42.6321683" lon="-8.5636633"><ele>160.0</ele><time>2026-04-16T11:11:22.869Z</time></trkpt><trkpt lat="42.6321167" lon="-8.5638183"><ele>160.0</ele><time>2026-04-16T11:11:23.869Z</time></trkpt><trkpt lat="42.6320733" lon="-8.5639733"><ele>160.0</ele><time>2026-04-16T11:11:24.869Z</time></trkpt><trkpt lat="42.6320417" lon="-8.5641267"><ele>159.4</ele><time>2026-04-16T11:11:25.868Z</time></trkpt><trkpt lat="42.632015" lon="-8.56427"><ele>158.8</ele><time>2026-04-16T11:11:26.869Z</time></trkpt><trkpt lat="42.6319967" lon="-8.56441"><ele>158.2</ele><time>2026-04-16T11:11:27.869Z</time></trkpt><trkpt lat="42.6319717" lon="-8.5645617"><ele>157.6</ele><time>2026-04-16T11:11:28.869Z</time></trkpt><trkpt lat="42.631945" lon="-8.5647117"><ele>157.0</ele><time>2026-04-16T11:11:29.868Z</time></trkpt><trkpt lat="42.6319117" lon="-8.5648517"><ele>156.75</ele><time>2026-04-16T11:11:30.868Z</time></trkpt><trkpt lat="42.6318733" lon="-8.5649967"><ele>156.5</ele><time>2026-04-16T11:11:31.868Z</time></trkpt><trkpt lat="42.63182" lon="-8.5651517"><ele>156.25</ele><time>2026-04-16T11:11:32.868Z</time></trkpt><trkpt lat="42.631755" lon="-8.5653133"><ele>156.0</ele><time>2026-04-16T11:11:33.868Z</time></trkpt><trkpt lat="42.6316833" lon="-8.56547"><ele>156.0</ele><time>2026-04-16T11:11:34.869Z</time></trkpt><trkpt lat="42.6316" lon="-8.5656167"><ele>156.0</ele><time>2026-04-16T11:11:35.869Z</time></trkpt><trkpt lat="42.6315017" lon="-8.5657533"><ele>156.0</ele><time>2026-04-16T11:11:36.869Z</time></trkpt><trkpt lat="42.6313867" lon="-8.5658883"><ele>156.0</ele><time>2026-04-16T11:11:37.868Z</time></trkpt><trkpt lat="42.6312733" lon="-8.5660267"><ele>156.0</ele><time>2026-04-16T11:11:38.869Z</time></trkpt><trkpt lat="42.6311483" lon="-8.5661533"><ele>156.0</ele><time>2026-04-16T11:11:39.868Z</time></trkpt><trkpt lat="42.6310217" lon="-8.5662567"><ele>156.0</ele><time>2026-04-16T11:11:40.868Z</time></trkpt><trkpt lat="42.6308817" lon="-8.566345"><ele>156.0</ele><time>2026-04-16T11:11:41.868Z</time></trkpt><trkpt lat="42.6307417" lon="-8.5664167"><ele>156.0</ele><time>2026-04-16T11:11:42.869Z</time></trkpt><trkpt lat="42.6306033" lon="-8.566475"><ele>156.0</ele><time>2026-04-16T11:11:43.868Z</time></trkpt><trkpt lat="42.63046" lon="-8.5665317"><ele>156.0</ele><time>2026-04-16T11:11:44.868Z</time></trkpt><trkpt lat="42.630315" lon="-8.56658"><ele>156.75</ele><time>2026-04-16T11:11:45.868Z</time></trkpt><trkpt lat="42.6301733" lon="-8.5666283"><ele>157.5</ele><time>2026-04-16T11:11:46.868Z</time></trkpt><trkpt lat="42.63003" lon="-8.5666767"><ele>158.25</ele><time>2026-04-16T11:11:47.868Z</time></trkpt><trkpt lat="42.6298917" lon="-8.56672"><ele>159.0</ele><time>2026-04-16T11:11:48.869Z</time></trkpt><trkpt lat="42.6297517" lon="-8.566755"><ele>159.0</ele><time>2026-04-16T11:11:49.868Z</time></trkpt><trkpt lat="42.629615" lon="-8.56679"><ele>159.0</ele><time>2026-04-16T11:11:50.868Z</time></trkpt><trkpt lat="42.6294767" lon="-8.5668183"><ele>159.0</ele><time>2026-04-16T11:11:51.869Z</time></trkpt><trkpt lat="42.6293383" lon="-8.5668233"><ele>159.0</ele><time>2026-04-16T11:11:52.869Z</time></trkpt><trkpt lat="42.629195" lon="-8.566815"><ele>159.0</ele><time>2026-04-16T11:11:53.868Z</time></trkpt><trkpt lat="42.6290483" lon="-8.566805"><ele>159.0</ele><time>2026-04-16T11:11:54.868Z</time></trkpt><trkpt lat="42.6289017" lon="-8.566785"><ele>159.0</ele><time>2026-04-16T11:11:55.869Z</time></trkpt><trkpt lat="42.6287633" lon="-8.5667783"><ele>159.0</ele><time>2026-04-16T11:11:56.869Z</time></trkpt><trkpt lat="42.6286283" lon="-8.5667833"><ele>159.0</ele><time>2026-04-16T11:11:57.868Z</time></trkpt><trkpt lat="42.6284967" lon="-8.5667933"><ele>159.0</ele><time>2026-04-16T11:11:58.869Z</time></trkpt><trkpt lat="42.6283817" lon="-8.566825"><ele>159.0</ele><time>2026-04-16T11:11:59.869Z</time></trkpt><trkpt lat="42.628265" lon="-8.56688"><ele>159.0</ele><time>2026-04-16T11:12:00.868Z</time></trkpt><trkpt lat="42.628145" lon="-8.566965"><ele>159.75</ele><time>2026-04-16T11:12:01.869Z</time></trkpt><trkpt lat="42.62804" lon="-8.5670767"><ele>160.5</ele><time>2026-04-16T11:12:02.868Z</time></trkpt><trkpt lat="42.627945" lon="-8.5672017"><ele>161.25</ele><time>2026-04-16T11:12:03.869Z</time></trkpt><trkpt lat="42.6278533" lon="-8.56734"><ele>162.0</ele><time>2026-04-16T11:12:04.869Z</time></trkpt><trkpt lat="42.627775" lon="-8.5674933"><ele>162.0</ele><time>2026-04-16T11:12:05.868Z</time></trkpt><trkpt lat="42.6277133" lon="-8.5676583"><ele>162.0</ele><time>2026-04-16T11:12:06.868Z</time></trkpt><trkpt lat="42.6276617" lon="-8.56783"><ele>162.0</ele><time>2026-04-16T11:12:07.869Z</time></trkpt><trkpt lat="42.6276183" lon="-8.568005"><ele>162.0</ele><time>2026-04-16T11:12:08.869Z</time></trkpt><trkpt lat="42.6275833" lon="-8.5681883"><ele>162.5</ele><time>2026-04-16T11:12:09.869Z</time></trkpt><trkpt lat="42.62755" lon="-8.568375"><ele>163.0</ele><time>2026-04-16T11:12:10.868Z</time></trkpt><trkpt lat="42.62751" lon="-8.5685633"><ele>163.5</ele><time>2026-04-16T11:12:11.868Z</time></trkpt><trkpt lat="42.6274667" lon="-8.56875"><ele>164.0</ele><time>2026-04-16T11:12:12.868Z</time></trkpt><trkpt lat="42.6274167" lon="-8.5689283"><ele>165.5</ele><time>2026-04-16T11:12:13.869Z</time></trkpt><trkpt lat="42.62737" lon="-8.5691133"><ele>167.0</ele><time>2026-04-16T11:12:14.868Z</time></trkpt><trkpt lat="42.6273283" lon="-8.569295"><ele>168.5</ele><time>2026-04-16T11:12:15.868Z</time></trkpt><trkpt lat="42.6272867" lon="-8.5694767"><ele>170.0</ele><time>2026-04-16T11:12:16.869Z</time></trkpt><trkpt lat="42.6272433" lon="-8.5696667"><ele>170.75</ele><time>2026-04-16T11:12:17.868Z</time></trkpt><trkpt lat="42.62721" lon="-8.5698467"><ele>171.5</ele><time>2026-04-16T11:12:18.869Z</time></trkpt><trkpt lat="42.62717" lon="-8.5700167"><ele>172.25</ele><time>2026-04-16T11:12:19.868Z</time></trkpt><trkpt lat="42.6271367" lon="-8.57018"><ele>173.0</ele><time>2026-04-16T11:12:20.869Z</time></trkpt><trkpt lat="42.6271033" lon="-8.57034"><ele>172.5</ele><time>2026-04-16T11:12:21.868Z</time></trkpt><trkpt lat="42.627065" lon="-8.5704983"><ele>172.0</ele><time>2026-04-16T11:12:22.868Z</time></trkpt><trkpt lat="42.6270217" lon="-8.57065"><ele>171.5</ele><time>2026-04-16T11:12:23.869Z</time></trkpt><trkpt lat="42.6269783" lon="-8.5708017"><ele>171.0</ele><time>2026-04-16T11:12:24.868Z</time></trkpt><trkpt lat="42.626935" lon="-8.57095"><ele>170.20000000000002</ele><time>2026-04-16T11:12:25.868Z</time></trkpt><trkpt lat="42.62689" lon="-8.5710867"><ele>169.4</ele><time>2026-04-16T11:12:26.868Z</time></trkpt><trkpt lat="42.6268483" lon="-8.5712183"><ele>168.6</ele><time>2026-04-16T11:12:27.869Z</time></trkpt><trkpt lat="42.6268083" lon="-8.5713583"><ele>167.8</ele><time>2026-04-16T11:12:28.869Z</time></trkpt><trkpt lat="42.6267633" lon="-8.5714967"><ele>167.0</ele><time>2026-04-16T11:12:29.869Z</time></trkpt><trkpt lat="42.6267117" lon="-8.57164"><ele>167.0</ele><time>2026-04-16T11:12:30.868Z</time></trkpt><trkpt lat="42.6266567" lon="-8.571775"><ele>167.0</ele><time>2026-04-16T11:12:31.868Z</time></trkpt><trkpt lat="42.62661" lon="-8.5719317"><ele>167.0</ele><time>2026-04-16T11:12:32.869Z</time></trkpt><trkpt lat="42.6265633" lon="-8.5720883"><ele>167.0</ele><time>2026-04-16T11:12:33.868Z</time></trkpt><trkpt lat="42.626515" lon="-8.5722483"><ele>167.0</ele><time>2026-04-16T11:12:34.868Z</time></trkpt><trkpt lat="42.626465" lon="-8.57241"><ele>167.0</ele><time>2026-04-16T11:12:35.869Z</time></trkpt><trkpt lat="42.6264133" lon="-8.5725783"><ele>167.0</ele><time>2026-04-16T11:12:36.869Z</time></trkpt><trkpt lat="42.626365" lon="-8.5727517"><ele>167.0</ele><time>2026-04-16T11:12:37.869Z</time></trkpt><trkpt lat="42.6263183" lon="-8.572925"><ele>166.75</ele><time>2026-04-16T11:12:38.868Z</time></trkpt><trkpt lat="42.6262833" lon="-8.5730967"><ele>166.5</ele><time>2026-04-16T11:12:39.868Z</time></trkpt><trkpt lat="42.6262683" lon="-8.573225"><ele>166.25</ele><time>2026-04-16T11:12:40.868Z</time></trkpt><trkpt lat="42.6262033" lon="-8.5733867"><ele>166.0</ele><time>2026-04-16T11:12:41.869Z</time></trkpt><trkpt lat="42.6261533" lon="-8.5735333"><ele>166.0</ele><time>2026-04-16T11:12:42.868Z</time></trkpt><trkpt lat="42.6261217" lon="-8.573655"><ele>166.0</ele><time>2026-04-16T11:12:43.868Z</time></trkpt><trkpt lat="42.6261017" lon="-8.573755"><ele>166.0</ele><time>2026-04-16T11:12:44.869Z</time></trkpt><trkpt lat="42.6261467" lon="-8.5739217"><ele>166.0</ele><time>2026-04-16T11:12:46.868Z</time></trkpt><trkpt lat="42.6262017" lon="-8.5739817"><ele>166.0</ele><time>2026-04-16T11:12:47.869Z</time></trkpt><trkpt lat="42.6262933" lon="-8.5740767"><ele>166.0</ele><time>2026-04-16T11:12:49.868Z</time></trkpt><trkpt lat="42.6264" lon="-8.5742133"><ele>166.0</ele><time>2026-04-16T11:12:51.869Z</time></trkpt><trkpt lat="42.6264633" lon="-8.5743083"><ele>166.0</ele><time>2026-04-16T11:12:52.868Z</time></trkpt><trkpt lat="42.6265467" lon="-8.574405"><ele>166.0</ele><time>2026-04-16T11:12:53.869Z</time></trkpt><trkpt lat="42.626645" lon="-8.5744917"><ele>166.25</ele><time>2026-04-16T11:12:54.869Z</time></trkpt><trkpt lat="42.6267483" lon="-8.574585"><ele>166.5</ele><time>2026-04-16T11:12:55.869Z</time></trkpt><trkpt lat="42.6268583" lon="-8.5746867"><ele>166.75</ele><time>2026-04-16T11:12:56.868Z</time></trkpt><trkpt lat="42.6269867" lon="-8.574815"><ele>167.0</ele><time>2026-04-16T11:12:57.869Z</time></trkpt><trkpt lat="42.627125" lon="-8.57495"><ele>167.0</ele><time>2026-04-16T11:12:58.868Z</time></trkpt><trkpt lat="42.6272667" lon="-8.5750967"><ele>167.0</ele><time>2026-04-16T11:12:59.869Z</time></trkpt><trkpt lat="42.6274133" lon="-8.5752383"><ele>167.0</ele><time>2026-04-16T11:13:00.869Z</time></trkpt><trkpt lat="42.6275567" lon="-8.5753833"><ele>166.66666666666666</ele><time>2026-04-16T11:13:01.868Z</time></trkpt><trkpt lat="42.6277017" lon="-8.575535"><ele>166.33333333333334</ele><time>2026-04-16T11:13:02.869Z</time></trkpt><trkpt lat="42.6278433" lon="-8.57569"><ele>166.0</ele><time>2026-04-16T11:13:03.868Z</time></trkpt><trkpt lat="42.627985" lon="-8.5758367"><ele>166.66666666666669</ele><time>2026-04-16T11:13:04.869Z</time></trkpt><trkpt lat="42.6281317" lon="-8.57599"><ele>167.33333333333334</ele><time>2026-04-16T11:13:05.869Z</time></trkpt><trkpt lat="42.628275" lon="-8.5761417"><ele>168.0</ele><time>2026-04-16T11:13:06.868Z</time></trkpt><trkpt lat="42.6284183" lon="-8.57629"><ele>168.0</ele><time>2026-04-16T11:13:07.868Z</time></trkpt><trkpt lat="42.628555" lon="-8.576435"><ele>168.0</ele><time>2026-04-16T11:13:08.869Z</time></trkpt><trkpt lat="42.628685" lon="-8.57657"><ele>168.0</ele><time>2026-04-16T11:13:09.869Z</time></trkpt><trkpt lat="42.6288167" lon="-8.5767117"><ele>169.5</ele><time>2026-04-16T11:13:10.869Z</time></trkpt><trkpt lat="42.6289417" lon="-8.57684"><ele>171.0</ele><time>2026-04-16T11:13:11.868Z</time></trkpt><trkpt lat="42.629045" lon="-8.5769517"><ele>172.5</ele><time>2026-04-16T11:13:12.868Z</time></trkpt><trkpt lat="42.629145" lon="-8.5770617"><ele>174.0</ele><time>2026-04-16T11:13:13.869Z</time></trkpt><trkpt lat="42.6292383" lon="-8.5771733"><ele>174.0</ele><time>2026-04-16T11:13:14.869Z</time></trkpt><trkpt lat="42.6293383" lon="-8.5772967"><ele>174.0</ele><time>2026-04-16T11:13:15.868Z</time></trkpt><trkpt lat="42.6294483" lon="-8.577425"><ele>174.0</ele><time>2026-04-16T11:13:16.869Z</time></trkpt><trkpt lat="42.6295683" lon="-8.5775517"><ele>174.0</ele><time>2026-04-16T11:13:17.868Z</time></trkpt><trkpt lat="42.6296967" lon="-8.5776733"><ele>175.33333333333334</ele><time>2026-04-16T11:13:18.868Z</time></trkpt><trkpt lat="42.6298333" lon="-8.577795"><ele>176.66666666666669</ele><time>2026-04-16T11:13:19.868Z</time></trkpt><trkpt lat="42.6299717" lon="-8.5779267"><ele>178.0</ele><time>2026-04-16T11:13:20.868Z</time></trkpt><trkpt lat="42.6301017" lon="-8.578065"><ele>178.33333333333334</ele><time>2026-04-16T11:13:21.868Z</time></trkpt><trkpt lat="42.6302267" lon="-8.5781983"><ele>178.66666666666666</ele><time>2026-04-16T11:13:22.869Z</time></trkpt><trkpt lat="42.6303533" lon="-8.578345"><ele>179.0</ele><time>2026-04-16T11:13:23.868Z</time></trkpt><trkpt lat="42.6304833" lon="-8.5784783"><ele>180.0</ele><time>2026-04-16T11:13:24.868Z</time></trkpt><trkpt lat="42.630615" lon="-8.57862"><ele>181.0</ele><time>2026-04-16T11:13:25.868Z</time></trkpt><trkpt lat="42.6307433" lon="-8.5787583"><ele>182.0</ele><time>2026-04-16T11:13:26.869Z</time></trkpt><trkpt lat="42.6308767" lon="-8.578885"><ele>182.0</ele><time>2026-04-16T11:13:27.869Z</time></trkpt><trkpt lat="42.631005" lon="-8.5790217"><ele>182.0</ele><time>2026-04-16T11:13:28.868Z</time></trkpt><trkpt lat="42.6311333" lon="-8.57917"><ele>182.0</ele><time>2026-04-16T11:13:29.869Z</time></trkpt><trkpt lat="42.6312633" lon="-8.5793117"><ele>183.0</ele><time>2026-04-16T11:13:30.869Z</time></trkpt><trkpt lat="42.6313983" lon="-8.5794533"><ele>184.0</ele><time>2026-04-16T11:13:31.868Z</time></trkpt><trkpt lat="42.63153" lon="-8.579595"><ele>185.0</ele><time>2026-04-16T11:13:32.869Z</time></trkpt><trkpt lat="42.63166" lon="-8.5797417"><ele>185.0</ele><time>2026-04-16T11:13:33.868Z</time></trkpt><trkpt lat="42.6317967" lon="-8.5799"><ele>185.0</ele><time>2026-04-16T11:13:34.868Z</time></trkpt><trkpt lat="42.6319433" lon="-8.58006"><ele>185.0</ele><time>2026-04-16T11:13:35.869Z</time></trkpt><trkpt lat="42.6321" lon="-8.580215"><ele>185.0</ele><time>2026-04-16T11:13:36.868Z</time></trkpt><trkpt lat="42.63226" lon="-8.5803833"><ele>185.0</ele><time>2026-04-16T11:13:37.869Z</time></trkpt><trkpt lat="42.6324167" lon="-8.5805567"><ele>185.0</ele><time>2026-04-16T11:13:38.868Z</time></trkpt><trkpt lat="42.6325733" lon="-8.580725"><ele>185.0</ele><time>2026-04-16T11:13:39.869Z</time></trkpt><trkpt lat="42.6327283" lon="-8.5808967"><ele>185.0</ele><time>2026-04-16T11:13:40.868Z</time></trkpt><trkpt lat="42.6328833" lon="-8.58107"><ele>185.0</ele><time>2026-04-16T11:13:41.869Z</time></trkpt><trkpt lat="42.6330367" lon="-8.5812317"><ele>186.0</ele><time>2026-04-16T11:13:42.869Z</time></trkpt><trkpt lat="42.63319" lon="-8.5813983"><ele>187.0</ele><time>2026-04-16T11:13:43.868Z</time></trkpt><trkpt lat="42.6333383" lon="-8.5815683"><ele>188.0</ele><time>2026-04-16T11:13:44.869Z</time></trkpt><trkpt lat="42.6334867" lon="-8.58173"><ele>191.0</ele><time>2026-04-16T11:13:45.868Z</time></trkpt><trkpt lat="42.633645" lon="-8.581875"><ele>194.0</ele><time>2026-04-16T11:13:46.869Z</time></trkpt><trkpt lat="42.6337933" lon="-8.5820283"><ele>197.0</ele><time>2026-04-16T11:13:47.868Z</time></trkpt><trkpt lat="42.6339367" lon="-8.5821733"><ele>198.0</ele><time>2026-04-16T11:13:48.868Z</time></trkpt><trkpt lat="42.634075" lon="-8.5823217"><ele>199.0</ele><time>2026-04-16T11:13:49.868Z</time></trkpt><trkpt lat="42.63422" lon="-8.5824717"><ele>200.0</ele><time>2026-04-16T11:13:50.868Z</time></trkpt><trkpt lat="42.6343617" lon="-8.582625"><ele>205.0</ele><time>2026-04-16T11:13:51.868Z</time></trkpt><trkpt lat="42.634505" lon="-8.5827833"><ele>210.0</ele><time>2026-04-16T11:13:52.868Z</time></trkpt><trkpt lat="42.6346517" lon="-8.58294"><ele>215.0</ele><time>2026-04-16T11:13:53.868Z</time></trkpt><trkpt lat="42.634795" lon="-8.5830933"><ele>215.66666666666669</ele><time>2026-04-16T11:13:54.868Z</time></trkpt><trkpt lat="42.6349367" lon="-8.5832483"><ele>216.33333333333331</ele><time>2026-04-16T11:13:55.869Z</time></trkpt><trkpt lat="42.63508" lon="-8.5834"><ele>217.0</ele><time>2026-04-16T11:13:56.868Z</time></trkpt><trkpt lat="42.6352017" lon="-8.5835233"><ele>217.6</ele><time>2026-04-16T11:13:57.868Z</time></trkpt><trkpt lat="42.635305" lon="-8.583605"><ele>218.2</ele><time>2026-04-16T11:13:58.869Z</time></trkpt><trkpt lat="42.6353817" lon="-8.583645"><ele>218.8</ele><time>2026-04-16T11:13:59.869Z</time></trkpt><trkpt lat="42.6354633" lon="-8.58359"><ele>219.4</ele><time>2026-04-16T11:14:01.869Z</time></trkpt><trkpt lat="42.6354733" lon="-8.583385"><ele>220.0</ele><time>2026-04-16T11:14:03.869Z</time></trkpt><trkpt lat="42.635455" lon="-8.5832183"><ele>220.0</ele><time>2026-04-16T11:14:04.869Z</time></trkpt><trkpt lat="42.63541" lon="-8.5830083"><ele>220.0</ele><time>2026-04-16T11:14:05.868Z</time></trkpt><trkpt lat="42.6353617" lon="-8.5827583"><ele>220.0</ele><time>2026-04-16T11:14:06.869Z</time></trkpt><trkpt lat="42.6353333" lon="-8.5825167"><ele>218.33333333333331</ele><time>2026-04-16T11:14:07.868Z</time></trkpt><trkpt lat="42.6353017" lon="-8.58227"><ele>216.66666666666669</ele><time>2026-04-16T11:14:08.869Z</time></trkpt><trkpt lat="42.6352683" lon="-8.5820217"><ele>215.0</ele><time>2026-04-16T11:14:09.868Z</time></trkpt><trkpt lat="42.6352517" lon="-8.5817817"><ele>214.0</ele><time>2026-04-16T11:14:10.869Z</time></trkpt><trkpt lat="42.63526" lon="-8.5815567"><ele>213.0</ele><time>2026-04-16T11:14:11.869Z</time></trkpt><trkpt lat="42.6353" lon="-8.58133"><ele>212.0</ele><time>2026-04-16T11:14:12.868Z</time></trkpt><trkpt lat="42.6353667" lon="-8.5811017"><ele>215.0</ele><time>2026-04-16T11:14:13.869Z</time></trkpt><trkpt lat="42.6354483" lon="-8.5808833"><ele>218.0</ele><time>2026-04-16T11:14:14.869Z</time></trkpt><trkpt lat="42.6355483" lon="-8.5806733"><ele>221.0</ele><time>2026-04-16T11:14:15.868Z</time></trkpt><trkpt lat="42.6356467" lon="-8.58046"><ele>219.0</ele><time>2026-04-16T11:14:16.869Z</time></trkpt><trkpt lat="42.635745" lon="-8.5802433"><ele>217.0</ele><time>2026-04-16T11:14:17.868Z</time></trkpt><trkpt lat="42.6358467" lon="-8.580035"><ele>215.0</ele><time>2026-04-16T11:14:18.869Z</time></trkpt><trkpt lat="42.635945" lon="-8.5798233"><ele>215.0</ele><time>2026-04-16T11:14:19.869Z</time></trkpt><trkpt lat="42.63604" lon="-8.5796017"><ele>215.0</ele><time>2026-04-16T11:14:20.868Z</time></trkpt><trkpt lat="42.6361333" lon="-8.5794"><ele>215.0</ele><time>2026-04-16T11:14:21.868Z</time></trkpt><trkpt lat="42.636235" lon="-8.579205"><ele>214.0</ele><time>2026-04-16T11:14:22.868Z</time></trkpt><trkpt lat="42.6363333" lon="-8.5790167"><ele>213.0</ele><time>2026-04-16T11:14:23.869Z</time></trkpt><trkpt lat="42.636425" lon="-8.578835"><ele>212.0</ele><time>2026-04-16T11:14:24.868Z</time></trkpt><trkpt lat="42.636505" lon="-8.5786567"><ele>211.0</ele><time>2026-04-16T11:14:25.868Z</time></trkpt><trkpt lat="42.63658" lon="-8.5784683"><ele>210.0</ele><time>2026-04-16T11:14:26.868Z</time></trkpt><trkpt lat="42.63664" lon="-8.578275"><ele>209.0</ele><time>2026-04-16T11:14:27.868Z</time></trkpt><trkpt lat="42.6366783" lon="-8.57808"><ele>209.0</ele><time>2026-04-16T11:14:28.868Z</time></trkpt><trkpt lat="42.6366883" lon="-8.5778783"><ele>209.0</ele><time>2026-04-16T11:14:29.868Z</time></trkpt><trkpt lat="42.6367" lon="-8.5776667"><ele>209.0</ele><time>2026-04-16T11:14:30.869Z</time></trkpt><trkpt lat="42.6367183" lon="-8.5774717"><ele>209.0</ele><time>2026-04-16T11:14:31.868Z</time></trkpt><trkpt lat="42.6367267" lon="-8.5772967"><ele>207.75</ele><time>2026-04-16T11:14:32.869Z</time></trkpt><trkpt lat="42.6367167" lon="-8.5771417"><ele>206.5</ele><time>2026-04-16T11:14:33.869Z</time></trkpt><trkpt lat="42.6366833" lon="-8.5769833"><ele>205.25</ele><time>2026-04-16T11:14:34.869Z</time></trkpt><trkpt lat="42.6366083" lon="-8.5768367"><ele>204.0</ele><time>2026-04-16T11:14:35.869Z</time></trkpt><trkpt lat="42.636515" lon="-8.57669"><ele>201.66666666666669</ele><time>2026-04-16T11:14:36.868Z</time></trkpt><trkpt lat="42.636395" lon="-8.576555"><ele>199.33333333333334</ele><time>2026-04-16T11:14:37.869Z</time></trkpt><trkpt lat="42.6362567" lon="-8.5764367"><ele>197.0</ele><time>2026-04-16T11:14:38.868Z</time></trkpt><trkpt lat="42.6361167" lon="-8.5763133"><ele>197.0</ele><time>2026-04-16T11:14:39.869Z</time></trkpt><trkpt lat="42.6359567" lon="-8.5761867"><ele>197.0</ele><time>2026-04-16T11:14:40.869Z</time></trkpt><trkpt lat="42.635805" lon="-8.57606"><ele>197.0</ele><time>2026-04-16T11:14:41.869Z</time></trkpt><trkpt lat="42.6356783" lon="-8.575935"><ele>194.75</ele><time>2026-04-16T11:14:42.868Z</time></trkpt><trkpt lat="42.6355483" lon="-8.57581"><ele>192.5</ele><time>2026-04-16T11:14:43.869Z</time></trkpt><trkpt lat="42.6354283" lon="-8.5756967"><ele>190.25</ele><time>2026-04-16T11:14:44.868Z</time></trkpt><trkpt lat="42.63532" lon="-8.575595"><ele>188.0</ele><time>2026-04-16T11:14:45.869Z</time></trkpt><trkpt lat="42.6352267" lon="-8.5755083"><ele>188.0</ele><time>2026-04-16T11:14:46.869Z</time></trkpt><trkpt lat="42.6351533" lon="-8.5754333"><ele>188.0</ele><time>2026-04-16T11:14:47.869Z</time></trkpt><trkpt lat="42.6351017" lon="-8.575375"><ele>188.0</ele><time>2026-04-16T11:14:48.869Z</time></trkpt><trkpt lat="42.635115" lon="-8.5752667"><ele>188.0</ele><time>2026-04-16T11:14:51.869Z</time></trkpt><trkpt lat="42.635205" lon="-8.5752483"><ele>188.0</ele><time>2026-04-16T11:14:52.869Z</time></trkpt><trkpt lat="42.635325" lon="-8.5752433"><ele>183.0</ele><time>2026-04-16T11:14:53.869Z</time></trkpt><trkpt lat="42.6354717" lon="-8.575245"><ele>178.0</ele><time>2026-04-16T11:14:54.868Z</time></trkpt><trkpt lat="42.63562" lon="-8.5752517"><ele>173.0</ele><time>2026-04-16T11:14:55.868Z</time></trkpt><trkpt lat="42.635765" lon="-8.5752517"><ele>168.0</ele><time>2026-04-16T11:14:56.869Z</time></trkpt><trkpt lat="42.6359217" lon="-8.5752683"><ele>168.0</ele><time>2026-04-16T11:14:57.868Z</time></trkpt><trkpt lat="42.6360783" lon="-8.5753"><ele>168.0</ele><time>2026-04-16T11:14:58.869Z</time></trkpt><trkpt lat="42.6362317" lon="-8.5753333"><ele>168.0</ele><time>2026-04-16T11:14:59.869Z</time></trkpt><trkpt lat="42.6363817" lon="-8.57538"><ele>169.0</ele><time>2026-04-16T11:15:00.869Z</time></trkpt><trkpt lat="42.636525" lon="-8.5754233"><ele>170.0</ele><time>2026-04-16T11:15:01.868Z</time></trkpt><trkpt lat="42.6366433" lon="-8.5754733"><ele>171.0</ele><time>2026-04-16T11:15:02.868Z</time></trkpt><trkpt lat="42.636755" lon="-8.5755083"><ele>172.0</ele><time>2026-04-16T11:15:03.868Z</time></trkpt><trkpt lat="42.6368683" lon="-8.575535"><ele>172.0</ele><time>2026-04-16T11:15:04.868Z</time></trkpt><trkpt lat="42.636965" lon="-8.5755467"><ele>172.0</ele><time>2026-04-16T11:15:05.868Z</time></trkpt><trkpt lat="42.6370583" lon="-8.5755717"><ele>172.0</ele><time>2026-04-16T11:15:06.868Z</time></trkpt><trkpt lat="42.6371467" lon="-8.5756"><ele>172.0</ele><time>2026-04-16T11:15:07.868Z</time></trkpt><trkpt lat="42.637245" lon="-8.5756333"><ele>172.0</ele><time>2026-04-16T11:15:08.869Z</time></trkpt><trkpt lat="42.6373533" lon="-8.575665"><ele>171.75</ele><time>2026-04-16T11:15:09.868Z</time></trkpt><trkpt lat="42.63747" lon="-8.5757"><ele>171.5</ele><time>2026-04-16T11:15:10.868Z</time></trkpt><trkpt lat="42.637595" lon="-8.5757317"><ele>171.25</ele><time>2026-04-16T11:15:11.868Z</time></trkpt><trkpt lat="42.637725" lon="-8.5757667"><ele>171.0</ele><time>2026-04-16T11:15:12.869Z</time></trkpt><trkpt lat="42.6378567" lon="-8.5757917"><ele>172.0</ele><time>2026-04-16T11:15:13.868Z</time></trkpt><trkpt lat="42.6379933" lon="-8.5758033"><ele>173.0</ele><time>2026-04-16T11:15:14.868Z</time></trkpt><trkpt lat="42.6381317" lon="-8.5757967"><ele>174.0</ele><time>2026-04-16T11:15:15.869Z</time></trkpt><trkpt lat="42.6382683" lon="-8.5757583"><ele>175.0</ele><time>2026-04-16T11:15:16.868Z</time></trkpt><trkpt lat="42.6383983" lon="-8.5757067"><ele>175.0</ele><time>2026-04-16T11:15:17.869Z</time></trkpt><trkpt lat="42.6385367" lon="-8.5756383"><ele>175.0</ele><time>2026-04-16T11:15:18.868Z</time></trkpt><trkpt lat="42.6386733" lon="-8.575575"><ele>175.0</ele><time>2026-04-16T11:15:19.869Z</time></trkpt><trkpt lat="42.6388117" lon="-8.57551"><ele>175.0</ele><time>2026-04-16T11:15:20.869Z</time></trkpt><trkpt lat="42.6389483" lon="-8.575445"><ele>175.5</ele><time>2026-04-16T11:15:21.869Z</time></trkpt><trkpt lat="42.6390767" lon="-8.575375"><ele>176.0</ele><time>2026-04-16T11:15:22.869Z</time></trkpt><trkpt lat="42.63921" lon="-8.575305"><ele>176.5</ele><time>2026-04-16T11:15:23.869Z</time></trkpt><trkpt lat="42.6393483" lon="-8.575225"><ele>177.0</ele><time>2026-04-16T11:15:24.868Z</time></trkpt><trkpt lat="42.6394833" lon="-8.57515"><ele>179.66666666666666</ele><time>2026-04-16T11:15:25.869Z</time></trkpt><trkpt lat="42.6396267" lon="-8.5750817"><ele>182.33333333333331</ele><time>2026-04-16T11:15:26.869Z</time></trkpt><trkpt lat="42.6397767" lon="-8.5750033"><ele>185.0</ele><time>2026-04-16T11:15:27.868Z</time></trkpt><trkpt lat="42.6399317" lon="-8.57493"><ele>185.0</ele><time>2026-04-16T11:15:28.868Z</time></trkpt><trkpt lat="42.640095" lon="-8.5748717"><ele>185.0</ele><time>2026-04-16T11:15:29.868Z</time></trkpt><trkpt lat="42.640265" lon="-8.5748133"><ele>185.0</ele><time>2026-04-16T11:15:30.869Z</time></trkpt><trkpt lat="42.640445" lon="-8.5747933"><ele>185.66666666666666</ele><time>2026-04-16T11:15:31.869Z</time></trkpt><trkpt lat="42.6406467" lon="-8.5747933"><ele>186.33333333333334</ele><time>2026-04-16T11:15:32.868Z</time></trkpt><trkpt lat="42.6408517" lon="-8.574815"><ele>187.0</ele><time>2026-04-16T11:15:33.869Z</time></trkpt><trkpt lat="42.6410617" lon="-8.57484"><ele>187.66666666666669</ele><time>2026-04-16T11:15:34.868Z</time></trkpt><trkpt lat="42.6412617" lon="-8.5748533"><ele>188.33333333333334</ele><time>2026-04-16T11:15:35.868Z</time></trkpt><trkpt lat="42.6414483" lon="-8.5748517"><ele>189.0</ele><time>2026-04-16T11:15:36.869Z</time></trkpt><trkpt lat="42.6416183" lon="-8.5748333"><ele>189.0</ele><time>2026-04-16T11:15:37.869Z</time></trkpt><trkpt lat="42.6417767" lon="-8.57483"><ele>189.0</ele><time>2026-04-16T11:15:38.868Z</time></trkpt><trkpt lat="42.6419433" lon="-8.57485"><ele>189.0</ele><time>2026-04-16T11:15:39.869Z</time></trkpt><trkpt lat="42.6421117" lon="-8.5749083"><ele>188.66666666666666</ele><time>2026-04-16T11:15:40.869Z</time></trkpt><trkpt lat="42.6422933" lon="-8.5750033"><ele>188.33333333333331</ele><time>2026-04-16T11:15:41.868Z</time></trkpt><trkpt lat="42.6424767" lon="-8.5750983"><ele>188.0</ele><time>2026-04-16T11:15:42.868Z</time></trkpt><trkpt lat="42.64267" lon="-8.5752167"><ele>189.0</ele><time>2026-04-16T11:15:43.869Z</time></trkpt><trkpt lat="42.6428717" lon="-8.57533"><ele>190.0</ele><time>2026-04-16T11:15:44.869Z</time></trkpt><trkpt lat="42.6430833" lon="-8.5754483"><ele>191.0</ele><time>2026-04-16T11:15:45.868Z</time></trkpt><trkpt lat="42.6432967" lon="-8.575575"><ele>191.0</ele><time>2026-04-16T11:15:46.868Z</time></trkpt><trkpt lat="42.64349" lon="-8.5756967"><ele>191.0</ele><time>2026-04-16T11:15:47.868Z</time></trkpt><trkpt lat="42.6436833" lon="-8.5758067"><ele>191.0</ele><time>2026-04-16T11:15:48.869Z</time></trkpt><trkpt lat="42.6438767" lon="-8.5759117"><ele>191.66666666666666</ele><time>2026-04-16T11:15:49.869Z</time></trkpt><trkpt lat="42.6440683" lon="-8.5760433"><ele>192.33333333333331</ele><time>2026-04-16T11:15:50.869Z</time></trkpt><trkpt lat="42.6442533" lon="-8.576175"><ele>193.0</ele><time>2026-04-16T11:15:51.868Z</time></trkpt><trkpt lat="42.6444333" lon="-8.5763067"><ele>194.66666666666666</ele><time>2026-04-16T11:15:52.868Z</time></trkpt><trkpt lat="42.6446067" lon="-8.5764517"><ele>196.33333333333331</ele><time>2026-04-16T11:15:53.869Z</time></trkpt><trkpt lat="42.6447683" lon="-8.576605"><ele>198.0</ele><time>2026-04-16T11:15:54.868Z</time></trkpt><trkpt lat="42.644935" lon="-8.5767683"><ele>198.0</ele><time>2026-04-16T11:15:55.868Z</time></trkpt><trkpt lat="42.6450983" lon="-8.5769267"><ele>198.0</ele><time>2026-04-16T11:15:56.869Z</time></trkpt><trkpt lat="42.6452583" lon="-8.577065"><ele>198.0</ele><time>2026-04-16T11:15:57.868Z</time></trkpt><trkpt lat="42.6454083" lon="-8.5772067"><ele>199.0</ele><time>2026-04-16T11:15:58.869Z</time></trkpt><trkpt lat="42.645555" lon="-8.577325"><ele>200.0</ele><time>2026-04-16T11:15:59.869Z</time></trkpt><trkpt lat="42.6457183" lon="-8.57741"><ele>201.0</ele><time>2026-04-16T11:16:00.869Z</time></trkpt><trkpt lat="42.6459083" lon="-8.5774617"><ele>201.0</ele><time>2026-04-16T11:16:01.869Z</time></trkpt><trkpt lat="42.6461017" lon="-8.5775"><ele>201.0</ele><time>2026-04-16T11:16:02.87Z</time></trkpt><trkpt lat="42.64629" lon="-8.5775567"><ele>201.0</ele><time>2026-04-16T11:16:03.869Z</time></trkpt><trkpt lat="42.6464783" lon="-8.577635"><ele>203.33333333333331</ele><time>2026-04-16T11:16:04.869Z</time></trkpt><trkpt lat="42.64667" lon="-8.5777167"><ele>205.66666666666666</ele><time>2026-04-16T11:16:05.869Z</time></trkpt><trkpt lat="42.646865" lon="-8.5778"><ele>208.0</ele><time>2026-04-16T11:16:06.869Z</time></trkpt><trkpt lat="42.6470683" lon="-8.5779"><ele>211.33333333333331</ele><time>2026-04-16T11:16:07.869Z</time></trkpt><trkpt lat="42.64725" lon="-8.578"><ele>214.66666666666669</ele><time>2026-04-16T11:16:08.87Z</time></trkpt><trkpt lat="42.6474317" lon="-8.5780933"><ele>218.0</ele><time>2026-04-16T11:16:09.869Z</time></trkpt><trkpt lat="42.647615" lon="-8.578195"><ele>218.0</ele><time>2026-04-16T11:16:10.87Z</time></trkpt><trkpt lat="42.6477883" lon="-8.5782917"><ele>218.0</ele><time>2026-04-16T11:16:11.869Z</time></trkpt><trkpt lat="42.6479467" lon="-8.5783867"><ele>218.0</ele><time>2026-04-16T11:16:12.87Z</time></trkpt><trkpt lat="42.6480933" lon="-8.57846"><ele>220.0</ele><time>2026-04-16T11:16:13.869Z</time></trkpt><trkpt lat="42.648245" lon="-8.578535"><ele>222.0</ele><time>2026-04-16T11:16:14.87Z</time></trkpt><trkpt lat="42.6483917" lon="-8.5786117"><ele>224.0</ele><time>2026-04-16T11:16:15.87Z</time></trkpt><trkpt lat="42.6485383" lon="-8.5786833"><ele>224.75</ele><time>2026-04-16T11:16:16.87Z</time></trkpt><trkpt lat="42.64868" lon="-8.5787517"><ele>225.5</ele><time>2026-04-16T11:16:17.869Z</time></trkpt><trkpt lat="42.648815" lon="-8.5788133"><ele>226.25</ele><time>2026-04-16T11:16:18.869Z</time></trkpt><trkpt lat="42.6489233" lon="-8.5788567"><ele>227.0</ele><time>2026-04-16T11:16:19.87Z</time></trkpt><trkpt lat="42.6490033" lon="-8.57888"><ele>227.0</ele><time>2026-04-16T11:16:20.869Z</time></trkpt><trkpt lat="42.6490967" lon="-8.5789133"><ele>227.0</ele><time>2026-04-16T11:16:22.87Z</time></trkpt><trkpt lat="42.6491183" lon="-8.578995"><ele>227.0</ele><time>2026-04-16T11:16:26.869Z</time></trkpt><trkpt lat="42.64912" lon="-8.579115"><ele>227.0</ele><time>2026-04-16T11:16:28.87Z</time></trkpt><trkpt lat="42.64911" lon="-8.5792033"><ele>227.0</ele><time>2026-04-16T11:16:29.869Z</time></trkpt><trkpt lat="42.6490383" lon="-8.5793867"><ele>228.66666666666669</ele><time>2026-04-16T11:16:30.869Z</time></trkpt><trkpt lat="42.64893" lon="-8.57967"><ele>230.33333333333331</ele><time>2026-04-16T11:16:31.87Z</time></trkpt><trkpt lat="42.6488683" lon="-8.5798883"><ele>232.0</ele><time>2026-04-16T11:16:32.869Z</time></trkpt><trkpt lat="42.6488" lon="-8.580095"><ele>232.33333333333331</ele><time>2026-04-16T11:16:33.869Z</time></trkpt><trkpt lat="42.6486833" lon="-8.5803733"><ele>232.66666666666669</ele><time>2026-04-16T11:16:34.869Z</time></trkpt><trkpt lat="42.6486183" lon="-8.580605"><ele>233.0</ele><time>2026-04-16T11:16:35.869Z</time></trkpt><trkpt lat="42.648605" lon="-8.5808133"><ele>233.0</ele><time>2026-04-16T11:16:36.87Z</time></trkpt><trkpt lat="42.64863" lon="-8.5810417"><ele>233.0</ele><time>2026-04-16T11:16:37.869Z</time></trkpt><trkpt lat="42.6486767" lon="-8.58129"><ele>233.0</ele><time>2026-04-16T11:16:38.87Z</time></trkpt><trkpt lat="42.64876" lon="-8.5815817"><ele>233.0</ele><time>2026-04-16T11:16:39.87Z</time></trkpt><trkpt lat="42.6488617" lon="-8.5818933"><ele>233.0</ele><time>2026-04-16T11:16:40.869Z</time></trkpt><trkpt lat="42.6489617" lon="-8.5821617"><ele>235.0</ele><time>2026-04-16T11:16:41.87Z</time></trkpt><trkpt lat="42.6490533" lon="-8.58239"><ele>237.0</ele><time>2026-04-16T11:16:42.87Z</time></trkpt><trkpt lat="42.6491333" lon="-8.5825917"><ele>239.0</ele><time>2026-04-16T11:16:43.87Z</time></trkpt><trkpt lat="42.6492017" lon="-8.5827533"><ele>242.5</ele><time>2026-04-16T11:16:44.87Z</time></trkpt><trkpt lat="42.6492667" lon="-8.5829017"><ele>246.0</ele><time>2026-04-16T11:16:45.869Z</time></trkpt><trkpt lat="42.6493133" lon="-8.5830583"><ele>249.5</ele><time>2026-04-16T11:16:46.87Z</time></trkpt><trkpt lat="42.6494" lon="-8.5831867"><ele>253.0</ele><time>2026-04-16T11:16:48.87Z</time></trkpt><trkpt lat="42.6494917" lon="-8.583265"><ele>253.4</ele><time>2026-04-16T11:16:50.869Z</time></trkpt><trkpt lat="42.6495483" lon="-8.583325"><ele>253.8</ele><time>2026-04-16T11:16:51.87Z</time></trkpt><trkpt lat="42.6496133" lon="-8.5833967"><ele>254.2</ele><time>2026-04-16T11:16:52.869Z</time></trkpt><trkpt lat="42.6496883" lon="-8.583485"><ele>254.6</ele><time>2026-04-16T11:16:53.869Z</time></trkpt><trkpt lat="42.6497717" lon="-8.5835883"><ele>255.0</ele><time>2026-04-16T11:16:54.869Z</time></trkpt><trkpt lat="42.64987" lon="-8.583695"><ele>256.3333333333333</ele><time>2026-04-16T11:16:55.869Z</time></trkpt><trkpt lat="42.649975" lon="-8.5838233"><ele>257.66666666666663</ele><time>2026-04-16T11:16:56.869Z</time></trkpt><trkpt lat="42.6500883" lon="-8.5839583"><ele>259.0</ele><time>2026-04-16T11:16:57.869Z</time></trkpt><trkpt lat="42.650215" lon="-8.5840917"><ele>259.66666666666663</ele><time>2026-04-16T11:16:58.87Z</time></trkpt><trkpt lat="42.6503533" lon="-8.58422"><ele>260.3333333333333</ele><time>2026-04-16T11:16:59.869Z</time></trkpt><trkpt lat="42.6504867" lon="-8.5843383"><ele>261.0</ele><time>2026-04-16T11:17:00.87Z</time></trkpt><trkpt lat="42.6506117" lon="-8.584445"><ele>262.5</ele><time>2026-04-16T11:17:01.87Z</time></trkpt><trkpt lat="42.6507167" lon="-8.58453"><ele>264.0</ele><time>2026-04-16T11:17:02.869Z</time></trkpt><trkpt lat="42.650795" lon="-8.5845783"><ele>265.5</ele><time>2026-04-16T11:17:03.869Z</time></trkpt><trkpt lat="42.6508567" lon="-8.58463"><ele>267.0</ele><time>2026-04-16T11:17:04.87Z</time></trkpt><trkpt lat="42.6509117" lon="-8.584715"><ele>268.5</ele><time>2026-04-16T11:17:06.869Z</time></trkpt><trkpt lat="42.6509" lon="-8.5848217"><ele>270.0</ele><time>2026-04-16T11:17:08.869Z</time></trkpt><trkpt lat="42.6508567" lon="-8.5849017"><ele>270.0</ele><time>2026-04-16T11:17:10.87Z</time></trkpt><trkpt lat="42.6508017" lon="-8.5850217"><ele>270.0</ele><time>2026-04-16T11:18:39.87Z</time></trkpt><trkpt lat="42.6507667" lon="-8.5851383"><ele>270.0</ele><time>2026-04-16T11:18:41.869Z</time></trkpt><trkpt lat="42.6506883" lon="-8.58529"><ele>270.0</ele><time>2026-04-16T11:18:43.87Z</time></trkpt><trkpt lat="42.6506183" lon="-8.5853967"><ele>270.0</ele><time>2026-04-16T11:18:44.87Z</time></trkpt><trkpt lat="42.6505117" lon="-8.5855383"><ele>274.5</ele><time>2026-04-16T11:18:45.869Z</time></trkpt><trkpt lat="42.650305" lon="-8.5857283"><ele>279.0</ele><time>2026-04-16T11:18:46.87Z</time></trkpt><trkpt lat="42.6501117" lon="-8.58592"><ele>279.0</ele><time>2026-04-16T11:18:47.869Z</time></trkpt><trkpt lat="42.6499117" lon="-8.5860917"><ele>279.0</ele><time>2026-04-16T11:18:48.869Z</time></trkpt><trkpt lat="42.6497217" lon="-8.5862633"><ele>280.3333333333333</ele><time>2026-04-16T11:18:49.87Z</time></trkpt><trkpt lat="42.64957" lon="-8.5864183"><ele>281.66666666666663</ele><time>2026-04-16T11:18:50.869Z</time></trkpt><trkpt lat="42.64944" lon="-8.586595"><ele>283.0</ele><time>2026-04-16T11:18:51.87Z</time></trkpt><trkpt lat="42.6493217" lon="-8.5868017"><ele>286.3333333333333</ele><time>2026-04-16T11:18:52.87Z</time></trkpt><trkpt lat="42.6492033" lon="-8.587025"><ele>289.6666666666667</ele><time>2026-04-16T11:18:53.87Z</time></trkpt><trkpt lat="42.6490483" lon="-8.5872567"><ele>293.0</ele><time>2026-04-16T11:18:54.87Z</time></trkpt><trkpt lat="42.6488767" lon="-8.58749"><ele>293.0</ele><time>2026-04-16T11:18:55.869Z</time></trkpt><trkpt lat="42.6487217" lon="-8.5877333"><ele>293.0</ele><time>2026-04-16T11:18:56.87Z</time></trkpt><trkpt lat="42.6485967" lon="-8.5879717"><ele>288.0</ele><time>2026-04-16T11:18:57.87Z</time></trkpt><trkpt lat="42.6484867" lon="-8.5882433"><ele>283.0</ele><time>2026-04-16T11:18:58.869Z</time></trkpt><trkpt lat="42.6483967" lon="-8.5885283"><ele>284.0</ele><time>2026-04-16T11:18:59.87Z</time></trkpt><trkpt lat="42.6483267" lon="-8.58882"><ele>285.0</ele><time>2026-04-16T11:19:00.87Z</time></trkpt><trkpt lat="42.6482667" lon="-8.589095"><ele>286.0</ele><time>2026-04-16T11:19:01.869Z</time></trkpt><trkpt lat="42.6482333" lon="-8.5893567"><ele>287.0</ele><time>2026-04-16T11:19:02.869Z</time></trkpt><trkpt lat="42.648215" lon="-8.5896017"><ele>288.0</ele><time>2026-04-16T11:19:03.869Z</time></trkpt><trkpt lat="42.648205" lon="-8.5898083"><ele>289.0</ele><time>2026-04-16T11:19:04.869Z</time></trkpt><trkpt lat="42.6481917" lon="-8.5899583"><ele>290.0</ele><time>2026-04-16T11:19:05.869Z</time></trkpt><trkpt lat="42.6482083" lon="-8.5898583"><ele>290.0</ele><time>2026-04-16T11:19:12.87Z</time></trkpt><trkpt lat="42.64827" lon="-8.5897183"><ele>290.0</ele><time>2026-04-16T11:19:14.87Z</time></trkpt><trkpt lat="42.6483117" lon="-8.589635"><ele>290.0</ele><time>2026-04-16T11:19:15.87Z</time></trkpt><trkpt lat="42.6483783" lon="-8.5895367"><ele>290.0</ele><time>2026-04-16T11:19:16.87Z</time></trkpt><trkpt lat="42.6484733" lon="-8.58938"><ele>290.0</ele><time>2026-04-16T11:19:17.87Z</time></trkpt><trkpt lat="42.6486067" lon="-8.5891467"><ele>294.6666666666667</ele><time>2026-04-16T11:19:18.87Z</time></trkpt><trkpt lat="42.6487283" lon="-8.5889117"><ele>299.3333333333333</ele><time>2026-04-16T11:19:19.869Z</time></trkpt><trkpt lat="42.64885" lon="-8.5886667"><ele>304.0</ele><time>2026-04-16T11:19:20.869Z</time></trkpt><trkpt lat="42.6489617" lon="-8.5884667"><ele>304.0</ele><time>2026-04-16T11:19:21.869Z</time></trkpt><trkpt lat="42.6490667" lon="-8.588335"><ele>304.0</ele><time>2026-04-16T11:19:22.869Z</time></trkpt><trkpt lat="42.64918" lon="-8.5882433"><ele>304.0</ele><time>2026-04-16T11:19:23.869Z</time></trkpt><trkpt lat="42.649315" lon="-8.5881667"><ele>304.0</ele><time>2026-04-16T11:19:24.869Z</time></trkpt><trkpt lat="42.6494617" lon="-8.5881117"><ele>310.3333333333333</ele><time>2026-04-16T11:19:25.869Z</time></trkpt><trkpt lat="42.6496067" lon="-8.5880833"><ele>316.6666666666667</ele><time>2026-04-16T11:19:26.87Z</time></trkpt><trkpt lat="42.649755" lon="-8.5880567"><ele>323.0</ele><time>2026-04-16T11:19:27.869Z</time></trkpt><trkpt lat="42.6499133" lon="-8.58806"><ele>323.0</ele><time>2026-04-16T11:19:28.869Z</time></trkpt><trkpt lat="42.6500683" lon="-8.5880517"><ele>323.0</ele><time>2026-04-16T11:19:29.87Z</time></trkpt><trkpt lat="42.6502083" lon="-8.58803"><ele>323.0</ele><time>2026-04-16T11:19:30.87Z</time></trkpt><trkpt lat="42.650345" lon="-8.588025"><ele>323.0</ele><time>2026-04-16T11:19:31.869Z</time></trkpt><trkpt lat="42.6504733" lon="-8.588025"><ele>322.5</ele><time>2026-04-16T11:19:32.869Z</time></trkpt><trkpt lat="42.6505867" lon="-8.5880167"><ele>322.0</ele><time>2026-04-16T11:19:33.869Z</time></trkpt><trkpt lat="42.65069" lon="-8.5879833"><ele>321.5</ele><time>2026-04-16T11:19:34.869Z</time></trkpt><trkpt lat="42.6507967" lon="-8.587925"><ele>321.0</ele><time>2026-04-16T11:19:35.87Z</time></trkpt><trkpt lat="42.65091" lon="-8.5878633"><ele>321.25</ele><time>2026-04-16T11:19:36.869Z</time></trkpt><trkpt lat="42.65103" lon="-8.58779"><ele>321.5</ele><time>2026-04-16T11:19:37.87Z</time></trkpt><trkpt lat="42.6511383" lon="-8.587715"><ele>321.75</ele><time>2026-04-16T11:19:38.869Z</time></trkpt><trkpt lat="42.6512483" lon="-8.5876383"><ele>322.0</ele><time>2026-04-16T11:19:39.869Z</time></trkpt><trkpt lat="42.6513467" lon="-8.5875467"><ele>320.6</ele><time>2026-04-16T11:19:40.869Z</time></trkpt><trkpt lat="42.6514217" lon="-8.5874583"><ele>319.20000000000005</ele><time>2026-04-16T11:19:41.87Z</time></trkpt><trkpt lat="42.6514767" lon="-8.5873583"><ele>317.8</ele><time>2026-04-16T11:19:42.87Z</time></trkpt><trkpt lat="42.6515183" lon="-8.5872267"><ele>316.4</ele><time>2026-04-16T11:19:43.869Z</time></trkpt><trkpt lat="42.651555" lon="-8.5870867"><ele>315.0</ele><time>2026-04-16T11:19:44.869Z</time></trkpt><trkpt lat="42.65158" lon="-8.5869567"><ele>315.0</ele><time>2026-04-16T11:19:45.87Z</time></trkpt><trkpt lat="42.65162" lon="-8.5868367"><ele>315.0</ele><time>2026-04-16T11:19:46.87Z</time></trkpt><trkpt lat="42.6516767" lon="-8.5867167"><ele>315.0</ele><time>2026-04-16T11:19:47.869Z</time></trkpt><trkpt lat="42.651735" lon="-8.5865983"><ele>315.0</ele><time>2026-04-16T11:19:48.87Z</time></trkpt><trkpt lat="42.6517983" lon="-8.5864867"><ele>315.0</ele><time>2026-04-16T11:19:49.87Z</time></trkpt><trkpt lat="42.6518733" lon="-8.5863933"><ele>313.2</ele><time>2026-04-16T11:19:50.87Z</time></trkpt><trkpt lat="42.6519633" lon="-8.5863183"><ele>311.4</ele><time>2026-04-16T11:19:51.869Z</time></trkpt><trkpt lat="42.65206" lon="-8.5862667"><ele>309.6</ele><time>2026-04-16T11:19:52.87Z</time></trkpt><trkpt lat="42.65217" lon="-8.5862217"><ele>307.8</ele><time>2026-04-16T11:19:53.869Z</time></trkpt><trkpt lat="42.6522883" lon="-8.5862"><ele>306.0</ele><time>2026-04-16T11:19:54.87Z</time></trkpt><trkpt lat="42.6524083" lon="-8.5862"><ele>306.0</ele><time>2026-04-16T11:19:55.869Z</time></trkpt><trkpt lat="42.6525283" lon="-8.5862283"><ele>306.0</ele><time>2026-04-16T11:19:56.869Z</time></trkpt><trkpt lat="42.6526583" lon="-8.5862767"><ele>306.0</ele><time>2026-04-16T11:19:57.869Z</time></trkpt><trkpt lat="42.6528" lon="-8.5863583"><ele>306.0</ele><time>2026-04-16T11:19:58.869Z</time></trkpt><trkpt lat="42.652945" lon="-8.5864567"><ele>306.75</ele><time>2026-04-16T11:19:59.87Z</time></trkpt><trkpt lat="42.6530833" lon="-8.5865217"><ele>307.5</ele><time>2026-04-16T11:20:00.869Z</time></trkpt><trkpt lat="42.6532167" lon="-8.5865417"><ele>308.25</ele><time>2026-04-16T11:20:01.87Z</time></trkpt><trkpt lat="42.6533583" lon="-8.586515"><ele>309.0</ele><time>2026-04-16T11:20:02.87Z</time></trkpt><trkpt lat="42.6535117" lon="-8.5864467"><ele>307.6666666666667</ele><time>2026-04-16T11:20:03.87Z</time></trkpt><trkpt lat="42.653675" lon="-8.5863533"><ele>306.33333333333337</ele><time>2026-04-16T11:20:04.869Z</time></trkpt><trkpt lat="42.65383" lon="-8.5862567"><ele>305.0</ele><time>2026-04-16T11:20:05.869Z</time></trkpt><trkpt lat="42.65397" lon="-8.5861667"><ele>304.8</ele><time>2026-04-16T11:20:06.87Z</time></trkpt><trkpt lat="42.6540933" lon="-8.586085"><ele>304.6</ele><time>2026-04-16T11:20:07.87Z</time></trkpt><trkpt lat="42.6541983" lon="-8.5860017"><ele>304.4</ele><time>2026-04-16T11:20:08.869Z</time></trkpt><trkpt lat="42.65429" lon="-8.5859317"><ele>304.2</ele><time>2026-04-16T11:20:09.869Z</time></trkpt><trkpt lat="42.6543517" lon="-8.5858683"><ele>304.0</ele><time>2026-04-16T11:20:10.87Z</time></trkpt><trkpt lat="42.6543867" lon="-8.5857917"><ele>304.0</ele><time>2026-04-16T11:20:11.87Z</time></trkpt><trkpt lat="42.6544183" lon="-8.58571"><ele>304.0</ele><time>2026-04-16T11:20:12.869Z</time></trkpt><trkpt lat="42.6544717" lon="-8.58565"><ele>304.0</ele><time>2026-04-16T11:20:14.869Z</time></trkpt><trkpt lat="42.6545517" lon="-8.5857483"><ele>304.0</ele><time>2026-04-16T11:20:17.869Z</time></trkpt><trkpt lat="42.6546067" lon="-8.5858317"><ele>304.0</ele><time>2026-04-16T11:20:18.869Z</time></trkpt><trkpt lat="42.6546917" lon="-8.58592"><ele>304.0</ele><time>2026-04-16T11:20:19.869Z</time></trkpt><trkpt lat="42.6548067" lon="-8.5860183"><ele>305.0</ele><time>2026-04-16T11:20:20.869Z</time></trkpt><trkpt lat="42.65494" lon="-8.586135"><ele>306.0</ele><time>2026-04-16T11:20:21.87Z</time></trkpt><trkpt lat="42.6550833" lon="-8.5862667"><ele>307.0</ele><time>2026-04-16T11:20:22.87Z</time></trkpt><trkpt lat="42.6552317" lon="-8.5864267"><ele>310.3333333333333</ele><time>2026-04-16T11:20:23.87Z</time></trkpt><trkpt lat="42.65537" lon="-8.5866033"><ele>313.6666666666667</ele><time>2026-04-16T11:20:24.87Z</time></trkpt><trkpt lat="42.655495" lon="-8.5867867"><ele>317.0</ele><time>2026-04-16T11:20:25.87Z</time></trkpt><trkpt lat="42.6556067" lon="-8.5869583"><ele>316.0</ele><time>2026-04-16T11:20:26.87Z</time></trkpt><trkpt lat="42.655695" lon="-8.587095"><ele>315.0</ele><time>2026-04-16T11:20:27.869Z</time></trkpt><trkpt lat="42.6557733" lon="-8.5872033"><ele>314.0</ele><time>2026-04-16T11:20:28.869Z</time></trkpt><trkpt lat="42.655835" lon="-8.5873033"><ele>313.0</ele><time>2026-04-16T11:20:29.869Z</time></trkpt><trkpt lat="42.6559083" lon="-8.5874067"><ele>312.0</ele><time>2026-04-16T11:20:30.869Z</time></trkpt><trkpt lat="42.655995" lon="-8.5875217"><ele>312.0</ele><time>2026-04-16T11:20:31.87Z</time></trkpt><trkpt lat="42.6560967" lon="-8.5876117"><ele>312.0</ele><time>2026-04-16T11:20:32.87Z</time></trkpt><trkpt lat="42.6561817" lon="-8.5876783"><ele>312.0</ele><time>2026-04-16T11:20:33.869Z</time></trkpt><trkpt lat="42.6562583" lon="-8.5877033"><ele>312.0</ele><time>2026-04-16T11:20:34.869Z</time></trkpt><trkpt lat="42.656335" lon="-8.5876983"><ele>312.0</ele><time>2026-04-16T11:20:35.87Z</time></trkpt><trkpt lat="42.6564083" lon="-8.5876417"><ele>313.5</ele><time>2026-04-16T11:20:36.87Z</time></trkpt><trkpt lat="42.6564817" lon="-8.5875583"><ele>315.0</ele><time>2026-04-16T11:20:37.87Z</time></trkpt><trkpt lat="42.656565" lon="-8.58746"><ele>316.5</ele><time>2026-04-16T11:20:38.869Z</time></trkpt><trkpt lat="42.6566667" lon="-8.5873533"><ele>318.0</ele><time>2026-04-16T11:20:39.87Z</time></trkpt><trkpt lat="42.6567917" lon="-8.58724"><ele>318.0</ele><time>2026-04-16T11:20:40.869Z</time></trkpt><trkpt lat="42.6568967" lon="-8.5871333"><ele>318.0</ele><time>2026-04-16T11:20:41.869Z</time></trkpt><trkpt lat="42.6570033" lon="-8.5870317"><ele>318.0</ele><time>2026-04-16T11:20:42.869Z</time></trkpt><trkpt lat="42.65711" lon="-8.5869167"><ele>318.0</ele><time>2026-04-16T11:20:43.87Z</time></trkpt><trkpt lat="42.6572217" lon="-8.5867933"><ele>321.75</ele><time>2026-04-16T11:20:44.869Z</time></trkpt><trkpt lat="42.65734" lon="-8.586675"><ele>325.5</ele><time>2026-04-16T11:20:45.87Z</time></trkpt><trkpt lat="42.65744" lon="-8.5865767"><ele>329.25</ele><time>2026-04-16T11:20:46.869Z</time></trkpt><trkpt lat="42.6575367" lon="-8.586465"><ele>333.0</ele><time>2026-04-16T11:20:47.869Z</time></trkpt><trkpt lat="42.657645" lon="-8.5863083"><ele>333.6666666666667</ele><time>2026-04-16T11:20:48.869Z</time></trkpt><trkpt lat="42.6577567" lon="-8.58614"><ele>334.33333333333337</ele><time>2026-04-16T11:20:49.87Z</time></trkpt><trkpt lat="42.6578633" lon="-8.585955"><ele>335.0</ele><time>2026-04-16T11:20:50.87Z</time></trkpt><trkpt lat="42.6579683" lon="-8.5857817"><ele>335.0</ele><time>2026-04-16T11:20:51.87Z</time></trkpt><trkpt lat="42.6580583" lon="-8.585635"><ele>335.0</ele><time>2026-04-16T11:20:52.869Z</time></trkpt><trkpt lat="42.6581233" lon="-8.5854917"><ele>335.0</ele><time>2026-04-16T11:20:53.869Z</time></trkpt><trkpt lat="42.6581833" lon="-8.5853267"><ele>335.0</ele><time>2026-04-16T11:20:54.869Z</time></trkpt><trkpt lat="42.658245" lon="-8.585135"><ele>337.6666666666667</ele><time>2026-04-16T11:20:55.869Z</time></trkpt><trkpt lat="42.6583133" lon="-8.584905"><ele>340.3333333333333</ele><time>2026-04-16T11:20:56.869Z</time></trkpt><trkpt lat="42.658385" lon="-8.5846917"><ele>343.0</ele><time>2026-04-16T11:20:57.87Z</time></trkpt><trkpt lat="42.6584517" lon="-8.5845133"><ele>343.4</ele><time>2026-04-16T11:20:58.87Z</time></trkpt><trkpt lat="42.6585017" lon="-8.5843717"><ele>343.79999999999995</ele><time>2026-04-16T11:20:59.869Z</time></trkpt><trkpt lat="42.6585683" lon="-8.5842833"><ele>344.2</ele><time>2026-04-16T11:21:00.869Z</time></trkpt><trkpt lat="42.6586533" lon="-8.5842317"><ele>344.6</ele><time>2026-04-16T11:21:01.869Z</time></trkpt><trkpt lat="42.65875" lon="-8.58421"><ele>345.0</ele><time>2026-04-16T11:21:02.87Z</time></trkpt><trkpt lat="42.6588283" lon="-8.5841983"><ele>347.2</ele><time>2026-04-16T11:21:03.869Z</time></trkpt><trkpt lat="42.6589033" lon="-8.5841917"><ele>349.4</ele><time>2026-04-16T11:21:04.87Z</time></trkpt><trkpt lat="42.6589833" lon="-8.5842033"><ele>351.6</ele><time>2026-04-16T11:21:05.869Z</time></trkpt><trkpt lat="42.6590617" lon="-8.584265"><ele>353.8</ele><time>2026-04-16T11:21:06.869Z</time></trkpt><trkpt lat="42.6591467" lon="-8.5843567"><ele>356.0</ele><time>2026-04-16T11:21:07.869Z</time></trkpt><trkpt lat="42.659215" lon="-8.5845083"><ele>354.0</ele><time>2026-04-16T11:21:08.87Z</time></trkpt><trkpt lat="42.659275" lon="-8.5846867"><ele>352.0</ele><time>2026-04-16T11:21:09.869Z</time></trkpt><trkpt lat="42.6593217" lon="-8.5848317"><ele>350.0</ele><time>2026-04-16T11:21:10.869Z</time></trkpt><trkpt lat="42.65938" lon="-8.58496"><ele>348.0</ele><time>2026-04-16T11:21:11.869Z</time></trkpt><trkpt lat="42.6594533" lon="-8.585065"><ele>348.0</ele><time>2026-04-16T11:21:12.869Z</time></trkpt><trkpt lat="42.6595433" lon="-8.5851617"><ele>348.0</ele><time>2026-04-16T11:21:13.869Z</time></trkpt><trkpt lat="42.659645" lon="-8.585245"><ele>348.0</ele><time>2026-04-16T11:21:14.87Z</time></trkpt><trkpt lat="42.659755" lon="-8.5853167"><ele>348.0</ele><time>2026-04-16T11:21:15.869Z</time></trkpt><trkpt lat="42.6598833" lon="-8.5853867"><ele>348.0</ele><time>2026-04-16T11:21:16.87Z</time></trkpt><trkpt lat="42.6600167" lon="-8.58546"><ele>348.0</ele><time>2026-04-16T11:21:17.87Z</time></trkpt><trkpt lat="42.6601567" lon="-8.5855467"><ele>348.0</ele><time>2026-04-16T11:21:18.869Z</time></trkpt><trkpt lat="42.6603067" lon="-8.58566"><ele>354.0</ele><time>2026-04-16T11:21:19.869Z</time></trkpt><trkpt lat="42.6604633" lon="-8.5858117"><ele>360.0</ele><time>2026-04-16T11:21:20.869Z</time></trkpt><trkpt lat="42.6606283" lon="-8.5859583"><ele>366.0</ele><time>2026-04-16T11:21:21.869Z</time></trkpt><trkpt lat="42.6607883" lon="-8.586105"><ele>366.3333333333333</ele><time>2026-04-16T11:21:22.869Z</time></trkpt><trkpt lat="42.6609333" lon="-8.5862667"><ele>366.66666666666663</ele><time>2026-04-16T11:21:23.869Z</time></trkpt><trkpt lat="42.6610717" lon="-8.58641"><ele>367.0</ele><time>2026-04-16T11:21:24.87Z</time></trkpt><trkpt lat="42.6612033" lon="-8.586535"><ele>367.0</ele><time>2026-04-16T11:21:25.87Z</time></trkpt><trkpt lat="42.66133" lon="-8.5866417"><ele>367.0</ele><time>2026-04-16T11:21:26.87Z</time></trkpt><trkpt lat="42.6614533" lon="-8.5867217"><ele>367.0</ele><time>2026-04-16T11:21:27.869Z</time></trkpt><trkpt lat="42.6615817" lon="-8.5867733"><ele>367.0</ele><time>2026-04-16T11:21:28.87Z</time></trkpt><trkpt lat="42.6617183" lon="-8.5868"><ele>367.0</ele><time>2026-04-16T11:21:29.869Z</time></trkpt><trkpt lat="42.6618617" lon="-8.5867967"><ele>367.0</ele><time>2026-04-16T11:21:30.869Z</time></trkpt><trkpt lat="42.6619983" lon="-8.586745"><ele>367.0</ele><time>2026-04-16T11:21:31.87Z</time></trkpt><trkpt lat="42.662155" lon="-8.58667"><ele>368.25</ele><time>2026-04-16T11:21:32.87Z</time></trkpt><trkpt lat="42.6623067" lon="-8.5865967"><ele>369.5</ele><time>2026-04-16T11:21:33.869Z</time></trkpt><trkpt lat="42.6624483" lon="-8.5865417"><ele>370.75</ele><time>2026-04-16T11:21:34.87Z</time></trkpt><trkpt lat="42.66256" lon="-8.5865"><ele>372.0</ele><time>2026-04-16T11:21:35.87Z</time></trkpt><trkpt lat="42.6626583" lon="-8.586475"><ele>372.0</ele><time>2026-04-16T11:21:36.869Z</time></trkpt><trkpt lat="42.6627633" lon="-8.586475"><ele>372.0</ele><time>2026-04-16T11:21:37.869Z</time></trkpt><trkpt lat="42.66287" lon="-8.58653"><ele>372.0</ele><time>2026-04-16T11:21:38.87Z</time></trkpt><trkpt lat="42.662965" lon="-8.5866117"><ele>372.0</ele><time>2026-04-16T11:21:39.87Z</time></trkpt><trkpt lat="42.663055" lon="-8.5867183"><ele>377.0</ele><time>2026-04-16T11:21:40.869Z</time></trkpt><trkpt lat="42.6631383" lon="-8.586855"><ele>382.0</ele><time>2026-04-16T11:21:41.87Z</time></trkpt><trkpt lat="42.6632083" lon="-8.587005"><ele>387.0</ele><time>2026-04-16T11:21:42.869Z</time></trkpt><trkpt lat="42.663275" lon="-8.58717"><ele>392.0</ele><time>2026-04-16T11:21:43.87Z</time></trkpt><trkpt lat="42.663355" lon="-8.58735"><ele>392.0</ele><time>2026-04-16T11:21:44.869Z</time></trkpt><trkpt lat="42.66342" lon="-8.5875283"><ele>392.0</ele><time>2026-04-16T11:21:45.87Z</time></trkpt><trkpt lat="42.6634867" lon="-8.587695"><ele>392.0</ele><time>2026-04-16T11:21:46.87Z</time></trkpt><trkpt lat="42.663565" lon="-8.5878633"><ele>392.0</ele><time>2026-04-16T11:21:47.87Z</time></trkpt><trkpt lat="42.6636633" lon="-8.5880283"><ele>390.20000000000005</ele><time>2026-04-16T11:21:48.869Z</time></trkpt><trkpt lat="42.6637567" lon="-8.58814"><ele>388.4</ele><time>2026-04-16T11:21:49.869Z</time></trkpt><trkpt lat="42.663845" lon="-8.5882167"><ele>386.6</ele><time>2026-04-16T11:21:50.869Z</time></trkpt><trkpt lat="42.66394" lon="-8.58824"><ele>384.79999999999995</ele><time>2026-04-16T11:21:51.869Z</time></trkpt><trkpt lat="42.6640433" lon="-8.5882383"><ele>383.0</ele><time>2026-04-16T11:21:52.869Z</time></trkpt><trkpt lat="42.6641533" lon="-8.5882167"><ele>383.0</ele><time>2026-04-16T11:21:53.869Z</time></trkpt><trkpt lat="42.66427" lon="-8.58821"><ele>383.0</ele><time>2026-04-16T11:21:54.869Z</time></trkpt><trkpt lat="42.6643933" lon="-8.588205"><ele>383.0</ele><time>2026-04-16T11:21:55.87Z</time></trkpt><trkpt lat="42.6645183" lon="-8.58819"><ele>383.0</ele><time>2026-04-16T11:21:56.869Z</time></trkpt><trkpt lat="42.6646583" lon="-8.5881533"><ele>388.33333333333337</ele><time>2026-04-16T11:21:57.869Z</time></trkpt><trkpt lat="42.6648017" lon="-8.5881117"><ele>393.6666666666667</ele><time>2026-04-16T11:21:58.869Z</time></trkpt><trkpt lat="42.664955" lon="-8.588065"><ele>399.0</ele><time>2026-04-16T11:21:59.87Z</time></trkpt><trkpt lat="42.6651117" lon="-8.58804"><ele>399.0</ele><time>2026-04-16T11:22:00.869Z</time></trkpt><trkpt lat="42.6652783" lon="-8.5880433"><ele>399.0</ele><time>2026-04-16T11:22:01.87Z</time></trkpt><trkpt lat="42.6654433" lon="-8.5880733"><ele>399.0</ele><time>2026-04-16T11:22:02.87Z</time></trkpt><trkpt lat="42.66561" lon="-8.5881433"><ele>404.0</ele><time>2026-04-16T11:22:03.869Z</time></trkpt><trkpt lat="42.6657733" lon="-8.5882433"><ele>409.0</ele><time>2026-04-16T11:22:04.869Z</time></trkpt><trkpt lat="42.6659217" lon="-8.5883567"><ele>414.0</ele><time>2026-04-16T11:22:05.869Z</time></trkpt><trkpt lat="42.6660517" lon="-8.588455"><ele>416.0</ele><time>2026-04-16T11:22:06.87Z</time></trkpt><trkpt lat="42.6661783" lon="-8.58853"><ele>418.0</ele><time>2026-04-16T11:22:07.869Z</time></trkpt><trkpt lat="42.6663117" lon="-8.5885933"><ele>420.0</ele><time>2026-04-16T11:22:08.869Z</time></trkpt><trkpt lat="42.66645" lon="-8.5886367"><ele>422.0</ele><time>2026-04-16T11:22:09.87Z</time></trkpt><trkpt lat="42.666595" lon="-8.5886817"><ele>418.5</ele><time>2026-04-16T11:22:10.869Z</time></trkpt><trkpt lat="42.666745" lon="-8.58872"><ele>415.0</ele><time>2026-04-16T11:22:11.869Z</time></trkpt><trkpt lat="42.6668883" lon="-8.5887517"><ele>411.5</ele><time>2026-04-16T11:22:12.87Z</time></trkpt><trkpt lat="42.6670317" lon="-8.58877"><ele>408.0</ele><time>2026-04-16T11:22:13.87Z</time></trkpt><trkpt lat="42.6671733" lon="-8.5887817"><ele>408.0</ele><time>2026-04-16T11:22:14.87Z</time></trkpt><trkpt lat="42.6673167" lon="-8.5888033"><ele>408.0</ele><time>2026-04-16T11:22:15.87Z</time></trkpt><trkpt lat="42.66746" lon="-8.5888383"><ele>408.0</ele><time>2026-04-16T11:22:16.87Z</time></trkpt><trkpt lat="42.667595" lon="-8.5888917"><ele>408.0</ele><time>2026-04-16T11:22:17.869Z</time></trkpt><trkpt lat="42.6677217" lon="-8.588995"><ele>410.2</ele><time>2026-04-16T11:22:18.869Z</time></trkpt><trkpt lat="42.66783" lon="-8.58908"><ele>412.4</ele><time>2026-04-16T11:22:19.869Z</time></trkpt><trkpt lat="42.6679217" lon="-8.5891483"><ele>414.59999999999997</ele><time>2026-04-16T11:22:20.869Z</time></trkpt><trkpt lat="42.66801" lon="-8.589205"><ele>416.79999999999995</ele><time>2026-04-16T11:22:21.87Z</time></trkpt><trkpt lat="42.668095" lon="-8.58923"><ele>419.0</ele><time>2026-04-16T11:22:22.869Z</time></trkpt><trkpt lat="42.6681667" lon="-8.589225"><ele>419.0</ele><time>2026-04-16T11:22:23.87Z</time></trkpt><trkpt lat="42.66822" lon="-8.5891617"><ele>419.0</ele><time>2026-04-16T11:22:25.869Z</time></trkpt><trkpt lat="42.6681033" lon="-8.5891183"><ele>419.0</ele><time>2026-04-16T11:22:28.87Z</time></trkpt><trkpt lat="42.6680317" lon="-8.5891133"><ele>419.0</ele><time>2026-04-16T11:22:29.87Z</time></trkpt><trkpt lat="42.66794" lon="-8.58907"><ele>419.0</ele><time>2026-04-16T11:22:30.87Z</time></trkpt><trkpt lat="42.667825" lon="-8.588975"><ele>415.3333333333333</ele><time>2026-04-16T11:22:31.87Z</time></trkpt><trkpt lat="42.667715" lon="-8.5888317"><ele>411.66666666666663</ele><time>2026-04-16T11:22:32.869Z</time></trkpt><trkpt lat="42.6675917" lon="-8.5886567"><ele>408.0</ele><time>2026-04-16T11:22:33.87Z</time></trkpt><trkpt lat="42.6674517" lon="-8.5884933"><ele>416.66666666666663</ele><time>2026-04-16T11:22:34.869Z</time></trkpt><trkpt lat="42.6673017" lon="-8.588365"><ele>425.3333333333333</ele><time>2026-04-16T11:22:35.87Z</time></trkpt><trkpt lat="42.6671233" lon="-8.588305"><ele>434.0</ele><time>2026-04-16T11:22:36.869Z</time></trkpt><trkpt lat="42.666965" lon="-8.588255"><ele>430.0</ele><time>2026-04-16T11:22:37.869Z</time></trkpt><trkpt lat="42.66679" lon="-8.5881867"><ele>426.0</ele><time>2026-04-16T11:22:38.87Z</time></trkpt><trkpt lat="42.6666183" lon="-8.58809"><ele>422.0</ele><time>2026-04-16T11:22:39.869Z</time></trkpt><trkpt lat="42.66646" lon="-8.587965"><ele>429.3333333333333</ele><time>2026-04-16T11:22:40.87Z</time></trkpt><trkpt lat="42.6663233" lon="-8.5878083"><ele>436.66666666666663</ele><time>2026-04-16T11:22:41.869Z</time></trkpt><trkpt lat="42.6662017" lon="-8.587635"><ele>444.0</ele><time>2026-04-16T11:22:42.87Z</time></trkpt><trkpt lat="42.6660817" lon="-8.5874433"><ele>444.0</ele><time>2026-04-16T11:22:43.87Z</time></trkpt><trkpt lat="42.66596" lon="-8.5872233"><ele>444.0</ele><time>2026-04-16T11:22:44.869Z</time></trkpt><trkpt lat="42.6658283" lon="-8.586985"><ele>444.0</ele><time>2026-04-16T11:22:45.869Z</time></trkpt><trkpt lat="42.665695" lon="-8.5867417"><ele>449.66666666666663</ele><time>2026-04-16T11:22:46.87Z</time></trkpt><trkpt lat="42.6655517" lon="-8.5865117"><ele>455.3333333333333</ele><time>2026-04-16T11:22:47.87Z</time></trkpt><trkpt lat="42.66542" lon="-8.5863067"><ele>461.0</ele><time>2026-04-16T11:22:48.869Z</time></trkpt><trkpt lat="42.6653183" lon="-8.5861283"><ele>459.0</ele><time>2026-04-16T11:22:49.87Z</time></trkpt><trkpt lat="42.6652417" lon="-8.5859633"><ele>457.0</ele><time>2026-04-16T11:22:50.869Z</time></trkpt><trkpt lat="42.6652033" lon="-8.5857967"><ele>455.0</ele><time>2026-04-16T11:22:51.869Z</time></trkpt><trkpt lat="42.665195" lon="-8.5856167"><ele>453.0</ele><time>2026-04-16T11:22:52.87Z</time></trkpt><trkpt lat="42.6652083" lon="-8.5854283"><ele>453.66666666666663</ele><time>2026-04-16T11:22:53.87Z</time></trkpt><trkpt lat="42.6652283" lon="-8.5852117"><ele>454.3333333333333</ele><time>2026-04-16T11:22:54.87Z</time></trkpt><trkpt lat="42.6652567" lon="-8.58498"><ele>455.0</ele><time>2026-04-16T11:22:55.869Z</time></trkpt><trkpt lat="42.6652933" lon="-8.5847167"><ele>462.3333333333333</ele><time>2026-04-16T11:22:56.869Z</time></trkpt><trkpt lat="42.6653467" lon="-8.5844467"><ele>469.66666666666663</ele><time>2026-04-16T11:22:57.869Z</time></trkpt><trkpt lat="42.66541" lon="-8.5841833"><ele>477.0</ele><time>2026-04-16T11:22:58.87Z</time></trkpt><trkpt lat="42.6654667" lon="-8.583945"><ele>477.0</ele><time>2026-04-16T11:22:59.87Z</time></trkpt><trkpt lat="42.6654983" lon="-8.583725"><ele>477.0</ele><time>2026-04-16T11:23:00.869Z</time></trkpt><trkpt lat="42.6655" lon="-8.5835"><ele>477.0</ele><time>2026-04-16T11:23:01.87Z</time></trkpt><trkpt lat="42.665475" lon="-8.583275"><ele>476.25</ele><time>2026-04-16T11:23:02.869Z</time></trkpt><trkpt lat="42.66544" lon="-8.5830667"><ele>475.5</ele><time>2026-04-16T11:23:03.869Z</time></trkpt><trkpt lat="42.66542" lon="-8.5828883"><ele>474.75</ele><time>2026-04-16T11:23:04.87Z</time></trkpt><trkpt lat="42.6654117" lon="-8.582735"><ele>474.0</ele><time>2026-04-16T11:23:05.869Z</time></trkpt><trkpt lat="42.6654333" lon="-8.5826167"><ele>473.0</ele><time>2026-04-16T11:23:06.869Z</time></trkpt><trkpt lat="42.6654783" lon="-8.5825433"><ele>472.0</ele><time>2026-04-16T11:23:07.869Z</time></trkpt><trkpt lat="42.6655633" lon="-8.5825033"><ele>471.0</ele><time>2026-04-16T11:23:08.869Z</time></trkpt><trkpt lat="42.6656833" lon="-8.5824733"><ele>470.0</ele><time>2026-04-16T11:23:09.869Z</time></trkpt><trkpt lat="42.665825" lon="-8.5824333"><ele>469.0</ele><time>2026-04-16T11:23:10.87Z</time></trkpt><trkpt lat="42.6659667" lon="-8.5823983"><ele>469.0</ele><time>2026-04-16T11:23:11.87Z</time></trkpt><trkpt lat="42.6661033" lon="-8.5823833"><ele>469.0</ele><time>2026-04-16T11:23:12.87Z</time></trkpt><trkpt lat="42.6662517" lon="-8.582395"><ele>469.0</ele><time>2026-04-16T11:23:13.869Z</time></trkpt><trkpt lat="42.6663767" lon="-8.5824217"><ele>469.0</ele><time>2026-04-16T11:23:14.87Z</time></trkpt><trkpt lat="42.6664833" lon="-8.5824367"><ele>471.5</ele><time>2026-04-16T11:23:15.87Z</time></trkpt><trkpt lat="42.6666" lon="-8.58241"><ele>474.0</ele><time>2026-04-16T11:23:16.87Z</time></trkpt><trkpt lat="42.6667267" lon="-8.5823467"><ele>476.5</ele><time>2026-04-16T11:23:17.87Z</time></trkpt><trkpt lat="42.666855" lon="-8.5822417"><ele>479.0</ele><time>2026-04-16T11:23:18.869Z</time></trkpt><trkpt lat="42.6670017" lon="-8.5821183"><ele>476.0</ele><time>2026-04-16T11:23:19.87Z</time></trkpt><trkpt lat="42.6671617" lon="-8.5819883"><ele>473.0</ele><time>2026-04-16T11:23:20.869Z</time></trkpt><trkpt lat="42.6673067" lon="-8.5818633"><ele>470.0</ele><time>2026-04-16T11:23:21.869Z</time></trkpt><trkpt lat="42.6674433" lon="-8.5817433"><ele>470.0</ele><time>2026-04-16T11:23:22.869Z</time></trkpt><trkpt lat="42.6675717" lon="-8.58165"><ele>470.0</ele><time>2026-04-16T11:23:23.869Z</time></trkpt><trkpt lat="42.6677" lon="-8.5815533"><ele>470.0</ele><time>2026-04-16T11:23:24.87Z</time></trkpt><trkpt lat="42.66784" lon="-8.5814983"><ele>470.0</ele><time>2026-04-16T11:23:25.869Z</time></trkpt><trkpt lat="42.6680017" lon="-8.581475"><ele>474.3333333333333</ele><time>2026-04-16T11:23:26.87Z</time></trkpt><trkpt lat="42.6681783" lon="-8.58147"><ele>478.66666666666663</ele><time>2026-04-16T11:23:27.869Z</time></trkpt><trkpt lat="42.6683683" lon="-8.5814683"><ele>483.0</ele><time>2026-04-16T11:23:28.869Z</time></trkpt><trkpt lat="42.66855" lon="-8.58144"><ele>488.66666666666663</ele><time>2026-04-16T11:23:29.87Z</time></trkpt><trkpt lat="42.6687167" lon="-8.58138"><ele>494.3333333333333</ele><time>2026-04-16T11:23:30.87Z</time></trkpt><trkpt lat="42.6688633" lon="-8.5813033"><ele>500.0</ele><time>2026-04-16T11:23:31.869Z</time></trkpt><trkpt lat="42.6689983" lon="-8.581185"><ele>497.66666666666663</ele><time>2026-04-16T11:23:32.87Z</time></trkpt><trkpt lat="42.6691383" lon="-8.5810517"><ele>495.33333333333337</ele><time>2026-04-16T11:23:33.869Z</time></trkpt><trkpt lat="42.66931" lon="-8.5809433"><ele>493.0</ele><time>2026-04-16T11:23:34.869Z</time></trkpt><trkpt lat="42.669505" lon="-8.5808583"><ele>493.0</ele><time>2026-04-16T11:23:35.869Z</time></trkpt><trkpt lat="42.66971" lon="-8.5807683"><ele>493.0</ele><time>2026-04-16T11:23:36.87Z</time></trkpt><trkpt lat="42.66992" lon="-8.5806733"><ele>493.0</ele><time>2026-04-16T11:23:37.869Z</time></trkpt><trkpt lat="42.6701267" lon="-8.58058"><ele>496.33333333333337</ele><time>2026-04-16T11:23:38.869Z</time></trkpt><trkpt lat="42.67034" lon="-8.5805"><ele>499.66666666666663</ele><time>2026-04-16T11:23:39.87Z</time></trkpt><trkpt lat="42.6705417" lon="-8.5804417"><ele>503.0</ele><time>2026-04-16T11:23:40.869Z</time></trkpt><trkpt lat="42.6707167" lon="-8.58038"><ele>500.0</ele><time>2026-04-16T11:23:41.869Z</time></trkpt><trkpt lat="42.6708617" lon="-8.5803417"><ele>497.0</ele><time>2026-04-16T11:23:42.87Z</time></trkpt><trkpt lat="42.67097" lon="-8.58027"><ele>494.0</ele><time>2026-04-16T11:23:43.869Z</time></trkpt><trkpt lat="42.671055" lon="-8.58018"><ele>491.0</ele><time>2026-04-16T11:23:44.869Z</time></trkpt><trkpt lat="42.67116" lon="-8.5801017"><ele>491.0</ele><time>2026-04-16T11:23:45.87Z</time></trkpt><trkpt lat="42.671295" lon="-8.580005"><ele>491.0</ele><time>2026-04-16T11:23:46.869Z</time></trkpt><trkpt lat="42.6714467" lon="-8.5798967"><ele>491.0</ele><time>2026-04-16T11:23:47.869Z</time></trkpt><trkpt lat="42.6715983" lon="-8.5797883"><ele>491.0</ele><time>2026-04-16T11:23:48.869Z</time></trkpt><trkpt lat="42.6717467" lon="-8.5797083"><ele>491.0</ele><time>2026-04-16T11:23:49.87Z</time></trkpt><trkpt lat="42.671895" lon="-8.57964"><ele>491.0</ele><time>2026-04-16T11:23:50.869Z</time></trkpt><trkpt lat="42.6720333" lon="-8.5796017"><ele>495.0</ele><time>2026-04-16T11:23:51.869Z</time></trkpt><trkpt lat="42.672175" lon="-8.57959"><ele>499.0</ele><time>2026-04-16T11:23:52.869Z</time></trkpt><trkpt lat="42.6723267" lon="-8.5795983"><ele>503.0</ele><time>2026-04-16T11:23:53.87Z</time></trkpt><trkpt lat="42.6724967" lon="-8.5796267"><ele>503.0</ele><time>2026-04-16T11:23:54.87Z</time></trkpt><trkpt lat="42.6726767" lon="-8.5796733"><ele>503.0</ele><time>2026-04-16T11:23:55.869Z</time></trkpt><trkpt lat="42.6728733" lon="-8.57971"><ele>503.0</ele><time>2026-04-16T11:23:56.869Z</time></trkpt><trkpt lat="42.6730533" lon="-8.5797367"><ele>502.25</ele><time>2026-04-16T11:23:57.869Z</time></trkpt><trkpt lat="42.6731833" lon="-8.579745"><ele>501.5</ele><time>2026-04-16T11:23:58.87Z</time></trkpt><trkpt lat="42.6732717" lon="-8.579735"><ele>500.75</ele><time>2026-04-16T11:23:59.87Z</time></trkpt><trkpt lat="42.6733883" lon="-8.57976"><ele>500.0</ele><time>2026-04-16T11:24:00.87Z</time></trkpt><trkpt lat="42.67351" lon="-8.5797817"><ele>502.5</ele><time>2026-04-16T11:24:01.87Z</time></trkpt><trkpt lat="42.673635" lon="-8.5797817"><ele>505.0</ele><time>2026-04-16T11:24:02.87Z</time></trkpt><trkpt lat="42.6737867" lon="-8.57976"><ele>507.5</ele><time>2026-04-16T11:24:03.87Z</time></trkpt><trkpt lat="42.6739467" lon="-8.57973"><ele>510.0</ele><time>2026-04-16T11:24:04.87Z</time></trkpt><trkpt lat="42.6741067" lon="-8.5796883"><ele>510.0</ele><time>2026-04-16T11:24:05.869Z</time></trkpt><trkpt lat="42.6742533" lon="-8.579625"><ele>510.0</ele><time>2026-04-16T11:24:06.869Z</time></trkpt><trkpt lat="42.6743767" lon="-8.579505"><ele>510.0</ele><time>2026-04-16T11:24:07.869Z</time></trkpt><trkpt lat="42.6744867" lon="-8.5793867"><ele>510.0</ele><time>2026-04-16T11:24:08.87Z</time></trkpt><trkpt lat="42.6745683" lon="-8.5792617"><ele>509.66666666666663</ele><time>2026-04-16T11:24:09.87Z</time></trkpt><trkpt lat="42.6746333" lon="-8.5790917"><ele>509.3333333333333</ele><time>2026-04-16T11:24:10.87Z</time></trkpt><trkpt lat="42.6747067" lon="-8.57891"><ele>509.0</ele><time>2026-04-16T11:24:11.869Z</time></trkpt><trkpt lat="42.674795" lon="-8.5787033"><ele>502.66666666666663</ele><time>2026-04-16T11:24:12.87Z</time></trkpt><trkpt lat="42.6749133" lon="-8.5785267"><ele>496.33333333333337</ele><time>2026-04-16T11:24:13.87Z</time></trkpt><trkpt lat="42.6750583" lon="-8.5783767"><ele>490.0</ele><time>2026-04-16T11:24:14.869Z</time></trkpt><trkpt lat="42.6752117" lon="-8.578245"><ele>493.6666666666667</ele><time>2026-04-16T11:24:15.869Z</time></trkpt><trkpt lat="42.6753567" lon="-8.5781417"><ele>497.33333333333337</ele><time>2026-04-16T11:24:16.87Z</time></trkpt><trkpt lat="42.6755017" lon="-8.5780717"><ele>501.0</ele><time>2026-04-16T11:24:17.869Z</time></trkpt><trkpt lat="42.6756417" lon="-8.578045"><ele>501.0</ele><time>2026-04-16T11:24:18.87Z</time></trkpt><trkpt lat="42.675795" lon="-8.5780433"><ele>501.0</ele><time>2026-04-16T11:24:19.869Z</time></trkpt><trkpt lat="42.6759283" lon="-8.5780767"><ele>501.0</ele><time>2026-04-16T11:24:20.869Z</time></trkpt><trkpt lat="42.6760567" lon="-8.5781467"><ele>501.0</ele><time>2026-04-16T11:24:21.869Z</time></trkpt><trkpt lat="42.676185" lon="-8.5782467"><ele>497.33333333333337</ele><time>2026-04-16T11:24:22.869Z</time></trkpt><trkpt lat="42.67633" lon="-8.57837"><ele>493.6666666666667</ele><time>2026-04-16T11:24:23.87Z</time></trkpt><trkpt lat="42.6764767" lon="-8.5784917"><ele>490.0</ele><time>2026-04-16T11:24:24.87Z</time></trkpt><trkpt lat="42.67663" lon="-8.5785817"><ele>490.0</ele><time>2026-04-16T11:24:25.869Z</time></trkpt><trkpt lat="42.6767833" lon="-8.57863"><ele>490.0</ele><time>2026-04-16T11:24:26.87Z</time></trkpt><trkpt lat="42.6769217" lon="-8.5786733"><ele>490.0</ele><time>2026-04-16T11:24:27.87Z</time></trkpt><trkpt lat="42.6770467" lon="-8.5787133"><ele>490.0</ele><time>2026-04-16T11:24:28.87Z</time></trkpt><trkpt lat="42.6771683" lon="-8.578765"><ele>496.0</ele><time>2026-04-16T11:24:29.87Z</time></trkpt><trkpt lat="42.6772933" lon="-8.5788383"><ele>502.0</ele><time>2026-04-16T11:24:30.869Z</time></trkpt><trkpt lat="42.6774367" lon="-8.57895"><ele>508.0</ele><time>2026-04-16T11:24:31.869Z</time></trkpt><trkpt lat="42.6775933" lon="-8.5790567"><ele>508.0</ele><time>2026-04-16T11:24:32.87Z</time></trkpt><trkpt lat="42.67776" lon="-8.5791583"><ele>508.0</ele><time>2026-04-16T11:24:33.869Z</time></trkpt><trkpt lat="42.677925" lon="-8.5792633"><ele>508.0</ele><time>2026-04-16T11:24:34.869Z</time></trkpt><trkpt lat="42.6780967" lon="-8.579385"><ele>503.6666666666667</ele><time>2026-04-16T11:24:35.87Z</time></trkpt><trkpt lat="42.6782633" lon="-8.5795133"><ele>499.33333333333337</ele><time>2026-04-16T11:24:36.87Z</time></trkpt><trkpt lat="42.67841" lon="-8.5796233"><ele>495.0</ele><time>2026-04-16T11:24:37.87Z</time></trkpt><trkpt lat="42.6785433" lon="-8.5797083"><ele>500.6</ele><time>2026-04-16T11:24:38.87Z</time></trkpt><trkpt lat="42.6786517" lon="-8.5797433"><ele>506.2</ele><time>2026-04-16T11:24:39.87Z</time></trkpt><trkpt lat="42.6787433" lon="-8.5797783"><ele>511.79999999999995</ele><time>2026-04-16T11:24:40.869Z</time></trkpt><trkpt lat="42.6788283" lon="-8.579765"><ele>517.4</ele><time>2026-04-16T11:24:41.87Z</time></trkpt><trkpt lat="42.678905" lon="-8.5796983"><ele>523.0</ele><time>2026-04-16T11:24:42.869Z</time></trkpt><trkpt lat="42.678985" lon="-8.5795717"><ele>519.75</ele><time>2026-04-16T11:24:43.869Z</time></trkpt><trkpt lat="42.6790517" lon="-8.5794133"><ele>516.5</ele><time>2026-04-16T11:24:44.869Z</time></trkpt><trkpt lat="42.679095" lon="-8.5792233"><ele>513.25</ele><time>2026-04-16T11:24:45.869Z</time></trkpt><trkpt lat="42.6791083" lon="-8.579"><ele>510.0</ele><time>2026-04-16T11:24:46.87Z</time></trkpt><trkpt lat="42.6791217" lon="-8.5787317"><ele>508.0</ele><time>2026-04-16T11:24:47.869Z</time></trkpt><trkpt lat="42.679145" lon="-8.5784383"><ele>506.0</ele><time>2026-04-16T11:24:48.869Z</time></trkpt><trkpt lat="42.6791667" lon="-8.578175"><ele>504.0</ele><time>2026-04-16T11:24:49.87Z</time></trkpt><trkpt lat="42.679195" lon="-8.5779383"><ele>501.0</ele><time>2026-04-16T11:24:50.869Z</time></trkpt><trkpt lat="42.6792383" lon="-8.5776983"><ele>498.0</ele><time>2026-04-16T11:24:51.869Z</time></trkpt><trkpt lat="42.6792917" lon="-8.5774767"><ele>495.0</ele><time>2026-04-16T11:24:52.87Z</time></trkpt><trkpt lat="42.6793617" lon="-8.5772633"><ele>495.0</ele><time>2026-04-16T11:24:53.87Z</time></trkpt><trkpt lat="42.6794217" lon="-8.5771033"><ele>495.0</ele><time>2026-04-16T11:24:54.869Z</time></trkpt><trkpt lat="42.6794683" lon="-8.5769983"><ele>495.0</ele><time>2026-04-16T11:24:55.87Z</time></trkpt><trkpt lat="42.6795267" lon="-8.576855"><ele>495.0</ele><time>2026-04-16T11:24:57.87Z</time></trkpt><trkpt lat="42.6795483" lon="-8.57677"><ele>495.0</ele><time>2026-04-16T11:24:58.869Z</time></trkpt><trkpt lat="42.6795717" lon="-8.57669"><ele>496.0</ele><time>2026-04-16T11:24:59.869Z</time></trkpt><trkpt lat="42.67961" lon="-8.5765783"><ele>497.0</ele><time>2026-04-16T11:25:00.869Z</time></trkpt><trkpt lat="42.67966" lon="-8.576445"><ele>498.0</ele><time>2026-04-16T11:25:01.869Z</time></trkpt><trkpt lat="42.6797167" lon="-8.5762967"><ele>499.0</ele><time>2026-04-16T11:25:02.87Z</time></trkpt><trkpt lat="42.6797667" lon="-8.5761433"><ele>500.0</ele><time>2026-04-16T11:25:03.869Z</time></trkpt><trkpt lat="42.6798067" lon="-8.5759917"><ele>500.0</ele><time>2026-04-16T11:25:04.87Z</time></trkpt><trkpt lat="42.6798317" lon="-8.575845"><ele>500.0</ele><time>2026-04-16T11:25:05.87Z</time></trkpt><trkpt lat="42.6798483" lon="-8.57568"><ele>500.0</ele><time>2026-04-16T11:25:06.87Z</time></trkpt><trkpt lat="42.6798567" lon="-8.5754967"><ele>500.0</ele><time>2026-04-16T11:25:07.869Z</time></trkpt><trkpt lat="42.679845" lon="-8.5753117"><ele>499.0</ele><time>2026-04-16T11:25:08.869Z</time></trkpt><trkpt lat="42.679825" lon="-8.5751433"><ele>498.0</ele><time>2026-04-16T11:25:09.87Z</time></trkpt><trkpt lat="42.6798017" lon="-8.5749783"><ele>497.0</ele><time>2026-04-16T11:25:10.87Z</time></trkpt><trkpt lat="42.6797983" lon="-8.574815"><ele>496.0</ele><time>2026-04-16T11:25:11.87Z</time></trkpt><trkpt lat="42.67982" lon="-8.5746567"><ele>493.0</ele><time>2026-04-16T11:25:12.869Z</time></trkpt><trkpt lat="42.6798583" lon="-8.574475"><ele>490.0</ele><time>2026-04-16T11:25:13.869Z</time></trkpt><trkpt lat="42.679925" lon="-8.5742883"><ele>487.0</ele><time>2026-04-16T11:25:14.869Z</time></trkpt><trkpt lat="42.6799917" lon="-8.5741033"><ele>484.0</ele><time>2026-04-16T11:25:15.87Z</time></trkpt><trkpt lat="42.68007" lon="-8.5739583"><ele>484.0</ele><time>2026-04-16T11:25:16.869Z</time></trkpt><trkpt lat="42.6801567" lon="-8.5738517"><ele>484.0</ele><time>2026-04-16T11:25:17.869Z</time></trkpt><trkpt lat="42.680265" lon="-8.5737583"><ele>484.0</ele><time>2026-04-16T11:25:18.869Z</time></trkpt><trkpt lat="42.6803783" lon="-8.5736783"><ele>484.0</ele><time>2026-04-16T11:25:19.87Z</time></trkpt><trkpt lat="42.68048" lon="-8.5736067"><ele>485.2</ele><time>2026-04-16T11:25:20.87Z</time></trkpt><trkpt lat="42.680555" lon="-8.5735267"><ele>486.4</ele><time>2026-04-16T11:25:21.87Z</time></trkpt><trkpt lat="42.6806083" lon="-8.573435"><ele>487.6</ele><time>2026-04-16T11:25:22.869Z</time></trkpt><trkpt lat="42.6806333" lon="-8.5733333"><ele>488.8</ele><time>2026-04-16T11:25:23.869Z</time></trkpt><trkpt lat="42.68055" lon="-8.57319"><ele>490.0</ele><time>2026-04-16T11:25:25.869Z</time></trkpt><trkpt lat="42.6804233" lon="-8.57314"><ele>490.0</ele><time>2026-04-16T11:25:26.869Z</time></trkpt><trkpt lat="42.6802917" lon="-8.5730683"><ele>490.0</ele><time>2026-04-16T11:25:27.87Z</time></trkpt><trkpt lat="42.6801383" lon="-8.5729817"><ele>490.0</ele><time>2026-04-16T11:25:28.869Z</time></trkpt><trkpt lat="42.67998" lon="-8.5728933"><ele>488.0</ele><time>2026-04-16T11:25:29.869Z</time></trkpt><trkpt lat="42.679845" lon="-8.5727867"><ele>486.0</ele><time>2026-04-16T11:25:30.87Z</time></trkpt><trkpt lat="42.67973" lon="-8.5726767"><ele>484.0</ele><time>2026-04-16T11:25:31.869Z</time></trkpt><trkpt lat="42.6796367" lon="-8.5725817"><ele>482.0</ele><time>2026-04-16T11:25:32.869Z</time></trkpt><trkpt lat="42.6795733" lon="-8.5724683"><ele>482.0</ele><time>2026-04-16T11:25:33.869Z</time></trkpt><trkpt lat="42.6795183" lon="-8.57233"><ele>482.0</ele><time>2026-04-16T11:25:34.87Z</time></trkpt><trkpt lat="42.6794867" lon="-8.5721467"><ele>482.0</ele><time>2026-04-16T11:25:35.87Z</time></trkpt><trkpt lat="42.6794633" lon="-8.5719317"><ele>482.0</ele><time>2026-04-16T11:25:36.869Z</time></trkpt><trkpt lat="42.6794433" lon="-8.571695"><ele>475.0</ele><time>2026-04-16T11:25:37.87Z</time></trkpt><trkpt lat="42.6794183" lon="-8.5714333"><ele>468.0</ele><time>2026-04-16T11:25:38.87Z</time></trkpt><trkpt lat="42.6793933" lon="-8.5711617"><ele>461.0</ele><time>2026-04-16T11:25:39.87Z</time></trkpt><trkpt lat="42.6793633" lon="-8.5708917"><ele>460.0</ele><time>2026-04-16T11:25:40.87Z</time></trkpt><trkpt lat="42.6793283" lon="-8.5706267"><ele>459.0</ele><time>2026-04-16T11:25:41.87Z</time></trkpt><trkpt lat="42.6793017" lon="-8.5703917"><ele>458.0</ele><time>2026-04-16T11:25:42.87Z</time></trkpt><trkpt lat="42.67927" lon="-8.5701817"><ele>458.0</ele><time>2026-04-16T11:25:43.871Z</time></trkpt><trkpt lat="42.6792617" lon="-8.5699717"><ele>458.0</ele><time>2026-04-16T11:25:44.871Z</time></trkpt><trkpt lat="42.6792683" lon="-8.5697883"><ele>458.0</ele><time>2026-04-16T11:25:45.871Z</time></trkpt><trkpt lat="42.6792883" lon="-8.5696233"><ele>458.0</ele><time>2026-04-16T11:25:46.87Z</time></trkpt><trkpt lat="42.67932" lon="-8.5694767"><ele>460.25</ele><time>2026-04-16T11:25:47.87Z</time></trkpt><trkpt lat="42.679385" lon="-8.5693483"><ele>462.5</ele><time>2026-04-16T11:25:48.871Z</time></trkpt><trkpt lat="42.67947" lon="-8.5692233"><ele>464.75</ele><time>2026-04-16T11:25:49.871Z</time></trkpt><trkpt lat="42.679575" lon="-8.5691083"><ele>467.0</ele><time>2026-04-16T11:25:50.87Z</time></trkpt><trkpt lat="42.6796767" lon="-8.569"><ele>467.0</ele><time>2026-04-16T11:25:51.871Z</time></trkpt><trkpt lat="42.6797717" lon="-8.568905"><ele>467.00000000000006</ele><time>2026-04-16T11:25:52.87Z</time></trkpt><trkpt lat="42.679855" lon="-8.5688233"><ele>467.00000000000006</ele><time>2026-04-16T11:25:53.871Z</time></trkpt><trkpt lat="42.6799367" lon="-8.5687567"><ele>467.0</ele><time>2026-04-16T11:25:54.871Z</time></trkpt><trkpt lat="42.6800383" lon="-8.56872"><ele>467.0</ele><time>2026-04-16T11:25:55.871Z</time></trkpt><trkpt lat="42.6801533" lon="-8.5686767"><ele>465.25</ele><time>2026-04-16T11:25:56.87Z</time></trkpt><trkpt lat="42.6802767" lon="-8.56865"><ele>463.5</ele><time>2026-04-16T11:25:57.87Z</time></trkpt><trkpt lat="42.68042" lon="-8.568635"><ele>461.75</ele><time>2026-04-16T11:25:58.871Z</time></trkpt><trkpt lat="42.68058" lon="-8.5686217"><ele>460.0</ele><time>2026-04-16T11:25:59.87Z</time></trkpt><trkpt lat="42.6807467" lon="-8.56861"><ele>460.0</ele><time>2026-04-16T11:26:00.87Z</time></trkpt><trkpt lat="42.68092" lon="-8.5685883"><ele>460.0</ele><time>2026-04-16T11:26:01.87Z</time></trkpt><trkpt lat="42.681085" lon="-8.5685633"><ele>460.0</ele><time>2026-04-16T11:26:02.87Z</time></trkpt><trkpt lat="42.6812467" lon="-8.5685233"><ele>466.33333333333337</ele><time>2026-04-16T11:26:03.87Z</time></trkpt><trkpt lat="42.6813867" lon="-8.56847"><ele>472.66666666666663</ele><time>2026-04-16T11:26:04.871Z</time></trkpt><trkpt lat="42.6815233" lon="-8.5683883"><ele>479.0</ele><time>2026-04-16T11:26:05.871Z</time></trkpt><trkpt lat="42.6816567" lon="-8.5682767"><ele>479.0</ele><time>2026-04-16T11:26:06.871Z</time></trkpt><trkpt lat="42.681795" lon="-8.5681483"><ele>479.0</ele><time>2026-04-16T11:26:07.87Z</time></trkpt><trkpt lat="42.6819283" lon="-8.56802"><ele>479.0</ele><time>2026-04-16T11:26:08.871Z</time></trkpt><trkpt lat="42.6820717" lon="-8.5679233"><ele>480.3333333333333</ele><time>2026-04-16T11:26:09.87Z</time></trkpt><trkpt lat="42.682225" lon="-8.5678567"><ele>481.66666666666663</ele><time>2026-04-16T11:26:10.871Z</time></trkpt><trkpt lat="42.6823767" lon="-8.5678267"><ele>483.0</ele><time>2026-04-16T11:26:11.87Z</time></trkpt><trkpt lat="42.6825167" lon="-8.5678167"><ele>483.0</ele><time>2026-04-16T11:26:12.87Z</time></trkpt><trkpt lat="42.68265" lon="-8.56784"><ele>483.0</ele><time>2026-04-16T11:26:13.87Z</time></trkpt><trkpt lat="42.682775" lon="-8.5679"><ele>483.0</ele><time>2026-04-16T11:26:14.871Z</time></trkpt><trkpt lat="42.6828717" lon="-8.5679733"><ele>483.0</ele><time>2026-04-16T11:26:15.87Z</time></trkpt><trkpt lat="42.6829367" lon="-8.5680533"><ele>486.2</ele><time>2026-04-16T11:26:16.871Z</time></trkpt><trkpt lat="42.68299" lon="-8.56816"><ele>489.4</ele><time>2026-04-16T11:26:17.87Z</time></trkpt><trkpt lat="42.6830283" lon="-8.568285"><ele>492.59999999999997</ele><time>2026-04-16T11:26:18.871Z</time></trkpt><trkpt lat="42.6830683" lon="-8.5684367"><ele>495.79999999999995</ele><time>2026-04-16T11:26:19.87Z</time></trkpt><trkpt lat="42.6831133" lon="-8.5685817"><ele>499.0</ele><time>2026-04-16T11:26:20.871Z</time></trkpt><trkpt lat="42.68316" lon="-8.5687133"><ele>501.2</ele><time>2026-04-16T11:26:21.87Z</time></trkpt><trkpt lat="42.6832183" lon="-8.5688"><ele>503.4</ele><time>2026-04-16T11:26:22.871Z</time></trkpt><trkpt lat="42.6832833" lon="-8.5688317"><ele>505.6</ele><time>2026-04-16T11:26:23.87Z</time></trkpt><trkpt lat="42.6833633" lon="-8.5688517"><ele>507.8</ele><time>2026-04-16T11:26:24.871Z</time></trkpt><trkpt lat="42.6834683" lon="-8.5688367"><ele>510.0</ele><time>2026-04-16T11:26:25.871Z</time></trkpt><trkpt lat="42.6835917" lon="-8.5688133"><ele>511.25</ele><time>2026-04-16T11:26:26.871Z</time></trkpt><trkpt lat="42.68375" lon="-8.5687833"><ele>512.5</ele><time>2026-04-16T11:26:27.87Z</time></trkpt><trkpt lat="42.683905" lon="-8.568785"><ele>513.75</ele><time>2026-04-16T11:26:28.871Z</time></trkpt><trkpt lat="42.6840367" lon="-8.5687983"><ele>515.0</ele><time>2026-04-16T11:26:29.87Z</time></trkpt><trkpt lat="42.6841433" lon="-8.568865"><ele>515.0</ele><time>2026-04-16T11:26:30.87Z</time></trkpt><trkpt lat="42.68426" lon="-8.5689633"><ele>515.0</ele><time>2026-04-16T11:26:31.871Z</time></trkpt><trkpt lat="42.6843617" lon="-8.56908"><ele>515.0</ele><time>2026-04-16T11:26:32.871Z</time></trkpt><trkpt lat="42.6844667" lon="-8.5691833"><ele>515.0</ele><time>2026-04-16T11:26:33.87Z</time></trkpt><trkpt lat="42.6845867" lon="-8.569265"><ele>515.5</ele><time>2026-04-16T11:26:34.87Z</time></trkpt><trkpt lat="42.68472" lon="-8.5693283"><ele>516.0</ele><time>2026-04-16T11:26:35.87Z</time></trkpt><trkpt lat="42.6848667" lon="-8.56936"><ele>516.5</ele><time>2026-04-16T11:26:36.87Z</time></trkpt><trkpt lat="42.685015" lon="-8.5693617"><ele>517.0</ele><time>2026-04-16T11:26:37.87Z</time></trkpt><trkpt lat="42.68517" lon="-8.5693333"><ele>517.3333333333334</ele><time>2026-04-16T11:26:38.87Z</time></trkpt><trkpt lat="42.685325" lon="-8.5692967"><ele>517.6666666666666</ele><time>2026-04-16T11:26:39.87Z</time></trkpt><trkpt lat="42.6854883" lon="-8.5692617"><ele>518.0</ele><time>2026-04-16T11:26:40.871Z</time></trkpt><trkpt lat="42.6856417" lon="-8.5692467"><ele>518.0</ele><time>2026-04-16T11:26:41.871Z</time></trkpt><trkpt lat="42.6857783" lon="-8.5692667"><ele>518.0</ele><time>2026-04-16T11:26:42.871Z</time></trkpt><trkpt lat="42.6859" lon="-8.56933"><ele>518.0</ele><time>2026-04-16T11:26:43.871Z</time></trkpt><trkpt lat="42.68604" lon="-8.5694233"><ele>518.0</ele><time>2026-04-16T11:26:44.87Z</time></trkpt><trkpt lat="42.68617" lon="-8.5695067"><ele>520.0</ele><time>2026-04-16T11:26:45.871Z</time></trkpt><trkpt lat="42.6862867" lon="-8.56951"><ele>522.0</ele><time>2026-04-16T11:26:46.87Z</time></trkpt><trkpt lat="42.68639" lon="-8.5694633"><ele>524.0</ele><time>2026-04-16T11:26:47.871Z</time></trkpt><trkpt lat="42.6865033" lon="-8.5693633"><ele>526.0</ele><time>2026-04-16T11:26:48.871Z</time></trkpt><trkpt lat="42.6866383" lon="-8.5692467"><ele>526.0</ele><time>2026-04-16T11:26:49.87Z</time></trkpt><trkpt lat="42.686775" lon="-8.56913"><ele>526.0</ele><time>2026-04-16T11:26:50.871Z</time></trkpt><trkpt lat="42.68689" lon="-8.56899"><ele>526.0</ele><time>2026-04-16T11:26:51.871Z</time></trkpt><trkpt lat="42.6869817" lon="-8.5688183"><ele>525.6666666666667</ele><time>2026-04-16T11:26:52.87Z</time></trkpt><trkpt lat="42.687085" lon="-8.5686333"><ele>525.3333333333334</ele><time>2026-04-16T11:26:53.87Z</time></trkpt><trkpt lat="42.687195" lon="-8.568495"><ele>525.0</ele><time>2026-04-16T11:26:54.871Z</time></trkpt><trkpt lat="42.687315" lon="-8.5683967"><ele>525.0</ele><time>2026-04-16T11:26:55.871Z</time></trkpt><trkpt lat="42.6874467" lon="-8.5683517"><ele>525.0</ele><time>2026-04-16T11:26:56.871Z</time></trkpt><trkpt lat="42.6875817" lon="-8.568335"><ele>525.0</ele><time>2026-04-16T11:26:57.87Z</time></trkpt><trkpt lat="42.6877033" lon="-8.5683517"><ele>525.0</ele><time>2026-04-16T11:26:58.87Z</time></trkpt><trkpt lat="42.6878033" lon="-8.5683867"><ele>525.5</ele><time>2026-04-16T11:26:59.871Z</time></trkpt><trkpt lat="42.6878983" lon="-8.5684567"><ele>526.0</ele><time>2026-04-16T11:27:00.87Z</time></trkpt><trkpt lat="42.6879917" lon="-8.568555"><ele>526.5</ele><time>2026-04-16T11:27:01.87Z</time></trkpt><trkpt lat="42.6880883" lon="-8.56869"><ele>527.0</ele><time>2026-04-16T11:27:02.87Z</time></trkpt><trkpt lat="42.68819" lon="-8.568865"><ele>528.3333333333333</ele><time>2026-04-16T11:27:03.87Z</time></trkpt><trkpt lat="42.688305" lon="-8.5690533"><ele>529.6666666666666</ele><time>2026-04-16T11:27:04.87Z</time></trkpt><trkpt lat="42.6884283" lon="-8.569255"><ele>531.0</ele><time>2026-04-16T11:27:05.871Z</time></trkpt><trkpt lat="42.6885467" lon="-8.5694883"><ele>531.5</ele><time>2026-04-16T11:27:06.87Z</time></trkpt><trkpt lat="42.688675" lon="-8.5697517"><ele>532.0</ele><time>2026-04-16T11:27:07.87Z</time></trkpt><trkpt lat="42.6888067" lon="-8.5700283"><ele>532.0</ele><time>2026-04-16T11:27:08.87Z</time></trkpt><trkpt lat="42.6889367" lon="-8.570325"><ele>532.0</ele><time>2026-04-16T11:27:09.871Z</time></trkpt><trkpt lat="42.6890733" lon="-8.5706417"><ele>534.0</ele><time>2026-04-16T11:27:10.871Z</time></trkpt><trkpt lat="42.6892033" lon="-8.57096"><ele>536.0</ele><time>2026-04-16T11:27:11.87Z</time></trkpt><trkpt lat="42.68933" lon="-8.5712883"><ele>535.3333333333333</ele><time>2026-04-16T11:27:12.87Z</time></trkpt><trkpt lat="42.6894417" lon="-8.5715767"><ele>534.6666666666666</ele><time>2026-04-16T11:27:13.87Z</time></trkpt><trkpt lat="42.6895417" lon="-8.571815"><ele>534.0</ele><time>2026-04-16T11:27:14.871Z</time></trkpt><trkpt lat="42.689615" lon="-8.5719883"><ele>534.2</ele><time>2026-04-16T11:27:15.87Z</time></trkpt><trkpt lat="42.6896617" lon="-8.572105"><ele>534.4</ele><time>2026-04-16T11:27:16.871Z</time></trkpt><trkpt lat="42.6896867" lon="-8.5722283"><ele>534.6</ele><time>2026-04-16T11:27:18.871Z</time></trkpt><trkpt lat="42.6896433" lon="-8.5723317"><ele>534.8</ele><time>2026-04-16T11:27:20.871Z</time></trkpt><trkpt lat="42.6896183" lon="-8.572425"><ele>535.0</ele><time>2026-04-16T11:27:21.871Z</time></trkpt><trkpt lat="42.6896017" lon="-8.5725617"><ele>535.0</ele><time>2026-04-16T11:27:22.87Z</time></trkpt><trkpt lat="42.68959" lon="-8.57272"><ele>535.0</ele><time>2026-04-16T11:27:23.87Z</time></trkpt><trkpt lat="42.6895717" lon="-8.5728883"><ele>535.0</ele><time>2026-04-16T11:27:24.87Z</time></trkpt><trkpt lat="42.6895383" lon="-8.5730583"><ele>535.0</ele><time>2026-04-16T11:27:25.87Z</time></trkpt><trkpt lat="42.6895067" lon="-8.5732483"><ele>535.25</ele><time>2026-04-16T11:27:26.871Z</time></trkpt><trkpt lat="42.68947" lon="-8.5734183"><ele>535.5</ele><time>2026-04-16T11:27:27.871Z</time></trkpt><trkpt lat="42.68942" lon="-8.5735733"><ele>535.75</ele><time>2026-04-16T11:27:28.871Z</time></trkpt><trkpt lat="42.6893567" lon="-8.5737167"><ele>536.0</ele><time>2026-04-16T11:27:29.87Z</time></trkpt><trkpt lat="42.6892867" lon="-8.5738517"><ele>538.8</ele><time>2026-04-16T11:27:30.87Z</time></trkpt><trkpt lat="42.68922" lon="-8.5739533"><ele>541.6</ele><time>2026-04-16T11:27:31.871Z</time></trkpt><trkpt lat="42.6891667" lon="-8.5740433"><ele>544.4</ele><time>2026-04-16T11:27:32.87Z</time></trkpt><trkpt lat="42.689145" lon="-8.574125"><ele>547.2</ele><time>2026-04-16T11:27:33.87Z</time></trkpt><trkpt lat="42.6891683" lon="-8.5743033"><ele>550.0</ele><time>2026-04-16T11:27:35.87Z</time></trkpt><trkpt lat="42.6892333" lon="-8.5743933"><ele>550.0</ele><time>2026-04-16T11:27:36.871Z</time></trkpt><trkpt lat="42.6892983" lon="-8.5744933"><ele>550.0</ele><time>2026-04-16T11:27:37.871Z</time></trkpt><trkpt lat="42.6893317" lon="-8.5745967"><ele>550.0</ele><time>2026-04-16T11:27:38.871Z</time></trkpt><trkpt lat="42.6893483" lon="-8.5746983"><ele>550.0</ele><time>2026-04-16T11:27:39.87Z</time></trkpt><trkpt lat="42.6893217" lon="-8.5748033"><ele>550.0</ele><time>2026-04-16T11:27:40.87Z</time></trkpt><trkpt lat="42.689245" lon="-8.5749317"><ele>549.6666666666667</ele><time>2026-04-16T11:27:41.87Z</time></trkpt><trkpt lat="42.689085" lon="-8.5750817"><ele>549.3333333333334</ele><time>2026-04-16T11:27:42.87Z</time></trkpt><trkpt lat="42.6889167" lon="-8.5752267"><ele>549.0</ele><time>2026-04-16T11:27:43.871Z</time></trkpt><trkpt lat="42.6887517" lon="-8.5753617"><ele>549.0</ele><time>2026-04-16T11:27:44.87Z</time></trkpt><trkpt lat="42.6885983" lon="-8.5754617"><ele>549.0</ele><time>2026-04-16T11:27:45.871Z</time></trkpt><trkpt lat="42.6884783" lon="-8.575525"><ele>549.0</ele><time>2026-04-16T11:27:46.871Z</time></trkpt><trkpt lat="42.6883483" lon="-8.5755567"><ele>549.0</ele><time>2026-04-16T11:27:47.871Z</time></trkpt><trkpt lat="42.6882417" lon="-8.5755367"><ele>552.5</ele><time>2026-04-16T11:27:48.87Z</time></trkpt><trkpt lat="42.6881633" lon="-8.5754633"><ele>556.0</ele><time>2026-04-16T11:27:49.871Z</time></trkpt><trkpt lat="42.6881033" lon="-8.5753483"><ele>559.5</ele><time>2026-04-16T11:27:50.871Z</time></trkpt><trkpt lat="42.68803" lon="-8.5752167"><ele>563.0</ele><time>2026-04-16T11:27:51.87Z</time></trkpt><trkpt lat="42.68794" lon="-8.575065"><ele>563.0</ele><time>2026-04-16T11:27:52.87Z</time></trkpt><trkpt lat="42.6878517" lon="-8.5749317"><ele>563.0</ele><time>2026-04-16T11:27:53.871Z</time></trkpt><trkpt lat="42.68775" lon="-8.5748333"><ele>563.0</ele><time>2026-04-16T11:27:54.87Z</time></trkpt><trkpt lat="42.6876117" lon="-8.5747467"><ele>563.0</ele><time>2026-04-16T11:27:55.87Z</time></trkpt><trkpt lat="42.68747" lon="-8.5746433"><ele>567.0</ele><time>2026-04-16T11:27:56.87Z</time></trkpt><trkpt lat="42.687315" lon="-8.5745133"><ele>571.0</ele><time>2026-04-16T11:27:57.87Z</time></trkpt><trkpt lat="42.687165" lon="-8.5743833"><ele>575.0</ele><time>2026-04-16T11:27:58.871Z</time></trkpt><trkpt lat="42.6870267" lon="-8.5742667"><ele>577.5</ele><time>2026-04-16T11:27:59.87Z</time></trkpt><trkpt lat="42.6868933" lon="-8.574155"><ele>580.0</ele><time>2026-04-16T11:28:00.87Z</time></trkpt><trkpt lat="42.686775" lon="-8.5740467"><ele>582.5</ele><time>2026-04-16T11:28:01.87Z</time></trkpt><trkpt lat="42.6866583" lon="-8.57392"><ele>585.0</ele><time>2026-04-16T11:28:02.87Z</time></trkpt><trkpt lat="42.6865283" lon="-8.5737783"><ele>585.3333333333334</ele><time>2026-04-16T11:28:03.87Z</time></trkpt><trkpt lat="42.686395" lon="-8.573625"><ele>585.6666666666667</ele><time>2026-04-16T11:28:04.87Z</time></trkpt><trkpt lat="42.6862767" lon="-8.5734983"><ele>586.0</ele><time>2026-04-16T11:28:05.871Z</time></trkpt><trkpt lat="42.686145" lon="-8.5734067"><ele>586.1666666666667</ele><time>2026-04-16T11:28:06.87Z</time></trkpt><trkpt lat="42.686035" lon="-8.57336"><ele>586.3333333333334</ele><time>2026-04-16T11:28:07.87Z</time></trkpt><trkpt lat="42.68596" lon="-8.57333"><ele>586.5</ele><time>2026-04-16T11:28:08.87Z</time></trkpt><trkpt lat="42.685925" lon="-8.5734117"><ele>586.6666666666666</ele><time>2026-04-16T11:28:12.87Z</time></trkpt><trkpt lat="42.68596" lon="-8.5735"><ele>586.8333333333333</ele><time>2026-04-16T11:28:13.87Z</time></trkpt><trkpt lat="42.686015" lon="-8.5736133"><ele>587.0</ele><time>2026-04-16T11:28:14.871Z</time></trkpt><trkpt lat="42.6860783" lon="-8.57376"><ele>586.5</ele><time>2026-04-16T11:28:15.87Z</time></trkpt><trkpt lat="42.686135" lon="-8.5739283"><ele>586.0</ele><time>2026-04-16T11:28:16.871Z</time></trkpt><trkpt lat="42.6861967" lon="-8.5741117"><ele>585.5</ele><time>2026-04-16T11:28:17.871Z</time></trkpt><trkpt lat="42.686255" lon="-8.5742867"><ele>585.0</ele><time>2026-04-16T11:28:18.871Z</time></trkpt><trkpt lat="42.68631" lon="-8.57445"><ele>586.25</ele><time>2026-04-16T11:28:19.871Z</time></trkpt><trkpt lat="42.6863567" lon="-8.5746067"><ele>587.5</ele><time>2026-04-16T11:28:20.87Z</time></trkpt><trkpt lat="42.6864017" lon="-8.5747783"><ele>588.75</ele><time>2026-04-16T11:28:21.87Z</time></trkpt><trkpt lat="42.686455" lon="-8.574965"><ele>590.0</ele><time>2026-04-16T11:28:22.87Z</time></trkpt><trkpt lat="42.6865033" lon="-8.575165"><ele>590.0</ele><time>2026-04-16T11:28:23.87Z</time></trkpt><trkpt lat="42.6865567" lon="-8.5753533"><ele>590.0</ele><time>2026-04-16T11:28:24.871Z</time></trkpt><trkpt lat="42.6866167" lon="-8.5755367"><ele>590.0</ele><time>2026-04-16T11:28:25.87Z</time></trkpt><trkpt lat="42.6866733" lon="-8.575695"><ele>590.0</ele><time>2026-04-16T11:28:26.87Z</time></trkpt><trkpt lat="42.6867283" lon="-8.57582"><ele>591.4</ele><time>2026-04-16T11:28:27.871Z</time></trkpt><trkpt lat="42.6867617" lon="-8.5759167"><ele>592.8</ele><time>2026-04-16T11:28:28.871Z</time></trkpt><trkpt lat="42.6867833" lon="-8.5760167"><ele>594.2</ele><time>2026-04-16T11:28:30.87Z</time></trkpt><trkpt lat="42.6866783" lon="-8.5760383"><ele>595.6</ele><time>2026-04-16T11:28:32.871Z</time></trkpt><trkpt lat="42.686585" lon="-8.5760567"><ele>597.0</ele><time>2026-04-16T11:28:33.87Z</time></trkpt><trkpt lat="42.6864733" lon="-8.57607"><ele>597.0</ele><time>2026-04-16T11:28:34.871Z</time></trkpt><trkpt lat="42.6863333" lon="-8.5760883"><ele>597.0</ele><time>2026-04-16T11:28:35.87Z</time></trkpt><trkpt lat="42.6861817" lon="-8.5761133"><ele>597.0</ele><time>2026-04-16T11:28:36.871Z</time></trkpt><trkpt lat="42.6860233" lon="-8.576145"><ele>603.3333333333334</ele><time>2026-04-16T11:28:37.87Z</time></trkpt><trkpt lat="42.6858283" lon="-8.5761867"><ele>609.6666666666667</ele><time>2026-04-16T11:28:38.87Z</time></trkpt><trkpt lat="42.6856117" lon="-8.57622"><ele>616.0</ele><time>2026-04-16T11:28:39.87Z</time></trkpt><trkpt lat="42.6854" lon="-8.576245"><ele>616.6666666666667</ele><time>2026-04-16T11:28:40.87Z</time></trkpt><trkpt lat="42.6851983" lon="-8.5762983"><ele>617.3333333333334</ele><time>2026-04-16T11:28:41.87Z</time></trkpt><trkpt lat="42.68503" lon="-8.57635"><ele>618.0</ele><time>2026-04-16T11:28:42.87Z</time></trkpt><trkpt lat="42.6848817" lon="-8.5763983"><ele>618.0</ele><time>2026-04-16T11:28:43.87Z</time></trkpt><trkpt lat="42.684745" lon="-8.5764433"><ele>618.0</ele><time>2026-04-16T11:28:44.871Z</time></trkpt><trkpt lat="42.6846133" lon="-8.5764833"><ele>618.0</ele><time>2026-04-16T11:28:45.87Z</time></trkpt><trkpt lat="42.6844717" lon="-8.5765383"><ele>618.0</ele><time>2026-04-16T11:28:46.871Z</time></trkpt><trkpt lat="42.68434" lon="-8.5766167"><ele>620.3333333333334</ele><time>2026-04-16T11:28:47.871Z</time></trkpt><trkpt lat="42.684205" lon="-8.5767267"><ele>622.6666666666667</ele><time>2026-04-16T11:28:48.87Z</time></trkpt><trkpt lat="42.6840833" lon="-8.5768817"><ele>625.0</ele><time>2026-04-16T11:28:49.87Z</time></trkpt><trkpt lat="42.6839783" lon="-8.5770733"><ele>625.0</ele><time>2026-04-16T11:28:50.871Z</time></trkpt><trkpt lat="42.6838833" lon="-8.5772667"><ele>625.0</ele><time>2026-04-16T11:28:51.871Z</time></trkpt><trkpt lat="42.683795" lon="-8.577475"><ele>625.0</ele><time>2026-04-16T11:28:52.871Z</time></trkpt><trkpt lat="42.68369" lon="-8.57769"><ele>621.0</ele><time>2026-04-16T11:28:53.871Z</time></trkpt><trkpt lat="42.683585" lon="-8.5778883"><ele>617.0</ele><time>2026-04-16T11:28:54.87Z</time></trkpt><trkpt lat="42.6834817" lon="-8.57806"><ele>613.0</ele><time>2026-04-16T11:28:55.87Z</time></trkpt><trkpt lat="42.6833833" lon="-8.5782533"><ele>613.0</ele><time>2026-04-16T11:28:56.87Z</time></trkpt><trkpt lat="42.6833" lon="-8.5784533"><ele>613.0</ele><time>2026-04-16T11:28:57.871Z</time></trkpt><trkpt lat="42.68323" lon="-8.5786367"><ele>613.0</ele><time>2026-04-16T11:28:58.871Z</time></trkpt><trkpt lat="42.6831833" lon="-8.5787933"><ele>613.0</ele><time>2026-04-16T11:28:59.871Z</time></trkpt><trkpt lat="42.6831433" lon="-8.57896"><ele>614.75</ele><time>2026-04-16T11:29:00.871Z</time></trkpt><trkpt lat="42.683115" lon="-8.5791683"><ele>616.5</ele><time>2026-04-16T11:29:01.87Z</time></trkpt><trkpt lat="42.6830933" lon="-8.5793767"><ele>618.25</ele><time>2026-04-16T11:29:02.871Z</time></trkpt><trkpt lat="42.683085" lon="-8.57956"><ele>620.0</ele><time>2026-04-16T11:29:03.87Z</time></trkpt><trkpt lat="42.68306" lon="-8.5797"><ele>620.75</ele><time>2026-04-16T11:29:04.87Z</time></trkpt><trkpt lat="42.6830183" lon="-8.5798183"><ele>621.5</ele><time>2026-04-16T11:29:05.87Z</time></trkpt><trkpt lat="42.6829383" lon="-8.5799417"><ele>622.25</ele><time>2026-04-16T11:29:06.87Z</time></trkpt><trkpt lat="42.682845" lon="-8.5800667"><ele>623.0</ele><time>2026-04-16T11:29:07.871Z</time></trkpt><trkpt lat="42.6827517" lon="-8.58017"><ele>621.4</ele><time>2026-04-16T11:29:08.871Z</time></trkpt><trkpt lat="42.6826483" lon="-8.5802167"><ele>619.8</ele><time>2026-04-16T11:29:09.871Z</time></trkpt><trkpt lat="42.6825633" lon="-8.5802533"><ele>618.2</ele><time>2026-04-16T11:29:10.87Z</time></trkpt><trkpt lat="42.68248" lon="-8.5803083"><ele>616.6</ele><time>2026-04-16T11:29:11.87Z</time></trkpt><trkpt lat="42.6824117" lon="-8.5803817"><ele>615.0</ele><time>2026-04-16T11:29:12.871Z</time></trkpt><trkpt lat="42.6823367" lon="-8.58047"><ele>615.0</ele><time>2026-04-16T11:29:13.87Z</time></trkpt><trkpt lat="42.682245" lon="-8.5805917"><ele>615.0</ele><time>2026-04-16T11:29:14.87Z</time></trkpt><trkpt lat="42.6821167" lon="-8.5807317"><ele>615.0</ele><time>2026-04-16T11:29:15.87Z</time></trkpt><trkpt lat="42.68196" lon="-8.5808683"><ele>612.0</ele><time>2026-04-16T11:29:16.871Z</time></trkpt><trkpt lat="42.6817967" lon="-8.5810083"><ele>609.0</ele><time>2026-04-16T11:29:17.871Z</time></trkpt><trkpt lat="42.6816333" lon="-8.5811367"><ele>606.0</ele><time>2026-04-16T11:29:18.87Z</time></trkpt><trkpt lat="42.6814867" lon="-8.5812467"><ele>604.0</ele><time>2026-04-16T11:29:19.871Z</time></trkpt><trkpt lat="42.681355" lon="-8.5813467"><ele>602.0</ele><time>2026-04-16T11:29:20.87Z</time></trkpt><trkpt lat="42.6812483" lon="-8.58145"><ele>600.0</ele><time>2026-04-16T11:29:21.871Z</time></trkpt><trkpt lat="42.6811617" lon="-8.5815967"><ele>598.0</ele><time>2026-04-16T11:29:22.871Z</time></trkpt><trkpt lat="42.6810967" lon="-8.5817917"><ele>598.0</ele><time>2026-04-16T11:29:23.871Z</time></trkpt><trkpt lat="42.6810367" lon="-8.581995"><ele>598.0</ele><time>2026-04-16T11:29:24.87Z</time></trkpt><trkpt lat="42.6809783" lon="-8.5821817"><ele>598.0</ele><time>2026-04-16T11:29:25.871Z</time></trkpt><trkpt lat="42.680935" lon="-8.5823433"><ele>598.0</ele><time>2026-04-16T11:29:26.871Z</time></trkpt><trkpt lat="42.6809017" lon="-8.5825017"><ele>598.25</ele><time>2026-04-16T11:29:27.87Z</time></trkpt><trkpt lat="42.680875" lon="-8.58267"><ele>598.5</ele><time>2026-04-16T11:29:28.871Z</time></trkpt><trkpt lat="42.680855" lon="-8.582865"><ele>598.75</ele><time>2026-04-16T11:29:29.871Z</time></trkpt><trkpt lat="42.68084" lon="-8.5830767"><ele>599.0</ele><time>2026-04-16T11:29:30.871Z</time></trkpt><trkpt lat="42.68081" lon="-8.5832767"><ele>598.3333333333333</ele><time>2026-04-16T11:29:31.871Z</time></trkpt><trkpt lat="42.6807783" lon="-8.5834917"><ele>597.6666666666666</ele><time>2026-04-16T11:29:32.87Z</time></trkpt><trkpt lat="42.6807333" lon="-8.5837167"><ele>597.0</ele><time>2026-04-16T11:29:33.87Z</time></trkpt><trkpt lat="42.6806917" lon="-8.5839783"><ele>596.3333333333334</ele><time>2026-04-16T11:29:34.87Z</time></trkpt><trkpt lat="42.6806383" lon="-8.5842717"><ele>595.6666666666667</ele><time>2026-04-16T11:29:35.871Z</time></trkpt><trkpt lat="42.68058" lon="-8.5845583"><ele>595.0</ele><time>2026-04-16T11:29:36.87Z</time></trkpt><trkpt lat="42.6805167" lon="-8.5848233"><ele>593.6666666666667</ele><time>2026-04-16T11:29:37.871Z</time></trkpt><trkpt lat="42.68044" lon="-8.585085"><ele>592.3333333333334</ele><time>2026-04-16T11:29:38.87Z</time></trkpt><trkpt lat="42.6803583" lon="-8.585325"><ele>591.0</ele><time>2026-04-16T11:29:39.87Z</time></trkpt><trkpt lat="42.680275" lon="-8.5855433"><ele>592.5</ele><time>2026-04-16T11:29:40.871Z</time></trkpt><trkpt lat="42.6802083" lon="-8.5857283"><ele>594.0</ele><time>2026-04-16T11:29:41.87Z</time></trkpt><trkpt lat="42.68018" lon="-8.5858833"><ele>595.5</ele><time>2026-04-16T11:29:42.87Z</time></trkpt><trkpt lat="42.680195" lon="-8.5860167"><ele>597.0</ele><time>2026-04-16T11:29:43.871Z</time></trkpt><trkpt lat="42.6802433" lon="-8.586135"><ele>593.75</ele><time>2026-04-16T11:29:44.87Z</time></trkpt><trkpt lat="42.6803117" lon="-8.586255"><ele>590.5</ele><time>2026-04-16T11:29:45.87Z</time></trkpt><trkpt lat="42.68041" lon="-8.5863867"><ele>587.25</ele><time>2026-04-16T11:29:46.871Z</time></trkpt><trkpt lat="42.68053" lon="-8.58653"><ele>584.0</ele><time>2026-04-16T11:29:47.871Z</time></trkpt><trkpt lat="42.6806383" lon="-8.5866817"><ele>584.0</ele><time>2026-04-16T11:29:48.871Z</time></trkpt><trkpt lat="42.6807433" lon="-8.5868333"><ele>584.0</ele><time>2026-04-16T11:29:49.871Z</time></trkpt><trkpt lat="42.68087" lon="-8.5869717"><ele>584.0</ele><time>2026-04-16T11:29:50.871Z</time></trkpt><trkpt lat="42.6810083" lon="-8.5870833"><ele>579.75</ele><time>2026-04-16T11:29:51.871Z</time></trkpt><trkpt lat="42.6811417" lon="-8.5871767"><ele>575.5</ele><time>2026-04-16T11:29:52.871Z</time></trkpt><trkpt lat="42.6812683" lon="-8.5872633"><ele>571.25</ele><time>2026-04-16T11:29:53.87Z</time></trkpt><trkpt lat="42.68137" lon="-8.5873617"><ele>567.0</ele><time>2026-04-16T11:29:54.87Z</time></trkpt><trkpt lat="42.6814483" lon="-8.5874717"><ele>567.0</ele><time>2026-04-16T11:29:55.87Z</time></trkpt><trkpt lat="42.6814967" lon="-8.5875783"><ele>567.0</ele><time>2026-04-16T11:29:56.871Z</time></trkpt><trkpt lat="42.6815317" lon="-8.5876883"><ele>567.0</ele><time>2026-04-16T11:29:57.871Z</time></trkpt><trkpt lat="42.6815517" lon="-8.5878317"><ele>567.0</ele><time>2026-04-16T11:29:58.871Z</time></trkpt><trkpt lat="42.681565" lon="-8.5880033"><ele>567.0</ele><time>2026-04-16T11:29:59.87Z</time></trkpt><trkpt lat="42.681565" lon="-8.5882033"><ele>565.0</ele><time>2026-04-16T11:30:00.871Z</time></trkpt><trkpt lat="42.6815783" lon="-8.58841"><ele>563.0</ele><time>2026-04-16T11:30:01.871Z</time></trkpt><trkpt lat="42.6815917" lon="-8.5885917"><ele>561.0</ele><time>2026-04-16T11:30:02.871Z</time></trkpt><trkpt lat="42.6816017" lon="-8.5887483"><ele>559.0</ele><time>2026-04-16T11:30:03.871Z</time></trkpt><trkpt lat="42.6816167" lon="-8.58886"><ele>559.0</ele><time>2026-04-16T11:30:04.87Z</time></trkpt><trkpt lat="42.6816467" lon="-8.5889717"><ele>559.0</ele><time>2026-04-16T11:30:06.87Z</time></trkpt><trkpt lat="42.6816383" lon="-8.588875"><ele>559.0</ele><time>2026-04-16T11:30:09.87Z</time></trkpt><trkpt lat="42.6816417" lon="-8.588785"><ele>559.0</ele><time>2026-04-16T11:30:10.87Z</time></trkpt><trkpt lat="42.6816483" lon="-8.5886917"><ele>559.0</ele><time>2026-04-16T11:30:11.87Z</time></trkpt><trkpt lat="42.681685" lon="-8.58856"><ele>559.0</ele><time>2026-04-16T11:30:12.87Z</time></trkpt><trkpt lat="42.681735" lon="-8.5884217"><ele>559.0</ele><time>2026-04-16T11:30:13.871Z</time></trkpt><trkpt lat="42.681795" lon="-8.58829"><ele>559.0</ele><time>2026-04-16T11:30:14.87Z</time></trkpt><trkpt lat="42.6818783" lon="-8.5881817"><ele>559.0</ele><time>2026-04-16T11:30:15.871Z</time></trkpt><trkpt lat="42.6819783" lon="-8.58811"><ele>559.0</ele><time>2026-04-16T11:30:16.87Z</time></trkpt><trkpt lat="42.68209" lon="-8.5880667"><ele>557.2</ele><time>2026-04-16T11:30:17.87Z</time></trkpt><trkpt lat="42.6821983" lon="-8.5880433"><ele>555.4</ele><time>2026-04-16T11:30:18.871Z</time></trkpt><trkpt lat="42.6822983" lon="-8.5880167"><ele>553.6</ele><time>2026-04-16T11:30:19.87Z</time></trkpt><trkpt lat="42.6823933" lon="-8.5879767"><ele>551.8</ele><time>2026-04-16T11:30:20.87Z</time></trkpt><trkpt lat="42.6824767" lon="-8.58792"><ele>550.0</ele><time>2026-04-16T11:30:21.87Z</time></trkpt><trkpt lat="42.68255" lon="-8.5878383"><ele>550.0</ele><time>2026-04-16T11:30:22.871Z</time></trkpt><trkpt lat="42.6826217" lon="-8.5877383"><ele>550.0</ele><time>2026-04-16T11:30:23.87Z</time></trkpt><trkpt lat="42.6826717" lon="-8.58763"><ele>550.0</ele><time>2026-04-16T11:30:24.87Z</time></trkpt><trkpt lat="42.6827167" lon="-8.5875067"><ele>550.0</ele><time>2026-04-16T11:30:25.871Z</time></trkpt><trkpt lat="42.682755" lon="-8.58739"><ele>550.0</ele><time>2026-04-16T11:30:26.871Z</time></trkpt><trkpt lat="42.6827833" lon="-8.5872583"><ele>544.25</ele><time>2026-04-16T11:30:27.871Z</time></trkpt><trkpt lat="42.682815" lon="-8.58711"><ele>538.5</ele><time>2026-04-16T11:30:28.87Z</time></trkpt><trkpt lat="42.682845" lon="-8.586955"><ele>532.75</ele><time>2026-04-16T11:30:29.87Z</time></trkpt><trkpt lat="42.6828767" lon="-8.5867833"><ele>527.0</ele><time>2026-04-16T11:30:30.871Z</time></trkpt><trkpt lat="42.6829083" lon="-8.5865983"><ele>527.0</ele><time>2026-04-16T11:30:31.87Z</time></trkpt><trkpt lat="42.68294" lon="-8.5863967"><ele>527.0</ele><time>2026-04-16T11:30:32.87Z</time></trkpt><trkpt lat="42.6829717" lon="-8.58619"><ele>527.0</ele><time>2026-04-16T11:30:33.87Z</time></trkpt><trkpt lat="42.6830017" lon="-8.5859733"><ele>528.8000000000001</ele><time>2026-04-16T11:30:34.87Z</time></trkpt><trkpt lat="42.68303" lon="-8.5857833"><ele>530.6</ele><time>2026-04-16T11:30:35.871Z</time></trkpt><trkpt lat="42.6830517" lon="-8.585625"><ele>532.4000000000001</ele><time>2026-04-16T11:30:36.87Z</time></trkpt><trkpt lat="42.6830717" lon="-8.5855033"><ele>534.2</ele><time>2026-04-16T11:30:37.871Z</time></trkpt><trkpt lat="42.6830933" lon="-8.5854217"><ele>536.0</ele><time>2026-04-16T11:30:38.871Z</time></trkpt><trkpt lat="42.6831783" lon="-8.585375"><ele>536.0</ele><time>2026-04-16T11:30:40.87Z</time></trkpt><trkpt lat="42.6832433" lon="-8.5854333"><ele>536.0</ele><time>2026-04-16T11:30:41.87Z</time></trkpt><trkpt lat="42.6833167" lon="-8.5855483"><ele>536.0</ele><time>2026-04-16T11:30:42.87Z</time></trkpt><trkpt lat="42.6834017" lon="-8.5856917"><ele>536.0</ele><time>2026-04-16T11:30:43.871Z</time></trkpt><trkpt lat="42.6834983" lon="-8.5858483"><ele>536.0</ele><time>2026-04-16T11:30:44.871Z</time></trkpt><trkpt lat="42.68358" lon="-8.585985"><ele>536.0</ele><time>2026-04-16T11:30:45.871Z</time></trkpt><trkpt lat="42.6836633" lon="-8.5860983"><ele>536.0</ele><time>2026-04-16T11:30:46.87Z</time></trkpt><trkpt lat="42.68376" lon="-8.5861833"><ele>536.0</ele><time>2026-04-16T11:30:47.871Z</time></trkpt><trkpt lat="42.6838683" lon="-8.5862683"><ele>530.5</ele><time>2026-04-16T11:30:48.871Z</time></trkpt><trkpt lat="42.6839833" lon="-8.5863467"><ele>525.0</ele><time>2026-04-16T11:30:49.871Z</time></trkpt><trkpt lat="42.6841083" lon="-8.58643"><ele>519.5</ele><time>2026-04-16T11:30:50.871Z</time></trkpt><trkpt lat="42.6842317" lon="-8.5865283"><ele>514.0</ele><time>2026-04-16T11:30:51.871Z</time></trkpt><trkpt lat="42.6843417" lon="-8.5866267"><ele>511.0</ele><time>2026-04-16T11:30:52.87Z</time></trkpt><trkpt lat="42.6844517" lon="-8.5867"><ele>508.0</ele><time>2026-04-16T11:30:53.87Z</time></trkpt><trkpt lat="42.68456" lon="-8.586735"><ele>505.0</ele><time>2026-04-16T11:30:54.87Z</time></trkpt><trkpt lat="42.6846817" lon="-8.586715"><ele>502.0</ele><time>2026-04-16T11:30:55.87Z</time></trkpt><trkpt lat="42.6848217" lon="-8.58667"><ele>502.0</ele><time>2026-04-16T11:30:56.871Z</time></trkpt><trkpt lat="42.6849617" lon="-8.5866133"><ele>502.0</ele><time>2026-04-16T11:30:57.871Z</time></trkpt><trkpt lat="42.685075" lon="-8.5865483"><ele>502.0</ele><time>2026-04-16T11:30:58.87Z</time></trkpt><trkpt lat="42.6851583" lon="-8.5864467"><ele>502.0</ele><time>2026-04-16T11:30:59.871Z</time></trkpt><trkpt lat="42.6852317" lon="-8.5863133"><ele>505.0</ele><time>2026-04-16T11:31:00.871Z</time></trkpt><trkpt lat="42.6853083" lon="-8.5861517"><ele>508.0</ele><time>2026-04-16T11:31:01.871Z</time></trkpt><trkpt lat="42.6853767" lon="-8.5860083"><ele>511.0</ele><time>2026-04-16T11:31:02.87Z</time></trkpt><trkpt lat="42.68545" lon="-8.5859217"><ele>514.0</ele><time>2026-04-16T11:31:03.87Z</time></trkpt><trkpt lat="42.68554" lon="-8.5858767"><ele>514.0</ele><time>2026-04-16T11:31:04.87Z</time></trkpt><trkpt lat="42.6856567" lon="-8.5858733"><ele>514.0</ele><time>2026-04-16T11:31:05.871Z</time></trkpt><trkpt lat="42.685805" lon="-8.5859017"><ele>514.0</ele><time>2026-04-16T11:31:06.871Z</time></trkpt><trkpt lat="42.6859783" lon="-8.5859533"><ele>514.0</ele><time>2026-04-16T11:31:07.87Z</time></trkpt><trkpt lat="42.686165" lon="-8.5860083"><ele>514.3333333333334</ele><time>2026-04-16T11:31:08.871Z</time></trkpt><trkpt lat="42.6863483" lon="-8.5860617"><ele>514.6666666666666</ele><time>2026-04-16T11:31:09.871Z</time></trkpt><trkpt lat="42.6865083" lon="-8.5860983"><ele>515.0</ele><time>2026-04-16T11:31:10.87Z</time></trkpt><trkpt lat="42.686665" lon="-8.5861183"><ele>515.0</ele><time>2026-04-16T11:31:11.87Z</time></trkpt><trkpt lat="42.6868417" lon="-8.5861417"><ele>515.0</ele><time>2026-04-16T11:31:12.871Z</time></trkpt><trkpt lat="42.6870233" lon="-8.586165"><ele>515.0</ele><time>2026-04-16T11:31:13.871Z</time></trkpt><trkpt lat="42.6872017" lon="-8.5861767"><ele>511.3333333333333</ele><time>2026-04-16T11:31:14.871Z</time></trkpt><trkpt lat="42.68737" lon="-8.5861883"><ele>507.66666666666663</ele><time>2026-04-16T11:31:15.87Z</time></trkpt><trkpt lat="42.6875317" lon="-8.58615"><ele>504.0</ele><time>2026-04-16T11:31:16.871Z</time></trkpt><trkpt lat="42.6876683" lon="-8.5860717"><ele>499.5</ele><time>2026-04-16T11:31:17.87Z</time></trkpt><trkpt lat="42.6877783" lon="-8.585975"><ele>495.0</ele><time>2026-04-16T11:31:18.871Z</time></trkpt><trkpt lat="42.687875" lon="-8.5858433"><ele>490.5</ele><time>2026-04-16T11:31:19.871Z</time></trkpt><trkpt lat="42.6879583" lon="-8.5856633"><ele>486.0</ele><time>2026-04-16T11:31:20.871Z</time></trkpt><trkpt lat="42.6880417" lon="-8.5854567"><ele>490.0</ele><time>2026-04-16T11:31:21.871Z</time></trkpt><trkpt lat="42.6881267" lon="-8.5852483"><ele>494.0</ele><time>2026-04-16T11:31:22.871Z</time></trkpt><trkpt lat="42.68822" lon="-8.5850333"><ele>498.0</ele><time>2026-04-16T11:31:23.871Z</time></trkpt><trkpt lat="42.6883217" lon="-8.5847967"><ele>498.0</ele><time>2026-04-16T11:31:24.87Z</time></trkpt><trkpt lat="42.688425" lon="-8.584565"><ele>498.0</ele><time>2026-04-16T11:31:25.87Z</time></trkpt><trkpt lat="42.688525" lon="-8.5843267"><ele>498.0</ele><time>2026-04-16T11:31:26.87Z</time></trkpt><trkpt lat="42.68864" lon="-8.58407"><ele>494.5</ele><time>2026-04-16T11:31:27.87Z</time></trkpt><trkpt lat="42.6887733" lon="-8.583795"><ele>491.0</ele><time>2026-04-16T11:31:28.87Z</time></trkpt><trkpt lat="42.6888867" lon="-8.5835317"><ele>491.0</ele><time>2026-04-16T11:31:29.87Z</time></trkpt><trkpt lat="42.6890017" lon="-8.5832933"><ele>491.0</ele><time>2026-04-16T11:31:30.87Z</time></trkpt><trkpt lat="42.6891033" lon="-8.5830717"><ele>491.0</ele><time>2026-04-16T11:31:31.871Z</time></trkpt><trkpt lat="42.6891967" lon="-8.58287"><ele>493.3333333333333</ele><time>2026-04-16T11:31:32.87Z</time></trkpt><trkpt lat="42.6892667" lon="-8.5826733"><ele>495.66666666666663</ele><time>2026-04-16T11:31:33.871Z</time></trkpt><trkpt lat="42.6893217" lon="-8.5824183"><ele>498.0</ele><time>2026-04-16T11:31:34.871Z</time></trkpt><trkpt lat="42.68938" lon="-8.5821433"><ele>493.0</ele><time>2026-04-16T11:31:35.87Z</time></trkpt><trkpt lat="42.6894483" lon="-8.5818733"><ele>488.0</ele><time>2026-04-16T11:31:36.87Z</time></trkpt><trkpt lat="42.6895317" lon="-8.5816417"><ele>483.0</ele><time>2026-04-16T11:31:37.871Z</time></trkpt><trkpt lat="42.689635" lon="-8.5814533"><ele>483.0</ele><time>2026-04-16T11:31:38.871Z</time></trkpt><trkpt lat="42.6897633" lon="-8.58129"><ele>483.0</ele><time>2026-04-16T11:31:39.87Z</time></trkpt><trkpt lat="42.689905" lon="-8.5811433"><ele>483.0</ele><time>2026-04-16T11:31:40.871Z</time></trkpt><trkpt lat="42.6900367" lon="-8.5810217"><ele>484.25</ele><time>2026-04-16T11:31:41.871Z</time></trkpt><trkpt lat="42.6901583" lon="-8.5809367"><ele>485.5</ele><time>2026-04-16T11:31:42.871Z</time></trkpt><trkpt lat="42.6902633" lon="-8.5808417"><ele>486.75</ele><time>2026-04-16T11:31:43.87Z</time></trkpt><trkpt lat="42.6903467" lon="-8.5807217"><ele>488.0</ele><time>2026-04-16T11:31:44.871Z</time></trkpt><trkpt lat="42.69042" lon="-8.580565"><ele>488.0</ele><time>2026-04-16T11:31:45.87Z</time></trkpt><trkpt lat="42.6904717" lon="-8.580385"><ele>488.0</ele><time>2026-04-16T11:31:46.87Z</time></trkpt><trkpt lat="42.6905133" lon="-8.5801667"><ele>488.0</ele><time>2026-04-16T11:31:47.87Z</time></trkpt><trkpt lat="42.6905667" lon="-8.5799267"><ele>490.66666666666663</ele><time>2026-04-16T11:31:48.87Z</time></trkpt><trkpt lat="42.6906283" lon="-8.5796567"><ele>493.33333333333337</ele><time>2026-04-16T11:31:49.87Z</time></trkpt><trkpt lat="42.6906983" lon="-8.5793783"><ele>496.0</ele><time>2026-04-16T11:31:50.871Z</time></trkpt><trkpt lat="42.6907783" lon="-8.5791167"><ele>498.33333333333337</ele><time>2026-04-16T11:31:51.87Z</time></trkpt><trkpt lat="42.6908417" lon="-8.5788667"><ele>500.66666666666663</ele><time>2026-04-16T11:31:52.871Z</time></trkpt><trkpt lat="42.6908967" lon="-8.5786083"><ele>503.0</ele><time>2026-04-16T11:31:53.871Z</time></trkpt><trkpt lat="42.690935" lon="-8.5783433"><ele>506.0</ele><time>2026-04-16T11:31:54.871Z</time></trkpt><trkpt lat="42.69096" lon="-8.5780883"><ele>509.0</ele><time>2026-04-16T11:31:55.87Z</time></trkpt><trkpt lat="42.690955" lon="-8.57786"><ele>512.0</ele><time>2026-04-16T11:31:56.87Z</time></trkpt><trkpt lat="42.690945" lon="-8.5776467"><ele>512.6</ele><time>2026-04-16T11:31:57.87Z</time></trkpt><trkpt lat="42.6909467" lon="-8.5774617"><ele>513.2</ele><time>2026-04-16T11:31:58.871Z</time></trkpt><trkpt lat="42.6909767" lon="-8.57733"><ele>513.8</ele><time>2026-04-16T11:31:59.87Z</time></trkpt><trkpt lat="42.6910183" lon="-8.5772317"><ele>514.4</ele><time>2026-04-16T11:32:00.871Z</time></trkpt><trkpt lat="42.6910683" lon="-8.5771733"><ele>515.0</ele><time>2026-04-16T11:32:01.87Z</time></trkpt><trkpt lat="42.6911617" lon="-8.57715"><ele>513.5</ele><time>2026-04-16T11:32:02.871Z</time></trkpt><trkpt lat="42.6912883" lon="-8.5771683"><ele>512.0</ele><time>2026-04-16T11:32:03.87Z</time></trkpt><trkpt lat="42.6914283" lon="-8.5772433"><ele>510.5</ele><time>2026-04-16T11:32:04.87Z</time></trkpt><trkpt lat="42.6915783" lon="-8.5773283"><ele>509.0</ele><time>2026-04-16T11:32:05.871Z</time></trkpt><trkpt lat="42.69173" lon="-8.577425"><ele>509.0</ele><time>2026-04-16T11:32:06.87Z</time></trkpt><trkpt lat="42.6918833" lon="-8.577515"><ele>509.0</ele><time>2026-04-16T11:32:07.871Z</time></trkpt><trkpt lat="42.6920183" lon="-8.577595"><ele>509.0</ele><time>2026-04-16T11:32:08.871Z</time></trkpt><trkpt lat="42.6921383" lon="-8.5776717"><ele>509.0</ele><time>2026-04-16T11:32:09.87Z</time></trkpt><trkpt lat="42.6922433" lon="-8.577755"><ele>506.25</ele><time>2026-04-16T11:32:10.871Z</time></trkpt><trkpt lat="42.692335" lon="-8.5778633"><ele>503.5</ele><time>2026-04-16T11:32:11.87Z</time></trkpt><trkpt lat="42.69243" lon="-8.5779883"><ele>500.75</ele><time>2026-04-16T11:32:12.87Z</time></trkpt><trkpt lat="42.692525" lon="-8.57812"><ele>498.0</ele><time>2026-04-16T11:32:13.87Z</time></trkpt><trkpt lat="42.6926333" lon="-8.5782617"><ele>498.0</ele><time>2026-04-16T11:32:14.871Z</time></trkpt><trkpt lat="42.6927467" lon="-8.578415"><ele>498.0</ele><time>2026-04-16T11:32:15.87Z</time></trkpt><trkpt lat="42.6928583" lon="-8.57858"><ele>498.0</ele><time>2026-04-16T11:32:16.87Z</time></trkpt><trkpt lat="42.6929617" lon="-8.57873"><ele>495.75</ele><time>2026-04-16T11:32:17.87Z</time></trkpt><trkpt lat="42.69304" lon="-8.57889"><ele>493.5</ele><time>2026-04-16T11:32:18.87Z</time></trkpt><trkpt lat="42.6930983" lon="-8.579065"><ele>491.25</ele><time>2026-04-16T11:32:19.87Z</time></trkpt><trkpt lat="42.69315" lon="-8.57927"><ele>489.0</ele><time>2026-04-16T11:32:20.87Z</time></trkpt><trkpt lat="42.6932033" lon="-8.5794867"><ele>487.0</ele><time>2026-04-16T11:32:21.87Z</time></trkpt><trkpt lat="42.693255" lon="-8.5797033"><ele>485.0</ele><time>2026-04-16T11:32:22.87Z</time></trkpt><trkpt lat="42.6933233" lon="-8.5798933"><ele>483.0</ele><time>2026-04-16T11:32:23.87Z</time></trkpt><trkpt lat="42.693405" lon="-8.5800933"><ele>483.0</ele><time>2026-04-16T11:32:24.871Z</time></trkpt><trkpt lat="42.6934983" lon="-8.5803067"><ele>483.0</ele><time>2026-04-16T11:32:25.87Z</time></trkpt><trkpt lat="42.6935967" lon="-8.5805433"><ele>483.0</ele><time>2026-04-16T11:32:26.871Z</time></trkpt><trkpt lat="42.6936867" lon="-8.5807917"><ele>484.33333333333337</ele><time>2026-04-16T11:32:27.871Z</time></trkpt><trkpt lat="42.693775" lon="-8.581055"><ele>485.6666666666667</ele><time>2026-04-16T11:32:28.871Z</time></trkpt><trkpt lat="42.693865" lon="-8.5813267"><ele>487.0</ele><time>2026-04-16T11:32:29.871Z</time></trkpt><trkpt lat="42.6939583" lon="-8.581585"><ele>482.0</ele><time>2026-04-16T11:32:30.871Z</time></trkpt><trkpt lat="42.69406" lon="-8.581815"><ele>477.0</ele><time>2026-04-16T11:32:31.871Z</time></trkpt><trkpt lat="42.6941567" lon="-8.582025"><ele>472.0</ele><time>2026-04-16T11:32:32.87Z</time></trkpt><trkpt lat="42.694265" lon="-8.5822183"><ele>471.6666666666667</ele><time>2026-04-16T11:32:33.871Z</time></trkpt><trkpt lat="42.6943917" lon="-8.5823783"><ele>471.33333333333337</ele><time>2026-04-16T11:32:34.87Z</time></trkpt><trkpt lat="42.6945617" lon="-8.582515"><ele>471.0</ele><time>2026-04-16T11:32:35.871Z</time></trkpt><trkpt lat="42.6947283" lon="-8.5826517"><ele>471.0</ele><time>2026-04-16T11:32:36.871Z</time></trkpt><trkpt lat="42.6948917" lon="-8.58278"><ele>471.0</ele><time>2026-04-16T11:32:37.871Z</time></trkpt><trkpt lat="42.6950683" lon="-8.5829033"><ele>471.0</ele><time>2026-04-16T11:32:38.871Z</time></trkpt><trkpt lat="42.6952583" lon="-8.5829917"><ele>467.33333333333337</ele><time>2026-04-16T11:32:39.871Z</time></trkpt><trkpt lat="42.6954567" lon="-8.5830633"><ele>463.6666666666667</ele><time>2026-04-16T11:32:40.87Z</time></trkpt><trkpt lat="42.69564" lon="-8.5831067"><ele>460.0</ele><time>2026-04-16T11:32:41.871Z</time></trkpt><trkpt lat="42.6958067" lon="-8.5831767"><ele>460.0</ele><time>2026-04-16T11:32:42.871Z</time></trkpt><trkpt lat="42.695975" lon="-8.5832733"><ele>460.0</ele><time>2026-04-16T11:32:43.871Z</time></trkpt><trkpt lat="42.6961433" lon="-8.5834117"><ele>460.0</ele><time>2026-04-16T11:32:44.871Z</time></trkpt><trkpt lat="42.696315" lon="-8.5835767"><ele>458.6666666666667</ele><time>2026-04-16T11:32:45.87Z</time></trkpt><trkpt lat="42.6964883" lon="-8.58376"><ele>457.33333333333337</ele><time>2026-04-16T11:32:46.871Z</time></trkpt><trkpt lat="42.696665" lon="-8.58394"><ele>456.0</ele><time>2026-04-16T11:32:47.87Z</time></trkpt><trkpt lat="42.696825" lon="-8.584115"><ele>453.33333333333337</ele><time>2026-04-16T11:32:48.87Z</time></trkpt><trkpt lat="42.6969717" lon="-8.58428"><ele>450.6666666666667</ele><time>2026-04-16T11:32:49.871Z</time></trkpt><trkpt lat="42.6971117" lon="-8.584445"><ele>448.0</ele><time>2026-04-16T11:32:50.87Z</time></trkpt><trkpt lat="42.6972483" lon="-8.5846183"><ele>448.0</ele><time>2026-04-16T11:32:51.87Z</time></trkpt><trkpt lat="42.6973917" lon="-8.5848067"><ele>448.0</ele><time>2026-04-16T11:32:52.871Z</time></trkpt><trkpt lat="42.6975433" lon="-8.5849833"><ele>448.0</ele><time>2026-04-16T11:32:53.871Z</time></trkpt><trkpt lat="42.697695" lon="-8.5851567"><ele>447.25</ele><time>2026-04-16T11:32:54.87Z</time></trkpt><trkpt lat="42.6978333" lon="-8.5853083"><ele>446.5</ele><time>2026-04-16T11:32:55.87Z</time></trkpt><trkpt lat="42.6979483" lon="-8.5854233"><ele>445.75</ele><time>2026-04-16T11:32:56.871Z</time></trkpt><trkpt lat="42.698055" lon="-8.5855217"><ele>445.0</ele><time>2026-04-16T11:32:57.871Z</time></trkpt><trkpt lat="42.6981483" lon="-8.5856117"><ele>445.0</ele><time>2026-04-16T11:32:58.871Z</time></trkpt><trkpt lat="42.6982317" lon="-8.58571"><ele>445.0</ele><time>2026-04-16T11:32:59.87Z</time></trkpt><trkpt lat="42.6983" lon="-8.5858533"><ele>445.0</ele><time>2026-04-16T11:33:00.871Z</time></trkpt><trkpt lat="42.698365" lon="-8.5860433"><ele>445.0</ele><time>2026-04-16T11:33:01.871Z</time></trkpt><trkpt lat="42.6984283" lon="-8.5862617"><ele>443.25</ele><time>2026-04-16T11:33:02.87Z</time></trkpt><trkpt lat="42.6984867" lon="-8.5864583"><ele>441.5</ele><time>2026-04-16T11:33:03.871Z</time></trkpt><trkpt lat="42.6985617" lon="-8.5865933"><ele>439.75</ele><time>2026-04-16T11:33:04.87Z</time></trkpt><trkpt lat="42.6986317" lon="-8.5867"><ele>438.0</ele><time>2026-04-16T11:33:05.871Z</time></trkpt><trkpt lat="42.698715" lon="-8.586735"><ele>438.0</ele><time>2026-04-16T11:33:06.871Z</time></trkpt><trkpt lat="42.6988233" lon="-8.5867183"><ele>438.0</ele><time>2026-04-16T11:33:07.87Z</time></trkpt><trkpt lat="42.6989633" lon="-8.5867717"><ele>438.0</ele><time>2026-04-16T11:33:08.87Z</time></trkpt><trkpt lat="42.6991167" lon="-8.586825"><ele>438.0</ele><time>2026-04-16T11:33:09.87Z</time></trkpt><trkpt lat="42.6992383" lon="-8.58684"><ele>438.0</ele><time>2026-04-16T11:33:10.871Z</time></trkpt><trkpt lat="42.6993433" lon="-8.5868717"><ele>437.99999999999994</ele><time>2026-04-16T11:33:11.87Z</time></trkpt><trkpt lat="42.699415" lon="-8.586925"><ele>437.99999999999994</ele><time>2026-04-16T11:33:12.871Z</time></trkpt><trkpt lat="42.6994667" lon="-8.587"><ele>438.0</ele><time>2026-04-16T11:33:13.87Z</time></trkpt><trkpt lat="42.6995117" lon="-8.5871"><ele>438.0</ele><time>2026-04-16T11:33:14.871Z</time></trkpt><trkpt lat="42.6995367" lon="-8.5872583"><ele>436.75</ele><time>2026-04-16T11:33:15.87Z</time></trkpt><trkpt lat="42.6995383" lon="-8.5874433"><ele>435.5</ele><time>2026-04-16T11:33:16.87Z</time></trkpt><trkpt lat="42.699565" lon="-8.5876383"><ele>434.25</ele><time>2026-04-16T11:33:17.871Z</time></trkpt><trkpt lat="42.69958" lon="-8.5878117"><ele>433.0</ele><time>2026-04-16T11:33:18.87Z</time></trkpt><trkpt lat="42.6996017" lon="-8.5879617"><ele>430.0</ele><time>2026-04-16T11:33:19.871Z</time></trkpt><trkpt lat="42.699645" lon="-8.58809"><ele>426.99999999999994</ele><time>2026-04-16T11:33:20.87Z</time></trkpt><trkpt lat="42.6997017" lon="-8.5882033"><ele>424.0</ele><time>2026-04-16T11:33:21.871Z</time></trkpt><trkpt lat="42.6997867" lon="-8.58831"><ele>421.0</ele><time>2026-04-16T11:33:22.871Z</time></trkpt><trkpt lat="42.6998733" lon="-8.588425"><ele>418.0</ele><time>2026-04-16T11:33:23.87Z</time></trkpt><trkpt lat="42.699955" lon="-8.5885633"><ele>413.33333333333337</ele><time>2026-04-16T11:33:24.871Z</time></trkpt><trkpt lat="42.7000433" lon="-8.5887233"><ele>408.66666666666663</ele><time>2026-04-16T11:33:25.87Z</time></trkpt><trkpt lat="42.700135" lon="-8.5888917"><ele>404.0</ele><time>2026-04-16T11:33:26.87Z</time></trkpt><trkpt lat="42.700225" lon="-8.5890667"><ele>405.5</ele><time>2026-04-16T11:33:27.871Z</time></trkpt><trkpt lat="42.700305" lon="-8.589245"><ele>407.0</ele><time>2026-04-16T11:33:28.87Z</time></trkpt><trkpt lat="42.7003783" lon="-8.5893967"><ele>408.5</ele><time>2026-04-16T11:33:29.871Z</time></trkpt><trkpt lat="42.70044" lon="-8.58952"><ele>410.0</ele><time>2026-04-16T11:33:30.87Z</time></trkpt><trkpt lat="42.7005" lon="-8.58965"><ele>407.8333333333333</ele><time>2026-04-16T11:33:31.87Z</time></trkpt><trkpt lat="42.7005383" lon="-8.5897517"><ele>405.66666666666663</ele><time>2026-04-16T11:33:32.87Z</time></trkpt><trkpt lat="42.70056" lon="-8.5898833"><ele>403.5</ele><time>2026-04-16T11:33:34.871Z</time></trkpt><trkpt lat="42.7005083" lon="-8.58999"><ele>401.33333333333337</ele><time>2026-04-16T11:33:36.87Z</time></trkpt><trkpt lat="42.70044" lon="-8.5900483"><ele>399.1666666666667</ele><time>2026-04-16T11:33:37.871Z</time></trkpt><trkpt lat="42.700385" lon="-8.5901117"><ele>397.0</ele><time>2026-04-16T11:33:38.87Z</time></trkpt><trkpt lat="42.700335" lon="-8.5901733"><ele>397.0</ele><time>2026-04-16T11:33:39.87Z</time></trkpt><trkpt lat="42.7003117" lon="-8.5902783"><ele>397.0</ele><time>2026-04-16T11:33:41.871Z</time></trkpt><trkpt lat="42.7004217" lon="-8.5903067"><ele>397.0</ele><time>2026-04-16T11:33:43.87Z</time></trkpt><trkpt lat="42.70053" lon="-8.5902683"><ele>397.0</ele><time>2026-04-16T11:33:44.87Z</time></trkpt><trkpt lat="42.7006633" lon="-8.5902333"><ele>397.0</ele><time>2026-04-16T11:33:45.871Z</time></trkpt><trkpt lat="42.7008067" lon="-8.59018"><ele>397.0</ele><time>2026-04-16T11:33:46.87Z</time></trkpt><trkpt lat="42.70095" lon="-8.59013"><ele>397.0</ele><time>2026-04-16T11:33:47.871Z</time></trkpt><trkpt lat="42.7010983" lon="-8.5901067"><ele>397.0</ele><time>2026-04-16T11:33:48.871Z</time></trkpt><trkpt lat="42.7012433" lon="-8.59009"><ele>397.0</ele><time>2026-04-16T11:33:49.871Z</time></trkpt><trkpt lat="42.7013567" lon="-8.5900733"><ele>397.0</ele><time>2026-04-16T11:33:50.87Z</time></trkpt><trkpt lat="42.70145" lon="-8.5900117"><ele>397.0</ele><time>2026-04-16T11:33:51.87Z</time></trkpt><trkpt lat="42.7015117" lon="-8.58991"><ele>397.0</ele><time>2026-04-16T11:33:52.871Z</time></trkpt><trkpt lat="42.7015783" lon="-8.5897917"><ele>397.0</ele><time>2026-04-16T11:33:53.871Z</time></trkpt><trkpt lat="42.70166" lon="-8.5896567"><ele>397.0</ele><time>2026-04-16T11:33:54.871Z</time></trkpt><trkpt lat="42.7017683" lon="-8.5894933"><ele>399.33333333333337</ele><time>2026-04-16T11:33:55.87Z</time></trkpt><trkpt lat="42.7019" lon="-8.5892967"><ele>401.66666666666663</ele><time>2026-04-16T11:33:56.87Z</time></trkpt><trkpt lat="42.7020433" lon="-8.58907"><ele>404.0</ele><time>2026-04-16T11:33:57.87Z</time></trkpt><trkpt lat="42.7021733" lon="-8.5888433"><ele>407.0</ele><time>2026-04-16T11:33:58.871Z</time></trkpt><trkpt lat="42.702285" lon="-8.5886117"><ele>410.0</ele><time>2026-04-16T11:33:59.87Z</time></trkpt><trkpt lat="42.7023767" lon="-8.5883867"><ele>413.0</ele><time>2026-04-16T11:34:00.871Z</time></trkpt><trkpt lat="42.7024483" lon="-8.588175"><ele>413.0</ele><time>2026-04-16T11:34:01.871Z</time></trkpt><trkpt lat="42.7024833" lon="-8.5879733"><ele>413.0</ele><time>2026-04-16T11:34:02.87Z</time></trkpt><trkpt lat="42.7025083" lon="-8.5877617"><ele>413.0</ele><time>2026-04-16T11:34:03.87Z</time></trkpt><trkpt lat="42.70252" lon="-8.5875517"><ele>415.66666666666663</ele><time>2026-04-16T11:34:04.87Z</time></trkpt><trkpt lat="42.7025033" lon="-8.5873433"><ele>418.33333333333337</ele><time>2026-04-16T11:34:05.87Z</time></trkpt><trkpt lat="42.7024767" lon="-8.5871067"><ele>421.0</ele><time>2026-04-16T11:34:06.871Z</time></trkpt><trkpt lat="42.7024517" lon="-8.5868633"><ele>422.6666666666667</ele><time>2026-04-16T11:34:07.871Z</time></trkpt><trkpt lat="42.7024283" lon="-8.5866167"><ele>424.33333333333337</ele><time>2026-04-16T11:34:08.87Z</time></trkpt><trkpt lat="42.7024017" lon="-8.5863583"><ele>426.0</ele><time>2026-04-16T11:34:09.87Z</time></trkpt><trkpt lat="42.7023733" lon="-8.5860833"><ele>427.0</ele><time>2026-04-16T11:34:10.87Z</time></trkpt><trkpt lat="42.7023283" lon="-8.5858017"><ele>428.0</ele><time>2026-04-16T11:34:11.87Z</time></trkpt><trkpt lat="42.7022967" lon="-8.5855467"><ele>429.0</ele><time>2026-04-16T11:34:12.871Z</time></trkpt><trkpt lat="42.7022717" lon="-8.5852917"><ele>430.0</ele><time>2026-04-16T11:34:13.871Z</time></trkpt><trkpt lat="42.7022633" lon="-8.5850183"><ele>431.0</ele><time>2026-04-16T11:34:14.871Z</time></trkpt><trkpt lat="42.7022667" lon="-8.584745"><ele>432.0</ele><time>2026-04-16T11:34:15.871Z</time></trkpt><trkpt lat="42.7022767" lon="-8.584465"><ele>432.33333333333337</ele><time>2026-04-16T11:34:16.87Z</time></trkpt><trkpt lat="42.7022883" lon="-8.584215"><ele>432.6666666666667</ele><time>2026-04-16T11:34:17.871Z</time></trkpt><trkpt lat="42.7022767" lon="-8.58401"><ele>433.0</ele><time>2026-04-16T11:34:18.87Z</time></trkpt><trkpt lat="42.702255" lon="-8.5838533"><ele>433.0</ele><time>2026-04-16T11:34:19.871Z</time></trkpt><trkpt lat="42.7021867" lon="-8.5837317"><ele>433.0</ele><time>2026-04-16T11:34:20.87Z</time></trkpt><trkpt lat="42.7021033" lon="-8.5836017"><ele>433.0</ele><time>2026-04-16T11:34:21.87Z</time></trkpt><trkpt lat="42.7020233" lon="-8.5834783"><ele>433.0</ele><time>2026-04-16T11:34:22.871Z</time></trkpt><trkpt lat="42.7019317" lon="-8.5833417"><ele>438.75</ele><time>2026-04-16T11:34:23.871Z</time></trkpt><trkpt lat="42.701825" lon="-8.5831917"><ele>444.5</ele><time>2026-04-16T11:34:24.871Z</time></trkpt><trkpt lat="42.7017283" lon="-8.5830417"><ele>450.25</ele><time>2026-04-16T11:34:25.871Z</time></trkpt><trkpt lat="42.7016567" lon="-8.5829017"><ele>456.0</ele><time>2026-04-16T11:34:26.871Z</time></trkpt><trkpt lat="42.701605" lon="-8.5827517"><ele>456.0</ele><time>2026-04-16T11:34:27.87Z</time></trkpt><trkpt lat="42.7015617" lon="-8.582585"><ele>456.0</ele><time>2026-04-16T11:34:28.871Z</time></trkpt><trkpt lat="42.7015317" lon="-8.5823933"><ele>456.0</ele><time>2026-04-16T11:34:29.871Z</time></trkpt><trkpt lat="42.7015167" lon="-8.5821867"><ele>456.0</ele><time>2026-04-16T11:34:30.871Z</time></trkpt><trkpt lat="42.701505" lon="-8.5819617"><ele>458.0</ele><time>2026-04-16T11:34:31.871Z</time></trkpt><trkpt lat="42.70149" lon="-8.581725"><ele>460.0</ele><time>2026-04-16T11:34:32.87Z</time></trkpt><trkpt lat="42.7014733" lon="-8.58149"><ele>462.0</ele><time>2026-04-16T11:34:33.871Z</time></trkpt><trkpt lat="42.70146" lon="-8.5812533"><ele>463.33333333333337</ele><time>2026-04-16T11:34:34.87Z</time></trkpt><trkpt lat="42.701445" lon="-8.5810083"><ele>464.6666666666667</ele><time>2026-04-16T11:34:35.87Z</time></trkpt><trkpt lat="42.70142" lon="-8.5807767"><ele>466.0</ele><time>2026-04-16T11:34:36.87Z</time></trkpt><trkpt lat="42.70139" lon="-8.58056"><ele>466.0</ele><time>2026-04-16T11:34:37.87Z</time></trkpt><trkpt lat="42.7013383" lon="-8.5803633"><ele>466.0</ele><time>2026-04-16T11:34:38.871Z</time></trkpt><trkpt lat="42.7012867" lon="-8.580175"><ele>466.0</ele><time>2026-04-16T11:34:39.87Z</time></trkpt><trkpt lat="42.70122" lon="-8.5799617"><ele>468.33333333333337</ele><time>2026-04-16T11:34:40.87Z</time></trkpt><trkpt lat="42.7011367" lon="-8.5797367"><ele>470.66666666666663</ele><time>2026-04-16T11:34:41.87Z</time></trkpt><trkpt lat="42.7010467" lon="-8.5795"><ele>473.0</ele><time>2026-04-16T11:34:42.87Z</time></trkpt><trkpt lat="42.7009617" lon="-8.5792783"><ele>481.66666666666663</ele><time>2026-04-16T11:34:43.87Z</time></trkpt><trkpt lat="42.7008817" lon="-8.579065"><ele>490.33333333333337</ele><time>2026-04-16T11:34:44.871Z</time></trkpt><trkpt lat="42.7008033" lon="-8.5788633"><ele>499.0</ele><time>2026-04-16T11:34:45.87Z</time></trkpt><trkpt lat="42.7007133" lon="-8.5786883"><ele>498.75</ele><time>2026-04-16T11:34:46.87Z</time></trkpt><trkpt lat="42.700635" lon="-8.57851"><ele>498.5</ele><time>2026-04-16T11:34:47.87Z</time></trkpt><trkpt lat="42.700575" lon="-8.5783417"><ele>498.25</ele><time>2026-04-16T11:34:48.871Z</time></trkpt><trkpt lat="42.7005183" lon="-8.5781967"><ele>498.0</ele><time>2026-04-16T11:34:49.871Z</time></trkpt><trkpt lat="42.7004417" lon="-8.57809"><ele>498.0</ele><time>2026-04-16T11:34:50.871Z</time></trkpt><trkpt lat="42.7003383" lon="-8.5780233"><ele>498.0</ele><time>2026-04-16T11:34:51.871Z</time></trkpt><trkpt lat="42.7001917" lon="-8.5779717"><ele>498.0</ele><time>2026-04-16T11:34:52.87Z</time></trkpt><trkpt lat="42.6999867" lon="-8.57792"><ele>498.33333333333337</ele><time>2026-04-16T11:34:53.87Z</time></trkpt><trkpt lat="42.6997717" lon="-8.5778317"><ele>498.6666666666667</ele><time>2026-04-16T11:34:54.871Z</time></trkpt><trkpt lat="42.6995633" lon="-8.57775"><ele>499.0</ele><time>2026-04-16T11:34:55.87Z</time></trkpt><trkpt lat="42.6993767" lon="-8.5777"><ele>498.33333333333337</ele><time>2026-04-16T11:34:56.87Z</time></trkpt><trkpt lat="42.6992133" lon="-8.577665"><ele>497.66666666666663</ele><time>2026-04-16T11:34:57.87Z</time></trkpt><trkpt lat="42.6990317" lon="-8.5776517"><ele>497.0</ele><time>2026-04-16T11:34:58.87Z</time></trkpt><trkpt lat="42.698835" lon="-8.5776833"><ele>497.0</ele><time>2026-04-16T11:34:59.871Z</time></trkpt><trkpt lat="42.6986283" lon="-8.5777417"><ele>497.0</ele><time>2026-04-16T11:35:00.871Z</time></trkpt><trkpt lat="42.69843" lon="-8.5777867"><ele>497.0</ele><time>2026-04-16T11:35:01.871Z</time></trkpt><trkpt lat="42.69824" lon="-8.5778283"><ele>497.3333333333333</ele><time>2026-04-16T11:35:02.87Z</time></trkpt><trkpt lat="42.698065" lon="-8.577825"><ele>497.66666666666663</ele><time>2026-04-16T11:35:03.87Z</time></trkpt><trkpt lat="42.6979" lon="-8.5777833"><ele>498.0</ele><time>2026-04-16T11:35:04.87Z</time></trkpt><trkpt lat="42.697745" lon="-8.5777167"><ele>499.66666666666663</ele><time>2026-04-16T11:35:05.871Z</time></trkpt><trkpt lat="42.6975967" lon="-8.577615"><ele>501.3333333333333</ele><time>2026-04-16T11:35:06.871Z</time></trkpt><trkpt lat="42.6974333" lon="-8.5775017"><ele>503.0</ele><time>2026-04-16T11:35:07.87Z</time></trkpt><trkpt lat="42.697235" lon="-8.5774133"><ele>503.0</ele><time>2026-04-16T11:35:08.871Z</time></trkpt><trkpt lat="42.6970317" lon="-8.57732"><ele>503.0</ele><time>2026-04-16T11:35:09.87Z</time></trkpt><trkpt lat="42.6968483" lon="-8.577245"><ele>503.0</ele><time>2026-04-16T11:35:10.87Z</time></trkpt><trkpt lat="42.69669" lon="-8.5771833"><ele>503.5</ele><time>2026-04-16T11:35:11.871Z</time></trkpt><trkpt lat="42.6965567" lon="-8.5771433"><ele>504.0</ele><time>2026-04-16T11:35:12.87Z</time></trkpt><trkpt lat="42.69642" lon="-8.5771083"><ele>504.5</ele><time>2026-04-16T11:35:13.871Z</time></trkpt><trkpt lat="42.69626" lon="-8.5771367"><ele>505.0</ele><time>2026-04-16T11:35:14.871Z</time></trkpt><trkpt lat="42.6960967" lon="-8.5771867"><ele>505.0</ele><time>2026-04-16T11:35:15.871Z</time></trkpt><trkpt lat="42.6959333" lon="-8.5772267"><ele>505.0</ele><time>2026-04-16T11:35:16.87Z</time></trkpt><trkpt lat="42.6957883" lon="-8.5772367"><ele>505.0</ele><time>2026-04-16T11:35:17.87Z</time></trkpt><trkpt lat="42.69568" lon="-8.577215"><ele>505.0</ele><time>2026-04-16T11:35:18.871Z</time></trkpt><trkpt lat="42.6956033" lon="-8.5771517"><ele>505.0</ele><time>2026-04-16T11:35:19.87Z</time></trkpt><trkpt lat="42.69554" lon="-8.577035"><ele>505.0</ele><time>2026-04-16T11:35:20.871Z</time></trkpt><trkpt lat="42.69546" lon="-8.5768833"><ele>505.0</ele><time>2026-04-16T11:35:21.87Z</time></trkpt><trkpt lat="42.69536" lon="-8.5767067"><ele>505.0</ele><time>2026-04-16T11:35:22.87Z</time></trkpt><trkpt lat="42.695245" lon="-8.5765633"><ele>506.33333333333337</ele><time>2026-04-16T11:35:23.871Z</time></trkpt><trkpt lat="42.695105" lon="-8.5764483"><ele>507.66666666666663</ele><time>2026-04-16T11:35:24.871Z</time></trkpt><trkpt lat="42.6949467" lon="-8.57636"><ele>509.0</ele><time>2026-04-16T11:35:25.87Z</time></trkpt><trkpt lat="42.6947833" lon="-8.5763233"><ele>509.0</ele><time>2026-04-16T11:35:26.871Z</time></trkpt><trkpt lat="42.6946083" lon="-8.5763017"><ele>509.0</ele><time>2026-04-16T11:35:27.871Z</time></trkpt><trkpt lat="42.694415" lon="-8.5762767"><ele>509.0</ele><time>2026-04-16T11:35:28.87Z</time></trkpt><trkpt lat="42.6942333" lon="-8.5762333"><ele>509.75</ele><time>2026-04-16T11:35:29.87Z</time></trkpt><trkpt lat="42.6940767" lon="-8.5762067"><ele>510.5</ele><time>2026-04-16T11:35:30.87Z</time></trkpt><trkpt lat="42.6939317" lon="-8.576185"><ele>511.25</ele><time>2026-04-16T11:35:31.87Z</time></trkpt><trkpt lat="42.6938033" lon="-8.5761667"><ele>512.0</ele><time>2026-04-16T11:35:32.87Z</time></trkpt><trkpt lat="42.6937" lon="-8.5761667"><ele>512.0</ele><time>2026-04-16T11:35:33.87Z</time></trkpt><trkpt lat="42.693625" lon="-8.57617"><ele>512.0</ele><time>2026-04-16T11:35:34.87Z</time></trkpt><trkpt lat="42.6935683" lon="-8.5761217"><ele>512.0</ele><time>2026-04-16T11:35:36.871Z</time></trkpt><trkpt lat="42.6935467" lon="-8.5759217"><ele>512.0</ele><time>2026-04-16T11:35:38.871Z</time></trkpt><trkpt lat="42.6935283" lon="-8.5757583"><ele>512.0</ele><time>2026-04-16T11:35:39.87Z</time></trkpt><trkpt lat="42.693505" lon="-8.57557"><ele>514.0</ele><time>2026-04-16T11:35:40.87Z</time></trkpt><trkpt lat="42.693485" lon="-8.5753"><ele>516.0</ele><time>2026-04-16T11:35:41.87Z</time></trkpt><trkpt lat="42.6935117" lon="-8.5749233"><ele>516.0</ele><time>2026-04-16T11:35:42.87Z</time></trkpt><trkpt lat="42.6935233" lon="-8.5746533"><ele>516.0</ele><time>2026-04-16T11:35:43.871Z</time></trkpt><trkpt lat="42.6935267" lon="-8.5744317"><ele>516.0</ele><time>2026-04-16T11:35:44.87Z</time></trkpt><trkpt lat="42.6935317" lon="-8.5742517"><ele>514.8</ele><time>2026-04-16T11:35:45.871Z</time></trkpt><trkpt lat="42.6935517" lon="-8.5741083"><ele>513.6</ele><time>2026-04-16T11:35:46.87Z</time></trkpt><trkpt lat="42.6935933" lon="-8.5740033"><ele>512.4</ele><time>2026-04-16T11:35:47.871Z</time></trkpt><trkpt lat="42.6936567" lon="-8.5739117"><ele>511.2</ele><time>2026-04-16T11:35:48.87Z</time></trkpt><trkpt lat="42.6937383" lon="-8.573825"><ele>510.0</ele><time>2026-04-16T11:35:49.871Z</time></trkpt><trkpt lat="42.693875" lon="-8.573735"><ele>507.0</ele><time>2026-04-16T11:35:50.87Z</time></trkpt><trkpt lat="42.6940417" lon="-8.573625"><ele>504.0</ele><time>2026-04-16T11:35:51.871Z</time></trkpt><trkpt lat="42.6942233" lon="-8.5735017"><ele>501.0</ele><time>2026-04-16T11:35:52.87Z</time></trkpt><trkpt lat="42.69441" lon="-8.57335"><ele>499.66666666666663</ele><time>2026-04-16T11:35:53.87Z</time></trkpt><trkpt lat="42.6946067" lon="-8.5732017"><ele>498.3333333333333</ele><time>2026-04-16T11:35:54.871Z</time></trkpt><trkpt lat="42.6948017" lon="-8.57305"><ele>497.0</ele><time>2026-04-16T11:35:55.87Z</time></trkpt><trkpt lat="42.69501" lon="-8.57289"><ele>498.5</ele><time>2026-04-16T11:35:56.87Z</time></trkpt><trkpt lat="42.69523" lon="-8.5727283"><ele>500.0</ele><time>2026-04-16T11:35:57.871Z</time></trkpt><trkpt lat="42.6954483" lon="-8.5725517"><ele>497.0</ele><time>2026-04-16T11:35:58.871Z</time></trkpt><trkpt lat="42.69566" lon="-8.5723817"><ele>494.0</ele><time>2026-04-16T11:35:59.87Z</time></trkpt><trkpt lat="42.695845" lon="-8.5722233"><ele>494.0</ele><time>2026-04-16T11:36:00.871Z</time></trkpt><trkpt lat="42.6959867" lon="-8.5720767"><ele>494.0</ele><time>2026-04-16T11:36:01.87Z</time></trkpt><trkpt lat="42.6960983" lon="-8.5719133"><ele>494.0</ele><time>2026-04-16T11:36:02.871Z</time></trkpt><trkpt lat="42.6962083" lon="-8.571725"><ele>492.3333333333333</ele><time>2026-04-16T11:36:03.87Z</time></trkpt><trkpt lat="42.6963233" lon="-8.5714867"><ele>490.66666666666663</ele><time>2026-04-16T11:36:04.871Z</time></trkpt><trkpt lat="42.6964367" lon="-8.571205"><ele>489.0</ele><time>2026-04-16T11:36:05.87Z</time></trkpt><trkpt lat="42.69655" lon="-8.5709417"><ele>488.66666666666663</ele><time>2026-04-16T11:36:06.871Z</time></trkpt><trkpt lat="42.696655" lon="-8.5706967"><ele>488.3333333333333</ele><time>2026-04-16T11:36:07.871Z</time></trkpt><trkpt lat="42.6967467" lon="-8.5704583"><ele>488.0</ele><time>2026-04-16T11:36:08.87Z</time></trkpt><trkpt lat="42.69684" lon="-8.5702383"><ele>488.0</ele><time>2026-04-16T11:36:09.87Z</time></trkpt><trkpt lat="42.6969133" lon="-8.570055"><ele>488.0</ele><time>2026-04-16T11:36:10.871Z</time></trkpt><trkpt lat="42.6969667" lon="-8.569855"><ele>488.0</ele><time>2026-04-16T11:36:11.87Z</time></trkpt><trkpt lat="42.696995" lon="-8.5696417"><ele>484.0</ele><time>2026-04-16T11:36:12.87Z</time></trkpt><trkpt lat="42.6969967" lon="-8.5693933"><ele>480.0</ele><time>2026-04-16T11:36:13.871Z</time></trkpt><trkpt lat="42.69699" lon="-8.569135"><ele>476.0</ele><time>2026-04-16T11:36:14.87Z</time></trkpt><trkpt lat="42.6969767" lon="-8.568865"><ele>474.3333333333333</ele><time>2026-04-16T11:36:15.87Z</time></trkpt><trkpt lat="42.69697" lon="-8.568585"><ele>472.66666666666663</ele><time>2026-04-16T11:36:16.87Z</time></trkpt><trkpt lat="42.6969667" lon="-8.5682883"><ele>471.0</ele><time>2026-04-16T11:36:17.872Z</time></trkpt><trkpt lat="42.696955" lon="-8.5679717"><ele>469.0</ele><time>2026-04-16T11:36:18.871Z</time></trkpt><trkpt lat="42.6969533" lon="-8.567685"><ele>467.0</ele><time>2026-04-16T11:36:19.871Z</time></trkpt><trkpt lat="42.6969517" lon="-8.5674117"><ele>465.0</ele><time>2026-04-16T11:36:20.871Z</time></trkpt><trkpt lat="42.696955" lon="-8.5671433"><ele>462.33333333333337</ele><time>2026-04-16T11:36:21.871Z</time></trkpt><trkpt lat="42.6969533" lon="-8.5669067"><ele>459.6666666666667</ele><time>2026-04-16T11:36:22.871Z</time></trkpt><trkpt lat="42.6969483" lon="-8.56669"><ele>457.0</ele><time>2026-04-16T11:36:23.872Z</time></trkpt><trkpt lat="42.6969483" lon="-8.5664967"><ele>457.0</ele><time>2026-04-16T11:36:24.872Z</time></trkpt><trkpt lat="42.6969533" lon="-8.5663283"><ele>457.00000000000006</ele><time>2026-04-16T11:36:25.872Z</time></trkpt><trkpt lat="42.69697" lon="-8.5661967"><ele>457.00000000000006</ele><time>2026-04-16T11:36:26.871Z</time></trkpt><trkpt lat="42.6969917" lon="-8.5661"><ele>457.0</ele><time>2026-04-16T11:36:27.871Z</time></trkpt><trkpt lat="42.69707" lon="-8.5660067"><ele>457.0</ele><time>2026-04-16T11:36:29.872Z</time></trkpt><trkpt lat="42.6971583" lon="-8.5659983"><ele>455.20000000000005</ele><time>2026-04-16T11:36:30.871Z</time></trkpt><trkpt lat="42.697265" lon="-8.566005"><ele>453.40000000000003</ele><time>2026-04-16T11:36:31.871Z</time></trkpt><trkpt lat="42.69736" lon="-8.56598"><ele>451.59999999999997</ele><time>2026-04-16T11:36:32.871Z</time></trkpt><trkpt lat="42.6974567" lon="-8.565915"><ele>449.79999999999995</ele><time>2026-04-16T11:36:33.871Z</time></trkpt><trkpt lat="42.69757" lon="-8.5658117"><ele>448.0</ele><time>2026-04-16T11:36:34.871Z</time></trkpt><trkpt lat="42.69769" lon="-8.5657017"><ele>448.6666666666667</ele><time>2026-04-16T11:36:35.872Z</time></trkpt><trkpt lat="42.6978217" lon="-8.5655683"><ele>449.33333333333337</ele><time>2026-04-16T11:36:36.872Z</time></trkpt><trkpt lat="42.6979617" lon="-8.5654233"><ele>450.0</ele><time>2026-04-16T11:36:37.872Z</time></trkpt><trkpt lat="42.698105" lon="-8.5652867"><ele>446.5</ele><time>2026-04-16T11:36:38.872Z</time></trkpt><trkpt lat="42.6982367" lon="-8.56516"><ele>443.0</ele><time>2026-04-16T11:36:39.872Z</time></trkpt><trkpt lat="42.6983683" lon="-8.56508"><ele>439.5</ele><time>2026-04-16T11:36:40.871Z</time></trkpt><trkpt lat="42.698495" lon="-8.5650283"><ele>436.0</ele><time>2026-04-16T11:36:41.871Z</time></trkpt><trkpt lat="42.6986383" lon="-8.5649933"><ele>435.75</ele><time>2026-04-16T11:36:42.871Z</time></trkpt><trkpt lat="42.6987783" lon="-8.5649483"><ele>435.5</ele><time>2026-04-16T11:36:43.871Z</time></trkpt><trkpt lat="42.698905" lon="-8.564905"><ele>435.25</ele><time>2026-04-16T11:36:44.871Z</time></trkpt><trkpt lat="42.6990467" lon="-8.5648633"><ele>435.0</ele><time>2026-04-16T11:36:45.872Z</time></trkpt><trkpt lat="42.6991967" lon="-8.5648167"><ele>435.0</ele><time>2026-04-16T11:36:46.872Z</time></trkpt><trkpt lat="42.69935" lon="-8.56477"><ele>435.0</ele><time>2026-04-16T11:36:47.871Z</time></trkpt><trkpt lat="42.6995033" lon="-8.5647183"><ele>435.0</ele><time>2026-04-16T11:36:48.872Z</time></trkpt><trkpt lat="42.699655" lon="-8.5646817"><ele>433.66666666666663</ele><time>2026-04-16T11:36:49.871Z</time></trkpt><trkpt lat="42.6997967" lon="-8.56464"><ele>432.3333333333333</ele><time>2026-04-16T11:36:50.872Z</time></trkpt><trkpt lat="42.699955" lon="-8.5646133"><ele>431.0</ele><time>2026-04-16T11:36:51.871Z</time></trkpt><trkpt lat="42.7001383" lon="-8.5646083"><ele>431.0</ele><time>2026-04-16T11:36:52.872Z</time></trkpt><trkpt lat="42.7003433" lon="-8.5645817"><ele>431.0</ele><time>2026-04-16T11:36:53.872Z</time></trkpt><trkpt lat="42.7005617" lon="-8.5645683"><ele>431.0</ele><time>2026-04-16T11:36:54.871Z</time></trkpt><trkpt lat="42.7007583" lon="-8.564535"><ele>423.66666666666663</ele><time>2026-04-16T11:36:55.871Z</time></trkpt><trkpt lat="42.700915" lon="-8.564485"><ele>416.33333333333337</ele><time>2026-04-16T11:36:56.872Z</time></trkpt><trkpt lat="42.7010717" lon="-8.5644533"><ele>409.0</ele><time>2026-04-16T11:36:57.871Z</time></trkpt><trkpt lat="42.7012017" lon="-8.5644283"><ele>406.5</ele><time>2026-04-16T11:36:58.872Z</time></trkpt><trkpt lat="42.7013167" lon="-8.5644417"><ele>404.0</ele><time>2026-04-16T11:36:59.871Z</time></trkpt><trkpt lat="42.7014233" lon="-8.5644783"><ele>401.5</ele><time>2026-04-16T11:37:00.871Z</time></trkpt><trkpt lat="42.7015283" lon="-8.5645467"><ele>399.0</ele><time>2026-04-16T11:37:01.872Z</time></trkpt><trkpt lat="42.7016467" lon="-8.5646167"><ele>403.0</ele><time>2026-04-16T11:37:02.872Z</time></trkpt><trkpt lat="42.7017733" lon="-8.564685"><ele>407.0</ele><time>2026-04-16T11:37:03.872Z</time></trkpt><trkpt lat="42.70189" lon="-8.564745"><ele>411.0</ele><time>2026-04-16T11:37:04.871Z</time></trkpt><trkpt lat="42.7020217" lon="-8.56483"><ele>415.0</ele><time>2026-04-16T11:37:05.872Z</time></trkpt><trkpt lat="42.7021617" lon="-8.564975"><ele>415.0</ele><time>2026-04-16T11:37:06.872Z</time></trkpt><trkpt lat="42.702315" lon="-8.5651433"><ele>415.0</ele><time>2026-04-16T11:37:07.872Z</time></trkpt><trkpt lat="42.70249" lon="-8.5653133"><ele>415.0</ele><time>2026-04-16T11:37:08.872Z</time></trkpt><trkpt lat="42.7026783" lon="-8.565495"><ele>418.33333333333337</ele><time>2026-04-16T11:37:09.871Z</time></trkpt><trkpt lat="42.70287" lon="-8.5656667"><ele>421.66666666666663</ele><time>2026-04-16T11:37:10.871Z</time></trkpt><trkpt lat="42.703045" lon="-8.56578"><ele>425.0</ele><time>2026-04-16T11:37:11.872Z</time></trkpt><trkpt lat="42.70321" lon="-8.5658883"><ele>425.0</ele><time>2026-04-16T11:37:12.871Z</time></trkpt><trkpt lat="42.7033517" lon="-8.5659633"><ele>425.0</ele><time>2026-04-16T11:37:13.872Z</time></trkpt><trkpt lat="42.70348" lon="-8.566035"><ele>425.0</ele><time>2026-04-16T11:37:14.871Z</time></trkpt><trkpt lat="42.7035917" lon="-8.56615"><ele>425.0</ele><time>2026-04-16T11:37:15.872Z</time></trkpt><trkpt lat="42.7036867" lon="-8.5662867"><ele>420.66666666666663</ele><time>2026-04-16T11:37:16.871Z</time></trkpt><trkpt lat="42.70378" lon="-8.5664383"><ele>416.33333333333337</ele><time>2026-04-16T11:37:17.872Z</time></trkpt><trkpt lat="42.70386" lon="-8.5666217"><ele>412.0</ele><time>2026-04-16T11:37:18.871Z</time></trkpt><trkpt lat="42.703905" lon="-8.5668167"><ele>415.0</ele><time>2026-04-16T11:37:19.871Z</time></trkpt><trkpt lat="42.703935" lon="-8.56704"><ele>418.0</ele><time>2026-04-16T11:37:20.871Z</time></trkpt><trkpt lat="42.70397" lon="-8.5672833"><ele>421.0</ele><time>2026-04-16T11:37:21.871Z</time></trkpt><trkpt lat="42.7040083" lon="-8.56754"><ele>421.0</ele><time>2026-04-16T11:37:22.872Z</time></trkpt><trkpt lat="42.70404" lon="-8.5677733"><ele>421.0</ele><time>2026-04-16T11:37:23.872Z</time></trkpt><trkpt lat="42.704055" lon="-8.5680167"><ele>421.0</ele><time>2026-04-16T11:37:24.872Z</time></trkpt><trkpt lat="42.70406" lon="-8.5682617"><ele>420.6666666666667</ele><time>2026-04-16T11:37:25.871Z</time></trkpt><trkpt lat="42.7040433" lon="-8.5685"><ele>420.33333333333337</ele><time>2026-04-16T11:37:26.872Z</time></trkpt><trkpt lat="42.7040133" lon="-8.5687267"><ele>420.0</ele><time>2026-04-16T11:37:27.871Z</time></trkpt><trkpt lat="42.7039833" lon="-8.5689167"><ele>420.0</ele><time>2026-04-16T11:37:28.872Z</time></trkpt><trkpt lat="42.70394" lon="-8.569075"><ele>420.0</ele><time>2026-04-16T11:37:29.871Z</time></trkpt><trkpt lat="42.7038833" lon="-8.5692567"><ele>420.0</ele><time>2026-04-16T11:37:30.871Z</time></trkpt><trkpt lat="42.7038167" lon="-8.5694617"><ele>420.0</ele><time>2026-04-16T11:37:31.872Z</time></trkpt><trkpt lat="42.7037633" lon="-8.5696433"><ele>419.6</ele><time>2026-04-16T11:37:32.872Z</time></trkpt><trkpt lat="42.703725" lon="-8.5697917"><ele>419.2</ele><time>2026-04-16T11:37:33.871Z</time></trkpt><trkpt lat="42.7036767" lon="-8.5699267"><ele>418.79999999999995</ele><time>2026-04-16T11:37:34.871Z</time></trkpt><trkpt lat="42.703615" lon="-8.5700167"><ele>418.4</ele><time>2026-04-16T11:37:35.872Z</time></trkpt><trkpt lat="42.7035317" lon="-8.570065"><ele>418.0</ele><time>2026-04-16T11:37:37.871Z</time></trkpt><trkpt lat="42.703405" lon="-8.570095"><ele>423.59999999999997</ele><time>2026-04-16T11:37:39.871Z</time></trkpt><trkpt lat="42.7033133" lon="-8.570125"><ele>429.2</ele><time>2026-04-16T11:37:40.871Z</time></trkpt><trkpt lat="42.703225" lon="-8.5701767"><ele>434.8</ele><time>2026-04-16T11:37:41.872Z</time></trkpt><trkpt lat="42.70315" lon="-8.5702633"><ele>440.4</ele><time>2026-04-16T11:37:42.872Z</time></trkpt><trkpt lat="42.703115" lon="-8.5703417"><ele>446.0</ele><time>2026-04-16T11:37:43.871Z</time></trkpt><trkpt lat="42.7031067" lon="-8.570485"><ele>446.0</ele><time>2026-04-16T11:37:45.871Z</time></trkpt><trkpt lat="42.7031983" lon="-8.570615"><ele>446.0</ele><time>2026-04-16T11:37:47.872Z</time></trkpt><trkpt lat="42.7032783" lon="-8.5706833"><ele>446.0</ele><time>2026-04-16T11:37:48.871Z</time></trkpt><trkpt lat="42.70338" lon="-8.5707733"><ele>446.0</ele><time>2026-04-16T11:37:49.872Z</time></trkpt><trkpt lat="42.70348" lon="-8.57088"><ele>445.99999999999994</ele><time>2026-04-16T11:37:50.872Z</time></trkpt><trkpt lat="42.7035567" lon="-8.5709783"><ele>446.0</ele><time>2026-04-16T11:37:51.871Z</time></trkpt><trkpt lat="42.7036083" lon="-8.5710733"><ele>446.0</ele><time>2026-04-16T11:37:52.871Z</time></trkpt><trkpt lat="42.7036617" lon="-8.571155"><ele>446.0</ele><time>2026-04-16T11:37:53.872Z</time></trkpt><trkpt lat="42.7037083" lon="-8.5712183"><ele>445.99999999999994</ele><time>2026-04-16T11:37:54.872Z</time></trkpt><trkpt lat="42.70378" lon="-8.57133"><ele>446.0</ele><time>2026-04-16T11:37:56.872Z</time></trkpt><trkpt lat="42.7037867" lon="-8.5714267"><ele>445.20000000000005</ele><time>2026-04-16T11:37:58.872Z</time></trkpt><trkpt lat="42.7036767" lon="-8.5714467"><ele>444.40000000000003</ele><time>2026-04-16T11:38:00.871Z</time></trkpt><trkpt lat="42.7035883" lon="-8.571415"><ele>443.6</ele><time>2026-04-16T11:38:01.871Z</time></trkpt><trkpt lat="42.7034883" lon="-8.5713917"><ele>442.8</ele><time>2026-04-16T11:38:02.871Z</time></trkpt><trkpt lat="42.7033867" lon="-8.5713767"><ele>442.0</ele><time>2026-04-16T11:38:03.871Z</time></trkpt><trkpt lat="42.7033033" lon="-8.5713833"><ele>444.40000000000003</ele><time>2026-04-16T11:38:04.872Z</time></trkpt><trkpt lat="42.703245" lon="-8.5714267"><ele>446.80000000000007</ele><time>2026-04-16T11:38:05.871Z</time></trkpt><trkpt lat="42.7031983" lon="-8.5715867"><ele>449.2</ele><time>2026-04-16T11:38:07.871Z</time></trkpt><trkpt lat="42.70321" lon="-8.5717033"><ele>451.6</ele><time>2026-04-16T11:38:08.871Z</time></trkpt><trkpt lat="42.7032317" lon="-8.5718467"><ele>454.0</ele><time>2026-04-16T11:38:09.871Z</time></trkpt><trkpt lat="42.7032517" lon="-8.5720133"><ele>456.0</ele><time>2026-04-16T11:38:10.871Z</time></trkpt><trkpt lat="42.7032567" lon="-8.5721767"><ele>458.0</ele><time>2026-04-16T11:38:11.872Z</time></trkpt><trkpt lat="42.7032417" lon="-8.5723317"><ele>460.0</ele><time>2026-04-16T11:38:12.871Z</time></trkpt><trkpt lat="42.7032217" lon="-8.5724717"><ele>462.0</ele><time>2026-04-16T11:38:13.872Z</time></trkpt><trkpt lat="42.7032217" lon="-8.5726"><ele>464.0</ele><time>2026-04-16T11:38:14.872Z</time></trkpt><trkpt lat="42.7032417" lon="-8.5727283"><ele>465.6</ele><time>2026-04-16T11:38:15.871Z</time></trkpt><trkpt lat="42.7032517" lon="-8.57286"><ele>467.2</ele><time>2026-04-16T11:38:16.871Z</time></trkpt><trkpt lat="42.70324" lon="-8.5729583"><ele>468.80000000000007</ele><time>2026-04-16T11:38:17.872Z</time></trkpt><trkpt lat="42.7031917" lon="-8.573045"><ele>470.40000000000003</ele><time>2026-04-16T11:38:18.872Z</time></trkpt><trkpt lat="42.7031" lon="-8.5731133"><ele>472.0</ele><time>2026-04-16T11:38:19.871Z</time></trkpt><trkpt lat="42.7029833" lon="-8.5731933"><ele>472.0</ele><time>2026-04-16T11:38:20.871Z</time></trkpt><trkpt lat="42.7028483" lon="-8.5732583"><ele>472.00000000000006</ele><time>2026-04-16T11:38:21.871Z</time></trkpt><trkpt lat="42.702735" lon="-8.5733183"><ele>472.00000000000006</ele><time>2026-04-16T11:38:22.871Z</time></trkpt><trkpt lat="42.7026583" lon="-8.5733633"><ele>472.0</ele><time>2026-04-16T11:38:23.872Z</time></trkpt><trkpt lat="42.7026467" lon="-8.57346"><ele>472.0</ele><time>2026-04-16T11:38:26.871Z</time></trkpt><trkpt lat="42.7027033" lon="-8.5735033"><ele>472.0</ele><time>2026-04-16T11:38:27.871Z</time></trkpt><trkpt lat="42.702775" lon="-8.573555"><ele>472.00000000000006</ele><time>2026-04-16T11:38:28.871Z</time></trkpt><trkpt lat="42.70286" lon="-8.5736067"><ele>472.00000000000006</ele><time>2026-04-16T11:38:29.871Z</time></trkpt><trkpt lat="42.702955" lon="-8.5736783"><ele>472.0</ele><time>2026-04-16T11:38:30.871Z</time></trkpt><trkpt lat="42.70308" lon="-8.5737467"><ele>472.0</ele><time>2026-04-16T11:38:31.872Z</time></trkpt><trkpt lat="42.7032417" lon="-8.57381"><ele>473.6666666666667</ele><time>2026-04-16T11:38:32.871Z</time></trkpt><trkpt lat="42.7034133" lon="-8.5738717"><ele>475.33333333333337</ele><time>2026-04-16T11:38:33.872Z</time></trkpt><trkpt lat="42.703595" lon="-8.57393"><ele>477.0</ele><time>2026-04-16T11:38:34.872Z</time></trkpt><trkpt lat="42.7037567" lon="-8.5739983"><ele>477.0</ele><time>2026-04-16T11:38:35.871Z</time></trkpt><trkpt lat="42.7039167" lon="-8.57406"><ele>477.0</ele><time>2026-04-16T11:38:36.871Z</time></trkpt><trkpt lat="42.7040417" lon="-8.5741683"><ele>477.0</ele><time>2026-04-16T11:38:37.872Z</time></trkpt><trkpt lat="42.704145" lon="-8.5742833"><ele>477.0</ele><time>2026-04-16T11:38:38.871Z</time></trkpt><trkpt lat="42.704225" lon="-8.5744233"><ele>477.0</ele><time>2026-04-16T11:38:39.871Z</time></trkpt><trkpt lat="42.7042917" lon="-8.5745733"><ele>477.0</ele><time>2026-04-16T11:38:40.871Z</time></trkpt><trkpt lat="42.7043417" lon="-8.5747383"><ele>477.0</ele><time>2026-04-16T11:38:41.872Z</time></trkpt><trkpt lat="42.7043833" lon="-8.5749067"><ele>477.0</ele><time>2026-04-16T11:38:42.872Z</time></trkpt><trkpt lat="42.7044267" lon="-8.57506"><ele>475.40000000000003</ele><time>2026-04-16T11:38:43.871Z</time></trkpt><trkpt lat="42.70447" lon="-8.5751867"><ele>473.80000000000007</ele><time>2026-04-16T11:38:44.872Z</time></trkpt><trkpt lat="42.704525" lon="-8.5752917"><ele>472.2</ele><time>2026-04-16T11:38:45.871Z</time></trkpt><trkpt lat="42.7045967" lon="-8.575365"><ele>470.6</ele><time>2026-04-16T11:38:46.871Z</time></trkpt><trkpt lat="42.704695" lon="-8.5754367"><ele>469.0</ele><time>2026-04-16T11:38:47.872Z</time></trkpt><trkpt lat="42.7048283" lon="-8.57549"><ele>467.25</ele><time>2026-04-16T11:38:48.871Z</time></trkpt><trkpt lat="42.7049783" lon="-8.57552"><ele>465.5</ele><time>2026-04-16T11:38:49.871Z</time></trkpt><trkpt lat="42.7051217" lon="-8.5755517"><ele>463.75</ele><time>2026-04-16T11:38:50.871Z</time></trkpt><trkpt lat="42.705245" lon="-8.5755683"><ele>462.0</ele><time>2026-04-16T11:38:51.872Z</time></trkpt><trkpt lat="42.70536" lon="-8.575555"><ele>461.25</ele><time>2026-04-16T11:38:52.872Z</time></trkpt><trkpt lat="42.7054583" lon="-8.575495"><ele>460.5</ele><time>2026-04-16T11:38:53.872Z</time></trkpt><trkpt lat="42.70556" lon="-8.5753983"><ele>459.75</ele><time>2026-04-16T11:38:54.871Z</time></trkpt><trkpt lat="42.7056633" lon="-8.5752717"><ele>459.0</ele><time>2026-04-16T11:38:55.872Z</time></trkpt><trkpt lat="42.7057717" lon="-8.57517"><ele>459.0</ele><time>2026-04-16T11:38:56.872Z</time></trkpt><trkpt lat="42.705875" lon="-8.575085"><ele>459.0</ele><time>2026-04-16T11:38:57.872Z</time></trkpt><trkpt lat="42.7059783" lon="-8.5750117"><ele>459.0</ele><time>2026-04-16T11:38:58.871Z</time></trkpt><trkpt lat="42.7060933" lon="-8.57495"><ele>459.0</ele><time>2026-04-16T11:38:59.872Z</time></trkpt><trkpt lat="42.7062233" lon="-8.5748917"><ele>457.33333333333337</ele><time>2026-04-16T11:39:00.872Z</time></trkpt><trkpt lat="42.7063617" lon="-8.5748467"><ele>455.6666666666667</ele><time>2026-04-16T11:39:01.871Z</time></trkpt><trkpt lat="42.7065167" lon="-8.5747967"><ele>454.0</ele><time>2026-04-16T11:39:02.872Z</time></trkpt><trkpt lat="42.7066633" lon="-8.5747633"><ele>454.0</ele><time>2026-04-16T11:39:03.871Z</time></trkpt><trkpt lat="42.7068" lon="-8.5747367"><ele>454.0</ele><time>2026-04-16T11:39:04.871Z</time></trkpt><trkpt lat="42.7069383" lon="-8.57471"><ele>454.0</ele><time>2026-04-16T11:39:05.871Z</time></trkpt><trkpt lat="42.7070717" lon="-8.574665"><ele>454.0</ele><time>2026-04-16T11:39:06.871Z</time></trkpt><trkpt lat="42.7071883" lon="-8.5746117"><ele>454.0</ele><time>2026-04-16T11:39:07.872Z</time></trkpt><trkpt lat="42.7072767" lon="-8.5745683"><ele>454.0</ele><time>2026-04-16T11:39:08.871Z</time></trkpt><trkpt lat="42.7073533" lon="-8.5745183"><ele>454.0</ele><time>2026-04-16T11:39:09.872Z</time></trkpt><trkpt lat="42.70743" lon="-8.5744417"><ele>454.0</ele><time>2026-04-16T11:39:10.872Z</time></trkpt><trkpt lat="42.70751" lon="-8.57435"><ele>454.0</ele><time>2026-04-16T11:39:11.871Z</time></trkpt><trkpt lat="42.70759" lon="-8.5742483"><ele>453.2</ele><time>2026-04-16T11:39:12.871Z</time></trkpt><trkpt lat="42.7076733" lon="-8.5741517"><ele>452.4</ele><time>2026-04-16T11:39:13.871Z</time></trkpt><trkpt lat="42.7077483" lon="-8.574055"><ele>451.6</ele><time>2026-04-16T11:39:14.871Z</time></trkpt><trkpt lat="42.707815" lon="-8.5739717"><ele>450.8</ele><time>2026-04-16T11:39:15.871Z</time></trkpt><trkpt lat="42.707855" lon="-8.5738833"><ele>450.0</ele><time>2026-04-16T11:39:16.872Z</time></trkpt><trkpt lat="42.7078667" lon="-8.5737683"><ele>448.6</ele><time>2026-04-16T11:39:17.872Z</time></trkpt><trkpt lat="42.7078783" lon="-8.5736417"><ele>447.2</ele><time>2026-04-16T11:39:18.871Z</time></trkpt><trkpt lat="42.7078967" lon="-8.573505"><ele>445.79999999999995</ele><time>2026-04-16T11:39:19.871Z</time></trkpt><trkpt lat="42.70794" lon="-8.573365"><ele>444.4</ele><time>2026-04-16T11:39:20.871Z</time></trkpt><trkpt lat="42.7079883" lon="-8.57324"><ele>443.0</ele><time>2026-04-16T11:39:21.871Z</time></trkpt><trkpt lat="42.7080433" lon="-8.5731317"><ele>443.0</ele><time>2026-04-16T11:39:22.871Z</time></trkpt><trkpt lat="42.708115" lon="-8.573035"><ele>442.99999999999994</ele><time>2026-04-16T11:39:23.872Z</time></trkpt><trkpt lat="42.7082083" lon="-8.57294"><ele>442.99999999999994</ele><time>2026-04-16T11:39:24.872Z</time></trkpt><trkpt lat="42.708305" lon="-8.572845"><ele>443.0</ele><time>2026-04-16T11:39:25.871Z</time></trkpt><trkpt lat="42.708375" lon="-8.5727467"><ele>443.0</ele><time>2026-04-16T11:39:26.872Z</time></trkpt><trkpt lat="42.7084383" lon="-8.57264"><ele>441.75</ele><time>2026-04-16T11:39:27.871Z</time></trkpt><trkpt lat="42.7085033" lon="-8.57252"><ele>440.5</ele><time>2026-04-16T11:39:28.872Z</time></trkpt><trkpt lat="42.708565" lon="-8.57239"><ele>439.25</ele><time>2026-04-16T11:39:29.871Z</time></trkpt><trkpt lat="42.7086317" lon="-8.5722517"><ele>438.0</ele><time>2026-04-16T11:39:30.872Z</time></trkpt><trkpt lat="42.7087033" lon="-8.5720917"><ele>433.0</ele><time>2026-04-16T11:39:31.872Z</time></trkpt><trkpt lat="42.708795" lon="-8.5719167"><ele>428.0</ele><time>2026-04-16T11:39:32.871Z</time></trkpt><trkpt lat="42.7088867" lon="-8.5717617"><ele>423.0</ele><time>2026-04-16T11:39:33.872Z</time></trkpt><trkpt lat="42.7089717" lon="-8.5716"><ele>423.0</ele><time>2026-04-16T11:39:34.871Z</time></trkpt><trkpt lat="42.70907" lon="-8.5714133"><ele>423.0</ele><time>2026-04-16T11:39:35.872Z</time></trkpt><trkpt lat="42.709135" lon="-8.5712233"><ele>423.0</ele><time>2026-04-16T11:39:36.871Z</time></trkpt><trkpt lat="42.709185" lon="-8.5710433"><ele>421.0</ele><time>2026-04-16T11:39:37.871Z</time></trkpt><trkpt lat="42.7092433" lon="-8.5708533"><ele>419.0</ele><time>2026-04-16T11:39:38.872Z</time></trkpt><trkpt lat="42.7093317" lon="-8.5706483"><ele>417.0</ele><time>2026-04-16T11:39:39.871Z</time></trkpt><trkpt lat="42.70943" lon="-8.5704483"><ele>413.0</ele><time>2026-04-16T11:39:40.872Z</time></trkpt><trkpt lat="42.7095367" lon="-8.5702633"><ele>409.0</ele><time>2026-04-16T11:39:41.872Z</time></trkpt><trkpt lat="42.70965" lon="-8.5700917"><ele>405.0</ele><time>2026-04-16T11:39:42.872Z</time></trkpt><trkpt lat="42.7097617" lon="-8.569925"><ele>405.0</ele><time>2026-04-16T11:39:43.871Z</time></trkpt><trkpt lat="42.7098717" lon="-8.5697883"><ele>405.0</ele><time>2026-04-16T11:39:44.871Z</time></trkpt><trkpt lat="42.7100033" lon="-8.5696567"><ele>405.0</ele><time>2026-04-16T11:39:45.872Z</time></trkpt><trkpt lat="42.7101483" lon="-8.56954"><ele>399.5</ele><time>2026-04-16T11:39:46.871Z</time></trkpt><trkpt lat="42.710275" lon="-8.5694617"><ele>394.0</ele><time>2026-04-16T11:39:47.871Z</time></trkpt><trkpt lat="42.7104033" lon="-8.5694"><ele>388.5</ele><time>2026-04-16T11:39:48.871Z</time></trkpt><trkpt lat="42.710535" lon="-8.56937"><ele>383.0</ele><time>2026-04-16T11:39:49.871Z</time></trkpt><trkpt lat="42.7106783" lon="-8.5693583"><ele>383.0</ele><time>2026-04-16T11:39:50.871Z</time></trkpt><trkpt lat="42.71082" lon="-8.5693583"><ele>383.0</ele><time>2026-04-16T11:39:51.872Z</time></trkpt><trkpt lat="42.71094" lon="-8.569375"><ele>383.0</ele><time>2026-04-16T11:39:52.872Z</time></trkpt><trkpt lat="42.711035" lon="-8.5694033"><ele>383.0</ele><time>2026-04-16T11:39:53.872Z</time></trkpt><trkpt lat="42.711135" lon="-8.5694817"><ele>382.25</ele><time>2026-04-16T11:39:55.871Z</time></trkpt><trkpt lat="42.7111833" lon="-8.569555"><ele>381.5</ele><time>2026-04-16T11:39:56.871Z</time></trkpt><trkpt lat="42.7112317" lon="-8.5696817"><ele>380.75</ele><time>2026-04-16T11:39:57.872Z</time></trkpt><trkpt lat="42.71128" lon="-8.5698467"><ele>380.0</ele><time>2026-04-16T11:39:58.871Z</time></trkpt><trkpt lat="42.71135" lon="-8.5700733"><ele>380.0</ele><time>2026-04-16T11:39:59.872Z</time></trkpt><trkpt lat="42.7114367" lon="-8.570275"><ele>380.0</ele><time>2026-04-16T11:40:00.871Z</time></trkpt><trkpt lat="42.711535" lon="-8.5704467"><ele>380.0</ele><time>2026-04-16T11:40:01.871Z</time></trkpt><trkpt lat="42.7116117" lon="-8.5706217"><ele>383.6666666666667</ele><time>2026-04-16T11:40:02.872Z</time></trkpt><trkpt lat="42.7116683" lon="-8.5708167"><ele>387.33333333333337</ele><time>2026-04-16T11:40:03.872Z</time></trkpt><trkpt lat="42.711705" lon="-8.5710267"><ele>391.0</ele><time>2026-04-16T11:40:04.872Z</time></trkpt><trkpt lat="42.71173" lon="-8.5712367"><ele>391.33333333333337</ele><time>2026-04-16T11:40:05.872Z</time></trkpt><trkpt lat="42.711755" lon="-8.5714433"><ele>391.66666666666663</ele><time>2026-04-16T11:40:06.871Z</time></trkpt><trkpt lat="42.7117667" lon="-8.571665"><ele>392.0</ele><time>2026-04-16T11:40:07.871Z</time></trkpt><trkpt lat="42.7117467" lon="-8.57188"><ele>392.5</ele><time>2026-04-16T11:40:08.872Z</time></trkpt><trkpt lat="42.7117317" lon="-8.5720633"><ele>393.0</ele><time>2026-04-16T11:40:09.871Z</time></trkpt><trkpt lat="42.7117333" lon="-8.5722233"><ele>393.5</ele><time>2026-04-16T11:40:10.871Z</time></trkpt><trkpt lat="42.7117617" lon="-8.5723717"><ele>394.0</ele><time>2026-04-16T11:40:11.872Z</time></trkpt><trkpt lat="42.7118067" lon="-8.572525"><ele>394.0</ele><time>2026-04-16T11:40:12.871Z</time></trkpt><trkpt lat="42.7118567" lon="-8.5726933"><ele>394.0</ele><time>2026-04-16T11:40:13.872Z</time></trkpt><trkpt lat="42.7119033" lon="-8.5728467"><ele>394.0</ele><time>2026-04-16T11:40:14.872Z</time></trkpt><trkpt lat="42.7119383" lon="-8.5730167"><ele>394.0</ele><time>2026-04-16T11:40:15.871Z</time></trkpt><trkpt lat="42.7119533" lon="-8.573205"><ele>392.6666666666667</ele><time>2026-04-16T11:40:16.871Z</time></trkpt><trkpt lat="42.71195" lon="-8.5734183"><ele>391.33333333333337</ele><time>2026-04-16T11:40:17.872Z</time></trkpt><trkpt lat="42.7119233" lon="-8.5736467"><ele>390.0</ele><time>2026-04-16T11:40:18.871Z</time></trkpt><trkpt lat="42.7118933" lon="-8.5739"><ele>392.75</ele><time>2026-04-16T11:40:19.871Z</time></trkpt><trkpt lat="42.71187" lon="-8.57412"><ele>395.5</ele><time>2026-04-16T11:40:20.872Z</time></trkpt><trkpt lat="42.7118417" lon="-8.5743033"><ele>398.25</ele><time>2026-04-16T11:40:21.871Z</time></trkpt><trkpt lat="42.7118383" lon="-8.574455"><ele>401.0</ele><time>2026-04-16T11:40:22.872Z</time></trkpt><trkpt lat="42.711865" lon="-8.5745717"><ele>400.25</ele><time>2026-04-16T11:40:23.872Z</time></trkpt><trkpt lat="42.7119117" lon="-8.574665"><ele>399.5</ele><time>2026-04-16T11:40:24.871Z</time></trkpt><trkpt lat="42.7119783" lon="-8.5747617"><ele>398.75</ele><time>2026-04-16T11:40:25.872Z</time></trkpt><trkpt lat="42.7120583" lon="-8.5749017"><ele>398.0</ele><time>2026-04-16T11:40:26.872Z</time></trkpt><trkpt lat="42.71214" lon="-8.57506"><ele>398.0</ele><time>2026-04-16T11:40:27.872Z</time></trkpt><trkpt lat="42.7122267" lon="-8.575225"><ele>398.0</ele><time>2026-04-16T11:40:28.872Z</time></trkpt><trkpt lat="42.71231" lon="-8.5753667"><ele>398.0</ele><time>2026-04-16T11:40:29.871Z</time></trkpt><trkpt lat="42.7124" lon="-8.5754817"><ele>398.0</ele><time>2026-04-16T11:40:30.871Z</time></trkpt><trkpt lat="42.712495" lon="-8.5755783"><ele>399.2</ele><time>2026-04-16T11:40:31.872Z</time></trkpt><trkpt lat="42.7125717" lon="-8.5756633"><ele>400.4</ele><time>2026-04-16T11:40:32.872Z</time></trkpt><trkpt lat="42.7126367" lon="-8.5757333"><ele>401.59999999999997</ele><time>2026-04-16T11:40:33.872Z</time></trkpt><trkpt lat="42.712695" lon="-8.5758683"><ele>402.79999999999995</ele><time>2026-04-16T11:40:35.872Z</time></trkpt><trkpt lat="42.7126967" lon="-8.5759583"><ele>404.0</ele><time>2026-04-16T11:40:36.871Z</time></trkpt><trkpt lat="42.7126917" lon="-8.5760883"><ele>405.25</ele><time>2026-04-16T11:40:37.871Z</time></trkpt><trkpt lat="42.7126967" lon="-8.5762417"><ele>406.5</ele><time>2026-04-16T11:40:38.872Z</time></trkpt><trkpt lat="42.7127133" lon="-8.5764017"><ele>407.75</ele><time>2026-04-16T11:40:39.872Z</time></trkpt><trkpt lat="42.7127617" lon="-8.57654"><ele>409.0</ele><time>2026-04-16T11:40:40.871Z</time></trkpt><trkpt lat="42.7128433" lon="-8.5766533"><ele>409.0</ele><time>2026-04-16T11:40:41.872Z</time></trkpt><trkpt lat="42.7129483" lon="-8.576755"><ele>409.0</ele><time>2026-04-16T11:40:42.872Z</time></trkpt><trkpt lat="42.7130767" lon="-8.5768467"><ele>409.0</ele><time>2026-04-16T11:40:43.871Z</time></trkpt><trkpt lat="42.7132133" lon="-8.5769317"><ele>409.0</ele><time>2026-04-16T11:40:44.871Z</time></trkpt><trkpt lat="42.7133417" lon="-8.577055"><ele>411.0</ele><time>2026-04-16T11:40:45.871Z</time></trkpt><trkpt lat="42.71344" lon="-8.5771817"><ele>413.0</ele><time>2026-04-16T11:40:46.872Z</time></trkpt><trkpt lat="42.7135033" lon="-8.5773183"><ele>415.0</ele><time>2026-04-16T11:40:47.871Z</time></trkpt><trkpt lat="42.713525" lon="-8.5774717"><ele>417.0</ele><time>2026-04-16T11:40:48.872Z</time></trkpt><trkpt lat="42.7135167" lon="-8.57764"><ele>417.0</ele><time>2026-04-16T11:40:49.872Z</time></trkpt><trkpt lat="42.7134583" lon="-8.57781"><ele>417.0</ele><time>2026-04-16T11:40:50.872Z</time></trkpt><trkpt lat="42.71337" lon="-8.5779917"><ele>417.0</ele><time>2026-04-16T11:40:51.871Z</time></trkpt><trkpt lat="42.7132733" lon="-8.57819"><ele>417.0</ele><time>2026-04-16T11:40:52.871Z</time></trkpt><trkpt lat="42.71317" lon="-8.5784017"><ele>417.0</ele><time>2026-04-16T11:40:53.872Z</time></trkpt><trkpt lat="42.71307" lon="-8.578605"><ele>417.0</ele><time>2026-04-16T11:40:54.871Z</time></trkpt><trkpt lat="42.7129817" lon="-8.5788"><ele>417.0</ele><time>2026-04-16T11:40:55.872Z</time></trkpt><trkpt lat="42.7128867" lon="-8.57898"><ele>417.0</ele><time>2026-04-16T11:40:56.871Z</time></trkpt><trkpt lat="42.7128" lon="-8.5791383"><ele>417.0</ele><time>2026-04-16T11:40:57.871Z</time></trkpt><trkpt lat="42.712705" lon="-8.5792533"><ele>417.0</ele><time>2026-04-16T11:40:58.871Z</time></trkpt><trkpt lat="42.7125917" lon="-8.57933"><ele>417.66666666666663</ele><time>2026-04-16T11:40:59.871Z</time></trkpt><trkpt lat="42.7124467" lon="-8.57937"><ele>418.3333333333333</ele><time>2026-04-16T11:41:00.871Z</time></trkpt><trkpt lat="42.71229" lon="-8.57939"><ele>419.0</ele><time>2026-04-16T11:41:01.871Z</time></trkpt><trkpt lat="42.71213" lon="-8.5794067"><ele>419.0</ele><time>2026-04-16T11:41:02.871Z</time></trkpt><trkpt lat="42.7119583" lon="-8.5794517"><ele>419.0</ele><time>2026-04-16T11:41:03.871Z</time></trkpt><trkpt lat="42.7117867" lon="-8.5795217"><ele>419.0</ele><time>2026-04-16T11:41:04.871Z</time></trkpt><trkpt lat="42.7116067" lon="-8.579595"><ele>417.0</ele><time>2026-04-16T11:41:05.872Z</time></trkpt><trkpt lat="42.7114117" lon="-8.57968"><ele>415.0</ele><time>2026-04-16T11:41:06.871Z</time></trkpt><trkpt lat="42.71123" lon="-8.5797717"><ele>413.0</ele><time>2026-04-16T11:41:07.871Z</time></trkpt><trkpt lat="42.7110567" lon="-8.5798817"><ele>413.0</ele><time>2026-04-16T11:41:08.871Z</time></trkpt><trkpt lat="42.710885" lon="-8.58001"><ele>413.0</ele><time>2026-04-16T11:41:09.871Z</time></trkpt><trkpt lat="42.71072" lon="-8.5801567"><ele>413.0</ele><time>2026-04-16T11:41:10.872Z</time></trkpt><trkpt lat="42.7105567" lon="-8.5802967"><ele>410.0</ele><time>2026-04-16T11:41:11.871Z</time></trkpt><trkpt lat="42.7103967" lon="-8.5804417"><ele>407.0</ele><time>2026-04-16T11:41:12.872Z</time></trkpt><trkpt lat="42.7102217" lon="-8.5805983"><ele>404.0</ele><time>2026-04-16T11:41:13.871Z</time></trkpt><trkpt lat="42.7100133" lon="-8.58076"><ele>401.66666666666663</ele><time>2026-04-16T11:41:14.871Z</time></trkpt><trkpt lat="42.7098083" lon="-8.5809017"><ele>399.33333333333337</ele><time>2026-04-16T11:41:15.871Z</time></trkpt><trkpt lat="42.7096083" lon="-8.58101"><ele>397.0</ele><time>2026-04-16T11:41:16.871Z</time></trkpt><trkpt lat="42.70942" lon="-8.5810917"><ele>397.33333333333337</ele><time>2026-04-16T11:41:17.872Z</time></trkpt><trkpt lat="42.7092567" lon="-8.581165"><ele>397.66666666666663</ele><time>2026-04-16T11:41:18.872Z</time></trkpt><trkpt lat="42.7091083" lon="-8.5812083"><ele>398.0</ele><time>2026-04-16T11:41:19.872Z</time></trkpt><trkpt lat="42.7089667" lon="-8.5812283"><ele>398.0</ele><time>2026-04-16T11:41:20.871Z</time></trkpt><trkpt lat="42.7088133" lon="-8.5811933"><ele>398.0</ele><time>2026-04-16T11:41:21.871Z</time></trkpt><trkpt lat="42.70866" lon="-8.58114"><ele>398.0</ele><time>2026-04-16T11:41:22.871Z</time></trkpt><trkpt lat="42.7085333" lon="-8.5810833"><ele>398.0</ele><time>2026-04-16T11:41:23.872Z</time></trkpt><trkpt lat="42.708405" lon="-8.581085"><ele>399.0</ele><time>2026-04-16T11:41:24.871Z</time></trkpt><trkpt lat="42.708285" lon="-8.5811367"><ele>400.0</ele><time>2026-04-16T11:41:25.871Z</time></trkpt><trkpt lat="42.7082033" lon="-8.5812233"><ele>401.0</ele><time>2026-04-16T11:41:26.872Z</time></trkpt><trkpt lat="42.7081417" lon="-8.5813233"><ele>402.0</ele><time>2026-04-16T11:41:27.872Z</time></trkpt><trkpt lat="42.7081" lon="-8.581445"><ele>403.0</ele><time>2026-04-16T11:41:28.871Z</time></trkpt><trkpt lat="42.7080567" lon="-8.5815817"><ele>398.0</ele><time>2026-04-16T11:41:29.871Z</time></trkpt><trkpt lat="42.7080083" lon="-8.5817183"><ele>393.0</ele><time>2026-04-16T11:41:30.872Z</time></trkpt><trkpt lat="42.7079517" lon="-8.5818583"><ele>388.0</ele><time>2026-04-16T11:41:31.872Z</time></trkpt><trkpt lat="42.7078867" lon="-8.582"><ele>383.0</ele><time>2026-04-16T11:41:32.871Z</time></trkpt><trkpt lat="42.70781" lon="-8.5821283"><ele>379.75</ele><time>2026-04-16T11:41:33.872Z</time></trkpt><trkpt lat="42.707725" lon="-8.5822467"><ele>376.5</ele><time>2026-04-16T11:41:34.871Z</time></trkpt><trkpt lat="42.7076183" lon="-8.58233"><ele>373.25</ele><time>2026-04-16T11:41:35.872Z</time></trkpt><trkpt lat="42.7074867" lon="-8.5823967"><ele>370.0</ele><time>2026-04-16T11:41:36.872Z</time></trkpt><trkpt lat="42.7073433" lon="-8.5824517"><ele>370.0</ele><time>2026-04-16T11:41:37.871Z</time></trkpt><trkpt lat="42.7072067" lon="-8.58251"><ele>370.0</ele><time>2026-04-16T11:41:38.872Z</time></trkpt><trkpt lat="42.707095" lon="-8.5825583"><ele>370.0</ele><time>2026-04-16T11:41:39.872Z</time></trkpt><trkpt lat="42.70701" lon="-8.582625"><ele>370.0</ele><time>2026-04-16T11:41:40.871Z</time></trkpt><trkpt lat="42.706955" lon="-8.582705"><ele>370.0</ele><time>2026-04-16T11:41:41.871Z</time></trkpt><trkpt lat="42.7069267" lon="-8.5827933"><ele>367.66666666666663</ele><time>2026-04-16T11:41:42.871Z</time></trkpt><trkpt lat="42.7069667" lon="-8.5829133"><ele>365.3333333333333</ele><time>2026-04-16T11:41:44.872Z</time></trkpt><trkpt lat="42.70703" lon="-8.5829467"><ele>363.0</ele><time>2026-04-16T11:41:45.871Z</time></trkpt><trkpt lat="42.7071017" lon="-8.58299"><ele>360.6666666666667</ele><time>2026-04-16T11:41:46.871Z</time></trkpt><trkpt lat="42.7071717" lon="-8.58304"><ele>358.33333333333337</ele><time>2026-04-16T11:41:47.871Z</time></trkpt><trkpt lat="42.7072583" lon="-8.58309"><ele>356.0</ele><time>2026-04-16T11:41:48.872Z</time></trkpt><trkpt lat="42.7074133" lon="-8.58315"><ele>356.0</ele><time>2026-04-16T11:41:49.872Z</time></trkpt><trkpt lat="42.7076033" lon="-8.5831883"><ele>356.0</ele><time>2026-04-16T11:41:50.871Z</time></trkpt><trkpt lat="42.7077833" lon="-8.5831933"><ele>356.0</ele><time>2026-04-16T11:41:51.871Z</time></trkpt><trkpt lat="42.707915" lon="-8.58318"><ele>354.4</ele><time>2026-04-16T11:41:52.871Z</time></trkpt><trkpt lat="42.7080267" lon="-8.58314"><ele>352.8</ele><time>2026-04-16T11:41:53.871Z</time></trkpt><trkpt lat="42.708125" lon="-8.583085"><ele>351.2</ele><time>2026-04-16T11:41:54.872Z</time></trkpt><trkpt lat="42.7082083" lon="-8.58304"><ele>349.59999999999997</ele><time>2026-04-16T11:41:55.871Z</time></trkpt><trkpt lat="42.7082867" lon="-8.5830133"><ele>348.0</ele><time>2026-04-16T11:41:56.872Z</time></trkpt><trkpt lat="42.7083783" lon="-8.583005"><ele>348.0</ele><time>2026-04-16T11:41:57.871Z</time></trkpt><trkpt lat="42.7084867" lon="-8.5830267"><ele>348.0</ele><time>2026-04-16T11:41:58.871Z</time></trkpt><trkpt lat="42.708625" lon="-8.58306"><ele>348.0</ele><time>2026-04-16T11:41:59.871Z</time></trkpt><trkpt lat="42.7087867" lon="-8.58312"><ele>348.0</ele><time>2026-04-16T11:42:00.872Z</time></trkpt><trkpt lat="42.70894" lon="-8.5831767"><ele>347.25</ele><time>2026-04-16T11:42:01.872Z</time></trkpt><trkpt lat="42.7090933" lon="-8.5832167"><ele>346.5</ele><time>2026-04-16T11:42:02.872Z</time></trkpt><trkpt lat="42.7092333" lon="-8.58324"><ele>345.75</ele><time>2026-04-16T11:42:03.871Z</time></trkpt><trkpt lat="42.7093717" lon="-8.5832417"><ele>345.0</ele><time>2026-04-16T11:42:04.871Z</time></trkpt><trkpt lat="42.709505" lon="-8.5832517"><ele>344.2</ele><time>2026-04-16T11:42:05.871Z</time></trkpt><trkpt lat="42.709615" lon="-8.5832567"><ele>343.4</ele><time>2026-04-16T11:42:06.871Z</time></trkpt><trkpt lat="42.709725" lon="-8.5832817"><ele>342.6</ele><time>2026-04-16T11:42:07.871Z</time></trkpt><trkpt lat="42.7098217" lon="-8.583345"><ele>341.8</ele><time>2026-04-16T11:42:08.871Z</time></trkpt><trkpt lat="42.70992" lon="-8.583425"><ele>341.0</ele><time>2026-04-16T11:42:09.871Z</time></trkpt><trkpt lat="42.7100233" lon="-8.5834983"><ele>341.0</ele><time>2026-04-16T11:42:10.872Z</time></trkpt><trkpt lat="42.7101317" lon="-8.5835567"><ele>341.0</ele><time>2026-04-16T11:42:11.871Z</time></trkpt><trkpt lat="42.7102517" lon="-8.5836"><ele>341.0</ele><time>2026-04-16T11:42:12.872Z</time></trkpt><trkpt lat="42.710395" lon="-8.58363"><ele>341.0</ele><time>2026-04-16T11:42:13.871Z</time></trkpt><trkpt lat="42.710545" lon="-8.5836433"><ele>341.25</ele><time>2026-04-16T11:42:14.872Z</time></trkpt><trkpt lat="42.710685" lon="-8.5836283"><ele>341.5</ele><time>2026-04-16T11:42:15.872Z</time></trkpt><trkpt lat="42.7108117" lon="-8.583575"><ele>341.75</ele><time>2026-04-16T11:42:16.872Z</time></trkpt><trkpt lat="42.7109183" lon="-8.5834867"><ele>342.0</ele><time>2026-04-16T11:42:17.871Z</time></trkpt><trkpt lat="42.710995" lon="-8.5833667"><ele>342.0</ele><time>2026-04-16T11:42:18.872Z</time></trkpt><trkpt lat="42.7110617" lon="-8.5832217"><ele>342.0</ele><time>2026-04-16T11:42:19.871Z</time></trkpt><trkpt lat="42.7111167" lon="-8.5830883"><ele>342.0</ele><time>2026-04-16T11:42:20.871Z</time></trkpt><trkpt lat="42.711175" lon="-8.5829933"><ele>342.0</ele><time>2026-04-16T11:42:21.871Z</time></trkpt><trkpt lat="42.7112317" lon="-8.5829183"><ele>342.0</ele><time>2026-04-16T11:42:22.872Z</time></trkpt><trkpt lat="42.711295" lon="-8.582855"><ele>340.20000000000005</ele><time>2026-04-16T11:42:23.872Z</time></trkpt><trkpt lat="42.7113683" lon="-8.5828217"><ele>338.4</ele><time>2026-04-16T11:42:24.872Z</time></trkpt><trkpt lat="42.7114433" lon="-8.58282"><ele>336.6</ele><time>2026-04-16T11:42:25.872Z</time></trkpt><trkpt lat="42.711525" lon="-8.582835"><ele>334.79999999999995</ele><time>2026-04-16T11:42:26.872Z</time></trkpt><trkpt lat="42.71161" lon="-8.5828533"><ele>333.0</ele><time>2026-04-16T11:42:27.872Z</time></trkpt><trkpt lat="42.7117217" lon="-8.58295"><ele>333.0</ele><time>2026-04-16T11:42:28.872Z</time></trkpt><trkpt lat="42.7118533" lon="-8.5831183"><ele>333.0</ele><time>2026-04-16T11:42:29.871Z</time></trkpt><trkpt lat="42.7119633" lon="-8.5832633"><ele>333.0</ele><time>2026-04-16T11:42:30.871Z</time></trkpt><trkpt lat="42.7120467" lon="-8.5833783"><ele>334.75</ele><time>2026-04-16T11:42:31.871Z</time></trkpt><trkpt lat="42.7121367" lon="-8.5835233"><ele>336.5</ele><time>2026-04-16T11:42:32.871Z</time></trkpt><trkpt lat="42.7122183" lon="-8.5836517"><ele>338.25</ele><time>2026-04-16T11:42:33.871Z</time></trkpt><trkpt lat="42.712305" lon="-8.5837267"><ele>340.0</ele><time>2026-04-16T11:42:34.871Z</time></trkpt><trkpt lat="42.7124033" lon="-8.583755"><ele>340.3333333333333</ele><time>2026-04-16T11:42:35.872Z</time></trkpt><trkpt lat="42.712535" lon="-8.5837417"><ele>340.6666666666667</ele><time>2026-04-16T11:42:36.871Z</time></trkpt><trkpt lat="42.7127017" lon="-8.5837033"><ele>341.0</ele><time>2026-04-16T11:42:37.871Z</time></trkpt><trkpt lat="42.7128833" lon="-8.5836567"><ele>341.0</ele><time>2026-04-16T11:42:38.871Z</time></trkpt><trkpt lat="42.7130567" lon="-8.583605"><ele>341.0</ele><time>2026-04-16T11:42:39.871Z</time></trkpt><trkpt lat="42.713225" lon="-8.583545"><ele>341.0</ele><time>2026-04-16T11:42:40.871Z</time></trkpt><trkpt lat="42.7133883" lon="-8.5834833"><ele>341.0</ele><time>2026-04-16T11:42:41.872Z</time></trkpt><trkpt lat="42.7135333" lon="-8.583435"><ele>341.0</ele><time>2026-04-16T11:42:42.871Z</time></trkpt><trkpt lat="42.71364" lon="-8.5834117"><ele>341.0</ele><time>2026-04-16T11:42:43.872Z</time></trkpt><trkpt lat="42.7137267" lon="-8.5834333"><ele>341.0</ele><time>2026-04-16T11:42:44.871Z</time></trkpt><trkpt lat="42.71382" lon="-8.58349"><ele>341.0</ele><time>2026-04-16T11:42:45.871Z</time></trkpt><trkpt lat="42.7139283" lon="-8.5835683"><ele>343.25</ele><time>2026-04-16T11:42:46.871Z</time></trkpt><trkpt lat="42.714045" lon="-8.5836583"><ele>345.5</ele><time>2026-04-16T11:42:47.872Z</time></trkpt><trkpt lat="42.7141867" lon="-8.5837117"><ele>347.75</ele><time>2026-04-16T11:42:48.872Z</time></trkpt><trkpt lat="42.7143517" lon="-8.5837267"><ele>350.0</ele><time>2026-04-16T11:42:49.871Z</time></trkpt><trkpt lat="42.7145333" lon="-8.5837383"><ele>341.33333333333337</ele><time>2026-04-16T11:42:50.871Z</time></trkpt><trkpt lat="42.7147267" lon="-8.5837533"><ele>332.6666666666667</ele><time>2026-04-16T11:42:51.872Z</time></trkpt><trkpt lat="42.71492" lon="-8.58378"><ele>324.0</ele><time>2026-04-16T11:42:52.871Z</time></trkpt><trkpt lat="42.7151383" lon="-8.5838167"><ele>324.0</ele><time>2026-04-16T11:42:53.872Z</time></trkpt><trkpt lat="42.7153383" lon="-8.5838467"><ele>324.0</ele><time>2026-04-16T11:42:54.872Z</time></trkpt><trkpt lat="42.7155017" lon="-8.583865"><ele>324.0</ele><time>2026-04-16T11:42:55.872Z</time></trkpt><trkpt lat="42.71566" lon="-8.5839167"><ele>324.0</ele><time>2026-04-16T11:42:56.871Z</time></trkpt><trkpt lat="42.71581" lon="-8.5839933"><ele>324.0</ele><time>2026-04-16T11:42:57.871Z</time></trkpt><trkpt lat="42.71595" lon="-8.584075"><ele>324.0</ele><time>2026-04-16T11:42:58.872Z</time></trkpt><trkpt lat="42.7160933" lon="-8.58414"><ele>321.5</ele><time>2026-04-16T11:42:59.872Z</time></trkpt><trkpt lat="42.7162417" lon="-8.584175"><ele>319.0</ele><time>2026-04-16T11:43:00.871Z</time></trkpt><trkpt lat="42.716395" lon="-8.5841833"><ele>316.5</ele><time>2026-04-16T11:43:01.871Z</time></trkpt><trkpt lat="42.7165283" lon="-8.5841717"><ele>314.0</ele><time>2026-04-16T11:43:02.872Z</time></trkpt><trkpt lat="42.7166367" lon="-8.5841467"><ele>314.0</ele><time>2026-04-16T11:43:03.872Z</time></trkpt><trkpt lat="42.7167333" lon="-8.58412"><ele>314.0</ele><time>2026-04-16T11:43:04.872Z</time></trkpt><trkpt lat="42.7168" lon="-8.58406"><ele>314.0</ele><time>2026-04-16T11:43:05.872Z</time></trkpt><trkpt lat="42.7168817" lon="-8.58396"><ele>314.0</ele><time>2026-04-16T11:43:07.871Z</time></trkpt><trkpt lat="42.7169417" lon="-8.583905"><ele>314.0</ele><time>2026-04-16T11:43:08.871Z</time></trkpt><trkpt lat="42.7170233" lon="-8.5838617"><ele>314.0</ele><time>2026-04-16T11:43:09.871Z</time></trkpt><trkpt lat="42.7171117" lon="-8.583825"><ele>312.2</ele><time>2026-04-16T11:43:10.872Z</time></trkpt><trkpt lat="42.7172017" lon="-8.5838"><ele>310.4</ele><time>2026-04-16T11:43:11.872Z</time></trkpt><trkpt lat="42.7172917" lon="-8.5837917"><ele>308.6</ele><time>2026-04-16T11:43:12.871Z</time></trkpt><trkpt lat="42.71738" lon="-8.5838017"><ele>306.8</ele><time>2026-04-16T11:43:13.871Z</time></trkpt><trkpt lat="42.71748" lon="-8.583825"><ele>305.0</ele><time>2026-04-16T11:43:14.871Z</time></trkpt><trkpt lat="42.7175783" lon="-8.5838667"><ele>305.0</ele><time>2026-04-16T11:43:15.872Z</time></trkpt><trkpt lat="42.7176917" lon="-8.58393"><ele>305.0</ele><time>2026-04-16T11:43:16.871Z</time></trkpt><trkpt lat="42.71786" lon="-8.5839933"><ele>305.0</ele><time>2026-04-16T11:43:17.872Z</time></trkpt><trkpt lat="42.7180183" lon="-8.584035"><ele>304.6666666666667</ele><time>2026-04-16T11:43:18.871Z</time></trkpt><trkpt lat="42.7182167" lon="-8.58417"><ele>304.3333333333333</ele><time>2026-04-16T11:43:19.872Z</time></trkpt><trkpt lat="42.7184" lon="-8.584185"><ele>304.0</ele><time>2026-04-16T11:43:20.871Z</time></trkpt><trkpt lat="42.7185883" lon="-8.584155"><ele>302.66666666666663</ele><time>2026-04-16T11:43:21.872Z</time></trkpt><trkpt lat="42.7187983" lon="-8.5841183"><ele>301.3333333333333</ele><time>2026-04-16T11:43:22.872Z</time></trkpt><trkpt lat="42.718985" lon="-8.5840517"><ele>300.0</ele><time>2026-04-16T11:43:23.872Z</time></trkpt><trkpt lat="42.71917" lon="-8.583965"><ele>300.0</ele><time>2026-04-16T11:43:24.871Z</time></trkpt><trkpt lat="42.71935" lon="-8.5838733"><ele>300.0</ele><time>2026-04-16T11:43:25.871Z</time></trkpt><trkpt lat="42.7195067" lon="-8.5837833"><ele>300.0</ele><time>2026-04-16T11:43:26.872Z</time></trkpt><trkpt lat="42.719665" lon="-8.5836517"><ele>304.6666666666667</ele><time>2026-04-16T11:43:27.872Z</time></trkpt><trkpt lat="42.71982" lon="-8.583505"><ele>309.33333333333337</ele><time>2026-04-16T11:43:28.872Z</time></trkpt><trkpt lat="42.719965" lon="-8.5833517"><ele>314.0</ele><time>2026-04-16T11:43:29.872Z</time></trkpt><trkpt lat="42.7200933" lon="-8.5832167"><ele>314.0</ele><time>2026-04-16T11:43:30.871Z</time></trkpt><trkpt lat="42.7202117" lon="-8.5831033"><ele>314.0</ele><time>2026-04-16T11:43:31.871Z</time></trkpt><trkpt lat="42.7203667" lon="-8.583"><ele>314.0</ele><time>2026-04-16T11:43:32.871Z</time></trkpt><trkpt lat="42.7205283" lon="-8.5829133"><ele>317.6666666666667</ele><time>2026-04-16T11:43:33.872Z</time></trkpt><trkpt lat="42.72068" lon="-8.58282"><ele>321.3333333333333</ele><time>2026-04-16T11:43:34.871Z</time></trkpt><trkpt lat="42.72083" lon="-8.5827517"><ele>325.0</ele><time>2026-04-16T11:43:35.871Z</time></trkpt><trkpt lat="42.7210033" lon="-8.5827217"><ele>323.3333333333333</ele><time>2026-04-16T11:43:36.872Z</time></trkpt><trkpt lat="42.72117" lon="-8.582725"><ele>321.6666666666667</ele><time>2026-04-16T11:43:37.871Z</time></trkpt><trkpt lat="42.7213333" lon="-8.5827117"><ele>320.0</ele><time>2026-04-16T11:43:38.871Z</time></trkpt><trkpt lat="42.7214933" lon="-8.58266"><ele>320.0</ele><time>2026-04-16T11:43:39.871Z</time></trkpt><trkpt lat="42.7216483" lon="-8.5825817"><ele>320.0</ele><time>2026-04-16T11:43:40.872Z</time></trkpt><trkpt lat="42.721805" lon="-8.5824667"><ele>320.0</ele><time>2026-04-16T11:43:41.872Z</time></trkpt><trkpt lat="42.7219483" lon="-8.5823333"><ele>321.6666666666667</ele><time>2026-04-16T11:43:42.871Z</time></trkpt><trkpt lat="42.7220817" lon="-8.5822183"><ele>323.3333333333333</ele><time>2026-04-16T11:43:43.872Z</time></trkpt><trkpt lat="42.722225" lon="-8.58208"><ele>325.0</ele><time>2026-04-16T11:43:44.872Z</time></trkpt><trkpt lat="42.7223517" lon="-8.5819467"><ele>325.0</ele><time>2026-04-16T11:43:45.871Z</time></trkpt><trkpt lat="42.722495" lon="-8.581835"><ele>325.0</ele><time>2026-04-16T11:43:46.871Z</time></trkpt><trkpt lat="42.7226267" lon="-8.5817467"><ele>325.0</ele><time>2026-04-16T11:43:47.872Z</time></trkpt><trkpt lat="42.7227483" lon="-8.58169"><ele>325.0</ele><time>2026-04-16T11:43:48.872Z</time></trkpt><trkpt lat="42.72288" lon="-8.5816433"><ele>321.5</ele><time>2026-04-16T11:43:49.871Z</time></trkpt><trkpt lat="42.7230133" lon="-8.5816233"><ele>318.0</ele><time>2026-04-16T11:43:50.872Z</time></trkpt><trkpt lat="42.7231467" lon="-8.58162"><ele>314.5</ele><time>2026-04-16T11:43:51.871Z</time></trkpt><trkpt lat="42.7232667" lon="-8.5816083"><ele>311.0</ele><time>2026-04-16T11:43:52.872Z</time></trkpt><trkpt lat="42.723375" lon="-8.5815817"><ele>311.0</ele><time>2026-04-16T11:43:53.872Z</time></trkpt><trkpt lat="42.7234567" lon="-8.58153"><ele>311.0</ele><time>2026-04-16T11:43:54.872Z</time></trkpt><trkpt lat="42.7235083" lon="-8.58146"><ele>311.0</ele><time>2026-04-16T11:43:55.871Z</time></trkpt><trkpt lat="42.72353" lon="-8.58137"><ele>311.0</ele><time>2026-04-16T11:43:56.871Z</time></trkpt><trkpt lat="42.7235267" lon="-8.5812517"><ele>311.0</ele><time>2026-04-16T11:43:57.872Z</time></trkpt><trkpt lat="42.72351" lon="-8.58112"><ele>311.0</ele><time>2026-04-16T11:43:58.872Z</time></trkpt><trkpt lat="42.7234667" lon="-8.5809817"><ele>311.33333333333337</ele><time>2026-04-16T11:43:59.871Z</time></trkpt><trkpt lat="42.7233567" lon="-8.58078"><ele>311.6666666666667</ele><time>2026-04-16T11:44:00.872Z</time></trkpt><trkpt lat="42.7232783" lon="-8.580605"><ele>312.0</ele><time>2026-04-16T11:44:01.872Z</time></trkpt><trkpt lat="42.7232217" lon="-8.5804517"><ele>309.0</ele><time>2026-04-16T11:44:02.871Z</time></trkpt><trkpt lat="42.7231917" lon="-8.58032"><ele>306.0</ele><time>2026-04-16T11:44:03.871Z</time></trkpt><trkpt lat="42.7231833" lon="-8.58018"><ele>303.0</ele><time>2026-04-16T11:44:04.872Z</time></trkpt><trkpt lat="42.7231983" lon="-8.580015"><ele>300.0</ele><time>2026-04-16T11:44:05.872Z</time></trkpt><trkpt lat="42.723235" lon="-8.5798317"><ele>300.0</ele><time>2026-04-16T11:44:06.872Z</time></trkpt><trkpt lat="42.72327" lon="-8.57966"><ele>300.0</ele><time>2026-04-16T11:44:07.872Z</time></trkpt><trkpt lat="42.7233" lon="-8.5795117"><ele>300.0</ele><time>2026-04-16T11:44:08.871Z</time></trkpt><trkpt lat="42.7233317" lon="-8.579395"><ele>300.0</ele><time>2026-04-16T11:44:09.872Z</time></trkpt><trkpt lat="42.7233717" lon="-8.5793017"><ele>300.0</ele><time>2026-04-16T11:44:10.872Z</time></trkpt><trkpt lat="42.72342" lon="-8.5792417"><ele>300.0</ele><time>2026-04-16T11:44:11.872Z</time></trkpt><trkpt lat="42.723505" lon="-8.5792183"><ele>300.0</ele><time>2026-04-16T11:44:13.871Z</time></trkpt><trkpt lat="42.723525" lon="-8.57934"><ele>300.0</ele><time>2026-04-16T11:44:15.872Z</time></trkpt><trkpt lat="42.72352" lon="-8.5794383"><ele>300.0</ele><time>2026-04-16T11:44:16.872Z</time></trkpt><trkpt lat="42.7235083" lon="-8.579555"><ele>300.0</ele><time>2026-04-16T11:44:17.871Z</time></trkpt><trkpt lat="42.723505" lon="-8.5796817"><ele>300.0</ele><time>2026-04-16T11:44:18.872Z</time></trkpt><trkpt lat="42.7235067" lon="-8.5798217"><ele>300.0</ele><time>2026-04-16T11:44:19.871Z</time></trkpt><trkpt lat="42.7235217" lon="-8.579975"><ele>300.0</ele><time>2026-04-16T11:44:20.872Z</time></trkpt><trkpt lat="42.7235583" lon="-8.5801167"><ele>300.0</ele><time>2026-04-16T11:44:21.871Z</time></trkpt><trkpt lat="42.7236167" lon="-8.58025"><ele>300.0</ele><time>2026-04-16T11:44:22.871Z</time></trkpt><trkpt lat="42.7236967" lon="-8.5803783"><ele>296.5</ele><time>2026-04-16T11:44:23.871Z</time></trkpt><trkpt lat="42.7237867" lon="-8.5805017"><ele>293.0</ele><time>2026-04-16T11:44:24.871Z</time></trkpt><trkpt lat="42.7238633" lon="-8.5806233"><ele>289.5</ele><time>2026-04-16T11:44:25.872Z</time></trkpt><trkpt lat="42.723935" lon="-8.5807367"><ele>286.0</ele><time>2026-04-16T11:44:26.872Z</time></trkpt><trkpt lat="42.7240083" lon="-8.5808467"><ele>286.0</ele><time>2026-04-16T11:44:27.871Z</time></trkpt><trkpt lat="42.72408" lon="-8.5809633"><ele>286.0</ele><time>2026-04-16T11:44:28.871Z</time></trkpt><trkpt lat="42.724155" lon="-8.5810833"><ele>286.0</ele><time>2026-04-16T11:44:29.872Z</time></trkpt><trkpt lat="42.7242283" lon="-8.5812033"><ele>286.0</ele><time>2026-04-16T11:44:30.872Z</time></trkpt><trkpt lat="42.7242983" lon="-8.58132"><ele>286.8</ele><time>2026-04-16T11:44:31.872Z</time></trkpt><trkpt lat="42.7243667" lon="-8.5814367"><ele>287.6</ele><time>2026-04-16T11:44:32.872Z</time></trkpt><trkpt lat="42.7244283" lon="-8.581555"><ele>288.4</ele><time>2026-04-16T11:44:33.871Z</time></trkpt><trkpt lat="42.72448" lon="-8.5816767"><ele>289.2</ele><time>2026-04-16T11:44:34.872Z</time></trkpt><trkpt lat="42.7245117" lon="-8.5818133"><ele>290.0</ele><time>2026-04-16T11:44:35.871Z</time></trkpt><trkpt lat="42.72452" lon="-8.5819567"><ele>289.0</ele><time>2026-04-16T11:44:36.872Z</time></trkpt><trkpt lat="42.7245117" lon="-8.5820967"><ele>288.0</ele><time>2026-04-16T11:44:37.871Z</time></trkpt><trkpt lat="42.724485" lon="-8.5822283"><ele>287.0</ele><time>2026-04-16T11:44:38.872Z</time></trkpt><trkpt lat="42.7244417" lon="-8.58236"><ele>286.0</ele><time>2026-04-16T11:44:39.871Z</time></trkpt><trkpt lat="42.7243917" lon="-8.58249"><ele>285.0</ele><time>2026-04-16T11:44:40.872Z</time></trkpt><trkpt lat="42.7243267" lon="-8.5826067"><ele>285.0</ele><time>2026-04-16T11:44:41.871Z</time></trkpt><trkpt lat="42.7242583" lon="-8.5827167"><ele>285.0</ele><time>2026-04-16T11:44:42.872Z</time></trkpt><trkpt lat="42.724185" lon="-8.5828267"><ele>285.0</ele><time>2026-04-16T11:44:43.871Z</time></trkpt><trkpt lat="42.7241033" lon="-8.5829317"><ele>285.0</ele><time>2026-04-16T11:44:44.872Z</time></trkpt><trkpt lat="42.72402" lon="-8.5830317"><ele>285.0</ele><time>2026-04-16T11:44:45.871Z</time></trkpt><trkpt lat="42.7239333" lon="-8.5831333"><ele>284.0</ele><time>2026-04-16T11:44:46.871Z</time></trkpt><trkpt lat="42.72384" lon="-8.5832167"><ele>283.0</ele><time>2026-04-16T11:44:47.871Z</time></trkpt><trkpt lat="42.723745" lon="-8.583295"><ele>282.0</ele><time>2026-04-16T11:44:48.872Z</time></trkpt><trkpt lat="42.723645" lon="-8.58336"><ele>281.0</ele><time>2026-04-16T11:44:49.871Z</time></trkpt><trkpt lat="42.7235417" lon="-8.5834283"><ele>280.0</ele><time>2026-04-16T11:44:50.872Z</time></trkpt><trkpt lat="42.7234367" lon="-8.5834967"><ele>280.0</ele><time>2026-04-16T11:44:51.871Z</time></trkpt><trkpt lat="42.7233267" lon="-8.58356"><ele>280.0</ele><time>2026-04-16T11:44:52.871Z</time></trkpt><trkpt lat="42.7232133" lon="-8.5836267"><ele>280.0</ele><time>2026-04-16T11:44:53.871Z</time></trkpt><trkpt lat="42.723115" lon="-8.5836967"><ele>280.0</ele><time>2026-04-16T11:44:54.871Z</time></trkpt><trkpt lat="42.7230083" lon="-8.58376"><ele>276.6</ele><time>2026-04-16T11:44:55.872Z</time></trkpt><trkpt lat="42.7229067" lon="-8.5838283"><ele>273.2</ele><time>2026-04-16T11:44:56.871Z</time></trkpt><trkpt lat="42.72281" lon="-8.5839"><ele>269.8</ele><time>2026-04-16T11:44:57.872Z</time></trkpt><trkpt lat="42.7227133" lon="-8.5839683"><ele>266.4</ele><time>2026-04-16T11:44:58.872Z</time></trkpt><trkpt lat="42.7226167" lon="-8.58404"><ele>263.0</ele><time>2026-04-16T11:44:59.872Z</time></trkpt><trkpt lat="42.72252" lon="-8.5841133"><ele>263.0</ele><time>2026-04-16T11:45:00.872Z</time></trkpt><trkpt lat="42.7224267" lon="-8.5841867"><ele>263.0</ele><time>2026-04-16T11:45:01.871Z</time></trkpt><trkpt lat="42.7223267" lon="-8.5842667"><ele>263.0</ele><time>2026-04-16T11:45:02.872Z</time></trkpt><trkpt lat="42.72222" lon="-8.584355"><ele>263.0</ele><time>2026-04-16T11:45:03.871Z</time></trkpt><trkpt lat="42.7221133" lon="-8.58444"><ele>260.1666666666667</ele><time>2026-04-16T11:45:04.871Z</time></trkpt><trkpt lat="42.72202" lon="-8.5845133"><ele>257.33333333333337</ele><time>2026-04-16T11:45:05.872Z</time></trkpt><trkpt lat="42.7219467" lon="-8.58457"><ele>254.5</ele><time>2026-04-16T11:45:06.871Z</time></trkpt><trkpt lat="42.7219117" lon="-8.58465"><ele>251.66666666666669</ele><time>2026-04-16T11:45:09.872Z</time></trkpt><trkpt lat="42.7219833" lon="-8.5846483"><ele>248.83333333333334</ele><time>2026-04-16T11:45:11.872Z</time></trkpt><trkpt lat="42.7220567" lon="-8.584615"><ele>246.0</ele><time>2026-04-16T11:45:12.872Z</time></trkpt><trkpt lat="42.7221683" lon="-8.584555"><ele>251.66666666666669</ele><time>2026-04-16T11:45:13.871Z</time></trkpt><trkpt lat="42.7223283" lon="-8.5844383"><ele>257.33333333333337</ele><time>2026-04-16T11:45:14.872Z</time></trkpt><trkpt lat="42.7225467" lon="-8.5842867"><ele>263.0</ele><time>2026-04-16T11:45:15.871Z</time></trkpt><trkpt lat="42.722725" lon="-8.58417"><ele>258.6666666666667</ele><time>2026-04-16T11:45:16.872Z</time></trkpt><trkpt lat="42.7228917" lon="-8.5840517"><ele>254.33333333333331</ele><time>2026-04-16T11:45:17.871Z</time></trkpt><trkpt lat="42.72304" lon="-8.5839517"><ele>250.0</ele><time>2026-04-16T11:45:18.871Z</time></trkpt><trkpt lat="42.72318" lon="-8.5838683"><ele>250.0</ele><time>2026-04-16T11:45:19.872Z</time></trkpt><trkpt lat="42.72331" lon="-8.5837967"><ele>250.0</ele><time>2026-04-16T11:45:20.872Z</time></trkpt><trkpt lat="42.7234467" lon="-8.5837217"><ele>250.0</ele><time>2026-04-16T11:45:21.871Z</time></trkpt><trkpt lat="42.7235867" lon="-8.5836317"><ele>250.0</ele><time>2026-04-16T11:45:22.871Z</time></trkpt><trkpt lat="42.7237383" lon="-8.58353"><ele>255.33333333333331</ele><time>2026-04-16T11:45:23.871Z</time></trkpt><trkpt lat="42.7239083" lon="-8.5834067"><ele>260.6666666666667</ele><time>2026-04-16T11:45:24.872Z</time></trkpt><trkpt lat="42.72407" lon="-8.583275"><ele>266.0</ele><time>2026-04-16T11:45:25.871Z</time></trkpt><trkpt lat="42.72422" lon="-8.583155"><ele>266.0</ele><time>2026-04-16T11:45:26.871Z</time></trkpt><trkpt lat="42.72436" lon="-8.5830367"><ele>266.0</ele><time>2026-04-16T11:45:27.871Z</time></trkpt><trkpt lat="42.7244983" lon="-8.5829133"><ele>266.0</ele><time>2026-04-16T11:45:28.872Z</time></trkpt><trkpt lat="42.7246133" lon="-8.582785"><ele>264.75</ele><time>2026-04-16T11:45:29.871Z</time></trkpt><trkpt lat="42.7247133" lon="-8.5826167"><ele>263.5</ele><time>2026-04-16T11:45:30.871Z</time></trkpt><trkpt lat="42.72479" lon="-8.58245"><ele>262.25</ele><time>2026-04-16T11:45:31.871Z</time></trkpt><trkpt lat="42.7248483" lon="-8.582285"><ele>261.0</ele><time>2026-04-16T11:45:32.871Z</time></trkpt><trkpt lat="42.7248767" lon="-8.5821433"><ele>259.25</ele><time>2026-04-16T11:45:33.871Z</time></trkpt><trkpt lat="42.7248633" lon="-8.5819817"><ele>257.5</ele><time>2026-04-16T11:45:34.871Z</time></trkpt><trkpt lat="42.724835" lon="-8.5818017"><ele>255.75</ele><time>2026-04-16T11:45:35.872Z</time></trkpt><trkpt lat="42.7247767" lon="-8.581595"><ele>254.0</ele><time>2026-04-16T11:45:36.871Z</time></trkpt><trkpt lat="42.72468" lon="-8.5813583"><ele>253.66666666666669</ele><time>2026-04-16T11:45:37.872Z</time></trkpt><trkpt lat="42.7245817" lon="-8.5811133"><ele>253.33333333333331</ele><time>2026-04-16T11:45:38.872Z</time></trkpt><trkpt lat="42.7244483" lon="-8.5808717"><ele>253.0</ele><time>2026-04-16T11:45:39.871Z</time></trkpt><trkpt lat="42.7243317" lon="-8.580655"><ele>260.0</ele><time>2026-04-16T11:45:40.872Z</time></trkpt><trkpt lat="42.7242367" lon="-8.580465"><ele>267.0</ele><time>2026-04-16T11:45:41.871Z</time></trkpt><trkpt lat="42.7241533" lon="-8.5803183"><ele>274.0</ele><time>2026-04-16T11:45:42.872Z</time></trkpt><trkpt lat="42.72411" lon="-8.580185"><ele>281.0</ele><time>2026-04-16T11:45:43.871Z</time></trkpt><trkpt lat="42.7240867" lon="-8.5800533"><ele>281.0</ele><time>2026-04-16T11:45:44.872Z</time></trkpt><trkpt lat="42.7240867" lon="-8.579895"><ele>281.0</ele><time>2026-04-16T11:45:45.871Z</time></trkpt><trkpt lat="42.7241" lon="-8.5797183"><ele>281.0</ele><time>2026-04-16T11:45:46.872Z</time></trkpt><trkpt lat="42.72413" lon="-8.5795483"><ele>281.0</ele><time>2026-04-16T11:45:47.871Z</time></trkpt><trkpt lat="42.7241617" lon="-8.5794167"><ele>281.40000000000003</ele><time>2026-04-16T11:45:48.871Z</time></trkpt><trkpt lat="42.724205" lon="-8.57933"><ele>281.8</ele><time>2026-04-16T11:45:49.871Z</time></trkpt><trkpt lat="42.72426" lon="-8.5792617"><ele>282.20000000000005</ele><time>2026-04-16T11:45:50.872Z</time></trkpt><trkpt lat="42.724325" lon="-8.57919"><ele>282.6</ele><time>2026-04-16T11:45:51.872Z</time></trkpt><trkpt lat="42.72441" lon="-8.5791267"><ele>283.0</ele><time>2026-04-16T11:45:52.871Z</time></trkpt><trkpt lat="42.7245317" lon="-8.5790967"><ele>281.0</ele><time>2026-04-16T11:45:53.872Z</time></trkpt><trkpt lat="42.7247033" lon="-8.57907"><ele>279.0</ele><time>2026-04-16T11:45:54.871Z</time></trkpt><trkpt lat="42.72487" lon="-8.57903"><ele>277.0</ele><time>2026-04-16T11:45:55.872Z</time></trkpt><trkpt lat="42.7250783" lon="-8.5789867"><ele>274.66666666666663</ele><time>2026-04-16T11:45:56.872Z</time></trkpt><trkpt lat="42.7253" lon="-8.5789367"><ele>272.3333333333333</ele><time>2026-04-16T11:45:57.871Z</time></trkpt><trkpt lat="42.7255117" lon="-8.5788767"><ele>270.0</ele><time>2026-04-16T11:45:58.871Z</time></trkpt><trkpt lat="42.7257133" lon="-8.5787967"><ele>270.0</ele><time>2026-04-16T11:45:59.872Z</time></trkpt><trkpt lat="42.7258983" lon="-8.5787167"><ele>270.0</ele><time>2026-04-16T11:46:00.872Z</time></trkpt><trkpt lat="42.726065" lon="-8.5786367"><ele>270.0</ele><time>2026-04-16T11:46:01.871Z</time></trkpt><trkpt lat="42.7262433" lon="-8.5785683"><ele>276.3333333333333</ele><time>2026-04-16T11:46:02.872Z</time></trkpt><trkpt lat="42.726415" lon="-8.5785367"><ele>282.66666666666663</ele><time>2026-04-16T11:46:03.871Z</time></trkpt><trkpt lat="42.726595" lon="-8.578535"><ele>289.0</ele><time>2026-04-16T11:46:04.872Z</time></trkpt><trkpt lat="42.7267633" lon="-8.5785633"><ele>289.25</ele><time>2026-04-16T11:46:05.871Z</time></trkpt><trkpt lat="42.72691" lon="-8.578615"><ele>289.5</ele><time>2026-04-16T11:46:06.871Z</time></trkpt><trkpt lat="42.7270517" lon="-8.5786733"><ele>289.75</ele><time>2026-04-16T11:46:07.872Z</time></trkpt><trkpt lat="42.727195" lon="-8.5787283"><ele>290.0</ele><time>2026-04-16T11:46:08.872Z</time></trkpt><trkpt lat="42.7273533" lon="-8.5787767"><ele>284.33333333333337</ele><time>2026-04-16T11:46:09.872Z</time></trkpt><trkpt lat="42.7275317" lon="-8.5788"><ele>278.6666666666667</ele><time>2026-04-16T11:46:10.871Z</time></trkpt><trkpt lat="42.7277117" lon="-8.5788033"><ele>273.0</ele><time>2026-04-16T11:46:11.871Z</time></trkpt><trkpt lat="42.727885" lon="-8.5787883"><ele>270.0</ele><time>2026-04-16T11:46:12.872Z</time></trkpt><trkpt lat="42.728045" lon="-8.5787417"><ele>267.0</ele><time>2026-04-16T11:46:13.871Z</time></trkpt><trkpt lat="42.7281983" lon="-8.5786633"><ele>264.0</ele><time>2026-04-16T11:46:14.871Z</time></trkpt><trkpt lat="42.7283617" lon="-8.5785583"><ele>266.6666666666667</ele><time>2026-04-16T11:46:15.872Z</time></trkpt><trkpt lat="42.7285233" lon="-8.578425"><ele>269.33333333333337</ele><time>2026-04-16T11:46:16.872Z</time></trkpt><trkpt lat="42.7286933" lon="-8.5782533"><ele>272.0</ele><time>2026-04-16T11:46:17.871Z</time></trkpt><trkpt lat="42.7288633" lon="-8.5780617"><ele>278.0</ele><time>2026-04-16T11:46:18.872Z</time></trkpt><trkpt lat="42.7290217" lon="-8.5778517"><ele>284.0</ele><time>2026-04-16T11:46:19.872Z</time></trkpt><trkpt lat="42.7291683" lon="-8.5776533"><ele>290.0</ele><time>2026-04-16T11:46:20.872Z</time></trkpt><trkpt lat="42.7293183" lon="-8.5774583"><ele>277.5</ele><time>2026-04-16T11:46:21.872Z</time></trkpt><trkpt lat="42.72948" lon="-8.57725"><ele>265.0</ele><time>2026-04-16T11:46:22.872Z</time></trkpt><trkpt lat="42.7296533" lon="-8.577035"><ele>272.5</ele><time>2026-04-16T11:46:23.872Z</time></trkpt><trkpt lat="42.72985" lon="-8.5768267"><ele>280.0</ele><time>2026-04-16T11:46:24.872Z</time></trkpt><trkpt lat="42.730045" lon="-8.5766"><ele>280.0</ele><time>2026-04-16T11:46:25.872Z</time></trkpt><trkpt lat="42.730215" lon="-8.5763917"><ele>280.0</ele><time>2026-04-16T11:46:26.872Z</time></trkpt><trkpt lat="42.7303617" lon="-8.5761783"><ele>280.0</ele><time>2026-04-16T11:46:27.872Z</time></trkpt><trkpt lat="42.7305" lon="-8.575995"><ele>278.3333333333333</ele><time>2026-04-16T11:46:28.871Z</time></trkpt><trkpt lat="42.73063" lon="-8.5758317"><ele>276.6666666666667</ele><time>2026-04-16T11:46:29.871Z</time></trkpt><trkpt lat="42.7307617" lon="-8.57569"><ele>275.0</ele><time>2026-04-16T11:46:30.872Z</time></trkpt><trkpt lat="42.7308933" lon="-8.57556"><ele>275.0</ele><time>2026-04-16T11:46:31.872Z</time></trkpt><trkpt lat="42.730995" lon="-8.5754"><ele>275.0</ele><time>2026-04-16T11:46:32.871Z</time></trkpt><trkpt lat="42.7310783" lon="-8.5752083"><ele>275.0</ele><time>2026-04-16T11:46:33.872Z</time></trkpt><trkpt lat="42.7311417" lon="-8.5750333"><ele>275.0</ele><time>2026-04-16T11:46:34.871Z</time></trkpt><trkpt lat="42.7311967" lon="-8.57489"><ele>275.0</ele><time>2026-04-16T11:46:35.872Z</time></trkpt><trkpt lat="42.73125" lon="-8.5747533"><ele>275.0</ele><time>2026-04-16T11:46:36.871Z</time></trkpt><trkpt lat="42.7313067" lon="-8.5745817"><ele>275.0</ele><time>2026-04-16T11:46:37.871Z</time></trkpt><trkpt lat="42.7313733" lon="-8.57439"><ele>275.0</ele><time>2026-04-16T11:46:38.872Z</time></trkpt><trkpt lat="42.73144" lon="-8.5741717"><ele>275.0</ele><time>2026-04-16T11:46:39.871Z</time></trkpt><trkpt lat="42.7315133" lon="-8.573965"><ele>275.0</ele><time>2026-04-16T11:46:40.871Z</time></trkpt><trkpt lat="42.7315833" lon="-8.5737683"><ele>273.4</ele><time>2026-04-16T11:46:41.872Z</time></trkpt><trkpt lat="42.73162" lon="-8.57361"><ele>271.8</ele><time>2026-04-16T11:46:42.871Z</time></trkpt><trkpt lat="42.7316267" lon="-8.57348"><ele>270.2</ele><time>2026-04-16T11:46:43.871Z</time></trkpt><trkpt lat="42.7315983" lon="-8.5733867"><ele>268.6</ele><time>2026-04-16T11:46:44.871Z</time></trkpt><trkpt lat="42.7315383" lon="-8.57331"><ele>267.0</ele><time>2026-04-16T11:46:45.872Z</time></trkpt><trkpt lat="42.7314617" lon="-8.5732617"><ele>267.0</ele><time>2026-04-16T11:46:46.872Z</time></trkpt><trkpt lat="42.7313533" lon="-8.5732183"><ele>267.0</ele><time>2026-04-16T11:46:47.872Z</time></trkpt><trkpt lat="42.7312217" lon="-8.5731833"><ele>267.0</ele><time>2026-04-16T11:46:48.872Z</time></trkpt><trkpt lat="42.73111" lon="-8.5731217"><ele>267.0</ele><time>2026-04-16T11:46:49.871Z</time></trkpt><trkpt lat="42.7310383" lon="-8.5730433"><ele>267.25</ele><time>2026-04-16T11:46:50.872Z</time></trkpt><trkpt lat="42.7309917" lon="-8.57292"><ele>267.5</ele><time>2026-04-16T11:46:51.871Z</time></trkpt><trkpt lat="42.730965" lon="-8.57276"><ele>267.75</ele><time>2026-04-16T11:46:52.872Z</time></trkpt><trkpt lat="42.7309533" lon="-8.5725717"><ele>268.0</ele><time>2026-04-16T11:46:53.871Z</time></trkpt><trkpt lat="42.7309583" lon="-8.57239"><ele>268.0</ele><time>2026-04-16T11:46:54.871Z</time></trkpt><trkpt lat="42.73097" lon="-8.57224"><ele>268.0</ele><time>2026-04-16T11:46:55.872Z</time></trkpt><trkpt lat="42.7310083" lon="-8.572095"><ele>268.0</ele><time>2026-04-16T11:46:56.872Z</time></trkpt><trkpt lat="42.7310917" lon="-8.5719567"><ele>268.0</ele><time>2026-04-16T11:46:57.872Z</time></trkpt><trkpt lat="42.7312183" lon="-8.5718217"><ele>265.0</ele><time>2026-04-16T11:46:58.871Z</time></trkpt><trkpt lat="42.7313733" lon="-8.5716667"><ele>262.0</ele><time>2026-04-16T11:46:59.872Z</time></trkpt><trkpt lat="42.7315533" lon="-8.57148"><ele>259.0</ele><time>2026-04-16T11:47:00.872Z</time></trkpt><trkpt lat="42.7317433" lon="-8.5712633"><ele>259.5</ele><time>2026-04-16T11:47:01.873Z</time></trkpt><trkpt lat="42.7319167" lon="-8.5710367"><ele>260.0</ele><time>2026-04-16T11:47:02.872Z</time></trkpt><trkpt lat="42.7320933" lon="-8.57082"><ele>260.0</ele><time>2026-04-16T11:47:03.873Z</time></trkpt><trkpt lat="42.7322933" lon="-8.5706217"><ele>260.0</ele><time>2026-04-16T11:47:04.872Z</time></trkpt><trkpt lat="42.7325083" lon="-8.5704633"><ele>261.0</ele><time>2026-04-16T11:47:05.872Z</time></trkpt><trkpt lat="42.7326933" lon="-8.5703183"><ele>262.0</ele><time>2026-04-16T11:47:06.873Z</time></trkpt><trkpt lat="42.7328633" lon="-8.5701883"><ele>263.0</ele><time>2026-04-16T11:47:07.872Z</time></trkpt><trkpt lat="42.7330183" lon="-8.5700617"><ele>263.0</ele><time>2026-04-16T11:47:08.872Z</time></trkpt><trkpt lat="42.7331817" lon="-8.5699183"><ele>263.0</ele><time>2026-04-16T11:47:09.873Z</time></trkpt><trkpt lat="42.73334" lon="-8.5697333"><ele>263.0</ele><time>2026-04-16T11:47:10.873Z</time></trkpt><trkpt lat="42.7334883" lon="-8.5695267"><ele>259.0</ele><time>2026-04-16T11:47:11.872Z</time></trkpt><trkpt lat="42.7336367" lon="-8.5693"><ele>255.0</ele><time>2026-04-16T11:47:12.872Z</time></trkpt><trkpt lat="42.733785" lon="-8.5690867"><ele>251.0</ele><time>2026-04-16T11:47:13.873Z</time></trkpt><trkpt lat="42.73391" lon="-8.5688733"><ele>254.66666666666669</ele><time>2026-04-16T11:47:14.873Z</time></trkpt><trkpt lat="42.7340217" lon="-8.5686267"><ele>258.3333333333333</ele><time>2026-04-16T11:47:15.872Z</time></trkpt><trkpt lat="42.734115" lon="-8.5683783"><ele>262.0</ele><time>2026-04-16T11:47:16.872Z</time></trkpt><trkpt lat="42.734185" lon="-8.5681467"><ele>262.0</ele><time>2026-04-16T11:47:17.872Z</time></trkpt><trkpt lat="42.7342467" lon="-8.56796"><ele>262.0</ele><time>2026-04-16T11:47:18.872Z</time></trkpt><trkpt lat="42.7343" lon="-8.56781"><ele>262.0</ele><time>2026-04-16T11:47:19.873Z</time></trkpt><trkpt lat="42.73436" lon="-8.567735"><ele>262.0</ele><time>2026-04-16T11:47:20.872Z</time></trkpt><trkpt lat="42.7344433" lon="-8.5676917"><ele>262.0</ele><time>2026-04-16T11:47:21.873Z</time></trkpt><trkpt lat="42.7345667" lon="-8.567645"><ele>258.5</ele><time>2026-04-16T11:47:22.873Z</time></trkpt><trkpt lat="42.734695" lon="-8.5675833"><ele>255.0</ele><time>2026-04-16T11:47:23.872Z</time></trkpt><trkpt lat="42.734815" lon="-8.5674867"><ele>251.5</ele><time>2026-04-16T11:47:24.873Z</time></trkpt><trkpt lat="42.73493" lon="-8.5673467"><ele>248.0</ele><time>2026-04-16T11:47:25.873Z</time></trkpt><trkpt lat="42.7350383" lon="-8.567145"><ele>246.33333333333334</ele><time>2026-04-16T11:47:26.872Z</time></trkpt><trkpt lat="42.735155" lon="-8.5669367"><ele>244.66666666666669</ele><time>2026-04-16T11:47:27.872Z</time></trkpt><trkpt lat="42.7352917" lon="-8.5667533"><ele>243.0</ele><time>2026-04-16T11:47:28.873Z</time></trkpt><trkpt lat="42.7354467" lon="-8.5665933"><ele>243.0</ele><time>2026-04-16T11:47:29.872Z</time></trkpt><trkpt lat="42.7356067" lon="-8.5664533"><ele>243.0</ele><time>2026-04-16T11:47:30.872Z</time></trkpt><trkpt lat="42.7357617" lon="-8.566325"><ele>243.0</ele><time>2026-04-16T11:47:31.873Z</time></trkpt><trkpt lat="42.73588" lon="-8.566205"><ele>240.66666666666669</ele><time>2026-04-16T11:47:32.873Z</time></trkpt><trkpt lat="42.7359783" lon="-8.566065"><ele>238.33333333333334</ele><time>2026-04-16T11:47:33.872Z</time></trkpt><trkpt lat="42.7360567" lon="-8.5658883"><ele>236.0</ele><time>2026-04-16T11:47:34.872Z</time></trkpt><trkpt lat="42.736135" lon="-8.5656867"><ele>236.0</ele><time>2026-04-16T11:47:35.872Z</time></trkpt><trkpt lat="42.7362183" lon="-8.5654717"><ele>236.0</ele><time>2026-04-16T11:47:36.872Z</time></trkpt><trkpt lat="42.7362883" lon="-8.5652517"><ele>236.0</ele><time>2026-04-16T11:47:37.873Z</time></trkpt><trkpt lat="42.7363433" lon="-8.565025"><ele>236.66666666666669</ele><time>2026-04-16T11:47:38.873Z</time></trkpt><trkpt lat="42.7363733" lon="-8.5647733"><ele>237.33333333333331</ele><time>2026-04-16T11:47:39.872Z</time></trkpt><trkpt lat="42.73639" lon="-8.5645333"><ele>238.0</ele><time>2026-04-16T11:47:40.873Z</time></trkpt><trkpt lat="42.7364017" lon="-8.5643183"><ele>240.25</ele><time>2026-04-16T11:47:41.873Z</time></trkpt><trkpt lat="42.736435" lon="-8.5641217"><ele>242.5</ele><time>2026-04-16T11:47:42.872Z</time></trkpt><trkpt lat="42.7364883" lon="-8.5639517"><ele>244.75</ele><time>2026-04-16T11:47:43.872Z</time></trkpt><trkpt lat="42.7365767" lon="-8.563785"><ele>247.0</ele><time>2026-04-16T11:47:44.873Z</time></trkpt><trkpt lat="42.7367017" lon="-8.56363"><ele>245.0</ele><time>2026-04-16T11:47:45.873Z</time></trkpt><trkpt lat="42.7368483" lon="-8.5634567"><ele>243.0</ele><time>2026-04-16T11:47:46.872Z</time></trkpt><trkpt lat="42.7369933" lon="-8.5632767"><ele>241.0</ele><time>2026-04-16T11:47:47.873Z</time></trkpt><trkpt lat="42.73712" lon="-8.563075"><ele>244.66666666666666</ele><time>2026-04-16T11:47:48.872Z</time></trkpt><trkpt lat="42.73723" lon="-8.5628417"><ele>248.33333333333331</ele><time>2026-04-16T11:47:49.873Z</time></trkpt><trkpt lat="42.7373" lon="-8.5626083"><ele>252.0</ele><time>2026-04-16T11:47:50.872Z</time></trkpt><trkpt lat="42.7373383" lon="-8.5623783"><ele>252.0</ele><time>2026-04-16T11:47:51.872Z</time></trkpt><trkpt lat="42.7373383" lon="-8.56215"><ele>252.0</ele><time>2026-04-16T11:47:52.872Z</time></trkpt><trkpt lat="42.73731" lon="-8.5619317"><ele>252.0</ele><time>2026-04-16T11:47:53.872Z</time></trkpt><trkpt lat="42.7372683" lon="-8.56171"><ele>251.0</ele><time>2026-04-16T11:47:54.873Z</time></trkpt><trkpt lat="42.7372033" lon="-8.561485"><ele>250.0</ele><time>2026-04-16T11:47:55.873Z</time></trkpt><trkpt lat="42.7371183" lon="-8.5612683"><ele>249.0</ele><time>2026-04-16T11:47:56.873Z</time></trkpt><trkpt lat="42.7370267" lon="-8.561065"><ele>250.39999999999998</ele><time>2026-04-16T11:47:57.873Z</time></trkpt><trkpt lat="42.73695" lon="-8.5609017"><ele>251.79999999999998</ele><time>2026-04-16T11:47:58.873Z</time></trkpt><trkpt lat="42.7368917" lon="-8.5607967"><ele>253.20000000000002</ele><time>2026-04-16T11:47:59.873Z</time></trkpt><trkpt lat="42.7368333" lon="-8.5607217"><ele>254.60000000000002</ele><time>2026-04-16T11:48:00.872Z</time></trkpt><trkpt lat="42.7367917" lon="-8.5606567"><ele>256.0</ele><time>2026-04-16T11:48:03.873Z</time></trkpt><trkpt lat="42.7368333" lon="-8.560575"><ele>255.99999999999997</ele><time>2026-04-16T11:48:08.873Z</time></trkpt><trkpt lat="42.7368733" lon="-8.5604567"><ele>256.0</ele><time>2026-04-16T11:48:10.872Z</time></trkpt><trkpt lat="42.7369" lon="-8.5603733"><ele>256.0</ele><time>2026-04-16T11:48:11.872Z</time></trkpt><trkpt lat="42.73693" lon="-8.5602817"><ele>256.0</ele><time>2026-04-16T11:48:12.873Z</time></trkpt><trkpt lat="42.736965" lon="-8.5601817"><ele>255.99999999999997</ele><time>2026-04-16T11:48:13.872Z</time></trkpt><trkpt lat="42.7370017" lon="-8.56007"><ele>256.0</ele><time>2026-04-16T11:48:14.873Z</time></trkpt><trkpt lat="42.7370333" lon="-8.5599583"><ele>253.83333333333331</ele><time>2026-04-16T11:48:15.873Z</time></trkpt><trkpt lat="42.7370517" lon="-8.559845"><ele>251.66666666666666</ele><time>2026-04-16T11:48:16.872Z</time></trkpt><trkpt lat="42.737055" lon="-8.55973"><ele>249.5</ele><time>2026-04-16T11:48:17.872Z</time></trkpt><trkpt lat="42.7370367" lon="-8.55962"><ele>247.33333333333331</ele><time>2026-04-16T11:48:18.872Z</time></trkpt><trkpt lat="42.737" lon="-8.5595267"><ele>245.16666666666666</ele><time>2026-04-16T11:48:19.873Z</time></trkpt><trkpt lat="42.7369517" lon="-8.55944"><ele>243.0</ele><time>2026-04-16T11:48:20.872Z</time></trkpt><trkpt lat="42.73689" lon="-8.5593767"><ele>242.33333333333334</ele><time>2026-04-16T11:48:21.872Z</time></trkpt><trkpt lat="42.736825" lon="-8.55933"><ele>241.66666666666669</ele><time>2026-04-16T11:48:22.872Z</time></trkpt><trkpt lat="42.73676" lon="-8.5592933"><ele>241.0</ele><time>2026-04-16T11:48:23.872Z</time></trkpt><trkpt lat="42.7366867" lon="-8.5592517"><ele>240.33333333333334</ele><time>2026-04-16T11:48:33.873Z</time></trkpt><trkpt lat="42.736655" lon="-8.5591767"><ele>239.66666666666669</ele><time>2026-04-16T11:48:35.873Z</time></trkpt><trkpt lat="42.736655" lon="-8.5590483"><ele>239.0</ele><time>2026-04-16T11:48:38.873Z</time></trkpt><trkpt lat="42.7367083" lon="-8.55892"><ele>239.00000000000003</ele><time>2026-04-16T11:48:41.872Z</time></trkpt><trkpt lat="42.7367933" lon="-8.5588433"><ele>239.0</ele><time>2026-04-16T11:48:43.873Z</time></trkpt><trkpt lat="42.7368517" lon="-8.5588083"><ele>239.0</ele><time>2026-04-16T11:48:44.872Z</time></trkpt><trkpt lat="42.73692" lon="-8.5587733"><ele>239.0</ele><time>2026-04-16T11:48:45.872Z</time></trkpt><trkpt lat="42.7369933" lon="-8.55874"><ele>239.00000000000003</ele><time>2026-04-16T11:48:46.873Z</time></trkpt><trkpt lat="42.7370733" lon="-8.558705"><ele>239.0</ele><time>2026-04-16T11:48:47.873Z</time></trkpt><trkpt lat="42.7371567" lon="-8.5586683"><ele>236.0</ele><time>2026-04-16T11:48:48.873Z</time></trkpt><trkpt lat="42.7372467" lon="-8.5586333"><ele>232.99999999999997</ele><time>2026-04-16T11:48:49.872Z</time></trkpt><trkpt lat="42.7373383" lon="-8.5585933"><ele>229.99999999999997</ele><time>2026-04-16T11:48:50.873Z</time></trkpt><trkpt lat="42.73744" lon="-8.5585533"><ele>227.0</ele><time>2026-04-16T11:48:51.873Z</time></trkpt><trkpt lat="42.7375433" lon="-8.55851"><ele>224.0</ele><time>2026-04-16T11:48:52.873Z</time></trkpt><trkpt lat="42.73764" lon="-8.5584667"><ele>223.83333333333334</ele><time>2026-04-16T11:48:53.872Z</time></trkpt><trkpt lat="42.73773" lon="-8.5584283"><ele>223.66666666666669</ele><time>2026-04-16T11:48:54.872Z</time></trkpt><trkpt lat="42.73781" lon="-8.5583883"><ele>223.5</ele><time>2026-04-16T11:48:55.872Z</time></trkpt><trkpt lat="42.7378767" lon="-8.5583433"><ele>223.33333333333331</ele><time>2026-04-16T11:48:56.872Z</time></trkpt><trkpt lat="42.7379367" lon="-8.5583017"><ele>223.16666666666666</ele><time>2026-04-16T11:48:57.872Z</time></trkpt><trkpt lat="42.7379983" lon="-8.5582567"><ele>223.0</ele><time>2026-04-16T11:48:58.872Z</time></trkpt><trkpt lat="42.7380633" lon="-8.5582133"><ele>223.0</ele><time>2026-04-16T11:48:59.873Z</time></trkpt><trkpt lat="42.7381433" lon="-8.558185"><ele>223.0</ele><time>2026-04-16T11:49:00.872Z</time></trkpt><trkpt lat="42.73824" lon="-8.558165"><ele>223.0</ele><time>2026-04-16T11:49:01.872Z</time></trkpt><trkpt lat="42.73836" lon="-8.5581833"><ele>223.0</ele><time>2026-04-16T11:49:02.873Z</time></trkpt><trkpt lat="42.7385033" lon="-8.5582167"><ele>223.0</ele><time>2026-04-16T11:49:03.872Z</time></trkpt><trkpt lat="42.7386583" lon="-8.55827"><ele>222.0</ele><time>2026-04-16T11:49:04.872Z</time></trkpt><trkpt lat="42.738805" lon="-8.5583283"><ele>221.0</ele><time>2026-04-16T11:49:05.872Z</time></trkpt><trkpt lat="42.738935" lon="-8.5583883"><ele>220.0</ele><time>2026-04-16T11:49:06.872Z</time></trkpt><trkpt lat="42.7390433" lon="-8.5584617"><ele>219.0</ele><time>2026-04-16T11:49:07.872Z</time></trkpt><trkpt lat="42.739125" lon="-8.5585667"><ele>219.75</ele><time>2026-04-16T11:49:08.872Z</time></trkpt><trkpt lat="42.7392083" lon="-8.5587017"><ele>220.5</ele><time>2026-04-16T11:49:09.872Z</time></trkpt><trkpt lat="42.7392933" lon="-8.55885"><ele>221.25</ele><time>2026-04-16T11:49:10.872Z</time></trkpt><trkpt lat="42.739355" lon="-8.559005"><ele>222.0</ele><time>2026-04-16T11:49:11.873Z</time></trkpt><trkpt lat="42.7393933" lon="-8.5591567"><ele>218.0</ele><time>2026-04-16T11:49:12.873Z</time></trkpt><trkpt lat="42.73941" lon="-8.559345"><ele>214.0</ele><time>2026-04-16T11:49:13.872Z</time></trkpt><trkpt lat="42.73941" lon="-8.5595683"><ele>210.0</ele><time>2026-04-16T11:49:14.873Z</time></trkpt><trkpt lat="42.73939" lon="-8.5598233"><ele>212.0</ele><time>2026-04-16T11:49:15.873Z</time></trkpt><trkpt lat="42.7393817" lon="-8.56007"><ele>214.0</ele><time>2026-04-16T11:49:16.872Z</time></trkpt><trkpt lat="42.7393733" lon="-8.5603033"><ele>216.0</ele><time>2026-04-16T11:49:17.873Z</time></trkpt><trkpt lat="42.7393667" lon="-8.560515"><ele>216.0</ele><time>2026-04-16T11:49:18.872Z</time></trkpt><trkpt lat="42.73935" lon="-8.5606983"><ele>216.0</ele><time>2026-04-16T11:49:19.872Z</time></trkpt><trkpt lat="42.739305" lon="-8.56088"><ele>216.0</ele><time>2026-04-16T11:49:20.872Z</time></trkpt><trkpt lat="42.7392417" lon="-8.5610783"><ele>216.0</ele><time>2026-04-16T11:49:21.872Z</time></trkpt><trkpt lat="42.7391367" lon="-8.5612667"><ele>213.75</ele><time>2026-04-16T11:49:22.872Z</time></trkpt><trkpt lat="42.7390217" lon="-8.561425"><ele>211.5</ele><time>2026-04-16T11:49:23.872Z</time></trkpt><trkpt lat="42.738935" lon="-8.5615767"><ele>209.25</ele><time>2026-04-16T11:49:24.872Z</time></trkpt><trkpt lat="42.7388733" lon="-8.5617167"><ele>207.0</ele><time>2026-04-16T11:49:25.872Z</time></trkpt><trkpt lat="42.738855" lon="-8.5618517"><ele>207.0</ele><time>2026-04-16T11:49:26.873Z</time></trkpt><trkpt lat="42.7388683" lon="-8.5619867"><ele>207.0</ele><time>2026-04-16T11:49:27.873Z</time></trkpt><trkpt lat="42.7389083" lon="-8.5621433"><ele>207.0</ele><time>2026-04-16T11:49:28.873Z</time></trkpt><trkpt lat="42.7389783" lon="-8.5623233"><ele>207.0</ele><time>2026-04-16T11:49:29.873Z</time></trkpt><trkpt lat="42.7390667" lon="-8.5625267"><ele>206.33333333333331</ele><time>2026-04-16T11:49:30.872Z</time></trkpt><trkpt lat="42.7391567" lon="-8.562735"><ele>205.66666666666666</ele><time>2026-04-16T11:49:31.872Z</time></trkpt><trkpt lat="42.7392417" lon="-8.562935"><ele>205.0</ele><time>2026-04-16T11:49:32.873Z</time></trkpt><trkpt lat="42.7393083" lon="-8.5631183"><ele>204.25</ele><time>2026-04-16T11:49:33.873Z</time></trkpt><trkpt lat="42.73935" lon="-8.5633133"><ele>203.5</ele><time>2026-04-16T11:49:34.872Z</time></trkpt><trkpt lat="42.7393617" lon="-8.5635067"><ele>202.75</ele><time>2026-04-16T11:49:35.873Z</time></trkpt><trkpt lat="42.7393517" lon="-8.563705"><ele>202.0</ele><time>2026-04-16T11:49:36.872Z</time></trkpt><trkpt lat="42.73933" lon="-8.563885"><ele>199.75</ele><time>2026-04-16T11:49:37.873Z</time></trkpt><trkpt lat="42.7393117" lon="-8.564065"><ele>197.5</ele><time>2026-04-16T11:49:38.872Z</time></trkpt><trkpt lat="42.73929" lon="-8.56425"><ele>195.25</ele><time>2026-04-16T11:49:39.872Z</time></trkpt><trkpt lat="42.73927" lon="-8.5644683"><ele>193.0</ele><time>2026-04-16T11:49:40.872Z</time></trkpt><trkpt lat="42.7392533" lon="-8.56472"><ele>189.0</ele><time>2026-04-16T11:49:41.873Z</time></trkpt><trkpt lat="42.7392683" lon="-8.5649767"><ele>185.0</ele><time>2026-04-16T11:49:42.872Z</time></trkpt><trkpt lat="42.7392717" lon="-8.5652083"><ele>181.0</ele><time>2026-04-16T11:49:43.873Z</time></trkpt><trkpt lat="42.73928" lon="-8.5654283"><ele>178.4</ele><time>2026-04-16T11:49:44.872Z</time></trkpt><trkpt lat="42.7392867" lon="-8.5656267"><ele>175.8</ele><time>2026-04-16T11:49:45.873Z</time></trkpt><trkpt lat="42.7392767" lon="-8.5657783"><ele>173.20000000000002</ele><time>2026-04-16T11:49:46.872Z</time></trkpt><trkpt lat="42.7392667" lon="-8.565885"><ele>170.60000000000002</ele><time>2026-04-16T11:49:47.872Z</time></trkpt><trkpt lat="42.739245" lon="-8.565975"><ele>168.0</ele><time>2026-04-16T11:49:49.873Z</time></trkpt><trkpt lat="42.7391333" lon="-8.56597"><ele>168.0</ele><time>2026-04-16T11:49:51.872Z</time></trkpt><trkpt lat="42.73903" lon="-8.5659667"><ele>168.0</ele><time>2026-04-16T11:49:52.872Z</time></trkpt><trkpt lat="42.7389167" lon="-8.5659683"><ele>168.0</ele><time>2026-04-16T11:49:53.873Z</time></trkpt><trkpt lat="42.7387983" lon="-8.5659833"><ele>168.0</ele><time>2026-04-16T11:49:54.873Z</time></trkpt><trkpt lat="42.7387083" lon="-8.56603"><ele>168.0</ele><time>2026-04-16T11:49:55.872Z</time></trkpt><trkpt lat="42.7386067" lon="-8.56612"><ele>166.75</ele><time>2026-04-16T11:49:56.872Z</time></trkpt><trkpt lat="42.73852" lon="-8.56625"><ele>165.5</ele><time>2026-04-16T11:49:57.873Z</time></trkpt><trkpt lat="42.738455" lon="-8.5664383"><ele>164.25</ele><time>2026-04-16T11:49:58.872Z</time></trkpt><trkpt lat="42.738415" lon="-8.5666583"><ele>163.0</ele><time>2026-04-16T11:49:59.873Z</time></trkpt><trkpt lat="42.7383967" lon="-8.5668833"><ele>160.66666666666669</ele><time>2026-04-16T11:50:00.872Z</time></trkpt><trkpt lat="42.7384" lon="-8.5670983"><ele>158.33333333333334</ele><time>2026-04-16T11:50:01.872Z</time></trkpt><trkpt lat="42.73843" lon="-8.5673183"><ele>156.0</ele><time>2026-04-16T11:50:02.873Z</time></trkpt><trkpt lat="42.7384667" lon="-8.5675517"><ele>156.0</ele><time>2026-04-16T11:50:03.872Z</time></trkpt><trkpt lat="42.7385233" lon="-8.5677833"><ele>156.0</ele><time>2026-04-16T11:50:04.873Z</time></trkpt><trkpt lat="42.7385717" lon="-8.568"><ele>156.0</ele><time>2026-04-16T11:50:05.872Z</time></trkpt><trkpt lat="42.7386283" lon="-8.56819"><ele>151.0</ele><time>2026-04-16T11:50:06.873Z</time></trkpt><trkpt lat="42.7386617" lon="-8.568365"><ele>146.0</ele><time>2026-04-16T11:50:07.873Z</time></trkpt><trkpt lat="42.73868" lon="-8.5685317"><ele>141.0</ele><time>2026-04-16T11:50:08.873Z</time></trkpt><trkpt lat="42.7386717" lon="-8.5686867"><ele>136.0</ele><time>2026-04-16T11:50:09.872Z</time></trkpt><trkpt lat="42.7386217" lon="-8.56886"><ele>135.6</ele><time>2026-04-16T11:50:10.873Z</time></trkpt><trkpt lat="42.738565" lon="-8.5690267"><ele>135.2</ele><time>2026-04-16T11:50:11.873Z</time></trkpt><trkpt lat="42.7385333" lon="-8.5691717"><ele>134.8</ele><time>2026-04-16T11:50:12.872Z</time></trkpt><trkpt lat="42.7385483" lon="-8.5692917"><ele>134.4</ele><time>2026-04-16T11:50:13.873Z</time></trkpt><trkpt lat="42.7385983" lon="-8.569425"><ele>134.0</ele><time>2026-04-16T11:50:14.873Z</time></trkpt><trkpt lat="42.738665" lon="-8.5695583"><ele>133.2</ele><time>2026-04-16T11:50:15.873Z</time></trkpt><trkpt lat="42.738705" lon="-8.5697117"><ele>132.4</ele><time>2026-04-16T11:50:16.873Z</time></trkpt><trkpt lat="42.7387267" lon="-8.5698733"><ele>131.6</ele><time>2026-04-16T11:50:17.872Z</time></trkpt><trkpt lat="42.7387183" lon="-8.5700283"><ele>130.8</ele><time>2026-04-16T11:50:18.873Z</time></trkpt><trkpt lat="42.7387133" lon="-8.5701433"><ele>130.0</ele><time>2026-04-16T11:50:19.872Z</time></trkpt><trkpt lat="42.7387367" lon="-8.57025"><ele>130.0</ele><time>2026-04-16T11:50:20.873Z</time></trkpt><trkpt lat="42.73879" lon="-8.5703433"><ele>130.0</ele><time>2026-04-16T11:50:21.873Z</time></trkpt><trkpt lat="42.7388817" lon="-8.570415"><ele>130.0</ele><time>2026-04-16T11:50:22.873Z</time></trkpt><trkpt lat="42.7390067" lon="-8.57046"><ele>130.0</ele><time>2026-04-16T11:50:23.873Z</time></trkpt><trkpt lat="42.73917" lon="-8.570495"><ele>128.25</ele><time>2026-04-16T11:50:24.872Z</time></trkpt><trkpt lat="42.7393217" lon="-8.5705383"><ele>126.5</ele><time>2026-04-16T11:50:25.873Z</time></trkpt><trkpt lat="42.7394517" lon="-8.5706033"><ele>124.75</ele><time>2026-04-16T11:50:26.872Z</time></trkpt><trkpt lat="42.739555" lon="-8.5706767"><ele>123.0</ele><time>2026-04-16T11:50:27.873Z</time></trkpt><trkpt lat="42.7396283" lon="-8.5707633"><ele>121.2</ele><time>2026-04-16T11:50:28.872Z</time></trkpt><trkpt lat="42.73968" lon="-8.5708567"><ele>119.4</ele><time>2026-04-16T11:50:29.872Z</time></trkpt><trkpt lat="42.7397" lon="-8.57095"><ele>117.60000000000001</ele><time>2026-04-16T11:50:30.872Z</time></trkpt><trkpt lat="42.73966" lon="-8.5711083"><ele>115.80000000000001</ele><time>2026-04-16T11:50:32.873Z</time></trkpt><trkpt lat="42.7395883" lon="-8.5711783"><ele>114.0</ele><time>2026-04-16T11:50:33.872Z</time></trkpt><trkpt lat="42.73948" lon="-8.5712667"><ele>112.66666666666666</ele><time>2026-04-16T11:50:34.873Z</time></trkpt><trkpt lat="42.7393317" lon="-8.57136"><ele>111.33333333333333</ele><time>2026-04-16T11:50:35.872Z</time></trkpt><trkpt lat="42.7391633" lon="-8.57144"><ele>110.0</ele><time>2026-04-16T11:50:36.873Z</time></trkpt><trkpt lat="42.7389967" lon="-8.5715233"><ele>110.0</ele><time>2026-04-16T11:50:37.873Z</time></trkpt><trkpt lat="42.7388467" lon="-8.5716183"><ele>110.0</ele><time>2026-04-16T11:50:38.873Z</time></trkpt><trkpt lat="42.7386983" lon="-8.571735"><ele>110.0</ele><time>2026-04-16T11:50:39.872Z</time></trkpt><trkpt lat="42.738545" lon="-8.5719033"><ele>106.0</ele><time>2026-04-16T11:50:40.873Z</time></trkpt><trkpt lat="42.738375" lon="-8.57208"><ele>102.0</ele><time>2026-04-16T11:50:41.872Z</time></trkpt><trkpt lat="42.738225" lon="-8.5722417"><ele>98.0</ele><time>2026-04-16T11:50:42.873Z</time></trkpt><trkpt lat="42.7380933" lon="-8.5723583"><ele>98.0</ele><time>2026-04-16T11:50:43.873Z</time></trkpt><trkpt lat="42.73798" lon="-8.5724667"><ele>98.0</ele><time>2026-04-16T11:50:44.873Z</time></trkpt><trkpt lat="42.7378817" lon="-8.57257"><ele>98.0</ele><time>2026-04-16T11:50:45.873Z</time></trkpt><trkpt lat="42.73779" lon="-8.57266"><ele>98.0</ele><time>2026-04-16T11:50:46.873Z</time></trkpt><trkpt lat="42.737735" lon="-8.5727283"><ele>98.0</ele><time>2026-04-16T11:50:47.873Z</time></trkpt><trkpt lat="42.737745" lon="-8.5728133"><ele>98.0</ele><time>2026-04-16T11:50:50.873Z</time></trkpt><trkpt lat="42.7378683" lon="-8.57283"><ele>98.0</ele><time>2026-04-16T11:50:52.872Z</time></trkpt><trkpt lat="42.7379733" lon="-8.5728267"><ele>98.0</ele><time>2026-04-16T11:50:53.872Z</time></trkpt><trkpt lat="42.7381117" lon="-8.5727933"><ele>98.0</ele><time>2026-04-16T11:50:54.873Z</time></trkpt><trkpt lat="42.7382883" lon="-8.5727167"><ele>98.0</ele><time>2026-04-16T11:50:55.873Z</time></trkpt><trkpt lat="42.7384867" lon="-8.57262"><ele>98.0</ele><time>2026-04-16T11:50:56.873Z</time></trkpt><trkpt lat="42.7386817" lon="-8.5725217"><ele>98.0</ele><time>2026-04-16T11:50:57.872Z</time></trkpt><trkpt lat="42.7388617" lon="-8.57245"><ele>96.0</ele><time>2026-04-16T11:50:58.872Z</time></trkpt><trkpt lat="42.7390433" lon="-8.5724167"><ele>94.0</ele><time>2026-04-16T11:50:59.872Z</time></trkpt><trkpt lat="42.739245" lon="-8.5724033"><ele>92.0</ele><time>2026-04-16T11:51:00.873Z</time></trkpt><trkpt lat="42.7394633" lon="-8.5723883"><ele>89.66666666666667</ele><time>2026-04-16T11:51:01.873Z</time></trkpt><trkpt lat="42.7396767" lon="-8.57235"><ele>87.33333333333333</ele><time>2026-04-16T11:51:02.872Z</time></trkpt><trkpt lat="42.7398767" lon="-8.5723017"><ele>85.0</ele><time>2026-04-16T11:51:03.873Z</time></trkpt><trkpt lat="42.7400317" lon="-8.5722217"><ele>85.0</ele><time>2026-04-16T11:51:04.872Z</time></trkpt><trkpt lat="42.7401533" lon="-8.5721067"><ele>85.0</ele><time>2026-04-16T11:51:05.872Z</time></trkpt><trkpt lat="42.7402483" lon="-8.5719733"><ele>85.0</ele><time>2026-04-16T11:51:06.872Z</time></trkpt><trkpt lat="42.7403483" lon="-8.5718233"><ele>85.0</ele><time>2026-04-16T11:51:07.873Z</time></trkpt><trkpt lat="42.7404433" lon="-8.5716417"><ele>83.66666666666666</ele><time>2026-04-16T11:51:08.872Z</time></trkpt><trkpt lat="42.74052" lon="-8.571445"><ele>82.33333333333333</ele><time>2026-04-16T11:51:09.872Z</time></trkpt><trkpt lat="42.7405933" lon="-8.5712283"><ele>81.0</ele><time>2026-04-16T11:51:10.872Z</time></trkpt><trkpt lat="42.7406417" lon="-8.5710167"><ele>85.0</ele><time>2026-04-16T11:51:11.872Z</time></trkpt><trkpt lat="42.7406433" lon="-8.5707967"><ele>89.0</ele><time>2026-04-16T11:51:12.872Z</time></trkpt><trkpt lat="42.740635" lon="-8.570555"><ele>93.0</ele><time>2026-04-16T11:51:13.873Z</time></trkpt><trkpt lat="42.7406433" lon="-8.5702817"><ele>94.0</ele><time>2026-04-16T11:51:14.873Z</time></trkpt><trkpt lat="42.7406167" lon="-8.5700583"><ele>95.0</ele><time>2026-04-16T11:51:15.872Z</time></trkpt><trkpt lat="42.7405667" lon="-8.5699117"><ele>96.0</ele><time>2026-04-16T11:51:16.872Z</time></trkpt><trkpt lat="42.740485" lon="-8.5698017"><ele>97.0</ele><time>2026-04-16T11:51:17.872Z</time></trkpt><trkpt lat="42.7403583" lon="-8.5697017"><ele>97.0</ele><time>2026-04-16T11:51:18.873Z</time></trkpt><trkpt lat="42.7402217" lon="-8.5696217"><ele>97.0</ele><time>2026-04-16T11:51:19.872Z</time></trkpt><trkpt lat="42.7401083" lon="-8.569545"><ele>97.0</ele><time>2026-04-16T11:51:20.872Z</time></trkpt><trkpt lat="42.7400433" lon="-8.5694983"><ele>97.0</ele><time>2026-04-16T11:51:21.872Z</time></trkpt><trkpt lat="42.739995" lon="-8.5694217"><ele>97.0</ele><time>2026-04-16T11:51:23.873Z</time></trkpt><trkpt lat="42.7400267" lon="-8.569305"><ele>97.33333333333334</ele><time>2026-04-16T11:51:25.872Z</time></trkpt><trkpt lat="42.7401233" lon="-8.569145"><ele>97.66666666666666</ele><time>2026-04-16T11:51:27.873Z</time></trkpt><trkpt lat="42.7402317" lon="-8.5690317"><ele>98.0</ele><time>2026-04-16T11:51:28.873Z</time></trkpt><trkpt lat="42.7403767" lon="-8.5688967"><ele>98.0</ele><time>2026-04-16T11:51:29.872Z</time></trkpt><trkpt lat="42.7405433" lon="-8.568765"><ele>98.0</ele><time>2026-04-16T11:51:30.872Z</time></trkpt><trkpt lat="42.740725" lon="-8.56864"><ele>98.0</ele><time>2026-04-16T11:51:31.872Z</time></trkpt><trkpt lat="42.7409017" lon="-8.568515"><ele>99.0</ele><time>2026-04-16T11:51:32.873Z</time></trkpt><trkpt lat="42.7410667" lon="-8.5683717"><ele>100.0</ele><time>2026-04-16T11:51:33.873Z</time></trkpt><trkpt lat="42.74124" lon="-8.5681833"><ele>101.0</ele><time>2026-04-16T11:51:34.872Z</time></trkpt><trkpt lat="42.7413933" lon="-8.56798"><ele>107.0</ele><time>2026-04-16T11:51:35.873Z</time></trkpt><trkpt lat="42.7415517" lon="-8.56774"><ele>113.0</ele><time>2026-04-16T11:51:36.873Z</time></trkpt><trkpt lat="42.7416833" lon="-8.5674933"><ele>113.0</ele><time>2026-04-16T11:51:37.872Z</time></trkpt><trkpt lat="42.7418" lon="-8.5672867"><ele>113.0</ele><time>2026-04-16T11:51:38.872Z</time></trkpt><trkpt lat="42.7418967" lon="-8.5671283"><ele>113.0</ele><time>2026-04-16T11:51:39.872Z</time></trkpt><trkpt lat="42.7419567" lon="-8.5670033"><ele>109.80000000000001</ele><time>2026-04-16T11:51:40.872Z</time></trkpt><trkpt lat="42.7419933" lon="-8.566905"><ele>106.60000000000001</ele><time>2026-04-16T11:51:41.872Z</time></trkpt><trkpt lat="42.7420167" lon="-8.5668167"><ele>103.4</ele><time>2026-04-16T11:51:42.873Z</time></trkpt><trkpt lat="42.7419933" lon="-8.566625"><ele>100.19999999999999</ele><time>2026-04-16T11:51:44.872Z</time></trkpt><trkpt lat="42.7420033" lon="-8.5665117"><ele>97.0</ele><time>2026-04-16T11:51:45.872Z</time></trkpt><trkpt lat="42.7420517" lon="-8.5664117"><ele>97.0</ele><time>2026-04-16T11:51:46.873Z</time></trkpt><trkpt lat="42.7421417" lon="-8.5663083"><ele>97.0</ele><time>2026-04-16T11:51:47.873Z</time></trkpt><trkpt lat="42.7422483" lon="-8.56617"><ele>97.0</ele><time>2026-04-16T11:51:48.872Z</time></trkpt><trkpt lat="42.7423617" lon="-8.5659783"><ele>97.0</ele><time>2026-04-16T11:51:49.872Z</time></trkpt><trkpt lat="42.74248" lon="-8.5657483"><ele>98.5</ele><time>2026-04-16T11:51:50.873Z</time></trkpt><trkpt lat="42.7426283" lon="-8.5655133"><ele>100.0</ele><time>2026-04-16T11:51:51.872Z</time></trkpt><trkpt lat="42.7427917" lon="-8.5652733"><ele>100.0</ele><time>2026-04-16T11:51:52.872Z</time></trkpt><trkpt lat="42.7429733" lon="-8.5650183"><ele>100.0</ele><time>2026-04-16T11:51:53.873Z</time></trkpt><trkpt lat="42.74314" lon="-8.5647683"><ele>100.0</ele><time>2026-04-16T11:51:54.873Z</time></trkpt><trkpt lat="42.743295" lon="-8.564535"><ele>100.0</ele><time>2026-04-16T11:51:55.873Z</time></trkpt><trkpt lat="42.743435" lon="-8.564295"><ele>98.33333333333334</ele><time>2026-04-16T11:51:56.872Z</time></trkpt><trkpt lat="42.7435617" lon="-8.564045"><ele>96.66666666666667</ele><time>2026-04-16T11:51:57.872Z</time></trkpt><trkpt lat="42.74367" lon="-8.563795"><ele>95.0</ele><time>2026-04-16T11:51:58.873Z</time></trkpt><trkpt lat="42.7437783" lon="-8.5635617"><ele>95.0</ele><time>2026-04-16T11:51:59.872Z</time></trkpt><trkpt lat="42.743875" lon="-8.563385"><ele>95.0</ele><time>2026-04-16T11:52:00.873Z</time></trkpt><trkpt lat="42.7439917" lon="-8.5632433"><ele>95.0</ele><time>2026-04-16T11:52:01.872Z</time></trkpt><trkpt lat="42.74412" lon="-8.563125"><ele>95.0</ele><time>2026-04-16T11:52:02.873Z</time></trkpt><trkpt lat="42.7442467" lon="-8.5630267"><ele>95.0</ele><time>2026-04-16T11:52:03.873Z</time></trkpt><trkpt lat="42.7443567" lon="-8.5629417"><ele>95.0</ele><time>2026-04-16T11:52:04.873Z</time></trkpt><trkpt lat="42.7444633" lon="-8.5628433"><ele>95.0</ele><time>2026-04-16T11:52:05.873Z</time></trkpt><trkpt lat="42.7445433" lon="-8.5627"><ele>89.33333333333334</ele><time>2026-04-16T11:52:06.873Z</time></trkpt><trkpt lat="42.7446217" lon="-8.562535"><ele>83.66666666666667</ele><time>2026-04-16T11:52:07.873Z</time></trkpt><trkpt lat="42.74467" lon="-8.5623483"><ele>78.0</ele><time>2026-04-16T11:52:08.872Z</time></trkpt><trkpt lat="42.74469" lon="-8.5620933"><ele>77.66666666666667</ele><time>2026-04-16T11:52:09.872Z</time></trkpt><trkpt lat="42.7446817" lon="-8.5618217"><ele>77.33333333333334</ele><time>2026-04-16T11:52:10.873Z</time></trkpt><trkpt lat="42.74466" lon="-8.56153"><ele>77.0</ele><time>2026-04-16T11:52:11.873Z</time></trkpt><trkpt lat="42.7446567" lon="-8.5612583"><ele>77.0</ele><time>2026-04-16T11:52:12.873Z</time></trkpt><trkpt lat="42.7446567" lon="-8.56101"><ele>77.0</ele><time>2026-04-16T11:52:13.873Z</time></trkpt><trkpt lat="42.7446583" lon="-8.5607983"><ele>77.0</ele><time>2026-04-16T11:52:14.872Z</time></trkpt><trkpt lat="42.7446367" lon="-8.5605983"><ele>77.0</ele><time>2026-04-16T11:52:15.873Z</time></trkpt><trkpt lat="42.7445917" lon="-8.5604033"><ele>77.0</ele><time>2026-04-16T11:52:16.872Z</time></trkpt><trkpt lat="42.7445267" lon="-8.5602017"><ele>77.0</ele><time>2026-04-16T11:52:17.872Z</time></trkpt><trkpt lat="42.74445" lon="-8.5600133"><ele>78.5</ele><time>2026-04-16T11:52:18.873Z</time></trkpt><trkpt lat="42.7443733" lon="-8.5598617"><ele>80.0</ele><time>2026-04-16T11:52:19.872Z</time></trkpt><trkpt lat="42.7442867" lon="-8.5597467"><ele>81.5</ele><time>2026-04-16T11:52:20.872Z</time></trkpt><trkpt lat="42.7441967" lon="-8.5596733"><ele>83.0</ele><time>2026-04-16T11:52:21.872Z</time></trkpt><trkpt lat="42.7440833" lon="-8.5596383"><ele>83.0</ele><time>2026-04-16T11:52:22.872Z</time></trkpt><trkpt lat="42.7439767" lon="-8.5596033"><ele>83.0</ele><time>2026-04-16T11:52:23.872Z</time></trkpt><trkpt lat="42.74389" lon="-8.559545"><ele>83.0</ele><time>2026-04-16T11:52:24.872Z</time></trkpt><trkpt lat="42.7438283" lon="-8.55944"><ele>83.0</ele><time>2026-04-16T11:52:25.872Z</time></trkpt><trkpt lat="42.7437817" lon="-8.55929"><ele>83.0</ele><time>2026-04-16T11:52:26.873Z</time></trkpt><trkpt lat="42.74375" lon="-8.5591083"><ele>79.33333333333334</ele><time>2026-04-16T11:52:27.872Z</time></trkpt><trkpt lat="42.7437367" lon="-8.558885"><ele>75.66666666666667</ele><time>2026-04-16T11:52:28.872Z</time></trkpt><trkpt lat="42.7437483" lon="-8.5586567"><ele>72.0</ele><time>2026-04-16T11:52:29.873Z</time></trkpt><trkpt lat="42.7437683" lon="-8.55846"><ele>70.8</ele><time>2026-04-16T11:52:30.872Z</time></trkpt><trkpt lat="42.74378" lon="-8.5583083"><ele>69.6</ele><time>2026-04-16T11:52:31.873Z</time></trkpt><trkpt lat="42.7437567" lon="-8.5581883"><ele>68.39999999999999</ele><time>2026-04-16T11:52:32.873Z</time></trkpt><trkpt lat="42.7437117" lon="-8.5580633"><ele>67.2</ele><time>2026-04-16T11:52:33.873Z</time></trkpt><trkpt lat="42.7436633" lon="-8.5579167"><ele>66.0</ele><time>2026-04-16T11:52:34.872Z</time></trkpt><trkpt lat="42.7436467" lon="-8.5577817"><ele>66.0</ele><time>2026-04-16T11:52:35.872Z</time></trkpt><trkpt lat="42.74366" lon="-8.5576433"><ele>66.0</ele><time>2026-04-16T11:52:36.872Z</time></trkpt><trkpt lat="42.743705" lon="-8.5574917"><ele>66.0</ele><time>2026-04-16T11:52:37.872Z</time></trkpt><trkpt lat="42.7437883" lon="-8.5573117"><ele>66.0</ele><time>2026-04-16T11:52:38.873Z</time></trkpt><trkpt lat="42.7439133" lon="-8.557135"><ele>67.66666666666667</ele><time>2026-04-16T11:52:39.872Z</time></trkpt><trkpt lat="42.7440267" lon="-8.5569667"><ele>69.33333333333334</ele><time>2026-04-16T11:52:40.872Z</time></trkpt><trkpt lat="42.7440983" lon="-8.5568"><ele>71.0</ele><time>2026-04-16T11:52:41.872Z</time></trkpt><trkpt lat="42.7441433" lon="-8.5566067"><ele>71.0</ele><time>2026-04-16T11:52:42.872Z</time></trkpt><trkpt lat="42.7441417" lon="-8.5564033"><ele>71.0</ele><time>2026-04-16T11:52:43.873Z</time></trkpt><trkpt lat="42.74413" lon="-8.5561867"><ele>71.0</ele><time>2026-04-16T11:52:44.872Z</time></trkpt><trkpt lat="42.744135" lon="-8.5559933"><ele>71.75</ele><time>2026-04-16T11:52:45.873Z</time></trkpt><trkpt lat="42.7441567" lon="-8.5558083"><ele>72.5</ele><time>2026-04-16T11:52:46.872Z</time></trkpt><trkpt lat="42.7441983" lon="-8.5556367"><ele>73.25</ele><time>2026-04-16T11:52:47.873Z</time></trkpt><trkpt lat="42.744245" lon="-8.5555067"><ele>74.0</ele><time>2026-04-16T11:52:48.873Z</time></trkpt><trkpt lat="42.7443183" lon="-8.5553917"><ele>71.4</ele><time>2026-04-16T11:52:49.872Z</time></trkpt><trkpt lat="42.7443867" lon="-8.5552967"><ele>68.80000000000001</ele><time>2026-04-16T11:52:50.872Z</time></trkpt><trkpt lat="42.744445" lon="-8.55522"><ele>66.19999999999999</ele><time>2026-04-16T11:52:51.872Z</time></trkpt><trkpt lat="42.7445183" lon="-8.55513"><ele>63.599999999999994</ele><time>2026-04-16T11:52:53.873Z</time></trkpt><trkpt lat="42.74458" lon="-8.5550117"><ele>61.0</ele><time>2026-04-16T11:55:12.872Z</time></trkpt><trkpt lat="42.74461" lon="-8.5548567"><ele>60.99999999999999</ele><time>2026-04-16T11:55:14.872Z</time></trkpt><trkpt lat="42.744605" lon="-8.5547633"><ele>61.0</ele><time>2026-04-16T11:55:15.872Z</time></trkpt><trkpt lat="42.7445883" lon="-8.55466"><ele>61.0</ele><time>2026-04-16T11:55:16.873Z</time></trkpt><trkpt lat="42.7445633" lon="-8.5545567"><ele>61.0</ele><time>2026-04-16T11:55:17.872Z</time></trkpt><trkpt lat="42.7445317" lon="-8.5544367"><ele>60.99999999999999</ele><time>2026-04-16T11:55:18.872Z</time></trkpt><trkpt lat="42.7445067" lon="-8.554315"><ele>61.0</ele><time>2026-04-16T11:55:19.873Z</time></trkpt><trkpt lat="42.744485" lon="-8.5541917"><ele>60.4</ele><time>2026-04-16T11:55:20.872Z</time></trkpt><trkpt lat="42.7444533" lon="-8.5540633"><ele>59.8</ele><time>2026-04-16T11:55:21.872Z</time></trkpt><trkpt lat="42.744395" lon="-8.5539417"><ele>59.199999999999996</ele><time>2026-04-16T11:55:22.872Z</time></trkpt><trkpt lat="42.7443133" lon="-8.5538433"><ele>58.599999999999994</ele><time>2026-04-16T11:55:23.872Z</time></trkpt><trkpt lat="42.74422" lon="-8.55375"><ele>58.0</ele><time>2026-04-16T11:55:24.873Z</time></trkpt><trkpt lat="42.7441233" lon="-8.5536533"><ele>61.599999999999994</ele><time>2026-04-16T11:55:25.873Z</time></trkpt><trkpt lat="42.74403" lon="-8.5535517"><ele>65.19999999999999</ele><time>2026-04-16T11:55:26.872Z</time></trkpt><trkpt lat="42.7439517" lon="-8.5534417"><ele>68.8</ele><time>2026-04-16T11:55:27.872Z</time></trkpt><trkpt lat="42.7439" lon="-8.5533267"><ele>72.39999999999999</ele><time>2026-04-16T11:55:28.872Z</time></trkpt><trkpt lat="42.7438783" lon="-8.5532"><ele>76.0</ele><time>2026-04-16T11:55:29.873Z</time></trkpt><trkpt lat="42.743885" lon="-8.55306"><ele>76.0</ele><time>2026-04-16T11:55:30.873Z</time></trkpt><trkpt lat="42.7439283" lon="-8.5529367"><ele>76.0</ele><time>2026-04-16T11:55:31.873Z</time></trkpt><trkpt lat="42.7440033" lon="-8.552835"><ele>76.0</ele><time>2026-04-16T11:55:32.872Z</time></trkpt><trkpt lat="42.7441" lon="-8.5527433"><ele>76.0</ele><time>2026-04-16T11:55:33.872Z</time></trkpt><trkpt lat="42.7442033" lon="-8.5526667"><ele>76.0</ele><time>2026-04-16T11:55:34.872Z</time></trkpt><trkpt lat="42.7443133" lon="-8.5525983"><ele>75.75</ele><time>2026-04-16T11:55:35.873Z</time></trkpt><trkpt lat="42.7444333" lon="-8.5525517"><ele>75.5</ele><time>2026-04-16T11:55:36.873Z</time></trkpt><trkpt lat="42.7445533" lon="-8.5525133"><ele>75.25</ele><time>2026-04-16T11:55:37.873Z</time></trkpt><trkpt lat="42.7446783" lon="-8.55247"><ele>75.0</ele><time>2026-04-16T11:55:38.873Z</time></trkpt><trkpt lat="42.7448" lon="-8.552405"><ele>75.0</ele><time>2026-04-16T11:55:39.872Z</time></trkpt><trkpt lat="42.7449183" lon="-8.55232"><ele>75.0</ele><time>2026-04-16T11:55:40.873Z</time></trkpt><trkpt lat="42.7450217" lon="-8.5522067"><ele>75.0</ele><time>2026-04-16T11:55:41.872Z</time></trkpt><trkpt lat="42.7451133" lon="-8.55207"><ele>75.0</ele><time>2026-04-16T11:55:42.873Z</time></trkpt><trkpt lat="42.74519" lon="-8.5519083"><ele>74.0</ele><time>2026-04-16T11:55:43.872Z</time></trkpt><trkpt lat="42.7452583" lon="-8.5517317"><ele>73.0</ele><time>2026-04-16T11:55:44.873Z</time></trkpt><trkpt lat="42.7453267" lon="-8.5515633"><ele>72.0</ele><time>2026-04-16T11:55:45.872Z</time></trkpt><trkpt lat="42.7453933" lon="-8.5513967"><ele>71.0</ele><time>2026-04-16T11:55:46.872Z</time></trkpt><trkpt lat="42.7454683" lon="-8.5512283"><ele>74.75</ele><time>2026-04-16T11:55:47.872Z</time></trkpt><trkpt lat="42.7455533" lon="-8.5510717"><ele>78.5</ele><time>2026-04-16T11:55:48.873Z</time></trkpt><trkpt lat="42.74564" lon="-8.5509283"><ele>82.25</ele><time>2026-04-16T11:55:49.872Z</time></trkpt><trkpt lat="42.7457483" lon="-8.5507817"><ele>86.0</ele><time>2026-04-16T11:55:50.872Z</time></trkpt><trkpt lat="42.745855" lon="-8.5506367"><ele>86.0</ele><time>2026-04-16T11:55:51.873Z</time></trkpt><trkpt lat="42.7459617" lon="-8.5504917"><ele>86.0</ele><time>2026-04-16T11:55:52.873Z</time></trkpt><trkpt lat="42.7460567" lon="-8.5503633"><ele>86.0</ele><time>2026-04-16T11:55:53.872Z</time></trkpt><trkpt lat="42.746155" lon="-8.550235"><ele>86.0</ele><time>2026-04-16T11:55:54.873Z</time></trkpt><trkpt lat="42.746255" lon="-8.5501117"><ele>83.75</ele><time>2026-04-16T11:55:55.872Z</time></trkpt><trkpt lat="42.7463583" lon="-8.5499967"><ele>81.5</ele><time>2026-04-16T11:55:56.872Z</time></trkpt><trkpt lat="42.74648" lon="-8.5499117"><ele>79.25</ele><time>2026-04-16T11:55:57.873Z</time></trkpt><trkpt lat="42.7466083" lon="-8.5498333"><ele>77.0</ele><time>2026-04-16T11:55:58.872Z</time></trkpt><trkpt lat="42.7467517" lon="-8.5497583"><ele>75.66666666666667</ele><time>2026-04-16T11:55:59.872Z</time></trkpt><trkpt lat="42.7468917" lon="-8.5496733"><ele>74.33333333333333</ele><time>2026-04-16T11:56:00.872Z</time></trkpt><trkpt lat="42.7470233" lon="-8.5495783"><ele>73.0</ele><time>2026-04-16T11:56:01.873Z</time></trkpt><trkpt lat="42.7471517" lon="-8.54948"><ele>75.0</ele><time>2026-04-16T11:56:02.873Z</time></trkpt><trkpt lat="42.74728" lon="-8.54938"><ele>77.0</ele><time>2026-04-16T11:56:03.872Z</time></trkpt><trkpt lat="42.7474067" lon="-8.549285"><ele>79.0</ele><time>2026-04-16T11:56:04.872Z</time></trkpt><trkpt lat="42.74753" lon="-8.5491767"><ele>81.0</ele><time>2026-04-16T11:56:05.872Z</time></trkpt><trkpt lat="42.7476417" lon="-8.54907"><ele>81.75</ele><time>2026-04-16T11:56:06.873Z</time></trkpt><trkpt lat="42.7477583" lon="-8.5489433"><ele>82.5</ele><time>2026-04-16T11:56:07.872Z</time></trkpt><trkpt lat="42.74787" lon="-8.548815"><ele>83.25</ele><time>2026-04-16T11:56:08.872Z</time></trkpt><trkpt lat="42.747975" lon="-8.5486933"><ele>84.0</ele><time>2026-04-16T11:56:09.872Z</time></trkpt><trkpt lat="42.7480817" lon="-8.5485667"><ele>84.0</ele><time>2026-04-16T11:56:10.873Z</time></trkpt><trkpt lat="42.7481867" lon="-8.5484367"><ele>84.0</ele><time>2026-04-16T11:56:11.872Z</time></trkpt><trkpt lat="42.7482917" lon="-8.5483017"><ele>84.0</ele><time>2026-04-16T11:56:12.872Z</time></trkpt><trkpt lat="42.7483933" lon="-8.5481583"><ele>84.0</ele><time>2026-04-16T11:56:13.872Z</time></trkpt><trkpt lat="42.748475" lon="-8.5480183"><ele>83.0</ele><time>2026-04-16T11:56:14.872Z</time></trkpt><trkpt lat="42.748545" lon="-8.5478583"><ele>82.0</ele><time>2026-04-16T11:56:15.873Z</time></trkpt><trkpt lat="42.7485783" lon="-8.5476833"><ele>81.0</ele><time>2026-04-16T11:56:16.873Z</time></trkpt><trkpt lat="42.74858" lon="-8.547505"><ele>80.0</ele><time>2026-04-16T11:56:17.872Z</time></trkpt><trkpt lat="42.7485667" lon="-8.5473217"><ele>80.0</ele><time>2026-04-16T11:56:18.873Z</time></trkpt><trkpt lat="42.7485467" lon="-8.5471333"><ele>80.0</ele><time>2026-04-16T11:56:19.873Z</time></trkpt><trkpt lat="42.7485167" lon="-8.5469417"><ele>80.0</ele><time>2026-04-16T11:56:20.873Z</time></trkpt><trkpt lat="42.74847" lon="-8.546765"><ele>80.0</ele><time>2026-04-16T11:56:21.872Z</time></trkpt><trkpt lat="42.7484033" lon="-8.5466133"><ele>80.75</ele><time>2026-04-16T11:56:22.872Z</time></trkpt><trkpt lat="42.74832" lon="-8.5464667"><ele>81.5</ele><time>2026-04-16T11:56:23.873Z</time></trkpt><trkpt lat="42.74822" lon="-8.5463283"><ele>82.25</ele><time>2026-04-16T11:56:24.872Z</time></trkpt><trkpt lat="42.7481183" lon="-8.5461933"><ele>83.0</ele><time>2026-04-16T11:56:25.873Z</time></trkpt><trkpt lat="42.7480117" lon="-8.546055"><ele>82.66666666666667</ele><time>2026-04-16T11:56:26.872Z</time></trkpt><trkpt lat="42.74791" lon="-8.5459167"><ele>82.33333333333333</ele><time>2026-04-16T11:56:27.872Z</time></trkpt><trkpt lat="42.747795" lon="-8.54577"><ele>82.0</ele><time>2026-04-16T11:56:28.872Z</time></trkpt><trkpt lat="42.7476833" lon="-8.5456283"><ele>82.0</ele><time>2026-04-16T11:56:29.872Z</time></trkpt><trkpt lat="42.7475833" lon="-8.5454933"><ele>82.0</ele><time>2026-04-16T11:56:30.872Z</time></trkpt><trkpt lat="42.7474883" lon="-8.545365"><ele>82.0</ele><time>2026-04-16T11:56:31.872Z</time></trkpt><trkpt lat="42.7473983" lon="-8.5452433"><ele>82.0</ele><time>2026-04-16T11:56:32.873Z</time></trkpt><trkpt lat="42.7473067" lon="-8.54513"><ele>80.25</ele><time>2026-04-16T11:56:33.872Z</time></trkpt><trkpt lat="42.7472233" lon="-8.54501"><ele>78.5</ele><time>2026-04-16T11:56:34.873Z</time></trkpt><trkpt lat="42.747135" lon="-8.5448933"><ele>76.75</ele><time>2026-04-16T11:56:35.873Z</time></trkpt><trkpt lat="42.7470417" lon="-8.5447817"><ele>75.0</ele><time>2026-04-16T11:56:36.873Z</time></trkpt><trkpt lat="42.746955" lon="-8.5446833"><ele>74.6</ele><time>2026-04-16T11:56:37.872Z</time></trkpt><trkpt lat="42.7468683" lon="-8.544595"><ele>74.2</ele><time>2026-04-16T11:56:38.873Z</time></trkpt><trkpt lat="42.7467883" lon="-8.5445333"><ele>73.8</ele><time>2026-04-16T11:56:39.873Z</time></trkpt><trkpt lat="42.7466883" lon="-8.5444783"><ele>73.4</ele><time>2026-04-16T11:56:40.872Z</time></trkpt><trkpt lat="42.7465767" lon="-8.544445"><ele>73.0</ele><time>2026-04-16T11:56:41.873Z</time></trkpt><trkpt lat="42.746455" lon="-8.5444283"><ele>73.0</ele><time>2026-04-16T11:56:42.873Z</time></trkpt><trkpt lat="42.746335" lon="-8.5444217"><ele>73.0</ele><time>2026-04-16T11:56:43.873Z</time></trkpt><trkpt lat="42.7462" lon="-8.544405"><ele>73.0</ele><time>2026-04-16T11:56:44.873Z</time></trkpt><trkpt lat="42.7460583" lon="-8.5443833"><ele>73.0</ele><time>2026-04-16T11:56:45.873Z</time></trkpt><trkpt lat="42.7459167" lon="-8.544365"><ele>73.66666666666666</ele><time>2026-04-16T11:56:46.873Z</time></trkpt><trkpt lat="42.7457717" lon="-8.544345"><ele>74.33333333333333</ele><time>2026-04-16T11:56:47.873Z</time></trkpt><trkpt lat="42.745615" lon="-8.5443233"><ele>75.0</ele><time>2026-04-16T11:56:48.872Z</time></trkpt><trkpt lat="42.7454633" lon="-8.5443033"><ele>75.0</ele><time>2026-04-16T11:56:49.873Z</time></trkpt><trkpt lat="42.7453133" lon="-8.54429"><ele>75.0</ele><time>2026-04-16T11:56:50.872Z</time></trkpt><trkpt lat="42.7451583" lon="-8.5442667"><ele>75.0</ele><time>2026-04-16T11:56:51.873Z</time></trkpt><trkpt lat="42.7450017" lon="-8.5442433"><ele>74.66666666666667</ele><time>2026-04-16T11:56:52.873Z</time></trkpt><trkpt lat="42.7448417" lon="-8.5442267"><ele>74.33333333333334</ele><time>2026-04-16T11:56:53.872Z</time></trkpt><trkpt lat="42.744685" lon="-8.5442067"><ele>74.0</ele><time>2026-04-16T11:56:54.873Z</time></trkpt><trkpt lat="42.7445233" lon="-8.5441917"><ele>75.0</ele><time>2026-04-16T11:56:55.873Z</time></trkpt><trkpt lat="42.74437" lon="-8.5441717"><ele>76.0</ele><time>2026-04-16T11:56:56.873Z</time></trkpt><trkpt lat="42.7442183" lon="-8.5441583"><ele>77.0</ele><time>2026-04-16T11:56:57.873Z</time></trkpt><trkpt lat="42.74407" lon="-8.5441383"><ele>77.0</ele><time>2026-04-16T11:56:58.873Z</time></trkpt><trkpt lat="42.74392" lon="-8.5441117"><ele>77.0</ele><time>2026-04-16T11:56:59.872Z</time></trkpt><trkpt lat="42.743775" lon="-8.5440867"><ele>77.0</ele><time>2026-04-16T11:57:00.872Z</time></trkpt><trkpt lat="42.743635" lon="-8.5440617"><ele>77.0</ele><time>2026-04-16T11:57:01.872Z</time></trkpt><trkpt lat="42.743495" lon="-8.5440217"><ele>78.66666666666667</ele><time>2026-04-16T11:57:02.872Z</time></trkpt><trkpt lat="42.7433433" lon="-8.5439733"><ele>80.33333333333333</ele><time>2026-04-16T11:57:03.872Z</time></trkpt><trkpt lat="42.7431917" lon="-8.5439167"><ele>82.0</ele><time>2026-04-16T11:57:04.873Z</time></trkpt><trkpt lat="42.74305" lon="-8.5438567"><ele>82.0</ele><time>2026-04-16T11:57:05.872Z</time></trkpt><trkpt lat="42.742905" lon="-8.5437917"><ele>82.0</ele><time>2026-04-16T11:57:06.872Z</time></trkpt><trkpt lat="42.7427583" lon="-8.5437167"><ele>82.0</ele><time>2026-04-16T11:57:07.873Z</time></trkpt><trkpt lat="42.7426217" lon="-8.5436367"><ele>80.66666666666666</ele><time>2026-04-16T11:57:08.872Z</time></trkpt><trkpt lat="42.74248" lon="-8.5435483"><ele>79.33333333333333</ele><time>2026-04-16T11:57:09.872Z</time></trkpt><trkpt lat="42.7423383" lon="-8.5434417"><ele>78.0</ele><time>2026-04-16T11:57:10.872Z</time></trkpt><trkpt lat="42.7422067" lon="-8.5433267"><ele>78.0</ele><time>2026-04-16T11:57:11.873Z</time></trkpt><trkpt lat="42.742075" lon="-8.5432033"><ele>78.0</ele><time>2026-04-16T11:57:12.872Z</time></trkpt><trkpt lat="42.7419483" lon="-8.543065"><ele>78.0</ele><time>2026-04-16T11:57:13.873Z</time></trkpt><trkpt lat="42.74182" lon="-8.5429283"><ele>76.0</ele><time>2026-04-16T11:57:14.874Z</time></trkpt><trkpt lat="42.741705" lon="-8.5427833"><ele>74.0</ele><time>2026-04-16T11:57:15.874Z</time></trkpt><trkpt lat="42.7415867" lon="-8.5426367"><ele>72.0</ele><time>2026-04-16T11:57:16.874Z</time></trkpt><trkpt lat="42.7414767" lon="-8.5424817"><ele>72.0</ele><time>2026-04-16T11:57:17.874Z</time></trkpt><trkpt lat="42.7413633" lon="-8.5423233"><ele>72.0</ele><time>2026-04-16T11:57:18.873Z</time></trkpt><trkpt lat="42.7412483" lon="-8.5421567"><ele>72.0</ele><time>2026-04-16T11:57:19.873Z</time></trkpt><trkpt lat="42.741135" lon="-8.5419967"><ele>73.33333333333333</ele><time>2026-04-16T11:57:20.873Z</time></trkpt><trkpt lat="42.7410267" lon="-8.5418383"><ele>74.66666666666666</ele><time>2026-04-16T11:57:21.874Z</time></trkpt><trkpt lat="42.7409117" lon="-8.5416683"><ele>76.0</ele><time>2026-04-16T11:57:22.873Z</time></trkpt><trkpt lat="42.7408033" lon="-8.5415083"><ele>76.0</ele><time>2026-04-16T11:57:23.874Z</time></trkpt><trkpt lat="42.7406933" lon="-8.5413433"><ele>76.0</ele><time>2026-04-16T11:57:24.873Z</time></trkpt><trkpt lat="42.7405817" lon="-8.5411767"><ele>76.0</ele><time>2026-04-16T11:57:25.874Z</time></trkpt><trkpt lat="42.7404767" lon="-8.5410267"><ele>76.66666666666666</ele><time>2026-04-16T11:57:26.874Z</time></trkpt><trkpt lat="42.74038" lon="-8.5408717"><ele>77.33333333333333</ele><time>2026-04-16T11:57:27.874Z</time></trkpt><trkpt lat="42.74028" lon="-8.5407183"><ele>78.0</ele><time>2026-04-16T11:57:28.873Z</time></trkpt><trkpt lat="42.7401767" lon="-8.5405583"><ele>78.33333333333333</ele><time>2026-04-16T11:57:29.874Z</time></trkpt><trkpt lat="42.7400733" lon="-8.5403967"><ele>78.66666666666666</ele><time>2026-04-16T11:57:30.873Z</time></trkpt><trkpt lat="42.7399633" lon="-8.5402367"><ele>79.0</ele><time>2026-04-16T11:57:31.873Z</time></trkpt><trkpt lat="42.739845" lon="-8.5400833"><ele>79.0</ele><time>2026-04-16T11:57:32.874Z</time></trkpt><trkpt lat="42.7397233" lon="-8.5399433"><ele>79.0</ele><time>2026-04-16T11:57:33.873Z</time></trkpt><trkpt lat="42.739595" lon="-8.5398217"><ele>79.0</ele><time>2026-04-16T11:57:34.874Z</time></trkpt><trkpt lat="42.7394683" lon="-8.5397"><ele>80.0</ele><time>2026-04-16T11:57:35.874Z</time></trkpt><trkpt lat="42.7393333" lon="-8.53958"><ele>81.0</ele><time>2026-04-16T11:57:36.873Z</time></trkpt><trkpt lat="42.7391983" lon="-8.5394617"><ele>82.0</ele><time>2026-04-16T11:57:37.874Z</time></trkpt><trkpt lat="42.7390567" lon="-8.5393467"><ele>79.66666666666666</ele><time>2026-04-16T11:57:38.873Z</time></trkpt><trkpt lat="42.7389133" lon="-8.5392467"><ele>77.33333333333333</ele><time>2026-04-16T11:57:39.874Z</time></trkpt><trkpt lat="42.7387667" lon="-8.5391567"><ele>75.0</ele><time>2026-04-16T11:57:40.873Z</time></trkpt><trkpt lat="42.7386133" lon="-8.539075"><ele>72.66666666666667</ele><time>2026-04-16T11:57:41.873Z</time></trkpt><trkpt lat="42.7384667" lon="-8.5389917"><ele>70.33333333333334</ele><time>2026-04-16T11:57:42.874Z</time></trkpt><trkpt lat="42.73833" lon="-8.5389083"><ele>68.0</ele><time>2026-04-16T11:57:43.873Z</time></trkpt><trkpt lat="42.738195" lon="-8.5388083"><ele>65.33333333333334</ele><time>2026-04-16T11:57:44.874Z</time></trkpt><trkpt lat="42.7380583" lon="-8.538705"><ele>62.66666666666667</ele><time>2026-04-16T11:57:45.873Z</time></trkpt><trkpt lat="42.73793" lon="-8.5386033"><ele>60.0</ele><time>2026-04-16T11:57:46.874Z</time></trkpt><trkpt lat="42.7378033" lon="-8.5384867"><ele>59.66666666666667</ele><time>2026-04-16T11:57:47.874Z</time></trkpt><trkpt lat="42.7376783" lon="-8.538355"><ele>59.333333333333336</ele><time>2026-04-16T11:57:48.874Z</time></trkpt><trkpt lat="42.7375583" lon="-8.53822"><ele>59.0</ele><time>2026-04-16T11:57:49.873Z</time></trkpt><trkpt lat="42.73744" lon="-8.53808"><ele>59.0</ele><time>2026-04-16T11:57:50.874Z</time></trkpt><trkpt lat="42.737325" lon="-8.5379383"><ele>59.0</ele><time>2026-04-16T11:57:51.873Z</time></trkpt><trkpt lat="42.737205" lon="-8.5377867"><ele>59.0</ele><time>2026-04-16T11:57:52.874Z</time></trkpt><trkpt lat="42.7370883" lon="-8.5376267"><ele>58.66666666666667</ele><time>2026-04-16T11:57:53.874Z</time></trkpt><trkpt lat="42.7369783" lon="-8.5374667"><ele>58.33333333333333</ele><time>2026-04-16T11:57:54.874Z</time></trkpt><trkpt lat="42.736875" lon="-8.5373067"><ele>58.0</ele><time>2026-04-16T11:57:55.873Z</time></trkpt><trkpt lat="42.736765" lon="-8.5371417"><ele>58.0</ele><time>2026-04-16T11:57:56.874Z</time></trkpt><trkpt lat="42.73666" lon="-8.536985"><ele>58.0</ele><time>2026-04-16T11:57:57.873Z</time></trkpt><trkpt lat="42.7365533" lon="-8.5368217"><ele>58.0</ele><time>2026-04-16T11:57:58.873Z</time></trkpt><trkpt lat="42.7364467" lon="-8.5366633"><ele>58.0</ele><time>2026-04-16T11:57:59.873Z</time></trkpt><trkpt lat="42.7363383" lon="-8.536505"><ele>58.0</ele><time>2026-04-16T11:58:00.873Z</time></trkpt><trkpt lat="42.7362383" lon="-8.5363467"><ele>58.0</ele><time>2026-04-16T11:58:01.873Z</time></trkpt><trkpt lat="42.7361417" lon="-8.5361933"><ele>58.25</ele><time>2026-04-16T11:58:02.874Z</time></trkpt><trkpt lat="42.7360483" lon="-8.536035"><ele>58.5</ele><time>2026-04-16T11:58:03.874Z</time></trkpt><trkpt lat="42.7359583" lon="-8.53587"><ele>58.75</ele><time>2026-04-16T11:58:04.873Z</time></trkpt><trkpt lat="42.7358783" lon="-8.5356983"><ele>59.0</ele><time>2026-04-16T11:58:05.873Z</time></trkpt><trkpt lat="42.735815" lon="-8.53552"><ele>60.0</ele><time>2026-04-16T11:58:06.874Z</time></trkpt><trkpt lat="42.73576" lon="-8.5353283"><ele>61.0</ele><time>2026-04-16T11:58:07.874Z</time></trkpt><trkpt lat="42.7357167" lon="-8.535125"><ele>62.0</ele><time>2026-04-16T11:58:08.874Z</time></trkpt><trkpt lat="42.73568" lon="-8.5349117"><ele>62.0</ele><time>2026-04-16T11:58:09.873Z</time></trkpt><trkpt lat="42.7356533" lon="-8.5347"><ele>62.0</ele><time>2026-04-16T11:58:10.873Z</time></trkpt><trkpt lat="42.73563" lon="-8.5344783"><ele>62.0</ele><time>2026-04-16T11:58:11.873Z</time></trkpt><trkpt lat="42.7356083" lon="-8.5342533"><ele>63.333333333333336</ele><time>2026-04-16T11:58:12.874Z</time></trkpt><trkpt lat="42.7355933" lon="-8.5340233"><ele>64.66666666666667</ele><time>2026-04-16T11:58:13.874Z</time></trkpt><trkpt lat="42.73558" lon="-8.53379"><ele>66.0</ele><time>2026-04-16T11:58:14.873Z</time></trkpt><trkpt lat="42.73557" lon="-8.533555"><ele>67.0</ele><time>2026-04-16T11:58:15.874Z</time></trkpt><trkpt lat="42.735545" lon="-8.5333233"><ele>68.0</ele><time>2026-04-16T11:58:16.873Z</time></trkpt><trkpt lat="42.7355167" lon="-8.53309"><ele>69.0</ele><time>2026-04-16T11:58:17.874Z</time></trkpt><trkpt lat="42.735485" lon="-8.5328617"><ele>69.0</ele><time>2026-04-16T11:58:18.873Z</time></trkpt><trkpt lat="42.73545" lon="-8.532635"><ele>69.0</ele><time>2026-04-16T11:58:19.874Z</time></trkpt><trkpt lat="42.7354083" lon="-8.5324217"><ele>69.0</ele><time>2026-04-16T11:58:20.874Z</time></trkpt><trkpt lat="42.7353667" lon="-8.5322"><ele>70.0</ele><time>2026-04-16T11:58:21.873Z</time></trkpt><trkpt lat="42.73532" lon="-8.531985"><ele>71.0</ele><time>2026-04-16T11:58:22.874Z</time></trkpt><trkpt lat="42.7352783" lon="-8.5317667"><ele>72.0</ele><time>2026-04-16T11:58:23.873Z</time></trkpt><trkpt lat="42.7352333" lon="-8.5315483"><ele>72.66666666666667</ele><time>2026-04-16T11:58:24.874Z</time></trkpt><trkpt lat="42.7351867" lon="-8.531335"><ele>73.33333333333334</ele><time>2026-04-16T11:58:25.874Z</time></trkpt><trkpt lat="42.7351317" lon="-8.53112"><ele>74.0</ele><time>2026-04-16T11:58:26.873Z</time></trkpt><trkpt lat="42.73507" lon="-8.5309067"><ele>75.33333333333334</ele><time>2026-04-16T11:58:27.873Z</time></trkpt><trkpt lat="42.735" lon="-8.5307017"><ele>76.66666666666667</ele><time>2026-04-16T11:58:28.874Z</time></trkpt><trkpt lat="42.7349233" lon="-8.5305117"><ele>78.0</ele><time>2026-04-16T11:58:29.873Z</time></trkpt><trkpt lat="42.734835" lon="-8.5303283"><ele>79.33333333333333</ele><time>2026-04-16T11:58:30.874Z</time></trkpt><trkpt lat="42.734735" lon="-8.5301517"><ele>80.66666666666666</ele><time>2026-04-16T11:58:31.874Z</time></trkpt><trkpt lat="42.734635" lon="-8.5299883"><ele>82.0</ele><time>2026-04-16T11:58:32.873Z</time></trkpt><trkpt lat="42.7345233" lon="-8.5298367"><ele>82.0</ele><time>2026-04-16T11:58:33.874Z</time></trkpt><trkpt lat="42.7344083" lon="-8.5297017"><ele>82.0</ele><time>2026-04-16T11:58:34.874Z</time></trkpt><trkpt lat="42.7342767" lon="-8.529575"><ele>82.0</ele><time>2026-04-16T11:58:35.874Z</time></trkpt><trkpt lat="42.7341433" lon="-8.5294533"><ele>84.66666666666666</ele><time>2026-04-16T11:58:36.873Z</time></trkpt><trkpt lat="42.7340067" lon="-8.5293483"><ele>87.33333333333333</ele><time>2026-04-16T11:58:37.873Z</time></trkpt><trkpt lat="42.7338683" lon="-8.5292483"><ele>90.0</ele><time>2026-04-16T11:58:38.873Z</time></trkpt><trkpt lat="42.73373" lon="-8.5291467"><ele>90.0</ele><time>2026-04-16T11:58:39.873Z</time></trkpt><trkpt lat="42.7335883" lon="-8.52904"><ele>90.0</ele><time>2026-04-16T11:58:40.873Z</time></trkpt><trkpt lat="42.7334483" lon="-8.52894"><ele>90.0</ele><time>2026-04-16T11:58:41.874Z</time></trkpt><trkpt lat="42.7333083" lon="-8.5288383"><ele>91.66666666666667</ele><time>2026-04-16T11:58:42.874Z</time></trkpt><trkpt lat="42.733175" lon="-8.52874"><ele>93.33333333333334</ele><time>2026-04-16T11:58:43.873Z</time></trkpt><trkpt lat="42.7330433" lon="-8.5286433"><ele>95.0</ele><time>2026-04-16T11:58:44.873Z</time></trkpt><trkpt lat="42.732905" lon="-8.5285433"><ele>95.0</ele><time>2026-04-16T11:58:45.873Z</time></trkpt><trkpt lat="42.7327583" lon="-8.528445"><ele>95.0</ele><time>2026-04-16T11:58:46.873Z</time></trkpt><trkpt lat="42.7326133" lon="-8.5283517"><ele>95.0</ele><time>2026-04-16T11:58:47.873Z</time></trkpt><trkpt lat="42.7324683" lon="-8.5282567"><ele>97.66666666666667</ele><time>2026-04-16T11:58:48.873Z</time></trkpt><trkpt lat="42.7323233" lon="-8.5281583"><ele>100.33333333333334</ele><time>2026-04-16T11:58:49.873Z</time></trkpt><trkpt lat="42.7321767" lon="-8.5280683"><ele>103.0</ele><time>2026-04-16T11:58:50.873Z</time></trkpt><trkpt lat="42.7320317" lon="-8.5279833"><ele>104.0</ele><time>2026-04-16T11:58:51.873Z</time></trkpt><trkpt lat="42.7318833" lon="-8.52791"><ele>105.0</ele><time>2026-04-16T11:58:52.874Z</time></trkpt><trkpt lat="42.7317233" lon="-8.527855"><ele>106.0</ele><time>2026-04-16T11:58:53.874Z</time></trkpt><trkpt lat="42.731565" lon="-8.5278167"><ele>106.0</ele><time>2026-04-16T11:58:54.874Z</time></trkpt><trkpt lat="42.73141" lon="-8.527795"><ele>106.0</ele><time>2026-04-16T11:58:55.874Z</time></trkpt><trkpt lat="42.7312417" lon="-8.5277867"><ele>106.0</ele><time>2026-04-16T11:58:56.873Z</time></trkpt><trkpt lat="42.7310883" lon="-8.527775"><ele>107.33333333333334</ele><time>2026-04-16T11:58:57.874Z</time></trkpt><trkpt lat="42.7309367" lon="-8.5277483"><ele>108.66666666666666</ele><time>2026-04-16T11:58:58.874Z</time></trkpt><trkpt lat="42.73078" lon="-8.5277067"><ele>110.0</ele><time>2026-04-16T11:58:59.874Z</time></trkpt><trkpt lat="42.730625" lon="-8.52766"><ele>110.0</ele><time>2026-04-16T11:59:00.873Z</time></trkpt><trkpt lat="42.7304783" lon="-8.5276033"><ele>110.0</ele><time>2026-04-16T11:59:01.874Z</time></trkpt><trkpt lat="42.7303317" lon="-8.527525"><ele>110.0</ele><time>2026-04-16T11:59:02.874Z</time></trkpt><trkpt lat="42.7301817" lon="-8.5274217"><ele>112.66666666666666</ele><time>2026-04-16T11:59:03.873Z</time></trkpt><trkpt lat="42.7300533" lon="-8.5273083"><ele>115.33333333333334</ele><time>2026-04-16T11:59:04.874Z</time></trkpt><trkpt lat="42.7299267" lon="-8.52719"><ele>118.0</ele><time>2026-04-16T11:59:05.874Z</time></trkpt><trkpt lat="42.7297867" lon="-8.5270633"><ele>117.66666666666667</ele><time>2026-04-16T11:59:06.873Z</time></trkpt><trkpt lat="42.7296533" lon="-8.5269317"><ele>117.33333333333334</ele><time>2026-04-16T11:59:07.873Z</time></trkpt><trkpt lat="42.7295183" lon="-8.5268033"><ele>117.0</ele><time>2026-04-16T11:59:08.873Z</time></trkpt><trkpt lat="42.7293917" lon="-8.5266617"><ele>120.66666666666666</ele><time>2026-04-16T11:59:09.873Z</time></trkpt><trkpt lat="42.729255" lon="-8.5265233"><ele>124.33333333333333</ele><time>2026-04-16T11:59:10.873Z</time></trkpt><trkpt lat="42.729125" lon="-8.52639"><ele>128.0</ele><time>2026-04-16T11:59:11.874Z</time></trkpt><trkpt lat="42.7289933" lon="-8.52626"><ele>126.66666666666666</ele><time>2026-04-16T11:59:12.873Z</time></trkpt><trkpt lat="42.7288617" lon="-8.5261317"><ele>125.33333333333334</ele><time>2026-04-16T11:59:13.874Z</time></trkpt><trkpt lat="42.7287283" lon="-8.5259933"><ele>124.0</ele><time>2026-04-16T11:59:14.873Z</time></trkpt><trkpt lat="42.7285967" lon="-8.525855"><ele>125.66666666666667</ele><time>2026-04-16T11:59:15.873Z</time></trkpt><trkpt lat="42.7284633" lon="-8.525705"><ele>127.33333333333334</ele><time>2026-04-16T11:59:16.873Z</time></trkpt><trkpt lat="42.7283283" lon="-8.5255667"><ele>129.0</ele><time>2026-04-16T11:59:17.874Z</time></trkpt><trkpt lat="42.728195" lon="-8.52544"><ele>128.66666666666666</ele><time>2026-04-16T11:59:18.873Z</time></trkpt><trkpt lat="42.72806" lon="-8.5253033"><ele>128.33333333333331</ele><time>2026-04-16T11:59:19.873Z</time></trkpt><trkpt lat="42.72793" lon="-8.5251633"><ele>128.0</ele><time>2026-04-16T11:59:20.873Z</time></trkpt><trkpt lat="42.72779" lon="-8.5250233"><ele>131.33333333333331</ele><time>2026-04-16T11:59:21.874Z</time></trkpt><trkpt lat="42.7276567" lon="-8.5248867"><ele>134.66666666666666</ele><time>2026-04-16T11:59:22.873Z</time></trkpt><trkpt lat="42.7275217" lon="-8.5247483"><ele>138.0</ele><time>2026-04-16T11:59:23.874Z</time></trkpt><trkpt lat="42.7273867" lon="-8.5246117"><ele>136.33333333333334</ele><time>2026-04-16T11:59:24.873Z</time></trkpt><trkpt lat="42.7272617" lon="-8.5244717"><ele>134.66666666666669</ele><time>2026-04-16T11:59:25.873Z</time></trkpt><trkpt lat="42.7271183" lon="-8.5243467"><ele>133.0</ele><time>2026-04-16T11:59:26.873Z</time></trkpt><trkpt lat="42.72699" lon="-8.5242017"><ele>134.66666666666669</ele><time>2026-04-16T11:59:27.874Z</time></trkpt><trkpt lat="42.7268517" lon="-8.5240667"><ele>136.33333333333334</ele><time>2026-04-16T11:59:28.873Z</time></trkpt><trkpt lat="42.7267183" lon="-8.5239283"><ele>138.0</ele><time>2026-04-16T11:59:29.874Z</time></trkpt><trkpt lat="42.7265767" lon="-8.5237883"><ele>138.33333333333334</ele><time>2026-04-16T11:59:30.873Z</time></trkpt><trkpt lat="42.7264433" lon="-8.5236567"><ele>138.66666666666669</ele><time>2026-04-16T11:59:31.874Z</time></trkpt><trkpt lat="42.7263117" lon="-8.52352"><ele>139.0</ele><time>2026-04-16T11:59:32.873Z</time></trkpt><trkpt lat="42.72617" lon="-8.5233783"><ele>141.33333333333334</ele><time>2026-04-16T11:59:33.873Z</time></trkpt><trkpt lat="42.726035" lon="-8.523245"><ele>143.66666666666666</ele><time>2026-04-16T11:59:34.874Z</time></trkpt><trkpt lat="42.7258983" lon="-8.5230933"><ele>146.0</ele><time>2026-04-16T11:59:35.874Z</time></trkpt><trkpt lat="42.72575" lon="-8.52295"><ele>145.33333333333331</ele><time>2026-04-16T11:59:36.873Z</time></trkpt><trkpt lat="42.7256" lon="-8.522805"><ele>144.66666666666666</ele><time>2026-04-16T11:59:37.873Z</time></trkpt><trkpt lat="42.72546" lon="-8.5226617"><ele>144.0</ele><time>2026-04-16T11:59:38.873Z</time></trkpt><trkpt lat="42.7253167" lon="-8.5225217"><ele>146.0</ele><time>2026-04-16T11:59:39.873Z</time></trkpt><trkpt lat="42.7251783" lon="-8.52238"><ele>148.0</ele><time>2026-04-16T11:59:40.873Z</time></trkpt><trkpt lat="42.7250467" lon="-8.5222367"><ele>150.0</ele><time>2026-04-16T11:59:41.874Z</time></trkpt><trkpt lat="42.7249033" lon="-8.522105"><ele>150.66666666666666</ele><time>2026-04-16T11:59:42.874Z</time></trkpt><trkpt lat="42.7247667" lon="-8.5219683"><ele>151.33333333333331</ele><time>2026-04-16T11:59:43.873Z</time></trkpt><trkpt lat="42.7246317" lon="-8.5218283"><ele>152.0</ele><time>2026-04-16T11:59:44.874Z</time></trkpt><trkpt lat="42.724505" lon="-8.5216883"><ele>153.66666666666666</ele><time>2026-04-16T11:59:45.873Z</time></trkpt><trkpt lat="42.7243717" lon="-8.5215533"><ele>155.33333333333334</ele><time>2026-04-16T11:59:46.873Z</time></trkpt><trkpt lat="42.7242367" lon="-8.5214217"><ele>157.0</ele><time>2026-04-16T11:59:47.874Z</time></trkpt><trkpt lat="42.7241033" lon="-8.5212933"><ele>161.0</ele><time>2026-04-16T11:59:48.874Z</time></trkpt><trkpt lat="42.723975" lon="-8.521165"><ele>165.0</ele><time>2026-04-16T11:59:49.874Z</time></trkpt><trkpt lat="42.7238367" lon="-8.5210583"><ele>169.0</ele><time>2026-04-16T11:59:50.874Z</time></trkpt><trkpt lat="42.7236933" lon="-8.52096"><ele>170.33333333333334</ele><time>2026-04-16T11:59:51.873Z</time></trkpt><trkpt lat="42.7235483" lon="-8.5208633"><ele>171.66666666666666</ele><time>2026-04-16T11:59:52.873Z</time></trkpt><trkpt lat="42.723395" lon="-8.5207933"><ele>173.0</ele><time>2026-04-16T11:59:53.873Z</time></trkpt><trkpt lat="42.7232383" lon="-8.5207333"><ele>173.0</ele><time>2026-04-16T11:59:54.874Z</time></trkpt><trkpt lat="42.7230817" lon="-8.5206767"><ele>173.0</ele><time>2026-04-16T11:59:55.873Z</time></trkpt><trkpt lat="42.722925" lon="-8.5206367"><ele>173.0</ele><time>2026-04-16T11:59:56.873Z</time></trkpt><trkpt lat="42.722765" lon="-8.5206117"><ele>175.66666666666666</ele><time>2026-04-16T11:59:57.873Z</time></trkpt><trkpt lat="42.7226167" lon="-8.5205933"><ele>178.33333333333334</ele><time>2026-04-16T11:59:58.873Z</time></trkpt><trkpt lat="42.7224683" lon="-8.5205817"><ele>181.0</ele><time>2026-04-16T11:59:59.874Z</time></trkpt><trkpt lat="42.722305" lon="-8.5205833"><ele>181.0</ele><time>2026-04-16T12:00:00.873Z</time></trkpt><trkpt lat="42.7221433" lon="-8.52059"><ele>181.0</ele><time>2026-04-16T12:00:01.873Z</time></trkpt><trkpt lat="42.721985" lon="-8.5205817"><ele>181.0</ele><time>2026-04-16T12:00:02.873Z</time></trkpt><trkpt lat="42.7218183" lon="-8.520565"><ele>185.33333333333334</ele><time>2026-04-16T12:00:03.873Z</time></trkpt><trkpt lat="42.721665" lon="-8.520545"><ele>189.66666666666669</ele><time>2026-04-16T12:00:04.874Z</time></trkpt><trkpt lat="42.7215117" lon="-8.5205117"><ele>194.0</ele><time>2026-04-16T12:00:05.873Z</time></trkpt><trkpt lat="42.721355" lon="-8.5204767"><ele>194.0</ele><time>2026-04-16T12:00:06.874Z</time></trkpt><trkpt lat="42.7211983" lon="-8.520435"><ele>194.0</ele><time>2026-04-16T12:00:07.874Z</time></trkpt><trkpt lat="42.7210467" lon="-8.5203667"><ele>194.0</ele><time>2026-04-16T12:00:08.874Z</time></trkpt><trkpt lat="42.7209017" lon="-8.52028"><ele>196.66666666666669</ele><time>2026-04-16T12:00:09.874Z</time></trkpt><trkpt lat="42.7207483" lon="-8.5201833"><ele>199.33333333333331</ele><time>2026-04-16T12:00:10.873Z</time></trkpt><trkpt lat="42.720595" lon="-8.5200733"><ele>202.0</ele><time>2026-04-16T12:00:11.874Z</time></trkpt><trkpt lat="42.7204683" lon="-8.519965"><ele>202.0</ele><time>2026-04-16T12:00:12.874Z</time></trkpt><trkpt lat="42.7203317" lon="-8.5198467"><ele>202.0</ele><time>2026-04-16T12:00:13.873Z</time></trkpt><trkpt lat="42.7202" lon="-8.5197117"><ele>202.0</ele><time>2026-04-16T12:00:14.873Z</time></trkpt><trkpt lat="42.720065" lon="-8.519575"><ele>206.0</ele><time>2026-04-16T12:00:15.873Z</time></trkpt><trkpt lat="42.7199433" lon="-8.5194233"><ele>210.0</ele><time>2026-04-16T12:00:16.873Z</time></trkpt><trkpt lat="42.7198183" lon="-8.519275"><ele>214.0</ele><time>2026-04-16T12:00:17.873Z</time></trkpt><trkpt lat="42.7197033" lon="-8.5191333"><ele>214.0</ele><time>2026-04-16T12:00:18.873Z</time></trkpt><trkpt lat="42.7195817" lon="-8.5190033"><ele>214.0</ele><time>2026-04-16T12:00:19.873Z</time></trkpt><trkpt lat="42.7194583" lon="-8.5188667"><ele>214.0</ele><time>2026-04-16T12:00:20.873Z</time></trkpt><trkpt lat="42.7193317" lon="-8.5187283"><ele>216.33333333333331</ele><time>2026-04-16T12:00:21.873Z</time></trkpt><trkpt lat="42.7192" lon="-8.5185933"><ele>218.66666666666669</ele><time>2026-04-16T12:00:22.873Z</time></trkpt><trkpt lat="42.7190667" lon="-8.5184667"><ele>221.0</ele><time>2026-04-16T12:00:23.874Z</time></trkpt><trkpt lat="42.7189317" lon="-8.5183483"><ele>221.0</ele><time>2026-04-16T12:00:24.873Z</time></trkpt><trkpt lat="42.7187983" lon="-8.51823"><ele>221.0</ele><time>2026-04-16T12:00:25.873Z</time></trkpt><trkpt lat="42.7186617" lon="-8.5181083"><ele>221.0</ele><time>2026-04-16T12:00:26.873Z</time></trkpt><trkpt lat="42.718525" lon="-8.5179983"><ele>223.0</ele><time>2026-04-16T12:00:27.873Z</time></trkpt><trkpt lat="42.7183933" lon="-8.51789"><ele>225.0</ele><time>2026-04-16T12:00:28.874Z</time></trkpt><trkpt lat="42.7182583" lon="-8.5177767"><ele>227.0</ele><time>2026-04-16T12:00:29.873Z</time></trkpt><trkpt lat="42.7181167" lon="-8.517675"><ele>227.0</ele><time>2026-04-16T12:00:30.874Z</time></trkpt><trkpt lat="42.7179717" lon="-8.5175717"><ele>227.0</ele><time>2026-04-16T12:00:31.873Z</time></trkpt><trkpt lat="42.717835" lon="-8.5174683"><ele>227.0</ele><time>2026-04-16T12:00:32.874Z</time></trkpt><trkpt lat="42.7176933" lon="-8.5173683"><ele>227.66666666666669</ele><time>2026-04-16T12:00:33.874Z</time></trkpt><trkpt lat="42.71755" lon="-8.517265"><ele>228.33333333333331</ele><time>2026-04-16T12:00:34.873Z</time></trkpt><trkpt lat="42.7174167" lon="-8.5171433"><ele>229.0</ele><time>2026-04-16T12:00:35.873Z</time></trkpt><trkpt lat="42.71727" lon="-8.51704"><ele>229.0</ele><time>2026-04-16T12:00:36.873Z</time></trkpt><trkpt lat="42.7171367" lon="-8.51693"><ele>229.0</ele><time>2026-04-16T12:00:37.874Z</time></trkpt><trkpt lat="42.7170067" lon="-8.5168133"><ele>229.0</ele><time>2026-04-16T12:00:38.873Z</time></trkpt><trkpt lat="42.7168833" lon="-8.5166867"><ele>230.66666666666666</ele><time>2026-04-16T12:00:39.874Z</time></trkpt><trkpt lat="42.7167583" lon="-8.5165483"><ele>232.33333333333331</ele><time>2026-04-16T12:00:40.873Z</time></trkpt><trkpt lat="42.71664" lon="-8.5163967"><ele>234.0</ele><time>2026-04-16T12:00:41.874Z</time></trkpt><trkpt lat="42.7165233" lon="-8.516245"><ele>235.33333333333331</ele><time>2026-04-16T12:00:42.873Z</time></trkpt><trkpt lat="42.71642" lon="-8.51608"><ele>236.66666666666666</ele><time>2026-04-16T12:00:43.873Z</time></trkpt><trkpt lat="42.716315" lon="-8.5159217"><ele>238.0</ele><time>2026-04-16T12:00:44.874Z</time></trkpt><trkpt lat="42.7162133" lon="-8.515755"><ele>238.0</ele><time>2026-04-16T12:00:45.873Z</time></trkpt><trkpt lat="42.71611" lon="-8.5155833"><ele>238.0</ele><time>2026-04-16T12:00:46.873Z</time></trkpt><trkpt lat="42.7160167" lon="-8.5154067"><ele>238.0</ele><time>2026-04-16T12:00:47.873Z</time></trkpt><trkpt lat="42.715935" lon="-8.5152233"><ele>240.0</ele><time>2026-04-16T12:00:48.874Z</time></trkpt><trkpt lat="42.7158483" lon="-8.515055"><ele>242.0</ele><time>2026-04-16T12:00:49.873Z</time></trkpt><trkpt lat="42.7157583" lon="-8.51489"><ele>244.0</ele><time>2026-04-16T12:00:50.873Z</time></trkpt><trkpt lat="42.7156667" lon="-8.51472"><ele>245.0</ele><time>2026-04-16T12:00:51.873Z</time></trkpt><trkpt lat="42.7155767" lon="-8.5145433"><ele>246.0</ele><time>2026-04-16T12:00:52.874Z</time></trkpt><trkpt lat="42.71549" lon="-8.5143767"><ele>247.0</ele><time>2026-04-16T12:00:53.873Z</time></trkpt><trkpt lat="42.7153967" lon="-8.5142017"><ele>247.0</ele><time>2026-04-16T12:00:54.874Z</time></trkpt><trkpt lat="42.7153" lon="-8.514035"><ele>247.0</ele><time>2026-04-16T12:00:55.874Z</time></trkpt><trkpt lat="42.71521" lon="-8.5138633"><ele>247.0</ele><time>2026-04-16T12:00:56.873Z</time></trkpt><trkpt lat="42.71512" lon="-8.51369"><ele>247.25</ele><time>2026-04-16T12:00:57.873Z</time></trkpt><trkpt lat="42.7150333" lon="-8.513515"><ele>247.5</ele><time>2026-04-16T12:00:58.874Z</time></trkpt><trkpt lat="42.7149417" lon="-8.5133567"><ele>247.75</ele><time>2026-04-16T12:00:59.874Z</time></trkpt><trkpt lat="42.714855" lon="-8.5132067"><ele>248.0</ele><time>2026-04-16T12:01:00.874Z</time></trkpt><trkpt lat="42.714775" lon="-8.5130733"><ele>248.0</ele><time>2026-04-16T12:01:01.874Z</time></trkpt><trkpt lat="42.7146983" lon="-8.5129567"><ele>248.0</ele><time>2026-04-16T12:01:02.874Z</time></trkpt><trkpt lat="42.7146133" lon="-8.51286"><ele>248.0</ele><time>2026-04-16T12:01:03.874Z</time></trkpt><trkpt lat="42.7145217" lon="-8.512775"><ele>248.0</ele><time>2026-04-16T12:01:04.874Z</time></trkpt><trkpt lat="42.7144333" lon="-8.51271"><ele>248.0</ele><time>2026-04-16T12:01:05.874Z</time></trkpt><trkpt lat="42.7143533" lon="-8.51263"><ele>247.25</ele><time>2026-04-16T12:01:06.874Z</time></trkpt><trkpt lat="42.714295" lon="-8.5125167"><ele>246.5</ele><time>2026-04-16T12:01:07.874Z</time></trkpt><trkpt lat="42.7142617" lon="-8.51237"><ele>245.75</ele><time>2026-04-16T12:01:08.874Z</time></trkpt><trkpt lat="42.7142383" lon="-8.5122083"><ele>245.0</ele><time>2026-04-16T12:01:09.873Z</time></trkpt><trkpt lat="42.7142017" lon="-8.5120417"><ele>244.75</ele><time>2026-04-16T12:01:10.873Z</time></trkpt><trkpt lat="42.714135" lon="-8.5118783"><ele>244.5</ele><time>2026-04-16T12:01:11.873Z</time></trkpt><trkpt lat="42.714065" lon="-8.511715"><ele>244.25</ele><time>2026-04-16T12:01:12.874Z</time></trkpt><trkpt lat="42.7139817" lon="-8.5115483"><ele>244.0</ele><time>2026-04-16T12:01:13.874Z</time></trkpt><trkpt lat="42.7138917" lon="-8.51138"><ele>244.0</ele><time>2026-04-16T12:01:14.874Z</time></trkpt><trkpt lat="42.7138" lon="-8.5112083"><ele>244.0</ele><time>2026-04-16T12:01:15.873Z</time></trkpt><trkpt lat="42.7137033" lon="-8.5110283"><ele>244.0</ele><time>2026-04-16T12:01:16.873Z</time></trkpt><trkpt lat="42.7136067" lon="-8.5108433"><ele>242.33333333333331</ele><time>2026-04-16T12:01:17.873Z</time></trkpt><trkpt lat="42.71351" lon="-8.5106667"><ele>240.66666666666669</ele><time>2026-04-16T12:01:18.873Z</time></trkpt><trkpt lat="42.713415" lon="-8.5104917"><ele>239.0</ele><time>2026-04-16T12:01:19.873Z</time></trkpt><trkpt lat="42.7133267" lon="-8.5103133"><ele>239.0</ele><time>2026-04-16T12:01:20.874Z</time></trkpt><trkpt lat="42.7132433" lon="-8.510135"><ele>239.0</ele><time>2026-04-16T12:01:21.874Z</time></trkpt><trkpt lat="42.7131633" lon="-8.5099583"><ele>239.0</ele><time>2026-04-16T12:01:22.873Z</time></trkpt><trkpt lat="42.713085" lon="-8.5097783"><ele>239.0</ele><time>2026-04-16T12:01:23.873Z</time></trkpt><trkpt lat="42.7130117" lon="-8.5096017"><ele>239.0</ele><time>2026-04-16T12:01:24.873Z</time></trkpt><trkpt lat="42.7129383" lon="-8.5094267"><ele>239.0</ele><time>2026-04-16T12:01:25.874Z</time></trkpt><trkpt lat="42.7128683" lon="-8.509245"><ele>239.0</ele><time>2026-04-16T12:01:26.874Z</time></trkpt><trkpt lat="42.7128" lon="-8.5090683"><ele>240.0</ele><time>2026-04-16T12:01:27.874Z</time></trkpt><trkpt lat="42.71273" lon="-8.5088817"><ele>241.0</ele><time>2026-04-16T12:01:28.873Z</time></trkpt><trkpt lat="42.7126617" lon="-8.5086983"><ele>242.0</ele><time>2026-04-16T12:01:29.873Z</time></trkpt><trkpt lat="42.71259" lon="-8.508505"><ele>242.0</ele><time>2026-04-16T12:01:30.874Z</time></trkpt><trkpt lat="42.7125167" lon="-8.5083217"><ele>242.0</ele><time>2026-04-16T12:01:31.873Z</time></trkpt><trkpt lat="42.71244" lon="-8.5081367"><ele>242.0</ele><time>2026-04-16T12:01:32.874Z</time></trkpt><trkpt lat="42.7123583" lon="-8.5079483"><ele>240.0</ele><time>2026-04-16T12:01:33.873Z</time></trkpt><trkpt lat="42.712265" lon="-8.50778"><ele>238.0</ele><time>2026-04-16T12:01:34.873Z</time></trkpt><trkpt lat="42.7121567" lon="-8.5076133"><ele>236.0</ele><time>2026-04-16T12:01:35.873Z</time></trkpt><trkpt lat="42.7120367" lon="-8.5074583"><ele>234.0</ele><time>2026-04-16T12:01:36.873Z</time></trkpt><trkpt lat="42.7119067" lon="-8.50732"><ele>232.0</ele><time>2026-04-16T12:01:37.873Z</time></trkpt><trkpt lat="42.7117683" lon="-8.5071867"><ele>230.0</ele><time>2026-04-16T12:01:38.873Z</time></trkpt><trkpt lat="42.711625" lon="-8.50706"><ele>230.0</ele><time>2026-04-16T12:01:39.874Z</time></trkpt><trkpt lat="42.711475" lon="-8.5069533"><ele>230.0</ele><time>2026-04-16T12:01:40.873Z</time></trkpt><trkpt lat="42.71132" lon="-8.50686"><ele>230.0</ele><time>2026-04-16T12:01:41.873Z</time></trkpt><trkpt lat="42.7111667" lon="-8.5067817"><ele>227.33333333333334</ele><time>2026-04-16T12:01:42.874Z</time></trkpt><trkpt lat="42.7110067" lon="-8.5067133"><ele>224.66666666666669</ele><time>2026-04-16T12:01:43.874Z</time></trkpt><trkpt lat="42.71085" lon="-8.5066383"><ele>222.0</ele><time>2026-04-16T12:01:44.873Z</time></trkpt><trkpt lat="42.7106983" lon="-8.5065633"><ele>222.0</ele><time>2026-04-16T12:01:45.873Z</time></trkpt><trkpt lat="42.7105433" lon="-8.5064833"><ele>222.0</ele><time>2026-04-16T12:01:46.874Z</time></trkpt><trkpt lat="42.71038" lon="-8.5064"><ele>222.0</ele><time>2026-04-16T12:01:47.873Z</time></trkpt><trkpt lat="42.7102267" lon="-8.5062983"><ele>219.66666666666669</ele><time>2026-04-16T12:01:48.874Z</time></trkpt><trkpt lat="42.7100733" lon="-8.506195"><ele>217.33333333333334</ele><time>2026-04-16T12:01:49.873Z</time></trkpt><trkpt lat="42.7099167" lon="-8.5060817"><ele>215.0</ele><time>2026-04-16T12:01:50.874Z</time></trkpt><trkpt lat="42.70977" lon="-8.5059717"><ele>215.0</ele><time>2026-04-16T12:01:51.874Z</time></trkpt><trkpt lat="42.7096183" lon="-8.5058517"><ele>215.0</ele><time>2026-04-16T12:01:52.874Z</time></trkpt><trkpt lat="42.709465" lon="-8.50574"><ele>215.0</ele><time>2026-04-16T12:01:53.873Z</time></trkpt><trkpt lat="42.7093167" lon="-8.5056217"><ele>214.33333333333334</ele><time>2026-04-16T12:01:54.874Z</time></trkpt><trkpt lat="42.7091683" lon="-8.5055117"><ele>213.66666666666669</ele><time>2026-04-16T12:01:55.874Z</time></trkpt><trkpt lat="42.709025" lon="-8.5054033"><ele>213.0</ele><time>2026-04-16T12:01:56.874Z</time></trkpt><trkpt lat="42.708875" lon="-8.5052917"><ele>213.0</ele><time>2026-04-16T12:01:57.873Z</time></trkpt><trkpt lat="42.7087317" lon="-8.5051867"><ele>213.0</ele><time>2026-04-16T12:01:58.874Z</time></trkpt><trkpt lat="42.7085833" lon="-8.5050817"><ele>213.0</ele><time>2026-04-16T12:01:59.873Z</time></trkpt><trkpt lat="42.708435" lon="-8.5049667"><ele>213.0</ele><time>2026-04-16T12:02:00.874Z</time></trkpt><trkpt lat="42.7082933" lon="-8.504855"><ele>213.0</ele><time>2026-04-16T12:02:01.874Z</time></trkpt><trkpt lat="42.7081533" lon="-8.5047433"><ele>213.0</ele><time>2026-04-16T12:02:02.873Z</time></trkpt><trkpt lat="42.708005" lon="-8.5046417"><ele>212.66666666666669</ele><time>2026-04-16T12:02:03.873Z</time></trkpt><trkpt lat="42.707855" lon="-8.5045333"><ele>212.33333333333334</ele><time>2026-04-16T12:02:04.873Z</time></trkpt><trkpt lat="42.707705" lon="-8.5044167"><ele>212.0</ele><time>2026-04-16T12:02:05.874Z</time></trkpt><trkpt lat="42.70756" lon="-8.5042967"><ele>214.0</ele><time>2026-04-16T12:02:06.874Z</time></trkpt><trkpt lat="42.70741" lon="-8.5041883"><ele>216.0</ele><time>2026-04-16T12:02:07.873Z</time></trkpt><trkpt lat="42.7072633" lon="-8.5040733"><ele>218.0</ele><time>2026-04-16T12:02:08.873Z</time></trkpt><trkpt lat="42.7071217" lon="-8.5039567"><ele>218.0</ele><time>2026-04-16T12:02:09.874Z</time></trkpt><trkpt lat="42.706975" lon="-8.5038433"><ele>218.0</ele><time>2026-04-16T12:02:10.874Z</time></trkpt><trkpt lat="42.7068267" lon="-8.50372"><ele>218.0</ele><time>2026-04-16T12:02:11.873Z</time></trkpt><trkpt lat="42.7066733" lon="-8.5036017"><ele>221.33333333333334</ele><time>2026-04-16T12:02:12.873Z</time></trkpt><trkpt lat="42.7065183" lon="-8.5034883"><ele>224.66666666666669</ele><time>2026-04-16T12:02:13.874Z</time></trkpt><trkpt lat="42.7063633" lon="-8.5033717"><ele>228.0</ele><time>2026-04-16T12:02:14.873Z</time></trkpt><trkpt lat="42.706205" lon="-8.5032583"><ele>228.0</ele><time>2026-04-16T12:02:15.873Z</time></trkpt><trkpt lat="42.7060533" lon="-8.50315"><ele>228.0</ele><time>2026-04-16T12:02:16.873Z</time></trkpt><trkpt lat="42.7059" lon="-8.5030433"><ele>228.0</ele><time>2026-04-16T12:02:17.873Z</time></trkpt><trkpt lat="42.7057433" lon="-8.50293"><ele>227.66666666666669</ele><time>2026-04-16T12:02:18.874Z</time></trkpt><trkpt lat="42.7055867" lon="-8.5028083"><ele>227.33333333333334</ele><time>2026-04-16T12:02:19.873Z</time></trkpt><trkpt lat="42.7054317" lon="-8.5026867"><ele>227.0</ele><time>2026-04-16T12:02:20.873Z</time></trkpt><trkpt lat="42.7052817" lon="-8.5025817"><ele>228.33333333333334</ele><time>2026-04-16T12:02:21.873Z</time></trkpt><trkpt lat="42.70513" lon="-8.5024717"><ele>229.66666666666669</ele><time>2026-04-16T12:02:22.874Z</time></trkpt><trkpt lat="42.7049767" lon="-8.5023567"><ele>231.0</ele><time>2026-04-16T12:02:23.874Z</time></trkpt><trkpt lat="42.7048233" lon="-8.50225"><ele>231.0</ele><time>2026-04-16T12:02:24.874Z</time></trkpt><trkpt lat="42.7046667" lon="-8.502135"><ele>231.0</ele><time>2026-04-16T12:02:25.873Z</time></trkpt><trkpt lat="42.7045183" lon="-8.5020133"><ele>231.0</ele><time>2026-04-16T12:02:26.873Z</time></trkpt><trkpt lat="42.704365" lon="-8.501895"><ele>231.33333333333331</ele><time>2026-04-16T12:02:27.873Z</time></trkpt><trkpt lat="42.7042133" lon="-8.5017783"><ele>231.66666666666666</ele><time>2026-04-16T12:02:28.873Z</time></trkpt><trkpt lat="42.7040633" lon="-8.50166"><ele>232.0</ele><time>2026-04-16T12:02:29.874Z</time></trkpt><trkpt lat="42.7039217" lon="-8.5015517"><ele>232.0</ele><time>2026-04-16T12:02:30.873Z</time></trkpt><trkpt lat="42.7037883" lon="-8.5014483"><ele>232.0</ele><time>2026-04-16T12:02:31.874Z</time></trkpt><trkpt lat="42.7036667" lon="-8.50135"><ele>232.0</ele><time>2026-04-16T12:02:32.873Z</time></trkpt><trkpt lat="42.7035517" lon="-8.50126"><ele>232.0</ele><time>2026-04-16T12:02:33.874Z</time></trkpt><trkpt lat="42.7034283" lon="-8.501195"><ele>232.5</ele><time>2026-04-16T12:02:34.874Z</time></trkpt><trkpt lat="42.7033083" lon="-8.50113"><ele>233.0</ele><time>2026-04-16T12:02:35.874Z</time></trkpt><trkpt lat="42.7032" lon="-8.501095"><ele>233.5</ele><time>2026-04-16T12:02:36.874Z</time></trkpt><trkpt lat="42.703085" lon="-8.50107"><ele>234.0</ele><time>2026-04-16T12:02:37.873Z</time></trkpt><trkpt lat="42.7029717" lon="-8.5010583"><ele>234.0</ele><time>2026-04-16T12:02:38.873Z</time></trkpt><trkpt lat="42.7028617" lon="-8.5010567"><ele>233.99999999999997</ele><time>2026-04-16T12:02:39.874Z</time></trkpt><trkpt lat="42.7027533" lon="-8.501075"><ele>233.99999999999997</ele><time>2026-04-16T12:02:40.874Z</time></trkpt><trkpt lat="42.7026533" lon="-8.5010933"><ele>234.0</ele><time>2026-04-16T12:02:41.874Z</time></trkpt><trkpt lat="42.702555" lon="-8.5011"><ele>234.0</ele><time>2026-04-16T12:02:42.873Z</time></trkpt><trkpt lat="42.7024683" lon="-8.50109"><ele>234.0</ele><time>2026-04-16T12:02:43.874Z</time></trkpt><trkpt lat="42.7024083" lon="-8.5010567"><ele>234.0</ele><time>2026-04-16T12:02:44.874Z</time></trkpt><trkpt lat="42.7023917" lon="-8.5009717"><ele>234.0</ele><time>2026-04-16T12:02:46.873Z</time></trkpt><trkpt lat="42.7024717" lon="-8.5008983"><ele>234.0</ele><time>2026-04-16T12:02:48.874Z</time></trkpt><trkpt lat="42.70255" lon="-8.500855"><ele>234.0</ele><time>2026-04-16T12:02:49.874Z</time></trkpt><trkpt lat="42.70265" lon="-8.5007967"><ele>234.0</ele><time>2026-04-16T12:02:50.873Z</time></trkpt><trkpt lat="42.7027683" lon="-8.5007233"><ele>234.0</ele><time>2026-04-16T12:02:51.873Z</time></trkpt><trkpt lat="42.7028817" lon="-8.5006683"><ele>233.99999999999997</ele><time>2026-04-16T12:02:52.873Z</time></trkpt><trkpt lat="42.7029867" lon="-8.5006517"><ele>233.99999999999997</ele><time>2026-04-16T12:02:53.874Z</time></trkpt><trkpt lat="42.7030867" lon="-8.5006417"><ele>234.0</ele><time>2026-04-16T12:02:54.874Z</time></trkpt><trkpt lat="42.7031633" lon="-8.5006517"><ele>234.0</ele><time>2026-04-16T12:02:55.873Z</time></trkpt><trkpt lat="42.7032283" lon="-8.50065"><ele>234.0</ele><time>2026-04-16T12:02:57.873Z</time></trkpt><trkpt lat="42.7032967" lon="-8.5006633"><ele>234.0</ele><time>2026-04-16T12:05:21.873Z</time></trkpt><trkpt lat="42.7033683" lon="-8.5007133"><ele>234.0</ele><time>2026-04-16T12:05:27.874Z</time></trkpt><trkpt lat="42.7032467" lon="-8.50067"><ele>234.0</ele><time>2026-04-16T12:11:49.875Z</time></trkpt><trkpt lat="42.7033133" lon="-8.5007017"><ele>234.0</ele><time>2026-04-16T12:11:57.875Z</time></trkpt><trkpt lat="42.70339" lon="-8.5007267"><ele>234.0</ele><time>2026-04-16T12:12:01.874Z</time></trkpt><trkpt lat="42.7034517" lon="-8.50077"><ele>234.0</ele><time>2026-04-16T12:12:06.875Z</time></trkpt><trkpt lat="42.70341" lon="-8.5006683"><ele>233.99999999999997</ele><time>2026-04-16T12:17:20.874Z</time></trkpt><trkpt lat="42.7034683" lon="-8.500615"><ele>233.99999999999997</ele><time>2026-04-16T12:17:25.874Z</time></trkpt><trkpt lat="42.7035383" lon="-8.5005783"><ele>234.0</ele><time>2026-04-16T12:17:30.875Z</time></trkpt><trkpt lat="42.7034583" lon="-8.5007483"><ele>234.0</ele><time>2026-04-16T12:23:10.876Z</time></trkpt><trkpt lat="42.703405" lon="-8.5008467"><ele>234.0</ele><time>2026-04-16T12:23:44.875Z</time></trkpt><trkpt lat="42.7032983" lon="-8.500805"><ele>234.0</ele><time>2026-04-16T12:23:46.876Z</time></trkpt><trkpt lat="42.7032383" lon="-8.500775"><ele>234.0</ele><time>2026-04-16T12:23:47.875Z</time></trkpt><trkpt lat="42.70313" lon="-8.5007433"><ele>234.0</ele><time>2026-04-16T12:23:49.876Z</time></trkpt><trkpt lat="42.70306" lon="-8.500735"><ele>234.0</ele><time>2026-04-16T12:23:51.875Z</time></trkpt><trkpt lat="42.7030817" lon="-8.5008383"><ele>234.0</ele><time>2026-04-16T12:23:55.875Z</time></trkpt><trkpt lat="42.70316" lon="-8.50088"><ele>234.0</ele><time>2026-04-16T12:23:57.875Z</time></trkpt><trkpt lat="42.7032133" lon="-8.5009583"><ele>234.0</ele><time>2026-04-16T12:24:11.875Z</time></trkpt><trkpt lat="42.7031533" lon="-8.5010433"><ele>234.0</ele><time>2026-04-16T12:24:13.876Z</time></trkpt><trkpt lat="42.7030367" lon="-8.5010567"><ele>234.0</ele><time>2026-04-16T12:24:15.875Z</time></trkpt><trkpt lat="42.702965" lon="-8.50106"><ele>234.0</ele><time>2026-04-16T12:24:16.875Z</time></trkpt><trkpt lat="42.702895" lon="-8.50107"><ele>234.0</ele><time>2026-04-16T12:24:17.875Z</time></trkpt><trkpt lat="42.7028217" lon="-8.50108"><ele>234.0</ele><time>2026-04-16T12:24:18.875Z</time></trkpt><trkpt lat="42.7027533" lon="-8.5010867"><ele>234.00000000000003</ele><time>2026-04-16T12:24:19.875Z</time></trkpt><trkpt lat="42.702685" lon="-8.5010933"><ele>234.0</ele><time>2026-04-16T12:24:20.876Z</time></trkpt><trkpt lat="42.7026183" lon="-8.5010983"><ele>234.0</ele><time>2026-04-16T12:24:21.876Z</time></trkpt><trkpt lat="42.7025483" lon="-8.50111"><ele>234.00000000000003</ele><time>2026-04-16T12:24:22.876Z</time></trkpt><trkpt lat="42.702475" lon="-8.5011233"><ele>234.0</ele><time>2026-04-16T12:24:23.876Z</time></trkpt><trkpt lat="42.7024017" lon="-8.501135"><ele>234.0</ele><time>2026-04-16T12:24:24.875Z</time></trkpt><trkpt lat="42.70233" lon="-8.5011483"><ele>233.16666666666666</ele><time>2026-04-16T12:24:25.875Z</time></trkpt><trkpt lat="42.70225" lon="-8.5011567"><ele>232.33333333333331</ele><time>2026-04-16T12:24:26.876Z</time></trkpt><trkpt lat="42.702165" lon="-8.5011633"><ele>231.5</ele><time>2026-04-16T12:24:27.876Z</time></trkpt><trkpt lat="42.7020817" lon="-8.5011767"><ele>230.66666666666666</ele><time>2026-04-16T12:24:28.876Z</time></trkpt><trkpt lat="42.7020017" lon="-8.5011833"><ele>229.83333333333331</ele><time>2026-04-16T12:24:29.876Z</time></trkpt><trkpt lat="42.70192" lon="-8.5011917"><ele>229.0</ele><time>2026-04-16T12:24:30.876Z</time></trkpt><trkpt lat="42.7018317" lon="-8.5011983"><ele>228.33333333333331</ele><time>2026-04-16T12:24:31.875Z</time></trkpt><trkpt lat="42.7017467" lon="-8.5012133"><ele>227.66666666666666</ele><time>2026-04-16T12:24:32.875Z</time></trkpt><trkpt lat="42.70166" lon="-8.501225"><ele>227.0</ele><time>2026-04-16T12:24:33.876Z</time></trkpt><trkpt lat="42.7015717" lon="-8.5012383"><ele>226.33333333333331</ele><time>2026-04-16T12:24:34.876Z</time></trkpt><trkpt lat="42.70149" lon="-8.501255"><ele>225.66666666666666</ele><time>2026-04-16T12:24:35.875Z</time></trkpt><trkpt lat="42.7014067" lon="-8.5012667"><ele>225.0</ele><time>2026-04-16T12:24:36.875Z</time></trkpt><trkpt lat="42.7013317" lon="-8.5012833"><ele>226.5</ele><time>2026-04-16T12:24:37.876Z</time></trkpt><trkpt lat="42.701255" lon="-8.5012933"><ele>228.0</ele><time>2026-04-16T12:24:38.875Z</time></trkpt><trkpt lat="42.7011783" lon="-8.501305"><ele>229.5</ele><time>2026-04-16T12:24:39.876Z</time></trkpt><trkpt lat="42.701105" lon="-8.501315"><ele>231.0</ele><time>2026-04-16T12:24:40.875Z</time></trkpt><trkpt lat="42.70103" lon="-8.501325"><ele>232.5</ele><time>2026-04-16T12:24:41.875Z</time></trkpt><trkpt lat="42.7009517" lon="-8.5013317"><ele>234.0</ele><time>2026-04-16T12:24:42.876Z</time></trkpt><trkpt lat="42.7008717" lon="-8.501335"><ele>234.83333333333334</ele><time>2026-04-16T12:24:43.875Z</time></trkpt><trkpt lat="42.7007867" lon="-8.5013417"><ele>235.66666666666669</ele><time>2026-04-16T12:24:44.875Z</time></trkpt><trkpt lat="42.7007033" lon="-8.5013483"><ele>236.5</ele><time>2026-04-16T12:24:45.876Z</time></trkpt><trkpt lat="42.70063" lon="-8.5013533"><ele>237.33333333333334</ele><time>2026-04-16T12:24:46.875Z</time></trkpt><trkpt lat="42.7005583" lon="-8.50136"><ele>238.16666666666669</ele><time>2026-04-16T12:24:47.876Z</time></trkpt><trkpt lat="42.7004867" lon="-8.5013583"><ele>239.0</ele><time>2026-04-16T12:24:48.875Z</time></trkpt><trkpt lat="42.7004183" lon="-8.5013533"><ele>239.00000000000003</ele><time>2026-04-16T12:24:49.875Z</time></trkpt><trkpt lat="42.7003533" lon="-8.5013433"><ele>239.0</ele><time>2026-04-16T12:24:50.875Z</time></trkpt><trkpt lat="42.7002817" lon="-8.5013333"><ele>239.0</ele><time>2026-04-16T12:24:51.875Z</time></trkpt><trkpt lat="42.7002067" lon="-8.5013167"><ele>239.0</ele><time>2026-04-16T12:24:52.875Z</time></trkpt><trkpt lat="42.7001283" lon="-8.5012883"><ele>239.00000000000003</ele><time>2026-04-16T12:24:53.876Z</time></trkpt><trkpt lat="42.7000533" lon="-8.501265"><ele>239.0</ele><time>2026-04-16T12:24:54.875Z</time></trkpt><trkpt lat="42.699975" lon="-8.50124"><ele>236.33333333333334</ele><time>2026-04-16T12:24:55.876Z</time></trkpt><trkpt lat="42.6998967" lon="-8.5012083"><ele>233.66666666666669</ele><time>2026-04-16T12:24:56.875Z</time></trkpt><trkpt lat="42.6998183" lon="-8.5011683"><ele>231.0</ele><time>2026-04-16T12:24:57.876Z</time></trkpt><trkpt lat="42.699745" lon="-8.5011233"><ele>228.33333333333331</ele><time>2026-04-16T12:24:58.875Z</time></trkpt><trkpt lat="42.6996783" lon="-8.5010733"><ele>225.66666666666666</ele><time>2026-04-16T12:24:59.876Z</time></trkpt><trkpt lat="42.699605" lon="-8.501015"><ele>223.0</ele><time>2026-04-16T12:25:00.876Z</time></trkpt><trkpt lat="42.6995383" lon="-8.5009633"><ele>223.0</ele><time>2026-04-16T12:25:01.876Z</time></trkpt><trkpt lat="42.6994883" lon="-8.50091"><ele>223.0</ele><time>2026-04-16T12:25:02.876Z</time></trkpt><trkpt lat="42.699405" lon="-8.5008133"><ele>223.0</ele><time>2026-04-16T12:25:04.876Z</time></trkpt><trkpt lat="42.6993183" lon="-8.5007267"><ele>223.0</ele><time>2026-04-16T12:25:06.876Z</time></trkpt><trkpt lat="42.6992317" lon="-8.5006433"><ele>223.0</ele><time>2026-04-16T12:25:08.876Z</time></trkpt><trkpt lat="42.6991367" lon="-8.50055"><ele>223.75</ele><time>2026-04-16T12:25:10.876Z</time></trkpt><trkpt lat="42.6990417" lon="-8.5004567"><ele>224.5</ele><time>2026-04-16T12:25:12.876Z</time></trkpt><trkpt lat="42.6989517" lon="-8.500355"><ele>225.25</ele><time>2026-04-16T12:25:14.876Z</time></trkpt><trkpt lat="42.69886" lon="-8.5002633"><ele>226.0</ele><time>2026-04-16T12:25:16.876Z</time></trkpt><trkpt lat="42.69876" lon="-8.5001883"><ele>226.60000000000002</ele><time>2026-04-16T12:25:18.876Z</time></trkpt><trkpt lat="42.698685" lon="-8.5001583"><ele>227.20000000000002</ele><time>2026-04-16T12:25:20.875Z</time></trkpt><trkpt lat="42.6985867" lon="-8.50011"><ele>227.79999999999998</ele><time>2026-04-16T12:25:22.876Z</time></trkpt><trkpt lat="42.6984583" lon="-8.5000467"><ele>228.39999999999998</ele><time>2026-04-16T12:25:24.876Z</time></trkpt><trkpt lat="42.698385" lon="-8.500015"><ele>229.0</ele><time>2026-04-16T12:25:25.875Z</time></trkpt><trkpt lat="42.69831" lon="-8.499985"><ele>229.16666666666666</ele><time>2026-04-16T12:25:26.875Z</time></trkpt><trkpt lat="42.6982317" lon="-8.4999533"><ele>229.33333333333331</ele><time>2026-04-16T12:25:27.875Z</time></trkpt><trkpt lat="42.6981517" lon="-8.4999317"><ele>229.5</ele><time>2026-04-16T12:25:28.876Z</time></trkpt><trkpt lat="42.698075" lon="-8.4998983"><ele>229.66666666666669</ele><time>2026-04-16T12:25:29.875Z</time></trkpt><trkpt lat="42.697995" lon="-8.4998683"><ele>229.83333333333334</ele><time>2026-04-16T12:25:30.876Z</time></trkpt><trkpt lat="42.6979183" lon="-8.4998417"><ele>230.0</ele><time>2026-04-16T12:25:31.876Z</time></trkpt><trkpt lat="42.697845" lon="-8.4998117"><ele>230.00000000000003</ele><time>2026-04-16T12:25:32.876Z</time></trkpt><trkpt lat="42.6977717" lon="-8.4997817"><ele>230.0</ele><time>2026-04-16T12:25:33.875Z</time></trkpt><trkpt lat="42.6976967" lon="-8.49976"><ele>230.0</ele><time>2026-04-16T12:25:34.875Z</time></trkpt><trkpt lat="42.6976267" lon="-8.4997367"><ele>230.0</ele><time>2026-04-16T12:25:35.875Z</time></trkpt><trkpt lat="42.6975533" lon="-8.4997167"><ele>230.00000000000003</ele><time>2026-04-16T12:25:36.876Z</time></trkpt><trkpt lat="42.69748" lon="-8.4996917"><ele>230.0</ele><time>2026-04-16T12:25:37.876Z</time></trkpt><trkpt lat="42.697405" lon="-8.4996583"><ele>230.33333333333334</ele><time>2026-04-16T12:25:38.875Z</time></trkpt><trkpt lat="42.6973317" lon="-8.4996233"><ele>230.66666666666669</ele><time>2026-04-16T12:25:39.876Z</time></trkpt><trkpt lat="42.697255" lon="-8.4995883"><ele>231.0</ele><time>2026-04-16T12:25:40.876Z</time></trkpt><trkpt lat="42.6971767" lon="-8.4995517"><ele>231.33333333333331</ele><time>2026-04-16T12:25:41.875Z</time></trkpt><trkpt lat="42.6971" lon="-8.4995083"><ele>231.66666666666666</ele><time>2026-04-16T12:25:42.876Z</time></trkpt><trkpt lat="42.6970217" lon="-8.499465"><ele>232.0</ele><time>2026-04-16T12:25:43.875Z</time></trkpt><trkpt lat="42.6969483" lon="-8.49942"><ele>234.49999999999997</ele><time>2026-04-16T12:25:44.876Z</time></trkpt><trkpt lat="42.69687" lon="-8.49937"><ele>237.0</ele><time>2026-04-16T12:25:45.875Z</time></trkpt><trkpt lat="42.6967983" lon="-8.4993133"><ele>239.5</ele><time>2026-04-16T12:25:46.875Z</time></trkpt><trkpt lat="42.6967233" lon="-8.499255"><ele>242.0</ele><time>2026-04-16T12:25:47.875Z</time></trkpt><trkpt lat="42.6966633" lon="-8.499205"><ele>244.49999999999997</ele><time>2026-04-16T12:25:48.876Z</time></trkpt><trkpt lat="42.6966067" lon="-8.49916"><ele>247.0</ele><time>2026-04-16T12:25:49.876Z</time></trkpt><trkpt lat="42.6965017" lon="-8.4990483"><ele>247.0</ele><time>2026-04-16T12:25:51.876Z</time></trkpt><trkpt lat="42.6964333" lon="-8.49897"><ele>247.0</ele><time>2026-04-16T12:25:52.876Z</time></trkpt><trkpt lat="42.6963633" lon="-8.498875"><ele>247.0</ele><time>2026-04-16T12:25:53.876Z</time></trkpt><trkpt lat="42.6962883" lon="-8.49878"><ele>247.0</ele><time>2026-04-16T12:25:54.876Z</time></trkpt><trkpt lat="42.6962167" lon="-8.4986883"><ele>247.0</ele><time>2026-04-16T12:25:55.876Z</time></trkpt><trkpt lat="42.6961483" lon="-8.4985967"><ele>247.49999999999997</ele><time>2026-04-16T12:25:56.876Z</time></trkpt><trkpt lat="42.6960867" lon="-8.49851"><ele>248.0</ele><time>2026-04-16T12:25:57.875Z</time></trkpt><trkpt lat="42.6960233" lon="-8.49842"><ele>248.5</ele><time>2026-04-16T12:25:58.876Z</time></trkpt><trkpt lat="42.6959633" lon="-8.49833"><ele>249.0</ele><time>2026-04-16T12:25:59.875Z</time></trkpt><trkpt lat="42.6959" lon="-8.4982517"><ele>249.49999999999997</ele><time>2026-04-16T12:26:00.875Z</time></trkpt><trkpt lat="42.6958333" lon="-8.4981817"><ele>250.0</ele><time>2026-04-16T12:26:01.875Z</time></trkpt><trkpt lat="42.695765" lon="-8.4981283"><ele>250.16666666666666</ele><time>2026-04-16T12:26:02.876Z</time></trkpt><trkpt lat="42.6957017" lon="-8.4980783"><ele>250.33333333333331</ele><time>2026-04-16T12:26:03.875Z</time></trkpt><trkpt lat="42.695645" lon="-8.4980167"><ele>250.5</ele><time>2026-04-16T12:26:04.876Z</time></trkpt><trkpt lat="42.695605" lon="-8.4979317"><ele>250.66666666666669</ele><time>2026-04-16T12:26:05.875Z</time></trkpt><trkpt lat="42.6955767" lon="-8.497825"><ele>250.83333333333334</ele><time>2026-04-16T12:26:06.875Z</time></trkpt><trkpt lat="42.6955517" lon="-8.4977067"><ele>251.0</ele><time>2026-04-16T12:26:07.876Z</time></trkpt><trkpt lat="42.6955083" lon="-8.49759"><ele>251.20000000000002</ele><time>2026-04-16T12:26:08.875Z</time></trkpt><trkpt lat="42.6954467" lon="-8.49749"><ele>251.40000000000003</ele><time>2026-04-16T12:26:09.876Z</time></trkpt><trkpt lat="42.69538" lon="-8.4973883"><ele>251.6</ele><time>2026-04-16T12:26:10.875Z</time></trkpt><trkpt lat="42.6953133" lon="-8.49728"><ele>251.8</ele><time>2026-04-16T12:26:11.875Z</time></trkpt><trkpt lat="42.6952483" lon="-8.4971633"><ele>252.0</ele><time>2026-04-16T12:26:12.875Z</time></trkpt><trkpt lat="42.6951783" lon="-8.4970533"><ele>251.39999999999998</ele><time>2026-04-16T12:26:13.876Z</time></trkpt><trkpt lat="42.6951083" lon="-8.4969483"><ele>250.79999999999998</ele><time>2026-04-16T12:26:14.876Z</time></trkpt><trkpt lat="42.6950417" lon="-8.496835"><ele>250.2</ele><time>2026-04-16T12:26:15.875Z</time></trkpt><trkpt lat="42.6949717" lon="-8.4967233"><ele>249.6</ele><time>2026-04-16T12:26:16.875Z</time></trkpt><trkpt lat="42.6949033" lon="-8.4966117"><ele>249.0</ele><time>2026-04-16T12:26:17.875Z</time></trkpt><trkpt lat="42.6948317" lon="-8.4965033"><ele>249.0</ele><time>2026-04-16T12:26:18.875Z</time></trkpt><trkpt lat="42.6947633" lon="-8.4963967"><ele>248.99999999999997</ele><time>2026-04-16T12:26:19.875Z</time></trkpt><trkpt lat="42.694695" lon="-8.4962867"><ele>248.99999999999997</ele><time>2026-04-16T12:26:20.876Z</time></trkpt><trkpt lat="42.6946283" lon="-8.4961733"><ele>249.0</ele><time>2026-04-16T12:26:21.876Z</time></trkpt><trkpt lat="42.6945617" lon="-8.4960633"><ele>249.0</ele><time>2026-04-16T12:26:22.876Z</time></trkpt><trkpt lat="42.6944967" lon="-8.495955"><ele>249.2</ele><time>2026-04-16T12:26:23.876Z</time></trkpt><trkpt lat="42.6944317" lon="-8.49585"><ele>249.39999999999998</ele><time>2026-04-16T12:26:24.876Z</time></trkpt><trkpt lat="42.694365" lon="-8.4957417"><ele>249.6</ele><time>2026-04-16T12:26:25.875Z</time></trkpt><trkpt lat="42.6943033" lon="-8.4956383"><ele>249.8</ele><time>2026-04-16T12:26:26.875Z</time></trkpt><trkpt lat="42.6942367" lon="-8.4955317"><ele>250.0</ele><time>2026-04-16T12:26:27.876Z</time></trkpt><trkpt lat="42.6941667" lon="-8.49543"><ele>251.0</ele><time>2026-04-16T12:26:28.875Z</time></trkpt><trkpt lat="42.6941017" lon="-8.49532"><ele>252.0</ele><time>2026-04-16T12:26:29.876Z</time></trkpt><trkpt lat="42.6940383" lon="-8.4952117"><ele>253.0</ele><time>2026-04-16T12:26:30.875Z</time></trkpt><trkpt lat="42.69397" lon="-8.4951067"><ele>254.0</ele><time>2026-04-16T12:26:31.876Z</time></trkpt><trkpt lat="42.69391" lon="-8.495005"><ele>255.0</ele><time>2026-04-16T12:26:32.876Z</time></trkpt><trkpt lat="42.693845" lon="-8.494905"><ele>255.0</ele><time>2026-04-16T12:26:33.875Z</time></trkpt><trkpt lat="42.6937733" lon="-8.4948133"><ele>255.0</ele><time>2026-04-16T12:26:34.876Z</time></trkpt><trkpt lat="42.6937117" lon="-8.494715"><ele>255.0</ele><time>2026-04-16T12:26:35.876Z</time></trkpt><trkpt lat="42.6936533" lon="-8.4946217"><ele>255.0</ele><time>2026-04-16T12:26:36.875Z</time></trkpt><trkpt lat="42.6935833" lon="-8.4945317"><ele>255.0</ele><time>2026-04-16T12:26:37.875Z</time></trkpt><trkpt lat="42.6935117" lon="-8.4944433"><ele>256.8</ele><time>2026-04-16T12:26:38.876Z</time></trkpt><trkpt lat="42.6934417" lon="-8.4943567"><ele>258.6</ele><time>2026-04-16T12:26:39.875Z</time></trkpt><trkpt lat="42.69338" lon="-8.4942567"><ele>260.4</ele><time>2026-04-16T12:26:40.875Z</time></trkpt><trkpt lat="42.6933283" lon="-8.4941517"><ele>262.2</ele><time>2026-04-16T12:26:41.875Z</time></trkpt><trkpt lat="42.6932767" lon="-8.4940317"><ele>264.0</ele><time>2026-04-16T12:26:42.876Z</time></trkpt><trkpt lat="42.6932233" lon="-8.49392"><ele>264.0</ele><time>2026-04-16T12:26:43.875Z</time></trkpt><trkpt lat="42.6931733" lon="-8.4938033"><ele>264.0</ele><time>2026-04-16T12:26:44.876Z</time></trkpt><trkpt lat="42.6931233" lon="-8.4936933"><ele>264.0</ele><time>2026-04-16T12:26:45.876Z</time></trkpt><trkpt lat="42.6930733" lon="-8.4935933"><ele>264.0</ele><time>2026-04-16T12:26:46.875Z</time></trkpt><trkpt lat="42.6930133" lon="-8.4935233"><ele>264.0</ele><time>2026-04-16T12:26:47.876Z</time></trkpt><trkpt lat="42.69294" lon="-8.4934117"><ele>265.4</ele><time>2026-04-16T12:26:49.876Z</time></trkpt><trkpt lat="42.692895" lon="-8.4933383"><ele>266.79999999999995</ele><time>2026-04-16T12:26:51.876Z</time></trkpt><trkpt lat="42.6928483" lon="-8.4932433"><ele>268.20000000000005</ele><time>2026-04-16T12:26:53.875Z</time></trkpt><trkpt lat="42.6927833" lon="-8.493115"><ele>269.6</ele><time>2026-04-16T12:26:55.876Z</time></trkpt><trkpt lat="42.6927183" lon="-8.4929883"><ele>271.0</ele><time>2026-04-16T12:26:57.876Z</time></trkpt><trkpt lat="42.6926633" lon="-8.4928467"><ele>272.6</ele><time>2026-04-16T12:26:59.876Z</time></trkpt><trkpt lat="42.692605" lon="-8.4927117"><ele>274.20000000000005</ele><time>2026-04-16T12:27:01.876Z</time></trkpt><trkpt lat="42.6925417" lon="-8.4925867"><ele>275.79999999999995</ele><time>2026-04-16T12:27:03.876Z</time></trkpt><trkpt lat="42.6924767" lon="-8.4924717"><ele>277.4</ele><time>2026-04-16T12:27:05.875Z</time></trkpt><trkpt lat="42.692415" lon="-8.492385"><ele>279.0</ele><time>2026-04-16T12:27:07.876Z</time></trkpt><trkpt lat="42.6923517" lon="-8.4923017"><ele>279.0</ele><time>2026-04-16T12:27:10.875Z</time></trkpt><trkpt lat="42.69244" lon="-8.49229"><ele>279.0</ele><time>2026-04-16T12:27:14.875Z</time></trkpt><trkpt lat="42.6924867" lon="-8.49235"><ele>279.0</ele><time>2026-04-16T12:27:15.876Z</time></trkpt><trkpt lat="42.69253" lon="-8.492435"><ele>279.0</ele><time>2026-04-16T12:27:16.875Z</time></trkpt><trkpt lat="42.6925917" lon="-8.4925383"><ele>279.0</ele><time>2026-04-16T12:27:17.876Z</time></trkpt><trkpt lat="42.6926467" lon="-8.49264"><ele>279.0</ele><time>2026-04-16T12:27:18.875Z</time></trkpt><trkpt lat="42.692695" lon="-8.4927383"><ele>279.0</ele><time>2026-04-16T12:27:19.875Z</time></trkpt><trkpt lat="42.6927417" lon="-8.4928283"><ele>279.0</ele><time>2026-04-16T12:27:20.876Z</time></trkpt><trkpt lat="42.6927967" lon="-8.4929217"><ele>279.0</ele><time>2026-04-16T12:27:21.875Z</time></trkpt><trkpt lat="42.6928417" lon="-8.4930083"><ele>279.0</ele><time>2026-04-16T12:27:22.875Z</time></trkpt><trkpt lat="42.692885" lon="-8.493095"><ele>279.0</ele><time>2026-04-16T12:27:23.875Z</time></trkpt><trkpt lat="42.69293" lon="-8.4931933"><ele>279.0</ele><time>2026-04-16T12:27:24.875Z</time></trkpt><trkpt lat="42.6929783" lon="-8.4932833"><ele>277.6666666666667</ele><time>2026-04-16T12:27:25.875Z</time></trkpt><trkpt lat="42.6930283" lon="-8.4933717"><ele>276.3333333333333</ele><time>2026-04-16T12:27:26.875Z</time></trkpt><trkpt lat="42.69308" lon="-8.4934717"><ele>275.0</ele><time>2026-04-16T12:27:27.875Z</time></trkpt><trkpt lat="42.6931283" lon="-8.49357"><ele>273.66666666666663</ele><time>2026-04-16T12:27:28.875Z</time></trkpt><trkpt lat="42.693175" lon="-8.4936667"><ele>272.3333333333333</ele><time>2026-04-16T12:27:29.876Z</time></trkpt><trkpt lat="42.6932233" lon="-8.49376"><ele>271.0</ele><time>2026-04-16T12:27:30.875Z</time></trkpt><trkpt lat="42.69327" lon="-8.4938567"><ele>269.8333333333333</ele><time>2026-04-16T12:27:31.875Z</time></trkpt><trkpt lat="42.693315" lon="-8.4939483"><ele>268.66666666666663</ele><time>2026-04-16T12:27:32.876Z</time></trkpt><trkpt lat="42.69336" lon="-8.4940233"><ele>267.5</ele><time>2026-04-16T12:27:33.876Z</time></trkpt><trkpt lat="42.6934367" lon="-8.494085"><ele>266.3333333333333</ele><time>2026-04-16T12:27:35.875Z</time></trkpt><trkpt lat="42.6935117" lon="-8.4940667"><ele>265.1666666666667</ele><time>2026-04-16T12:27:38.875Z</time></trkpt><trkpt lat="42.6935833" lon="-8.4939683"><ele>264.0</ele><time>2026-04-16T12:27:40.875Z</time></trkpt><trkpt lat="42.6936383" lon="-8.4937817"><ele>263.4</ele><time>2026-04-16T12:27:42.875Z</time></trkpt><trkpt lat="42.69367" lon="-8.493665"><ele>262.79999999999995</ele><time>2026-04-16T12:27:43.876Z</time></trkpt><trkpt lat="42.6937083" lon="-8.49355"><ele>262.20000000000005</ele><time>2026-04-16T12:27:44.876Z</time></trkpt><trkpt lat="42.6937533" lon="-8.4934267"><ele>261.6</ele><time>2026-04-16T12:27:45.876Z</time></trkpt><trkpt lat="42.6938" lon="-8.4932983"><ele>261.0</ele><time>2026-04-16T12:27:46.875Z</time></trkpt><trkpt lat="42.69384" lon="-8.4931683"><ele>261.0</ele><time>2026-04-16T12:27:47.876Z</time></trkpt><trkpt lat="42.6938817" lon="-8.4930367"><ele>261.0</ele><time>2026-04-16T12:27:48.875Z</time></trkpt><trkpt lat="42.693925" lon="-8.4929"><ele>261.0</ele><time>2026-04-16T12:27:49.875Z</time></trkpt><trkpt lat="42.6939667" lon="-8.4927683"><ele>261.0</ele><time>2026-04-16T12:27:50.876Z</time></trkpt><trkpt lat="42.6940083" lon="-8.4926417"><ele>261.0</ele><time>2026-04-16T12:27:51.875Z</time></trkpt><trkpt lat="42.6940467" lon="-8.492515"><ele>262.2</ele><time>2026-04-16T12:27:52.875Z</time></trkpt><trkpt lat="42.694085" lon="-8.49239"><ele>263.40000000000003</ele><time>2026-04-16T12:27:53.876Z</time></trkpt><trkpt lat="42.6941183" lon="-8.4922667"><ele>264.6</ele><time>2026-04-16T12:27:54.876Z</time></trkpt><trkpt lat="42.6941367" lon="-8.4921483"><ele>265.8</ele><time>2026-04-16T12:27:55.876Z</time></trkpt><trkpt lat="42.694145" lon="-8.4920283"><ele>267.0</ele><time>2026-04-16T12:27:56.875Z</time></trkpt><trkpt lat="42.6941433" lon="-8.4919067"><ele>267.6</ele><time>2026-04-16T12:27:57.875Z</time></trkpt><trkpt lat="42.6941317" lon="-8.4917883"><ele>268.2</ele><time>2026-04-16T12:27:58.875Z</time></trkpt><trkpt lat="42.6940967" lon="-8.4916733"><ele>268.8</ele><time>2026-04-16T12:27:59.876Z</time></trkpt><trkpt lat="42.6940533" lon="-8.49156"><ele>269.4</ele><time>2026-04-16T12:28:00.876Z</time></trkpt><trkpt lat="42.6940067" lon="-8.4914483"><ele>270.0</ele><time>2026-04-16T12:28:01.875Z</time></trkpt><trkpt lat="42.6939667" lon="-8.4913283"><ele>271.2</ele><time>2026-04-16T12:28:02.876Z</time></trkpt><trkpt lat="42.6939283" lon="-8.4911983"><ele>272.4</ele><time>2026-04-16T12:28:03.876Z</time></trkpt><trkpt lat="42.69389" lon="-8.4910767"><ele>273.6</ele><time>2026-04-16T12:28:04.875Z</time></trkpt><trkpt lat="42.6938433" lon="-8.4909733"><ele>274.8</ele><time>2026-04-16T12:28:05.876Z</time></trkpt><trkpt lat="42.69379" lon="-8.490885"><ele>276.0</ele><time>2026-04-16T12:28:06.875Z</time></trkpt><trkpt lat="42.6937233" lon="-8.4908133"><ele>276.0</ele><time>2026-04-16T12:28:07.875Z</time></trkpt><trkpt lat="42.69364" lon="-8.4907667"><ele>276.0</ele><time>2026-04-16T12:28:08.876Z</time></trkpt><trkpt lat="42.6935483" lon="-8.490735"><ele>276.0</ele><time>2026-04-16T12:28:09.876Z</time></trkpt><trkpt lat="42.6934533" lon="-8.4907183"><ele>276.0</ele><time>2026-04-16T12:28:10.876Z</time></trkpt><trkpt lat="42.69336" lon="-8.4907167"><ele>276.0</ele><time>2026-04-16T12:28:11.876Z</time></trkpt><trkpt lat="42.6932717" lon="-8.4907133"><ele>277.0</ele><time>2026-04-16T12:28:12.876Z</time></trkpt><trkpt lat="42.69319" lon="-8.4907133"><ele>278.0</ele><time>2026-04-16T12:28:13.875Z</time></trkpt><trkpt lat="42.69312" lon="-8.4907167"><ele>279.0</ele><time>2026-04-16T12:28:14.876Z</time></trkpt><trkpt lat="42.6930067" lon="-8.4907167"><ele>280.0</ele><time>2026-04-16T12:28:16.876Z</time></trkpt><trkpt lat="42.69288" lon="-8.4907167"><ele>281.0</ele><time>2026-04-16T12:28:18.876Z</time></trkpt><trkpt lat="42.69278" lon="-8.4907767"><ele>281.33333333333337</ele><time>2026-04-16T12:28:20.876Z</time></trkpt><trkpt lat="42.69275" lon="-8.49086"><ele>281.6666666666667</ele><time>2026-04-16T12:28:21.875Z</time></trkpt><trkpt lat="42.6927183" lon="-8.49096"><ele>282.0</ele><time>2026-04-16T12:28:22.876Z</time></trkpt><trkpt lat="42.6926817" lon="-8.49107"><ele>282.3333333333333</ele><time>2026-04-16T12:28:23.875Z</time></trkpt><trkpt lat="42.6926383" lon="-8.49119"><ele>282.66666666666663</ele><time>2026-04-16T12:28:24.876Z</time></trkpt><trkpt lat="42.6925883" lon="-8.4913083"><ele>283.0</ele><time>2026-04-16T12:28:25.876Z</time></trkpt><trkpt lat="42.6925483" lon="-8.491415"><ele>283.0</ele><time>2026-04-16T12:28:26.875Z</time></trkpt><trkpt lat="42.6925167" lon="-8.4915233"><ele>283.0</ele><time>2026-04-16T12:28:27.876Z</time></trkpt><trkpt lat="42.6924917" lon="-8.4916283"><ele>283.0</ele><time>2026-04-16T12:28:28.875Z</time></trkpt><trkpt lat="42.6924617" lon="-8.4917283"><ele>283.0</ele><time>2026-04-16T12:28:29.875Z</time></trkpt><trkpt lat="42.6924317" lon="-8.4918233"><ele>283.0</ele><time>2026-04-16T12:28:30.875Z</time></trkpt><trkpt lat="42.6924033" lon="-8.491915"><ele>283.0</ele><time>2026-04-16T12:28:31.875Z</time></trkpt><trkpt lat="42.6923733" lon="-8.4919967"><ele>283.0</ele><time>2026-04-16T12:28:32.876Z</time></trkpt><trkpt lat="42.692345" lon="-8.4921433"><ele>283.0</ele><time>2026-04-16T12:28:34.876Z</time></trkpt><trkpt lat="42.6923" lon="-8.492235"><ele>283.0</ele><time>2026-04-16T12:28:36.876Z</time></trkpt><trkpt lat="42.6921917" lon="-8.4921883"><ele>283.0</ele><time>2026-04-16T12:28:38.876Z</time></trkpt><trkpt lat="42.6921183" lon="-8.492135"><ele>283.0</ele><time>2026-04-16T12:28:39.876Z</time></trkpt><trkpt lat="42.6920283" lon="-8.4920867"><ele>283.0</ele><time>2026-04-16T12:28:40.876Z</time></trkpt><trkpt lat="42.691945" lon="-8.4920533"><ele>283.0</ele><time>2026-04-16T12:28:41.877Z</time></trkpt><trkpt lat="42.6918733" lon="-8.4920317"><ele>283.0</ele><time>2026-04-16T12:28:42.876Z</time></trkpt><trkpt lat="42.6918" lon="-8.492"><ele>283.0</ele><time>2026-04-16T12:28:43.877Z</time></trkpt><trkpt lat="42.6917267" lon="-8.4919767"><ele>283.0</ele><time>2026-04-16T12:28:44.876Z</time></trkpt><trkpt lat="42.6916433" lon="-8.49195"><ele>283.0</ele><time>2026-04-16T12:28:45.877Z</time></trkpt><trkpt lat="42.6915583" lon="-8.49192"><ele>283.8333333333333</ele><time>2026-04-16T12:28:46.877Z</time></trkpt><trkpt lat="42.6914733" lon="-8.4918917"><ele>284.66666666666663</ele><time>2026-04-16T12:28:47.876Z</time></trkpt><trkpt lat="42.691385" lon="-8.4918633"><ele>285.5</ele><time>2026-04-16T12:28:48.876Z</time></trkpt><trkpt lat="42.6913017" lon="-8.491835"><ele>286.3333333333333</ele><time>2026-04-16T12:28:49.876Z</time></trkpt><trkpt lat="42.6912217" lon="-8.49181"><ele>287.1666666666667</ele><time>2026-04-16T12:28:50.877Z</time></trkpt><trkpt lat="42.69115" lon="-8.4917867"><ele>288.0</ele><time>2026-04-16T12:28:51.877Z</time></trkpt><trkpt lat="42.69107" lon="-8.4917617"><ele>289.3333333333333</ele><time>2026-04-16T12:28:52.876Z</time></trkpt><trkpt lat="42.6909883" lon="-8.49174"><ele>290.6666666666667</ele><time>2026-04-16T12:28:53.876Z</time></trkpt><trkpt lat="42.6909083" lon="-8.4917117"><ele>292.0</ele><time>2026-04-16T12:28:54.876Z</time></trkpt><trkpt lat="42.6908233" lon="-8.4916783"><ele>293.33333333333337</ele><time>2026-04-16T12:28:55.877Z</time></trkpt><trkpt lat="42.690735" lon="-8.4916433"><ele>294.6666666666667</ele><time>2026-04-16T12:28:56.876Z</time></trkpt><trkpt lat="42.6906467" lon="-8.4916183"><ele>296.0</ele><time>2026-04-16T12:28:57.876Z</time></trkpt><trkpt lat="42.69057" lon="-8.4915917"><ele>296.0</ele><time>2026-04-16T12:28:58.876Z</time></trkpt><trkpt lat="42.6905083" lon="-8.491565"><ele>296.0</ele><time>2026-04-16T12:28:59.877Z</time></trkpt><trkpt lat="42.69039" lon="-8.4915033"><ele>296.0</ele><time>2026-04-16T12:29:01.877Z</time></trkpt><trkpt lat="42.69032" lon="-8.4914783"><ele>296.0</ele><time>2026-04-16T12:29:02.877Z</time></trkpt><trkpt lat="42.6902533" lon="-8.4914733"><ele>296.0</ele><time>2026-04-16T12:29:03.877Z</time></trkpt><trkpt lat="42.6901967" lon="-8.4914317"><ele>296.0</ele><time>2026-04-16T12:29:04.876Z</time></trkpt><trkpt lat="42.6901233" lon="-8.4914067"><ele>297.33333333333337</ele><time>2026-04-16T12:29:05.876Z</time></trkpt><trkpt lat="42.6900417" lon="-8.4913783"><ele>298.6666666666667</ele><time>2026-04-16T12:29:06.876Z</time></trkpt><trkpt lat="42.6899633" lon="-8.491355"><ele>300.0</ele><time>2026-04-16T12:29:07.877Z</time></trkpt><trkpt lat="42.6898833" lon="-8.4913317"><ele>301.3333333333333</ele><time>2026-04-16T12:29:08.876Z</time></trkpt><trkpt lat="42.689815" lon="-8.491315"><ele>302.66666666666663</ele><time>2026-04-16T12:29:09.877Z</time></trkpt><trkpt lat="42.6897467" lon="-8.4913017"><ele>304.0</ele><time>2026-04-16T12:29:10.876Z</time></trkpt><trkpt lat="42.6896383" lon="-8.49127"><ele>304.0</ele><time>2026-04-16T12:29:12.877Z</time></trkpt><trkpt lat="42.6895533" lon="-8.491245"><ele>304.0</ele><time>2026-04-16T12:29:14.877Z</time></trkpt><trkpt lat="42.6894833" lon="-8.4912417"><ele>304.0</ele><time>2026-04-16T12:29:16.876Z</time></trkpt><trkpt lat="42.68958" lon="-8.4912967"><ele>304.0</ele><time>2026-04-16T12:29:23.876Z</time></trkpt><trkpt lat="42.6896467" lon="-8.491285"><ele>304.0</ele><time>2026-04-16T12:29:24.876Z</time></trkpt><trkpt lat="42.689765" lon="-8.4912817"><ele>304.0</ele><time>2026-04-16T12:29:26.877Z</time></trkpt><trkpt lat="42.6898783" lon="-8.4912717"><ele>304.0</ele><time>2026-04-16T12:29:28.876Z</time></trkpt><trkpt lat="42.6899767" lon="-8.491275"><ele>304.0</ele><time>2026-04-16T12:29:30.877Z</time></trkpt><trkpt lat="42.6900633" lon="-8.49128"><ele>304.0</ele><time>2026-04-16T12:29:32.876Z</time></trkpt><trkpt lat="42.6901433" lon="-8.49129"><ele>304.0</ele><time>2026-04-16T12:29:34.877Z</time></trkpt><trkpt lat="42.6902333" lon="-8.4912817"><ele>304.0</ele><time>2026-04-16T12:29:37.877Z</time></trkpt><trkpt lat="42.6903383" lon="-8.4912667"><ele>303.8333333333333</ele><time>2026-04-16T12:29:39.876Z</time></trkpt><trkpt lat="42.6904067" lon="-8.49125"><ele>303.66666666666663</ele><time>2026-04-16T12:29:40.877Z</time></trkpt><trkpt lat="42.6904817" lon="-8.4912333"><ele>303.5</ele><time>2026-04-16T12:29:41.877Z</time></trkpt><trkpt lat="42.6905667" lon="-8.491205"><ele>303.3333333333333</ele><time>2026-04-16T12:29:42.876Z</time></trkpt><trkpt lat="42.690655" lon="-8.4911733"><ele>303.1666666666667</ele><time>2026-04-16T12:29:43.876Z</time></trkpt><trkpt lat="42.6907467" lon="-8.49114"><ele>303.0</ele><time>2026-04-16T12:29:44.877Z</time></trkpt><trkpt lat="42.6908417" lon="-8.4911083"><ele>303.0</ele><time>2026-04-16T12:29:45.876Z</time></trkpt><trkpt lat="42.690935" lon="-8.491085"><ele>303.0</ele><time>2026-04-16T12:29:46.876Z</time></trkpt><trkpt lat="42.6910233" lon="-8.4910533"><ele>303.0</ele><time>2026-04-16T12:29:47.876Z</time></trkpt><trkpt lat="42.6911117" lon="-8.4910267"><ele>303.0</ele><time>2026-04-16T12:29:48.877Z</time></trkpt><trkpt lat="42.6912017" lon="-8.4910067"><ele>303.0</ele><time>2026-04-16T12:29:49.876Z</time></trkpt><trkpt lat="42.6912917" lon="-8.4909867"><ele>301.6</ele><time>2026-04-16T12:29:50.877Z</time></trkpt><trkpt lat="42.691385" lon="-8.490965"><ele>300.20000000000005</ele><time>2026-04-16T12:29:51.877Z</time></trkpt><trkpt lat="42.6914817" lon="-8.490935"><ele>298.8</ele><time>2026-04-16T12:29:52.876Z</time></trkpt><trkpt lat="42.6915767" lon="-8.4909067"><ele>297.40000000000003</ele><time>2026-04-16T12:29:53.876Z</time></trkpt><trkpt lat="42.6916767" lon="-8.4908783"><ele>296.0</ele><time>2026-04-16T12:29:54.877Z</time></trkpt><trkpt lat="42.6917733" lon="-8.4908533"><ele>296.0</ele><time>2026-04-16T12:29:55.876Z</time></trkpt><trkpt lat="42.6918683" lon="-8.4908283"><ele>296.0</ele><time>2026-04-16T12:29:56.876Z</time></trkpt><trkpt lat="42.69196" lon="-8.4908017"><ele>296.0</ele><time>2026-04-16T12:29:57.876Z</time></trkpt><trkpt lat="42.692055" lon="-8.49077"><ele>296.0</ele><time>2026-04-16T12:29:58.877Z</time></trkpt><trkpt lat="42.6921483" lon="-8.4907417"><ele>296.0</ele><time>2026-04-16T12:29:59.877Z</time></trkpt><trkpt lat="42.692235" lon="-8.4907067"><ele>294.6666666666667</ele><time>2026-04-16T12:30:00.877Z</time></trkpt><trkpt lat="42.6923217" lon="-8.4906817"><ele>293.33333333333337</ele><time>2026-04-16T12:30:01.877Z</time></trkpt><trkpt lat="42.6923967" lon="-8.4906633"><ele>292.0</ele><time>2026-04-16T12:30:02.877Z</time></trkpt><trkpt lat="42.6924617" lon="-8.4906433"><ele>290.6666666666667</ele><time>2026-04-16T12:30:03.877Z</time></trkpt><trkpt lat="42.692565" lon="-8.49062"><ele>289.3333333333333</ele><time>2026-04-16T12:30:05.877Z</time></trkpt><trkpt lat="42.6926433" lon="-8.4906767"><ele>288.0</ele><time>2026-04-16T12:30:26.876Z</time></trkpt><trkpt lat="42.6926583" lon="-8.4908517"><ele>288.0</ele><time>2026-04-16T12:30:28.876Z</time></trkpt><trkpt lat="42.69266" lon="-8.4909933"><ele>288.0</ele><time>2026-04-16T12:30:29.876Z</time></trkpt><trkpt lat="42.6926333" lon="-8.49113"><ele>288.0</ele><time>2026-04-16T12:30:30.876Z</time></trkpt><trkpt lat="42.6925833" lon="-8.4912833"><ele>288.0</ele><time>2026-04-16T12:30:31.877Z</time></trkpt><trkpt lat="42.692535" lon="-8.4914367"><ele>286.75</ele><time>2026-04-16T12:30:32.877Z</time></trkpt><trkpt lat="42.6924867" lon="-8.4916"><ele>285.5</ele><time>2026-04-16T12:30:33.877Z</time></trkpt><trkpt lat="42.6924383" lon="-8.49175"><ele>284.25</ele><time>2026-04-16T12:30:34.877Z</time></trkpt><trkpt lat="42.6923983" lon="-8.4918983"><ele>283.0</ele><time>2026-04-16T12:30:35.876Z</time></trkpt><trkpt lat="42.6923617" lon="-8.4920283"><ele>282.2</ele><time>2026-04-16T12:30:36.877Z</time></trkpt><trkpt lat="42.6923283" lon="-8.4921533"><ele>281.4</ele><time>2026-04-16T12:30:37.876Z</time></trkpt><trkpt lat="42.69228" lon="-8.4922783"><ele>280.59999999999997</ele><time>2026-04-16T12:30:38.876Z</time></trkpt><trkpt lat="42.6922283" lon="-8.4924133"><ele>279.8</ele><time>2026-04-16T12:30:39.876Z</time></trkpt><trkpt lat="42.6921767" lon="-8.4925567"><ele>279.0</ele><time>2026-04-16T12:30:40.877Z</time></trkpt><trkpt lat="42.6921217" lon="-8.4927067"><ele>279.0</ele><time>2026-04-16T12:30:41.876Z</time></trkpt><trkpt lat="42.6920683" lon="-8.4928633"><ele>279.0</ele><time>2026-04-16T12:30:42.877Z</time></trkpt><trkpt lat="42.6920233" lon="-8.4930133"><ele>279.0</ele><time>2026-04-16T12:30:43.876Z</time></trkpt><trkpt lat="42.691975" lon="-8.4931517"><ele>279.0</ele><time>2026-04-16T12:30:44.877Z</time></trkpt><trkpt lat="42.6919283" lon="-8.4932783"><ele>279.8</ele><time>2026-04-16T12:30:45.876Z</time></trkpt><trkpt lat="42.6918817" lon="-8.4934033"><ele>280.59999999999997</ele><time>2026-04-16T12:30:46.877Z</time></trkpt><trkpt lat="42.69183" lon="-8.49353"><ele>281.4</ele><time>2026-04-16T12:30:47.876Z</time></trkpt><trkpt lat="42.691775" lon="-8.4936533"><ele>282.2</ele><time>2026-04-16T12:30:48.877Z</time></trkpt><trkpt lat="42.6917133" lon="-8.4937717"><ele>283.0</ele><time>2026-04-16T12:30:49.876Z</time></trkpt><trkpt lat="42.691655" lon="-8.493895"><ele>283.0</ele><time>2026-04-16T12:30:50.877Z</time></trkpt><trkpt lat="42.6915983" lon="-8.4940083"><ele>283.0</ele><time>2026-04-16T12:30:51.876Z</time></trkpt><trkpt lat="42.69154" lon="-8.4941183"><ele>283.0</ele><time>2026-04-16T12:30:52.877Z</time></trkpt><trkpt lat="42.69149" lon="-8.4942233"><ele>283.0</ele><time>2026-04-16T12:30:53.876Z</time></trkpt><trkpt lat="42.69144" lon="-8.49433"><ele>283.0</ele><time>2026-04-16T12:30:54.876Z</time></trkpt><trkpt lat="42.6913883" lon="-8.4944233"><ele>283.0</ele><time>2026-04-16T12:30:55.876Z</time></trkpt><trkpt lat="42.6913283" lon="-8.4945117"><ele>283.0</ele><time>2026-04-16T12:30:56.876Z</time></trkpt><trkpt lat="42.691275" lon="-8.49461"><ele>283.0</ele><time>2026-04-16T12:30:57.877Z</time></trkpt><trkpt lat="42.691225" lon="-8.494705"><ele>283.0</ele><time>2026-04-16T12:30:58.876Z</time></trkpt><trkpt lat="42.6911733" lon="-8.49481"><ele>283.0</ele><time>2026-04-16T12:30:59.877Z</time></trkpt><trkpt lat="42.6911233" lon="-8.4949167"><ele>283.8</ele><time>2026-04-16T12:31:00.876Z</time></trkpt><trkpt lat="42.6910717" lon="-8.4950233"><ele>284.6</ele><time>2026-04-16T12:31:01.876Z</time></trkpt><trkpt lat="42.6910167" lon="-8.495135"><ele>285.4</ele><time>2026-04-16T12:31:02.877Z</time></trkpt><trkpt lat="42.6909583" lon="-8.4952433"><ele>286.2</ele><time>2026-04-16T12:31:03.877Z</time></trkpt><trkpt lat="42.6908967" lon="-8.495355"><ele>287.0</ele><time>2026-04-16T12:31:04.876Z</time></trkpt><trkpt lat="42.6908383" lon="-8.4954583"><ele>287.0</ele><time>2026-04-16T12:31:05.876Z</time></trkpt><trkpt lat="42.6907817" lon="-8.4955667"><ele>287.0</ele><time>2026-04-16T12:31:06.876Z</time></trkpt><trkpt lat="42.690725" lon="-8.495665"><ele>287.0</ele><time>2026-04-16T12:31:07.877Z</time></trkpt><trkpt lat="42.6906733" lon="-8.4957667"><ele>287.0</ele><time>2026-04-16T12:31:08.876Z</time></trkpt><trkpt lat="42.6906183" lon="-8.4958683"><ele>287.0</ele><time>2026-04-16T12:31:09.876Z</time></trkpt><trkpt lat="42.6905583" lon="-8.4959633"><ele>287.0</ele><time>2026-04-16T12:31:10.877Z</time></trkpt><trkpt lat="42.6905017" lon="-8.49607"><ele>287.0</ele><time>2026-04-16T12:31:11.877Z</time></trkpt><trkpt lat="42.6904467" lon="-8.4961733"><ele>287.0</ele><time>2026-04-16T12:31:12.876Z</time></trkpt><trkpt lat="42.6903883" lon="-8.496275"><ele>287.0</ele><time>2026-04-16T12:31:13.877Z</time></trkpt><trkpt lat="42.690335" lon="-8.4963817"><ele>287.0</ele><time>2026-04-16T12:31:14.877Z</time></trkpt><trkpt lat="42.6902867" lon="-8.4964917"><ele>289.1666666666667</ele><time>2026-04-16T12:31:15.876Z</time></trkpt><trkpt lat="42.6902333" lon="-8.4965883"><ele>291.33333333333337</ele><time>2026-04-16T12:31:16.876Z</time></trkpt><trkpt lat="42.6901833" lon="-8.4966967"><ele>293.5</ele><time>2026-04-16T12:31:17.877Z</time></trkpt><trkpt lat="42.6901317" lon="-8.4967917"><ele>295.6666666666667</ele><time>2026-04-16T12:31:18.877Z</time></trkpt><trkpt lat="42.690085" lon="-8.4968767"><ele>297.8333333333333</ele><time>2026-04-16T12:31:19.877Z</time></trkpt><trkpt lat="42.6900467" lon="-8.49695"><ele>300.0</ele><time>2026-04-16T12:31:20.877Z</time></trkpt><trkpt lat="42.6899883" lon="-8.497065"><ele>300.0</ele><time>2026-04-16T12:31:22.876Z</time></trkpt><trkpt lat="42.6899217" lon="-8.4971533"><ele>300.0</ele><time>2026-04-16T12:32:10.876Z</time></trkpt><trkpt lat="42.6898783" lon="-8.49722"><ele>300.0</ele><time>2026-04-16T12:32:12.877Z</time></trkpt><trkpt lat="42.6898033" lon="-8.4971983"><ele>300.0</ele><time>2026-04-16T12:32:14.876Z</time></trkpt><trkpt lat="42.6897283" lon="-8.4971317"><ele>300.0</ele><time>2026-04-16T12:32:15.876Z</time></trkpt><trkpt lat="42.68961" lon="-8.497065"><ele>300.0</ele><time>2026-04-16T12:32:16.877Z</time></trkpt><trkpt lat="42.6895117" lon="-8.4969983"><ele>300.0</ele><time>2026-04-16T12:32:17.876Z</time></trkpt><trkpt lat="42.6894167" lon="-8.4969333"><ele>300.0</ele><time>2026-04-16T12:32:18.876Z</time></trkpt><trkpt lat="42.6893267" lon="-8.49687"><ele>300.0</ele><time>2026-04-16T12:32:19.877Z</time></trkpt><trkpt lat="42.6892317" lon="-8.4967933"><ele>300.0</ele><time>2026-04-16T12:32:20.876Z</time></trkpt><trkpt lat="42.68914" lon="-8.496725"><ele>301.4</ele><time>2026-04-16T12:32:21.876Z</time></trkpt><trkpt lat="42.68905" lon="-8.496665"><ele>302.8</ele><time>2026-04-16T12:32:22.876Z</time></trkpt><trkpt lat="42.6889717" lon="-8.49661"><ele>304.2</ele><time>2026-04-16T12:32:23.876Z</time></trkpt><trkpt lat="42.688915" lon="-8.4965683"><ele>305.6</ele><time>2026-04-16T12:32:24.877Z</time></trkpt><trkpt lat="42.6888367" lon="-8.4965083"><ele>307.0</ele><time>2026-04-16T12:32:26.877Z</time></trkpt><trkpt lat="42.6887383" lon="-8.49644"><ele>307.0</ele><time>2026-04-16T12:32:28.876Z</time></trkpt><trkpt lat="42.688675" lon="-8.4963983"><ele>307.0</ele><time>2026-04-16T12:32:29.876Z</time></trkpt><trkpt lat="42.6886083" lon="-8.4963483"><ele>307.0</ele><time>2026-04-16T12:32:30.877Z</time></trkpt><trkpt lat="42.6885417" lon="-8.4963"><ele>307.0</ele><time>2026-04-16T12:32:31.877Z</time></trkpt><trkpt lat="42.6884433" lon="-8.4962333"><ele>307.0</ele><time>2026-04-16T12:32:33.877Z</time></trkpt><trkpt lat="42.6883717" lon="-8.496195"><ele>307.0</ele><time>2026-04-16T12:32:36.876Z</time></trkpt><trkpt lat="42.6882933" lon="-8.496155"><ele>308.5</ele><time>2026-04-16T12:32:49.877Z</time></trkpt><trkpt lat="42.6882383" lon="-8.4962767"><ele>310.0</ele><time>2026-04-16T12:32:52.876Z</time></trkpt><trkpt lat="42.688205" lon="-8.4964217"><ele>311.5</ele><time>2026-04-16T12:32:53.877Z</time></trkpt><trkpt lat="42.688175" lon="-8.4966"><ele>313.0</ele><time>2026-04-16T12:32:54.876Z</time></trkpt><trkpt lat="42.688155" lon="-8.4968"><ele>313.0</ele><time>2026-04-16T12:32:55.876Z</time></trkpt><trkpt lat="42.688135" lon="-8.4969817"><ele>313.0</ele><time>2026-04-16T12:32:56.877Z</time></trkpt><trkpt lat="42.6881217" lon="-8.49715"><ele>313.0</ele><time>2026-04-16T12:32:57.876Z</time></trkpt><trkpt lat="42.6881017" lon="-8.4973217"><ele>313.0</ele><time>2026-04-16T12:32:58.876Z</time></trkpt><trkpt lat="42.6880883" lon="-8.497475"><ele>312.4</ele><time>2026-04-16T12:32:59.876Z</time></trkpt><trkpt lat="42.6880717" lon="-8.497625"><ele>311.8</ele><time>2026-04-16T12:33:00.876Z</time></trkpt><trkpt lat="42.6880533" lon="-8.4977717"><ele>311.2</ele><time>2026-04-16T12:33:01.876Z</time></trkpt><trkpt lat="42.6880483" lon="-8.4979217"><ele>310.6</ele><time>2026-04-16T12:33:02.876Z</time></trkpt><trkpt lat="42.68804" lon="-8.4980533"><ele>310.0</ele><time>2026-04-16T12:33:03.877Z</time></trkpt><trkpt lat="42.6880283" lon="-8.498165"><ele>309.4</ele><time>2026-04-16T12:33:04.876Z</time></trkpt><trkpt lat="42.6880233" lon="-8.4982617"><ele>308.8</ele><time>2026-04-16T12:33:05.877Z</time></trkpt><trkpt lat="42.6880333" lon="-8.4984"><ele>308.2</ele><time>2026-04-16T12:33:07.876Z</time></trkpt><trkpt lat="42.6880367" lon="-8.4985017"><ele>307.6</ele><time>2026-04-16T12:33:10.877Z</time></trkpt><trkpt lat="42.68795" lon="-8.498625"><ele>307.0</ele><time>2026-04-16T12:35:32.876Z</time></trkpt><trkpt lat="42.68788" lon="-8.4986933"><ele>307.4</ele><time>2026-04-16T12:35:33.876Z</time></trkpt><trkpt lat="42.68781" lon="-8.4987917"><ele>307.79999999999995</ele><time>2026-04-16T12:35:34.876Z</time></trkpt><trkpt lat="42.6877533" lon="-8.49892"><ele>308.2</ele><time>2026-04-16T12:35:35.877Z</time></trkpt><trkpt lat="42.687685" lon="-8.4990417"><ele>308.59999999999997</ele><time>2026-04-16T12:35:36.877Z</time></trkpt><trkpt lat="42.6876233" lon="-8.499175"><ele>309.0</ele><time>2026-04-16T12:35:37.876Z</time></trkpt><trkpt lat="42.687565" lon="-8.4993017"><ele>309.0</ele><time>2026-04-16T12:35:38.877Z</time></trkpt><trkpt lat="42.687505" lon="-8.4994267"><ele>309.0</ele><time>2026-04-16T12:35:39.876Z</time></trkpt><trkpt lat="42.6874467" lon="-8.4995467"><ele>309.0</ele><time>2026-04-16T12:35:40.876Z</time></trkpt><trkpt lat="42.6873867" lon="-8.4996733"><ele>309.0</ele><time>2026-04-16T12:35:41.877Z</time></trkpt><trkpt lat="42.6873233" lon="-8.4998"><ele>309.0</ele><time>2026-04-16T12:35:42.876Z</time></trkpt><trkpt lat="42.6872617" lon="-8.49992"><ele>307.59999999999997</ele><time>2026-04-16T12:35:43.876Z</time></trkpt><trkpt lat="42.687195" lon="-8.5000333"><ele>306.2</ele><time>2026-04-16T12:35:44.876Z</time></trkpt><trkpt lat="42.68714" lon="-8.500155"><ele>304.79999999999995</ele><time>2026-04-16T12:35:45.876Z</time></trkpt><trkpt lat="42.68709" lon="-8.5002717"><ele>303.4</ele><time>2026-04-16T12:35:46.877Z</time></trkpt><trkpt lat="42.6870367" lon="-8.500385"><ele>302.0</ele><time>2026-04-16T12:35:47.876Z</time></trkpt><trkpt lat="42.686985" lon="-8.5004983"><ele>301.6</ele><time>2026-04-16T12:35:48.876Z</time></trkpt><trkpt lat="42.6869283" lon="-8.5006117"><ele>301.2</ele><time>2026-04-16T12:35:49.877Z</time></trkpt><trkpt lat="42.6868633" lon="-8.5007217"><ele>300.8</ele><time>2026-04-16T12:35:50.876Z</time></trkpt><trkpt lat="42.68681" lon="-8.50083"><ele>300.4</ele><time>2026-04-16T12:35:51.876Z</time></trkpt><trkpt lat="42.6867667" lon="-8.5009417"><ele>300.0</ele><time>2026-04-16T12:35:52.876Z</time></trkpt><trkpt lat="42.6867217" lon="-8.5010467"><ele>300.2</ele><time>2026-04-16T12:35:53.876Z</time></trkpt><trkpt lat="42.6866683" lon="-8.5011583"><ele>300.4</ele><time>2026-04-16T12:35:54.876Z</time></trkpt><trkpt lat="42.6866183" lon="-8.5012617"><ele>300.6</ele><time>2026-04-16T12:35:55.877Z</time></trkpt><trkpt lat="42.6865683" lon="-8.5013683"><ele>300.8</ele><time>2026-04-16T12:35:56.877Z</time></trkpt><trkpt lat="42.6865183" lon="-8.50147"><ele>301.0</ele><time>2026-04-16T12:35:57.877Z</time></trkpt><trkpt lat="42.68646" lon="-8.501575"><ele>301.0</ele><time>2026-04-16T12:35:58.876Z</time></trkpt><trkpt lat="42.6864017" lon="-8.5016883"><ele>301.0</ele><time>2026-04-16T12:35:59.877Z</time></trkpt><trkpt lat="42.6863417" lon="-8.5018067"><ele>301.0</ele><time>2026-04-16T12:36:00.876Z</time></trkpt><trkpt lat="42.686285" lon="-8.50193"><ele>301.0</ele><time>2026-04-16T12:36:01.877Z</time></trkpt><trkpt lat="42.6862283" lon="-8.502055"><ele>301.0</ele><time>2026-04-16T12:36:02.877Z</time></trkpt><trkpt lat="42.6861717" lon="-8.502185"><ele>300.40000000000003</ele><time>2026-04-16T12:36:03.876Z</time></trkpt><trkpt lat="42.6861083" lon="-8.5023067"><ele>299.8</ele><time>2026-04-16T12:36:04.877Z</time></trkpt><trkpt lat="42.6860483" lon="-8.502425"><ele>299.20000000000005</ele><time>2026-04-16T12:36:05.877Z</time></trkpt><trkpt lat="42.6859883" lon="-8.5025433"><ele>298.6</ele><time>2026-04-16T12:36:06.876Z</time></trkpt><trkpt lat="42.6859433" lon="-8.50265"><ele>298.0</ele><time>2026-04-16T12:36:07.876Z</time></trkpt><trkpt lat="42.6858983" lon="-8.5027717"><ele>299.0</ele><time>2026-04-16T12:36:08.876Z</time></trkpt><trkpt lat="42.685845" lon="-8.5028967"><ele>300.0</ele><time>2026-04-16T12:36:09.877Z</time></trkpt><trkpt lat="42.6857817" lon="-8.5030183"><ele>301.0</ele><time>2026-04-16T12:36:10.877Z</time></trkpt><trkpt lat="42.68572" lon="-8.5031433"><ele>302.0</ele><time>2026-04-16T12:36:11.877Z</time></trkpt><trkpt lat="42.6856583" lon="-8.5032767"><ele>303.0</ele><time>2026-04-16T12:36:12.877Z</time></trkpt><trkpt lat="42.6855983" lon="-8.5034033"><ele>303.0</ele><time>2026-04-16T12:36:13.876Z</time></trkpt><trkpt lat="42.6855383" lon="-8.5035283"><ele>303.0</ele><time>2026-04-16T12:36:14.876Z</time></trkpt><trkpt lat="42.6854833" lon="-8.5036567"><ele>303.0</ele><time>2026-04-16T12:36:15.876Z</time></trkpt><trkpt lat="42.685425" lon="-8.5037783"><ele>303.0</ele><time>2026-04-16T12:36:16.877Z</time></trkpt><trkpt lat="42.6853667" lon="-8.5039083"><ele>303.0</ele><time>2026-04-16T12:36:17.877Z</time></trkpt><trkpt lat="42.6853133" lon="-8.5040317"><ele>304.4</ele><time>2026-04-16T12:36:18.876Z</time></trkpt><trkpt lat="42.68526" lon="-8.5041633"><ele>305.8</ele><time>2026-04-16T12:36:19.877Z</time></trkpt><trkpt lat="42.6852133" lon="-8.50429"><ele>307.2</ele><time>2026-04-16T12:36:20.876Z</time></trkpt><trkpt lat="42.68517" lon="-8.504425"><ele>308.6</ele><time>2026-04-16T12:36:21.877Z</time></trkpt><trkpt lat="42.685135" lon="-8.5045567"><ele>310.0</ele><time>2026-04-16T12:36:22.877Z</time></trkpt><trkpt lat="42.6851133" lon="-8.5046967"><ele>310.0</ele><time>2026-04-16T12:36:23.876Z</time></trkpt><trkpt lat="42.6851017" lon="-8.5048433"><ele>310.0</ele><time>2026-04-16T12:36:24.877Z</time></trkpt><trkpt lat="42.6851017" lon="-8.5049983"><ele>310.0</ele><time>2026-04-16T12:36:25.876Z</time></trkpt><trkpt lat="42.6851133" lon="-8.5051433"><ele>310.0</ele><time>2026-04-16T12:36:26.876Z</time></trkpt><trkpt lat="42.6851267" lon="-8.5052917"><ele>310.0</ele><time>2026-04-16T12:36:27.877Z</time></trkpt><trkpt lat="42.685145" lon="-8.5054367"><ele>310.2</ele><time>2026-04-16T12:36:28.876Z</time></trkpt><trkpt lat="42.6851717" lon="-8.5055817"><ele>310.4</ele><time>2026-04-16T12:36:29.876Z</time></trkpt><trkpt lat="42.6852033" lon="-8.5057217"><ele>310.6</ele><time>2026-04-16T12:36:30.876Z</time></trkpt><trkpt lat="42.6852417" lon="-8.505865"><ele>310.8</ele><time>2026-04-16T12:36:31.876Z</time></trkpt><trkpt lat="42.68529" lon="-8.506"><ele>311.0</ele><time>2026-04-16T12:36:32.876Z</time></trkpt><trkpt lat="42.6853483" lon="-8.5061267"><ele>311.0</ele><time>2026-04-16T12:36:33.877Z</time></trkpt><trkpt lat="42.685425" lon="-8.50624"><ele>311.0</ele><time>2026-04-16T12:36:34.877Z</time></trkpt><trkpt lat="42.68551" lon="-8.5063333"><ele>311.0</ele><time>2026-04-16T12:36:35.876Z</time></trkpt><trkpt lat="42.685605" lon="-8.5064183"><ele>311.0</ele><time>2026-04-16T12:36:36.876Z</time></trkpt><trkpt lat="42.685705" lon="-8.5064883"><ele>311.0</ele><time>2026-04-16T12:36:37.877Z</time></trkpt><trkpt lat="42.6858117" lon="-8.50656"><ele>311.0</ele><time>2026-04-16T12:36:38.876Z</time></trkpt><trkpt lat="42.68592" lon="-8.5066233"><ele>311.0</ele><time>2026-04-16T12:36:39.877Z</time></trkpt><trkpt lat="42.6860283" lon="-8.50669"><ele>311.0</ele><time>2026-04-16T12:36:40.876Z</time></trkpt><trkpt lat="42.68614" lon="-8.50675"><ele>311.0</ele><time>2026-04-16T12:36:41.877Z</time></trkpt><trkpt lat="42.6862433" lon="-8.5068233"><ele>309.8</ele><time>2026-04-16T12:36:42.876Z</time></trkpt><trkpt lat="42.6863433" lon="-8.5068833"><ele>308.6</ele><time>2026-04-16T12:36:43.876Z</time></trkpt><trkpt lat="42.68644" lon="-8.5069283"><ele>307.4</ele><time>2026-04-16T12:36:44.877Z</time></trkpt><trkpt lat="42.6865267" lon="-8.5069867"><ele>306.2</ele><time>2026-04-16T12:36:45.877Z</time></trkpt><trkpt lat="42.6866067" lon="-8.5070333"><ele>305.0</ele><time>2026-04-16T12:36:46.876Z</time></trkpt><trkpt lat="42.6866933" lon="-8.5070667"><ele>305.0</ele><time>2026-04-16T12:36:47.877Z</time></trkpt><trkpt lat="42.6867917" lon="-8.5070633"><ele>305.0</ele><time>2026-04-16T12:36:48.877Z</time></trkpt><trkpt lat="42.686895" lon="-8.507035"><ele>305.0</ele><time>2026-04-16T12:36:49.876Z</time></trkpt><trkpt lat="42.6869917" lon="-8.5069817"><ele>305.0</ele><time>2026-04-16T12:36:50.877Z</time></trkpt><trkpt lat="42.68709" lon="-8.50692"><ele>305.0</ele><time>2026-04-16T12:36:51.877Z</time></trkpt><trkpt lat="42.6871983" lon="-8.506855"><ele>304.5</ele><time>2026-04-16T12:36:52.877Z</time></trkpt><trkpt lat="42.6873083" lon="-8.506785"><ele>304.0</ele><time>2026-04-16T12:36:53.877Z</time></trkpt><trkpt lat="42.6874217" lon="-8.5067217"><ele>303.5</ele><time>2026-04-16T12:36:54.877Z</time></trkpt><trkpt lat="42.6875317" lon="-8.506665"><ele>303.0</ele><time>2026-04-16T12:36:55.877Z</time></trkpt><trkpt lat="42.6876417" lon="-8.5066083"><ele>303.0</ele><time>2026-04-16T12:36:56.877Z</time></trkpt><trkpt lat="42.6877483" lon="-8.5065483"><ele>303.0</ele><time>2026-04-16T12:36:57.877Z</time></trkpt><trkpt lat="42.687855" lon="-8.50649"><ele>303.0</ele><time>2026-04-16T12:36:58.876Z</time></trkpt><trkpt lat="42.6879567" lon="-8.5064267"><ele>303.0</ele><time>2026-04-16T12:36:59.876Z</time></trkpt><trkpt lat="42.6880617" lon="-8.5063683"><ele>302.5</ele><time>2026-04-16T12:37:00.876Z</time></trkpt><trkpt lat="42.688165" lon="-8.5063067"><ele>302.0</ele><time>2026-04-16T12:37:01.877Z</time></trkpt><trkpt lat="42.6882683" lon="-8.5062417"><ele>301.5</ele><time>2026-04-16T12:37:02.876Z</time></trkpt><trkpt lat="42.68837" lon="-8.5061733"><ele>301.0</ele><time>2026-04-16T12:37:03.877Z</time></trkpt><trkpt lat="42.6884717" lon="-8.5060983"><ele>301.0</ele><time>2026-04-16T12:37:04.876Z</time></trkpt><trkpt lat="42.6885783" lon="-8.5060233"><ele>301.0</ele><time>2026-04-16T12:37:05.877Z</time></trkpt><trkpt lat="42.6886883" lon="-8.50593"><ele>301.0</ele><time>2026-04-16T12:37:06.877Z</time></trkpt><trkpt lat="42.6887867" lon="-8.505845"><ele>301.0</ele><time>2026-04-16T12:37:07.876Z</time></trkpt><trkpt lat="42.6888867" lon="-8.5057683"><ele>299.75</ele><time>2026-04-16T12:37:08.877Z</time></trkpt><trkpt lat="42.6889883" lon="-8.5056933"><ele>298.5</ele><time>2026-04-16T12:37:09.876Z</time></trkpt><trkpt lat="42.6890883" lon="-8.5056183"><ele>297.25</ele><time>2026-04-16T12:37:10.877Z</time></trkpt><trkpt lat="42.689185" lon="-8.5055433"><ele>296.0</ele><time>2026-04-16T12:37:11.876Z</time></trkpt><trkpt lat="42.689285" lon="-8.50547"><ele>295.5</ele><time>2026-04-16T12:37:12.877Z</time></trkpt><trkpt lat="42.689385" lon="-8.5053917"><ele>295.0</ele><time>2026-04-16T12:37:13.877Z</time></trkpt><trkpt lat="42.6894833" lon="-8.5053067"><ele>294.5</ele><time>2026-04-16T12:37:14.876Z</time></trkpt><trkpt lat="42.6895867" lon="-8.5052217"><ele>294.0</ele><time>2026-04-16T12:37:15.876Z</time></trkpt><trkpt lat="42.6896917" lon="-8.5051417"><ele>292.0</ele><time>2026-04-16T12:37:16.877Z</time></trkpt><trkpt lat="42.6897933" lon="-8.5050567"><ele>290.0</ele><time>2026-04-16T12:37:17.876Z</time></trkpt><trkpt lat="42.689895" lon="-8.5049733"><ele>288.0</ele><time>2026-04-16T12:37:18.877Z</time></trkpt><trkpt lat="42.6899883" lon="-8.5048883"><ele>286.0</ele><time>2026-04-16T12:37:19.877Z</time></trkpt><trkpt lat="42.6900733" lon="-8.5048067"><ele>286.0</ele><time>2026-04-16T12:37:20.877Z</time></trkpt><trkpt lat="42.6901517" lon="-8.5047367"><ele>286.0</ele><time>2026-04-16T12:37:21.876Z</time></trkpt><trkpt lat="42.6902217" lon="-8.5046783"><ele>286.0</ele><time>2026-04-16T12:37:22.876Z</time></trkpt><trkpt lat="42.6902883" lon="-8.5046367"><ele>286.0</ele><time>2026-04-16T12:37:23.877Z</time></trkpt><trkpt lat="42.6903567" lon="-8.50463"><ele>286.0</ele><time>2026-04-16T12:37:24.876Z</time></trkpt><trkpt lat="42.6904267" lon="-8.5046533"><ele>286.0</ele><time>2026-04-16T12:37:25.877Z</time></trkpt><trkpt lat="42.690495" lon="-8.504725"><ele>285.6</ele><time>2026-04-16T12:37:26.876Z</time></trkpt><trkpt lat="42.6905517" lon="-8.504825"><ele>285.20000000000005</ele><time>2026-04-16T12:37:27.876Z</time></trkpt><trkpt lat="42.690605" lon="-8.5049533"><ele>284.79999999999995</ele><time>2026-04-16T12:37:28.877Z</time></trkpt><trkpt lat="42.6906617" lon="-8.5050883"><ele>284.4</ele><time>2026-04-16T12:37:29.876Z</time></trkpt><trkpt lat="42.6907217" lon="-8.505215"><ele>284.0</ele><time>2026-04-16T12:37:30.877Z</time></trkpt><trkpt lat="42.69079" lon="-8.505345"><ele>284.2</ele><time>2026-04-16T12:37:31.877Z</time></trkpt><trkpt lat="42.690855" lon="-8.5054667"><ele>284.4</ele><time>2026-04-16T12:37:32.877Z</time></trkpt><trkpt lat="42.6909217" lon="-8.5055833"><ele>284.6</ele><time>2026-04-16T12:37:33.877Z</time></trkpt><trkpt lat="42.6909833" lon="-8.5056883"><ele>284.8</ele><time>2026-04-16T12:37:34.876Z</time></trkpt><trkpt lat="42.6910517" lon="-8.505785"><ele>285.0</ele><time>2026-04-16T12:37:35.877Z</time></trkpt><trkpt lat="42.6911317" lon="-8.5058517"><ele>284.2</ele><time>2026-04-16T12:37:36.876Z</time></trkpt><trkpt lat="42.69123" lon="-8.50589"><ele>283.4</ele><time>2026-04-16T12:37:37.876Z</time></trkpt><trkpt lat="42.6913333" lon="-8.505915"><ele>282.6</ele><time>2026-04-16T12:37:38.876Z</time></trkpt><trkpt lat="42.6914317" lon="-8.5059367"><ele>281.8</ele><time>2026-04-16T12:37:39.876Z</time></trkpt><trkpt lat="42.69153" lon="-8.5059567"><ele>281.0</ele><time>2026-04-16T12:37:40.876Z</time></trkpt><trkpt lat="42.69163" lon="-8.505975"><ele>281.0</ele><time>2026-04-16T12:37:41.876Z</time></trkpt><trkpt lat="42.69173" lon="-8.5060033"><ele>281.0</ele><time>2026-04-16T12:37:42.876Z</time></trkpt><trkpt lat="42.69184" lon="-8.5060217"><ele>281.0</ele><time>2026-04-16T12:37:43.876Z</time></trkpt><trkpt lat="42.6919567" lon="-8.50603"><ele>281.0</ele><time>2026-04-16T12:37:44.877Z</time></trkpt><trkpt lat="42.69207" lon="-8.5060433"><ele>281.0</ele><time>2026-04-16T12:37:45.876Z</time></trkpt><trkpt lat="42.6921833" lon="-8.5060417"><ele>278.8</ele><time>2026-04-16T12:37:46.877Z</time></trkpt><trkpt lat="42.6923" lon="-8.50602"><ele>276.6</ele><time>2026-04-16T12:37:47.877Z</time></trkpt><trkpt lat="42.69241" lon="-8.5059883"><ele>274.4</ele><time>2026-04-16T12:37:48.877Z</time></trkpt><trkpt lat="42.6925133" lon="-8.5059633"><ele>272.2</ele><time>2026-04-16T12:37:49.876Z</time></trkpt><trkpt lat="42.6926183" lon="-8.505925"><ele>270.0</ele><time>2026-04-16T12:37:50.876Z</time></trkpt><trkpt lat="42.6927133" lon="-8.505895"><ele>268.0</ele><time>2026-04-16T12:37:51.876Z</time></trkpt><trkpt lat="42.6928117" lon="-8.5058683"><ele>266.0</ele><time>2026-04-16T12:37:52.877Z</time></trkpt><trkpt lat="42.692915" lon="-8.5058383"><ele>264.0</ele><time>2026-04-16T12:37:53.876Z</time></trkpt><trkpt lat="42.6930133" lon="-8.5058133"><ele>262.0</ele><time>2026-04-16T12:37:54.877Z</time></trkpt><trkpt lat="42.6931083" lon="-8.505775"><ele>260.0</ele><time>2026-04-16T12:37:55.876Z</time></trkpt><trkpt lat="42.693205" lon="-8.5057317"><ele>260.0</ele><time>2026-04-16T12:37:56.876Z</time></trkpt><trkpt lat="42.6932967" lon="-8.505685"><ele>260.0</ele><time>2026-04-16T12:37:57.877Z</time></trkpt><trkpt lat="42.69338" lon="-8.505635"><ele>260.0</ele><time>2026-04-16T12:37:58.876Z</time></trkpt><trkpt lat="42.693455" lon="-8.50558"><ele>260.0</ele><time>2026-04-16T12:37:59.876Z</time></trkpt><trkpt lat="42.6935183" lon="-8.5055333"><ele>260.0</ele><time>2026-04-16T12:38:00.877Z</time></trkpt><trkpt lat="42.6935833" lon="-8.505485"><ele>260.0</ele><time>2026-04-16T12:38:01.876Z</time></trkpt><trkpt lat="42.6936467" lon="-8.50545"><ele>259.6</ele><time>2026-04-16T12:38:02.877Z</time></trkpt><trkpt lat="42.693745" lon="-8.5054117"><ele>259.2</ele><time>2026-04-16T12:38:04.876Z</time></trkpt><trkpt lat="42.6938133" lon="-8.5053367"><ele>258.8</ele><time>2026-04-16T12:38:54.877Z</time></trkpt><trkpt lat="42.693895" lon="-8.5052583"><ele>258.4</ele><time>2026-04-16T12:38:56.876Z</time></trkpt><trkpt lat="42.6939767" lon="-8.5052383"><ele>258.0</ele><time>2026-04-16T12:38:58.877Z</time></trkpt><trkpt lat="42.6940617" lon="-8.505295"><ele>258.0</ele><time>2026-04-16T12:39:00.877Z</time></trkpt><trkpt lat="42.69411" lon="-8.50538"><ele>258.0</ele><time>2026-04-16T12:39:02.877Z</time></trkpt></trkseg></trk></gpx>